<?xml version='1.0' encoding='UTF-8'?><gpx version="1.1" creator="JPX - https://github.com/jenetics/jpx" xmlns="http://www.topografix.com/GPX/1/1"><trk><trkseg><trkpt lat="45.73407986676856" lon="-0.15375516894808916"><ele>72.0</ele><time>2026-05-01T13:10:12Z</time></trkpt><trkpt lat="45.73403919102545" lon="-0.15368474241507488"><ele>72.0</ele><time>2026-05-01T13:10:20Z</time></trkpt><trkpt lat="45.73410151469195" lon="-0.1536216744361576"><ele>72.0</ele><time>2026-05-01T13:11:02Z</time></trkpt><trkpt lat="45.734146887773775" lon="-0.15352259219020875"><ele>72.0</ele><time>2026-05-01T13:11:03Z</time></trkpt><trkpt lat="45.73421872878191" lon="-0.15343556739588646"><ele>72.0</ele><time>2026-05-01T13:11:04Z</time></trkpt><trkpt lat="45.734337665103425" lon="-0.15335802475137694"><ele>72.0</ele><time>2026-05-01T13:11:05Z</time></trkpt><trkpt lat="45.73448133707597" lon="-0.15330709196408068"><ele>72.25</ele><time>2026-05-01T13:11:06Z</time></trkpt><trkpt lat="45.73464038815401" lon="-0.15325160376390912"><ele>72.5</ele><time>2026-05-01T13:11:07Z</time></trkpt><trkpt lat="45.73476577351015" lon="-0.15319115649533274"><ele>72.75</ele><time>2026-05-01T13:11:08Z</time></trkpt><trkpt lat="45.73487571567069" lon="-0.15312625168269303"><ele>73.0</ele><time>2026-05-01T13:11:09Z</time></trkpt><trkpt lat="45.7349650104984" lon="-0.1530955086612302"><ele>73.0</ele><time>2026-05-01T13:11:10Z</time></trkpt><trkpt lat="45.73504837460403" lon="-0.15311440446221508"><ele>73.0</ele><time>2026-05-01T13:11:11Z</time></trkpt><trkpt lat="45.73511936582266" lon="-0.15315012030217556"><ele>73.0</ele><time>2026-05-01T13:11:12Z</time></trkpt><trkpt lat="45.73520138100566" lon="-0.15317123998748325"><ele>73.0</ele><time>2026-05-01T13:11:14Z</time></trkpt><trkpt lat="45.73526770458214" lon="-0.15307056173767417"><ele>73.0</ele><time>2026-05-01T13:11:15Z</time></trkpt><trkpt lat="45.7353510086442" lon="-0.15294253117311177"><ele>73.0</ele><time>2026-05-01T13:11:16Z</time></trkpt><trkpt lat="45.73544418765427" lon="-0.15282545367229472"><ele>73.0</ele><time>2026-05-01T13:11:17Z</time></trkpt><trkpt lat="45.735516216333274" lon="-0.15273677144358722"><ele>73.0</ele><time>2026-05-01T13:11:18Z</time></trkpt><trkpt lat="45.7355684491052" lon="-0.15267085280958234"><ele>73.0</ele><time>2026-05-01T13:11:19Z</time></trkpt><trkpt lat="45.735534044233916" lon="-0.15239687120528647"><ele>73.4</ele><time>2026-05-01T13:11:21Z</time></trkpt><trkpt lat="45.73551290617456" lon="-0.15224449443589427"><ele>73.8</ele><time>2026-05-01T13:11:22Z</time></trkpt><trkpt lat="45.735486941270196" lon="-0.15209813801178176"><ele>74.2</ele><time>2026-05-01T13:11:23Z</time></trkpt><trkpt lat="45.73546541864048" lon="-0.1519652530940427"><ele>74.6</ele><time>2026-05-01T13:11:24Z</time></trkpt><trkpt lat="45.73543535552518" lon="-0.15184548453594907"><ele>75.0</ele><time>2026-05-01T13:11:25Z</time></trkpt><trkpt lat="45.735421932598115" lon="-0.15173588727534726"><ele>75.0</ele><time>2026-05-01T13:11:26Z</time></trkpt><trkpt lat="45.735407050251894" lon="-0.15162495939036438"><ele>75.0</ele><time>2026-05-01T13:11:27Z</time></trkpt><trkpt lat="45.7354032801224" lon="-0.15150679115998705"><ele>75.0</ele><time>2026-05-01T13:11:28Z</time></trkpt><trkpt lat="45.7354072458607" lon="-0.1513164235396126"><ele>75.0</ele><time>2026-05-01T13:11:30Z</time></trkpt><trkpt lat="45.73543377211686" lon="-0.15121660086953592"><ele>75.0</ele><time>2026-05-01T13:11:31Z</time></trkpt><trkpt lat="45.73547689259509" lon="-0.15113268685494297"><ele>75.0</ele><time>2026-05-01T13:11:32Z</time></trkpt><trkpt lat="45.735529284883235" lon="-0.15105774793254428"><ele>74.83333333333333</ele><time>2026-05-01T13:11:33Z</time></trkpt><trkpt lat="45.735585572897556" lon="-0.15097848405158232"><ele>74.66666666666667</ele><time>2026-05-01T13:11:34Z</time></trkpt><trkpt lat="45.735620530568326" lon="-0.15087822750354513"><ele>74.5</ele><time>2026-05-01T13:11:35Z</time></trkpt><trkpt lat="45.73565139522663" lon="-0.15079665831548575"><ele>74.33333333333334</ele><time>2026-05-01T13:11:36Z</time></trkpt><trkpt lat="45.735676952955544" lon="-0.15069695735333227"><ele>74.16666666666667</ele><time>2026-05-01T13:11:38Z</time></trkpt><trkpt lat="45.735639169823656" lon="-0.15054725748988326"><ele>74.0</ele><time>2026-05-01T13:11:40.001Z</time></trkpt><trkpt lat="45.735604407384656" lon="-0.15038426992706982"><ele>74.0</ele><time>2026-05-01T13:11:42.001Z</time></trkpt><trkpt lat="45.73560819170407" lon="-0.15028493407351398"><ele>74.0</ele><time>2026-05-01T13:11:43.001Z</time></trkpt><trkpt lat="45.73561127082741" lon="-0.15017202307652439"><ele>74.0</ele><time>2026-05-01T13:11:44.001Z</time></trkpt><trkpt lat="45.735620625945614" lon="-0.15004143250328728"><ele>74.0</ele><time>2026-05-01T13:11:45.001Z</time></trkpt><trkpt lat="45.735643431767976" lon="-0.14988999974683043"><ele>74.0</ele><time>2026-05-01T13:11:46.001Z</time></trkpt><trkpt lat="45.73566301096767" lon="-0.14975000013223494"><ele>74.0</ele><time>2026-05-01T13:11:47.001Z</time></trkpt><trkpt lat="45.73564995749448" lon="-0.14961799017690497"><ele>74.0</ele><time>2026-05-01T13:11:48.001Z</time></trkpt><trkpt lat="45.735621504364715" lon="-0.149476106961715"><ele>74.0</ele><time>2026-05-01T13:11:49.001Z</time></trkpt><trkpt lat="45.73557491205899" lon="-0.14931709083985456"><ele>74.0</ele><time>2026-05-01T13:11:50.001Z</time></trkpt><trkpt lat="45.73553206039448" lon="-0.1491364896244652"><ele>74.0</ele><time>2026-05-01T13:11:51.001Z</time></trkpt><trkpt lat="45.73551256027793" lon="-0.14897951823120098"><ele>74.33333333333334</ele><time>2026-05-01T13:11:52.001Z</time></trkpt><trkpt lat="45.735498803880475" lon="-0.14885134961638125"><ele>74.66666666666667</ele><time>2026-05-01T13:11:53.001Z</time></trkpt><trkpt lat="45.735486461206825" lon="-0.14874620355567666"><ele>75.0</ele><time>2026-05-01T13:11:54.001Z</time></trkpt><trkpt lat="45.73545810500467" lon="-0.14864190345953227"><ele>75.33333333333333</ele><time>2026-05-01T13:11:56.001Z</time></trkpt><trkpt lat="45.7355019235459" lon="-0.14851167030210205"><ele>75.66666666666666</ele><time>2026-05-01T13:11:58Z</time></trkpt><trkpt lat="45.735563132650086" lon="-0.1483981328662307"><ele>76.0</ele><time>2026-05-01T13:11:59Z</time></trkpt><trkpt lat="45.735608744095636" lon="-0.14829510993828274"><ele>76.0</ele><time>2026-05-01T13:12:00Z</time></trkpt><trkpt lat="45.73563395243501" lon="-0.14812219132860743"><ele>76.0</ele><time>2026-05-01T13:12:02Z</time></trkpt><trkpt lat="45.73562578755201" lon="-0.14803132054791296"><ele>76.0</ele><time>2026-05-01T13:12:03Z</time></trkpt><trkpt lat="45.73560729891568" lon="-0.14793105401269563"><ele>76.0</ele><time>2026-05-01T13:12:04Z</time></trkpt><trkpt lat="45.735570038326536" lon="-0.147832456674719"><ele>76.0</ele><time>2026-05-01T13:12:05Z</time></trkpt><trkpt lat="45.73551007848134" lon="-0.14771912750660882"><ele>76.0</ele><time>2026-05-01T13:12:06Z</time></trkpt><trkpt lat="45.73541368706165" lon="-0.14757407677081913"><ele>76.0</ele><time>2026-05-01T13:12:07Z</time></trkpt><trkpt lat="45.735320056898495" lon="-0.14739392867424503"><ele>76.0</ele><time>2026-05-01T13:12:08Z</time></trkpt><trkpt lat="45.73522717623223" lon="-0.14717232395255447"><ele>76.0</ele><time>2026-05-01T13:12:09Z</time></trkpt><trkpt lat="45.73511171541825" lon="-0.1469426623475184"><ele>75.33333333333333</ele><time>2026-05-01T13:12:10Z</time></trkpt><trkpt lat="45.734989827949306" lon="-0.14669240115270948"><ele>74.66666666666667</ele><time>2026-05-01T13:12:11Z</time></trkpt><trkpt lat="45.73486803316573" lon="-0.1464234431758561"><ele>74.0</ele><time>2026-05-01T13:12:12Z</time></trkpt><trkpt lat="45.73475362707557" lon="-0.1461601117165124"><ele>73.66666666666667</ele><time>2026-05-01T13:12:13Z</time></trkpt><trkpt lat="45.734664298413946" lon="-0.14591906589094245"><ele>73.33333333333333</ele><time>2026-05-01T13:12:14Z</time></trkpt><trkpt lat="45.73458096005526" lon="-0.14567515378919213"><ele>73.0</ele><time>2026-05-01T13:12:15Z</time></trkpt><trkpt lat="45.734499467411375" lon="-0.14543100602203465"><ele>72.66666666666666</ele><time>2026-05-01T13:12:16Z</time></trkpt><trkpt lat="45.73440938387751" lon="-0.1451766565294607"><ele>72.33333333333333</ele><time>2026-05-01T13:12:17Z</time></trkpt><trkpt lat="45.73431703445937" lon="-0.14492094951023876"><ele>72.0</ele><time>2026-05-01T13:12:18Z</time></trkpt><trkpt lat="45.73422886175977" lon="-0.14467087084731722"><ele>71.0</ele><time>2026-05-01T13:12:19Z</time></trkpt><trkpt lat="45.73414071088074" lon="-0.14443250211244377"><ele>70.0</ele><time>2026-05-01T13:12:20Z</time></trkpt><trkpt lat="45.73405102849547" lon="-0.14418685103260986"><ele>69.0</ele><time>2026-05-01T13:12:21Z</time></trkpt><trkpt lat="45.73396173278569" lon="-0.14398346431218514"><ele>68.75</ele><time>2026-05-01T13:12:22Z</time></trkpt><trkpt lat="45.73388442602898" lon="-0.14379676218131052"><ele>68.5</ele><time>2026-05-01T13:12:23Z</time></trkpt><trkpt lat="45.733810341411434" lon="-0.1436166330577253"><ele>68.25</ele><time>2026-05-01T13:12:24Z</time></trkpt><trkpt lat="45.73373860335476" lon="-0.14344166602124114"><ele>68.0</ele><time>2026-05-01T13:12:25Z</time></trkpt><trkpt lat="45.73368693384728" lon="-0.14326605136953788"><ele>68.25</ele><time>2026-05-01T13:12:26Z</time></trkpt><trkpt lat="45.73364776172626" lon="-0.1430746003315776"><ele>68.5</ele><time>2026-05-01T13:12:27Z</time></trkpt><trkpt lat="45.73361520674131" lon="-0.14287448731320726"><ele>68.75</ele><time>2026-05-01T13:12:28Z</time></trkpt><trkpt lat="45.73357492971052" lon="-0.14265535125507295"><ele>69.0</ele><time>2026-05-01T13:12:29Z</time></trkpt><trkpt lat="45.73353268488863" lon="-0.14238721819889544"><ele>69.5</ele><time>2026-05-01T13:12:30Z</time></trkpt><trkpt lat="45.73348522878346" lon="-0.14206861669972307"><ele>70.0</ele><time>2026-05-01T13:12:31Z</time></trkpt><trkpt lat="45.73343284364451" lon="-0.14172895854388057"><ele>70.66666666666666</ele><time>2026-05-01T13:12:32Z</time></trkpt><trkpt lat="45.73336599626103" lon="-0.141450086273348"><ele>71.33333333333333</ele><time>2026-05-01T13:12:33Z</time></trkpt><trkpt lat="45.73331674115691" lon="-0.1411924611361708"><ele>72.0</ele><time>2026-05-01T13:12:34Z</time></trkpt><trkpt lat="45.73326368646253" lon="-0.14092227370012822"><ele>71.66666666666667</ele><time>2026-05-01T13:12:35Z</time></trkpt><trkpt lat="45.73321322999522" lon="-0.1406670602759882"><ele>71.33333333333334</ele><time>2026-05-01T13:12:36Z</time></trkpt><trkpt lat="45.733187101277395" lon="-0.14042720257795552"><ele>71.0</ele><time>2026-05-01T13:12:37Z</time></trkpt><trkpt lat="45.7331552801425" lon="-0.14020809113327318"><ele>71.0</ele><time>2026-05-01T13:12:38Z</time></trkpt><trkpt lat="45.73313676088881" lon="-0.13999454943441497"><ele>71.0</ele><time>2026-05-01T13:12:39Z</time></trkpt><trkpt lat="45.733124657130936" lon="-0.1397811873202928"><ele>71.0</ele><time>2026-05-01T13:12:40Z</time></trkpt><trkpt lat="45.733109380302096" lon="-0.13953870128424808"><ele>70.66666666666667</ele><time>2026-05-01T13:12:41Z</time></trkpt><trkpt lat="45.73309179714836" lon="-0.1392925025836649"><ele>70.33333333333333</ele><time>2026-05-01T13:12:42Z</time></trkpt><trkpt lat="45.73307867391424" lon="-0.13902655571141198"><ele>70.0</ele><time>2026-05-01T13:12:43Z</time></trkpt><trkpt lat="45.73306205714548" lon="-0.1387667409335207"><ele>70.0</ele><time>2026-05-01T13:12:44Z</time></trkpt><trkpt lat="45.733050452803916" lon="-0.13856086791840078"><ele>70.0</ele><time>2026-05-01T13:12:45Z</time></trkpt><trkpt lat="45.7330290337075" lon="-0.1383288265005221"><ele>70.0</ele><time>2026-05-01T13:12:46Z</time></trkpt><trkpt lat="45.733002722121924" lon="-0.13801788343971322"><ele>70.25</ele><time>2026-05-01T13:12:47Z</time></trkpt><trkpt lat="45.732993805485776" lon="-0.1377913638947508"><ele>70.5</ele><time>2026-05-01T13:12:48Z</time></trkpt><trkpt lat="45.73298777079785" lon="-0.1375816999894987"><ele>70.75</ele><time>2026-05-01T13:12:49Z</time></trkpt><trkpt lat="45.73299505429085" lon="-0.13738581278590192"><ele>71.0</ele><time>2026-05-01T13:12:50Z</time></trkpt><trkpt lat="45.73300552365762" lon="-0.13717567274725953"><ele>71.66666666666667</ele><time>2026-05-01T13:12:51Z</time></trkpt><trkpt lat="45.73302174310985" lon="-0.13694378624367337"><ele>72.33333333333333</ele><time>2026-05-01T13:12:52Z</time></trkpt><trkpt lat="45.73303738470637" lon="-0.13669430556099627"><ele>73.0</ele><time>2026-05-01T13:12:53Z</time></trkpt><trkpt lat="45.73304404096745" lon="-0.1364231987938126"><ele>73.0</ele><time>2026-05-01T13:12:54Z</time></trkpt><trkpt lat="45.733054292378824" lon="-0.13616911653686847"><ele>73.0</ele><time>2026-05-01T13:12:55Z</time></trkpt><trkpt lat="45.733061883811615" lon="-0.135963354669142"><ele>73.0</ele><time>2026-05-01T13:12:56Z</time></trkpt><trkpt lat="45.73306641100025" lon="-0.1357890252786539"><ele>73.0</ele><time>2026-05-01T13:12:57Z</time></trkpt><trkpt lat="45.733072241109745" lon="-0.13565731082144825"><ele>72.8</ele><time>2026-05-01T13:12:58Z</time></trkpt><trkpt lat="45.73308428460625" lon="-0.1355291751151817"><ele>72.6</ele><time>2026-05-01T13:12:59Z</time></trkpt><trkpt lat="45.73310406405613" lon="-0.1353996082570733"><ele>72.4</ele><time>2026-05-01T13:13:00Z</time></trkpt><trkpt lat="45.733144561332026" lon="-0.1352714474587124"><ele>72.2</ele><time>2026-05-01T13:13:01Z</time></trkpt><trkpt lat="45.73320258023007" lon="-0.1351503406038124"><ele>72.0</ele><time>2026-05-01T13:13:02Z</time></trkpt><trkpt lat="45.733288132981876" lon="-0.13499792231980495"><ele>72.33333333333333</ele><time>2026-05-01T13:13:03Z</time></trkpt><trkpt lat="45.7333993467428" lon="-0.13482924308318775"><ele>72.66666666666666</ele><time>2026-05-01T13:13:04Z</time></trkpt><trkpt lat="45.73351402130283" lon="-0.13463793826779702"><ele>73.0</ele><time>2026-05-01T13:13:05Z</time></trkpt><trkpt lat="45.733625638459166" lon="-0.13445307111373572"><ele>74.33333333333333</ele><time>2026-05-01T13:13:06Z</time></trkpt><trkpt lat="45.733724116137516" lon="-0.13424012924219303"><ele>75.66666666666667</ele><time>2026-05-01T13:13:07Z</time></trkpt><trkpt lat="45.73383511686627" lon="-0.13403327344633917"><ele>77.0</ele><time>2026-05-01T13:13:08Z</time></trkpt><trkpt lat="45.733930153447496" lon="-0.13388463787673474"><ele>77.0</ele><time>2026-05-01T13:13:09Z</time></trkpt><trkpt lat="45.73398269080632" lon="-0.1337378611971183"><ele>77.0</ele><time>2026-05-01T13:13:10Z</time></trkpt><trkpt lat="45.7340418446441" lon="-0.1336513486726241"><ele>77.0</ele><time>2026-05-01T13:13:11Z</time></trkpt><trkpt lat="45.73408854255168" lon="-0.13357325329391612"><ele>77.0</ele><time>2026-05-01T13:13:12Z</time></trkpt><trkpt lat="45.73415227513993" lon="-0.13353358035016674"><ele>77.0</ele><time>2026-05-01T13:13:13Z</time></trkpt><trkpt lat="45.73423555630739" lon="-0.13352099642155738"><ele>77.0</ele><time>2026-05-01T13:13:14Z</time></trkpt><trkpt lat="45.73433891304098" lon="-0.1335043396543211"><ele>78.33333333333334</ele><time>2026-05-01T13:13:15Z</time></trkpt><trkpt lat="45.73446900354943" lon="-0.13349685600372377"><ele>79.66666666666667</ele><time>2026-05-01T13:13:16Z</time></trkpt><trkpt lat="45.73463911391269" lon="-0.13350460467968375"><ele>81.0</ele><time>2026-05-01T13:13:17Z</time></trkpt><trkpt lat="45.734845653101225" lon="-0.13347399514137648"><ele>81.0</ele><time>2026-05-01T13:13:18Z</time></trkpt><trkpt lat="45.73506599382851" lon="-0.13346025126609123"><ele>81.0</ele><time>2026-05-01T13:13:19Z</time></trkpt><trkpt lat="45.73526028898903" lon="-0.13344132245865445"><ele>81.0</ele><time>2026-05-01T13:13:20Z</time></trkpt><trkpt lat="45.73543367665468" lon="-0.1334209639047988"><ele>81.66666666666667</ele><time>2026-05-01T13:13:21Z</time></trkpt><trkpt lat="45.73560483243225" lon="-0.133400867418507"><ele>82.33333333333334</ele><time>2026-05-01T13:13:22Z</time></trkpt><trkpt lat="45.73577973813548" lon="-0.1333790351231753"><ele>83.0</ele><time>2026-05-01T13:13:23Z</time></trkpt><trkpt lat="45.73595620121572" lon="-0.1333494245200528"><ele>83.33333333333334</ele><time>2026-05-01T13:13:24Z</time></trkpt><trkpt lat="45.73612786741724" lon="-0.13331604347359732"><ele>83.66666666666667</ele><time>2026-05-01T13:13:25Z</time></trkpt><trkpt lat="45.736302441841055" lon="-0.13332411342097947"><ele>84.0</ele><time>2026-05-01T13:13:26Z</time></trkpt><trkpt lat="45.73645415238554" lon="-0.13328951553906432"><ele>84.0</ele><time>2026-05-01T13:13:27Z</time></trkpt><trkpt lat="45.73661352211715" lon="-0.13327512051414703"><ele>84.0</ele><time>2026-05-01T13:13:28Z</time></trkpt><trkpt lat="45.73678725930933" lon="-0.133263473514832"><ele>84.0</ele><time>2026-05-01T13:13:29Z</time></trkpt><trkpt lat="45.736925820320565" lon="-0.13326236215061896"><ele>84.0</ele><time>2026-05-01T13:13:30Z</time></trkpt><trkpt lat="45.73704698754611" lon="-0.13328895951510172"><ele>84.0</ele><time>2026-05-01T13:13:31Z</time></trkpt><trkpt lat="45.73715831164976" lon="-0.13329264667856067"><ele>84.0</ele><time>2026-05-01T13:13:32Z</time></trkpt><trkpt lat="45.73724967000363" lon="-0.13328858489652678"><ele>84.0</ele><time>2026-05-01T13:13:33Z</time></trkpt><trkpt lat="45.737331064662854" lon="-0.13329865755516918"><ele>84.0</ele><time>2026-05-01T13:13:34Z</time></trkpt><trkpt lat="45.73743207710004" lon="-0.1332859307555327"><ele>84.0</ele><time>2026-05-01T13:13:36Z</time></trkpt><trkpt lat="45.73749492214643" lon="-0.1332646360059027"><ele>84.0</ele><time>2026-05-01T13:13:39Z</time></trkpt><trkpt lat="45.73748582087778" lon="-0.13308836755911913"><ele>84.0</ele><time>2026-05-01T13:13:40Z</time></trkpt><trkpt lat="45.7374824986658" lon="-0.13294047046671717"><ele>84.0</ele><time>2026-05-01T13:13:41Z</time></trkpt><trkpt lat="45.73748585488926" lon="-0.13274247093415611"><ele>84.0</ele><time>2026-05-01T13:13:42Z</time></trkpt><trkpt lat="45.73749327543257" lon="-0.132531546866642"><ele>84.66666666666667</ele><time>2026-05-01T13:13:43Z</time></trkpt><trkpt lat="45.73749468862055" lon="-0.13227863859919065"><ele>85.33333333333334</ele><time>2026-05-01T13:13:44Z</time></trkpt><trkpt lat="45.737486326401466" lon="-0.13198952641017916"><ele>86.0</ele><time>2026-05-01T13:13:45Z</time></trkpt><trkpt lat="45.73746294516494" lon="-0.13170399358047685"><ele>86.0</ele><time>2026-05-01T13:13:46Z</time></trkpt><trkpt lat="45.73743230209643" lon="-0.13143785123707977"><ele>86.0</ele><time>2026-05-01T13:13:47Z</time></trkpt><trkpt lat="45.73739806461036" lon="-0.13116452695026293"><ele>86.0</ele><time>2026-05-01T13:13:48Z</time></trkpt><trkpt lat="45.73735829324974" lon="-0.13088995769146675"><ele>86.66666666666667</ele><time>2026-05-01T13:13:49Z</time></trkpt><trkpt lat="45.73731661885566" lon="-0.13060356596451103"><ele>87.33333333333333</ele><time>2026-05-01T13:13:50Z</time></trkpt><trkpt lat="45.73727570413585" lon="-0.13031968694321425"><ele>88.0</ele><time>2026-05-01T13:13:51Z</time></trkpt><trkpt lat="45.73723811749948" lon="-0.13004391286945943"><ele>87.66666666666666</ele><time>2026-05-01T13:13:52Z</time></trkpt><trkpt lat="45.73719843145512" lon="-0.12976903965258083"><ele>87.33333333333333</ele><time>2026-05-01T13:13:53Z</time></trkpt><trkpt lat="45.737162824425525" lon="-0.12952935770869914"><ele>87.0</ele><time>2026-05-01T13:13:54Z</time></trkpt><trkpt lat="45.73713466748232" lon="-0.1293067782979263"><ele>87.66666666666667</ele><time>2026-05-01T13:13:55Z</time></trkpt><trkpt lat="45.737096308529885" lon="-0.12903988670045952"><ele>88.33333333333334</ele><time>2026-05-01T13:13:56Z</time></trkpt><trkpt lat="45.73706562236387" lon="-0.1287898590061447"><ele>89.0</ele><time>2026-05-01T13:13:57Z</time></trkpt><trkpt lat="45.73703347652158" lon="-0.12854417901458176"><ele>89.0</ele><time>2026-05-01T13:13:58Z</time></trkpt><trkpt lat="45.7370115160737" lon="-0.12832072300810574"><ele>89.0</ele><time>2026-05-01T13:13:59Z</time></trkpt><trkpt lat="45.73699293311329" lon="-0.1280900062801244"><ele>89.0</ele><time>2026-05-01T13:14:00Z</time></trkpt><trkpt lat="45.73698247586921" lon="-0.1278635019351146"><ele>89.0</ele><time>2026-05-01T13:14:01Z</time></trkpt><trkpt lat="45.73697243116788" lon="-0.12763656673850743"><ele>89.0</ele><time>2026-05-01T13:14:02Z</time></trkpt><trkpt lat="45.73695661810698" lon="-0.127411954925518"><ele>89.0</ele><time>2026-05-01T13:14:03Z</time></trkpt><trkpt lat="45.736941806873354" lon="-0.12721185226883908"><ele>89.0</ele><time>2026-05-01T13:14:03.999Z</time></trkpt><trkpt lat="45.73693441076679" lon="-0.127031104836324"><ele>89.0</ele><time>2026-05-01T13:14:04.999Z</time></trkpt><trkpt lat="45.73692436603221" lon="-0.12685017290813272"><ele>89.0</ele><time>2026-05-01T13:14:05.999Z</time></trkpt><trkpt lat="45.73689961035782" lon="-0.12668308569060105"><ele>89.0</ele><time>2026-05-01T13:14:06.999Z</time></trkpt><trkpt lat="45.73689003654857" lon="-0.12652045858805056"><ele>89.6</ele><time>2026-05-01T13:14:07.999Z</time></trkpt><trkpt lat="45.73688487108583" lon="-0.12636309612290222"><ele>90.2</ele><time>2026-05-01T13:14:08.999Z</time></trkpt><trkpt lat="45.73687705576217" lon="-0.12620852815522263"><ele>90.8</ele><time>2026-05-01T13:14:09.999Z</time></trkpt><trkpt lat="45.73687253430265" lon="-0.12606202020330423"><ele>91.39999999999999</ele><time>2026-05-01T13:14:10.999Z</time></trkpt><trkpt lat="45.736859807981006" lon="-0.12593339280308571"><ele>92.0</ele><time>2026-05-01T13:14:11.999Z</time></trkpt><trkpt lat="45.73684485782735" lon="-0.12575712788901833"><ele>90.5</ele><time>2026-05-01T13:14:12.999Z</time></trkpt><trkpt lat="45.73681033757116" lon="-0.12561926052753003"><ele>89.0</ele><time>2026-05-01T13:14:15Z</time></trkpt><trkpt lat="45.736954685411604" lon="-0.12555536076548515"><ele>87.5</ele><time>2026-05-01T13:14:21Z</time></trkpt><trkpt lat="45.73708387355843" lon="-0.1256258660153149"><ele>86.0</ele><time>2026-05-01T13:14:22Z</time></trkpt><trkpt lat="45.737211801165046" lon="-0.12568903915973034"><ele>86.66666666666667</ele><time>2026-05-01T13:14:23Z</time></trkpt><trkpt lat="45.73737132752595" lon="-0.12574241243851003"><ele>87.33333333333333</ele><time>2026-05-01T13:14:24Z</time></trkpt><trkpt lat="45.737518957227984" lon="-0.12577083251989185"><ele>88.0</ele><time>2026-05-01T13:14:25Z</time></trkpt><trkpt lat="45.737669245584236" lon="-0.12572453340343182"><ele>86.5</ele><time>2026-05-01T13:14:26Z</time></trkpt><trkpt lat="45.73780428660182" lon="-0.12564202249845477"><ele>85.0</ele><time>2026-05-01T13:14:27Z</time></trkpt><trkpt lat="45.73790862254243" lon="-0.12552424847590718"><ele>83.5</ele><time>2026-05-01T13:14:28Z</time></trkpt><trkpt lat="45.73799822937357" lon="-0.12539725907872432"><ele>82.0</ele><time>2026-05-01T13:14:29Z</time></trkpt><trkpt lat="45.73807321304506" lon="-0.12529342859042117"><ele>82.0</ele><time>2026-05-01T13:14:30Z</time></trkpt><trkpt lat="45.738145666820905" lon="-0.12522733654961118"><ele>82.0</ele><time>2026-05-01T13:14:31Z</time></trkpt><trkpt lat="45.738197703174606" lon="-0.12516800057188715"><ele>82.0</ele><time>2026-05-01T13:14:32Z</time></trkpt><trkpt lat="45.73834268072727" lon="-0.12517882248487114"><ele>82.0</ele><time>2026-05-01T13:14:34Z</time></trkpt><trkpt lat="45.7384053442657" lon="-0.1251972779161341"><ele>82.0</ele><time>2026-05-01T13:14:35Z</time></trkpt><trkpt lat="45.738470186547495" lon="-0.1252360361965142"><ele>82.0</ele><time>2026-05-01T13:14:36Z</time></trkpt><trkpt lat="45.738541309368735" lon="-0.12529745009144147"><ele>82.19999999999999</ele><time>2026-05-01T13:14:37Z</time></trkpt><trkpt lat="45.738612008998835" lon="-0.12539764217586313"><ele>82.4</ele><time>2026-05-01T13:14:38Z</time></trkpt><trkpt lat="45.73868000198578" lon="-0.12548457576417715"><ele>82.6</ele><time>2026-05-01T13:14:39Z</time></trkpt><trkpt lat="45.738764946977994" lon="-0.12558751886045463"><ele>82.80000000000001</ele><time>2026-05-01T13:14:40Z</time></trkpt><trkpt lat="45.73884105107288" lon="-0.12570462872998123"><ele>83.0</ele><time>2026-05-01T13:14:41Z</time></trkpt><trkpt lat="45.73893395237429" lon="-0.12579076845185322"><ele>82.5</ele><time>2026-05-01T13:14:42Z</time></trkpt><trkpt lat="45.73901020199362" lon="-0.12591317257946197"><ele>82.0</ele><time>2026-05-01T13:14:43Z</time></trkpt><trkpt lat="45.73910103761574" lon="-0.1260380709839061"><ele>81.5</ele><time>2026-05-01T13:14:44Z</time></trkpt><trkpt lat="45.739184590243546" lon="-0.1261482993316409"><ele>81.0</ele><time>2026-05-01T13:14:45Z</time></trkpt><trkpt lat="45.73927871313874" lon="-0.126235068487139"><ele>81.0</ele><time>2026-05-01T13:14:46Z</time></trkpt><trkpt lat="45.73936279672761" lon="-0.1263275710563428"><ele>81.0</ele><time>2026-05-01T13:14:47Z</time></trkpt><trkpt lat="45.73944494378462" lon="-0.12641043256607712"><ele>81.0</ele><time>2026-05-01T13:14:48Z</time></trkpt><trkpt lat="45.73953330279443" lon="-0.12651108169307315"><ele>81.0</ele><time>2026-05-01T13:14:49Z</time></trkpt><trkpt lat="45.73963114711879" lon="-0.12658144612061517"><ele>81.0</ele><time>2026-05-01T13:14:50Z</time></trkpt><trkpt lat="45.73973339655667" lon="-0.12667345973774038"><ele>81.19999999999999</ele><time>2026-05-01T13:14:51Z</time></trkpt><trkpt lat="45.73983213315074" lon="-0.1267884697121871"><ele>81.39999999999999</ele><time>2026-05-01T13:14:52Z</time></trkpt><trkpt lat="45.739925026037874" lon="-0.12685782509053398"><ele>81.6</ele><time>2026-05-01T13:14:53Z</time></trkpt><trkpt lat="45.74000048533425" lon="-0.1269192965925302"><ele>81.8</ele><time>2026-05-01T13:14:54Z</time></trkpt><trkpt lat="45.7400649601665" lon="-0.12698930301509945"><ele>82.0</ele><time>2026-05-01T13:14:55Z</time></trkpt><trkpt lat="45.74013543183182" lon="-0.12705071997829714"><ele>82.0</ele><time>2026-05-01T13:14:56Z</time></trkpt><trkpt lat="45.740213109382076" lon="-0.12712840471259237"><ele>82.0</ele><time>2026-05-01T13:14:57Z</time></trkpt><trkpt lat="45.74029395693938" lon="-0.12720576532212768"><ele>82.0</ele><time>2026-05-01T13:14:58Z</time></trkpt><trkpt lat="45.740427629905405" lon="-0.12734746560066015"><ele>82.0</ele><time>2026-05-01T13:14:59Z</time></trkpt><trkpt lat="45.74059735023704" lon="-0.12748235658927257"><ele>82.0</ele><time>2026-05-01T13:15:00Z</time></trkpt><trkpt lat="45.740732836678816" lon="-0.12761316492324007"><ele>82.0</ele><time>2026-05-01T13:15:01Z</time></trkpt><trkpt lat="45.74084378614753" lon="-0.12772065910752034"><ele>82.0</ele><time>2026-05-01T13:15:02Z</time></trkpt><trkpt lat="45.74096756599495" lon="-0.1278405840720701"><ele>82.0</ele><time>2026-05-01T13:15:03Z</time></trkpt><trkpt lat="45.741092492566366" lon="-0.12796213918549507"><ele>82.0</ele><time>2026-05-01T13:15:04Z</time></trkpt><trkpt lat="45.74121907657158" lon="-0.12808299221173935"><ele>82.0</ele><time>2026-05-01T13:15:05Z</time></trkpt><trkpt lat="45.74133200130144" lon="-0.12818691385476755"><ele>82.0</ele><time>2026-05-01T13:15:06Z</time></trkpt><trkpt lat="45.7414384132258" lon="-0.12828438509791332"><ele>82.0</ele><time>2026-05-01T13:15:07Z</time></trkpt><trkpt lat="45.74154750066208" lon="-0.1283922796039215"><ele>82.25</ele><time>2026-05-01T13:15:08Z</time></trkpt><trkpt lat="45.7416496868325" lon="-0.1285195194514673"><ele>82.5</ele><time>2026-05-01T13:15:09Z</time></trkpt><trkpt lat="45.74175753889977" lon="-0.1286740570914767"><ele>82.75</ele><time>2026-05-01T13:15:10Z</time></trkpt><trkpt lat="45.74187602225888" lon="-0.12882430869334388"><ele>83.0</ele><time>2026-05-01T13:15:11Z</time></trkpt><trkpt lat="45.74199927044448" lon="-0.12895010895529638"><ele>82.75</ele><time>2026-05-01T13:15:12Z</time></trkpt><trkpt lat="45.742100907199564" lon="-0.12907614787015312"><ele>82.5</ele><time>2026-05-01T13:15:13Z</time></trkpt><trkpt lat="45.742202334872694" lon="-0.1291931130642892"><ele>82.25</ele><time>2026-05-01T13:15:14Z</time></trkpt><trkpt lat="45.742302016908646" lon="-0.1293037423990503"><ele>82.0</ele><time>2026-05-01T13:15:15Z</time></trkpt><trkpt lat="45.742409889249785" lon="-0.12944569898141278"><ele>82.0</ele><time>2026-05-01T13:15:16Z</time></trkpt><trkpt lat="45.74253675645419" lon="-0.1295561849949564"><ele>82.0</ele><time>2026-05-01T13:15:17Z</time></trkpt><trkpt lat="45.74265446558959" lon="-0.12965961050784872"><ele>82.0</ele><time>2026-05-01T13:15:18Z</time></trkpt><trkpt lat="45.742786572429644" lon="-0.12973587093266542"><ele>82.0</ele><time>2026-05-01T13:15:19Z</time></trkpt><trkpt lat="45.74292257269763" lon="-0.1298102305939964"><ele>81.75</ele><time>2026-05-01T13:15:20Z</time></trkpt><trkpt lat="45.74304556391074" lon="-0.12988848576458237"><ele>81.5</ele><time>2026-05-01T13:15:21Z</time></trkpt><trkpt lat="45.743171925747625" lon="-0.12993811278544137"><ele>81.25</ele><time>2026-05-01T13:15:22Z</time></trkpt><trkpt lat="45.743283413680935" lon="-0.12998897648736457"><ele>81.0</ele><time>2026-05-01T13:15:23Z</time></trkpt><trkpt lat="45.74339505741242" lon="-0.1300559432688358"><ele>81.0</ele><time>2026-05-01T13:15:24Z</time></trkpt><trkpt lat="45.74347873734297" lon="-0.1300911978556395"><ele>81.0</ele><time>2026-05-01T13:15:25Z</time></trkpt><trkpt lat="45.74354963820894" lon="-0.1301104345202962"><ele>81.0</ele><time>2026-05-01T13:15:27Z</time></trkpt><trkpt lat="45.74346433877391" lon="-0.13026635914970983"><ele>81.0</ele><time>2026-05-01T13:15:30Z</time></trkpt><trkpt lat="45.74342436293081" lon="-0.13036686891319668"><ele>81.0</ele><time>2026-05-01T13:15:31Z</time></trkpt><trkpt lat="45.74333672852412" lon="-0.1304746856772105"><ele>81.0</ele><time>2026-05-01T13:15:32Z</time></trkpt><trkpt lat="45.743293512100266" lon="-0.130574536231566"><ele>81.0</ele><time>2026-05-01T13:15:33Z</time></trkpt><trkpt lat="45.74348467011887" lon="-0.13017386056753827"><ele>81.0</ele><time>2026-05-01T13:15:39Z</time></trkpt><trkpt lat="45.743611066615124" lon="-0.1301622558858671"><ele>80.2</ele><time>2026-05-01T13:15:40Z</time></trkpt><trkpt lat="45.74370846404702" lon="-0.13017384446351385"><ele>79.39999999999999</ele><time>2026-05-01T13:15:43Z</time></trkpt><trkpt lat="45.74382153096682" lon="-0.13021336526953062"><ele>78.6</ele><time>2026-05-01T13:15:45Z</time></trkpt><trkpt lat="45.74391007651639" lon="-0.1302397863808448"><ele>77.8</ele><time>2026-05-01T13:15:47Z</time></trkpt><trkpt lat="45.74398718759107" lon="-0.13025919839077457"><ele>77.0</ele><time>2026-05-01T13:15:49Z</time></trkpt><trkpt lat="45.744016999458495" lon="-0.13046164892444845"><ele>77.0</ele><time>2026-05-01T13:15:53Z</time></trkpt><trkpt lat="45.74409401163424" lon="-0.1304187386810147"><ele>77.0</ele><time>2026-05-01T13:15:55Z</time></trkpt><trkpt lat="45.744104039851734" lon="-0.13056236062266924"><ele>77.0</ele><time>2026-05-01T13:15:57Z</time></trkpt><trkpt lat="45.744060634163944" lon="-0.13066143283164355"><ele>77.0</ele><time>2026-05-01T13:15:58Z</time></trkpt><trkpt lat="45.7440525766482" lon="-0.13080364682555592"><ele>77.0</ele><time>2026-05-01T13:16:00Z</time></trkpt><trkpt lat="45.74414285429771" lon="-0.13080950220528495"><ele>77.0</ele><time>2026-05-01T13:16:02Z</time></trkpt><trkpt lat="45.7441860789587" lon="-0.13071787367315363"><ele>77.0</ele><time>2026-05-01T13:16:04Z</time></trkpt><trkpt lat="45.7442307044758" lon="-0.13058894886106226"><ele>77.0</ele><time>2026-05-01T13:16:06Z</time></trkpt><trkpt lat="45.74428833032577" lon="-0.130464443218174"><ele>77.0</ele><time>2026-05-01T13:16:08Z</time></trkpt><trkpt lat="45.744340692993624" lon="-0.13040078009664027"><ele>77.0</ele><time>2026-05-01T13:16:09.999Z</time></trkpt><trkpt lat="45.744388643071424" lon="-0.13052902579616404"><ele>76.83333333333334</ele><time>2026-05-01T13:16:11.999Z</time></trkpt><trkpt lat="45.744381731727444" lon="-0.130662352769922"><ele>76.66666666666667</ele><time>2026-05-01T13:16:12.999Z</time></trkpt><trkpt lat="45.74440194945073" lon="-0.13077605686751786"><ele>76.5</ele><time>2026-05-01T13:16:13.999Z</time></trkpt><trkpt lat="45.744435290863436" lon="-0.13087164157999334"><ele>76.33333333333333</ele><time>2026-05-01T13:16:15.999Z</time></trkpt><trkpt lat="45.74447086003954" lon="-0.13076388107575604"><ele>76.16666666666666</ele><time>2026-05-01T13:16:18.999Z</time></trkpt><trkpt lat="45.74445370491962" lon="-0.13064299949306918"><ele>76.0</ele><time>2026-05-01T13:16:20.999Z</time></trkpt><trkpt lat="45.744405811792134" lon="-0.13052704813066934"><ele>76.0</ele><time>2026-05-01T13:16:22.999Z</time></trkpt><trkpt lat="45.74451081783031" lon="-0.13067702550498372"><ele>76.0</ele><time>2026-05-01T13:16:28Z</time></trkpt><trkpt lat="45.744536989433676" lon="-0.13080024107964655"><ele>76.0</ele><time>2026-05-01T13:16:30Z</time></trkpt><trkpt lat="45.74465794592572" lon="-0.130792342765983"><ele>76.0</ele><time>2026-05-01T13:16:33Z</time></trkpt><trkpt lat="45.74468019176413" lon="-0.13070133590032038"><ele>76.0</ele><time>2026-05-01T13:16:34Z</time></trkpt><trkpt lat="45.744659170135044" lon="-0.13054816662144883"><ele>76.0</ele><time>2026-05-01T13:16:36Z</time></trkpt><trkpt lat="45.74458996390729" lon="-0.13043386382349614"><ele>76.0</ele><time>2026-05-01T13:16:38Z</time></trkpt><trkpt lat="45.74461427237098" lon="-0.1303288538565458"><ele>76.0</ele><time>2026-05-01T13:16:42Z</time></trkpt><trkpt lat="45.74475462250752" lon="-0.13028124266084956"><ele>76.0</ele><time>2026-05-01T13:16:44Z</time></trkpt><trkpt lat="45.744863379751564" lon="-0.1302723670026042"><ele>76.0</ele><time>2026-05-01T13:16:45Z</time></trkpt><trkpt lat="45.745028260588356" lon="-0.130239348264761"><ele>76.0</ele><time>2026-05-01T13:16:46Z</time></trkpt><trkpt lat="45.74519699724568" lon="-0.13021674488866436"><ele>76.0</ele><time>2026-05-01T13:16:47Z</time></trkpt><trkpt lat="45.745308578993" lon="-0.1302004344922358"><ele>76.0</ele><time>2026-05-01T13:16:48Z</time></trkpt><trkpt lat="45.74538637559742" lon="-0.13020004037490554"><ele>76.0</ele><time>2026-05-01T13:16:49Z</time></trkpt><trkpt lat="45.745464826011485" lon="-0.13017290044951682"><ele>76.0</ele><time>2026-05-01T13:16:50Z</time></trkpt><trkpt lat="45.74553252008272" lon="-0.13014024033585367"><ele>76.0</ele><time>2026-05-01T13:16:51Z</time></trkpt><trkpt lat="45.74562650940967" lon="-0.1301034393354931"><ele>76.0</ele><time>2026-05-01T13:16:52Z</time></trkpt><trkpt lat="45.745708170101935" lon="-0.13006784166081814"><ele>76.0</ele><time>2026-05-01T13:16:53Z</time></trkpt><trkpt lat="45.74578321010043" lon="-0.13005466503902297"><ele>76.0</ele><time>2026-05-01T13:16:54Z</time></trkpt><trkpt lat="45.74586284015865" lon="-0.1300350290339169"><ele>76.0</ele><time>2026-05-01T13:16:55Z</time></trkpt><trkpt lat="45.74595829381208" lon="-0.130019939426853"><ele>76.0</ele><time>2026-05-01T13:16:56Z</time></trkpt><trkpt lat="45.746077689288356" lon="-0.12998499348597217"><ele>76.0</ele><time>2026-05-01T13:16:57Z</time></trkpt><trkpt lat="45.74617284407362" lon="-0.12997104082772096"><ele>76.0</ele><time>2026-05-01T13:16:58Z</time></trkpt><trkpt lat="45.74624963643023" lon="-0.1299601644930658"><ele>76.0</ele><time>2026-05-01T13:16:59Z</time></trkpt><trkpt lat="45.746335586576556" lon="-0.12994783679717856"><ele>76.0</ele><time>2026-05-01T13:17:00Z</time></trkpt><trkpt lat="45.7464283598934" lon="-0.12993393457167007"><ele>76.0</ele><time>2026-05-01T13:17:01Z</time></trkpt><trkpt lat="45.74653718027649" lon="-0.12992902774564782"><ele>76.0</ele><time>2026-05-01T13:17:02Z</time></trkpt><trkpt lat="45.74665436882545" lon="-0.1299449943110095"><ele>76.0</ele><time>2026-05-01T13:17:03Z</time></trkpt><trkpt lat="45.74679882622903" lon="-0.1299621546468872"><ele>76.0</ele><time>2026-05-01T13:17:04Z</time></trkpt><trkpt lat="45.74697344563586" lon="-0.12997398166599605"><ele>76.0</ele><time>2026-05-01T13:17:05Z</time></trkpt><trkpt lat="45.74715505120724" lon="-0.12999110041315037"><ele>76.66666666666666</ele><time>2026-05-01T13:17:06Z</time></trkpt><trkpt lat="45.74736630153052" lon="-0.13001440015138332"><ele>77.33333333333333</ele><time>2026-05-01T13:17:07Z</time></trkpt><trkpt lat="45.747568118885255" lon="-0.13004367433665365"><ele>78.0</ele><time>2026-05-01T13:17:08Z</time></trkpt><trkpt lat="45.74774537726582" lon="-0.13007259899599008"><ele>78.0</ele><time>2026-05-01T13:17:09Z</time></trkpt><trkpt lat="45.74791211770672" lon="-0.13011631555969336"><ele>78.0</ele><time>2026-05-01T13:17:10Z</time></trkpt><trkpt lat="45.74807754737722" lon="-0.13013792824970524"><ele>78.0</ele><time>2026-05-01T13:17:11Z</time></trkpt><trkpt lat="45.74826717225318" lon="-0.1301648780505829"><ele>78.0</ele><time>2026-05-01T13:17:12Z</time></trkpt><trkpt lat="45.74842819489366" lon="-0.13019502219973894"><ele>78.0</ele><time>2026-05-01T13:17:13Z</time></trkpt><trkpt lat="45.74857357688641" lon="-0.13022393569010526"><ele>78.0</ele><time>2026-05-01T13:17:14Z</time></trkpt><trkpt lat="45.748712993350416" lon="-0.13024968766452172"><ele>78.0</ele><time>2026-05-01T13:17:15Z</time></trkpt><trkpt lat="45.74886370697245" lon="-0.130274539958341"><ele>78.0</ele><time>2026-05-01T13:17:16Z</time></trkpt><trkpt lat="45.74900255056692" lon="-0.13029524896875833"><ele>78.0</ele><time>2026-05-01T13:17:17Z</time></trkpt><trkpt lat="45.749124464789176" lon="-0.13030521411633292"><ele>78.0</ele><time>2026-05-01T13:17:18Z</time></trkpt><trkpt lat="45.74923504684513" lon="-0.13030506618115587"><ele>78.0</ele><time>2026-05-01T13:17:19Z</time></trkpt><trkpt lat="45.74934151371093" lon="-0.13026111592700404"><ele>78.0</ele><time>2026-05-01T13:17:20Z</time></trkpt><trkpt lat="45.749445383856646" lon="-0.13021807366516933"><ele>78.0</ele><time>2026-05-01T13:17:21Z</time></trkpt><trkpt lat="45.749558682895454" lon="-0.1301490247905197"><ele>78.0</ele><time>2026-05-01T13:17:22Z</time></trkpt><trkpt lat="45.74968302884543" lon="-0.13006766673453346"><ele>77.0</ele><time>2026-05-01T13:17:23Z</time></trkpt><trkpt lat="45.74981701622194" lon="-0.13001629584903796"><ele>76.0</ele><time>2026-05-01T13:17:24Z</time></trkpt><trkpt lat="45.7499366672697" lon="-0.12998208700491812"><ele>75.0</ele><time>2026-05-01T13:17:25Z</time></trkpt><trkpt lat="45.75005450075855" lon="-0.1299712444754275"><ele>74.0</ele><time>2026-05-01T13:17:26Z</time></trkpt><trkpt lat="45.75016178305716" lon="-0.12997694700301848"><ele>73.2</ele><time>2026-05-01T13:17:27Z</time></trkpt><trkpt lat="45.7502829853602" lon="-0.1300018140008494"><ele>72.4</ele><time>2026-05-01T13:17:28Z</time></trkpt><trkpt lat="45.750414154423176" lon="-0.13000528944806167"><ele>71.6</ele><time>2026-05-01T13:17:29Z</time></trkpt><trkpt lat="45.75052516876939" lon="-0.13002493250677472"><ele>70.8</ele><time>2026-05-01T13:17:30Z</time></trkpt><trkpt lat="45.750607959651035" lon="-0.13003152841410046"><ele>70.0</ele><time>2026-05-01T13:17:31Z</time></trkpt><trkpt lat="45.75070190387837" lon="-0.13002809121253084"><ele>70.0</ele><time>2026-05-01T13:17:32Z</time></trkpt><trkpt lat="45.75080485309639" lon="-0.13001103287584093"><ele>70.0</ele><time>2026-05-01T13:17:33Z</time></trkpt><trkpt lat="45.750915325431855" lon="-0.1299822508366483"><ele>70.0</ele><time>2026-05-01T13:17:34Z</time></trkpt><trkpt lat="45.75102386871756" lon="-0.12994868716386196"><ele>70.0</ele><time>2026-05-01T13:17:35Z</time></trkpt><trkpt lat="45.75113617546321" lon="-0.12990455213428764"><ele>70.0</ele><time>2026-05-01T13:17:36Z</time></trkpt><trkpt lat="45.75126331105204" lon="-0.12984697465750333"><ele>70.25</ele><time>2026-05-01T13:17:37Z</time></trkpt><trkpt lat="45.751373298430934" lon="-0.12982359469000998"><ele>70.5</ele><time>2026-05-01T13:17:38Z</time></trkpt><trkpt lat="45.751494467599755" lon="-0.12977344327958468"><ele>70.75</ele><time>2026-05-01T13:17:39Z</time></trkpt><trkpt lat="45.75163098240254" lon="-0.12976817547588165"><ele>71.0</ele><time>2026-05-01T13:17:40Z</time></trkpt><trkpt lat="45.75174967681846" lon="-0.12976337929664078"><ele>71.25</ele><time>2026-05-01T13:17:41Z</time></trkpt><trkpt lat="45.75187617863183" lon="-0.12978096716166723"><ele>71.5</ele><time>2026-05-01T13:17:42Z</time></trkpt><trkpt lat="45.75200323014817" lon="-0.12980338489319387"><ele>71.75</ele><time>2026-05-01T13:17:43Z</time></trkpt><trkpt lat="45.75212999191414" lon="-0.12984335677248376"><ele>72.0</ele><time>2026-05-01T13:17:44Z</time></trkpt><trkpt lat="45.752257350123344" lon="-0.129895904328006"><ele>72.0</ele><time>2026-05-01T13:17:45Z</time></trkpt><trkpt lat="45.75236960390342" lon="-0.12993013322157212"><ele>72.0</ele><time>2026-05-01T13:17:46Z</time></trkpt><trkpt lat="45.752457609137714" lon="-0.1300244195553676"><ele>72.0</ele><time>2026-05-01T13:17:47Z</time></trkpt><trkpt lat="45.752540989791484" lon="-0.13012001799676468"><ele>72.0</ele><time>2026-05-01T13:17:48Z</time></trkpt><trkpt lat="45.75262353977939" lon="-0.1302251393181754"><ele>72.0</ele><time>2026-05-01T13:17:49Z</time></trkpt><trkpt lat="45.75270856356525" lon="-0.13034418944611417"><ele>72.4</ele><time>2026-05-01T13:17:50Z</time></trkpt><trkpt lat="45.75279610980875" lon="-0.13044836202740828"><ele>72.80000000000001</ele><time>2026-05-01T13:17:51Z</time></trkpt><trkpt lat="45.75288739369761" lon="-0.13051488046267487"><ele>73.2</ele><time>2026-05-01T13:17:52Z</time></trkpt><trkpt lat="45.75297060842782" lon="-0.13058548958023997"><ele>73.60000000000001</ele><time>2026-05-01T13:17:53Z</time></trkpt><trkpt lat="45.75305178088904" lon="-0.13063913396857968"><ele>74.0</ele><time>2026-05-01T13:17:54Z</time></trkpt><trkpt lat="45.753137942253325" lon="-0.13069642519383043"><ele>73.5</ele><time>2026-05-01T13:17:55Z</time></trkpt><trkpt lat="45.753211136693174" lon="-0.1307401184036512"><ele>73.0</ele><time>2026-05-01T13:17:56Z</time></trkpt><trkpt lat="45.753272865318856" lon="-0.13077269194737437"><ele>72.5</ele><time>2026-05-01T13:17:57Z</time></trkpt><trkpt lat="45.753362382898466" lon="-0.13081536073387837"><ele>72.0</ele><time>2026-05-01T13:17:59Z</time></trkpt><trkpt lat="45.7534087930438" lon="-0.13090532180075248"><ele>71.5</ele><time>2026-05-01T13:18:00Z</time></trkpt><trkpt lat="45.753478122295974" lon="-0.13095986725517497"><ele>71.0</ele><time>2026-05-01T13:18:01Z</time></trkpt><trkpt lat="45.75354800759748" lon="-0.1310210301525659"><ele>70.5</ele><time>2026-05-01T13:18:02.001Z</time></trkpt><trkpt lat="45.75363226571501" lon="-0.1310646384009472"><ele>70.0</ele><time>2026-05-01T13:18:03.001Z</time></trkpt><trkpt lat="45.7537160328783" lon="-0.13110061230482717"><ele>69.5</ele><time>2026-05-01T13:18:04.001Z</time></trkpt><trkpt lat="45.753796511531796" lon="-0.13112872933243216"><ele>69.0</ele><time>2026-05-01T13:18:05.001Z</time></trkpt><trkpt lat="45.753865111507295" lon="-0.13115043183885616"><ele>68.5</ele><time>2026-05-01T13:18:06.001Z</time></trkpt><trkpt lat="45.75395196774935" lon="-0.13116884629671155"><ele>68.0</ele><time>2026-05-01T13:18:17.999Z</time></trkpt><trkpt lat="45.754027393674775" lon="-0.13119201318497095"><ele>68.0</ele><time>2026-05-01T13:18:18.999Z</time></trkpt><trkpt lat="45.75410601552307" lon="-0.13120106314853652"><ele>68.0</ele><time>2026-05-01T13:18:19.999Z</time></trkpt><trkpt lat="45.75420006792857" lon="-0.13118906243225076"><ele>68.0</ele><time>2026-05-01T13:18:20.999Z</time></trkpt><trkpt lat="45.75429524038607" lon="-0.1311678601167203"><ele>68.0</ele><time>2026-05-01T13:18:21.999Z</time></trkpt><trkpt lat="45.754392843108" lon="-0.13116009606169077"><ele>68.0</ele><time>2026-05-01T13:18:22.999Z</time></trkpt><trkpt lat="45.75448524417782" lon="-0.13117619185060686"><ele>67.33333333333334</ele><time>2026-05-01T13:18:23.999Z</time></trkpt><trkpt lat="45.75455828911418" lon="-0.13119931806398105"><ele>66.66666666666667</ele><time>2026-05-01T13:18:24.999Z</time></trkpt><trkpt lat="45.754625232440695" lon="-0.13124934362162047"><ele>66.0</ele><time>2026-05-01T13:18:25.999Z</time></trkpt><trkpt lat="45.754693606482384" lon="-0.13131937513669695"><ele>65.33333333333333</ele><time>2026-05-01T13:18:26.999Z</time></trkpt><trkpt lat="45.75476476509112" lon="-0.13139661867223792"><ele>64.66666666666666</ele><time>2026-05-01T13:18:27.999Z</time></trkpt><trkpt lat="45.754840012454615" lon="-0.13148587836432604"><ele>64.0</ele><time>2026-05-01T13:18:28.999Z</time></trkpt><trkpt lat="45.75494131255909" lon="-0.13157105167660219"><ele>64.0</ele><time>2026-05-01T13:18:29.999Z</time></trkpt><trkpt lat="45.75504172865428" lon="-0.13171202108564942"><ele>64.0</ele><time>2026-05-01T13:18:30.999Z</time></trkpt><trkpt lat="45.755150406390044" lon="-0.13183351139449506"><ele>64.0</ele><time>2026-05-01T13:18:31.999Z</time></trkpt><trkpt lat="45.75521698435895" lon="-0.13202497835915347"><ele>64.0</ele><time>2026-05-01T13:18:33Z</time></trkpt><trkpt lat="45.75529348721629" lon="-0.13216091049483128"><ele>66.25</ele><time>2026-05-01T13:18:34Z</time></trkpt><trkpt lat="45.75535310610788" lon="-0.13229840429117215"><ele>68.5</ele><time>2026-05-01T13:18:35Z</time></trkpt><trkpt lat="45.75546316765027" lon="-0.13236263956828842"><ele>70.75</ele><time>2026-05-01T13:18:36Z</time></trkpt><trkpt lat="45.75557479513414" lon="-0.13241719728117154"><ele>73.0</ele><time>2026-05-01T13:18:37Z</time></trkpt><trkpt lat="45.75570630068088" lon="-0.13244639435084438"><ele>73.66666666666666</ele><time>2026-05-01T13:18:38Z</time></trkpt><trkpt lat="45.75586107138985" lon="-0.13246231387201005"><ele>74.33333333333333</ele><time>2026-05-01T13:18:39Z</time></trkpt><trkpt lat="45.75601268489637" lon="-0.13248913706304333"><ele>75.0</ele><time>2026-05-01T13:18:40Z</time></trkpt><trkpt lat="45.756174771641945" lon="-0.1325097876138499"><ele>77.66666666666667</ele><time>2026-05-01T13:18:41Z</time></trkpt><trkpt lat="45.75633043716637" lon="-0.1325406443357291"><ele>80.33333333333334</ele><time>2026-05-01T13:18:42Z</time></trkpt><trkpt lat="45.75648857966509" lon="-0.13256932928798568"><ele>83.0</ele><time>2026-05-01T13:18:43Z</time></trkpt><trkpt lat="45.756645150302674" lon="-0.1325907933719036"><ele>83.0</ele><time>2026-05-01T13:18:44Z</time></trkpt><trkpt lat="45.75681059269361" lon="-0.13260702397918292"><ele>83.0</ele><time>2026-05-01T13:18:45Z</time></trkpt><trkpt lat="45.756980032403064" lon="-0.1326181240751211"><ele>83.0</ele><time>2026-05-01T13:18:46Z</time></trkpt><trkpt lat="45.757133372058775" lon="-0.13263279255626473"><ele>83.5</ele><time>2026-05-01T13:18:47Z</time></trkpt><trkpt lat="45.75726438106562" lon="-0.13264727464072434"><ele>84.0</ele><time>2026-05-01T13:18:48Z</time></trkpt><trkpt lat="45.75739681793246" lon="-0.13265893281763175"><ele>84.5</ele><time>2026-05-01T13:18:49Z</time></trkpt><trkpt lat="45.75753431204134" lon="-0.13267513829417796"><ele>85.0</ele><time>2026-05-01T13:18:50Z</time></trkpt><trkpt lat="45.75767109875597" lon="-0.13268618612981642"><ele>85.5</ele><time>2026-05-01T13:18:51Z</time></trkpt><trkpt lat="45.757808144752104" lon="-0.1326870351279842"><ele>86.0</ele><time>2026-05-01T13:18:52Z</time></trkpt><trkpt lat="45.75795068864204" lon="-0.1326851669466177"><ele>86.5</ele><time>2026-05-01T13:18:53Z</time></trkpt><trkpt lat="45.758090112753905" lon="-0.13268873051243313"><ele>87.0</ele><time>2026-05-01T13:18:54Z</time></trkpt><trkpt lat="45.758217531542236" lon="-0.13269771192441193"><ele>87.0</ele><time>2026-05-01T13:18:55Z</time></trkpt><trkpt lat="45.75832504762025" lon="-0.13273457433455896"><ele>87.0</ele><time>2026-05-01T13:18:56Z</time></trkpt><trkpt lat="45.75842890714543" lon="-0.1327482681220291"><ele>87.0</ele><time>2026-05-01T13:18:57Z</time></trkpt><trkpt lat="45.75852169223685" lon="-0.13277849302852562"><ele>87.0</ele><time>2026-05-01T13:18:58Z</time></trkpt><trkpt lat="45.758605518512404" lon="-0.1327967645423511"><ele>87.0</ele><time>2026-05-01T13:18:59Z</time></trkpt><trkpt lat="45.75867631294377" lon="-0.13281971144519875"><ele>87.0</ele><time>2026-05-01T13:19:00Z</time></trkpt><trkpt lat="45.75877073835433" lon="-0.13284928460079087"><ele>87.0</ele><time>2026-05-01T13:19:02Z</time></trkpt><trkpt lat="45.758848490556" lon="-0.1328423577235657"><ele>87.0</ele><time>2026-05-01T13:19:06Z</time></trkpt><trkpt lat="45.75885664415924" lon="-0.13271508353553357"><ele>87.0</ele><time>2026-05-01T13:19:07Z</time></trkpt><trkpt lat="45.7588670138274" lon="-0.1326048230865232"><ele>87.0</ele><time>2026-05-01T13:19:08Z</time></trkpt><trkpt lat="45.758883729277095" lon="-0.13243389025813693"><ele>87.5</ele><time>2026-05-01T13:19:09Z</time></trkpt><trkpt lat="45.75888437315361" lon="-0.1322442565742395"><ele>88.0</ele><time>2026-05-01T13:19:10Z</time></trkpt><trkpt lat="45.75888660870275" lon="-0.1320511834769546"><ele>88.5</ele><time>2026-05-01T13:19:11Z</time></trkpt><trkpt lat="45.75888954425212" lon="-0.13180640433234123"><ele>89.0</ele><time>2026-05-01T13:19:12Z</time></trkpt><trkpt lat="45.75888479769474" lon="-0.1315534998736445"><ele>89.66666666666667</ele><time>2026-05-01T13:19:13Z</time></trkpt><trkpt lat="45.758874261674805" lon="-0.13129882404793417"><ele>90.33333333333333</ele><time>2026-05-01T13:19:14Z</time></trkpt><trkpt lat="45.758872025816544" lon="-0.13108917776703932"><ele>91.0</ele><time>2026-05-01T13:19:15Z</time></trkpt><trkpt lat="45.758875287701215" lon="-0.13088978315131525"><ele>91.0</ele><time>2026-05-01T13:19:16Z</time></trkpt><trkpt lat="45.758884891685426" lon="-0.13071290533906182"><ele>91.0</ele><time>2026-05-01T13:19:17Z</time></trkpt><trkpt lat="45.758898253842396" lon="-0.13054413976838414"><ele>91.0</ele><time>2026-05-01T13:19:18Z</time></trkpt><trkpt lat="45.75891380908066" lon="-0.13038204758984173"><ele>91.0</ele><time>2026-05-01T13:19:19Z</time></trkpt><trkpt lat="45.75892818866948" lon="-0.13021607316899747"><ele>91.0</ele><time>2026-05-01T13:19:20Z</time></trkpt><trkpt lat="45.75894577083525" lon="-0.13003946771788413"><ele>91.0</ele><time>2026-05-01T13:19:21Z</time></trkpt><trkpt lat="45.7589643275007" lon="-0.12986196093548893"><ele>91.0</ele><time>2026-05-01T13:19:22Z</time></trkpt><trkpt lat="45.75898417927474" lon="-0.12968104385325754"><ele>91.0</ele><time>2026-05-01T13:19:23Z</time></trkpt><trkpt lat="45.75900068835223" lon="-0.12949943951528609"><ele>91.25</ele><time>2026-05-01T13:19:24Z</time></trkpt><trkpt lat="45.75901743141578" lon="-0.1293139580929948"><ele>91.5</ele><time>2026-05-01T13:19:25Z</time></trkpt><trkpt lat="45.759033564237896" lon="-0.12912131606999264"><ele>91.75</ele><time>2026-05-01T13:19:26Z</time></trkpt><trkpt lat="45.7590493433088" lon="-0.12893124960056493"><ele>92.0</ele><time>2026-05-01T13:19:27Z</time></trkpt><trkpt lat="45.7590688022022" lon="-0.1287465232597202"><ele>92.25</ele><time>2026-05-01T13:19:28Z</time></trkpt><trkpt lat="45.75908851852118" lon="-0.1285587206566747"><ele>92.5</ele><time>2026-05-01T13:19:29Z</time></trkpt><trkpt lat="45.75910486729935" lon="-0.1283738038867189"><ele>92.75</ele><time>2026-05-01T13:19:30Z</time></trkpt><trkpt lat="45.75911808840261" lon="-0.1281971300990568"><ele>93.0</ele><time>2026-05-01T13:19:31Z</time></trkpt><trkpt lat="45.75913600975448" lon="-0.12800232324251912"><ele>92.5</ele><time>2026-05-01T13:19:32Z</time></trkpt><trkpt lat="45.759155566688406" lon="-0.12781659791493788"><ele>92.0</ele><time>2026-05-01T13:19:33Z</time></trkpt><trkpt lat="45.75917190543884" lon="-0.12763882827617914"><ele>91.5</ele><time>2026-05-01T13:19:34Z</time></trkpt><trkpt lat="45.75918468366384" lon="-0.12746500838171582"><ele>91.0</ele><time>2026-05-01T13:19:35Z</time></trkpt><trkpt lat="45.7591997384059" lon="-0.1272941017520234"><ele>90.5</ele><time>2026-05-01T13:19:36Z</time></trkpt><trkpt lat="45.75922033022216" lon="-0.1271247780834507"><ele>90.0</ele><time>2026-05-01T13:19:37Z</time></trkpt><trkpt lat="45.75923981419244" lon="-0.12695363786006042"><ele>89.5</ele><time>2026-05-01T13:19:38Z</time></trkpt><trkpt lat="45.759256294895124" lon="-0.12677454213808464"><ele>89.0</ele><time>2026-05-01T13:19:39Z</time></trkpt><trkpt lat="45.759271963172495" lon="-0.12660386397398202"><ele>88.80000000000001</ele><time>2026-05-01T13:19:40Z</time></trkpt><trkpt lat="45.759285846920235" lon="-0.1264485769258273"><ele>88.60000000000001</ele><time>2026-05-01T13:19:41Z</time></trkpt><trkpt lat="45.759295928729465" lon="-0.12632229525295272"><ele>88.4</ele><time>2026-05-01T13:19:42.001Z</time></trkpt><trkpt lat="45.759303484514895" lon="-0.12622418205849503"><ele>88.2</ele><time>2026-05-01T13:19:43.001Z</time></trkpt><trkpt lat="45.759334162786345" lon="-0.1261247120123029"><ele>88.0</ele><time>2026-05-01T13:19:45.001Z</time></trkpt><trkpt lat="45.75945211247" lon="-0.12619026165853242"><ele>89.2</ele><time>2026-05-01T13:19:48.001Z</time></trkpt><trkpt lat="45.75951609985825" lon="-0.126252294752338"><ele>90.4</ele><time>2026-05-01T13:19:49.001Z</time></trkpt><trkpt lat="45.759579593708835" lon="-0.1263396064782604"><ele>91.60000000000001</ele><time>2026-05-01T13:19:50.001Z</time></trkpt><trkpt lat="45.759648127139975" lon="-0.12643151209001488"><ele>92.80000000000001</ele><time>2026-05-01T13:19:51.001Z</time></trkpt><trkpt lat="45.75973105569092" lon="-0.12653039787594816"><ele>94.0</ele><time>2026-05-01T13:19:52.001Z</time></trkpt><trkpt lat="45.759825760805256" lon="-0.12663774281509924"><ele>94.25</ele><time>2026-05-01T13:19:53.001Z</time></trkpt><trkpt lat="45.759923816371035" lon="-0.1267593296580612"><ele>94.5</ele><time>2026-05-01T13:19:54.001Z</time></trkpt><trkpt lat="45.76004891399965" lon="-0.12685262920441376"><ele>94.75</ele><time>2026-05-01T13:19:55.001Z</time></trkpt><trkpt lat="45.760172964175815" lon="-0.12696934234793011"><ele>95.0</ele><time>2026-05-01T13:19:56.001Z</time></trkpt><trkpt lat="45.76028858264593" lon="-0.1270820337705182"><ele>96.33333333333334</ele><time>2026-05-01T13:19:57.001Z</time></trkpt><trkpt lat="45.760407696187606" lon="-0.12719669371554315"><ele>97.66666666666667</ele><time>2026-05-01T13:19:58.001Z</time></trkpt><trkpt lat="45.76053338688511" lon="-0.12731758429412934"><ele>99.0</ele><time>2026-05-01T13:19:59.001Z</time></trkpt><trkpt lat="45.76066071183954" lon="-0.1274450670876014"><ele>99.0</ele><time>2026-05-01T13:20:00.001Z</time></trkpt><trkpt lat="45.760788892088414" lon="-0.12757340628118205"><ele>99.0</ele><time>2026-05-01T13:20:01.001Z</time></trkpt><trkpt lat="45.76091886878244" lon="-0.12770354411119303"><ele>99.0</ele><time>2026-05-01T13:20:02.001Z</time></trkpt><trkpt lat="45.76104562091088" lon="-0.12782722104489166"><ele>99.33333333333334</ele><time>2026-05-01T13:20:03.001Z</time></trkpt><trkpt lat="45.76117550514202" lon="-0.1279539269283483"><ele>99.66666666666667</ele><time>2026-05-01T13:20:04.001Z</time></trkpt><trkpt lat="45.761303846010314" lon="-0.1280790111732525"><ele>100.0</ele><time>2026-05-01T13:20:05.001Z</time></trkpt><trkpt lat="45.76142883563697" lon="-0.1282268272004456"><ele>100.0</ele><time>2026-05-01T13:20:06.001Z</time></trkpt><trkpt lat="45.76156648506584" lon="-0.12835087723245237"><ele>100.0</ele><time>2026-05-01T13:20:07.001Z</time></trkpt><trkpt lat="45.76171437569088" lon="-0.12844027323943738"><ele>100.0</ele><time>2026-05-01T13:20:08.001Z</time></trkpt><trkpt lat="45.76185492604719" lon="-0.12852656248433833"><ele>100.25</ele><time>2026-05-01T13:20:09.001Z</time></trkpt><trkpt lat="45.76199628128707" lon="-0.12860472179861906"><ele>100.5</ele><time>2026-05-01T13:20:10.001Z</time></trkpt><trkpt lat="45.76213092393712" lon="-0.12867466648627207"><ele>100.75</ele><time>2026-05-01T13:20:11.001Z</time></trkpt><trkpt lat="45.76225935958123" lon="-0.12876856055740687"><ele>101.0</ele><time>2026-05-01T13:20:12.001Z</time></trkpt><trkpt lat="45.762380763610686" lon="-0.12886107772031485"><ele>101.0</ele><time>2026-05-01T13:20:13.001Z</time></trkpt><trkpt lat="45.76247964866964" lon="-0.12895937256089174"><ele>101.0</ele><time>2026-05-01T13:20:14.001Z</time></trkpt><trkpt lat="45.7625530340578" lon="-0.12904512909779509"><ele>101.0</ele><time>2026-05-01T13:20:15.001Z</time></trkpt><trkpt lat="45.762616884975245" lon="-0.12912260274819268"><ele>101.0</ele><time>2026-05-01T13:20:16.001Z</time></trkpt><trkpt lat="45.76267873210723" lon="-0.12920313591526036"><ele>101.0</ele><time>2026-05-01T13:20:17.001Z</time></trkpt><trkpt lat="45.762746464024445" lon="-0.12929015618541548"><ele>101.0</ele><time>2026-05-01T13:20:18.001Z</time></trkpt><trkpt lat="45.76281555273406" lon="-0.12937319801590946"><ele>101.0</ele><time>2026-05-01T13:20:19.001Z</time></trkpt><trkpt lat="45.76288116894324" lon="-0.12946560207206487"><ele>101.0</ele><time>2026-05-01T13:20:20.001Z</time></trkpt><trkpt lat="45.76295318264053" lon="-0.12955033051571363"><ele>101.0</ele><time>2026-05-01T13:20:21.001Z</time></trkpt><trkpt lat="45.763017515854855" lon="-0.12964662582723607"><ele>101.0</ele><time>2026-05-01T13:20:21.999Z</time></trkpt><trkpt lat="45.763084257889545" lon="-0.1297333831501119"><ele>101.0</ele><time>2026-05-01T13:20:22.999Z</time></trkpt><trkpt lat="45.76315288593728" lon="-0.1298163751587455"><ele>101.0</ele><time>2026-05-01T13:20:23.999Z</time></trkpt><trkpt lat="45.76321690941582" lon="-0.1298777424842077"><ele>101.0</ele><time>2026-05-01T13:20:24.999Z</time></trkpt><trkpt lat="45.76328744061367" lon="-0.12990374771686183"><ele>101.0</ele><time>2026-05-01T13:20:27Z</time></trkpt><trkpt lat="45.763174726689535" lon="-0.12987645004823134"><ele>101.0</ele><time>2026-05-01T13:20:34Z</time></trkpt><trkpt lat="45.76308742426483" lon="-0.12974122195138332"><ele>101.0</ele><time>2026-05-01T13:20:35Z</time></trkpt><trkpt lat="45.76296833489765" lon="-0.12958246332329496"><ele>101.0</ele><time>2026-05-01T13:20:36Z</time></trkpt><trkpt lat="45.76283036230965" lon="-0.12941070694159845"><ele>101.0</ele><time>2026-05-01T13:20:37Z</time></trkpt><trkpt lat="45.762723320815134" lon="-0.12928278380607683"><ele>101.0</ele><time>2026-05-01T13:20:38Z</time></trkpt><trkpt lat="45.76265250956451" lon="-0.1291926561576568"><ele>101.0</ele><time>2026-05-01T13:20:39Z</time></trkpt><trkpt lat="45.7625972503667" lon="-0.12912550908843476"><ele>101.0</ele><time>2026-05-01T13:20:40Z</time></trkpt><trkpt lat="45.76267768148678" lon="-0.12895467675393493"><ele>101.0</ele><time>2026-05-01T13:20:44Z</time></trkpt><trkpt lat="45.76274472047313" lon="-0.12889764218041744"><ele>101.0</ele><time>2026-05-01T13:20:45Z</time></trkpt><trkpt lat="45.76282379030647" lon="-0.12882038743274055"><ele>101.25</ele><time>2026-05-01T13:20:46Z</time></trkpt><trkpt lat="45.76292605221295" lon="-0.12872326504585707"><ele>101.5</ele><time>2026-05-01T13:20:47Z</time></trkpt><trkpt lat="45.76304907734784" lon="-0.12860524963706763"><ele>101.75</ele><time>2026-05-01T13:20:48Z</time></trkpt><trkpt lat="45.76319439471571" lon="-0.12846605627920374"><ele>102.0</ele><time>2026-05-01T13:20:49Z</time></trkpt><trkpt lat="45.76333063321389" lon="-0.1283370006378737"><ele>102.0</ele><time>2026-05-01T13:20:50Z</time></trkpt><trkpt lat="45.7634475631352" lon="-0.12822434072803293"><ele>102.0</ele><time>2026-05-01T13:20:51Z</time></trkpt><trkpt lat="45.763558584511586" lon="-0.12812330888420626"><ele>102.0</ele><time>2026-05-01T13:20:52Z</time></trkpt><trkpt lat="45.76365644019643" lon="-0.12802671084640013"><ele>102.0</ele><time>2026-05-01T13:20:53Z</time></trkpt><trkpt lat="45.76374516423124" lon="-0.12793574640603095"><ele>101.83333333333333</ele><time>2026-05-01T13:20:54Z</time></trkpt><trkpt lat="45.76382891473973" lon="-0.1278498974797059"><ele>101.66666666666666</ele><time>2026-05-01T13:20:55Z</time></trkpt><trkpt lat="45.76389184944152" lon="-0.12779017389638098"><ele>101.5</ele><time>2026-05-01T13:20:56Z</time></trkpt><trkpt lat="45.763939884782715" lon="-0.12771733386136933"><ele>101.33333333333333</ele><time>2026-05-01T13:20:58Z</time></trkpt><trkpt lat="45.763910497599724" lon="-0.12762916107745814"><ele>101.16666666666666</ele><time>2026-05-01T13:21:00Z</time></trkpt><trkpt lat="45.76380497969066" lon="-0.12753318251324572"><ele>101.0</ele><time>2026-05-01T13:21:02Z</time></trkpt><trkpt lat="45.763734565996394" lon="-0.12744118614649338"><ele>100.0</ele><time>2026-05-01T13:21:03Z</time></trkpt><trkpt lat="45.7636772763656" lon="-0.12731108191107193"><ele>99.0</ele><time>2026-05-01T13:21:04Z</time></trkpt><trkpt lat="45.76363025748613" lon="-0.1271544413622309"><ele>98.0</ele><time>2026-05-01T13:21:05Z</time></trkpt><trkpt lat="45.763576575308974" lon="-0.12696211641949012"><ele>97.0</ele><time>2026-05-01T13:21:06Z</time></trkpt><trkpt lat="45.76353239082923" lon="-0.12678422041629225"><ele>97.19999999999999</ele><time>2026-05-01T13:21:07Z</time></trkpt><trkpt lat="45.76350414796807" lon="-0.12666581335703916"><ele>97.4</ele><time>2026-05-01T13:21:08Z</time></trkpt><trkpt lat="45.76347102676965" lon="-0.12651517165956214"><ele>97.6</ele><time>2026-05-01T13:21:10Z</time></trkpt><trkpt lat="45.76341912642045" lon="-0.12635264817071185"><ele>97.80000000000001</ele><time>2026-05-01T13:21:12Z</time></trkpt><trkpt lat="45.7633944584999" lon="-0.12625012365719465"><ele>98.0</ele><time>2026-05-01T13:21:13Z</time></trkpt><trkpt lat="45.763370640391955" lon="-0.1261564782892361"><ele>98.0</ele><time>2026-05-01T13:21:14Z</time></trkpt><trkpt lat="45.763344609403894" lon="-0.1260493207987795"><ele>98.0</ele><time>2026-05-01T13:21:15Z</time></trkpt><trkpt lat="45.7633173960398" lon="-0.12594053162163732"><ele>98.0</ele><time>2026-05-01T13:21:16Z</time></trkpt><trkpt lat="45.7632849412863" lon="-0.12581334111846096"><ele>98.0</ele><time>2026-05-01T13:21:17Z</time></trkpt><trkpt lat="45.76324539115326" lon="-0.12565546663448454"><ele>98.0</ele><time>2026-05-01T13:21:18Z</time></trkpt><trkpt lat="45.763216778616844" lon="-0.12549548903689114"><ele>97.66666666666666</ele><time>2026-05-01T13:21:19Z</time></trkpt><trkpt lat="45.7631965760257" lon="-0.12534780754309044"><ele>97.33333333333333</ele><time>2026-05-01T13:21:20Z</time></trkpt><trkpt lat="45.763152006504285" lon="-0.12524279222682214"><ele>97.0</ele><time>2026-05-01T13:21:21Z</time></trkpt><trkpt lat="45.76311776889593" lon="-0.12513112696360942"><ele>96.66666666666666</ele><time>2026-05-01T13:21:22Z</time></trkpt><trkpt lat="45.76308338012193" lon="-0.12502587945631585"><ele>96.33333333333333</ele><time>2026-05-01T13:21:23Z</time></trkpt><trkpt lat="45.76305242819453" lon="-0.12492726263813948"><ele>96.0</ele><time>2026-05-01T13:21:24Z</time></trkpt><trkpt lat="45.7630090463477" lon="-0.1248188176557263"><ele>95.8</ele><time>2026-05-01T13:21:26Z</time></trkpt><trkpt lat="45.763000017371006" lon="-0.1247243178804046"><ele>95.6</ele><time>2026-05-01T13:21:28Z</time></trkpt><trkpt lat="45.76306009812569" lon="-0.1246136770733666"><ele>95.4</ele><time>2026-05-01T13:21:31Z</time></trkpt><trkpt lat="45.76317585569589" lon="-0.12454712803191062"><ele>95.2</ele><time>2026-05-01T13:21:33Z</time></trkpt><trkpt lat="45.763237717380164" lon="-0.12451173450444133"><ele>95.0</ele><time>2026-05-01T13:21:34Z</time></trkpt><trkpt lat="45.76334756420458" lon="-0.12445796135194984"><ele>95.0</ele><time>2026-05-01T13:21:36Z</time></trkpt><trkpt lat="45.763428813054766" lon="-0.12440828542936373"><ele>95.0</ele><time>2026-05-01T13:21:38Z</time></trkpt><trkpt lat="45.763534401728016" lon="-0.12434033248188538"><ele>95.0</ele><time>2026-05-01T13:21:40.001Z</time></trkpt><trkpt lat="45.76363173922692" lon="-0.1242730842443223"><ele>95.0</ele><time>2026-05-01T13:21:42.001Z</time></trkpt><trkpt lat="45.76373652409675" lon="-0.12420308011680098"><ele>95.0</ele><time>2026-05-01T13:21:44.001Z</time></trkpt><trkpt lat="45.76384954864738" lon="-0.12414072911720156"><ele>94.5</ele><time>2026-05-01T13:21:46.001Z</time></trkpt><trkpt lat="45.76395003703812" lon="-0.12409604086080883"><ele>94.0</ele><time>2026-05-01T13:21:48.001Z</time></trkpt><trkpt lat="45.76401890809406" lon="-0.12409443191567551"><ele>93.5</ele><time>2026-05-01T13:21:50.001Z</time></trkpt><trkpt lat="45.76408400331478" lon="-0.12413755635338863"><ele>93.0</ele><time>2026-05-01T13:21:52.001Z</time></trkpt><trkpt lat="45.764121320073954" lon="-0.12424786698507045"><ele>92.5</ele><time>2026-05-01T13:21:54.001Z</time></trkpt><trkpt lat="45.764135200908356" lon="-0.12438418039844223"><ele>92.0</ele><time>2026-05-01T13:21:56.001Z</time></trkpt><trkpt lat="45.76422653668595" lon="-0.12441126045023099"><ele>92.0</ele><time>2026-05-01T13:21:59.001Z</time></trkpt><trkpt lat="45.76430255817553" lon="-0.1243515422703702"><ele>92.0</ele><time>2026-05-01T13:22:01.001Z</time></trkpt><trkpt lat="45.76440301362333" lon="-0.12429451762957901"><ele>92.0</ele><time>2026-05-01T13:22:03.001Z</time></trkpt><trkpt lat="45.76450198906168" lon="-0.12425108568316974"><ele>92.0</ele><time>2026-05-01T13:22:05.001Z</time></trkpt><trkpt lat="45.76456622454393" lon="-0.12423237997001998"><ele>92.0</ele><time>2026-05-01T13:22:06.001Z</time></trkpt><trkpt lat="45.764668925125434" lon="-0.12417382820414563"><ele>91.0</ele><time>2026-05-01T13:22:08.001Z</time></trkpt><trkpt lat="45.76477672744195" lon="-0.12410903474563938"><ele>90.0</ele><time>2026-05-01T13:22:10.001Z</time></trkpt><trkpt lat="45.764894668956565" lon="-0.12404738763216223"><ele>89.0</ele><time>2026-05-01T13:22:12.001Z</time></trkpt><trkpt lat="45.76499722581595" lon="-0.12398416545955465"><ele>88.0</ele><time>2026-05-01T13:22:14.001Z</time></trkpt><trkpt lat="45.765088866086614" lon="-0.12393290848952801"><ele>88.0</ele><time>2026-05-01T13:22:16.001Z</time></trkpt><trkpt lat="45.765191098132604" lon="-0.12390241199897326"><ele>88.0</ele><time>2026-05-01T13:22:18.001Z</time></trkpt><trkpt lat="45.76524977754481" lon="-0.12386865507463245"><ele>88.0</ele><time>2026-05-01T13:22:19.001Z</time></trkpt><trkpt lat="45.76530761491168" lon="-0.12383009644146062"><ele>88.0</ele><time>2026-05-01T13:22:20.001Z</time></trkpt><trkpt lat="45.765407618943506" lon="-0.1237665896150484"><ele>88.0</ele><time>2026-05-01T13:22:22.001Z</time></trkpt><trkpt lat="45.76551006869022" lon="-0.12370193094545577"><ele>87.60000000000001</ele><time>2026-05-01T13:22:24.001Z</time></trkpt><trkpt lat="45.765570779855786" lon="-0.12366598638617744"><ele>87.2</ele><time>2026-05-01T13:22:25.001Z</time></trkpt><trkpt lat="45.7656738212664" lon="-0.12363803172902475"><ele>86.8</ele><time>2026-05-01T13:22:27.001Z</time></trkpt><trkpt lat="45.76571225866938" lon="-0.12375795022360195"><ele>86.4</ele><time>2026-05-01T13:22:28.999Z</time></trkpt><trkpt lat="45.765733291070475" lon="-0.12386646089902807"><ele>86.0</ele><time>2026-05-01T13:22:29.999Z</time></trkpt><trkpt lat="45.765772334415324" lon="-0.12401885692329977"><ele>86.33333333333334</ele><time>2026-05-01T13:22:30.999Z</time></trkpt><trkpt lat="45.76580799538207" lon="-0.12419943277868509"><ele>86.66666666666667</ele><time>2026-05-01T13:22:31.999Z</time></trkpt><trkpt lat="45.76586478756166" lon="-0.12443285103733803"><ele>87.0</ele><time>2026-05-01T13:22:32.999Z</time></trkpt><trkpt lat="45.765926341663665" lon="-0.12465272203678372"><ele>87.0</ele><time>2026-05-01T13:22:33.999Z</time></trkpt><trkpt lat="45.76596952736357" lon="-0.12480776774776077"><ele>87.0</ele><time>2026-05-01T13:22:34.999Z</time></trkpt><trkpt lat="45.76599968123141" lon="-0.12490396758537149"><ele>87.0</ele><time>2026-05-01T13:22:36Z</time></trkpt><trkpt lat="45.7660430704752" lon="-0.12500986049359666"><ele>87.0</ele><time>2026-05-01T13:22:38Z</time></trkpt><trkpt lat="45.76596632604418" lon="-0.12499585322440582"><ele>87.0</ele><time>2026-05-01T13:22:44Z</time></trkpt><trkpt lat="45.765969868576335" lon="-0.12488998324211502"><ele>87.0</ele><time>2026-05-01T13:22:46Z</time></trkpt><trkpt lat="45.76601139294826" lon="-0.12479540347135756"><ele>87.39999999999999</ele><time>2026-05-01T13:22:49Z</time></trkpt><trkpt lat="45.76613235396438" lon="-0.12474713461442924"><ele>87.8</ele><time>2026-05-01T13:22:51Z</time></trkpt><trkpt lat="45.766236609996135" lon="-0.12470905283600424"><ele>88.2</ele><time>2026-05-01T13:22:53Z</time></trkpt><trkpt lat="45.76632416448054" lon="-0.1246569533878479"><ele>88.6</ele><time>2026-05-01T13:22:55Z</time></trkpt><trkpt lat="45.76641919721009" lon="-0.12460042839438965"><ele>89.0</ele><time>2026-05-01T13:22:57Z</time></trkpt><trkpt lat="45.76650982488345" lon="-0.12455920870283017"><ele>89.0</ele><time>2026-05-01T13:22:59Z</time></trkpt><trkpt lat="45.76660970339762" lon="-0.12450307924875384"><ele>89.0</ele><time>2026-05-01T13:23:01Z</time></trkpt><trkpt lat="45.76671501952023" lon="-0.12444970397044058"><ele>89.0</ele><time>2026-05-01T13:23:03Z</time></trkpt><trkpt lat="45.76682867819028" lon="-0.12439614628770453"><ele>89.0</ele><time>2026-05-01T13:23:05Z</time></trkpt><trkpt lat="45.766938314947595" lon="-0.1243284190454019"><ele>88.83333333333334</ele><time>2026-05-01T13:23:07Z</time></trkpt><trkpt lat="45.76705382884724" lon="-0.12427029259381257"><ele>88.66666666666667</ele><time>2026-05-01T13:23:09Z</time></trkpt><trkpt lat="45.76716361387892" lon="-0.12421126452041173"><ele>88.5</ele><time>2026-05-01T13:23:11Z</time></trkpt><trkpt lat="45.7672235963634" lon="-0.12417847718365489"><ele>88.33333333333333</ele><time>2026-05-01T13:23:12Z</time></trkpt><trkpt lat="45.76728532608472" lon="-0.12414784691841135"><ele>88.16666666666666</ele><time>2026-05-01T13:23:13Z</time></trkpt><trkpt lat="45.767345555840066" lon="-0.12411586109154243"><ele>88.0</ele><time>2026-05-01T13:23:14Z</time></trkpt><trkpt lat="45.767412828924286" lon="-0.12408331903395184"><ele>88.0</ele><time>2026-05-01T13:23:15Z</time></trkpt><trkpt lat="45.76752810767787" lon="-0.12403764782402206"><ele>88.0</ele><time>2026-05-01T13:23:17Z</time></trkpt><trkpt lat="45.76759155888436" lon="-0.12400914454470435"><ele>88.0</ele><time>2026-05-01T13:23:18Z</time></trkpt><trkpt lat="45.76764966995439" lon="-0.1239666430883188"><ele>88.0</ele><time>2026-05-01T13:23:19Z</time></trkpt><trkpt lat="45.76771748202031" lon="-0.12392730881775545"><ele>88.0</ele><time>2026-05-01T13:23:20Z</time></trkpt><trkpt lat="45.76778934039609" lon="-0.12388980382117107"><ele>88.0</ele><time>2026-05-01T13:23:21Z</time></trkpt><trkpt lat="45.76785851921517" lon="-0.12385449331351085"><ele>88.14285714285714</ele><time>2026-05-01T13:23:22Z</time></trkpt><trkpt lat="45.76791983517507" lon="-0.12382915248586507"><ele>88.28571428571428</ele><time>2026-05-01T13:23:23Z</time></trkpt><trkpt lat="45.76798244945999" lon="-0.12379145677613329"><ele>88.42857142857142</ele><time>2026-05-01T13:23:24Z</time></trkpt><trkpt lat="45.76804158782592" lon="-0.12375238008753638"><ele>88.57142857142857</ele><time>2026-05-01T13:23:25Z</time></trkpt><trkpt lat="45.76811010509988" lon="-0.12371649700276939"><ele>88.71428571428571</ele><time>2026-05-01T13:23:26Z</time></trkpt><trkpt lat="45.76817403763558" lon="-0.12368741830629894"><ele>88.85714285714285</ele><time>2026-05-01T13:23:27Z</time></trkpt><trkpt lat="45.76823763025506" lon="-0.1236555007164483"><ele>89.0</ele><time>2026-05-01T13:23:28Z</time></trkpt><trkpt lat="45.76830317775638" lon="-0.12362430933975013"><ele>88.99999999999999</ele><time>2026-05-01T13:23:29Z</time></trkpt><trkpt lat="45.76837396645002" lon="-0.12358754055998221"><ele>89.0</ele><time>2026-05-01T13:23:30Z</time></trkpt><trkpt lat="45.7684475970528" lon="-0.12355096351825248"><ele>89.0</ele><time>2026-05-01T13:23:31Z</time></trkpt><trkpt lat="45.76851216154804" lon="-0.12351526414657273"><ele>89.0</ele><time>2026-05-01T13:23:32Z</time></trkpt><trkpt lat="45.76858075167767" lon="-0.1234753214564918"><ele>89.0</ele><time>2026-05-01T13:23:33Z</time></trkpt><trkpt lat="45.76865135140778" lon="-0.12344122232343221"><ele>88.99999999999999</ele><time>2026-05-01T13:23:34Z</time></trkpt><trkpt lat="45.768714203461776" lon="-0.1234048877440654"><ele>89.0</ele><time>2026-05-01T13:23:35Z</time></trkpt><trkpt lat="45.768818674838386" lon="-0.12334996329566623"><ele>88.66666666666667</ele><time>2026-05-01T13:23:37Z</time></trkpt><trkpt lat="45.76889713481187" lon="-0.12332201059784534"><ele>88.33333333333334</ele><time>2026-05-01T13:23:39Z</time></trkpt><trkpt lat="45.76894743095028" lon="-0.12339551042124136"><ele>88.0</ele><time>2026-05-01T13:23:41.001Z</time></trkpt><trkpt lat="45.76908840416413" lon="-0.12346146582262324"><ele>87.66666666666667</ele><time>2026-05-01T13:23:43.001Z</time></trkpt><trkpt lat="45.76912054706517" lon="-0.12354436449227126"><ele>87.33333333333333</ele><time>2026-05-01T13:23:44.001Z</time></trkpt><trkpt lat="45.7691564742044" lon="-0.12363702289201556"><ele>87.0</ele><time>2026-05-01T13:23:45.001Z</time></trkpt><trkpt lat="45.76918864314182" lon="-0.12371998833455412"><ele>87.0</ele><time>2026-05-01T13:23:46.001Z</time></trkpt><trkpt lat="45.76922854780325" lon="-0.12382476547460564"><ele>87.0</ele><time>2026-05-01T13:23:48.001Z</time></trkpt><trkpt lat="45.769272062313306" lon="-0.12398033754767104"><ele>87.0</ele><time>2026-05-01T13:23:52.001Z</time></trkpt><trkpt lat="45.76932202201896" lon="-0.12412915158163614"><ele>87.0</ele><time>2026-05-01T13:23:53.001Z</time></trkpt><trkpt lat="45.76939342744459" lon="-0.12430080117964325"><ele>85.66666666666667</ele><time>2026-05-01T13:23:54.001Z</time></trkpt><trkpt lat="45.76944527251956" lon="-0.12448031903333891"><ele>84.33333333333334</ele><time>2026-05-01T13:23:55.001Z</time></trkpt><trkpt lat="45.76950735804494" lon="-0.12470904128933845"><ele>83.0</ele><time>2026-05-01T13:23:56.001Z</time></trkpt><trkpt lat="45.76956662870163" lon="-0.12494500433337688"><ele>82.75</ele><time>2026-05-01T13:23:57.001Z</time></trkpt><trkpt lat="45.769614692122325" lon="-0.12514906295613978"><ele>82.5</ele><time>2026-05-01T13:23:58.001Z</time></trkpt><trkpt lat="45.76964706489443" lon="-0.12535714092975575"><ele>82.25</ele><time>2026-05-01T13:23:59.001Z</time></trkpt><trkpt lat="45.769694312524045" lon="-0.12554240766073857"><ele>82.0</ele><time>2026-05-01T13:24:00.001Z</time></trkpt><trkpt lat="45.769737230825086" lon="-0.1257380049838778"><ele>81.5</ele><time>2026-05-01T13:24:01.001Z</time></trkpt><trkpt lat="45.76977974500718" lon="-0.12592164739495268"><ele>81.0</ele><time>2026-05-01T13:24:02.001Z</time></trkpt><trkpt lat="45.76983696460804" lon="-0.12610513609204677"><ele>80.5</ele><time>2026-05-01T13:24:03.001Z</time></trkpt><trkpt lat="45.76987690826431" lon="-0.12629361002828085"><ele>80.0</ele><time>2026-05-01T13:24:04.001Z</time></trkpt><trkpt lat="45.7699206254547" lon="-0.12649399802223243"><ele>80.0</ele><time>2026-05-01T13:24:05.001Z</time></trkpt><trkpt lat="45.769968558292284" lon="-0.12666459216718187"><ele>80.0</ele><time>2026-05-01T13:24:06.001Z</time></trkpt><trkpt lat="45.770008862768776" lon="-0.1268627129353867"><ele>80.0</ele><time>2026-05-01T13:24:07.001Z</time></trkpt><trkpt lat="45.7700514604543" lon="-0.12705082491185588"><ele>80.0</ele><time>2026-05-01T13:24:08.001Z</time></trkpt><trkpt lat="45.770095312895215" lon="-0.12724740964407932"><ele>79.5</ele><time>2026-05-01T13:24:09.001Z</time></trkpt><trkpt lat="45.770147214013114" lon="-0.12744446414403945"><ele>79.0</ele><time>2026-05-01T13:24:10.001Z</time></trkpt><trkpt lat="45.77020187601614" lon="-0.1276368229002672"><ele>78.5</ele><time>2026-05-01T13:24:11.001Z</time></trkpt><trkpt lat="45.77024240088553" lon="-0.1278334682980271"><ele>78.0</ele><time>2026-05-01T13:24:12.001Z</time></trkpt><trkpt lat="45.77028327094899" lon="-0.12802855995508655"><ele>77.75</ele><time>2026-05-01T13:24:13.001Z</time></trkpt><trkpt lat="45.770316832484966" lon="-0.12822555967102897"><ele>77.5</ele><time>2026-05-01T13:24:14.001Z</time></trkpt><trkpt lat="45.77034487574476" lon="-0.12842208650124254"><ele>77.25</ele><time>2026-05-01T13:24:15.001Z</time></trkpt><trkpt lat="45.77036882246056" lon="-0.12862278200972782"><ele>77.0</ele><time>2026-05-01T13:24:16.001Z</time></trkpt><trkpt lat="45.77039471190806" lon="-0.1288169185971008"><ele>77.0</ele><time>2026-05-01T13:24:17.001Z</time></trkpt><trkpt lat="45.770420892933664" lon="-0.12900997287779656"><ele>77.0</ele><time>2026-05-01T13:24:18.001Z</time></trkpt><trkpt lat="45.77044619836303" lon="-0.12920259556647248"><ele>77.0</ele><time>2026-05-01T13:24:19.001Z</time></trkpt><trkpt lat="45.77047484627574" lon="-0.1294008443755729"><ele>77.0</ele><time>2026-05-01T13:24:20.001Z</time></trkpt><trkpt lat="45.77050446426477" lon="-0.12960222769228752"><ele>77.0</ele><time>2026-05-01T13:24:21.001Z</time></trkpt><trkpt lat="45.77053600770571" lon="-0.12979546480292523"><ele>77.0</ele><time>2026-05-01T13:24:22.001Z</time></trkpt><trkpt lat="45.77056715225175" lon="-0.12997582054707582"><ele>77.0</ele><time>2026-05-01T13:24:23.001Z</time></trkpt><trkpt lat="45.7705960049297" lon="-0.1301867718111914"><ele>77.0</ele><time>2026-05-01T13:24:24.001Z</time></trkpt><trkpt lat="45.770632534620624" lon="-0.1303863538104128"><ele>77.25</ele><time>2026-05-01T13:24:25.001Z</time></trkpt><trkpt lat="45.770681189785" lon="-0.13056426780403954"><ele>77.5</ele><time>2026-05-01T13:24:26.001Z</time></trkpt><trkpt lat="45.77071939639306" lon="-0.13073281587069827"><ele>77.75</ele><time>2026-05-01T13:24:27.001Z</time></trkpt><trkpt lat="45.77074025748219" lon="-0.13090105260559054"><ele>78.0</ele><time>2026-05-01T13:24:28.001Z</time></trkpt><trkpt lat="45.77078037564946" lon="-0.13106641480481643"><ele>77.6</ele><time>2026-05-01T13:24:29.001Z</time></trkpt><trkpt lat="45.77081687620886" lon="-0.13123366037667808"><ele>77.19999999999999</ele><time>2026-05-01T13:24:30.001Z</time></trkpt><trkpt lat="45.770853373955184" lon="-0.13136623559893976"><ele>76.8</ele><time>2026-05-01T13:24:31.001Z</time></trkpt><trkpt lat="45.77087381688779" lon="-0.13146758326348656"><ele>76.39999999999999</ele><time>2026-05-01T13:24:32.001Z</time></trkpt><trkpt lat="45.77093248761708" lon="-0.13153239616842338"><ele>76.0</ele><time>2026-05-01T13:24:34Z</time></trkpt><trkpt lat="45.771021719831644" lon="-0.13149900909623397"><ele>76.0</ele><time>2026-05-01T13:24:36Z</time></trkpt><trkpt lat="45.77109153077352" lon="-0.13145840176055637"><ele>76.0</ele><time>2026-05-01T13:24:37Z</time></trkpt><trkpt lat="45.77117218866177" lon="-0.13141003448607957"><ele>76.0</ele><time>2026-05-01T13:24:38Z</time></trkpt><trkpt lat="45.771276303693256" lon="-0.1313476009560236"><ele>76.0</ele><time>2026-05-01T13:24:39Z</time></trkpt><trkpt lat="45.771419002248514" lon="-0.1312863792493493"><ele>76.0</ele><time>2026-05-01T13:24:40Z</time></trkpt><trkpt lat="45.771571056343404" lon="-0.13118303066971218"><ele>76.0</ele><time>2026-05-01T13:24:41Z</time></trkpt><trkpt lat="45.771736307378944" lon="-0.13108627464984446"><ele>76.0</ele><time>2026-05-01T13:24:42Z</time></trkpt><trkpt lat="45.77190572908828" lon="-0.13098784602940985"><ele>76.0</ele><time>2026-05-01T13:24:43Z</time></trkpt><trkpt lat="45.772093503955496" lon="-0.13088686181897977"><ele>75.33333333333333</ele><time>2026-05-01T13:24:44Z</time></trkpt><trkpt lat="45.772277213391334" lon="-0.13077930075330918"><ele>74.66666666666667</ele><time>2026-05-01T13:24:45Z</time></trkpt><trkpt lat="45.77245437730827" lon="-0.13068917460990087"><ele>74.0</ele><time>2026-05-01T13:24:46Z</time></trkpt><trkpt lat="45.77263598726571" lon="-0.1305876525027291"><ele>73.33333333333334</ele><time>2026-05-01T13:24:47Z</time></trkpt><trkpt lat="45.77283301143633" lon="-0.13048445202369208"><ele>72.66666666666667</ele><time>2026-05-01T13:24:48Z</time></trkpt><trkpt lat="45.77301070998945" lon="-0.1304001188856946"><ele>72.0</ele><time>2026-05-01T13:24:49Z</time></trkpt><trkpt lat="45.7731614247958" lon="-0.13030170323265472"><ele>72.0</ele><time>2026-05-01T13:24:50Z</time></trkpt><trkpt lat="45.77331252457176" lon="-0.13023352744320735"><ele>72.0</ele><time>2026-05-01T13:24:51Z</time></trkpt><trkpt lat="45.77346064813254" lon="-0.13019134663133716"><ele>72.0</ele><time>2026-05-01T13:24:52Z</time></trkpt><trkpt lat="45.77359398898668" lon="-0.13012124746461062"><ele>71.75</ele><time>2026-05-01T13:24:53Z</time></trkpt><trkpt lat="45.7737115572922" lon="-0.1300696296868267"><ele>71.5</ele><time>2026-05-01T13:24:54Z</time></trkpt><trkpt lat="45.77384608364777" lon="-0.12999362082460567"><ele>71.25</ele><time>2026-05-01T13:24:55Z</time></trkpt><trkpt lat="45.77397164352646" lon="-0.12995301124761807"><ele>71.0</ele><time>2026-05-01T13:24:56Z</time></trkpt><trkpt lat="45.77408312510561" lon="-0.1299026832885151"><ele>71.0</ele><time>2026-05-01T13:24:57Z</time></trkpt><trkpt lat="45.774168869188195" lon="-0.12987748465443738"><ele>71.0</ele><time>2026-05-01T13:24:58Z</time></trkpt><trkpt lat="45.77429201067322" lon="-0.12987786597600062"><ele>71.0</ele><time>2026-05-01T13:25:00Z</time></trkpt><trkpt lat="45.77441201887655" lon="-0.1299096912091626"><ele>71.0</ele><time>2026-05-01T13:25:02Z</time></trkpt><trkpt lat="45.774467207713755" lon="-0.13010721242333864"><ele>71.0</ele><time>2026-05-01T13:25:03Z</time></trkpt><trkpt lat="45.774493872432714" lon="-0.1301960895100669"><ele>71.0</ele><time>2026-05-01T13:25:04Z</time></trkpt><trkpt lat="45.77461867528775" lon="-0.13012625972440472"><ele>71.0</ele><time>2026-05-01T13:25:06Z</time></trkpt><trkpt lat="45.774704260870955" lon="-0.13007198302409126"><ele>71.0</ele><time>2026-05-01T13:25:07Z</time></trkpt><trkpt lat="45.774819007798676" lon="-0.13000566478261288"><ele>71.0</ele><time>2026-05-01T13:25:08Z</time></trkpt><trkpt lat="45.77493841735501" lon="-0.12989524639834427"><ele>71.33333333333334</ele><time>2026-05-01T13:25:09Z</time></trkpt><trkpt lat="45.775054266606205" lon="-0.1297561726008727"><ele>71.66666666666667</ele><time>2026-05-01T13:25:10Z</time></trkpt><trkpt lat="45.77515972084028" lon="-0.12958779166961412"><ele>72.0</ele><time>2026-05-01T13:25:11Z</time></trkpt><trkpt lat="45.77527019006277" lon="-0.1293797564489939"><ele>73.66666666666667</ele><time>2026-05-01T13:25:12Z</time></trkpt><trkpt lat="45.77540543779663" lon="-0.12917657690534304"><ele>75.33333333333334</ele><time>2026-05-01T13:25:13Z</time></trkpt><trkpt lat="45.77555166485769" lon="-0.12899865388445492"><ele>77.0</ele><time>2026-05-01T13:25:14Z</time></trkpt><trkpt lat="45.77570906509526" lon="-0.12883258799147512"><ele>78.33333333333334</ele><time>2026-05-01T13:25:15Z</time></trkpt><trkpt lat="45.77587830340326" lon="-0.1286547842685491"><ele>79.66666666666667</ele><time>2026-05-01T13:25:16Z</time></trkpt><trkpt lat="45.776055391664265" lon="-0.1284664746443465"><ele>81.0</ele><time>2026-05-01T13:25:17Z</time></trkpt><trkpt lat="45.77620506992438" lon="-0.1283000674794528"><ele>83.33333333333333</ele><time>2026-05-01T13:25:18Z</time></trkpt><trkpt lat="45.77634722702539" lon="-0.1281536192357029"><ele>85.66666666666666</ele><time>2026-05-01T13:25:19Z</time></trkpt><trkpt lat="45.77649624298432" lon="-0.12801321839842505"><ele>88.0</ele><time>2026-05-01T13:25:20Z</time></trkpt><trkpt lat="45.776631558758055" lon="-0.12788717433178262"><ele>88.0</ele><time>2026-05-01T13:25:21Z</time></trkpt><trkpt lat="45.77673387976512" lon="-0.12779766521403707"><ele>88.0</ele><time>2026-05-01T13:25:22Z</time></trkpt><trkpt lat="45.776824379395954" lon="-0.12772482237566263"><ele>88.0</ele><time>2026-05-01T13:25:23Z</time></trkpt><trkpt lat="45.77691628790804" lon="-0.1276505927577014"><ele>88.0</ele><time>2026-05-01T13:25:24Z</time></trkpt><trkpt lat="45.77701637240879" lon="-0.1275611776502196"><ele>88.0</ele><time>2026-05-01T13:25:25Z</time></trkpt><trkpt lat="45.777112468295705" lon="-0.12746462473612527"><ele>89.80000000000001</ele><time>2026-05-01T13:25:26Z</time></trkpt><trkpt lat="45.77720596003225" lon="-0.12735468974791042"><ele>91.6</ele><time>2026-05-01T13:25:27Z</time></trkpt><trkpt lat="45.77728998206963" lon="-0.12724225153368188"><ele>93.4</ele><time>2026-05-01T13:25:28Z</time></trkpt><trkpt lat="45.77736242662325" lon="-0.12713608756477862"><ele>95.19999999999999</ele><time>2026-05-01T13:25:29Z</time></trkpt><trkpt lat="45.77743605107697" lon="-0.12705185056360813"><ele>97.0</ele><time>2026-05-01T13:25:30Z</time></trkpt><trkpt lat="45.77750262767267" lon="-0.1269624304411812"><ele>97.0</ele><time>2026-05-01T13:25:31Z</time></trkpt><trkpt lat="45.777567896914675" lon="-0.12687979136721986"><ele>97.0</ele><time>2026-05-01T13:25:32Z</time></trkpt><trkpt lat="45.7776468651635" lon="-0.12679215346710807"><ele>97.0</ele><time>2026-05-01T13:25:33Z</time></trkpt><trkpt lat="45.77771822498677" lon="-0.12669256421110026"><ele>97.0</ele><time>2026-05-01T13:25:34Z</time></trkpt><trkpt lat="45.777783086503284" lon="-0.12659318969385194"><ele>97.0</ele><time>2026-05-01T13:25:35.001Z</time></trkpt><trkpt lat="45.77783948065562" lon="-0.1264678968880842"><ele>98.39999999999999</ele><time>2026-05-01T13:25:36.001Z</time></trkpt><trkpt lat="45.777907780153505" lon="-0.12636868854784888"><ele>99.8</ele><time>2026-05-01T13:25:37.001Z</time></trkpt><trkpt lat="45.77797314827879" lon="-0.12624907665435206"><ele>101.2</ele><time>2026-05-01T13:25:38.001Z</time></trkpt><trkpt lat="45.77801896908896" lon="-0.12611925161120752"><ele>102.6</ele><time>2026-05-01T13:25:39.001Z</time></trkpt><trkpt lat="45.77806499546434" lon="-0.12601503890878907"><ele>104.0</ele><time>2026-05-01T13:25:40.001Z</time></trkpt><trkpt lat="45.77813159625768" lon="-0.125893757603581"><ele>104.0</ele><time>2026-05-01T13:25:41.001Z</time></trkpt><trkpt lat="45.77818630695158" lon="-0.12576603873144218"><ele>104.0</ele><time>2026-05-01T13:25:42.001Z</time></trkpt><trkpt lat="45.778238548657235" lon="-0.12567190003148607"><ele>104.0</ele><time>2026-05-01T13:25:43.001Z</time></trkpt><trkpt lat="45.77830962660457" lon="-0.1255659946686626"><ele>104.0</ele><time>2026-05-01T13:25:44.001Z</time></trkpt><trkpt lat="45.778373926765454" lon="-0.12548653800811427"><ele>104.0</ele><time>2026-05-01T13:25:45.001Z</time></trkpt><trkpt lat="45.77844958487437" lon="-0.12540722529734724"><ele>105.0</ele><time>2026-05-01T13:25:46.001Z</time></trkpt><trkpt lat="45.77853003895115" lon="-0.12532539418655397"><ele>106.0</ele><time>2026-05-01T13:25:47.001Z</time></trkpt><trkpt lat="45.778613152087864" lon="-0.12522918870274954"><ele>107.0</ele><time>2026-05-01T13:25:48.001Z</time></trkpt><trkpt lat="45.77869003400557" lon="-0.12515652109529207"><ele>108.0</ele><time>2026-05-01T13:25:49.001Z</time></trkpt><trkpt lat="45.778781019609795" lon="-0.12522650771864963"><ele>109.0</ele><time>2026-05-01T13:25:53.001Z</time></trkpt><trkpt lat="45.778859587947686" lon="-0.1253656908358586"><ele>109.00000000000001</ele><time>2026-05-01T13:25:55.001Z</time></trkpt><trkpt lat="45.7788852082351" lon="-0.12546454941003465"><ele>109.0</ele><time>2026-05-01T13:25:56.001Z</time></trkpt><trkpt lat="45.77892779695952" lon="-0.12555488622075028"><ele>109.0</ele><time>2026-05-01T13:25:57.001Z</time></trkpt><trkpt lat="45.77892397890844" lon="-0.1256556221961123"><ele>109.0</ele><time>2026-05-01T13:25:58.001Z</time></trkpt><trkpt lat="45.77894280954258" lon="-0.12580432161992755"><ele>109.00000000000001</ele><time>2026-05-01T13:26:00.001Z</time></trkpt><trkpt lat="45.778987833302985" lon="-0.12590746283020868"><ele>109.0</ele><time>2026-05-01T13:26:02.001Z</time></trkpt><trkpt lat="45.77909566636148" lon="-0.1260014141326142"><ele>109.0</ele><time>2026-05-01T13:26:04.001Z</time></trkpt><trkpt lat="45.779147998112215" lon="-0.12606433252321522"><ele>109.0</ele><time>2026-05-01T13:26:05.001Z</time></trkpt><trkpt lat="45.77920492906282" lon="-0.12612878183222642"><ele>109.0</ele><time>2026-05-01T13:26:06.001Z</time></trkpt><trkpt lat="45.77927340567695" lon="-0.12618899649153847"><ele>109.0</ele><time>2026-05-01T13:26:07.001Z</time></trkpt><trkpt lat="45.779345407124026" lon="-0.1262527992218265"><ele>109.0</ele><time>2026-05-01T13:26:08.001Z</time></trkpt><trkpt lat="45.77940028356877" lon="-0.12630424266539708"><ele>109.0</ele><time>2026-05-01T13:26:09.001Z</time></trkpt><trkpt lat="45.77945667726879" lon="-0.12636291201244965"><ele>109.0</ele><time>2026-05-01T13:26:10.001Z</time></trkpt><trkpt lat="45.77955353221506" lon="-0.12644508867403814"><ele>109.00000000000001</ele><time>2026-05-01T13:26:12.001Z</time></trkpt><trkpt lat="45.779606514145556" lon="-0.12651211987174635"><ele>109.0</ele><time>2026-05-01T13:26:13.001Z</time></trkpt><trkpt lat="45.77965495345072" lon="-0.1265806444861811"><ele>109.0</ele><time>2026-05-01T13:26:14.001Z</time></trkpt><trkpt lat="45.779694441768996" lon="-0.12665643583055433"><ele>109.0</ele><time>2026-05-01T13:26:15.001Z</time></trkpt><trkpt lat="45.77975318204361" lon="-0.1267778590793964"><ele>109.00000000000001</ele><time>2026-05-01T13:26:17.001Z</time></trkpt><trkpt lat="45.77979798362507" lon="-0.12689802533531722"><ele>109.0</ele><time>2026-05-01T13:26:19.001Z</time></trkpt><trkpt lat="45.77974796488897" lon="-0.12706193537990743"><ele>108.83333333333334</ele><time>2026-05-01T13:26:20.001Z</time></trkpt><trkpt lat="45.779717771810155" lon="-0.12723346062604132"><ele>108.66666666666667</ele><time>2026-05-01T13:26:22.001Z</time></trkpt><trkpt lat="45.779713304933594" lon="-0.127337211568391"><ele>108.5</ele><time>2026-05-01T13:26:23.001Z</time></trkpt><trkpt lat="45.77972937056751" lon="-0.12744148797784421"><ele>108.33333333333334</ele><time>2026-05-01T13:26:24.001Z</time></trkpt><trkpt lat="45.77971602995796" lon="-0.12755053448347745"><ele>108.16666666666667</ele><time>2026-05-01T13:26:25.001Z</time></trkpt><trkpt lat="45.77971671075479" lon="-0.12764982207569667"><ele>108.0</ele><time>2026-05-01T13:26:26.001Z</time></trkpt><trkpt lat="45.77972222155678" lon="-0.127752861128743"><ele>107.83333333333333</ele><time>2026-05-01T13:26:27.001Z</time></trkpt><trkpt lat="45.77973745383564" lon="-0.12784620533344512"><ele>107.66666666666666</ele><time>2026-05-01T13:26:28.001Z</time></trkpt><trkpt lat="45.77973159671728" lon="-0.127938689361951"><ele>107.5</ele><time>2026-05-01T13:26:29.001Z</time></trkpt><trkpt lat="45.779690145545736" lon="-0.12811502843319694"><ele>107.33333333333333</ele><time>2026-05-01T13:26:31.001Z</time></trkpt><trkpt lat="45.7796610871253" lon="-0.12820776008201945"><ele>107.16666666666666</ele><time>2026-05-01T13:26:32.001Z</time></trkpt><trkpt lat="45.77963543984696" lon="-0.12830052624780788"><ele>107.0</ele><time>2026-05-01T13:26:33.001Z</time></trkpt><trkpt lat="45.77961734894248" lon="-0.12840052857756518"><ele>106.16666666666666</ele><time>2026-05-01T13:26:34.001Z</time></trkpt><trkpt lat="45.77960934462833" lon="-0.1285115230539434"><ele>105.33333333333333</ele><time>2026-05-01T13:26:35.001Z</time></trkpt><trkpt lat="45.77960616131383" lon="-0.12861120994975705"><ele>104.5</ele><time>2026-05-01T13:26:36.001Z</time></trkpt><trkpt lat="45.77961377975663" lon="-0.12871571855193314"><ele>103.66666666666666</ele><time>2026-05-01T13:26:37.001Z</time></trkpt><trkpt lat="45.7796392354344" lon="-0.12890723733578474"><ele>102.83333333333333</ele><time>2026-05-01T13:26:39.001Z</time></trkpt><trkpt lat="45.77966288471505" lon="-0.12901019666360594"><ele>102.0</ele><time>2026-05-01T13:26:39.999Z</time></trkpt><trkpt lat="45.779691034701756" lon="-0.129093650820495"><ele>101.16666666666667</ele><time>2026-05-01T13:26:40.999Z</time></trkpt><trkpt lat="45.77971511079949" lon="-0.1291862316296663"><ele>100.33333333333334</ele><time>2026-05-01T13:26:41.999Z</time></trkpt><trkpt lat="45.779766813560265" lon="-0.12926816264846858"><ele>99.5</ele><time>2026-05-01T13:26:42.999Z</time></trkpt><trkpt lat="45.77979729962846" lon="-0.12934926462718238"><ele>98.66666666666667</ele><time>2026-05-01T13:26:43.999Z</time></trkpt><trkpt lat="45.77982348564635" lon="-0.1294320345147121"><ele>97.83333333333334</ele><time>2026-05-01T13:26:44.999Z</time></trkpt><trkpt lat="45.77983872499909" lon="-0.12954527198834104"><ele>97.0</ele><time>2026-05-01T13:26:46.999Z</time></trkpt><trkpt lat="45.78003331428429" lon="-0.12935095656585052"><ele>97.0</ele><time>2026-05-01T13:26:55Z</time></trkpt><trkpt lat="45.78010719267935" lon="-0.12918041392875146"><ele>97.0</ele><time>2026-05-01T13:26:56Z</time></trkpt><trkpt lat="45.780197053317934" lon="-0.12898551460836766"><ele>97.0</ele><time>2026-05-01T13:26:57Z</time></trkpt><trkpt lat="45.7802777687425" lon="-0.12880963516313634"><ele>96.8</ele><time>2026-05-01T13:26:58Z</time></trkpt><trkpt lat="45.78034488439863" lon="-0.12869806979185666"><ele>96.6</ele><time>2026-05-01T13:26:59Z</time></trkpt><trkpt lat="45.780399784134346" lon="-0.12858535278750827"><ele>96.39999999999999</ele><time>2026-05-01T13:27:00Z</time></trkpt><trkpt lat="45.78045238485251" lon="-0.1284642097319699"><ele>96.19999999999999</ele><time>2026-05-01T13:27:01Z</time></trkpt><trkpt lat="45.78049592869818" lon="-0.1283327090410076"><ele>96.0</ele><time>2026-05-01T13:27:02Z</time></trkpt><trkpt lat="45.78053949049931" lon="-0.12820381273448245"><ele>97.16666666666667</ele><time>2026-05-01T13:27:03Z</time></trkpt><trkpt lat="45.78057973611126" lon="-0.12808048408436296"><ele>98.33333333333334</ele><time>2026-05-01T13:27:04Z</time></trkpt><trkpt lat="45.780608951013086" lon="-0.12796391431383772"><ele>99.5</ele><time>2026-05-01T13:27:05Z</time></trkpt><trkpt lat="45.78063519572777" lon="-0.12785453946582812"><ele>100.66666666666667</ele><time>2026-05-01T13:27:06Z</time></trkpt><trkpt lat="45.78066236436623" lon="-0.12773489004143038"><ele>101.83333333333334</ele><time>2026-05-01T13:27:07Z</time></trkpt><trkpt lat="45.78067683236724" lon="-0.1276175576490383"><ele>103.0</ele><time>2026-05-01T13:27:08Z</time></trkpt><trkpt lat="45.78069382791104" lon="-0.1275089642856836"><ele>103.0</ele><time>2026-05-01T13:27:10Z</time></trkpt><trkpt lat="45.78077268302775" lon="-0.12749273291755786"><ele>103.0</ele><time>2026-05-01T13:27:16Z</time></trkpt><trkpt lat="45.78082796242256" lon="-0.1273918955430483"><ele>103.0</ele><time>2026-05-01T13:27:19Z</time></trkpt><trkpt lat="45.780864861620124" lon="-0.1273037141943606"><ele>103.0</ele><time>2026-05-01T13:27:20Z</time></trkpt><trkpt lat="45.78094050628925" lon="-0.12717016938176484"><ele>103.0</ele><time>2026-05-01T13:27:22Z</time></trkpt><trkpt lat="45.78108462519494" lon="-0.12674423479120195"><ele>102.5</ele><time>2026-05-01T13:27:24Z</time></trkpt><trkpt lat="45.78114949649622" lon="-0.1267072653227231"><ele>102.0</ele><time>2026-05-01T13:27:25Z</time></trkpt><trkpt lat="45.78126437077589" lon="-0.12664179969054862"><ele>101.5</ele><time>2026-05-01T13:27:27Z</time></trkpt><trkpt lat="45.78133642826325" lon="-0.1266007348924105"><ele>101.0</ele><time>2026-05-01T13:27:28Z</time></trkpt><trkpt lat="45.781596639944006" lon="-0.12712712649305155"><ele>101.0</ele><time>2026-05-01T13:27:31Z</time></trkpt><trkpt lat="45.781701856619875" lon="-0.1270925026226247"><ele>101.0</ele><time>2026-05-01T13:27:33Z</time></trkpt><trkpt lat="45.7818048943043" lon="-0.12710610380350038"><ele>101.0</ele><time>2026-05-01T13:27:35Z</time></trkpt><trkpt lat="45.78187514411506" lon="-0.12714137142699952"><ele>101.0</ele><time>2026-05-01T13:27:36Z</time></trkpt><trkpt lat="45.7819472584273" lon="-0.12716104910167358"><ele>101.0</ele><time>2026-05-01T13:27:37Z</time></trkpt><trkpt lat="45.78207409898513" lon="-0.12716439383485"><ele>100.6</ele><time>2026-05-01T13:27:38Z</time></trkpt><trkpt lat="45.78218264338281" lon="-0.12718237797669424"><ele>100.19999999999999</ele><time>2026-05-01T13:27:40Z</time></trkpt><trkpt lat="45.78226749120753" lon="-0.12720876826475902"><ele>99.80000000000001</ele><time>2026-05-01T13:27:42Z</time></trkpt><trkpt lat="45.782328029868005" lon="-0.1270681972413082"><ele>99.4</ele><time>2026-05-01T13:27:45.001Z</time></trkpt><trkpt lat="45.78236238766648" lon="-0.12691480913646488"><ele>99.0</ele><time>2026-05-01T13:27:46.001Z</time></trkpt><trkpt lat="45.78239394443434" lon="-0.1267648764591084"><ele>99.0</ele><time>2026-05-01T13:27:47.001Z</time></trkpt><trkpt lat="45.78242660304307" lon="-0.1266423543231711"><ele>99.0</ele><time>2026-05-01T13:27:48.001Z</time></trkpt><trkpt lat="45.78247069238775" lon="-0.12650877997888008"><ele>99.0</ele><time>2026-05-01T13:27:50.001Z</time></trkpt><trkpt lat="45.78253577242393" lon="-0.1263581876201812"><ele>99.0</ele><time>2026-05-01T13:27:52.001Z</time></trkpt><trkpt lat="45.782557322423116" lon="-0.12625784238063079"><ele>99.0</ele><time>2026-05-01T13:27:53.001Z</time></trkpt><trkpt lat="45.782564569698586" lon="-0.1261677784606891"><ele>99.16666666666667</ele><time>2026-05-01T13:27:54.001Z</time></trkpt><trkpt lat="45.78258226238917" lon="-0.12607278151140347"><ele>99.33333333333334</ele><time>2026-05-01T13:27:55.001Z</time></trkpt><trkpt lat="45.78260849413053" lon="-0.12597478593150221"><ele>99.5</ele><time>2026-05-01T13:27:56.001Z</time></trkpt><trkpt lat="45.78264397473221" lon="-0.12586629526149928"><ele>99.66666666666667</ele><time>2026-05-01T13:27:57.001Z</time></trkpt><trkpt lat="45.782680610478714" lon="-0.1257424023892106"><ele>99.83333333333334</ele><time>2026-05-01T13:27:58.001Z</time></trkpt><trkpt lat="45.78272509706072" lon="-0.1256586213557597"><ele>100.0</ele><time>2026-05-01T13:27:59.001Z</time></trkpt><trkpt lat="45.78274151142879" lon="-0.12555805601965603"><ele>100.2</ele><time>2026-05-01T13:28:00.001Z</time></trkpt><trkpt lat="45.782784830727785" lon="-0.12544512443098021"><ele>100.4</ele><time>2026-05-01T13:28:01.001Z</time></trkpt><trkpt lat="45.78285037259027" lon="-0.12531602071225623"><ele>100.6</ele><time>2026-05-01T13:28:02.001Z</time></trkpt><trkpt lat="45.78291655277886" lon="-0.12518471768806688"><ele>100.8</ele><time>2026-05-01T13:28:03.001Z</time></trkpt><trkpt lat="45.78296713813097" lon="-0.12507127559447803"><ele>101.0</ele><time>2026-05-01T13:28:04.001Z</time></trkpt><trkpt lat="45.78300642062509" lon="-0.12496425742420515"><ele>101.19999999999999</ele><time>2026-05-01T13:28:05.001Z</time></trkpt><trkpt lat="45.78305587437441" lon="-0.12481478645061321"><ele>101.39999999999999</ele><time>2026-05-01T13:28:06.001Z</time></trkpt><trkpt lat="45.78307848012175" lon="-0.1245921175166652"><ele>101.6</ele><time>2026-05-01T13:28:07.001Z</time></trkpt><trkpt lat="45.78309118751231" lon="-0.1244991702810468"><ele>101.8</ele><time>2026-05-01T13:28:08.001Z</time></trkpt><trkpt lat="45.78311865647414" lon="-0.12440789735322423"><ele>102.0</ele><time>2026-05-01T13:28:09.001Z</time></trkpt><trkpt lat="45.7831769829989" lon="-0.12433176388837763"><ele>102.0</ele><time>2026-05-01T13:28:11.001Z</time></trkpt><trkpt lat="45.78331247402463" lon="-0.1243931202669389"><ele>102.0</ele><time>2026-05-01T13:28:13.001Z</time></trkpt><trkpt lat="45.783385055780656" lon="-0.1244231881628461"><ele>102.0</ele><time>2026-05-01T13:28:14.001Z</time></trkpt><trkpt lat="45.78344855043791" lon="-0.12441406375508775"><ele>102.0</ele><time>2026-05-01T13:28:15.001Z</time></trkpt><trkpt lat="45.783512156877556" lon="-0.12438133423567847"><ele>102.0</ele><time>2026-05-01T13:28:16.001Z</time></trkpt><trkpt lat="45.78357886703687" lon="-0.12433577436146367"><ele>102.0</ele><time>2026-05-01T13:28:17.001Z</time></trkpt><trkpt lat="45.783675669905165" lon="-0.12426997901957251"><ele>102.83333333333333</ele><time>2026-05-01T13:28:19.001Z</time></trkpt><trkpt lat="45.78376965762761" lon="-0.12415978170131695"><ele>103.66666666666666</ele><time>2026-05-01T13:28:21.001Z</time></trkpt><trkpt lat="45.78382591928128" lon="-0.12409472528527675"><ele>104.5</ele><time>2026-05-01T13:28:22.001Z</time></trkpt><trkpt lat="45.78389936540403" lon="-0.12398580745272446"><ele>105.33333333333333</ele><time>2026-05-01T13:28:24.001Z</time></trkpt><trkpt lat="45.78394558860817" lon="-0.12391978874957055"><ele>106.16666666666666</ele><time>2026-05-01T13:28:25.001Z</time></trkpt><trkpt lat="45.78399349322831" lon="-0.12384728107977266"><ele>107.0</ele><time>2026-05-01T13:28:26.001Z</time></trkpt><trkpt lat="45.78404734835001" lon="-0.12377384622959815"><ele>107.00000000000001</ele><time>2026-05-01T13:28:27.001Z</time></trkpt><trkpt lat="45.784102261598335" lon="-0.1237178652262272"><ele>107.0</ele><time>2026-05-01T13:28:28.001Z</time></trkpt><trkpt lat="45.7841743265595" lon="-0.12368507154991583"><ele>107.0</ele><time>2026-05-01T13:28:29.001Z</time></trkpt><trkpt lat="45.78423624322565" lon="-0.12363971091621931"><ele>107.0</ele><time>2026-05-01T13:28:30.001Z</time></trkpt><trkpt lat="45.784318941690245" lon="-0.12360128012976056"><ele>107.0</ele><time>2026-05-01T13:28:31.001Z</time></trkpt><trkpt lat="45.78436928196067" lon="-0.12354663360229896"><ele>107.00000000000001</ele><time>2026-05-01T13:28:32.001Z</time></trkpt><trkpt lat="45.78443616962577" lon="-0.12350280522275062"><ele>107.0</ele><time>2026-05-01T13:28:34.001Z</time></trkpt><trkpt lat="45.78448214824517" lon="-0.12337297700062917"><ele>108.66666666666666</ele><time>2026-05-01T13:28:37.001Z</time></trkpt><trkpt lat="45.78446569228983" lon="-0.12316468657453779"><ele>110.33333333333334</ele><time>2026-05-01T13:28:39.001Z</time></trkpt><trkpt lat="45.78442658370781" lon="-0.12285811995369986"><ele>112.0</ele><time>2026-05-01T13:28:41.001Z</time></trkpt><trkpt lat="45.7844017109215" lon="-0.12269300603861008"><ele>112.0</ele><time>2026-05-01T13:28:42.001Z</time></trkpt><trkpt lat="45.78435388079169" lon="-0.12250234810629707"><ele>112.0</ele><time>2026-05-01T13:28:43.001Z</time></trkpt><trkpt lat="45.78427767953919" lon="-0.12233173363308092"><ele>112.0</ele><time>2026-05-01T13:28:44.001Z</time></trkpt><trkpt lat="45.78421899296962" lon="-0.12217882727698395"><ele>112.0</ele><time>2026-05-01T13:28:45.001Z</time></trkpt><trkpt lat="45.78417035686462" lon="-0.12204774548421357"><ele>112.19999999999999</ele><time>2026-05-01T13:28:46Z</time></trkpt><trkpt lat="45.78412432296499" lon="-0.12191747679595923"><ele>112.39999999999999</ele><time>2026-05-01T13:28:47Z</time></trkpt><trkpt lat="45.784084244114" lon="-0.12177226416539479"><ele>112.60000000000001</ele><time>2026-05-01T13:28:48Z</time></trkpt><trkpt lat="45.78407480260217" lon="-0.12160378271479755"><ele>112.80000000000001</ele><time>2026-05-01T13:28:49Z</time></trkpt><trkpt lat="45.78406633819133" lon="-0.12144117191361589"><ele>113.0</ele><time>2026-05-01T13:28:50Z</time></trkpt><trkpt lat="45.78405399757689" lon="-0.12126584574970875"><ele>113.0</ele><time>2026-05-01T13:28:51Z</time></trkpt><trkpt lat="45.78406544599951" lon="-0.12108167390839321"><ele>113.0</ele><time>2026-05-01T13:28:52Z</time></trkpt><trkpt lat="45.7840871112566" lon="-0.12087846956436815"><ele>113.0</ele><time>2026-05-01T13:28:53Z</time></trkpt><trkpt lat="45.784078537982275" lon="-0.1206849945976927"><ele>113.0</ele><time>2026-05-01T13:28:54Z</time></trkpt><trkpt lat="45.78407792801965" lon="-0.12049910615232491"><ele>113.33333333333333</ele><time>2026-05-01T13:28:55Z</time></trkpt><trkpt lat="45.784074652577644" lon="-0.12034583897341208"><ele>113.66666666666666</ele><time>2026-05-01T13:28:56Z</time></trkpt><trkpt lat="45.784086684084805" lon="-0.12020821272512426"><ele>114.0</ele><time>2026-05-01T13:28:57Z</time></trkpt><trkpt lat="45.78407601334586" lon="-0.12008472909331598"><ele>114.33333333333334</ele><time>2026-05-01T13:28:58Z</time></trkpt><trkpt lat="45.78407543441141" lon="-0.1199708117877644"><ele>114.66666666666667</ele><time>2026-05-01T13:28:59Z</time></trkpt><trkpt lat="45.78407326704009" lon="-0.1198743666609444"><ele>115.0</ele><time>2026-05-01T13:29:00Z</time></trkpt><trkpt lat="45.7840583481739" lon="-0.11978298782327247"><ele>115.2</ele><time>2026-05-01T13:29:01Z</time></trkpt><trkpt lat="45.784053164645464" lon="-0.11967466756552714"><ele>115.4</ele><time>2026-05-01T13:29:03Z</time></trkpt><trkpt lat="45.784030530876656" lon="-0.11953177713182235"><ele>115.6</ele><time>2026-05-01T13:29:07Z</time></trkpt><trkpt lat="45.783971692273" lon="-0.11944279409992083"><ele>115.8</ele><time>2026-05-01T13:29:08Z</time></trkpt><trkpt lat="45.783894953589325" lon="-0.11934506238714288"><ele>116.0</ele><time>2026-05-01T13:29:09Z</time></trkpt><trkpt lat="45.783789595070516" lon="-0.11921656763694276"><ele>116.0</ele><time>2026-05-01T13:29:10Z</time></trkpt><trkpt lat="45.783675296884844" lon="-0.11906573221910466"><ele>116.0</ele><time>2026-05-01T13:29:11Z</time></trkpt><trkpt lat="45.78352944361904" lon="-0.11892080136533642"><ele>116.0</ele><time>2026-05-01T13:29:12Z</time></trkpt><trkpt lat="45.78339891691791" lon="-0.11875611126674997"><ele>116.0</ele><time>2026-05-01T13:29:13Z</time></trkpt><trkpt lat="45.78328071588612" lon="-0.11862317363125355"><ele>116.0</ele><time>2026-05-01T13:29:14Z</time></trkpt><trkpt lat="45.78319053330803" lon="-0.11852456770484089"><ele>116.0</ele><time>2026-05-01T13:29:15Z</time></trkpt><trkpt lat="45.78311332560959" lon="-0.11845958677118036"><ele>116.0</ele><time>2026-05-01T13:29:16Z</time></trkpt><trkpt lat="45.78302981146193" lon="-0.11839519969101055"><ele>116.0</ele><time>2026-05-01T13:29:18Z</time></trkpt><trkpt lat="45.783024687233535" lon="-0.11822635258047996"><ele>116.5</ele><time>2026-05-01T13:29:22Z</time></trkpt><trkpt lat="45.78308256075907" lon="-0.11810218505081002"><ele>117.0</ele><time>2026-05-01T13:29:23Z</time></trkpt><trkpt lat="45.78315503368159" lon="-0.11794783997019379"><ele>117.5</ele><time>2026-05-01T13:29:24Z</time></trkpt><trkpt lat="45.78322361433979" lon="-0.11777793571065212"><ele>118.0</ele><time>2026-05-01T13:29:25Z</time></trkpt><trkpt lat="45.783297349648606" lon="-0.11756775146484692"><ele>118.60000000000001</ele><time>2026-05-01T13:29:26Z</time></trkpt><trkpt lat="45.78336938229594" lon="-0.11738305152451096"><ele>119.20000000000002</ele><time>2026-05-01T13:29:27Z</time></trkpt><trkpt lat="45.783433611240056" lon="-0.11723572583598522"><ele>119.8</ele><time>2026-05-01T13:29:28Z</time></trkpt><trkpt lat="45.78346864702424" lon="-0.11714319146147238"><ele>120.4</ele><time>2026-05-01T13:29:29Z</time></trkpt><trkpt lat="45.78348373705801" lon="-0.11702868930472847"><ele>121.0</ele><time>2026-05-01T13:29:31Z</time></trkpt><trkpt lat="45.78335952779597" lon="-0.11693409956132034"><ele>121.0</ele><time>2026-05-01T13:29:33Z</time></trkpt><trkpt lat="45.78329706469805" lon="-0.11685134552727214"><ele>121.0</ele><time>2026-05-01T13:29:34.001Z</time></trkpt><trkpt lat="45.78321418359257" lon="-0.11676475992629796"><ele>121.0</ele><time>2026-05-01T13:29:35.001Z</time></trkpt><trkpt lat="45.78310669058109" lon="-0.11667032221768105"><ele>121.0</ele><time>2026-05-01T13:29:36.001Z</time></trkpt><trkpt lat="45.782963555032886" lon="-0.11656439851541106"><ele>121.33333333333334</ele><time>2026-05-01T13:29:37.001Z</time></trkpt><trkpt lat="45.78281190622623" lon="-0.11642504457086145"><ele>121.66666666666666</ele><time>2026-05-01T13:29:38.001Z</time></trkpt><trkpt lat="45.78265895213573" lon="-0.11631533137285424"><ele>122.0</ele><time>2026-05-01T13:29:39.001Z</time></trkpt><trkpt lat="45.78254687151497" lon="-0.11618301137690544"><ele>122.0</ele><time>2026-05-01T13:29:40.001Z</time></trkpt><trkpt lat="45.78244304018549" lon="-0.11608221375609397"><ele>122.0</ele><time>2026-05-01T13:29:41.001Z</time></trkpt><trkpt lat="45.78234719704" lon="-0.11592549818082096"><ele>122.0</ele><time>2026-05-01T13:29:42.001Z</time></trkpt><trkpt lat="45.782248133694814" lon="-0.11579084924597055"><ele>122.0</ele><time>2026-05-01T13:29:43.001Z</time></trkpt><trkpt lat="45.78216992951731" lon="-0.11564407911708496"><ele>122.75</ele><time>2026-05-01T13:29:44.001Z</time></trkpt><trkpt lat="45.7821124486967" lon="-0.1154888783353739"><ele>123.5</ele><time>2026-05-01T13:29:45.001Z</time></trkpt><trkpt lat="45.78204682498454" lon="-0.1153371003941759"><ele>124.25</ele><time>2026-05-01T13:29:46.001Z</time></trkpt><trkpt lat="45.78199382712763" lon="-0.11516385871252106"><ele>125.0</ele><time>2026-05-01T13:29:47.001Z</time></trkpt><trkpt lat="45.781951671928944" lon="-0.11497531636575603"><ele>125.33333333333333</ele><time>2026-05-01T13:29:48.001Z</time></trkpt><trkpt lat="45.781928780874885" lon="-0.11477820273464047"><ele>125.66666666666666</ele><time>2026-05-01T13:29:49.001Z</time></trkpt><trkpt lat="45.78189741989442" lon="-0.11455965220880318"><ele>126.0</ele><time>2026-05-01T13:29:50.001Z</time></trkpt><trkpt lat="45.78186628430823" lon="-0.11433688547586618"><ele>126.25</ele><time>2026-05-01T13:29:51.001Z</time></trkpt><trkpt lat="45.78183002495983" lon="-0.11414445353769945"><ele>126.5</ele><time>2026-05-01T13:29:52.001Z</time></trkpt><trkpt lat="45.781803236183535" lon="-0.11397629134995278"><ele>126.75</ele><time>2026-05-01T13:29:53.001Z</time></trkpt><trkpt lat="45.78178551990921" lon="-0.11380257100890197"><ele>127.0</ele><time>2026-05-01T13:29:54.001Z</time></trkpt><trkpt lat="45.781774601872065" lon="-0.11363343558262075"><ele>127.0</ele><time>2026-05-01T13:29:55.001Z</time></trkpt><trkpt lat="45.781782037712176" lon="-0.11346757729452597"><ele>127.0</ele><time>2026-05-01T13:29:56.001Z</time></trkpt><trkpt lat="45.781803186913" lon="-0.11328370578776303"><ele>127.0</ele><time>2026-05-01T13:29:57.001Z</time></trkpt><trkpt lat="45.7818356705577" lon="-0.11308852400540288"><ele>127.0</ele><time>2026-05-01T13:29:58.001Z</time></trkpt><trkpt lat="45.78185800806464" lon="-0.11287398208416857"><ele>127.25</ele><time>2026-05-01T13:29:59.001Z</time></trkpt><trkpt lat="45.78186651556184" lon="-0.11265092265961668"><ele>127.5</ele><time>2026-05-01T13:30:00.001Z</time></trkpt><trkpt lat="45.78190646924563" lon="-0.11243547501570778"><ele>127.75</ele><time>2026-05-01T13:30:01.001Z</time></trkpt><trkpt lat="45.78193650246951" lon="-0.11224203545002549"><ele>128.0</ele><time>2026-05-01T13:30:02.001Z</time></trkpt><trkpt lat="45.781985911180485" lon="-0.11204480053808774"><ele>128.25</ele><time>2026-05-01T13:30:03.001Z</time></trkpt><trkpt lat="45.78202605913052" lon="-0.11184982930380025"><ele>128.5</ele><time>2026-05-01T13:30:04.001Z</time></trkpt><trkpt lat="45.78205717585835" lon="-0.1116408784082681"><ele>128.75</ele><time>2026-05-01T13:30:05.001Z</time></trkpt><trkpt lat="45.782040393311654" lon="-0.11142087365007625"><ele>129.0</ele><time>2026-05-01T13:30:06.001Z</time></trkpt><trkpt lat="45.78204371712693" lon="-0.11115041902270346"><ele>129.0</ele><time>2026-05-01T13:30:07.001Z</time></trkpt><trkpt lat="45.782026561532916" lon="-0.11090263182309924"><ele>129.0</ele><time>2026-05-01T13:30:08.001Z</time></trkpt><trkpt lat="45.782041579413985" lon="-0.11067911249782507"><ele>129.0</ele><time>2026-05-01T13:30:09.001Z</time></trkpt><trkpt lat="45.782048310450975" lon="-0.11043133886152823"><ele>129.0</ele><time>2026-05-01T13:30:10.001Z</time></trkpt><trkpt lat="45.782060396923555" lon="-0.11021475481314227"><ele>129.0</ele><time>2026-05-01T13:30:11.001Z</time></trkpt><trkpt lat="45.782083880109255" lon="-0.11000909672701095"><ele>129.0</ele><time>2026-05-01T13:30:12.001Z</time></trkpt><trkpt lat="45.782074055712364" lon="-0.10982265535541488"><ele>129.0</ele><time>2026-05-01T13:30:13.001Z</time></trkpt><trkpt lat="45.782087292543615" lon="-0.1096701256820335"><ele>128.5</ele><time>2026-05-01T13:30:14.001Z</time></trkpt><trkpt lat="45.78205932285253" lon="-0.10953717827884295"><ele>128.0</ele><time>2026-05-01T13:30:15.001Z</time></trkpt><trkpt lat="45.78205129019505" lon="-0.10936700816465172"><ele>127.5</ele><time>2026-05-01T13:30:16.001Z</time></trkpt><trkpt lat="45.78200266548975" lon="-0.10919091126628093"><ele>127.0</ele><time>2026-05-01T13:30:17.001Z</time></trkpt><trkpt lat="45.781957916269185" lon="-0.10899822106467691"><ele>126.5</ele><time>2026-05-01T13:30:18.001Z</time></trkpt><trkpt lat="45.781918647828725" lon="-0.1087881584291562"><ele>126.0</ele><time>2026-05-01T13:30:19.001Z</time></trkpt><trkpt lat="45.78189101055995" lon="-0.10858601372993083"><ele>125.5</ele><time>2026-05-01T13:30:20.001Z</time></trkpt><trkpt lat="45.78186215486426" lon="-0.10841220062135921"><ele>125.0</ele><time>2026-05-01T13:30:21.001Z</time></trkpt><trkpt lat="45.7818348276998" lon="-0.10824152940009037"><ele>124.0</ele><time>2026-05-01T13:30:22.001Z</time></trkpt><trkpt lat="45.78181672948797" lon="-0.1080797303778589"><ele>123.0</ele><time>2026-05-01T13:30:23.001Z</time></trkpt><trkpt lat="45.78180449860236" lon="-0.10793358246203458"><ele>122.0</ele><time>2026-05-01T13:30:24.001Z</time></trkpt><trkpt lat="45.78177640904687" lon="-0.10780289761462983"><ele>121.0</ele><time>2026-05-01T13:30:25.001Z</time></trkpt><trkpt lat="45.78176444906841" lon="-0.10769574076275673"><ele>120.0</ele><time>2026-05-01T13:30:26.001Z</time></trkpt><trkpt lat="45.78176289807907" lon="-0.10754754902543569"><ele>120.0</ele><time>2026-05-01T13:30:28.001Z</time></trkpt><trkpt lat="45.781736158470494" lon="-0.10746381809232465"><ele>120.0</ele><time>2026-05-01T13:30:30.001Z</time></trkpt><trkpt lat="45.781744089538826" lon="-0.10735195519212958"><ele>120.0</ele><time>2026-05-01T13:30:31.001Z</time></trkpt><trkpt lat="45.78176611953343" lon="-0.10721347081250626"><ele>120.0</ele><time>2026-05-01T13:30:32.001Z</time></trkpt><trkpt lat="45.7818085290825" lon="-0.10707816136086186"><ele>120.0</ele><time>2026-05-01T13:30:33.001Z</time></trkpt><trkpt lat="45.78184896478634" lon="-0.10692560188238213"><ele>121.66666666666666</ele><time>2026-05-01T13:30:34.001Z</time></trkpt><trkpt lat="45.78190407415985" lon="-0.106720412846183"><ele>123.33333333333333</ele><time>2026-05-01T13:30:35.001Z</time></trkpt><trkpt lat="45.781968537510146" lon="-0.10648489060024512"><ele>125.0</ele><time>2026-05-01T13:30:36.002Z</time></trkpt><trkpt lat="45.78203750280569" lon="-0.1062768089575379"><ele>125.5</ele><time>2026-05-01T13:30:37.002Z</time></trkpt><trkpt lat="45.78209374538854" lon="-0.10611209920739835"><ele>126.0</ele><time>2026-05-01T13:30:38.002Z</time></trkpt><trkpt lat="45.78211995670533" lon="-0.10594666276020728"><ele>126.5</ele><time>2026-05-01T13:30:39.002Z</time></trkpt><trkpt lat="45.78215279484073" lon="-0.10579579188963188"><ele>127.0</ele><time>2026-05-01T13:30:40.002Z</time></trkpt><trkpt lat="45.782174633063704" lon="-0.10563094193373497"><ele>127.5</ele><time>2026-05-01T13:30:41.002Z</time></trkpt><trkpt lat="45.78218587452941" lon="-0.10547380239081341"><ele>128.0</ele><time>2026-05-01T13:30:42.002Z</time></trkpt><trkpt lat="45.78218964012215" lon="-0.10530158204199319"><ele>128.5</ele><time>2026-05-01T13:30:43.002Z</time></trkpt><trkpt lat="45.78218295491309" lon="-0.10512208177707325"><ele>129.0</ele><time>2026-05-01T13:30:44.002Z</time></trkpt><trkpt lat="45.782162992341604" lon="-0.10491817725190172"><ele>130.0</ele><time>2026-05-01T13:30:45.002Z</time></trkpt><trkpt lat="45.782135902551616" lon="-0.10471748066728495"><ele>131.0</ele><time>2026-05-01T13:30:46.002Z</time></trkpt><trkpt lat="45.782107046937824" lon="-0.1045220151267014"><ele>132.0</ele><time>2026-05-01T13:30:47.002Z</time></trkpt><trkpt lat="45.782069017960005" lon="-0.10427955982047651"><ele>132.66666666666666</ele><time>2026-05-01T13:30:48.002Z</time></trkpt><trkpt lat="45.78203133931504" lon="-0.10403778127656814"><ele>133.33333333333331</ele><time>2026-05-01T13:30:49.002Z</time></trkpt><trkpt lat="45.7819964315642" lon="-0.10377741548959095"><ele>134.0</ele><time>2026-05-01T13:30:50.002Z</time></trkpt><trkpt lat="45.78197576440604" lon="-0.10351410674996941"><ele>134.0</ele><time>2026-05-01T13:30:51.002Z</time></trkpt><trkpt lat="45.78195912969911" lon="-0.10325659856225032"><ele>134.0</ele><time>2026-05-01T13:30:52Z</time></trkpt><trkpt lat="45.781938742549194" lon="-0.10302605951914455"><ele>134.0</ele><time>2026-05-01T13:30:53Z</time></trkpt><trkpt lat="45.7819047929141" lon="-0.10281547292993262"><ele>134.5</ele><time>2026-05-01T13:30:54Z</time></trkpt><trkpt lat="45.781891170962695" lon="-0.10263907858381567"><ele>135.0</ele><time>2026-05-01T13:30:55Z</time></trkpt><trkpt lat="45.78186410619136" lon="-0.10247490146784027"><ele>135.5</ele><time>2026-05-01T13:30:56Z</time></trkpt><trkpt lat="45.7818221526972" lon="-0.10232847289305705"><ele>136.0</ele><time>2026-05-01T13:30:57Z</time></trkpt><trkpt lat="45.781796625980945" lon="-0.10215736240474334"><ele>136.0</ele><time>2026-05-01T13:30:58Z</time></trkpt><trkpt lat="45.78173151455683" lon="-0.1019978539851723"><ele>136.0</ele><time>2026-05-01T13:30:59Z</time></trkpt><trkpt lat="45.781693962618256" lon="-0.10181449340991257"><ele>136.0</ele><time>2026-05-01T13:31:00Z</time></trkpt><trkpt lat="45.781633133940815" lon="-0.10162026500027424"><ele>136.0</ele><time>2026-05-01T13:31:01Z</time></trkpt><trkpt lat="45.78154744089753" lon="-0.10143188195817633"><ele>135.75</ele><time>2026-05-01T13:31:02Z</time></trkpt><trkpt lat="45.781470440805556" lon="-0.10123769620196167"><ele>135.5</ele><time>2026-05-01T13:31:03Z</time></trkpt><trkpt lat="45.78139442992876" lon="-0.10104391648232046"><ele>135.25</ele><time>2026-05-01T13:31:04Z</time></trkpt><trkpt lat="45.78132891111307" lon="-0.10087245968023865"><ele>135.0</ele><time>2026-05-01T13:31:05Z</time></trkpt><trkpt lat="45.78126993381073" lon="-0.10070720051077459"><ele>135.0</ele><time>2026-05-01T13:31:06Z</time></trkpt><trkpt lat="45.78121525958973" lon="-0.10055399927262511"><ele>135.0</ele><time>2026-05-01T13:31:07Z</time></trkpt><trkpt lat="45.78115965101242" lon="-0.1004024609137172"><ele>135.0</ele><time>2026-05-01T13:31:08Z</time></trkpt><trkpt lat="45.7811096511253" lon="-0.10023931370718385"><ele>135.0</ele><time>2026-05-01T13:31:09Z</time></trkpt><trkpt lat="45.78105723156569" lon="-0.10010802067507729"><ele>135.0</ele><time>2026-05-01T13:31:10Z</time></trkpt><trkpt lat="45.78102196288295" lon="-0.10000632458506666"><ele>135.0</ele><time>2026-05-01T13:31:11Z</time></trkpt><trkpt lat="45.78099411988084" lon="-0.09991021394862083"><ele>135.0</ele><time>2026-05-01T13:31:12Z</time></trkpt><trkpt lat="45.78096087433813" lon="-0.0997899181121526"><ele>135.0</ele><time>2026-05-01T13:31:13Z</time></trkpt><trkpt lat="45.78090559808562" lon="-0.09964698394072176"><ele>135.0</ele><time>2026-05-01T13:31:14Z</time></trkpt><trkpt lat="45.780854982066245" lon="-0.09946945302479714"><ele>135.0</ele><time>2026-05-01T13:31:15Z</time></trkpt><trkpt lat="45.780811927362635" lon="-0.09927233337232098"><ele>135.0</ele><time>2026-05-01T13:31:16Z</time></trkpt><trkpt lat="45.78075978598916" lon="-0.0990890673198151"><ele>135.0</ele><time>2026-05-01T13:31:17Z</time></trkpt><trkpt lat="45.780731940280894" lon="-0.09895197515062518"><ele>135.0</ele><time>2026-05-01T13:31:18Z</time></trkpt><trkpt lat="45.78068414551346" lon="-0.09876755522170548"><ele>135.0</ele><time>2026-05-01T13:31:19Z</time></trkpt><trkpt lat="45.78064655712175" lon="-0.09860209232190809"><ele>135.0</ele><time>2026-05-01T13:31:20Z</time></trkpt><trkpt lat="45.780619804116526" lon="-0.09844339313117642"><ele>135.0</ele><time>2026-05-01T13:31:21Z</time></trkpt><trkpt lat="45.780594502892725" lon="-0.09828836096815305"><ele>135.0</ele><time>2026-05-01T13:31:22Z</time></trkpt><trkpt lat="45.78057957578643" lon="-0.09811888910132183"><ele>136.0</ele><time>2026-05-01T13:31:23Z</time></trkpt><trkpt lat="45.780567703079456" lon="-0.09795798637100932"><ele>137.0</ele><time>2026-05-01T13:31:24Z</time></trkpt><trkpt lat="45.78054697841208" lon="-0.09780087192814996"><ele>138.0</ele><time>2026-05-01T13:31:25Z</time></trkpt><trkpt lat="45.78054124236829" lon="-0.09763891048564587"><ele>139.0</ele><time>2026-05-01T13:31:26Z</time></trkpt><trkpt lat="45.78053602386732" lon="-0.09747309355837869"><ele>139.4</ele><time>2026-05-01T13:31:27Z</time></trkpt><trkpt lat="45.7805292849321" lon="-0.09730728166391663"><ele>139.8</ele><time>2026-05-01T13:31:28Z</time></trkpt><trkpt lat="45.7805272491858" lon="-0.09714552154151776"><ele>140.2</ele><time>2026-05-01T13:31:29.001Z</time></trkpt><trkpt lat="45.780527954978275" lon="-0.09699078181529153"><ele>140.6</ele><time>2026-05-01T13:31:30.001Z</time></trkpt><trkpt lat="45.78053673110176" lon="-0.09684943858824022"><ele>141.0</ele><time>2026-05-01T13:31:31.001Z</time></trkpt><trkpt lat="45.78054089623639" lon="-0.09674481130154641"><ele>141.0</ele><time>2026-05-01T13:31:32.001Z</time></trkpt><trkpt lat="45.78054447727667" lon="-0.09661114272818157"><ele>141.0</ele><time>2026-05-01T13:31:34.001Z</time></trkpt><trkpt lat="45.78043937470023" lon="-0.096586680713306"><ele>141.0</ele><time>2026-05-01T13:31:36.001Z</time></trkpt><trkpt lat="45.78036295710979" lon="-0.09658029273826553"><ele>141.0</ele><time>2026-05-01T13:31:37.001Z</time></trkpt><trkpt lat="45.78027595905337" lon="-0.09657302033413717"><ele>141.0</ele><time>2026-05-01T13:31:38.001Z</time></trkpt><trkpt lat="45.780177864372256" lon="-0.09656634001140277"><ele>140.8</ele><time>2026-05-01T13:31:39.001Z</time></trkpt><trkpt lat="45.78007117983921" lon="-0.09656400642526781"><ele>140.6</ele><time>2026-05-01T13:31:40.001Z</time></trkpt><trkpt lat="45.77997960373779" lon="-0.09656270065321873"><ele>140.4</ele><time>2026-05-01T13:31:41.001Z</time></trkpt><trkpt lat="45.77986758347955" lon="-0.09654045004672991"><ele>140.2</ele><time>2026-05-01T13:31:42.001Z</time></trkpt><trkpt lat="45.77976794992625" lon="-0.09654984458005995"><ele>140.0</ele><time>2026-05-01T13:31:43.001Z</time></trkpt><trkpt lat="45.77967885217921" lon="-0.09655978161338065"><ele>140.0</ele><time>2026-05-01T13:31:44.001Z</time></trkpt><trkpt lat="45.77959945275539" lon="-0.0965719438606969"><ele>140.0</ele><time>2026-05-01T13:31:45.001Z</time></trkpt><trkpt lat="45.779524321410264" lon="-0.09658336872915867"><ele>140.0</ele><time>2026-05-01T13:31:46.001Z</time></trkpt><trkpt lat="45.77945340294148" lon="-0.09659121665519786"><ele>140.0</ele><time>2026-05-01T13:31:47.001Z</time></trkpt><trkpt lat="45.779387186703204" lon="-0.0966023551968849"><ele>140.0</ele><time>2026-05-01T13:31:48.001Z</time></trkpt><trkpt lat="45.77931492646091" lon="-0.09661247076498149"><ele>140.0</ele><time>2026-05-01T13:31:49.001Z</time></trkpt><trkpt lat="45.779242313739346" lon="-0.0966143623912576"><ele>140.0</ele><time>2026-05-01T13:31:50.001Z</time></trkpt><trkpt lat="45.7791649860306" lon="-0.09662621359392398"><ele>139.4</ele><time>2026-05-01T13:31:51.001Z</time></trkpt><trkpt lat="45.7790947445939" lon="-0.09662503624171219"><ele>138.8</ele><time>2026-05-01T13:31:52.001Z</time></trkpt><trkpt lat="45.77902473165719" lon="-0.09660108032324205"><ele>138.2</ele><time>2026-05-01T13:31:53.001Z</time></trkpt><trkpt lat="45.77891389301955" lon="-0.09661945242171616"><ele>137.6</ele><time>2026-05-01T13:31:55.001Z</time></trkpt><trkpt lat="45.77877515236116" lon="-0.09661383285206677"><ele>137.0</ele><time>2026-05-01T13:31:57.001Z</time></trkpt><trkpt lat="45.778699321996825" lon="-0.09662231900225593"><ele>137.00000000000003</ele><time>2026-05-01T13:31:58.001Z</time></trkpt><trkpt lat="45.77862963694368" lon="-0.09660749578762653"><ele>137.0</ele><time>2026-05-01T13:31:59.001Z</time></trkpt><trkpt lat="45.77856111648974" lon="-0.09660207015148789"><ele>137.0</ele><time>2026-05-01T13:32:00.001Z</time></trkpt><trkpt lat="45.778490028022276" lon="-0.09660264909380638"><ele>137.0</ele><time>2026-05-01T13:32:01.001Z</time></trkpt><trkpt lat="45.77841995467151" lon="-0.09660992820668744"><ele>137.0</ele><time>2026-05-01T13:32:02.001Z</time></trkpt><trkpt lat="45.778343615815345" lon="-0.09662300997577959"><ele>137.00000000000003</ele><time>2026-05-01T13:32:03.001Z</time></trkpt><trkpt lat="45.77826495625448" lon="-0.09663325638339931"><ele>137.0</ele><time>2026-05-01T13:32:04.001Z</time></trkpt><trkpt lat="45.77817572740551" lon="-0.09663801566157125"><ele>137.0</ele><time>2026-05-01T13:32:05.001Z</time></trkpt><trkpt lat="45.77809584687164" lon="-0.09664620319255798"><ele>137.0</ele><time>2026-05-01T13:32:06.001Z</time></trkpt><trkpt lat="45.77801743615719" lon="-0.09665692895876793"><ele>137.0</ele><time>2026-05-01T13:32:07.001Z</time></trkpt><trkpt lat="45.77794951620273" lon="-0.0966972642869523"><ele>137.0</ele><time>2026-05-01T13:32:08.001Z</time></trkpt><trkpt lat="45.777884092595784" lon="-0.09669153045525361"><ele>137.0</ele><time>2026-05-01T13:32:09.001Z</time></trkpt><trkpt lat="45.77780573466803" lon="-0.09670198756346157"><ele>137.0</ele><time>2026-05-01T13:32:11.001Z</time></trkpt><trkpt lat="45.77775692589572" lon="-0.09654466618715322"><ele>137.0</ele><time>2026-05-01T13:32:14.001Z</time></trkpt><trkpt lat="45.77778201274088" lon="-0.09636678141699699"><ele>137.0</ele><time>2026-05-01T13:32:16.001Z</time></trkpt><trkpt lat="45.77777552660986" lon="-0.09625340407881519"><ele>137.0</ele><time>2026-05-01T13:32:17.001Z</time></trkpt><trkpt lat="45.777788922510695" lon="-0.09609442930408499"><ele>137.0</ele><time>2026-05-01T13:32:19.001Z</time></trkpt><trkpt lat="45.77779311223364" lon="-0.0959506760769113"><ele>137.0</ele><time>2026-05-01T13:32:21.001Z</time></trkpt><trkpt lat="45.77776911169373" lon="-0.09585323905355514"><ele>136.6</ele><time>2026-05-01T13:32:23.001Z</time></trkpt><trkpt lat="45.77765006973535" lon="-0.09584907093172997"><ele>136.2</ele><time>2026-05-01T13:32:25.001Z</time></trkpt><trkpt lat="45.777557032471336" lon="-0.09583095510451432"><ele>135.8</ele><time>2026-05-01T13:32:26.001Z</time></trkpt><trkpt lat="45.77746716053338" lon="-0.0957767076197417"><ele>135.4</ele><time>2026-05-01T13:32:27.001Z</time></trkpt><trkpt lat="45.77735849409629" lon="-0.09574217645620753"><ele>135.0</ele><time>2026-05-01T13:32:28.001Z</time></trkpt><trkpt lat="45.77725064435776" lon="-0.09571933622107213"><ele>135.0</ele><time>2026-05-01T13:32:29.001Z</time></trkpt><trkpt lat="45.77714763893888" lon="-0.09568600786486912"><ele>135.0</ele><time>2026-05-01T13:32:30.001Z</time></trkpt><trkpt lat="45.77703357169608" lon="-0.09563048618038435"><ele>135.0</ele><time>2026-05-01T13:32:31.001Z</time></trkpt><trkpt lat="45.77692992955758" lon="-0.09556960950177001"><ele>135.0</ele><time>2026-05-01T13:32:32.001Z</time></trkpt><trkpt lat="45.776808840849995" lon="-0.09550527019269094"><ele>134.75</ele><time>2026-05-01T13:32:33.001Z</time></trkpt><trkpt lat="45.776706308475724" lon="-0.09540717287471104"><ele>134.5</ele><time>2026-05-01T13:32:34.001Z</time></trkpt><trkpt lat="45.77659287405538" lon="-0.09532931718288558"><ele>134.25</ele><time>2026-05-01T13:32:35.002Z</time></trkpt><trkpt lat="45.77648998039416" lon="-0.09526087260415603"><ele>134.0</ele><time>2026-05-01T13:32:36.002Z</time></trkpt><trkpt lat="45.776387793651104" lon="-0.09520754814923822"><ele>134.0</ele><time>2026-05-01T13:32:37.002Z</time></trkpt><trkpt lat="45.77629370122349" lon="-0.0951451048279355"><ele>134.0</ele><time>2026-05-01T13:32:38.002Z</time></trkpt><trkpt lat="45.77619719631694" lon="-0.09508985718739921"><ele>134.0</ele><time>2026-05-01T13:32:39.002Z</time></trkpt><trkpt lat="45.77609088514174" lon="-0.09505308795995641"><ele>134.0</ele><time>2026-05-01T13:32:40.002Z</time></trkpt><trkpt lat="45.775992354988624" lon="-0.09498979631603363"><ele>134.0</ele><time>2026-05-01T13:32:41.002Z</time></trkpt><trkpt lat="45.77589563811321" lon="-0.09493392268261328"><ele>133.6</ele><time>2026-05-01T13:32:42.002Z</time></trkpt><trkpt lat="45.77580015357405" lon="-0.09487980173760485"><ele>133.2</ele><time>2026-05-01T13:32:43.002Z</time></trkpt><trkpt lat="45.77570718132043" lon="-0.09482892377150438"><ele>132.79999999999998</ele><time>2026-05-01T13:32:44.002Z</time></trkpt><trkpt lat="45.775620764992524" lon="-0.09477580767541316"><ele>132.4</ele><time>2026-05-01T13:32:45.002Z</time></trkpt><trkpt lat="45.7755368530225" lon="-0.0947266674760798"><ele>132.0</ele><time>2026-05-01T13:32:46.002Z</time></trkpt><trkpt lat="45.77545882173516" lon="-0.09468284780501633"><ele>132.0</ele><time>2026-05-01T13:32:47.002Z</time></trkpt><trkpt lat="45.77538672626901" lon="-0.09464675272574362"><ele>132.0</ele><time>2026-05-01T13:32:48.002Z</time></trkpt><trkpt lat="45.77531311823529" lon="-0.09459584995757607"><ele>132.0</ele><time>2026-05-01T13:32:50.002Z</time></trkpt><trkpt lat="45.7753999271226" lon="-0.09440971208792252"><ele>132.0</ele><time>2026-05-01T13:32:53.002Z</time></trkpt><trkpt lat="45.77546144206479" lon="-0.09433716036255275"><ele>132.0</ele><time>2026-05-01T13:32:54.002Z</time></trkpt><trkpt lat="45.77554951513705" lon="-0.09424355948326925"><ele>131.33333333333334</ele><time>2026-05-01T13:32:55.002Z</time></trkpt><trkpt lat="45.775642634347136" lon="-0.09408654690270837"><ele>130.66666666666669</ele><time>2026-05-01T13:32:56.002Z</time></trkpt><trkpt lat="45.77578320864208" lon="-0.09391160093448711"><ele>130.0</ele><time>2026-05-01T13:32:57.002Z</time></trkpt><trkpt lat="45.77587687996063" lon="-0.09372574915767201"><ele>130.0</ele><time>2026-05-01T13:32:58Z</time></trkpt><trkpt lat="45.77594641368899" lon="-0.09357283844582605"><ele>130.0</ele><time>2026-05-01T13:32:59Z</time></trkpt><trkpt lat="45.77600166442033" lon="-0.09344878723879196"><ele>130.0</ele><time>2026-05-01T13:33:00Z</time></trkpt><trkpt lat="45.77603331642842" lon="-0.09332507904315139"><ele>130.0</ele><time>2026-05-01T13:33:02Z</time></trkpt><trkpt lat="45.77609494955256" lon="-0.09321724782154402"><ele>130.0</ele><time>2026-05-01T13:33:04Z</time></trkpt><trkpt lat="45.77613754332801" lon="-0.09309484582312616"><ele>128.5</ele><time>2026-05-01T13:33:06Z</time></trkpt><trkpt lat="45.77616046252006" lon="-0.09298483833902783"><ele>127.0</ele><time>2026-05-01T13:33:07Z</time></trkpt><trkpt lat="45.77618580480059" lon="-0.09282774550381687"><ele>125.5</ele><time>2026-05-01T13:33:08Z</time></trkpt><trkpt lat="45.77621567638335" lon="-0.09264906340848018"><ele>124.0</ele><time>2026-05-01T13:33:09Z</time></trkpt><trkpt lat="45.77625289330997" lon="-0.0924356991844209"><ele>124.0</ele><time>2026-05-01T13:33:10Z</time></trkpt><trkpt lat="45.776277620342526" lon="-0.09222369075208844"><ele>124.0</ele><time>2026-05-01T13:33:11Z</time></trkpt><trkpt lat="45.77629359825681" lon="-0.0920377823321264"><ele>124.0</ele><time>2026-05-01T13:33:12Z</time></trkpt><trkpt lat="45.77630051701225" lon="-0.09184559752794559"><ele>124.0</ele><time>2026-05-01T13:33:13Z</time></trkpt><trkpt lat="45.77630097552778" lon="-0.09161950019981861"><ele>123.0</ele><time>2026-05-01T13:33:14Z</time></trkpt><trkpt lat="45.776289002495545" lon="-0.09136009635994297"><ele>122.0</ele><time>2026-05-01T13:33:15Z</time></trkpt><trkpt lat="45.77627306630408" lon="-0.09108376483137388"><ele>121.0</ele><time>2026-05-01T13:33:16Z</time></trkpt><trkpt lat="45.77625705627316" lon="-0.09076819743549344"><ele>120.5</ele><time>2026-05-01T13:33:17Z</time></trkpt><trkpt lat="45.7762438044368" lon="-0.0904520214604862"><ele>120.0</ele><time>2026-05-01T13:33:18Z</time></trkpt><trkpt lat="45.776236605490475" lon="-0.090111724662026"><ele>119.33333333333334</ele><time>2026-05-01T13:33:19Z</time></trkpt><trkpt lat="45.77622648697762" lon="-0.08978800659356054"><ele>118.66666666666667</ele><time>2026-05-01T13:33:20Z</time></trkpt><trkpt lat="45.77621427718731" lon="-0.0894932338807946"><ele>118.0</ele><time>2026-05-01T13:33:21Z</time></trkpt><trkpt lat="45.77620101173288" lon="-0.08919408317745502"><ele>118.5</ele><time>2026-05-01T13:33:22Z</time></trkpt><trkpt lat="45.776192275000426" lon="-0.08886861737689451"><ele>119.0</ele><time>2026-05-01T13:33:23Z</time></trkpt><trkpt lat="45.77617137364383" lon="-0.08828900178727583"><ele>119.0</ele><time>2026-05-01T13:33:25Z</time></trkpt><trkpt lat="45.77615955475283" lon="-0.08802046342960616"><ele>119.0</ele><time>2026-05-01T13:33:26Z</time></trkpt><trkpt lat="45.77614922039759" lon="-0.08774807867998174"><ele>119.0</ele><time>2026-05-01T13:33:27Z</time></trkpt><trkpt lat="45.77613684351744" lon="-0.08747154771991587"><ele>118.33333333333333</ele><time>2026-05-01T13:33:28Z</time></trkpt><trkpt lat="45.77612619076232" lon="-0.08721114123079772"><ele>117.66666666666666</ele><time>2026-05-01T13:33:29Z</time></trkpt><trkpt lat="45.776116753052584" lon="-0.0869760822922006"><ele>117.0</ele><time>2026-05-01T13:33:30.001Z</time></trkpt><trkpt lat="45.77610652868812" lon="-0.08674901064209564"><ele>117.33333333333334</ele><time>2026-05-01T13:33:31.001Z</time></trkpt><trkpt lat="45.77609992386447" lon="-0.08650605991153723"><ele>117.66666666666667</ele><time>2026-05-01T13:33:32.001Z</time></trkpt><trkpt lat="45.7760936806723" lon="-0.08625725183051997"><ele>118.0</ele><time>2026-05-01T13:33:33.001Z</time></trkpt><trkpt lat="45.77608959595893" lon="-0.08602434799462909"><ele>118.0</ele><time>2026-05-01T13:33:34.001Z</time></trkpt><trkpt lat="45.776080468761315" lon="-0.08579858308322522"><ele>118.0</ele><time>2026-05-01T13:33:35.001Z</time></trkpt><trkpt lat="45.77607282991777" lon="-0.08558827617770265"><ele>118.0</ele><time>2026-05-01T13:33:36.001Z</time></trkpt><trkpt lat="45.77606606310197" lon="-0.0853888977316179"><ele>118.0</ele><time>2026-05-01T13:33:37.001Z</time></trkpt><trkpt lat="45.77606022565194" lon="-0.08520159699079376"><ele>117.80000000000001</ele><time>2026-05-01T13:33:38.001Z</time></trkpt><trkpt lat="45.77605445941193" lon="-0.08502913707453955"><ele>117.60000000000001</ele><time>2026-05-01T13:33:39.001Z</time></trkpt><trkpt lat="45.77604542125605" lon="-0.08486926259334025"><ele>117.39999999999999</ele><time>2026-05-01T13:33:40.001Z</time></trkpt><trkpt lat="45.77603877159902" lon="-0.08471849033996684"><ele>117.19999999999999</ele><time>2026-05-01T13:33:41.001Z</time></trkpt><trkpt lat="45.776032686476924" lon="-0.08458441924438499"><ele>117.0</ele><time>2026-05-01T13:33:42.001Z</time></trkpt><trkpt lat="45.77602764427122" lon="-0.08447705607118124"><ele>117.0</ele><time>2026-05-01T13:33:43.001Z</time></trkpt><trkpt lat="45.776016294156726" lon="-0.08433586760228143"><ele>116.99999999999999</ele><time>2026-05-01T13:33:45.001Z</time></trkpt><trkpt lat="45.775906512405335" lon="-0.0842684434893247"><ele>116.99999999999999</ele><time>2026-05-01T13:33:48.001Z</time></trkpt><trkpt lat="45.77582333820979" lon="-0.08430820872017641"><ele>117.0</ele><time>2026-05-01T13:33:49.001Z</time></trkpt><trkpt lat="45.77571880875259" lon="-0.0842939601099117"><ele>117.0</ele><time>2026-05-01T13:33:50.001Z</time></trkpt><trkpt lat="45.77558088006565" lon="-0.08426094881085258"><ele>117.0</ele><time>2026-05-01T13:33:51.001Z</time></trkpt><trkpt lat="45.77541148024768" lon="-0.08423566696905452"><ele>117.0</ele><time>2026-05-01T13:33:52.001Z</time></trkpt><trkpt lat="45.77521913254034" lon="-0.08423494200050552"><ele>117.0</ele><time>2026-05-01T13:33:53.001Z</time></trkpt><trkpt lat="45.77500918031526" lon="-0.08418799775561023"><ele>118.0</ele><time>2026-05-01T13:33:54.001Z</time></trkpt><trkpt lat="45.77479991835877" lon="-0.08416903197737284"><ele>119.0</ele><time>2026-05-01T13:33:55.001Z</time></trkpt><trkpt lat="45.774625682691315" lon="-0.08415206838252602"><ele>120.0</ele><time>2026-05-01T13:33:56.001Z</time></trkpt><trkpt lat="45.77447160566147" lon="-0.08416113397154526"><ele>120.33333333333334</ele><time>2026-05-01T13:33:57.001Z</time></trkpt><trkpt lat="45.77432614682978" lon="-0.0841329857234082"><ele>120.66666666666667</ele><time>2026-05-01T13:33:58.001Z</time></trkpt><trkpt lat="45.77416707523729" lon="-0.08413627694203864"><ele>121.0</ele><time>2026-05-01T13:33:59.001Z</time></trkpt><trkpt lat="45.77400885489262" lon="-0.08414240856510231"><ele>121.0</ele><time>2026-05-01T13:34:00.001Z</time></trkpt><trkpt lat="45.773846968353304" lon="-0.0841727932550428"><ele>121.0</ele><time>2026-05-01T13:34:01.001Z</time></trkpt><trkpt lat="45.77367667851578" lon="-0.08414857327888711"><ele>121.0</ele><time>2026-05-01T13:34:02.001Z</time></trkpt><trkpt lat="45.77352185512208" lon="-0.0841649064814188"><ele>120.66666666666667</ele><time>2026-05-01T13:34:03.001Z</time></trkpt><trkpt lat="45.77336827488232" lon="-0.08415129701922441"><ele>120.33333333333334</ele><time>2026-05-01T13:34:04.001Z</time></trkpt><trkpt lat="45.7732076750496" lon="-0.08413062417518474"><ele>120.0</ele><time>2026-05-01T13:34:05.001Z</time></trkpt><trkpt lat="45.773058548278996" lon="-0.08410939239046263"><ele>120.0</ele><time>2026-05-01T13:34:06.001Z</time></trkpt><trkpt lat="45.772918153725826" lon="-0.08408816497919572"><ele>120.0</ele><time>2026-05-01T13:34:07.001Z</time></trkpt><trkpt lat="45.772774121807416" lon="-0.08407769599984719"><ele>120.0</ele><time>2026-05-01T13:34:08.001Z</time></trkpt><trkpt lat="45.77262881702735" lon="-0.08404958096425771"><ele>120.0</ele><time>2026-05-01T13:34:09.001Z</time></trkpt><trkpt lat="45.77250056187247" lon="-0.08407090163443137"><ele>120.4</ele><time>2026-05-01T13:34:10.001Z</time></trkpt><trkpt lat="45.772379152381134" lon="-0.08407149565952733"><ele>120.8</ele><time>2026-05-01T13:34:11.001Z</time></trkpt><trkpt lat="45.7722754843693" lon="-0.08407669074250013"><ele>121.19999999999999</ele><time>2026-05-01T13:34:12.001Z</time></trkpt><trkpt lat="45.77218723201166" lon="-0.08408345907483608"><ele>121.6</ele><time>2026-05-01T13:34:13.001Z</time></trkpt><trkpt lat="45.7721064836871" lon="-0.08408965190207962"><ele>122.0</ele><time>2026-05-01T13:34:14.001Z</time></trkpt><trkpt lat="45.77201905344786" lon="-0.08409635718419067"><ele>122.0</ele><time>2026-05-01T13:34:16.001Z</time></trkpt><trkpt lat="45.7719555941385" lon="-0.08408597491587433"><ele>122.0</ele><time>2026-05-01T13:34:20.001Z</time></trkpt><trkpt lat="45.77195576803063" lon="-0.08380698440201063"><ele>122.0</ele><time>2026-05-01T13:34:21.001Z</time></trkpt><trkpt lat="45.771969709624685" lon="-0.08362092964289654"><ele>122.0</ele><time>2026-05-01T13:34:22.001Z</time></trkpt><trkpt lat="45.77197290135917" lon="-0.08338180228323264"><ele>122.0</ele><time>2026-05-01T13:34:23.001Z</time></trkpt><trkpt lat="45.771970172057124" lon="-0.08311556539214253"><ele>122.0</ele><time>2026-05-01T13:34:24.001Z</time></trkpt><trkpt lat="45.771964000280256" lon="-0.08284792100127165"><ele>122.0</ele><time>2026-05-01T13:34:25.001Z</time></trkpt><trkpt lat="45.77195864612705" lon="-0.08258056321788482"><ele>122.33333333333333</ele><time>2026-05-01T13:34:26.001Z</time></trkpt><trkpt lat="45.771954424220844" lon="-0.08232478752747287"><ele>122.66666666666666</ele><time>2026-05-01T13:34:27.001Z</time></trkpt><trkpt lat="45.77195157737683" lon="-0.08208469909666302"><ele>123.0</ele><time>2026-05-01T13:34:28.001Z</time></trkpt><trkpt lat="45.771948941007864" lon="-0.08186987985286788"><ele>123.0</ele><time>2026-05-01T13:34:29.001Z</time></trkpt><trkpt lat="45.77194634200187" lon="-0.08165230055927382"><ele>123.0</ele><time>2026-05-01T13:34:30.001Z</time></trkpt><trkpt lat="45.77194402231497" lon="-0.08144833149252219"><ele>123.0</ele><time>2026-05-01T13:34:31.001Z</time></trkpt><trkpt lat="45.77194608155551" lon="-0.08125218513472228"><ele>123.0</ele><time>2026-05-01T13:34:32.001Z</time></trkpt><trkpt lat="45.77194808894027" lon="-0.08105887267783182"><ele>123.25</ele><time>2026-05-01T13:34:33.001Z</time></trkpt><trkpt lat="45.771948053269604" lon="-0.08086659884842622"><ele>123.5</ele><time>2026-05-01T13:34:34.001Z</time></trkpt><trkpt lat="45.77194655607173" lon="-0.08067606529502713"><ele>123.75</ele><time>2026-05-01T13:34:35.001Z</time></trkpt><trkpt lat="45.771945417583936" lon="-0.08048902978629986"><ele>124.0</ele><time>2026-05-01T13:34:36.001Z</time></trkpt><trkpt lat="45.77194451425248" lon="-0.08029703430065692"><ele>124.0</ele><time>2026-05-01T13:34:37.001Z</time></trkpt><trkpt lat="45.77194508275122" lon="-0.08010723318678221"><ele>124.0</ele><time>2026-05-01T13:34:38.001Z</time></trkpt><trkpt lat="45.77194513007179" lon="-0.07992885516868158"><ele>124.0</ele><time>2026-05-01T13:34:39.001Z</time></trkpt><trkpt lat="45.771945865538164" lon="-0.0797572316079729"><ele>124.0</ele><time>2026-05-01T13:34:40.002Z</time></trkpt><trkpt lat="45.77194317023899" lon="-0.0795874699067609"><ele>123.4</ele><time>2026-05-01T13:34:41.002Z</time></trkpt><trkpt lat="45.77194329856614" lon="-0.0794236481385953"><ele>122.80000000000001</ele><time>2026-05-01T13:34:42.002Z</time></trkpt><trkpt lat="45.771935263748375" lon="-0.07928186399894295"><ele>122.19999999999999</ele><time>2026-05-01T13:34:43.002Z</time></trkpt><trkpt lat="45.77193819128935" lon="-0.07916311570085324"><ele>121.6</ele><time>2026-05-01T13:34:44.002Z</time></trkpt><trkpt lat="45.77192703737221" lon="-0.07907284239398181"><ele>121.0</ele><time>2026-05-01T13:34:45.002Z</time></trkpt><trkpt lat="45.771756637871995" lon="-0.07904581397306115"><ele>121.5</ele><time>2026-05-01T13:34:48.002Z</time></trkpt><trkpt lat="45.771696913784695" lon="-0.07914176406922975"><ele>122.0</ele><time>2026-05-01T13:34:49.002Z</time></trkpt><trkpt lat="45.771600392233665" lon="-0.0792507999960311"><ele>122.5</ele><time>2026-05-01T13:34:50.002Z</time></trkpt><trkpt lat="45.77148101930047" lon="-0.0793640112850316"><ele>123.0</ele><time>2026-05-01T13:34:51.002Z</time></trkpt><trkpt lat="45.77134584791878" lon="-0.07947616725787736"><ele>123.0</ele><time>2026-05-01T13:34:52.002Z</time></trkpt><trkpt lat="45.771184810527004" lon="-0.07958230976327083"><ele>123.0</ele><time>2026-05-01T13:34:53.002Z</time></trkpt><trkpt lat="45.771026498430345" lon="-0.07967781510810563"><ele>123.0</ele><time>2026-05-01T13:34:54.002Z</time></trkpt><trkpt lat="45.77086363482466" lon="-0.07977903300620806"><ele>123.66666666666666</ele><time>2026-05-01T13:34:55.002Z</time></trkpt><trkpt lat="45.770703294780766" lon="-0.07988774274786387"><ele>124.33333333333333</ele><time>2026-05-01T13:34:56.002Z</time></trkpt><trkpt lat="45.77056266018254" lon="-0.07998526845833487"><ele>125.0</ele><time>2026-05-01T13:34:57.002Z</time></trkpt><trkpt lat="45.77043683140775" lon="-0.08006861939513366"><ele>125.5</ele><time>2026-05-01T13:34:58.002Z</time></trkpt><trkpt lat="45.770317924480416" lon="-0.08012951322627081"><ele>126.0</ele><time>2026-05-01T13:34:59.002Z</time></trkpt><trkpt lat="45.770205415513395" lon="-0.08017269243886548"><ele>126.5</ele><time>2026-05-01T13:35:00.002Z</time></trkpt><trkpt lat="45.77010220943015" lon="-0.0801954227330829"><ele>127.0</ele><time>2026-05-01T13:35:01.002Z</time></trkpt><trkpt lat="45.77001731311523" lon="-0.08028785864666435"><ele>127.39999999999999</ele><time>2026-05-01T13:35:02.002Z</time></trkpt><trkpt lat="45.769921163918255" lon="-0.08033392806735179"><ele>127.79999999999998</ele><time>2026-05-01T13:35:03.002Z</time></trkpt><trkpt lat="45.76980721188637" lon="-0.0803447223622687"><ele>128.2</ele><time>2026-05-01T13:35:04.001Z</time></trkpt><trkpt lat="45.7696980778459" lon="-0.08038115975597279"><ele>128.6</ele><time>2026-05-01T13:35:05.001Z</time></trkpt><trkpt lat="45.76961381443274" lon="-0.08046425783755605"><ele>129.0</ele><time>2026-05-01T13:35:06.001Z</time></trkpt><trkpt lat="45.76954745855372" lon="-0.08057047315124195"><ele>129.0</ele><time>2026-05-01T13:35:07.001Z</time></trkpt><trkpt lat="45.76950126847373" lon="-0.08069572044214281"><ele>129.0</ele><time>2026-05-01T13:35:08Z</time></trkpt><trkpt lat="45.76947274131913" lon="-0.08078643572156019"><ele>129.0</ele><time>2026-05-01T13:35:09Z</time></trkpt><trkpt lat="45.769320337714056" lon="-0.08080134779055113"><ele>129.0</ele><time>2026-05-01T13:35:10Z</time></trkpt><trkpt lat="45.769200246437734" lon="-0.08085180429756794"><ele>129.0</ele><time>2026-05-01T13:35:11Z</time></trkpt><trkpt lat="45.76906159061758" lon="-0.08095210315322873"><ele>130.33333333333334</ele><time>2026-05-01T13:35:12Z</time></trkpt><trkpt lat="45.76891729477832" lon="-0.08105807811813312"><ele>131.66666666666669</ele><time>2026-05-01T13:35:13Z</time></trkpt><trkpt lat="45.76877149330753" lon="-0.08113895519779275"><ele>133.0</ele><time>2026-05-01T13:35:14Z</time></trkpt><trkpt lat="45.76863613443877" lon="-0.0812335831813078"><ele>133.0</ele><time>2026-05-01T13:35:15Z</time></trkpt><trkpt lat="45.768513712769085" lon="-0.08130945478223073"><ele>133.0</ele><time>2026-05-01T13:35:16Z</time></trkpt><trkpt lat="45.76839554648724" lon="-0.08137694672218339"><ele>133.0</ele><time>2026-05-01T13:35:17Z</time></trkpt><trkpt lat="45.76828074648276" lon="-0.08143739667131064"><ele>133.0</ele><time>2026-05-01T13:35:18Z</time></trkpt><trkpt lat="45.76815874039449" lon="-0.08150084753349299"><ele>133.0</ele><time>2026-05-01T13:35:19Z</time></trkpt><trkpt lat="45.76804713397937" lon="-0.08158634285009718"><ele>133.0</ele><time>2026-05-01T13:35:20Z</time></trkpt><trkpt lat="45.76793250324591" lon="-0.08164933492933799"><ele>133.0</ele><time>2026-05-01T13:35:21Z</time></trkpt><trkpt lat="45.7678125371819" lon="-0.0816911851482439"><ele>133.0</ele><time>2026-05-01T13:35:22Z</time></trkpt><trkpt lat="45.76770022109667" lon="-0.08175578139692044"><ele>134.20000000000002</ele><time>2026-05-01T13:35:23Z</time></trkpt><trkpt lat="45.767590038955014" lon="-0.08182051033164173"><ele>135.4</ele><time>2026-05-01T13:35:24Z</time></trkpt><trkpt lat="45.767502808458474" lon="-0.08190196664994297"><ele>136.60000000000002</ele><time>2026-05-01T13:35:25Z</time></trkpt><trkpt lat="45.76741788216654" lon="-0.08195995862584625"><ele>137.8</ele><time>2026-05-01T13:35:26Z</time></trkpt><trkpt lat="45.76734064709622" lon="-0.08199556933448927"><ele>139.0</ele><time>2026-05-01T13:35:27Z</time></trkpt><trkpt lat="45.76726670717307" lon="-0.08206159465026798"><ele>139.0</ele><time>2026-05-01T13:35:29Z</time></trkpt><trkpt lat="45.76720980375726" lon="-0.08195880608204238"><ele>139.0</ele><time>2026-05-01T13:35:31.001Z</time></trkpt><trkpt lat="45.7671798935454" lon="-0.0818663276427762"><ele>139.0</ele><time>2026-05-01T13:35:32.001Z</time></trkpt><trkpt lat="45.76702187471867" lon="-0.08185178851484509"><ele>139.0</ele><time>2026-05-01T13:35:35.001Z</time></trkpt><trkpt lat="45.766943689065904" lon="-0.08189428078334668"><ele>139.0</ele><time>2026-05-01T13:35:36.001Z</time></trkpt><trkpt lat="45.766851272932946" lon="-0.08190836578174533"><ele>139.6</ele><time>2026-05-01T13:35:37.001Z</time></trkpt><trkpt lat="45.766759677175145" lon="-0.08195170698535874"><ele>140.2</ele><time>2026-05-01T13:35:38.001Z</time></trkpt><trkpt lat="45.76668126327277" lon="-0.08198750724341905"><ele>140.79999999999998</ele><time>2026-05-01T13:35:39.001Z</time></trkpt><trkpt lat="45.766611844700385" lon="-0.08200315109863418"><ele>141.4</ele><time>2026-05-01T13:35:40.001Z</time></trkpt><trkpt lat="45.766533807120986" lon="-0.08186794385211606"><ele>142.0</ele><time>2026-05-01T13:35:41.001Z</time></trkpt><trkpt lat="45.766452490465696" lon="-0.0817572859297626"><ele>142.0</ele><time>2026-05-01T13:35:42.001Z</time></trkpt><trkpt lat="45.76636718796142" lon="-0.08161490524069494"><ele>142.0</ele><time>2026-05-01T13:35:43.001Z</time></trkpt><trkpt lat="45.76626881784806" lon="-0.08145315896582718"><ele>142.0</ele><time>2026-05-01T13:35:44.001Z</time></trkpt><trkpt lat="45.766137286766934" lon="-0.08134117340275783"><ele>142.0</ele><time>2026-05-01T13:35:45.001Z</time></trkpt><trkpt lat="45.765985733095846" lon="-0.08123136008843966"><ele>141.33333333333334</ele><time>2026-05-01T13:35:46.001Z</time></trkpt><trkpt lat="45.765820124798175" lon="-0.081119356869534"><ele>140.66666666666666</ele><time>2026-05-01T13:35:47.001Z</time></trkpt><trkpt lat="45.76565449680605" lon="-0.08097869785998335"><ele>140.0</ele><time>2026-05-01T13:35:48.001Z</time></trkpt><trkpt lat="45.76547684642643" lon="-0.08085353277574521"><ele>140.0</ele><time>2026-05-01T13:35:49.001Z</time></trkpt><trkpt lat="45.76529621040047" lon="-0.0807311327631688"><ele>140.0</ele><time>2026-05-01T13:35:50.001Z</time></trkpt><trkpt lat="45.76513677987684" lon="-0.08064087368114699"><ele>140.0</ele><time>2026-05-01T13:35:51.001Z</time></trkpt><trkpt lat="45.76497016682356" lon="-0.08056314241627201"><ele>140.0</ele><time>2026-05-01T13:35:52.001Z</time></trkpt><trkpt lat="45.764811295195024" lon="-0.08049484862586916"><ele>140.0</ele><time>2026-05-01T13:35:53.001Z</time></trkpt><trkpt lat="45.76464256691368" lon="-0.08041251759597992"><ele>140.0</ele><time>2026-05-01T13:35:54.001Z</time></trkpt><trkpt lat="45.76445821895798" lon="-0.08035268994847154"><ele>141.33333333333331</ele><time>2026-05-01T13:35:55.001Z</time></trkpt><trkpt lat="45.76428536316805" lon="-0.080254542804299"><ele>142.66666666666666</ele><time>2026-05-01T13:35:56.001Z</time></trkpt><trkpt lat="45.764129888824876" lon="-0.08017703510576489"><ele>144.0</ele><time>2026-05-01T13:35:57.001Z</time></trkpt><trkpt lat="45.76399776679723" lon="-0.08011793301083457"><ele>144.0</ele><time>2026-05-01T13:35:58.001Z</time></trkpt><trkpt lat="45.76388405176708" lon="-0.08007767967525792"><ele>144.0</ele><time>2026-05-01T13:35:59.001Z</time></trkpt><trkpt lat="45.76381669512034" lon="-0.08004887278359903"><ele>144.0</ele><time>2026-05-01T13:36:00.001Z</time></trkpt><trkpt lat="45.76365718061467" lon="-0.0801161506306126"><ele>144.0</ele><time>2026-05-01T13:36:03.001Z</time></trkpt><trkpt lat="45.763592095115484" lon="-0.08020324661943405"><ele>144.0</ele><time>2026-05-01T13:36:04.001Z</time></trkpt><trkpt lat="45.76346315411006" lon="-0.08028932985095708"><ele>145.33333333333334</ele><time>2026-05-01T13:36:05.001Z</time></trkpt><trkpt lat="45.76333017111122" lon="-0.08037665828593055"><ele>146.66666666666669</ele><time>2026-05-01T13:36:06.001Z</time></trkpt><trkpt lat="45.76315602332252" lon="-0.08047635562289521"><ele>148.0</ele><time>2026-05-01T13:36:07.001Z</time></trkpt><trkpt lat="45.762980576092104" lon="-0.0805364020325067"><ele>148.0</ele><time>2026-05-01T13:36:08.001Z</time></trkpt><trkpt lat="45.76281162390194" lon="-0.08061489806168508"><ele>148.0</ele><time>2026-05-01T13:36:09.001Z</time></trkpt><trkpt lat="45.76262578738883" lon="-0.08065896652353292"><ele>148.0</ele><time>2026-05-01T13:36:10.001Z</time></trkpt><trkpt lat="45.76245881232504" lon="-0.08072205161991501"><ele>149.0</ele><time>2026-05-01T13:36:11.001Z</time></trkpt><trkpt lat="45.762310463532046" lon="-0.08076578190175089"><ele>150.0</ele><time>2026-05-01T13:36:12.001Z</time></trkpt><trkpt lat="45.762169210944315" lon="-0.08080742041718791"><ele>151.0</ele><time>2026-05-01T13:36:13.001Z</time></trkpt><trkpt lat="45.76202385553865" lon="-0.0808719814592415"><ele>152.0</ele><time>2026-05-01T13:36:14.001Z</time></trkpt><trkpt lat="45.76188086764296" lon="-0.08094514929458932"><ele>153.33333333333331</ele><time>2026-05-01T13:36:15.001Z</time></trkpt><trkpt lat="45.76173143778207" lon="-0.08102512780834424"><ele>154.66666666666666</ele><time>2026-05-01T13:36:16.001Z</time></trkpt><trkpt lat="45.76158633406777" lon="-0.08111320061418707"><ele>156.0</ele><time>2026-05-01T13:36:17.001Z</time></trkpt><trkpt lat="45.76142191771967" lon="-0.08121000751545586"><ele>156.0</ele><time>2026-05-01T13:36:18.001Z</time></trkpt><trkpt lat="45.76128706378063" lon="-0.08128778866565241"><ele>156.0</ele><time>2026-05-01T13:36:19.001Z</time></trkpt><trkpt lat="45.76116516056847" lon="-0.0813592021211431"><ele>156.0</ele><time>2026-05-01T13:36:20.001Z</time></trkpt><trkpt lat="45.76106358481529" lon="-0.0814227465639814"><ele>156.0</ele><time>2026-05-01T13:36:21.001Z</time></trkpt><trkpt lat="45.76098077013457" lon="-0.08147393595774585"><ele>156.25</ele><time>2026-05-01T13:36:22.001Z</time></trkpt><trkpt lat="45.760887257156746" lon="-0.08151726382960459"><ele>156.5</ele><time>2026-05-01T13:36:23.001Z</time></trkpt><trkpt lat="45.76080277540371" lon="-0.08164009041106868"><ele>156.75</ele><time>2026-05-01T13:36:24.001Z</time></trkpt><trkpt lat="45.76070243461745" lon="-0.08176367522591911"><ele>157.0</ele><time>2026-05-01T13:36:25.001Z</time></trkpt><trkpt lat="45.76058304924034" lon="-0.0819076157254114"><ele>157.5</ele><time>2026-05-01T13:36:26.001Z</time></trkpt><trkpt lat="45.760447738126736" lon="-0.08202192502312185"><ele>158.0</ele><time>2026-05-01T13:36:27.001Z</time></trkpt><trkpt lat="45.76035361584197" lon="-0.08212932291621045"><ele>158.5</ele><time>2026-05-01T13:36:28.001Z</time></trkpt><trkpt lat="45.7602609537108" lon="-0.08220564140367818"><ele>159.0</ele><time>2026-05-01T13:36:29.001Z</time></trkpt><trkpt lat="45.760162408711615" lon="-0.08225224179084642"><ele>159.25</ele><time>2026-05-01T13:36:30.001Z</time></trkpt><trkpt lat="45.76004394698223" lon="-0.08230812441472365"><ele>159.5</ele><time>2026-05-01T13:36:31.001Z</time></trkpt><trkpt lat="45.75992119708875" lon="-0.08239968114768996"><ele>159.75</ele><time>2026-05-01T13:36:32.001Z</time></trkpt><trkpt lat="45.759784341774996" lon="-0.08246780378870541"><ele>160.0</ele><time>2026-05-01T13:36:33.001Z</time></trkpt><trkpt lat="45.75959642691708" lon="-0.08254231957257276"><ele>161.5</ele><time>2026-05-01T13:36:34.001Z</time></trkpt><trkpt lat="45.759447860434165" lon="-0.08259382663102426"><ele>163.0</ele><time>2026-05-01T13:36:35.001Z</time></trkpt><trkpt lat="45.75930189553471" lon="-0.08259728192024116"><ele>164.5</ele><time>2026-05-01T13:36:36.001Z</time></trkpt><trkpt lat="45.75917246169592" lon="-0.08256775013323608"><ele>166.0</ele><time>2026-05-01T13:36:37.001Z</time></trkpt><trkpt lat="45.7590350474362" lon="-0.08258641687325721"><ele>166.0</ele><time>2026-05-01T13:36:38.001Z</time></trkpt><trkpt lat="45.75889998646168" lon="-0.08266426967140476"><ele>166.0</ele><time>2026-05-01T13:36:39.001Z</time></trkpt><trkpt lat="45.75877352885222" lon="-0.08269197931554242"><ele>166.0</ele><time>2026-05-01T13:36:40.001Z</time></trkpt><trkpt lat="45.75868649639865" lon="-0.08276528662653307"><ele>166.0</ele><time>2026-05-01T13:36:41.001Z</time></trkpt><trkpt lat="45.75861060852277" lon="-0.0828219593078934"><ele>166.0</ele><time>2026-05-01T13:36:42.001Z</time></trkpt><trkpt lat="45.75855382567248" lon="-0.08286548294396254"><ele>166.0</ele><time>2026-05-01T13:36:43.001Z</time></trkpt><trkpt lat="45.75848928382636" lon="-0.08291538136497367"><ele>166.0</ele><time>2026-05-01T13:36:44.001Z</time></trkpt><trkpt lat="45.75841254259284" lon="-0.08297983086391003"><ele>166.0</ele><time>2026-05-01T13:36:45.001Z</time></trkpt><trkpt lat="45.75834256546585" lon="-0.08303996000473392"><ele>166.0</ele><time>2026-05-01T13:36:46.001Z</time></trkpt><trkpt lat="45.75826528300568" lon="-0.08311086613468549"><ele>166.0</ele><time>2026-05-01T13:36:47.001Z</time></trkpt><trkpt lat="45.75820542976008" lon="-0.08321691337932739"><ele>166.25</ele><time>2026-05-01T13:36:48.001Z</time></trkpt><trkpt lat="45.75811947818185" lon="-0.08329514804300643"><ele>166.5</ele><time>2026-05-01T13:36:49.001Z</time></trkpt><trkpt lat="45.75804028848823" lon="-0.08342245270197998"><ele>166.75</ele><time>2026-05-01T13:36:50.002Z</time></trkpt><trkpt lat="45.75797880891126" lon="-0.08360644749308731"><ele>167.0</ele><time>2026-05-01T13:36:51.002Z</time></trkpt><trkpt lat="45.757886660877006" lon="-0.0837896632957163"><ele>167.0</ele><time>2026-05-01T13:36:52.002Z</time></trkpt><trkpt lat="45.75782264430431" lon="-0.08395257671842303"><ele>167.0</ele><time>2026-05-01T13:36:53.002Z</time></trkpt><trkpt lat="45.75775565221474" lon="-0.08412172659177578"><ele>167.0</ele><time>2026-05-01T13:36:54.002Z</time></trkpt><trkpt lat="45.75770417998131" lon="-0.08433420549207823"><ele>167.0</ele><time>2026-05-01T13:36:55.002Z</time></trkpt><trkpt lat="45.757633304064214" lon="-0.08449578645292924"><ele>165.66666666666666</ele><time>2026-05-01T13:36:56.002Z</time></trkpt><trkpt lat="45.75755258891275" lon="-0.08466808694630909"><ele>164.33333333333334</ele><time>2026-05-01T13:36:57.002Z</time></trkpt><trkpt lat="45.75750165310024" lon="-0.08488259953236793"><ele>163.0</ele><time>2026-05-01T13:36:58.002Z</time></trkpt><trkpt lat="45.75743732383408" lon="-0.08508708550251158"><ele>162.0</ele><time>2026-05-01T13:36:59.002Z</time></trkpt><trkpt lat="45.75737533055096" lon="-0.08531901071947946"><ele>161.0</ele><time>2026-05-01T13:37:00.002Z</time></trkpt><trkpt lat="45.75729667368988" lon="-0.08557536215460156"><ele>160.0</ele><time>2026-05-01T13:37:01.002Z</time></trkpt><trkpt lat="45.757207339043255" lon="-0.08587194051719013"><ele>159.0</ele><time>2026-05-01T13:37:02.002Z</time></trkpt><trkpt lat="45.75713624991077" lon="-0.0861693051186191"><ele>158.0</ele><time>2026-05-01T13:37:03.002Z</time></trkpt><trkpt lat="45.757077170029206" lon="-0.08643859128120682"><ele>157.0</ele><time>2026-05-01T13:37:04.002Z</time></trkpt><trkpt lat="45.757014005004486" lon="-0.08669118953878932"><ele>156.66666666666669</ele><time>2026-05-01T13:37:05.002Z</time></trkpt><trkpt lat="45.75694869877081" lon="-0.0869208612632263"><ele>156.33333333333334</ele><time>2026-05-01T13:37:06.002Z</time></trkpt><trkpt lat="45.756887180003595" lon="-0.08713795263619238"><ele>156.0</ele><time>2026-05-01T13:37:07.002Z</time></trkpt><trkpt lat="45.756837396965054" lon="-0.08729790704417985"><ele>156.0</ele><time>2026-05-01T13:37:08.002Z</time></trkpt><trkpt lat="45.756802418402515" lon="-0.08742329835895254"><ele>156.0</ele><time>2026-05-01T13:37:09.002Z</time></trkpt><trkpt lat="45.756758935777086" lon="-0.08755571457061016"><ele>156.0</ele><time>2026-05-01T13:37:11.001Z</time></trkpt><trkpt lat="45.756628241097935" lon="-0.0873984903691672"><ele>156.0</ele><time>2026-05-01T13:37:17.001Z</time></trkpt><trkpt lat="45.75658996727237" lon="-0.08729324636976636"><ele>156.0</ele><time>2026-05-01T13:37:18.001Z</time></trkpt><trkpt lat="45.75652673746933" lon="-0.08718704437218593"><ele>156.0</ele><time>2026-05-01T13:37:19.001Z</time></trkpt><trkpt lat="45.75645587829011" lon="-0.0870666775244635"><ele>156.0</ele><time>2026-05-01T13:37:20.001Z</time></trkpt><trkpt lat="45.75639564557262" lon="-0.08692767275659559"><ele>156.0</ele><time>2026-05-01T13:37:21.001Z</time></trkpt><trkpt lat="45.75633505107617" lon="-0.08677180674726562"><ele>156.0</ele><time>2026-05-01T13:37:22.001Z</time></trkpt><trkpt lat="45.75628102543249" lon="-0.0866070182440081"><ele>156.5</ele><time>2026-05-01T13:37:23.001Z</time></trkpt><trkpt lat="45.75622496566787" lon="-0.08644958693419061"><ele>157.0</ele><time>2026-05-01T13:37:24.001Z</time></trkpt><trkpt lat="45.7561748704626" lon="-0.08629719685893007"><ele>157.5</ele><time>2026-05-01T13:37:25.001Z</time></trkpt><trkpt lat="45.75611526183234" lon="-0.08615108528037697"><ele>158.0</ele><time>2026-05-01T13:37:26.001Z</time></trkpt><trkpt lat="45.75606659168681" lon="-0.08600365403819026"><ele>157.75</ele><time>2026-05-01T13:37:27.001Z</time></trkpt><trkpt lat="45.756013779478494" lon="-0.08586671879518952"><ele>157.5</ele><time>2026-05-01T13:37:28.001Z</time></trkpt><trkpt lat="45.75595339850174" lon="-0.08572568377776739"><ele>157.25</ele><time>2026-05-01T13:37:29.001Z</time></trkpt><trkpt lat="45.755903080449684" lon="-0.08557585198942497"><ele>157.0</ele><time>2026-05-01T13:37:30.001Z</time></trkpt><trkpt lat="45.755854463305596" lon="-0.08543128896806532"><ele>157.0</ele><time>2026-05-01T13:37:31.001Z</time></trkpt><trkpt lat="45.75580353507202" lon="-0.08528996461861005"><ele>157.0</ele><time>2026-05-01T13:37:32.001Z</time></trkpt><trkpt lat="45.75575634407152" lon="-0.08515615146103685"><ele>157.0</ele><time>2026-05-01T13:37:33.001Z</time></trkpt><trkpt lat="45.75571825084106" lon="-0.08503881689084167"><ele>157.0</ele><time>2026-05-01T13:37:34.001Z</time></trkpt><trkpt lat="45.75567848387688" lon="-0.08492416879132185"><ele>157.0</ele><time>2026-05-01T13:37:35.001Z</time></trkpt><trkpt lat="45.75566448154294" lon="-0.08483034516780184"><ele>157.2</ele><time>2026-05-01T13:37:36.001Z</time></trkpt><trkpt lat="45.75562035152274" lon="-0.08473357144524875"><ele>157.39999999999998</ele><time>2026-05-01T13:37:37.001Z</time></trkpt><trkpt lat="45.755581090042654" lon="-0.08462933036414406"><ele>157.60000000000002</ele><time>2026-05-01T13:37:38.001Z</time></trkpt><trkpt lat="45.755557557250874" lon="-0.08453723487255843"><ele>157.8</ele><time>2026-05-01T13:37:39.001Z</time></trkpt><trkpt lat="45.755512769342204" lon="-0.08437467083901927"><ele>158.0</ele><time>2026-05-01T13:37:41.001Z</time></trkpt><trkpt lat="45.755472300608936" lon="-0.08423945006640547"><ele>158.0</ele><time>2026-05-01T13:37:43.001Z</time></trkpt><trkpt lat="45.75543862201401" lon="-0.08410637573613164"><ele>158.0</ele><time>2026-05-01T13:37:45.001Z</time></trkpt><trkpt lat="45.755414285135856" lon="-0.08399846437447021"><ele>158.0</ele><time>2026-05-01T13:37:46.001Z</time></trkpt><trkpt lat="45.755384906442416" lon="-0.08387493344044855"><ele>158.0</ele><time>2026-05-01T13:37:47.001Z</time></trkpt><trkpt lat="45.75535753236361" lon="-0.08377238456119544"><ele>158.0</ele><time>2026-05-01T13:37:48.001Z</time></trkpt><trkpt lat="45.75533721553481" lon="-0.08367970272752068"><ele>158.0</ele><time>2026-05-01T13:37:49.001Z</time></trkpt><trkpt lat="45.75530424280141" lon="-0.08352811718596102"><ele>158.4</ele><time>2026-05-01T13:37:51.001Z</time></trkpt><trkpt lat="45.755263443322164" lon="-0.08336384877419228"><ele>158.8</ele><time>2026-05-01T13:37:53.001Z</time></trkpt><trkpt lat="45.755226146971765" lon="-0.08320680609095829"><ele>159.2</ele><time>2026-05-01T13:37:55.001Z</time></trkpt><trkpt lat="45.75519278004377" lon="-0.08306477303790004"><ele>159.6</ele><time>2026-05-01T13:37:57.001Z</time></trkpt><trkpt lat="45.75515810964484" lon="-0.0829339260906206"><ele>160.0</ele><time>2026-05-01T13:37:59.001Z</time></trkpt><trkpt lat="45.75511545964405" lon="-0.08278973005195914"><ele>158.83333333333334</ele><time>2026-05-01T13:38:01.001Z</time></trkpt><trkpt lat="45.75508231535227" lon="-0.08266243292100035"><ele>157.66666666666669</ele><time>2026-05-01T13:38:03.001Z</time></trkpt><trkpt lat="45.755041967284114" lon="-0.08256872305297105"><ele>156.5</ele><time>2026-05-01T13:38:05.001Z</time></trkpt><trkpt lat="45.75498993306886" lon="-0.08249711619536444"><ele>155.33333333333334</ele><time>2026-05-01T13:38:08.001Z</time></trkpt><trkpt lat="45.75507279122075" lon="-0.08253912556933435"><ele>154.16666666666666</ele><time>2026-05-01T13:38:13.001Z</time></trkpt><trkpt lat="45.75509043802567" lon="-0.0826407460545719"><ele>153.0</ele><time>2026-05-01T13:38:14.001Z</time></trkpt><trkpt lat="45.755106276777234" lon="-0.08274761111805155"><ele>153.0</ele><time>2026-05-01T13:38:15.001Z</time></trkpt><trkpt lat="45.75513682873037" lon="-0.08285103721907082"><ele>153.0</ele><time>2026-05-01T13:38:16.001Z</time></trkpt><trkpt lat="45.755171131952764" lon="-0.08297574255663395"><ele>153.0</ele><time>2026-05-01T13:38:17.001Z</time></trkpt><trkpt lat="45.75520438883612" lon="-0.08308864449362187"><ele>153.0</ele><time>2026-05-01T13:38:18.001Z</time></trkpt><trkpt lat="45.75523801433449" lon="-0.08320805898412927"><ele>153.0</ele><time>2026-05-01T13:38:19.001Z</time></trkpt><trkpt lat="45.75526620912296" lon="-0.08333174136341973"><ele>153.0</ele><time>2026-05-01T13:38:20.001Z</time></trkpt><trkpt lat="45.75529132054356" lon="-0.08346472277112665"><ele>154.0</ele><time>2026-05-01T13:38:21.001Z</time></trkpt><trkpt lat="45.755320549709644" lon="-0.08358583395827691"><ele>155.0</ele><time>2026-05-01T13:38:22.001Z</time></trkpt><trkpt lat="45.755353802746306" lon="-0.0837138743424802"><ele>156.0</ele><time>2026-05-01T13:38:23.001Z</time></trkpt><trkpt lat="45.75538779054735" lon="-0.08385234323889443"><ele>157.0</ele><time>2026-05-01T13:38:24.001Z</time></trkpt><trkpt lat="45.75542352883128" lon="-0.08399166512182334"><ele>158.0</ele><time>2026-05-01T13:38:25.001Z</time></trkpt><trkpt lat="45.7554551063672" lon="-0.08412289493057368"><ele>158.0</ele><time>2026-05-01T13:38:26.001Z</time></trkpt><trkpt lat="45.75549463359102" lon="-0.08426760273206511"><ele>158.0</ele><time>2026-05-01T13:38:27.001Z</time></trkpt><trkpt lat="45.75553527733551" lon="-0.08441778748019665"><ele>158.0</ele><time>2026-05-01T13:38:28.001Z</time></trkpt><trkpt lat="45.75557530261429" lon="-0.0845540162907839"><ele>158.0</ele><time>2026-05-01T13:38:29.001Z</time></trkpt><trkpt lat="45.75560981279158" lon="-0.0846870174918306"><ele>158.0</ele><time>2026-05-01T13:38:30.001Z</time></trkpt><trkpt lat="45.755651933077544" lon="-0.08481890102220849"><ele>157.8</ele><time>2026-05-01T13:38:31.001Z</time></trkpt><trkpt lat="45.755688832454" lon="-0.08493703683621481"><ele>157.60000000000002</ele><time>2026-05-01T13:38:32.001Z</time></trkpt><trkpt lat="45.7557278832952" lon="-0.08505260022612009"><ele>157.39999999999998</ele><time>2026-05-01T13:38:33.001Z</time></trkpt><trkpt lat="45.75577017827866" lon="-0.08518319150138974"><ele>157.2</ele><time>2026-05-01T13:38:34.001Z</time></trkpt><trkpt lat="45.75581520682295" lon="-0.08532691344295591"><ele>157.0</ele><time>2026-05-01T13:38:35.001Z</time></trkpt><trkpt lat="45.755862978448015" lon="-0.08545359473822137"><ele>157.0</ele><time>2026-05-01T13:38:36.001Z</time></trkpt><trkpt lat="45.75591322295485" lon="-0.08558806247444266"><ele>157.0</ele><time>2026-05-01T13:38:37.001Z</time></trkpt><trkpt lat="45.7559641896507" lon="-0.08571955719753079"><ele>157.0</ele><time>2026-05-01T13:38:38.001Z</time></trkpt><trkpt lat="45.75601977305512" lon="-0.08585194922712457"><ele>157.0</ele><time>2026-05-01T13:38:39.001Z</time></trkpt><trkpt lat="45.75606454722166" lon="-0.08598172036654923"><ele>157.0</ele><time>2026-05-01T13:38:40.001Z</time></trkpt><trkpt lat="45.756108232311256" lon="-0.08612542753389778"><ele>157.25</ele><time>2026-05-01T13:38:41.001Z</time></trkpt><trkpt lat="45.75616372651231" lon="-0.08627929157021932"><ele>157.5</ele><time>2026-05-01T13:38:42.001Z</time></trkpt><trkpt lat="45.75622323483184" lon="-0.08643982750926453"><ele>157.75</ele><time>2026-05-01T13:38:43.001Z</time></trkpt><trkpt lat="45.756280663672264" lon="-0.08659920271748969"><ele>158.0</ele><time>2026-05-01T13:38:44.001Z</time></trkpt><trkpt lat="45.756333689009026" lon="-0.08674032831743718"><ele>157.6</ele><time>2026-05-01T13:38:45.001Z</time></trkpt><trkpt lat="45.75638134391206" lon="-0.08686766690065048"><ele>157.20000000000002</ele><time>2026-05-01T13:38:46.001Z</time></trkpt><trkpt lat="45.75642700032743" lon="-0.086992021829663"><ele>156.8</ele><time>2026-05-01T13:38:47.001Z</time></trkpt><trkpt lat="45.75647636837592" lon="-0.08710858502823408"><ele>156.4</ele><time>2026-05-01T13:38:48.001Z</time></trkpt><trkpt lat="45.75653312514471" lon="-0.08720714425868416"><ele>156.0</ele><time>2026-05-01T13:38:49.001Z</time></trkpt><trkpt lat="45.75658851624209" lon="-0.08730348146331109"><ele>156.0</ele><time>2026-05-01T13:38:50.001Z</time></trkpt><trkpt lat="45.75663959535439" lon="-0.0873861643582685"><ele>156.0</ele><time>2026-05-01T13:38:51.001Z</time></trkpt><trkpt lat="45.75670273122008" lon="-0.08749281702008446"><ele>156.0</ele><time>2026-05-01T13:38:52.001Z</time></trkpt><trkpt lat="45.75673122164072" lon="-0.08757540710110878"><ele>156.0</ele><time>2026-05-01T13:38:53.001Z</time></trkpt><trkpt lat="45.75672851213292" lon="-0.08766921929705876"><ele>156.0</ele><time>2026-05-01T13:38:54.001Z</time></trkpt><trkpt lat="45.75670357138726" lon="-0.08776839759109571"><ele>156.0</ele><time>2026-05-01T13:38:55.001Z</time></trkpt><trkpt lat="45.75667833659398" lon="-0.08791060618766477"><ele>155.0</ele><time>2026-05-01T13:38:56.001Z</time></trkpt><trkpt lat="45.756656568600114" lon="-0.08807920511829015"><ele>154.0</ele><time>2026-05-01T13:38:57.001Z</time></trkpt><trkpt lat="45.75661750120199" lon="-0.08825844199218218"><ele>153.0</ele><time>2026-05-01T13:38:58.001Z</time></trkpt><trkpt lat="45.756572095779084" lon="-0.08842628447667916"><ele>152.0</ele><time>2026-05-01T13:38:59.001Z</time></trkpt><trkpt lat="45.756532349175124" lon="-0.08857449503527459"><ele>151.79999999999998</ele><time>2026-05-01T13:39:00.001Z</time></trkpt><trkpt lat="45.75650188062752" lon="-0.08869966943828958"><ele>151.6</ele><time>2026-05-01T13:39:01.001Z</time></trkpt><trkpt lat="45.75647496990712" lon="-0.08879839577223374"><ele>151.39999999999998</ele><time>2026-05-01T13:39:02.001Z</time></trkpt><trkpt lat="45.75642567711818" lon="-0.08893058493664552"><ele>151.2</ele><time>2026-05-01T13:39:04.001Z</time></trkpt><trkpt lat="45.75640088445992" lon="-0.08902118723717635"><ele>151.0</ele><time>2026-05-01T13:39:06.002Z</time></trkpt><trkpt lat="45.75627587512222" lon="-0.08906552852650261"><ele>151.0</ele><time>2026-05-01T13:39:08.002Z</time></trkpt><trkpt lat="45.75619474702396" lon="-0.08907566166631442"><ele>151.0</ele><time>2026-05-01T13:39:09.002Z</time></trkpt><trkpt lat="45.75610438102138" lon="-0.08907786634582278"><ele>151.0</ele><time>2026-05-01T13:39:10.002Z</time></trkpt><trkpt lat="45.75600781786037" lon="-0.08909173225677637"><ele>151.0</ele><time>2026-05-01T13:39:11.002Z</time></trkpt><trkpt lat="45.75591075493745" lon="-0.08911115143366061"><ele>151.0</ele><time>2026-05-01T13:39:12.002Z</time></trkpt><trkpt lat="45.75582107243956" lon="-0.0891346002716143"><ele>150.33333333333334</ele><time>2026-05-01T13:39:13.002Z</time></trkpt><trkpt lat="45.75574017233265" lon="-0.08916262870248677"><ele>149.66666666666669</ele><time>2026-05-01T13:39:14.002Z</time></trkpt><trkpt lat="45.75566123677334" lon="-0.08919189043699803"><ele>149.0</ele><time>2026-05-01T13:39:15.002Z</time></trkpt><trkpt lat="45.75558976530292" lon="-0.08922139034510986"><ele>148.33333333333334</ele><time>2026-05-01T13:39:16.001Z</time></trkpt><trkpt lat="45.755516872737" lon="-0.08925436329100014"><ele>147.66666666666666</ele><time>2026-05-01T13:39:17.001Z</time></trkpt><trkpt lat="45.755446051420776" lon="-0.08928441477924852"><ele>147.0</ele><time>2026-05-01T13:39:18.001Z</time></trkpt><trkpt lat="45.75536743833362" lon="-0.08931561055920638"><ele>147.0</ele><time>2026-05-01T13:39:19.001Z</time></trkpt><trkpt lat="45.755284103605234" lon="-0.08934703643857629"><ele>147.0</ele><time>2026-05-01T13:39:20.001Z</time></trkpt><trkpt lat="45.755199875023415" lon="-0.08938306935754473"><ele>147.0</ele><time>2026-05-01T13:39:21.001Z</time></trkpt><trkpt lat="45.755108980870354" lon="-0.08942032136267597"><ele>147.0</ele><time>2026-05-01T13:39:22.001Z</time></trkpt><trkpt lat="45.75501290251895" lon="-0.08945669283943711"><ele>147.0</ele><time>2026-05-01T13:39:23.001Z</time></trkpt><trkpt lat="45.75491423130484" lon="-0.08949053341211179"><ele>146.4</ele><time>2026-05-01T13:39:24.001Z</time></trkpt><trkpt lat="45.75481295343937" lon="-0.0895268707503571"><ele>145.79999999999998</ele><time>2026-05-01T13:39:25.001Z</time></trkpt><trkpt lat="45.75471210242034" lon="-0.08956035182164801"><ele>145.2</ele><time>2026-05-01T13:39:26.001Z</time></trkpt><trkpt lat="45.75461157293097" lon="-0.08959201906406423"><ele>144.6</ele><time>2026-05-01T13:39:27.001Z</time></trkpt><trkpt lat="45.754511549104826" lon="-0.08962438249383912"><ele>144.0</ele><time>2026-05-01T13:39:28.001Z</time></trkpt><trkpt lat="45.75441118269533" lon="-0.08965678588041665"><ele>144.2</ele><time>2026-05-01T13:39:29.001Z</time></trkpt><trkpt lat="45.754310857921624" lon="-0.08969142793647815"><ele>144.4</ele><time>2026-05-01T13:39:30.001Z</time></trkpt><trkpt lat="45.754206917909144" lon="-0.08972635707763522"><ele>144.6</ele><time>2026-05-01T13:39:31.001Z</time></trkpt><trkpt lat="45.75410813437397" lon="-0.08975624708850143"><ele>144.8</ele><time>2026-05-01T13:39:32.001Z</time></trkpt><trkpt lat="45.75400258841352" lon="-0.08978531562426867"><ele>145.0</ele><time>2026-05-01T13:39:33.001Z</time></trkpt><trkpt lat="45.75390159853131" lon="-0.08981312956826534"><ele>145.0</ele><time>2026-05-01T13:39:34.001Z</time></trkpt><trkpt lat="45.753787556589" lon="-0.0898450004510712"><ele>145.0</ele><time>2026-05-01T13:39:35.001Z</time></trkpt><trkpt lat="45.75368321288465" lon="-0.08988105823133691"><ele>145.0</ele><time>2026-05-01T13:39:36.001Z</time></trkpt><trkpt lat="45.7535699172851" lon="-0.0899190100398979"><ele>145.0</ele><time>2026-05-01T13:39:37.001Z</time></trkpt><trkpt lat="45.753472074957514" lon="-0.08995212597219467"><ele>145.0</ele><time>2026-05-01T13:39:38.001Z</time></trkpt><trkpt lat="45.75336959534957" lon="-0.0899862612220334"><ele>145.8</ele><time>2026-05-01T13:39:39.001Z</time></trkpt><trkpt lat="45.75326210606378" lon="-0.09001452578849309"><ele>146.6</ele><time>2026-05-01T13:39:40.001Z</time></trkpt><trkpt lat="45.75316175610332" lon="-0.09004402121971287"><ele>147.4</ele><time>2026-05-01T13:39:41.001Z</time></trkpt><trkpt lat="45.75305191860296" lon="-0.09008034392867018"><ele>148.2</ele><time>2026-05-01T13:39:42.001Z</time></trkpt><trkpt lat="45.75294115133659" lon="-0.09011646388624044"><ele>149.0</ele><time>2026-05-01T13:39:43.001Z</time></trkpt><trkpt lat="45.75283608723105" lon="-0.09015014491795698"><ele>149.0</ele><time>2026-05-01T13:39:44.001Z</time></trkpt><trkpt lat="45.752738554329746" lon="-0.09017175640160582"><ele>149.0</ele><time>2026-05-01T13:39:45.001Z</time></trkpt><trkpt lat="45.75264161417526" lon="-0.09020423864654674"><ele>149.0</ele><time>2026-05-01T13:39:46.001Z</time></trkpt><trkpt lat="45.752558484791415" lon="-0.09022735814627621"><ele>149.0</ele><time>2026-05-01T13:39:47.001Z</time></trkpt><trkpt lat="45.75245965199308" lon="-0.09025574879280705"><ele>149.0</ele><time>2026-05-01T13:39:49.001Z</time></trkpt><trkpt lat="45.752406860236114" lon="-0.09033216342870516"><ele>149.5</ele><time>2026-05-01T13:39:51.001Z</time></trkpt><trkpt lat="45.752331012548034" lon="-0.09044459199667056"><ele>150.0</ele><time>2026-05-01T13:39:54.001Z</time></trkpt><trkpt lat="45.7522991255369" lon="-0.09054543097030132"><ele>150.5</ele><time>2026-05-01T13:39:56.001Z</time></trkpt><trkpt lat="45.752315078567236" lon="-0.0906515458131631"><ele>151.0</ele><time>2026-05-01T13:39:58.001Z</time></trkpt><trkpt lat="45.75233953468439" lon="-0.09074691389408908"><ele>151.5</ele><time>2026-05-01T13:39:59.001Z</time></trkpt><trkpt lat="45.75238222365057" lon="-0.09085573683938913"><ele>152.0</ele><time>2026-05-01T13:40:00.001Z</time></trkpt><trkpt lat="45.752414691202965" lon="-0.0909880505146121"><ele>152.0</ele><time>2026-05-01T13:40:01.001Z</time></trkpt><trkpt lat="45.752431162535096" lon="-0.09115737315554882"><ele>152.0</ele><time>2026-05-01T13:40:02.001Z</time></trkpt><trkpt lat="45.752476916218406" lon="-0.09132531601497669"><ele>152.0</ele><time>2026-05-01T13:40:03.001Z</time></trkpt><trkpt lat="45.75252122283677" lon="-0.09150032007958428"><ele>152.0</ele><time>2026-05-01T13:40:04.001Z</time></trkpt><trkpt lat="45.752570184799474" lon="-0.09168633250592564"><ele>151.5</ele><time>2026-05-01T13:40:05.001Z</time></trkpt><trkpt lat="45.75261928491378" lon="-0.09186207628812229"><ele>151.0</ele><time>2026-05-01T13:40:06.001Z</time></trkpt><trkpt lat="45.752660079076506" lon="-0.09203322408700539"><ele>150.5</ele><time>2026-05-01T13:40:07.001Z</time></trkpt><trkpt lat="45.752702847335" lon="-0.09220757776815491"><ele>150.0</ele><time>2026-05-01T13:40:08.001Z</time></trkpt><trkpt lat="45.75274823899143" lon="-0.092380704130047"><ele>149.0</ele><time>2026-05-01T13:40:09.001Z</time></trkpt><trkpt lat="45.75279722519729" lon="-0.09256253490417993"><ele>148.0</ele><time>2026-05-01T13:40:10.001Z</time></trkpt><trkpt lat="45.752843694101536" lon="-0.09274460214012879"><ele>147.0</ele><time>2026-05-01T13:40:11.001Z</time></trkpt><trkpt lat="45.75289101802431" lon="-0.09293875561929897"><ele>146.0</ele><time>2026-05-01T13:40:12.001Z</time></trkpt><trkpt lat="45.75293532903419" lon="-0.09313035809063584"><ele>145.66666666666666</ele><time>2026-05-01T13:40:13.001Z</time></trkpt><trkpt lat="45.752984091231774" lon="-0.09334327410122703"><ele>145.33333333333334</ele><time>2026-05-01T13:40:14.001Z</time></trkpt><trkpt lat="45.753032107044035" lon="-0.09356564783200956"><ele>145.0</ele><time>2026-05-01T13:40:15.001Z</time></trkpt><trkpt lat="45.7530850835361" lon="-0.09379360003635707"><ele>145.0</ele><time>2026-05-01T13:40:16.001Z</time></trkpt><trkpt lat="45.753132453119285" lon="-0.09400862466732934"><ele>145.0</ele><time>2026-05-01T13:40:17.001Z</time></trkpt><trkpt lat="45.75316682134157" lon="-0.0942155869591905"><ele>145.0</ele><time>2026-05-01T13:40:18.001Z</time></trkpt><trkpt lat="45.75320420525973" lon="-0.09439447918700385"><ele>145.0</ele><time>2026-05-01T13:40:19.001Z</time></trkpt><trkpt lat="45.7532379356976" lon="-0.09457041655186169"><ele>144.75</ele><time>2026-05-01T13:40:20.001Z</time></trkpt><trkpt lat="45.7532703590636" lon="-0.09475019880819978"><ele>144.5</ele><time>2026-05-01T13:40:21.001Z</time></trkpt><trkpt lat="45.753282046076954" lon="-0.0949464020104207"><ele>144.25</ele><time>2026-05-01T13:40:22.001Z</time></trkpt><trkpt lat="45.75330993888258" lon="-0.09514729981722539"><ele>144.0</ele><time>2026-05-01T13:40:23.001Z</time></trkpt><trkpt lat="45.753333826884194" lon="-0.09536083680738766"><ele>143.66666666666666</ele><time>2026-05-01T13:40:24.001Z</time></trkpt><trkpt lat="45.75335596611585" lon="-0.09558780049250472"><ele>143.33333333333331</ele><time>2026-05-01T13:40:25.001Z</time></trkpt><trkpt lat="45.753388488712794" lon="-0.09583253093508504"><ele>143.0</ele><time>2026-05-01T13:40:26.001Z</time></trkpt><trkpt lat="45.75340569660987" lon="-0.09608591242383868"><ele>142.75</ele><time>2026-05-01T13:40:27.001Z</time></trkpt><trkpt lat="45.75340735468495" lon="-0.0963121734696455"><ele>142.5</ele><time>2026-05-01T13:40:28.001Z</time></trkpt><trkpt lat="45.753424686843985" lon="-0.09649184931221216"><ele>142.25</ele><time>2026-05-01T13:40:29.001Z</time></trkpt><trkpt lat="45.75343382724768" lon="-0.09662862677522543"><ele>142.0</ele><time>2026-05-01T13:40:30.001Z</time></trkpt><trkpt lat="45.75344476924381" lon="-0.09675747699696426"><ele>141.2</ele><time>2026-05-01T13:40:31.001Z</time></trkpt><trkpt lat="45.75345663120686" lon="-0.09685583728767065"><ele>140.39999999999998</ele><time>2026-05-01T13:40:32.001Z</time></trkpt><trkpt lat="45.75351234032533" lon="-0.09697659186150061"><ele>139.60000000000002</ele><time>2026-05-01T13:40:34.001Z</time></trkpt><trkpt lat="45.753659390270464" lon="-0.09696631054198857"><ele>138.8</ele><time>2026-05-01T13:40:36.001Z</time></trkpt><trkpt lat="45.753719949095455" lon="-0.09699127352263606"><ele>138.0</ele><time>2026-05-01T13:40:37.001Z</time></trkpt><trkpt lat="45.75379480002102" lon="-0.09711825598731633"><ele>137.25</ele><time>2026-05-01T13:40:39.001Z</time></trkpt><trkpt lat="45.75380375002059" lon="-0.09726565957774938"><ele>136.5</ele><time>2026-05-01T13:40:41.001Z</time></trkpt><trkpt lat="45.753820598860756" lon="-0.09737195264574092"><ele>135.75</ele><time>2026-05-01T13:40:42.001Z</time></trkpt><trkpt lat="45.753858127275045" lon="-0.09754901705832478"><ele>135.0</ele><time>2026-05-01T13:40:43.001Z</time></trkpt><trkpt lat="45.75390574771152" lon="-0.09778264277436167"><ele>134.33333333333334</ele><time>2026-05-01T13:40:44.001Z</time></trkpt><trkpt lat="45.75396774943956" lon="-0.09805612301248091"><ele>133.66666666666669</ele><time>2026-05-01T13:40:45.001Z</time></trkpt><trkpt lat="45.75405159793851" lon="-0.09836588368887496"><ele>133.0</ele><time>2026-05-01T13:40:46.001Z</time></trkpt><trkpt lat="45.75411065324793" lon="-0.09862804022073172"><ele>133.0</ele><time>2026-05-01T13:40:47.001Z</time></trkpt><trkpt lat="45.7541508518064" lon="-0.09886986024135308"><ele>133.0</ele><time>2026-05-01T13:40:48.001Z</time></trkpt><trkpt lat="45.75419706952445" lon="-0.09906884905885263"><ele>133.0</ele><time>2026-05-01T13:40:49.001Z</time></trkpt><trkpt lat="45.75423886758644" lon="-0.09925412227446066"><ele>133.20000000000002</ele><time>2026-05-01T13:40:50.001Z</time></trkpt><trkpt lat="45.754281091917456" lon="-0.09942819636791106"><ele>133.4</ele><time>2026-05-01T13:40:51.001Z</time></trkpt><trkpt lat="45.75431754260663" lon="-0.09957420861872007"><ele>133.60000000000002</ele><time>2026-05-01T13:40:52.001Z</time></trkpt><trkpt lat="45.75434741701261" lon="-0.09969068350412054"><ele>133.8</ele><time>2026-05-01T13:40:53.001Z</time></trkpt><trkpt lat="45.75435913815262" lon="-0.09979242313336337"><ele>134.0</ele><time>2026-05-01T13:40:54.001Z</time></trkpt><trkpt lat="45.754304481823766" lon="-0.09995448427152169"><ele>134.0</ele><time>2026-05-01T13:40:56.001Z</time></trkpt><trkpt lat="45.7542289061929" lon="-0.10001874082772909"><ele>134.0</ele><time>2026-05-01T13:40:57.001Z</time></trkpt><trkpt lat="45.754114885267406" lon="-0.10009432818122464"><ele>134.0</ele><time>2026-05-01T13:40:58.001Z</time></trkpt><trkpt lat="45.75405558333392" lon="-0.10018609613526576"><ele>134.0</ele><time>2026-05-01T13:40:59.001Z</time></trkpt><trkpt lat="45.75405211111788" lon="-0.10038754993617834"><ele>134.0</ele><time>2026-05-01T13:41:01.001Z</time></trkpt><trkpt lat="45.75408019142062" lon="-0.1005308303678156"><ele>134.0</ele><time>2026-05-01T13:41:02.001Z</time></trkpt><trkpt lat="45.754093232324855" lon="-0.10074669791767366"><ele>134.0</ele><time>2026-05-01T13:41:03.001Z</time></trkpt><trkpt lat="45.75411693524344" lon="-0.10102143405552469"><ele>134.0</ele><time>2026-05-01T13:41:04.001Z</time></trkpt><trkpt lat="45.75415183976744" lon="-0.10136193678309965"><ele>132.5</ele><time>2026-05-01T13:41:05.001Z</time></trkpt><trkpt lat="45.75432563112148" lon="-0.10169712244310325"><ele>131.0</ele><time>2026-05-01T13:41:06.001Z</time></trkpt><trkpt lat="45.75438991690132" lon="-0.10201263065997801"><ele>130.33333333333331</ele><time>2026-05-01T13:41:07.001Z</time></trkpt><trkpt lat="45.75444792600074" lon="-0.10228845671140954"><ele>129.66666666666666</ele><time>2026-05-01T13:41:08.001Z</time></trkpt><trkpt lat="45.75450682516381" lon="-0.10253382357717199"><ele>129.0</ele><time>2026-05-01T13:41:09.001Z</time></trkpt><trkpt lat="45.75454777446843" lon="-0.10273904068761873"><ele>129.0</ele><time>2026-05-01T13:41:10.001Z</time></trkpt><trkpt lat="45.75459383887965" lon="-0.102937261745839"><ele>129.0</ele><time>2026-05-01T13:41:11.001Z</time></trkpt><trkpt lat="45.75463391219245" lon="-0.1031247293594504"><ele>129.0</ele><time>2026-05-01T13:41:12.001Z</time></trkpt><trkpt lat="45.75466730817965" lon="-0.10328349673877565"><ele>129.0</ele><time>2026-05-01T13:41:13.001Z</time></trkpt><trkpt lat="45.75469690946091" lon="-0.10340818131363365"><ele>129.0</ele><time>2026-05-01T13:41:14.001Z</time></trkpt><trkpt lat="45.75472283936616" lon="-0.10351383986502365"><ele>129.0</ele><time>2026-05-01T13:41:15.001Z</time></trkpt><trkpt lat="45.754756509300655" lon="-0.10367187598585621"><ele>129.0</ele><time>2026-05-01T13:41:17.001Z</time></trkpt><trkpt lat="45.754795754617476" lon="-0.10381299674963908"><ele>129.0</ele><time>2026-05-01T13:41:19.001Z</time></trkpt><trkpt lat="45.75482656778626" lon="-0.10391429644714648"><ele>129.0</ele><time>2026-05-01T13:41:21.001Z</time></trkpt><trkpt lat="45.7548459047844" lon="-0.10404381649352853"><ele>128.0</ele><time>2026-05-01T13:41:23.001Z</time></trkpt><trkpt lat="45.75489339263762" lon="-0.10419255726714673"><ele>127.0</ele><time>2026-05-01T13:41:25.001Z</time></trkpt><trkpt lat="45.75493856378601" lon="-0.10435823596067263"><ele>126.0</ele><time>2026-05-01T13:41:27.001Z</time></trkpt><trkpt lat="45.754979564195224" lon="-0.10451505270454864"><ele>125.0</ele><time>2026-05-01T13:41:29.001Z</time></trkpt><trkpt lat="45.75501386948454" lon="-0.10464704298746041"><ele>125.0</ele><time>2026-05-01T13:41:31.001Z</time></trkpt><trkpt lat="45.75506506005781" lon="-0.10477045221543022"><ele>125.0</ele><time>2026-05-01T13:41:33.001Z</time></trkpt><trkpt lat="45.75510556444811" lon="-0.10487542367514836"><ele>125.0</ele><time>2026-05-01T13:41:35Z</time></trkpt><trkpt lat="45.755171119337405" lon="-0.10501858737733767"><ele>125.0</ele><time>2026-05-01T13:41:37Z</time></trkpt><trkpt lat="45.75510670295922" lon="-0.10492829903832153"><ele>125.0</ele><time>2026-05-01T13:42:01Z</time></trkpt><trkpt lat="45.75503831285304" lon="-0.10473113082074487"><ele>124.99999999999999</ele><time>2026-05-01T13:42:03Z</time></trkpt><trkpt lat="45.75501017836303" lon="-0.10462556970164014"><ele>125.0</ele><time>2026-05-01T13:42:04Z</time></trkpt><trkpt lat="45.75497999837496" lon="-0.10451885007348424"><ele>125.0</ele><time>2026-05-01T13:42:05Z</time></trkpt><trkpt lat="45.75494091175899" lon="-0.10442762168794385"><ele>125.0</ele><time>2026-05-01T13:42:06Z</time></trkpt><trkpt lat="45.75490429313029" lon="-0.1043220326202326"><ele>124.99999999999999</ele><time>2026-05-01T13:42:07Z</time></trkpt><trkpt lat="45.75488913039678" lon="-0.10423343400871814"><ele>125.0</ele><time>2026-05-01T13:42:08Z</time></trkpt><trkpt lat="45.75485290871334" lon="-0.10411375069972154"><ele>125.66666666666666</ele><time>2026-05-01T13:42:09Z</time></trkpt><trkpt lat="45.75482464342392" lon="-0.10402104739079918"><ele>126.33333333333333</ele><time>2026-05-01T13:42:10Z</time></trkpt><trkpt lat="45.75479577414841" lon="-0.10392102188709088"><ele>127.0</ele><time>2026-05-01T13:42:11.001Z</time></trkpt><trkpt lat="45.754772389148414" lon="-0.10381981247924552"><ele>127.66666666666666</ele><time>2026-05-01T13:42:12.001Z</time></trkpt><trkpt lat="45.754754967839844" lon="-0.1037193162390117"><ele>128.33333333333334</ele><time>2026-05-01T13:42:13.001Z</time></trkpt><trkpt lat="45.75473071418812" lon="-0.10360571781638514"><ele>129.0</ele><time>2026-05-01T13:42:14.001Z</time></trkpt><trkpt lat="45.754706290959255" lon="-0.10348357909419331"><ele>129.0</ele><time>2026-05-01T13:42:15.001Z</time></trkpt><trkpt lat="45.75467607310851" lon="-0.10333103300395569"><ele>129.0</ele><time>2026-05-01T13:42:16.001Z</time></trkpt><trkpt lat="45.754631253527066" lon="-0.10315752521882177"><ele>129.0</ele><time>2026-05-01T13:42:17.001Z</time></trkpt><trkpt lat="45.754592660189275" lon="-0.10297592515274563"><ele>129.0</ele><time>2026-05-01T13:42:18.001Z</time></trkpt><trkpt lat="45.75453662609064" lon="-0.10276098743226192"><ele>129.0</ele><time>2026-05-01T13:42:19.001Z</time></trkpt><trkpt lat="45.75448361040107" lon="-0.10250481268803179"><ele>129.0</ele><time>2026-05-01T13:42:20.001Z</time></trkpt><trkpt lat="45.754424189474264" lon="-0.10221776664485725"><ele>129.0</ele><time>2026-05-01T13:42:21.001Z</time></trkpt><trkpt lat="45.75439306322749" lon="-0.10198003603826657"><ele>129.5</ele><time>2026-05-01T13:42:22.001Z</time></trkpt><trkpt lat="45.75435527747435" lon="-0.1017716062149356"><ele>130.0</ele><time>2026-05-01T13:42:23.001Z</time></trkpt><trkpt lat="45.75430743408109" lon="-0.10156941711632457"><ele>130.5</ele><time>2026-05-01T13:42:24.001Z</time></trkpt><trkpt lat="45.75426467268997" lon="-0.10137132841989732"><ele>131.0</ele><time>2026-05-01T13:42:25.001Z</time></trkpt><trkpt lat="45.75422531570078" lon="-0.1011713204822673"><ele>131.5</ele><time>2026-05-01T13:42:26.001Z</time></trkpt><trkpt lat="45.7541912359812" lon="-0.10097352589393449"><ele>132.0</ele><time>2026-05-01T13:42:27.001Z</time></trkpt><trkpt lat="45.75415114302364" lon="-0.10080571926366433"><ele>132.5</ele><time>2026-05-01T13:42:28.001Z</time></trkpt><trkpt lat="45.75411223462047" lon="-0.10065331962590132"><ele>133.0</ele><time>2026-05-01T13:42:29.001Z</time></trkpt><trkpt lat="45.75408795937551" lon="-0.10051262435497064"><ele>133.16666666666669</ele><time>2026-05-01T13:42:30.001Z</time></trkpt><trkpt lat="45.75402957072843" lon="-0.10039757045656883"><ele>133.33333333333334</ele><time>2026-05-01T13:42:31.001Z</time></trkpt><trkpt lat="45.754020912936255" lon="-0.10029721905713711"><ele>133.5</ele><time>2026-05-01T13:42:32.001Z</time></trkpt><trkpt lat="45.75402712649682" lon="-0.10019305508566285"><ele>133.66666666666666</ele><time>2026-05-01T13:42:33.001Z</time></trkpt><trkpt lat="45.75405708762229" lon="-0.10010275761381358"><ele>133.83333333333331</ele><time>2026-05-01T13:42:34.001Z</time></trkpt><trkpt lat="45.75411202903918" lon="-0.10002674307569973"><ele>134.0</ele><time>2026-05-01T13:42:35.001Z</time></trkpt><trkpt lat="45.75416930637296" lon="-0.09998523762378936"><ele>134.0</ele><time>2026-05-01T13:42:36.001Z</time></trkpt><trkpt lat="45.75425188838579" lon="-0.09996193798804276"><ele>134.0</ele><time>2026-05-01T13:42:37.001Z</time></trkpt><trkpt lat="45.75430188221892" lon="-0.09988987174177542"><ele>134.0</ele><time>2026-05-01T13:42:38.001Z</time></trkpt><trkpt lat="45.75434167688069" lon="-0.0997550922240558"><ele>134.0</ele><time>2026-05-01T13:42:40.001Z</time></trkpt><trkpt lat="45.754323821239964" lon="-0.09966216959919917"><ele>134.0</ele><time>2026-05-01T13:42:41.001Z</time></trkpt><trkpt lat="45.754285353691245" lon="-0.0994911016071112"><ele>134.0</ele><time>2026-05-01T13:42:43.001Z</time></trkpt><trkpt lat="45.754254800841345" lon="-0.09940783510283041"><ele>134.0</ele><time>2026-05-01T13:42:44.001Z</time></trkpt><trkpt lat="45.75424956132152" lon="-0.09931252830187656"><ele>134.0</ele><time>2026-05-01T13:42:45.001Z</time></trkpt><trkpt lat="45.75420794888804" lon="-0.09915655264174379"><ele>134.0</ele><time>2026-05-01T13:42:47.001Z</time></trkpt><trkpt lat="45.754165230743595" lon="-0.09902156567434306"><ele>134.0</ele><time>2026-05-01T13:42:49.001Z</time></trkpt><trkpt lat="45.754134848231416" lon="-0.0988903013853436"><ele>134.0</ele><time>2026-05-01T13:42:51.001Z</time></trkpt><trkpt lat="45.754125073704024" lon="-0.0987945449673947"><ele>133.83333333333331</ele><time>2026-05-01T13:42:52.001Z</time></trkpt><trkpt lat="45.75407615393758" lon="-0.09862964425998207"><ele>133.66666666666666</ele><time>2026-05-01T13:42:54.001Z</time></trkpt><trkpt lat="45.75405736873295" lon="-0.09854295097143188"><ele>133.5</ele><time>2026-05-01T13:42:55.001Z</time></trkpt><trkpt lat="45.75403662102612" lon="-0.09845105149727663"><ele>133.33333333333334</ele><time>2026-05-01T13:42:56.001Z</time></trkpt><trkpt lat="45.754015343966756" lon="-0.0983611822317256"><ele>133.16666666666669</ele><time>2026-05-01T13:42:57.001Z</time></trkpt><trkpt lat="45.754005494612265" lon="-0.09825308396154314"><ele>133.0</ele><time>2026-05-01T13:42:58.001Z</time></trkpt><trkpt lat="45.75398382348874" lon="-0.09814832774300138"><ele>133.0</ele><time>2026-05-01T13:42:59.001Z</time></trkpt><trkpt lat="45.753954025695464" lon="-0.0980324219929256"><ele>133.0</ele><time>2026-05-01T13:43:00.001Z</time></trkpt><trkpt lat="45.7539274841294" lon="-0.09789969425426749"><ele>133.0</ele><time>2026-05-01T13:43:01.001Z</time></trkpt><trkpt lat="45.75389866234311" lon="-0.09776934010665217"><ele>133.0</ele><time>2026-05-01T13:43:02.001Z</time></trkpt><trkpt lat="45.7538700681059" lon="-0.09762839069524658"><ele>133.0</ele><time>2026-05-01T13:43:03.001Z</time></trkpt><trkpt lat="45.753838270009346" lon="-0.09748449436643979"><ele>133.4</ele><time>2026-05-01T13:43:04.001Z</time></trkpt><trkpt lat="45.75379493344948" lon="-0.09735495606044224"><ele>133.8</ele><time>2026-05-01T13:43:05.001Z</time></trkpt><trkpt lat="45.75378270821455" lon="-0.09722099856379053"><ele>134.2</ele><time>2026-05-01T13:43:06.001Z</time></trkpt><trkpt lat="45.75375363314089" lon="-0.09712065727973164"><ele>134.6</ele><time>2026-05-01T13:43:07.001Z</time></trkpt><trkpt lat="45.75367625639977" lon="-0.09699460667106496"><ele>135.0</ele><time>2026-05-01T13:43:09.001Z</time></trkpt><trkpt lat="45.75359887603581" lon="-0.09702520655083124"><ele>135.5</ele><time>2026-05-01T13:43:10.001Z</time></trkpt><trkpt lat="45.7535204468895" lon="-0.09700466853470852"><ele>136.0</ele><time>2026-05-01T13:43:11.001Z</time></trkpt><trkpt lat="45.753450140076374" lon="-0.09696771389653654"><ele>136.5</ele><time>2026-05-01T13:43:12.001Z</time></trkpt><trkpt lat="45.7534042452063" lon="-0.0968775259148466"><ele>137.0</ele><time>2026-05-01T13:43:13.001Z</time></trkpt><trkpt lat="45.75340625900513" lon="-0.09675070130076065"><ele>137.5</ele><time>2026-05-01T13:43:14.001Z</time></trkpt><trkpt lat="45.753402740561334" lon="-0.09664089810276637"><ele>138.0</ele><time>2026-05-01T13:43:15.001Z</time></trkpt><trkpt lat="45.753407745369664" lon="-0.09650199710137533"><ele>138.8</ele><time>2026-05-01T13:43:16.001Z</time></trkpt><trkpt lat="45.753386454452304" lon="-0.09635904130304487"><ele>139.60000000000002</ele><time>2026-05-01T13:43:17.001Z</time></trkpt><trkpt lat="45.75337819139968" lon="-0.09620433000447004"><ele>140.39999999999998</ele><time>2026-05-01T13:43:18.001Z</time></trkpt><trkpt lat="45.7533671161784" lon="-0.09604021441722227"><ele>141.2</ele><time>2026-05-01T13:43:19.001Z</time></trkpt><trkpt lat="45.75335411564108" lon="-0.09587402476586161"><ele>142.0</ele><time>2026-05-01T13:43:20.001Z</time></trkpt><trkpt lat="45.75335016347081" lon="-0.09568338574888093"><ele>142.33333333333334</ele><time>2026-05-01T13:43:21.001Z</time></trkpt><trkpt lat="45.75333886198342" lon="-0.09551577186467107"><ele>142.66666666666666</ele><time>2026-05-01T13:43:22.001Z</time></trkpt><trkpt lat="45.75328817820682" lon="-0.09515059240641538"><ele>143.0</ele><time>2026-05-01T13:43:24.001Z</time></trkpt><trkpt lat="45.75326474542143" lon="-0.09496041224897342"><ele>143.25</ele><time>2026-05-01T13:43:25.001Z</time></trkpt><trkpt lat="45.75325808285292" lon="-0.0947761273670407"><ele>143.5</ele><time>2026-05-01T13:43:26.001Z</time></trkpt><trkpt lat="45.753215500701046" lon="-0.09459221297997189"><ele>143.75</ele><time>2026-05-01T13:43:27.001Z</time></trkpt><trkpt lat="45.75318123572425" lon="-0.0944081785635517"><ele>144.0</ele><time>2026-05-01T13:43:28Z</time></trkpt><trkpt lat="45.75314866089471" lon="-0.09424027934041922"><ele>144.25</ele><time>2026-05-01T13:43:29Z</time></trkpt><trkpt lat="45.753113901971176" lon="-0.09406467626787955"><ele>144.5</ele><time>2026-05-01T13:43:30Z</time></trkpt><trkpt lat="45.75308872934899" lon="-0.09388526200070972"><ele>144.75</ele><time>2026-05-01T13:43:31Z</time></trkpt><trkpt lat="45.753055064473514" lon="-0.09370503538495321"><ele>145.0</ele><time>2026-05-01T13:43:32Z</time></trkpt><trkpt lat="45.75300261608437" lon="-0.09353687706268929"><ele>145.0</ele><time>2026-05-01T13:43:33Z</time></trkpt><trkpt lat="45.7529640041348" lon="-0.09335841845511156"><ele>145.0</ele><time>2026-05-01T13:43:34Z</time></trkpt><trkpt lat="45.752939358826005" lon="-0.09319037752430835"><ele>145.0</ele><time>2026-05-01T13:43:35Z</time></trkpt><trkpt lat="45.752879628263386" lon="-0.09298150787509836"><ele>145.0</ele><time>2026-05-01T13:43:36Z</time></trkpt><trkpt lat="45.752834536054685" lon="-0.09279046022665108"><ele>145.25</ele><time>2026-05-01T13:43:37Z</time></trkpt><trkpt lat="45.752799142008556" lon="-0.09259027137136713"><ele>145.5</ele><time>2026-05-01T13:43:38Z</time></trkpt><trkpt lat="45.752735561570695" lon="-0.09240441418774287"><ele>145.75</ele><time>2026-05-01T13:43:39Z</time></trkpt><trkpt lat="45.75268501934392" lon="-0.09221258350027126"><ele>146.0</ele><time>2026-05-01T13:43:40Z</time></trkpt><trkpt lat="45.752647907005766" lon="-0.09200041754796605"><ele>147.0</ele><time>2026-05-01T13:43:41Z</time></trkpt><trkpt lat="45.75258321592774" lon="-0.09181224568510202"><ele>148.0</ele><time>2026-05-01T13:43:42Z</time></trkpt><trkpt lat="45.75253683393268" lon="-0.091640579648316"><ele>149.0</ele><time>2026-05-01T13:43:43Z</time></trkpt><trkpt lat="45.75249246316248" lon="-0.09147563920572087"><ele>150.0</ele><time>2026-05-01T13:43:44Z</time></trkpt><trkpt lat="45.752467579436164" lon="-0.09132001120008072"><ele>150.4</ele><time>2026-05-01T13:43:45Z</time></trkpt><trkpt lat="45.752420108361775" lon="-0.09119227627199514"><ele>150.8</ele><time>2026-05-01T13:43:46Z</time></trkpt><trkpt lat="45.75238795527754" lon="-0.09106635522474718"><ele>151.2</ele><time>2026-05-01T13:43:47Z</time></trkpt><trkpt lat="45.75235820450815" lon="-0.09094984238734775"><ele>151.6</ele><time>2026-05-01T13:43:48Z</time></trkpt><trkpt lat="45.752327969278596" lon="-0.09083143216662258"><ele>152.0</ele><time>2026-05-01T13:43:49Z</time></trkpt><trkpt lat="45.75229805993328" lon="-0.09071429831913494"><ele>152.0</ele><time>2026-05-01T13:43:50Z</time></trkpt><trkpt lat="45.75228727311888" lon="-0.09061506630731002"><ele>152.0</ele><time>2026-05-01T13:43:51Z</time></trkpt><trkpt lat="45.75224615251649" lon="-0.09051678396325077"><ele>152.0</ele><time>2026-05-01T13:43:54Z</time></trkpt><trkpt lat="45.752215084913814" lon="-0.09041420363666376"><ele>152.0</ele><time>2026-05-01T13:43:56Z</time></trkpt><trkpt lat="45.752143095221" lon="-0.09031062109810092"><ele>152.0</ele><time>2026-05-01T13:43:58Z</time></trkpt><trkpt lat="45.75199534891455" lon="-0.09033612402393738"><ele>152.0</ele><time>2026-05-01T13:44:00Z</time></trkpt><trkpt lat="45.75188818651966" lon="-0.09034186741418135"><ele>152.0</ele><time>2026-05-01T13:44:01Z</time></trkpt><trkpt lat="45.75176514635228" lon="-0.09033238030222618"><ele>152.0</ele><time>2026-05-01T13:44:02Z</time></trkpt><trkpt lat="45.75163159390168" lon="-0.09034760499728581"><ele>152.0</ele><time>2026-05-01T13:44:03Z</time></trkpt><trkpt lat="45.75150147811117" lon="-0.09035283227664523"><ele>151.5</ele><time>2026-05-01T13:44:04Z</time></trkpt><trkpt lat="45.75135975684382" lon="-0.09035086222039342"><ele>151.0</ele><time>2026-05-01T13:44:05Z</time></trkpt><trkpt lat="45.75122006154142" lon="-0.09034932934623252"><ele>150.5</ele><time>2026-05-01T13:44:06Z</time></trkpt><trkpt lat="45.75107418014374" lon="-0.09035521895427043"><ele>150.0</ele><time>2026-05-01T13:44:07Z</time></trkpt><trkpt lat="45.75092939466399" lon="-0.09036036866478353"><ele>149.0</ele><time>2026-05-01T13:44:08Z</time></trkpt><trkpt lat="45.75078677895114" lon="-0.0903619353543751"><ele>148.0</ele><time>2026-05-01T13:44:09Z</time></trkpt><trkpt lat="45.750645403645" lon="-0.09036466266580506"><ele>147.0</ele><time>2026-05-01T13:44:10Z</time></trkpt><trkpt lat="45.750502525449036" lon="-0.0903673449076886"><ele>146.0</ele><time>2026-05-01T13:44:11Z</time></trkpt><trkpt lat="45.750360418433694" lon="-0.09036900685061347"><ele>146.0</ele><time>2026-05-01T13:44:12Z</time></trkpt><trkpt lat="45.75021934300674" lon="-0.09036637138027005"><ele>146.0</ele><time>2026-05-01T13:44:13Z</time></trkpt><trkpt lat="45.75008215442579" lon="-0.09036571794676497"><ele>146.0</ele><time>2026-05-01T13:44:14Z</time></trkpt><trkpt lat="45.749943237870774" lon="-0.09039045390591101"><ele>146.0</ele><time>2026-05-01T13:44:15Z</time></trkpt><trkpt lat="45.749805020122025" lon="-0.09039727700956725"><ele>145.5</ele><time>2026-05-01T13:44:16Z</time></trkpt><trkpt lat="45.74966482431316" lon="-0.09041402605835736"><ele>145.0</ele><time>2026-05-01T13:44:17Z</time></trkpt><trkpt lat="45.74952329996743" lon="-0.0904371294796373"><ele>144.5</ele><time>2026-05-01T13:44:18Z</time></trkpt><trkpt lat="45.74938187651699" lon="-0.09044515011229601"><ele>144.0</ele><time>2026-05-01T13:44:19Z</time></trkpt><trkpt lat="45.74924193371093" lon="-0.09048087446491741"><ele>143.0</ele><time>2026-05-01T13:44:20Z</time></trkpt><trkpt lat="45.74910558155484" lon="-0.09052209373440674"><ele>142.0</ele><time>2026-05-01T13:44:21Z</time></trkpt><trkpt lat="45.748965353875185" lon="-0.09055920553818643"><ele>141.0</ele><time>2026-05-01T13:44:22Z</time></trkpt><trkpt lat="45.74883649871817" lon="-0.09059562869150557"><ele>140.0</ele><time>2026-05-01T13:44:23Z</time></trkpt><trkpt lat="45.74869103442353" lon="-0.09063969572356192"><ele>140.0</ele><time>2026-05-01T13:44:24Z</time></trkpt><trkpt lat="45.748551617654634" lon="-0.09068142540133375"><ele>140.0</ele><time>2026-05-01T13:44:25Z</time></trkpt><trkpt lat="45.74841321535073" lon="-0.09071742186908188"><ele>140.0</ele><time>2026-05-01T13:44:26Z</time></trkpt><trkpt lat="45.74827487281114" lon="-0.09074009751201058"><ele>140.0</ele><time>2026-05-01T13:44:27Z</time></trkpt><trkpt lat="45.74813857944984" lon="-0.09074143397126887"><ele>139.0</ele><time>2026-05-01T13:44:28Z</time></trkpt><trkpt lat="45.74799747695894" lon="-0.0907173355987813"><ele>138.0</ele><time>2026-05-01T13:44:29Z</time></trkpt><trkpt lat="45.74785534511695" lon="-0.09068780811401242"><ele>137.0</ele><time>2026-05-01T13:44:30Z</time></trkpt><trkpt lat="45.747720239813475" lon="-0.09064434286865498"><ele>136.0</ele><time>2026-05-01T13:44:31.001Z</time></trkpt><trkpt lat="45.747583631239586" lon="-0.09059318249500915"><ele>135.5</ele><time>2026-05-01T13:44:32.001Z</time></trkpt><trkpt lat="45.74745101717117" lon="-0.09055676591178176"><ele>135.0</ele><time>2026-05-01T13:44:33.001Z</time></trkpt><trkpt lat="45.74731527102026" lon="-0.0904819729989036"><ele>134.5</ele><time>2026-05-01T13:44:34.001Z</time></trkpt><trkpt lat="45.74718106368148" lon="-0.09043656116847994"><ele>134.0</ele><time>2026-05-01T13:44:35.001Z</time></trkpt><trkpt lat="45.74705151392469" lon="-0.09038977784655111"><ele>134.0</ele><time>2026-05-01T13:44:36.001Z</time></trkpt><trkpt lat="45.7469101194407" lon="-0.090334895671708"><ele>134.0</ele><time>2026-05-01T13:44:37.001Z</time></trkpt><trkpt lat="45.74676890904452" lon="-0.09027557626288353"><ele>134.0</ele><time>2026-05-01T13:44:38.001Z</time></trkpt><trkpt lat="45.746634708681306" lon="-0.09022784203756763"><ele>134.0</ele><time>2026-05-01T13:44:39.001Z</time></trkpt><trkpt lat="45.74650685039611" lon="-0.09018882155150756"><ele>132.75</ele><time>2026-05-01T13:44:40.001Z</time></trkpt><trkpt lat="45.74638690310196" lon="-0.09016722732718035"><ele>131.5</ele><time>2026-05-01T13:44:41.001Z</time></trkpt><trkpt lat="45.7462619592479" lon="-0.09016662843931889"><ele>130.25</ele><time>2026-05-01T13:44:42.001Z</time></trkpt><trkpt lat="45.74614380233304" lon="-0.09018423798920937"><ele>129.0</ele><time>2026-05-01T13:44:43.001Z</time></trkpt><trkpt lat="45.74603401914905" lon="-0.0902057259758033"><ele>128.25</ele><time>2026-05-01T13:44:44.001Z</time></trkpt><trkpt lat="45.74591758836242" lon="-0.09023331880217922"><ele>127.5</ele><time>2026-05-01T13:44:45.001Z</time></trkpt><trkpt lat="45.74579956549483" lon="-0.09026294785766477"><ele>126.75</ele><time>2026-05-01T13:44:46.001Z</time></trkpt><trkpt lat="45.74568152008525" lon="-0.09031771125226445"><ele>126.0</ele><time>2026-05-01T13:44:47.001Z</time></trkpt><trkpt lat="45.74556293867684" lon="-0.09035512332269445"><ele>126.0</ele><time>2026-05-01T13:44:48.001Z</time></trkpt><trkpt lat="45.745447168442794" lon="-0.09039196775226827"><ele>126.0</ele><time>2026-05-01T13:44:49.001Z</time></trkpt><trkpt lat="45.74533677201379" lon="-0.09042710193937938"><ele>126.0</ele><time>2026-05-01T13:44:50.001Z</time></trkpt><trkpt lat="45.74522602258207" lon="-0.090453161030808"><ele>126.0</ele><time>2026-05-01T13:44:51.001Z</time></trkpt><trkpt lat="45.74511101551937" lon="-0.09049005225865454"><ele>124.75</ele><time>2026-05-01T13:44:52.001Z</time></trkpt><trkpt lat="45.74498769357358" lon="-0.09050710824542967"><ele>123.5</ele><time>2026-05-01T13:44:53.001Z</time></trkpt><trkpt lat="45.74486634341826" lon="-0.0905201196266572"><ele>122.25</ele><time>2026-05-01T13:44:54.001Z</time></trkpt><trkpt lat="45.74475212292158" lon="-0.09053233425110063"><ele>121.0</ele><time>2026-05-01T13:44:55.001Z</time></trkpt><trkpt lat="45.744630998962045" lon="-0.0905667548235007"><ele>121.0</ele><time>2026-05-01T13:44:56.001Z</time></trkpt><trkpt lat="45.74452189916968" lon="-0.0905627869911084"><ele>121.0</ele><time>2026-05-01T13:44:57.001Z</time></trkpt><trkpt lat="45.74441084202661" lon="-0.0905830475027025"><ele>121.0</ele><time>2026-05-01T13:44:58.001Z</time></trkpt><trkpt lat="45.74430378114639" lon="-0.09061060229453376"><ele>121.0</ele><time>2026-05-01T13:44:59.001Z</time></trkpt><trkpt lat="45.74422056632669" lon="-0.09066785794759737"><ele>121.0</ele><time>2026-05-01T13:45:00.001Z</time></trkpt><trkpt lat="45.74414341051524" lon="-0.09068031077929205"><ele>119.83333333333334</ele><time>2026-05-01T13:45:01.001Z</time></trkpt><trkpt lat="45.7440705562442" lon="-0.09070063287399262"><ele>118.66666666666667</ele><time>2026-05-01T13:45:02.001Z</time></trkpt><trkpt lat="45.743999305385366" lon="-0.09065619610736733"><ele>117.5</ele><time>2026-05-01T13:45:03.001Z</time></trkpt><trkpt lat="45.743935641078224" lon="-0.0906082566834617"><ele>116.33333333333334</ele><time>2026-05-01T13:45:04.001Z</time></trkpt><trkpt lat="45.74384537730533" lon="-0.09057339010646258"><ele>115.16666666666667</ele><time>2026-05-01T13:45:06.001Z</time></trkpt><trkpt lat="45.74376855096455" lon="-0.0904408328542316"><ele>114.0</ele><time>2026-05-01T13:45:09.001Z</time></trkpt><trkpt lat="45.74373224518017" lon="-0.09034018372601275"><ele>114.0</ele><time>2026-05-01T13:45:10.001Z</time></trkpt><trkpt lat="45.74369729782942" lon="-0.09021727111976176"><ele>114.0</ele><time>2026-05-01T13:45:11.001Z</time></trkpt><trkpt lat="45.74368309883746" lon="-0.09009174987325115"><ele>114.0</ele><time>2026-05-01T13:45:12.001Z</time></trkpt><trkpt lat="45.743644328040915" lon="-0.08999773350384259"><ele>114.0</ele><time>2026-05-01T13:45:13.001Z</time></trkpt><trkpt lat="45.743602031892834" lon="-0.0899023109801506"><ele>114.0</ele><time>2026-05-01T13:45:14.001Z</time></trkpt><trkpt lat="45.74355680199049" lon="-0.08980368584521754"><ele>114.0</ele><time>2026-05-01T13:45:15.001Z</time></trkpt><trkpt lat="45.743512259707686" lon="-0.08970803535715524"><ele>111.83333333333333</ele><time>2026-05-01T13:45:16.001Z</time></trkpt><trkpt lat="45.743468928263496" lon="-0.08961322918549908"><ele>109.66666666666666</ele><time>2026-05-01T13:45:17.001Z</time></trkpt><trkpt lat="45.743427924979244" lon="-0.08952010446914051"><ele>107.5</ele><time>2026-05-01T13:45:18.001Z</time></trkpt><trkpt lat="45.74337916824629" lon="-0.08943609078782974"><ele>105.33333333333333</ele><time>2026-05-01T13:45:19.001Z</time></trkpt><trkpt lat="45.74327010367103" lon="-0.08934434731729302"><ele>103.16666666666666</ele><time>2026-05-01T13:45:21.001Z</time></trkpt><trkpt lat="45.74321160269382" lon="-0.0893013323242523"><ele>101.0</ele><time>2026-05-01T13:45:22.001Z</time></trkpt><trkpt lat="45.743155610168984" lon="-0.08925299533458708"><ele>101.0</ele><time>2026-05-01T13:45:23.001Z</time></trkpt><trkpt lat="45.74305691458099" lon="-0.08913993891696706"><ele>101.0</ele><time>2026-05-01T13:45:25.001Z</time></trkpt><trkpt lat="45.7429886394449" lon="-0.08904646642271888"><ele>101.0</ele><time>2026-05-01T13:45:27.001Z</time></trkpt><trkpt lat="45.74293449879017" lon="-0.08897546261477979"><ele>101.0</ele><time>2026-05-01T13:45:30.001Z</time></trkpt><trkpt lat="45.74296625148409" lon="-0.08883307411998252"><ele>101.0</ele><time>2026-05-01T13:45:37Z</time></trkpt><trkpt lat="45.74304093142234" lon="-0.08873581533540405"><ele>99.25</ele><time>2026-05-01T13:45:38Z</time></trkpt><trkpt lat="45.74313897347984" lon="-0.0886472753003741"><ele>97.5</ele><time>2026-05-01T13:45:39Z</time></trkpt><trkpt lat="45.743238240473346" lon="-0.0885341505997071"><ele>95.75</ele><time>2026-05-01T13:45:40Z</time></trkpt><trkpt lat="45.74331387711905" lon="-0.0884133592603086"><ele>94.0</ele><time>2026-05-01T13:45:41Z</time></trkpt><trkpt lat="45.74338849861397" lon="-0.08829880394731808"><ele>93.4</ele><time>2026-05-01T13:45:42Z</time></trkpt><trkpt lat="45.74343961291164" lon="-0.08817446334834259"><ele>92.80000000000001</ele><time>2026-05-01T13:45:43Z</time></trkpt><trkpt lat="45.74346041163052" lon="-0.08804778150870535"><ele>92.19999999999999</ele><time>2026-05-01T13:45:44Z</time></trkpt><trkpt lat="45.743473995654384" lon="-0.0879176779681084"><ele>91.6</ele><time>2026-05-01T13:45:45Z</time></trkpt><trkpt lat="45.74340479897553" lon="-0.08779591887053788"><ele>91.0</ele><time>2026-05-01T13:45:46Z</time></trkpt><trkpt lat="45.743359336139044" lon="-0.08762983166476188"><ele>92.0</ele><time>2026-05-01T13:45:47Z</time></trkpt><trkpt lat="45.74330424457221" lon="-0.08740313779072667"><ele>93.0</ele><time>2026-05-01T13:45:48Z</time></trkpt><trkpt lat="45.74322009885765" lon="-0.08716746333467736"><ele>94.0</ele><time>2026-05-01T13:45:49Z</time></trkpt><trkpt lat="45.74314623647236" lon="-0.08689185931625583"><ele>94.0</ele><time>2026-05-01T13:45:50Z</time></trkpt><trkpt lat="45.743071931115054" lon="-0.08667560010532355"><ele>94.0</ele><time>2026-05-01T13:45:51Z</time></trkpt><trkpt lat="45.743012505887734" lon="-0.08649099030094627"><ele>94.0</ele><time>2026-05-01T13:45:52Z</time></trkpt><trkpt lat="45.742996613777" lon="-0.08633976987921313"><ele>94.0</ele><time>2026-05-01T13:45:53Z</time></trkpt><trkpt lat="45.74298914522464" lon="-0.08619625781156733"><ele>95.6</ele><time>2026-05-01T13:45:54Z</time></trkpt><trkpt lat="45.742991430332104" lon="-0.08606828173659829"><ele>97.2</ele><time>2026-05-01T13:45:55Z</time></trkpt><trkpt lat="45.74306907364585" lon="-0.08596902246306089"><ele>98.8</ele><time>2026-05-01T13:45:57Z</time></trkpt><trkpt lat="45.74313799701427" lon="-0.08592810324392408"><ele>100.39999999999999</ele><time>2026-05-01T13:45:58Z</time></trkpt><trkpt lat="45.743223070879594" lon="-0.08588387785680394"><ele>102.0</ele><time>2026-05-01T13:45:59Z</time></trkpt><trkpt lat="45.74333145153885" lon="-0.08581575529458282"><ele>103.5</ele><time>2026-05-01T13:46:00Z</time></trkpt><trkpt lat="45.74343953023456" lon="-0.08574832265684505"><ele>105.0</ele><time>2026-05-01T13:46:01Z</time></trkpt><trkpt lat="45.743518903523466" lon="-0.08568605659235201"><ele>106.5</ele><time>2026-05-01T13:46:02Z</time></trkpt><trkpt lat="45.74358283244126" lon="-0.08562845989750312"><ele>108.0</ele><time>2026-05-01T13:46:03Z</time></trkpt><trkpt lat="45.74348873359199" lon="-0.08492025173485031"><ele>109.60000000000001</ele><time>2026-05-01T13:46:05Z</time></trkpt><trkpt lat="45.74352481686291" lon="-0.08477230686819899"><ele>111.20000000000002</ele><time>2026-05-01T13:46:06Z</time></trkpt><trkpt lat="45.743575195190175" lon="-0.08465344259602392"><ele>112.8</ele><time>2026-05-01T13:46:07Z</time></trkpt><trkpt lat="45.743632435073245" lon="-0.08454949785072013"><ele>114.4</ele><time>2026-05-01T13:46:08Z</time></trkpt><trkpt lat="45.74369043576877" lon="-0.08443314822390956"><ele>116.0</ele><time>2026-05-01T13:46:09Z</time></trkpt><trkpt lat="45.74375395232173" lon="-0.08431970755228904"><ele>115.99999999999999</ele><time>2026-05-01T13:46:10Z</time></trkpt><trkpt lat="45.743792831834874" lon="-0.08421895117846294"><ele>116.0</ele><time>2026-05-01T13:46:11Z</time></trkpt><trkpt lat="45.743824373406994" lon="-0.08410903890929453"><ele>116.0</ele><time>2026-05-01T13:46:12Z</time></trkpt><trkpt lat="45.74382336692939" lon="-0.08398088283444037"><ele>116.0</ele><time>2026-05-01T13:46:13Z</time></trkpt><trkpt lat="45.74382046170582" lon="-0.08385199203271945"><ele>115.99999999999999</ele><time>2026-05-01T13:46:14Z</time></trkpt><trkpt lat="45.74380596292367" lon="-0.08371630051326373"><ele>116.0</ele><time>2026-05-01T13:46:15Z</time></trkpt><trkpt lat="45.74379902470442" lon="-0.0835817222298087"><ele>117.8</ele><time>2026-05-01T13:46:16Z</time></trkpt><trkpt lat="45.74382753623611" lon="-0.08346375036132792"><ele>119.6</ele><time>2026-05-01T13:46:17Z</time></trkpt><trkpt lat="45.74387759385972" lon="-0.08332940964216444"><ele>121.4</ele><time>2026-05-01T13:46:18Z</time></trkpt><trkpt lat="45.743966511671445" lon="-0.0831991705667748"><ele>123.2</ele><time>2026-05-01T13:46:19Z</time></trkpt><trkpt lat="45.744045711837494" lon="-0.08307798756339166"><ele>125.0</ele><time>2026-05-01T13:46:20Z</time></trkpt><trkpt lat="45.74408539230645" lon="-0.08298065882739193"><ele>126.2</ele><time>2026-05-01T13:46:21Z</time></trkpt><trkpt lat="45.744097367875874" lon="-0.08288696744975538"><ele>127.4</ele><time>2026-05-01T13:46:22Z</time></trkpt><trkpt lat="45.74408307738618" lon="-0.08276136335730243"><ele>128.6</ele><time>2026-05-01T13:46:23Z</time></trkpt><trkpt lat="45.744060825768415" lon="-0.08261094451252181"><ele>129.8</ele><time>2026-05-01T13:46:24Z</time></trkpt><trkpt lat="45.744036705259965" lon="-0.08243382408740532"><ele>131.0</ele><time>2026-05-01T13:46:25Z</time></trkpt><trkpt lat="45.744016081519426" lon="-0.0822280208226568"><ele>132.4</ele><time>2026-05-01T13:46:26Z</time></trkpt><trkpt lat="45.7439940238262" lon="-0.08205164610602093"><ele>133.8</ele><time>2026-05-01T13:46:27Z</time></trkpt><trkpt lat="45.7439657672319" lon="-0.08191128822032559"><ele>135.20000000000002</ele><time>2026-05-01T13:46:28Z</time></trkpt><trkpt lat="45.74393651514571" lon="-0.08178669498266021"><ele>136.6</ele><time>2026-05-01T13:46:29Z</time></trkpt><trkpt lat="45.743912838115236" lon="-0.08167132446838746"><ele>138.0</ele><time>2026-05-01T13:46:30Z</time></trkpt><trkpt lat="45.74387557216293" lon="-0.08152334786239651"><ele>138.33333333333334</ele><time>2026-05-01T13:46:31Z</time></trkpt><trkpt lat="45.74384574699232" lon="-0.08140190192329723"><ele>138.66666666666666</ele><time>2026-05-01T13:46:32Z</time></trkpt><trkpt lat="45.74382308826489" lon="-0.08130603822335032"><ele>139.0</ele><time>2026-05-01T13:46:33Z</time></trkpt><trkpt lat="45.74381191262732" lon="-0.08121071396101422"><ele>139.33333333333331</ele><time>2026-05-01T13:46:34Z</time></trkpt><trkpt lat="45.74380282213917" lon="-0.0810862214530837"><ele>139.66666666666666</ele><time>2026-05-01T13:46:35Z</time></trkpt><trkpt lat="45.743783604425886" lon="-0.08093539814244773"><ele>140.0</ele><time>2026-05-01T13:46:36Z</time></trkpt><trkpt lat="45.7437462759437" lon="-0.08076556666973322"><ele>140.75</ele><time>2026-05-01T13:46:37Z</time></trkpt><trkpt lat="45.74375676846928" lon="-0.08058857945276271"><ele>141.5</ele><time>2026-05-01T13:46:38Z</time></trkpt><trkpt lat="45.74377531698407" lon="-0.08039734641650176"><ele>142.25</ele><time>2026-05-01T13:46:39Z</time></trkpt><trkpt lat="45.74379269430616" lon="-0.08023381751967186"><ele>143.0</ele><time>2026-05-01T13:46:40Z</time></trkpt><trkpt lat="45.74380856136693" lon="-0.08008531621658152"><ele>143.0</ele><time>2026-05-01T13:46:41Z</time></trkpt><trkpt lat="45.74382267868468" lon="-0.07995100850842121"><ele>143.0</ele><time>2026-05-01T13:46:42Z</time></trkpt><trkpt lat="45.74383736697745" lon="-0.07979791479832986"><ele>143.0</ele><time>2026-05-01T13:46:43Z</time></trkpt><trkpt lat="45.743854366944056" lon="-0.07962072636305095"><ele>143.0</ele><time>2026-05-01T13:46:44Z</time></trkpt><trkpt lat="45.74388951394429" lon="-0.07941815107843261"><ele>144.0</ele><time>2026-05-01T13:46:45Z</time></trkpt><trkpt lat="45.743903961548696" lon="-0.07917794982175684"><ele>145.0</ele><time>2026-05-01T13:46:46Z</time></trkpt><trkpt lat="45.74389683966774" lon="-0.07897054945773274"><ele>146.0</ele><time>2026-05-01T13:46:47Z</time></trkpt><trkpt lat="45.7438735405455" lon="-0.0787443262793393"><ele>146.66666666666666</ele><time>2026-05-01T13:46:48Z</time></trkpt><trkpt lat="45.74381556831318" lon="-0.07855117039769062"><ele>147.33333333333334</ele><time>2026-05-01T13:46:49Z</time></trkpt><trkpt lat="45.74376629392984" lon="-0.0783415167227199"><ele>148.0</ele><time>2026-05-01T13:46:50Z</time></trkpt><trkpt lat="45.74368404551712" lon="-0.0781304074939472"><ele>148.0</ele><time>2026-05-01T13:46:51Z</time></trkpt><trkpt lat="45.743601373906934" lon="-0.07792023825130286"><ele>148.0</ele><time>2026-05-01T13:46:52Z</time></trkpt><trkpt lat="45.743516437738776" lon="-0.07770555326234636"><ele>148.0</ele><time>2026-05-01T13:46:53Z</time></trkpt><trkpt lat="45.7434337545061" lon="-0.07748580795719329"><ele>147.66666666666669</ele><time>2026-05-01T13:46:54Z</time></trkpt><trkpt lat="45.7433483377836" lon="-0.07725426678621754"><ele>147.33333333333334</ele><time>2026-05-01T13:46:55.001Z</time></trkpt><trkpt lat="45.74327831854148" lon="-0.07705321282248699"><ele>147.0</ele><time>2026-05-01T13:46:56.001Z</time></trkpt><trkpt lat="45.74321673508074" lon="-0.07686861697997757"><ele>147.0</ele><time>2026-05-01T13:46:57.001Z</time></trkpt><trkpt lat="45.74317399847024" lon="-0.07672024359394512"><ele>147.0</ele><time>2026-05-01T13:46:58.001Z</time></trkpt><trkpt lat="45.743149000711924" lon="-0.07659120620093704"><ele>147.0</ele><time>2026-05-01T13:46:59.001Z</time></trkpt><trkpt lat="45.74313289976179" lon="-0.07645488174498827"><ele>147.0</ele><time>2026-05-01T13:47:00.001Z</time></trkpt><trkpt lat="45.74310323544903" lon="-0.07630517871530866"><ele>147.0</ele><time>2026-05-01T13:47:01.001Z</time></trkpt><trkpt lat="45.74309293216904" lon="-0.07614700895545665"><ele>146.25</ele><time>2026-05-01T13:47:02.001Z</time></trkpt><trkpt lat="45.74312276527732" lon="-0.07596609755615527"><ele>145.5</ele><time>2026-05-01T13:47:03.001Z</time></trkpt><trkpt lat="45.74313421650097" lon="-0.07578225697227939"><ele>144.75</ele><time>2026-05-01T13:47:04.001Z</time></trkpt><trkpt lat="45.743139418534874" lon="-0.07559296886477837"><ele>144.0</ele><time>2026-05-01T13:47:05.001Z</time></trkpt><trkpt lat="45.74317762301268" lon="-0.07540112983920101"><ele>143.5</ele><time>2026-05-01T13:47:06.001Z</time></trkpt><trkpt lat="45.74317465563983" lon="-0.07520318042435618"><ele>143.0</ele><time>2026-05-01T13:47:07.001Z</time></trkpt><trkpt lat="45.743167318887934" lon="-0.07501195158873661"><ele>142.5</ele><time>2026-05-01T13:47:08.001Z</time></trkpt><trkpt lat="45.74316543794031" lon="-0.07481735685865319"><ele>142.0</ele><time>2026-05-01T13:47:09.001Z</time></trkpt><trkpt lat="45.74313002681142" lon="-0.0746314720155414"><ele>142.0</ele><time>2026-05-01T13:47:10.001Z</time></trkpt><trkpt lat="45.74311934367135" lon="-0.07444273570226681"><ele>142.0</ele><time>2026-05-01T13:47:11.001Z</time></trkpt><trkpt lat="45.74309616076364" lon="-0.07425263305371377"><ele>142.0</ele><time>2026-05-01T13:47:12.001Z</time></trkpt><trkpt lat="45.74307100250028" lon="-0.07406458192677548"><ele>142.0</ele><time>2026-05-01T13:47:13.001Z</time></trkpt><trkpt lat="45.74305070782239" lon="-0.07387786767570213"><ele>142.75</ele><time>2026-05-01T13:47:14.001Z</time></trkpt><trkpt lat="45.74301835369071" lon="-0.07368427463658338"><ele>143.5</ele><time>2026-05-01T13:47:15.001Z</time></trkpt><trkpt lat="45.74300071641002" lon="-0.07348418515827557"><ele>144.25</ele><time>2026-05-01T13:47:16.001Z</time></trkpt><trkpt lat="45.74297610048616" lon="-0.07328608803245461"><ele>145.0</ele><time>2026-05-01T13:47:17.001Z</time></trkpt><trkpt lat="45.74294910872682" lon="-0.07308875813133248"><ele>145.75</ele><time>2026-05-01T13:47:18.001Z</time></trkpt><trkpt lat="45.74292338541956" lon="-0.07288887880431501"><ele>146.5</ele><time>2026-05-01T13:47:19.001Z</time></trkpt><trkpt lat="45.74290237757672" lon="-0.07269576951830549"><ele>147.25</ele><time>2026-05-01T13:47:20.001Z</time></trkpt><trkpt lat="45.74288190014005" lon="-0.07250946356448794"><ele>148.0</ele><time>2026-05-01T13:47:21.001Z</time></trkpt><trkpt lat="45.74285525118489" lon="-0.07234776363420226"><ele>148.25</ele><time>2026-05-01T13:47:22.001Z</time></trkpt><trkpt lat="45.74283366232136" lon="-0.07216885753533085"><ele>148.5</ele><time>2026-05-01T13:47:23.001Z</time></trkpt><trkpt lat="45.74281127997705" lon="-0.07200814107374687"><ele>148.75</ele><time>2026-05-01T13:47:24.001Z</time></trkpt><trkpt lat="45.742755508791326" lon="-0.07185670660986666"><ele>149.0</ele><time>2026-05-01T13:47:25.001Z</time></trkpt><trkpt lat="45.74271040226999" lon="-0.07169115301719818"><ele>147.75</ele><time>2026-05-01T13:47:26.001Z</time></trkpt><trkpt lat="45.742638541583865" lon="-0.07155410446194557"><ele>146.5</ele><time>2026-05-01T13:47:27.001Z</time></trkpt><trkpt lat="45.74255232222393" lon="-0.07142927654648788"><ele>145.25</ele><time>2026-05-01T13:47:28.001Z</time></trkpt><trkpt lat="45.74245544884697" lon="-0.07130343134700745"><ele>144.0</ele><time>2026-05-01T13:47:29.001Z</time></trkpt><trkpt lat="45.74234451293036" lon="-0.07118865890145594"><ele>144.0</ele><time>2026-05-01T13:47:30.001Z</time></trkpt><trkpt lat="45.742237467919885" lon="-0.07107794954472223"><ele>144.0</ele><time>2026-05-01T13:47:31.001Z</time></trkpt><trkpt lat="45.74213230310765" lon="-0.07095525039661166"><ele>144.0</ele><time>2026-05-01T13:47:32.001Z</time></trkpt><trkpt lat="45.7420217173557" lon="-0.07083409681461374"><ele>144.0</ele><time>2026-05-01T13:47:33.001Z</time></trkpt><trkpt lat="45.741908824527606" lon="-0.07071752816174161"><ele>144.25</ele><time>2026-05-01T13:47:34.001Z</time></trkpt><trkpt lat="45.741801648290085" lon="-0.07059372378210539"><ele>144.5</ele><time>2026-05-01T13:47:35.001Z</time></trkpt><trkpt lat="45.74169267894616" lon="-0.0704724416851343"><ele>144.75</ele><time>2026-05-01T13:47:36.001Z</time></trkpt><trkpt lat="45.74158293282073" lon="-0.07035024076911267"><ele>145.0</ele><time>2026-05-01T13:47:37.001Z</time></trkpt><trkpt lat="45.74147167975778" lon="-0.07022547914958596"><ele>145.0</ele><time>2026-05-01T13:47:38.001Z</time></trkpt><trkpt lat="45.741358180083004" lon="-0.07009952905894412"><ele>145.0</ele><time>2026-05-01T13:47:39.001Z</time></trkpt><trkpt lat="45.7412487191228" lon="-0.06997991584994107"><ele>145.0</ele><time>2026-05-01T13:47:40Z</time></trkpt><trkpt lat="45.74113688892694" lon="-0.069864878267751"><ele>145.0</ele><time>2026-05-01T13:47:41Z</time></trkpt><trkpt lat="45.741018951343364" lon="-0.0697676429775947"><ele>145.5</ele><time>2026-05-01T13:47:42Z</time></trkpt><trkpt lat="45.74089273641519" lon="-0.06969094808710874"><ele>146.0</ele><time>2026-05-01T13:47:43Z</time></trkpt><trkpt lat="45.74076663924714" lon="-0.0696325305487244"><ele>146.5</ele><time>2026-05-01T13:47:44Z</time></trkpt><trkpt lat="45.74063405222564" lon="-0.06958749041839155"><ele>147.0</ele><time>2026-05-01T13:47:45Z</time></trkpt><trkpt lat="45.74050385424333" lon="-0.0695483508986411"><ele>147.0</ele><time>2026-05-01T13:47:46Z</time></trkpt><trkpt lat="45.74036840510923" lon="-0.06952353720018065"><ele>147.0</ele><time>2026-05-01T13:47:47Z</time></trkpt><trkpt lat="45.74023046167459" lon="-0.0695157901077068"><ele>147.0</ele><time>2026-05-01T13:47:48Z</time></trkpt><trkpt lat="45.740089220017715" lon="-0.06951736402451657"><ele>147.0</ele><time>2026-05-01T13:47:49Z</time></trkpt><trkpt lat="45.739949879788284" lon="-0.06951740192488295"><ele>146.75</ele><time>2026-05-01T13:47:50Z</time></trkpt><trkpt lat="45.7398125790725" lon="-0.06951346467071702"><ele>146.5</ele><time>2026-05-01T13:47:51Z</time></trkpt><trkpt lat="45.73968144594994" lon="-0.06950447506141047"><ele>146.25</ele><time>2026-05-01T13:47:52Z</time></trkpt><trkpt lat="45.739567786585454" lon="-0.0694941243243063"><ele>146.0</ele><time>2026-05-01T13:47:53Z</time></trkpt><trkpt lat="45.73945790792593" lon="-0.06946613564758304"><ele>145.6</ele><time>2026-05-01T13:47:54Z</time></trkpt><trkpt lat="45.73935797076777" lon="-0.06942728187065511"><ele>145.2</ele><time>2026-05-01T13:47:55Z</time></trkpt><trkpt lat="45.739282305270685" lon="-0.06939865374788376"><ele>144.8</ele><time>2026-05-01T13:47:56Z</time></trkpt><trkpt lat="45.73921032520253" lon="-0.06937810495129636"><ele>144.4</ele><time>2026-05-01T13:47:58Z</time></trkpt><trkpt lat="45.73917917035807" lon="-0.06955537304453695"><ele>144.0</ele><time>2026-05-01T13:47:59Z</time></trkpt><trkpt lat="45.739123610463174" lon="-0.06968912833483784"><ele>144.0</ele><time>2026-05-01T13:48:00Z</time></trkpt><trkpt lat="45.73904275857819" lon="-0.06982695144226256"><ele>144.0</ele><time>2026-05-01T13:48:01Z</time></trkpt><trkpt lat="45.73896680454319" lon="-0.06996228107227268"><ele>144.0</ele><time>2026-05-01T13:48:02Z</time></trkpt><trkpt lat="45.73888046696942" lon="-0.07007818538121213"><ele>144.0</ele><time>2026-05-01T13:48:03Z</time></trkpt><trkpt lat="45.73879271816698" lon="-0.07018036321165101"><ele>143.0</ele><time>2026-05-01T13:48:04Z</time></trkpt><trkpt lat="45.738712114953785" lon="-0.07027876691947556"><ele>142.0</ele><time>2026-05-01T13:48:05Z</time></trkpt><trkpt lat="45.73864298632152" lon="-0.07037342701008377"><ele>141.0</ele><time>2026-05-01T13:48:06Z</time></trkpt><trkpt lat="45.73856639201021" lon="-0.07046059619089405"><ele>140.0</ele><time>2026-05-01T13:48:07Z</time></trkpt><trkpt lat="45.738496448041815" lon="-0.0705401821975938"><ele>139.0</ele><time>2026-05-01T13:48:08Z</time></trkpt><trkpt lat="45.738425236271844" lon="-0.0706241311057603"><ele>139.0</ele><time>2026-05-01T13:48:09Z</time></trkpt><trkpt lat="45.73835498686421" lon="-0.07071111970053863"><ele>139.0</ele><time>2026-05-01T13:48:11Z</time></trkpt><trkpt lat="45.73828894847663" lon="-0.07066350195295379"><ele>139.0</ele><time>2026-05-01T13:48:12Z</time></trkpt><trkpt lat="45.73822949074761" lon="-0.07061491312041694"><ele>139.0</ele><time>2026-05-01T13:48:13Z</time></trkpt><trkpt lat="45.73817217182645" lon="-0.070529448082642"><ele>139.0</ele><time>2026-05-01T13:48:14Z</time></trkpt><trkpt lat="45.7381089968179" lon="-0.07045108005323371"><ele>139.0</ele><time>2026-05-01T13:48:15Z</time></trkpt><trkpt lat="45.738054589913986" lon="-0.07035571496073457"><ele>139.0</ele><time>2026-05-01T13:48:16Z</time></trkpt><trkpt lat="45.7379997877358" lon="-0.07026239718487058"><ele>139.0</ele><time>2026-05-01T13:48:17Z</time></trkpt><trkpt lat="45.73795067674849" lon="-0.07016010566316194"><ele>139.0</ele><time>2026-05-01T13:48:18Z</time></trkpt><trkpt lat="45.73791027637618" lon="-0.07005456187529056"><ele>139.0</ele><time>2026-05-01T13:48:19Z</time></trkpt><trkpt lat="45.737863883819074" lon="-0.0699843382210419"><ele>139.0</ele><time>2026-05-01T13:48:20Z</time></trkpt><trkpt lat="45.73779765207801" lon="-0.0699351055978656"><ele>139.0</ele><time>2026-05-01T13:48:22Z</time></trkpt><trkpt lat="45.73746969123949" lon="-0.06988984852295657"><ele>138.4</ele><time>2026-05-01T13:48:25Z</time></trkpt><trkpt lat="45.73741370197644" lon="-0.06999607862852025"><ele>137.8</ele><time>2026-05-01T13:48:26Z</time></trkpt><trkpt lat="45.73734967787692" lon="-0.0701175532255968"><ele>137.2</ele><time>2026-05-01T13:48:27Z</time></trkpt><trkpt lat="45.73727880573842" lon="-0.07025202029944115"><ele>136.6</ele><time>2026-05-01T13:48:28Z</time></trkpt><trkpt lat="45.737228180477295" lon="-0.07034807291076356"><ele>136.0</ele><time>2026-05-01T13:48:29Z</time></trkpt><trkpt lat="45.737169164940404" lon="-0.07046004452234367"><ele>136.0</ele><time>2026-05-01T13:48:30Z</time></trkpt><trkpt lat="45.737093709661714" lon="-0.07060339498857339"><ele>136.0</ele><time>2026-05-01T13:48:31Z</time></trkpt><trkpt lat="45.73702837300072" lon="-0.07072770271261009"><ele>136.0</ele><time>2026-05-01T13:48:32Z</time></trkpt><trkpt lat="45.73698161265673" lon="-0.07081666763106961"><ele>136.0</ele><time>2026-05-01T13:48:33Z</time></trkpt><trkpt lat="45.73693118110586" lon="-0.0709126172570962"><ele>136.0</ele><time>2026-05-01T13:48:34Z</time></trkpt><trkpt lat="45.736833737365586" lon="-0.07105864941440203"><ele>133.4</ele><time>2026-05-01T13:48:35Z</time></trkpt><trkpt lat="45.73673145170967" lon="-0.071134383210797"><ele>130.8</ele><time>2026-05-01T13:48:36Z</time></trkpt><trkpt lat="45.73661664218108" lon="-0.07123043712982358"><ele>128.20000000000002</ele><time>2026-05-01T13:48:37Z</time></trkpt><trkpt lat="45.736537226818285" lon="-0.07130305042216582"><ele>125.60000000000001</ele><time>2026-05-01T13:48:38Z</time></trkpt><trkpt lat="45.73645090472541" lon="-0.07138851399527575"><ele>123.0</ele><time>2026-05-01T13:48:39Z</time></trkpt><trkpt lat="45.73640226352625" lon="-0.07145187081981312"><ele>123.0</ele><time>2026-05-01T13:48:40Z</time></trkpt><trkpt lat="45.73633558522408" lon="-0.07153848532834445"><ele>123.0</ele><time>2026-05-01T13:48:42Z</time></trkpt><trkpt lat="45.73626348013544" lon="-0.07162595398065898"><ele>123.0</ele><time>2026-05-01T13:48:44Z</time></trkpt><trkpt lat="45.736224540971776" lon="-0.07170511098159349"><ele>123.0</ele><time>2026-05-01T13:48:45Z</time></trkpt><trkpt lat="45.73622968269737" lon="-0.0718209325830314"><ele>123.0</ele><time>2026-05-01T13:48:48Z</time></trkpt><trkpt lat="45.73628787915338" lon="-0.0718954740168432"><ele>123.0</ele><time>2026-05-01T13:48:50Z</time></trkpt><trkpt lat="45.73633976437013" lon="-0.07197933628279564"><ele>122.2</ele><time>2026-05-01T13:48:52.001Z</time></trkpt><trkpt lat="45.73641444886143" lon="-0.07209757044641284"><ele>121.4</ele><time>2026-05-01T13:48:54.001Z</time></trkpt><trkpt lat="45.736444440795225" lon="-0.07217954004585363"><ele>120.60000000000001</ele><time>2026-05-01T13:48:55.001Z</time></trkpt><trkpt lat="45.736521737777785" lon="-0.07228807340820702"><ele>119.80000000000001</ele><time>2026-05-01T13:48:57.001Z</time></trkpt><trkpt lat="45.736586835854794" lon="-0.07241097836133711"><ele>119.0</ele><time>2026-05-01T13:48:59.001Z</time></trkpt><trkpt lat="45.73662657657838" lon="-0.07248812094365634"><ele>119.6</ele><time>2026-05-01T13:49:00.001Z</time></trkpt><trkpt lat="45.736686750074874" lon="-0.07259643808431213"><ele>120.2</ele><time>2026-05-01T13:49:01.001Z</time></trkpt><trkpt lat="45.73676232332176" lon="-0.07269827291474379"><ele>120.79999999999998</ele><time>2026-05-01T13:49:02.001Z</time></trkpt><trkpt lat="45.73682517106147" lon="-0.0728109133403214"><ele>121.39999999999999</ele><time>2026-05-01T13:49:03.001Z</time></trkpt><trkpt lat="45.73688066529701" lon="-0.0729097686524683"><ele>122.0</ele><time>2026-05-01T13:49:04.001Z</time></trkpt><trkpt lat="45.736913813569885" lon="-0.07300913375187967"><ele>121.99999999999999</ele><time>2026-05-01T13:49:05.001Z</time></trkpt><trkpt lat="45.73694241908996" lon="-0.07314728172004342"><ele>122.0</ele><time>2026-05-01T13:49:07.001Z</time></trkpt><trkpt lat="45.73696870976448" lon="-0.07330885525874609"><ele>122.0</ele><time>2026-05-01T13:49:09.001Z</time></trkpt><trkpt lat="45.7369908266561" lon="-0.07344374000322255"><ele>122.0</ele><time>2026-05-01T13:49:11.001Z</time></trkpt><trkpt lat="45.73699359926665" lon="-0.0735377371601276"><ele>121.99999999999999</ele><time>2026-05-01T13:49:14.001Z</time></trkpt><trkpt lat="45.73698693899915" lon="-0.07363105823166158"><ele>122.0</ele><time>2026-05-01T13:49:16.001Z</time></trkpt><trkpt lat="45.736920005536675" lon="-0.07368370555526078"><ele>119.66666666666666</ele><time>2026-05-01T13:49:34.001Z</time></trkpt><trkpt lat="45.73683272156839" lon="-0.0737496385232062"><ele>117.33333333333333</ele><time>2026-05-01T13:49:36.001Z</time></trkpt><trkpt lat="45.736774789982654" lon="-0.07379339120272277"><ele>115.0</ele><time>2026-05-01T13:49:37.001Z</time></trkpt><trkpt lat="45.736707076583365" lon="-0.07384780326130952"><ele>112.66666666666666</ele><time>2026-05-01T13:49:39.001Z</time></trkpt><trkpt lat="45.73658928778221" lon="-0.07392491692357167"><ele>110.33333333333333</ele><time>2026-05-01T13:49:41.001Z</time></trkpt><trkpt lat="45.736544852604375" lon="-0.0739923236359431"><ele>108.0</ele><time>2026-05-01T13:49:42.001Z</time></trkpt><trkpt lat="45.73649088344888" lon="-0.07404580276198237"><ele>106.83333333333333</ele><time>2026-05-01T13:49:43.001Z</time></trkpt><trkpt lat="45.736426375832124" lon="-0.07411351387175032"><ele>105.66666666666666</ele><time>2026-05-01T13:49:44.001Z</time></trkpt><trkpt lat="45.736361560561356" lon="-0.07415404871400903"><ele>104.5</ele><time>2026-05-01T13:49:45.001Z</time></trkpt><trkpt lat="45.73629747221896" lon="-0.0742208430098999"><ele>103.33333333333333</ele><time>2026-05-01T13:49:46Z</time></trkpt><trkpt lat="45.736249067814555" lon="-0.07428092545171354"><ele>102.16666666666666</ele><time>2026-05-01T13:49:47Z</time></trkpt><trkpt lat="45.736148595582584" lon="-0.07440225063860487"><ele>101.0</ele><time>2026-05-01T13:49:49Z</time></trkpt><trkpt lat="45.73605378742485" lon="-0.07452705247923558"><ele>101.99999999999999</ele><time>2026-05-01T13:49:51Z</time></trkpt><trkpt lat="45.735993144437536" lon="-0.07460446731631415"><ele>103.0</ele><time>2026-05-01T13:49:52Z</time></trkpt><trkpt lat="45.7359294332106" lon="-0.07468471492965703"><ele>104.0</ele><time>2026-05-01T13:49:53Z</time></trkpt><trkpt lat="45.73588186647733" lon="-0.07476862270398422"><ele>105.0</ele><time>2026-05-01T13:49:54Z</time></trkpt><trkpt lat="45.73581813195817" lon="-0.07481368765519776"><ele>105.99999999999999</ele><time>2026-05-01T13:49:55Z</time></trkpt><trkpt lat="45.73576098292149" lon="-0.07488394245769163"><ele>107.0</ele><time>2026-05-01T13:49:56Z</time></trkpt><trkpt lat="45.73570561661065" lon="-0.07492770478669948"><ele>104.39999999999999</ele><time>2026-05-01T13:49:57Z</time></trkpt><trkpt lat="45.7356470465309" lon="-0.07497115392346397"><ele>101.79999999999998</ele><time>2026-05-01T13:49:58Z</time></trkpt><trkpt lat="45.73554496521179" lon="-0.07505592051418365"><ele>99.2</ele><time>2026-05-01T13:50:00Z</time></trkpt><trkpt lat="45.73545165634962" lon="-0.07513175724840426"><ele>96.6</ele><time>2026-05-01T13:50:02Z</time></trkpt><trkpt lat="45.735357454806824" lon="-0.07519795638411327"><ele>94.0</ele><time>2026-05-01T13:50:04Z</time></trkpt><trkpt lat="45.73526249625286" lon="-0.07526946432718554"><ele>95.4</ele><time>2026-05-01T13:50:06Z</time></trkpt><trkpt lat="45.73518549123125" lon="-0.075357556341483"><ele>96.80000000000001</ele><time>2026-05-01T13:50:08Z</time></trkpt><trkpt lat="45.735102070307" lon="-0.07545180167281783"><ele>98.19999999999999</ele><time>2026-05-01T13:50:10Z</time></trkpt><trkpt lat="45.73500698818099" lon="-0.07554256020273482"><ele>99.6</ele><time>2026-05-01T13:50:12Z</time></trkpt><trkpt lat="45.73492651604499" lon="-0.07566392371379013"><ele>101.0</ele><time>2026-05-01T13:50:14Z</time></trkpt><trkpt lat="45.73485481686577" lon="-0.07575849311122528"><ele>98.75</ele><time>2026-05-01T13:50:16Z</time></trkpt><trkpt lat="45.73480220662082" lon="-0.0758391545458792"><ele>96.5</ele><time>2026-05-01T13:50:18Z</time></trkpt><trkpt lat="45.7347473154444" lon="-0.07594890660101813"><ele>94.25</ele><time>2026-05-01T13:50:20Z</time></trkpt><trkpt lat="45.73469866230374" lon="-0.07601317465201896"><ele>92.0</ele><time>2026-05-01T13:50:24Z</time></trkpt><trkpt lat="45.73483298831773" lon="-0.07628333303192876"><ele>92.0</ele><time>2026-05-01T13:50:29Z</time></trkpt><trkpt lat="45.73493635082247" lon="-0.07635212604461987"><ele>92.0</ele><time>2026-05-01T13:50:31Z</time></trkpt><trkpt lat="45.73504288572684" lon="-0.07640571551137056"><ele>92.0</ele><time>2026-05-01T13:50:33Z</time></trkpt><trkpt lat="45.73510224099474" lon="-0.07643703334721955"><ele>92.0</ele><time>2026-05-01T13:50:34Z</time></trkpt><trkpt lat="45.73516492568655" lon="-0.07648558071028601"><ele>92.0</ele><time>2026-05-01T13:50:35Z</time></trkpt><trkpt lat="45.73525744281786" lon="-0.07651366940278612"><ele>93.39999999999999</ele><time>2026-05-01T13:50:37Z</time></trkpt><trkpt lat="45.73536079525057" lon="-0.0765275243715422"><ele>94.8</ele><time>2026-05-01T13:50:39Z</time></trkpt><trkpt lat="45.735442863694956" lon="-0.07655126570844903"><ele>96.2</ele><time>2026-05-01T13:50:41Z</time></trkpt><trkpt lat="45.73555974649478" lon="-0.0765801970935131"><ele>97.6</ele><time>2026-05-01T13:50:43Z</time></trkpt><trkpt lat="45.735624795171894" lon="-0.07658618841345004"><ele>99.0</ele><time>2026-05-01T13:50:44Z</time></trkpt><trkpt lat="45.73571015229088" lon="-0.07651574669043376"><ele>99.0</ele><time>2026-05-01T13:50:46Z</time></trkpt><trkpt lat="45.735788557295066" lon="-0.07646762143415549"><ele>99.0</ele><time>2026-05-01T13:50:47Z</time></trkpt><trkpt lat="45.73592893915839" lon="-0.07634790053446627"><ele>99.0</ele><time>2026-05-01T13:50:49Z</time></trkpt><trkpt lat="45.736014856011636" lon="-0.07630976051358257"><ele>99.0</ele><time>2026-05-01T13:50:50Z</time></trkpt><trkpt lat="45.73607325783517" lon="-0.07625726646941557"><ele>99.0</ele><time>2026-05-01T13:50:51Z</time></trkpt><trkpt lat="45.73613541561661" lon="-0.07615078771396008"><ele>101.16666666666667</ele><time>2026-05-01T13:50:52Z</time></trkpt><trkpt lat="45.73620222498664" lon="-0.07613882683900802"><ele>103.33333333333334</ele><time>2026-05-01T13:50:53Z</time></trkpt><trkpt lat="45.73628796968202" lon="-0.0761086520709931"><ele>105.5</ele><time>2026-05-01T13:50:54Z</time></trkpt><trkpt lat="45.73635226506883" lon="-0.07608246027604053"><ele>107.66666666666667</ele><time>2026-05-01T13:50:55Z</time></trkpt><trkpt lat="45.736430312950944" lon="-0.07603617045508351"><ele>109.83333333333334</ele><time>2026-05-01T13:50:56Z</time></trkpt><trkpt lat="45.73655556644124" lon="-0.0759867986409234"><ele>112.0</ele><time>2026-05-01T13:50:58.001Z</time></trkpt><trkpt lat="45.73662436769184" lon="-0.07593415346597984"><ele>112.0</ele><time>2026-05-01T13:50:59.001Z</time></trkpt><trkpt lat="45.73674682349008" lon="-0.07593687413273657"><ele>112.0</ele><time>2026-05-01T13:51:00.001Z</time></trkpt><trkpt lat="45.736856507234215" lon="-0.07592027202316344"><ele>112.0</ele><time>2026-05-01T13:51:01.001Z</time></trkpt><trkpt lat="45.736974695609625" lon="-0.07590715084273877"><ele>112.0</ele><time>2026-05-01T13:51:02.001Z</time></trkpt><trkpt lat="45.737089886170885" lon="-0.07588490660227316"><ele>115.25</ele><time>2026-05-01T13:51:03.001Z</time></trkpt><trkpt lat="45.73724036836615" lon="-0.07586706362097159"><ele>118.5</ele><time>2026-05-01T13:51:04.001Z</time></trkpt><trkpt lat="45.737371643369315" lon="-0.07583453775553983"><ele>121.75</ele><time>2026-05-01T13:51:05.001Z</time></trkpt><trkpt lat="45.73748039962449" lon="-0.07581307237177011"><ele>125.0</ele><time>2026-05-01T13:51:06.001Z</time></trkpt><trkpt lat="45.737584686874705" lon="-0.07579538453887859"><ele>124.99999999999999</ele><time>2026-05-01T13:51:07.001Z</time></trkpt><trkpt lat="45.73767002208103" lon="-0.07577306552748653"><ele>125.0</ele><time>2026-05-01T13:51:08.001Z</time></trkpt><trkpt lat="45.73773733130546" lon="-0.07575803639256344"><ele>125.0</ele><time>2026-05-01T13:51:09.001Z</time></trkpt><trkpt lat="45.737824703858934" lon="-0.07577333040860272"><ele>125.0</ele><time>2026-05-01T13:51:11.001Z</time></trkpt><trkpt lat="45.73789198345589" lon="-0.07581906264847739"><ele>124.99999999999999</ele><time>2026-05-01T13:51:12.001Z</time></trkpt><trkpt lat="45.737951381645644" lon="-0.07587322776010968"><ele>125.0</ele><time>2026-05-01T13:51:13.001Z</time></trkpt><trkpt lat="45.73800831983892" lon="-0.07597489898526276"><ele>125.16666666666666</ele><time>2026-05-01T13:51:14.001Z</time></trkpt><trkpt lat="45.73804992782141" lon="-0.0760808282530211"><ele>125.33333333333333</ele><time>2026-05-01T13:51:15.001Z</time></trkpt><trkpt lat="45.738078744716375" lon="-0.07616778132946087"><ele>125.5</ele><time>2026-05-01T13:51:16.001Z</time></trkpt><trkpt lat="45.73811060269441" lon="-0.0762743053981846"><ele>125.66666666666666</ele><time>2026-05-01T13:51:18.001Z</time></trkpt><trkpt lat="45.738149580073745" lon="-0.07637410639357532"><ele>125.83333333333333</ele><time>2026-05-01T13:51:20.001Z</time></trkpt><trkpt lat="45.7381662640595" lon="-0.07648896887742583"><ele>126.0</ele><time>2026-05-01T13:51:22.001Z</time></trkpt><trkpt lat="45.73818641656451" lon="-0.07658449515163523"><ele>127.5</ele><time>2026-05-01T13:51:23.001Z</time></trkpt><trkpt lat="45.73822219154716" lon="-0.07671967258802674"><ele>129.0</ele><time>2026-05-01T13:51:24.001Z</time></trkpt><trkpt lat="45.73826731925779" lon="-0.07691578343961195"><ele>130.5</ele><time>2026-05-01T13:51:25.001Z</time></trkpt><trkpt lat="45.73831770384123" lon="-0.07714202837130586"><ele>132.0</ele><time>2026-05-01T13:51:26.001Z</time></trkpt><trkpt lat="45.73836198398181" lon="-0.07734318939601978"><ele>132.5</ele><time>2026-05-01T13:51:27.001Z</time></trkpt><trkpt lat="45.73839836802657" lon="-0.07753583643933716"><ele>133.0</ele><time>2026-05-01T13:51:28.001Z</time></trkpt><trkpt lat="45.738430279594546" lon="-0.07775945112315125"><ele>133.5</ele><time>2026-05-01T13:51:29.001Z</time></trkpt><trkpt lat="45.73846158373347" lon="-0.0779496978798789"><ele>134.0</ele><time>2026-05-01T13:51:30.001Z</time></trkpt><trkpt lat="45.73848477033777" lon="-0.07813477535329547"><ele>134.75</ele><time>2026-05-01T13:51:31.001Z</time></trkpt><trkpt lat="45.73850335118109" lon="-0.07832652436526563"><ele>135.5</ele><time>2026-05-01T13:51:32.001Z</time></trkpt><trkpt lat="45.738520539478536" lon="-0.07852243958684223"><ele>136.25</ele><time>2026-05-01T13:51:33.001Z</time></trkpt><trkpt lat="45.7385323811556" lon="-0.07873890189432366"><ele>137.0</ele><time>2026-05-01T13:51:34.001Z</time></trkpt><trkpt lat="45.73853743165477" lon="-0.07892863955432095"><ele>137.0</ele><time>2026-05-01T13:51:35.001Z</time></trkpt><trkpt lat="45.73856703553696" lon="-0.07908473425311609"><ele>137.0</ele><time>2026-05-01T13:51:36.001Z</time></trkpt><trkpt lat="45.73859057259992" lon="-0.07923755006383597"><ele>137.0</ele><time>2026-05-01T13:51:37.001Z</time></trkpt><trkpt lat="45.738637925182125" lon="-0.07938496985286349"><ele>137.0</ele><time>2026-05-01T13:51:38.001Z</time></trkpt><trkpt lat="45.7387016132031" lon="-0.07955211583827074"><ele>137.0</ele><time>2026-05-01T13:51:39.001Z</time></trkpt><trkpt lat="45.73876907122072" lon="-0.0796955511349044"><ele>137.0</ele><time>2026-05-01T13:51:40.001Z</time></trkpt><trkpt lat="45.73885461539454" lon="-0.07983049863218696"><ele>137.0</ele><time>2026-05-01T13:51:41.001Z</time></trkpt><trkpt lat="45.73894877886195" lon="-0.07997305517662802"><ele>137.0</ele><time>2026-05-01T13:51:42.001Z</time></trkpt><trkpt lat="45.73902821168369" lon="-0.08007009639097128"><ele>137.0</ele><time>2026-05-01T13:51:43.001Z</time></trkpt><trkpt lat="45.739085530362985" lon="-0.08014186746363226"><ele>137.0</ele><time>2026-05-01T13:51:44.001Z</time></trkpt><trkpt lat="45.73914471829164" lon="-0.0803131134358883"><ele>137.0</ele><time>2026-05-01T13:51:46.001Z</time></trkpt><trkpt lat="45.739176693978834" lon="-0.0804620573671326"><ele>137.0</ele><time>2026-05-01T13:51:47.001Z</time></trkpt><trkpt lat="45.739213934679505" lon="-0.08061923336869438"><ele>137.0</ele><time>2026-05-01T13:51:48.001Z</time></trkpt><trkpt lat="45.73924340658275" lon="-0.08077764480773536"><ele>137.2</ele><time>2026-05-01T13:51:49.001Z</time></trkpt><trkpt lat="45.73926400755296" lon="-0.08093122839925512"><ele>137.39999999999998</ele><time>2026-05-01T13:51:50.001Z</time></trkpt><trkpt lat="45.73929152327505" lon="-0.08107665594433013"><ele>137.60000000000002</ele><time>2026-05-01T13:51:51.001Z</time></trkpt><trkpt lat="45.73930964549791" lon="-0.08121443325792073"><ele>137.8</ele><time>2026-05-01T13:51:52Z</time></trkpt><trkpt lat="45.73931676835844" lon="-0.08136490969282262"><ele>138.0</ele><time>2026-05-01T13:51:53Z</time></trkpt><trkpt lat="45.739311599497846" lon="-0.08152439848907828"><ele>137.4</ele><time>2026-05-01T13:51:54Z</time></trkpt><trkpt lat="45.739296409025926" lon="-0.08168578526025051"><ele>136.8</ele><time>2026-05-01T13:51:55Z</time></trkpt><trkpt lat="45.739279891921306" lon="-0.08185868547183889"><ele>136.2</ele><time>2026-05-01T13:51:56Z</time></trkpt><trkpt lat="45.7392635571369" lon="-0.08201355038597848"><ele>135.6</ele><time>2026-05-01T13:51:57Z</time></trkpt><trkpt lat="45.73925029027061" lon="-0.0821556995320886"><ele>135.0</ele><time>2026-05-01T13:51:58Z</time></trkpt><trkpt lat="45.73924089919878" lon="-0.08230347824574742"><ele>134.2</ele><time>2026-05-01T13:51:59Z</time></trkpt><trkpt lat="45.739228859292965" lon="-0.08245291859246587"><ele>133.4</ele><time>2026-05-01T13:52:00Z</time></trkpt><trkpt lat="45.73921364810219" lon="-0.08259241088968361"><ele>132.6</ele><time>2026-05-01T13:52:01Z</time></trkpt><trkpt lat="45.739189303762956" lon="-0.08268776714449623"><ele>131.8</ele><time>2026-05-01T13:52:02Z</time></trkpt><trkpt lat="45.73908865068369" lon="-0.08280874618778458"><ele>131.0</ele><time>2026-05-01T13:52:04Z</time></trkpt><trkpt lat="45.7389987237259" lon="-0.08281788794416499"><ele>131.0</ele><time>2026-05-01T13:52:05Z</time></trkpt><trkpt lat="45.73892298751251" lon="-0.08282403420692404"><ele>131.0</ele><time>2026-05-01T13:52:06Z</time></trkpt><trkpt lat="45.73882445108993" lon="-0.08281282915332942"><ele>131.0</ele><time>2026-05-01T13:52:07Z</time></trkpt><trkpt lat="45.73873446768423" lon="-0.08280181828162259"><ele>131.0</ele><time>2026-05-01T13:52:08Z</time></trkpt><trkpt lat="45.738633777486754" lon="-0.08279749061997371"><ele>131.0</ele><time>2026-05-01T13:52:09Z</time></trkpt><trkpt lat="45.73854935754856" lon="-0.08283633699355525"><ele>130.16666666666666</ele><time>2026-05-01T13:52:10Z</time></trkpt><trkpt lat="45.738470812412366" lon="-0.08287284046071489"><ele>129.33333333333331</ele><time>2026-05-01T13:52:11Z</time></trkpt><trkpt lat="45.738367637407364" lon="-0.08291681351777316"><ele>128.5</ele><time>2026-05-01T13:52:12Z</time></trkpt><trkpt lat="45.738322013045405" lon="-0.08300484797748874"><ele>127.66666666666666</ele><time>2026-05-01T13:52:13Z</time></trkpt><trkpt lat="45.73826790242476" lon="-0.0830863091127204"><ele>126.83333333333333</ele><time>2026-05-01T13:52:14Z</time></trkpt><trkpt lat="45.738211431360455" lon="-0.08317892791078071"><ele>126.0</ele><time>2026-05-01T13:52:15Z</time></trkpt><trkpt lat="45.73817628120761" lon="-0.08328940093392152"><ele>126.0</ele><time>2026-05-01T13:52:16Z</time></trkpt><trkpt lat="45.73815106570185" lon="-0.08342465379285313"><ele>126.0</ele><time>2026-05-01T13:52:18Z</time></trkpt><trkpt lat="45.73802657366262" lon="-0.08342022839359028"><ele>126.0</ele><time>2026-05-01T13:52:22Z</time></trkpt><trkpt lat="45.73797103754032" lon="-0.08336814103992753"><ele>126.0</ele><time>2026-05-01T13:52:23Z</time></trkpt><trkpt lat="45.737898206070604" lon="-0.0833000575598534"><ele>126.0</ele><time>2026-05-01T13:52:24Z</time></trkpt><trkpt lat="45.737789151094105" lon="-0.08324446267642749"><ele>125.66666666666666</ele><time>2026-05-01T13:52:25Z</time></trkpt><trkpt lat="45.73764597635452" lon="-0.08314121692190558"><ele>125.33333333333333</ele><time>2026-05-01T13:52:26Z</time></trkpt><trkpt lat="45.73749912896009" lon="-0.0829982425364171"><ele>125.0</ele><time>2026-05-01T13:52:27Z</time></trkpt><trkpt lat="45.73733236780347" lon="-0.08288577731728963"><ele>125.0</ele><time>2026-05-01T13:52:28Z</time></trkpt><trkpt lat="45.73723409826369" lon="-0.08276633343880921"><ele>125.0</ele><time>2026-05-01T13:52:29Z</time></trkpt><trkpt lat="45.73714727771089" lon="-0.08268239345267944"><ele>125.0</ele><time>2026-05-01T13:52:30Z</time></trkpt><trkpt lat="45.73709842164059" lon="-0.08259002338235048"><ele>125.0</ele><time>2026-05-01T13:52:31Z</time></trkpt><trkpt lat="45.73705711435618" lon="-0.08251228615035651"><ele>125.0</ele><time>2026-05-01T13:52:32Z</time></trkpt><trkpt lat="45.73698820319016" lon="-0.08242768490072687"><ele>125.5</ele><time>2026-05-01T13:52:33Z</time></trkpt><trkpt lat="45.736901114525686" lon="-0.08228844915691555"><ele>126.0</ele><time>2026-05-01T13:52:34Z</time></trkpt><trkpt lat="45.736793110977615" lon="-0.08211577508820377"><ele>126.5</ele><time>2026-05-01T13:52:35Z</time></trkpt><trkpt lat="45.73676452736628" lon="-0.08192194259481794"><ele>127.0</ele><time>2026-05-01T13:52:36Z</time></trkpt><trkpt lat="45.73669137513094" lon="-0.08169205143873559"><ele>127.0</ele><time>2026-05-01T13:52:37Z</time></trkpt><trkpt lat="45.73664390513057" lon="-0.0814017361933912"><ele>127.0</ele><time>2026-05-01T13:52:38Z</time></trkpt><trkpt lat="45.73657210668976" lon="-0.0812190579760784"><ele>127.0</ele><time>2026-05-01T13:52:39Z</time></trkpt><trkpt lat="45.7365099271537" lon="-0.08103847574354703"><ele>127.0</ele><time>2026-05-01T13:52:40Z</time></trkpt><trkpt lat="45.73645130334694" lon="-0.08087374164375269"><ele>127.0</ele><time>2026-05-01T13:52:41Z</time></trkpt><trkpt lat="45.73640985555762" lon="-0.08073458959941353"><ele>127.0</ele><time>2026-05-01T13:52:42Z</time></trkpt><trkpt lat="45.73637785241907" lon="-0.0805871710087163"><ele>127.0</ele><time>2026-05-01T13:52:43Z</time></trkpt><trkpt lat="45.73636929389113" lon="-0.0804143048657382"><ele>127.0</ele><time>2026-05-01T13:52:44Z</time></trkpt><trkpt lat="45.7363509484818" lon="-0.08023110835012968"><ele>127.0</ele><time>2026-05-01T13:52:45Z</time></trkpt><trkpt lat="45.736347261225156" lon="-0.08007044007406304"><ele>127.0</ele><time>2026-05-01T13:52:46Z</time></trkpt><trkpt lat="45.73633135609346" lon="-0.07988566532527046"><ele>127.0</ele><time>2026-05-01T13:52:47Z</time></trkpt><trkpt lat="45.73632335693216" lon="-0.07969515787664586"><ele>127.0</ele><time>2026-05-01T13:52:48Z</time></trkpt><trkpt lat="45.73631560331528" lon="-0.07949988306431038"><ele>127.0</ele><time>2026-05-01T13:52:49Z</time></trkpt><trkpt lat="45.73631336998687" lon="-0.07932476266474604"><ele>127.0</ele><time>2026-05-01T13:52:50Z</time></trkpt><trkpt lat="45.736306044912986" lon="-0.07915747002280113"><ele>127.0</ele><time>2026-05-01T13:52:51Z</time></trkpt><trkpt lat="45.73629897936274" lon="-0.07902386468174388"><ele>126.8</ele><time>2026-05-01T13:52:52Z</time></trkpt><trkpt lat="45.73627992187081" lon="-0.07886938088290524"><ele>126.6</ele><time>2026-05-01T13:52:53Z</time></trkpt><trkpt lat="45.73625495513024" lon="-0.07872488463471054"><ele>126.39999999999999</ele><time>2026-05-01T13:52:54.001Z</time></trkpt><trkpt lat="45.73620593393463" lon="-0.07860490575662232"><ele>126.19999999999999</ele><time>2026-05-01T13:52:55.001Z</time></trkpt><trkpt lat="45.736146588274295" lon="-0.07848922163058308"><ele>126.0</ele><time>2026-05-01T13:52:56.001Z</time></trkpt><trkpt lat="45.736092344520564" lon="-0.078376754343445"><ele>124.5</ele><time>2026-05-01T13:52:57.001Z</time></trkpt><trkpt lat="45.73602141779354" lon="-0.07826374323786843"><ele>123.0</ele><time>2026-05-01T13:52:59.001Z</time></trkpt><trkpt lat="45.73598046997035" lon="-0.07818606718973602"><ele>121.5</ele><time>2026-05-01T13:53:00.001Z</time></trkpt><trkpt lat="45.73593742324943" lon="-0.07809101397150385"><ele>120.0</ele><time>2026-05-01T13:53:01.001Z</time></trkpt><trkpt lat="45.73589294190298" lon="-0.07798474273045691"><ele>118.5</ele><time>2026-05-01T13:53:02.001Z</time></trkpt><trkpt lat="45.735847766380225" lon="-0.07787739179495885"><ele>117.0</ele><time>2026-05-01T13:53:03.001Z</time></trkpt><trkpt lat="45.735792796859776" lon="-0.0777678821177525"><ele>117.0</ele><time>2026-05-01T13:53:04.001Z</time></trkpt><trkpt lat="45.73574899058382" lon="-0.07767503206863013"><ele>117.0</ele><time>2026-05-01T13:53:05.001Z</time></trkpt><trkpt lat="45.73570483050779" lon="-0.07759525264818137"><ele>117.0</ele><time>2026-05-01T13:53:06.001Z</time></trkpt><trkpt lat="45.73567265700305" lon="-0.07750456591774607"><ele>117.0</ele><time>2026-05-01T13:53:07.001Z</time></trkpt><trkpt lat="45.735638841973675" lon="-0.07742044205026163"><ele>117.0</ele><time>2026-05-01T13:53:08.001Z</time></trkpt><trkpt lat="45.73561664887789" lon="-0.07729296525600139"><ele>117.0</ele><time>2026-05-01T13:53:10.001Z</time></trkpt><trkpt lat="45.73554085853765" lon="-0.07720261478542041"><ele>115.83333333333333</ele><time>2026-05-01T13:53:14.001Z</time></trkpt><trkpt lat="45.73551263314009" lon="-0.07707222844610409"><ele>114.66666666666666</ele><time>2026-05-01T13:53:16.001Z</time></trkpt><trkpt lat="45.73547051729385" lon="-0.07700197868317649"><ele>113.5</ele><time>2026-05-01T13:53:18.001Z</time></trkpt><trkpt lat="45.735418335435554" lon="-0.07685584677672957"><ele>112.33333333333333</ele><time>2026-05-01T13:53:23.001Z</time></trkpt><trkpt lat="45.7353606845551" lon="-0.07676639351014981"><ele>111.16666666666666</ele><time>2026-05-01T13:53:27.001Z</time></trkpt><trkpt lat="45.73535224113835" lon="-0.07667341058329957"><ele>110.0</ele><time>2026-05-01T13:53:31.001Z</time></trkpt><trkpt lat="45.73537308425084" lon="-0.07656997347377939"><ele>107.8</ele><time>2026-05-01T13:53:37.001Z</time></trkpt><trkpt lat="45.73531675287116" lon="-0.07651624006029026"><ele>105.6</ele><time>2026-05-01T13:53:39.001Z</time></trkpt><trkpt lat="45.73520560784098" lon="-0.07649678620540111"><ele>103.4</ele><time>2026-05-01T13:53:40.001Z</time></trkpt><trkpt lat="45.73512800218395" lon="-0.07647655758807624"><ele>101.2</ele><time>2026-05-01T13:53:41.001Z</time></trkpt><trkpt lat="45.735062370805714" lon="-0.07644431621254595"><ele>99.0</ele><time>2026-05-01T13:53:42.001Z</time></trkpt><trkpt lat="45.73493651247133" lon="-0.07636356754107582"><ele>97.6</ele><time>2026-05-01T13:53:44.001Z</time></trkpt><trkpt lat="45.73486733609494" lon="-0.07631099971157278"><ele>96.2</ele><time>2026-05-01T13:53:45.001Z</time></trkpt><trkpt lat="45.73476410952676" lon="-0.07620312433977751"><ele>94.8</ele><time>2026-05-01T13:53:47.001Z</time></trkpt><trkpt lat="45.734718457151665" lon="-0.0761260631663097"><ele>93.39999999999999</ele><time>2026-05-01T13:53:48.001Z</time></trkpt><trkpt lat="45.734673459510084" lon="-0.07599769859296736"><ele>92.0</ele><time>2026-05-01T13:53:50.001Z</time></trkpt><trkpt lat="45.734711239473505" lon="-0.07588641278966109"><ele>92.0</ele><time>2026-05-01T13:53:52.001Z</time></trkpt><trkpt lat="45.734790237526" lon="-0.07579224498739104"><ele>92.0</ele><time>2026-05-01T13:53:54.001Z</time></trkpt><trkpt lat="45.734853725409394" lon="-0.0757261443005869"><ele>92.0</ele><time>2026-05-01T13:53:56.001Z</time></trkpt><trkpt lat="45.73485797587367" lon="-0.07559070150749941"><ele>92.0</ele><time>2026-05-01T13:53:58Z</time></trkpt><trkpt lat="45.734847770314225" lon="-0.07549021509648132"><ele>92.0</ele><time>2026-05-01T13:54:00Z</time></trkpt><trkpt lat="45.73480470449714" lon="-0.0753808948857425"><ele>92.0</ele><time>2026-05-01T13:54:02Z</time></trkpt><trkpt lat="45.734695660907256" lon="-0.07530088909281193"><ele>93.5</ele><time>2026-05-01T13:54:04Z</time></trkpt><trkpt lat="45.73463748556803" lon="-0.07524875685007026"><ele>95.0</ele><time>2026-05-01T13:54:05Z</time></trkpt><trkpt lat="45.73459068204538" lon="-0.07518628282879558"><ele>96.5</ele><time>2026-05-01T13:54:06Z</time></trkpt><trkpt lat="45.73457585270741" lon="-0.07509648989890433"><ele>98.0</ele><time>2026-05-01T13:54:07Z</time></trkpt><trkpt lat="45.73450748518049" lon="-0.07497615518774632"><ele>99.49999999999999</ele><time>2026-05-01T13:54:09Z</time></trkpt><trkpt lat="45.734457187890605" lon="-0.07491263272682874"><ele>101.0</ele><time>2026-05-01T13:54:10Z</time></trkpt><trkpt lat="45.734364354028635" lon="-0.07478256094757718"><ele>103.99999999999999</ele><time>2026-05-01T13:54:12Z</time></trkpt><trkpt lat="45.73431073154756" lon="-0.0746594502748865"><ele>107.0</ele><time>2026-05-01T13:54:14Z</time></trkpt><trkpt lat="45.73426211396111" lon="-0.07459715784551939"><ele>110.0</ele><time>2026-05-01T13:54:15Z</time></trkpt><trkpt lat="45.73423040370165" lon="-0.07451612670063917"><ele>113.0</ele><time>2026-05-01T13:54:16Z</time></trkpt><trkpt lat="45.73417619856923" lon="-0.07441850244006919"><ele>115.99999999999999</ele><time>2026-05-01T13:54:18Z</time></trkpt><trkpt lat="45.73411575150434" lon="-0.07429599800482375"><ele>119.0</ele><time>2026-05-01T13:54:21Z</time></trkpt><trkpt lat="45.73409056425518" lon="-0.07419214883762677"><ele>120.49999999999999</ele><time>2026-05-01T13:54:22Z</time></trkpt><trkpt lat="45.73405031464534" lon="-0.07409073380326402"><ele>122.0</ele><time>2026-05-01T13:54:24Z</time></trkpt><trkpt lat="45.73403053646165" lon="-0.0739807908519807"><ele>123.5</ele><time>2026-05-01T13:54:26Z</time></trkpt><trkpt lat="45.734081378596244" lon="-0.07391398514615614"><ele>125.0</ele><time>2026-05-01T13:54:28Z</time></trkpt><trkpt lat="45.73416044652591" lon="-0.07386569122852535"><ele>126.49999999999999</ele><time>2026-05-01T13:54:30Z</time></trkpt><trkpt lat="45.73421002595304" lon="-0.07380186420299129"><ele>128.0</ele><time>2026-05-01T13:54:32Z</time></trkpt><trkpt lat="45.73425081646401" lon="-0.07372132836929905"><ele>128.0</ele><time>2026-05-01T13:54:34Z</time></trkpt><trkpt lat="45.73424513194969" lon="-0.0735791455753061"><ele>128.0</ele><time>2026-05-01T13:54:36Z</time></trkpt><trkpt lat="45.73419704806233" lon="-0.07344123693244514"><ele>128.0</ele><time>2026-05-01T13:54:38Z</time></trkpt><trkpt lat="45.73412841000888" lon="-0.07333667710729888"><ele>128.0</ele><time>2026-05-01T13:54:40Z</time></trkpt><trkpt lat="45.734079238084306" lon="-0.07324471528207403"><ele>128.0</ele><time>2026-05-01T13:54:42Z</time></trkpt><trkpt lat="45.73404226182128" lon="-0.07311229553947579"><ele>128.6</ele><time>2026-05-01T13:54:44Z</time></trkpt><trkpt lat="45.733993665919925" lon="-0.07301128135903467"><ele>129.20000000000002</ele><time>2026-05-01T13:54:46Z</time></trkpt><trkpt lat="45.73392581137124" lon="-0.07294576417810769"><ele>129.8</ele><time>2026-05-01T13:54:48Z</time></trkpt><trkpt lat="45.73383663906058" lon="-0.07289420833859304"><ele>130.4</ele><time>2026-05-01T13:54:50Z</time></trkpt><trkpt lat="45.733754208568556" lon="-0.07276072583596539"><ele>131.0</ele><time>2026-05-01T13:54:52Z</time></trkpt><trkpt lat="45.73367018884336" lon="-0.07254222587095838"><ele>130.8</ele><time>2026-05-01T13:54:54Z</time></trkpt><trkpt lat="45.733622661561284" lon="-0.07242382048466531"><ele>130.6</ele><time>2026-05-01T13:54:55Z</time></trkpt><trkpt lat="45.73355831387216" lon="-0.0723025655550064"><ele>130.4</ele><time>2026-05-01T13:54:56Z</time></trkpt><trkpt lat="45.733505484718435" lon="-0.0721787997358412"><ele>130.2</ele><time>2026-05-01T13:54:57Z</time></trkpt><trkpt lat="45.73346844518406" lon="-0.07207059255322404"><ele>130.0</ele><time>2026-05-01T13:54:58Z</time></trkpt><trkpt lat="45.73343272060102" lon="-0.07196799342804776"><ele>130.4</ele><time>2026-05-01T13:54:59Z</time></trkpt><trkpt lat="45.73336728923463" lon="-0.0718482511162009"><ele>130.8</ele><time>2026-05-01T13:55:01.001Z</time></trkpt><trkpt lat="45.73332126157857" lon="-0.07178606515318027"><ele>131.2</ele><time>2026-05-01T13:55:04.001Z</time></trkpt><trkpt lat="45.733239679486424" lon="-0.07177363836118086"><ele>131.6</ele><time>2026-05-01T13:55:11.001Z</time></trkpt><trkpt lat="45.73318013538943" lon="-0.07184533135423288"><ele>132.0</ele><time>2026-05-01T13:55:12.001Z</time></trkpt><trkpt lat="45.73310040346388" lon="-0.07199512920367171"><ele>132.0</ele><time>2026-05-01T13:55:13.001Z</time></trkpt><trkpt lat="45.73299933101818" lon="-0.07211602326090495"><ele>132.0</ele><time>2026-05-01T13:55:14.001Z</time></trkpt><trkpt lat="45.73287041681946" lon="-0.0722144730905373"><ele>132.0</ele><time>2026-05-01T13:55:15.001Z</time></trkpt><trkpt lat="45.732722569322895" lon="-0.07232039247246973"><ele>132.0</ele><time>2026-05-01T13:55:16.001Z</time></trkpt><trkpt lat="45.73255244456986" lon="-0.07243671706793033"><ele>130.0</ele><time>2026-05-01T13:55:17.001Z</time></trkpt><trkpt lat="45.73235234755005" lon="-0.07258733177669724"><ele>128.0</ele><time>2026-05-01T13:55:18.001Z</time></trkpt><trkpt lat="45.73213796939754" lon="-0.07276955681214993"><ele>128.0</ele><time>2026-05-01T13:55:19.001Z</time></trkpt><trkpt lat="45.7319386920198" lon="-0.07295750647554543"><ele>128.0</ele><time>2026-05-01T13:55:20.001Z</time></trkpt><trkpt lat="45.731769064005306" lon="-0.0731322910192043"><ele>128.0</ele><time>2026-05-01T13:55:21.001Z</time></trkpt><trkpt lat="45.73161677823737" lon="-0.07328274779749855"><ele>127.0</ele><time>2026-05-01T13:55:22.001Z</time></trkpt><trkpt lat="45.73146408929392" lon="-0.07342202383441342"><ele>126.0</ele><time>2026-05-01T13:55:23.001Z</time></trkpt><trkpt lat="45.731319080974174" lon="-0.07355315304049392"><ele>125.0</ele><time>2026-05-01T13:55:24.001Z</time></trkpt><trkpt lat="45.731185924858124" lon="-0.07367757137128667"><ele>123.66666666666666</ele><time>2026-05-01T13:55:25.001Z</time></trkpt><trkpt lat="45.731055957967165" lon="-0.0738030418823342"><ele>122.33333333333334</ele><time>2026-05-01T13:55:26.001Z</time></trkpt><trkpt lat="45.73092941474645" lon="-0.07393561529273145"><ele>121.0</ele><time>2026-05-01T13:55:27.001Z</time></trkpt><trkpt lat="45.73080784702844" lon="-0.07406667513991598"><ele>120.33333333333334</ele><time>2026-05-01T13:55:28.001Z</time></trkpt><trkpt lat="45.730684021705514" lon="-0.07420102410437278"><ele>119.66666666666666</ele><time>2026-05-01T13:55:29.001Z</time></trkpt><trkpt lat="45.73055473783883" lon="-0.07433862937953684"><ele>119.0</ele><time>2026-05-01T13:55:30.001Z</time></trkpt><trkpt lat="45.730430191465516" lon="-0.0744729337267791"><ele>119.0</ele><time>2026-05-01T13:55:31.001Z</time></trkpt><trkpt lat="45.73030435825845" lon="-0.07460925971291753"><ele>119.0</ele><time>2026-05-01T13:55:32.001Z</time></trkpt><trkpt lat="45.7301773167758" lon="-0.07474779381618135"><ele>119.0</ele><time>2026-05-01T13:55:33.001Z</time></trkpt><trkpt lat="45.7300390558004" lon="-0.07488235789359449"><ele>117.33333333333333</ele><time>2026-05-01T13:55:34.001Z</time></trkpt><trkpt lat="45.729904150568345" lon="-0.07501040048447677"><ele>115.66666666666666</ele><time>2026-05-01T13:55:35.001Z</time></trkpt><trkpt lat="45.72976946141053" lon="-0.07513487014669619"><ele>114.0</ele><time>2026-05-01T13:55:36.001Z</time></trkpt><trkpt lat="45.729632082613016" lon="-0.07525910484515783"><ele>114.0</ele><time>2026-05-01T13:55:37.001Z</time></trkpt><trkpt lat="45.729500750528324" lon="-0.07538321477635886"><ele>114.0</ele><time>2026-05-01T13:55:38.001Z</time></trkpt><trkpt lat="45.729372672178464" lon="-0.07550754195008574"><ele>114.0</ele><time>2026-05-01T13:55:39.001Z</time></trkpt><trkpt lat="45.72924308248076" lon="-0.07563737482849395"><ele>113.25</ele><time>2026-05-01T13:55:40.001Z</time></trkpt><trkpt lat="45.72911264273919" lon="-0.07576789326994596"><ele>112.5</ele><time>2026-05-01T13:55:41.001Z</time></trkpt><trkpt lat="45.72898820141003" lon="-0.07589649354022288"><ele>111.75</ele><time>2026-05-01T13:55:42.001Z</time></trkpt><trkpt lat="45.728875231466304" lon="-0.07600293443617419"><ele>111.0</ele><time>2026-05-01T13:55:43.001Z</time></trkpt><trkpt lat="45.72875411589358" lon="-0.07609716618892166"><ele>110.5</ele><time>2026-05-01T13:55:44.001Z</time></trkpt><trkpt lat="45.72862428170101" lon="-0.07617505930539463"><ele>110.0</ele><time>2026-05-01T13:55:45.001Z</time></trkpt><trkpt lat="45.728495681215186" lon="-0.07623205147430752"><ele>109.5</ele><time>2026-05-01T13:55:46.001Z</time></trkpt><trkpt lat="45.72834770261207" lon="-0.07628173909070865"><ele>109.0</ele><time>2026-05-01T13:55:47.001Z</time></trkpt><trkpt lat="45.72821267765321" lon="-0.07634709177523913"><ele>108.0</ele><time>2026-05-01T13:55:48.001Z</time></trkpt><trkpt lat="45.72808216458087" lon="-0.07645228466715535"><ele>107.0</ele><time>2026-05-01T13:55:49.001Z</time></trkpt><trkpt lat="45.72795804546871" lon="-0.07658097690214513"><ele>106.0</ele><time>2026-05-01T13:55:50.001Z</time></trkpt><trkpt lat="45.72783566647605" lon="-0.07671185936208837"><ele>104.66666666666667</ele><time>2026-05-01T13:55:51.001Z</time></trkpt><trkpt lat="45.72771408447187" lon="-0.07683648523382468"><ele>103.33333333333334</ele><time>2026-05-01T13:55:52.001Z</time></trkpt><trkpt lat="45.7275854140593" lon="-0.07696568235565306"><ele>102.0</ele><time>2026-05-01T13:55:53.001Z</time></trkpt><trkpt lat="45.72746076171923" lon="-0.07709026065996011"><ele>102.0</ele><time>2026-05-01T13:55:54.001Z</time></trkpt><trkpt lat="45.727333778066175" lon="-0.07721886057541633"><ele>102.0</ele><time>2026-05-01T13:55:55.001Z</time></trkpt><trkpt lat="45.727209584627374" lon="-0.0773422370359084"><ele>102.0</ele><time>2026-05-01T13:55:56.001Z</time></trkpt><trkpt lat="45.72707650507813" lon="-0.07747456662675065"><ele>101.0</ele><time>2026-05-01T13:55:57.001Z</time></trkpt><trkpt lat="45.7269472480039" lon="-0.07761399577176357"><ele>100.0</ele><time>2026-05-01T13:55:58.001Z</time></trkpt><trkpt lat="45.726820134193616" lon="-0.07774938929819113"><ele>99.0</ele><time>2026-05-01T13:55:59.001Z</time></trkpt><trkpt lat="45.72669357063903" lon="-0.07787852573509639"><ele>97.66666666666667</ele><time>2026-05-01T13:56:00.001Z</time></trkpt><trkpt lat="45.726559521598126" lon="-0.07798729755796309"><ele>96.33333333333334</ele><time>2026-05-01T13:56:01.001Z</time></trkpt><trkpt lat="45.726421473036396" lon="-0.07808617510125737"><ele>95.0</ele><time>2026-05-01T13:56:02.001Z</time></trkpt><trkpt lat="45.726294993224016" lon="-0.07817592159621119"><ele>95.0</ele><time>2026-05-01T13:56:03.001Z</time></trkpt><trkpt lat="45.72617391361689" lon="-0.07826013629364019"><ele>95.0</ele><time>2026-05-01T13:56:04Z</time></trkpt><trkpt lat="45.726073289064615" lon="-0.07832602119382305"><ele>95.0</ele><time>2026-05-01T13:56:05Z</time></trkpt><trkpt lat="45.72597144996679" lon="-0.07837807213616087"><ele>95.0</ele><time>2026-05-01T13:56:06Z</time></trkpt><trkpt lat="45.725853720697096" lon="-0.0784147106212902"><ele>92.5</ele><time>2026-05-01T13:56:07Z</time></trkpt><trkpt lat="45.72572776284329" lon="-0.07842842676163898"><ele>90.0</ele><time>2026-05-01T13:56:08Z</time></trkpt><trkpt lat="45.72559465339525" lon="-0.07844034623153523"><ele>87.5</ele><time>2026-05-01T13:56:09Z</time></trkpt><trkpt lat="45.72545061722218" lon="-0.07843201187354497"><ele>85.0</ele><time>2026-05-01T13:56:10Z</time></trkpt><trkpt lat="45.725303576838805" lon="-0.07843957301664906"><ele>82.75</ele><time>2026-05-01T13:56:11Z</time></trkpt><trkpt lat="45.72516871239212" lon="-0.07844375249434016"><ele>80.5</ele><time>2026-05-01T13:56:12Z</time></trkpt><trkpt lat="45.72503523527578" lon="-0.07842728839312073"><ele>78.25</ele><time>2026-05-01T13:56:13Z</time></trkpt><trkpt lat="45.724911594612074" lon="-0.07841579189737223"><ele>76.0</ele><time>2026-05-01T13:56:14Z</time></trkpt><trkpt lat="45.72478008756431" lon="-0.07839970577503066"><ele>76.0</ele><time>2026-05-01T13:56:15Z</time></trkpt><trkpt lat="45.72464525593941" lon="-0.07836607972920122"><ele>76.0</ele><time>2026-05-01T13:56:16Z</time></trkpt><trkpt lat="45.72451673829478" lon="-0.07832806727438116"><ele>76.0</ele><time>2026-05-01T13:56:17Z</time></trkpt><trkpt lat="45.72439435771878" lon="-0.07829520255638875"><ele>76.0</ele><time>2026-05-01T13:56:18Z</time></trkpt><trkpt lat="45.724300595263884" lon="-0.07828261462159074"><ele>74.2</ele><time>2026-05-01T13:56:19Z</time></trkpt><trkpt lat="45.724214559855774" lon="-0.0782748459677996"><ele>72.39999999999999</ele><time>2026-05-01T13:56:20Z</time></trkpt><trkpt lat="45.72414206607305" lon="-0.07828856508435512"><ele>70.6</ele><time>2026-05-01T13:56:21Z</time></trkpt><trkpt lat="45.724035412004355" lon="-0.07839360129704558"><ele>68.8</ele><time>2026-05-01T13:56:23Z</time></trkpt><trkpt lat="45.723972644750624" lon="-0.07851158287053463"><ele>67.0</ele><time>2026-05-01T13:56:24Z</time></trkpt><trkpt lat="45.72391494119616" lon="-0.07863930704442954"><ele>67.0</ele><time>2026-05-01T13:56:25Z</time></trkpt><trkpt lat="45.723841718278685" lon="-0.0787739606504385"><ele>67.0</ele><time>2026-05-01T13:56:26Z</time></trkpt><trkpt lat="45.7237824690015" lon="-0.07891668317691211"><ele>67.0</ele><time>2026-05-01T13:56:27Z</time></trkpt><trkpt lat="45.72372171133597" lon="-0.07904037727305846"><ele>67.0</ele><time>2026-05-01T13:56:28Z</time></trkpt><trkpt lat="45.72369319415621" lon="-0.07918449642937213"><ele>67.0</ele><time>2026-05-01T13:56:29Z</time></trkpt><trkpt lat="45.72366905269572" lon="-0.07932756385682804"><ele>66.6</ele><time>2026-05-01T13:56:30Z</time></trkpt><trkpt lat="45.72365096401816" lon="-0.07946551970742732"><ele>66.2</ele><time>2026-05-01T13:56:31Z</time></trkpt><trkpt lat="45.72363523497348" lon="-0.07959160172547615"><ele>65.8</ele><time>2026-05-01T13:56:32Z</time></trkpt><trkpt lat="45.72360568954404" lon="-0.07971553320330772"><ele>65.4</ele><time>2026-05-01T13:56:33Z</time></trkpt><trkpt lat="45.723579267910665" lon="-0.07983929062083796"><ele>65.0</ele><time>2026-05-01T13:56:34Z</time></trkpt><trkpt lat="45.72356282566057" lon="-0.07995747607813068"><ele>65.0</ele><time>2026-05-01T13:56:35Z</time></trkpt><trkpt lat="45.723529215986446" lon="-0.08005053215082157"><ele>65.0</ele><time>2026-05-01T13:56:36Z</time></trkpt><trkpt lat="45.72351641054722" lon="-0.08014189671586526"><ele>65.0</ele><time>2026-05-01T13:56:38Z</time></trkpt><trkpt lat="45.723582745851864" lon="-0.08015256279402304"><ele>65.0</ele><time>2026-05-01T13:56:40Z</time></trkpt><trkpt lat="45.72368029190264" lon="-0.08023015483671732"><ele>65.0</ele><time>2026-05-01T13:56:42Z</time></trkpt><trkpt lat="45.723811337244115" lon="-0.08026444624626398"><ele>65.33333333333334</ele><time>2026-05-01T13:56:44Z</time></trkpt><trkpt lat="45.72386797162581" lon="-0.08033146106681202"><ele>65.66666666666667</ele><time>2026-05-01T13:56:45Z</time></trkpt><trkpt lat="45.723951876359074" lon="-0.08038317980220087"><ele>66.0</ele><time>2026-05-01T13:56:46Z</time></trkpt><trkpt lat="45.724023934351656" lon="-0.08042886935137135"><ele>66.33333333333333</ele><time>2026-05-01T13:56:47Z</time></trkpt><trkpt lat="45.72409654333106" lon="-0.08047847771020149"><ele>66.66666666666666</ele><time>2026-05-01T13:56:48Z</time></trkpt><trkpt lat="45.72416860395246" lon="-0.0805225439907151"><ele>67.0</ele><time>2026-05-01T13:56:49Z</time></trkpt><trkpt lat="45.72424966449661" lon="-0.08057549301021673"><ele>67.0</ele><time>2026-05-01T13:56:50Z</time></trkpt><trkpt lat="45.72432003579919" lon="-0.08061580494140004"><ele>67.0</ele><time>2026-05-01T13:56:51Z</time></trkpt><trkpt lat="45.724444811482826" lon="-0.08069532236238569"><ele>67.0</ele><time>2026-05-01T13:56:53Z</time></trkpt><trkpt lat="45.72451562038252" lon="-0.08072209361287482"><ele>67.0</ele><time>2026-05-01T13:56:54Z</time></trkpt><trkpt lat="45.724576228525734" lon="-0.08079199485409204"><ele>67.0</ele><time>2026-05-01T13:56:55Z</time></trkpt><trkpt lat="45.72464076139334" lon="-0.08083343204962022"><ele>67.0</ele><time>2026-05-01T13:56:56Z</time></trkpt><trkpt lat="45.724694944841254" lon="-0.08089976521719199"><ele>67.0</ele><time>2026-05-01T13:56:57Z</time></trkpt><trkpt lat="45.72476239654178" lon="-0.08096978365842655"><ele>67.0</ele><time>2026-05-01T13:56:58Z</time></trkpt><trkpt lat="45.72482589024511" lon="-0.08105210505444588"><ele>67.0</ele><time>2026-05-01T13:56:59Z</time></trkpt><trkpt lat="45.72487340074049" lon="-0.08114068974156895"><ele>67.0</ele><time>2026-05-01T13:57:00.001Z</time></trkpt><trkpt lat="45.72493825227092" lon="-0.08120876323426109"><ele>67.0</ele><time>2026-05-01T13:57:01.001Z</time></trkpt><trkpt lat="45.724996628838916" lon="-0.08128933918488444"><ele>67.0</ele><time>2026-05-01T13:57:02.001Z</time></trkpt><trkpt lat="45.7250598960416" lon="-0.08137666534507366"><ele>67.0</ele><time>2026-05-01T13:57:03.001Z</time></trkpt><trkpt lat="45.7251171543111" lon="-0.08145569738160459"><ele>67.0</ele><time>2026-05-01T13:57:04.001Z</time></trkpt><trkpt lat="45.725175250778975" lon="-0.08153460779564832"><ele>67.0</ele><time>2026-05-01T13:57:05.001Z</time></trkpt><trkpt lat="45.72522599766067" lon="-0.08161885169285141"><ele>67.0</ele><time>2026-05-01T13:57:06.001Z</time></trkpt><trkpt lat="45.72533746232535" lon="-0.08172332046240861"><ele>67.0</ele><time>2026-05-01T13:57:08.001Z</time></trkpt><trkpt lat="45.7253939934397" lon="-0.08177132103221176"><ele>67.0</ele><time>2026-05-01T13:57:09.001Z</time></trkpt><trkpt lat="45.72546163204003" lon="-0.08181475279581725"><ele>67.0</ele><time>2026-05-01T13:57:10.001Z</time></trkpt><trkpt lat="45.72553730740395" lon="-0.08185476671787978"><ele>67.0</ele><time>2026-05-01T13:57:11.001Z</time></trkpt><trkpt lat="45.72561758410641" lon="-0.08189462973643813"><ele>67.0</ele><time>2026-05-01T13:57:12.001Z</time></trkpt><trkpt lat="45.72570303743218" lon="-0.08193820620654456"><ele>67.0</ele><time>2026-05-01T13:57:13.001Z</time></trkpt><trkpt lat="45.72579336487498" lon="-0.08196142805193594"><ele>67.0</ele><time>2026-05-01T13:57:14.001Z</time></trkpt><trkpt lat="45.72587744406564" lon="-0.08198349860816596"><ele>67.0</ele><time>2026-05-01T13:57:15.001Z</time></trkpt><trkpt lat="45.72595785626121" lon="-0.08201823648486745"><ele>67.0</ele><time>2026-05-01T13:57:16.001Z</time></trkpt><trkpt lat="45.726033116408765" lon="-0.08202161449019249"><ele>67.0</ele><time>2026-05-01T13:57:17.001Z</time></trkpt><trkpt lat="45.72609227318393" lon="-0.08205458479463403"><ele>67.0</ele><time>2026-05-01T13:57:18.001Z</time></trkpt><trkpt lat="45.72615480867193" lon="-0.08207696767584301"><ele>67.0</ele><time>2026-05-01T13:57:19.001Z</time></trkpt><trkpt lat="45.72626090409532" lon="-0.08214631027254979"><ele>67.0</ele><time>2026-05-01T13:57:21.001Z</time></trkpt><trkpt lat="45.726321875132015" lon="-0.08219627025362142"><ele>67.0</ele><time>2026-05-01T13:57:22.001Z</time></trkpt><trkpt lat="45.72637805286924" lon="-0.08225922123490077"><ele>67.33333333333333</ele><time>2026-05-01T13:57:23.001Z</time></trkpt><trkpt lat="45.72643572826662" lon="-0.08233335863173254"><ele>67.66666666666666</ele><time>2026-05-01T13:57:24.001Z</time></trkpt><trkpt lat="45.72649426230127" lon="-0.08242296784023351"><ele>68.0</ele><time>2026-05-01T13:57:25.001Z</time></trkpt><trkpt lat="45.7265497546732" lon="-0.08251523329778479"><ele>68.33333333333333</ele><time>2026-05-01T13:57:26.001Z</time></trkpt><trkpt lat="45.72659759204177" lon="-0.08261825843821188"><ele>68.66666666666667</ele><time>2026-05-01T13:57:27.001Z</time></trkpt><trkpt lat="45.72663095832527" lon="-0.08273883749384214"><ele>69.0</ele><time>2026-05-01T13:57:28.001Z</time></trkpt><trkpt lat="45.72667406050121" lon="-0.08285060807508617"><ele>69.0</ele><time>2026-05-01T13:57:29.001Z</time></trkpt><trkpt lat="45.72672807430628" lon="-0.0829472465669724"><ele>69.0</ele><time>2026-05-01T13:57:30.001Z</time></trkpt><trkpt lat="45.72677295234521" lon="-0.0830546213221563"><ele>69.0</ele><time>2026-05-01T13:57:31.001Z</time></trkpt><trkpt lat="45.72680117176141" lon="-0.08316147330535774"><ele>69.0</ele><time>2026-05-01T13:57:32.001Z</time></trkpt><trkpt lat="45.7268520038466" lon="-0.08325385338621824"><ele>69.0</ele><time>2026-05-01T13:57:33.001Z</time></trkpt><trkpt lat="45.72689558129342" lon="-0.0833284229083621"><ele>69.0</ele><time>2026-05-01T13:57:34.001Z</time></trkpt><trkpt lat="45.72696439924298" lon="-0.08341831797531896"><ele>69.33333333333333</ele><time>2026-05-01T13:57:36.001Z</time></trkpt><trkpt lat="45.72703087363357" lon="-0.08348754033882338"><ele>69.66666666666667</ele><time>2026-05-01T13:57:38.001Z</time></trkpt><trkpt lat="45.727092313058705" lon="-0.08352515817948299"><ele>70.0</ele><time>2026-05-01T13:57:39.001Z</time></trkpt><trkpt lat="45.72716616878226" lon="-0.08354699655673573"><ele>70.33333333333334</ele><time>2026-05-01T13:57:40.001Z</time></trkpt><trkpt lat="45.72725545012053" lon="-0.08351631865779778"><ele>70.66666666666667</ele><time>2026-05-01T13:57:41.001Z</time></trkpt><trkpt lat="45.72738305106592" lon="-0.0835129126874954"><ele>71.0</ele><time>2026-05-01T13:57:42.001Z</time></trkpt><trkpt lat="45.72752483880654" lon="-0.0834897807113076"><ele>71.0</ele><time>2026-05-01T13:57:43.001Z</time></trkpt><trkpt lat="45.72762488579295" lon="-0.08346471647289765"><ele>71.0</ele><time>2026-05-01T13:57:44.001Z</time></trkpt><trkpt lat="45.727693585622234" lon="-0.08345252436478602"><ele>71.0</ele><time>2026-05-01T13:57:45.001Z</time></trkpt><trkpt lat="45.727773109588185" lon="-0.08343315214170642"><ele>71.0</ele><time>2026-05-01T13:57:47.001Z</time></trkpt><trkpt lat="45.72775042787231" lon="-0.08328321936054149"><ele>71.0</ele><time>2026-05-01T13:57:48.001Z</time></trkpt><trkpt lat="45.72777230780689" lon="-0.08314831847588158"><ele>71.5</ele><time>2026-05-01T13:57:49.001Z</time></trkpt><trkpt lat="45.72779449483793" lon="-0.08297176363852135"><ele>72.0</ele><time>2026-05-01T13:57:50.001Z</time></trkpt><trkpt lat="45.72783061614962" lon="-0.08279614373065004"><ele>72.5</ele><time>2026-05-01T13:57:51.001Z</time></trkpt><trkpt lat="45.7278605616064" lon="-0.08264948766694287"><ele>73.0</ele><time>2026-05-01T13:57:52.001Z</time></trkpt><trkpt lat="45.72789765959782" lon="-0.08250596552942673"><ele>73.6</ele><time>2026-05-01T13:57:53.001Z</time></trkpt><trkpt lat="45.727937398464896" lon="-0.08238913581312327"><ele>74.19999999999999</ele><time>2026-05-01T13:57:54.001Z</time></trkpt><trkpt lat="45.727984765306644" lon="-0.08227193774857833"><ele>74.8</ele><time>2026-05-01T13:57:55.001Z</time></trkpt><trkpt lat="45.728039626512064" lon="-0.08215851623355998"><ele>75.39999999999999</ele><time>2026-05-01T13:57:56.001Z</time></trkpt><trkpt lat="45.72810596690996" lon="-0.0820511448411465"><ele>76.0</ele><time>2026-05-01T13:57:57.001Z</time></trkpt><trkpt lat="45.72817587583228" lon="-0.08194751803629902"><ele>76.0</ele><time>2026-05-01T13:57:58.001Z</time></trkpt><trkpt lat="45.72825405542963" lon="-0.08186021526212806"><ele>76.0</ele><time>2026-05-01T13:57:59.001Z</time></trkpt><trkpt lat="45.72833958569783" lon="-0.08173720450981194"><ele>76.0</ele><time>2026-05-01T13:58:00.001Z</time></trkpt><trkpt lat="45.72842840595054" lon="-0.08161470178844894"><ele>76.0</ele><time>2026-05-01T13:58:01.001Z</time></trkpt><trkpt lat="45.72851250588047" lon="-0.08146939256470911"><ele>76.0</ele><time>2026-05-01T13:58:02.001Z</time></trkpt><trkpt lat="45.728634429905114" lon="-0.08131671375591557"><ele>76.0</ele><time>2026-05-01T13:58:03.001Z</time></trkpt><trkpt lat="45.7287620532685" lon="-0.08113573469725088"><ele>76.0</ele><time>2026-05-01T13:58:04.001Z</time></trkpt><trkpt lat="45.72890016179988" lon="-0.08091722993504402"><ele>78.33333333333333</ele><time>2026-05-01T13:58:05.001Z</time></trkpt><trkpt lat="45.729050534180054" lon="-0.08069943716525983"><ele>80.66666666666667</ele><time>2026-05-01T13:58:06.001Z</time></trkpt><trkpt lat="45.72919977413038" lon="-0.08048387391122903"><ele>83.0</ele><time>2026-05-01T13:58:07.001Z</time></trkpt><trkpt lat="45.72932773249685" lon="-0.08030223018904727"><ele>83.25</ele><time>2026-05-01T13:58:08.001Z</time></trkpt><trkpt lat="45.72944851483032" lon="-0.08015650617199135"><ele>83.5</ele><time>2026-05-01T13:58:09.001Z</time></trkpt><trkpt lat="45.72955115044929" lon="-0.0800213896659862"><ele>83.75</ele><time>2026-05-01T13:58:10Z</time></trkpt><trkpt lat="45.72966552552157" lon="-0.07988732160521579"><ele>84.0</ele><time>2026-05-01T13:58:11Z</time></trkpt><trkpt lat="45.729786241296694" lon="-0.07976651763604466"><ele>84.0</ele><time>2026-05-01T13:58:12Z</time></trkpt><trkpt lat="45.7299150206103" lon="-0.07965167574448485"><ele>84.0</ele><time>2026-05-01T13:58:13Z</time></trkpt><trkpt lat="45.730053784332235" lon="-0.07954008845605506"><ele>84.0</ele><time>2026-05-01T13:58:14Z</time></trkpt><trkpt lat="45.73020364974488" lon="-0.079430196906037"><ele>83.0</ele><time>2026-05-01T13:58:15Z</time></trkpt><trkpt lat="45.73035912736158" lon="-0.07931840918265291"><ele>82.0</ele><time>2026-05-01T13:58:16Z</time></trkpt><trkpt lat="45.73051743784511" lon="-0.07921807073617136"><ele>81.0</ele><time>2026-05-01T13:58:17Z</time></trkpt><trkpt lat="45.73066215538636" lon="-0.07913220477885875"><ele>84.0</ele><time>2026-05-01T13:58:18Z</time></trkpt><trkpt lat="45.73081308915008" lon="-0.07905786015139239"><ele>87.0</ele><time>2026-05-01T13:58:19Z</time></trkpt><trkpt lat="45.73097241139922" lon="-0.0790015703017837"><ele>90.0</ele><time>2026-05-01T13:58:20Z</time></trkpt><trkpt lat="45.73114016321819" lon="-0.07894479953390675"><ele>90.0</ele><time>2026-05-01T13:58:21Z</time></trkpt><trkpt lat="45.731316503163924" lon="-0.07887252137378577"><ele>90.0</ele><time>2026-05-01T13:58:22Z</time></trkpt><trkpt lat="45.73148235066154" lon="-0.0787999154619378"><ele>90.0</ele><time>2026-05-01T13:58:23Z</time></trkpt><trkpt lat="45.73163369005414" lon="-0.07871818202597358"><ele>90.0</ele><time>2026-05-01T13:58:24Z</time></trkpt><trkpt lat="45.731787232313096" lon="-0.07864715782307521"><ele>90.0</ele><time>2026-05-01T13:58:25Z</time></trkpt><trkpt lat="45.731924987618456" lon="-0.07857654793029258"><ele>90.0</ele><time>2026-05-01T13:58:26Z</time></trkpt><trkpt lat="45.732044895677234" lon="-0.07851742816469867"><ele>90.0</ele><time>2026-05-01T13:58:27Z</time></trkpt><trkpt lat="45.73215394054556" lon="-0.07846056726715138"><ele>91.0</ele><time>2026-05-01T13:58:28Z</time></trkpt><trkpt lat="45.73224942410839" lon="-0.07839172075277372"><ele>92.0</ele><time>2026-05-01T13:58:29Z</time></trkpt><trkpt lat="45.732349945610956" lon="-0.07830079703971361"><ele>93.0</ele><time>2026-05-01T13:58:30Z</time></trkpt><trkpt lat="45.73246541082813" lon="-0.07818890637130822"><ele>94.0</ele><time>2026-05-01T13:58:31Z</time></trkpt><trkpt lat="45.73259436286426" lon="-0.0780809649053308"><ele>94.0</ele><time>2026-05-01T13:58:32Z</time></trkpt><trkpt lat="45.73271601085466" lon="-0.07794925986487296"><ele>94.0</ele><time>2026-05-01T13:58:33Z</time></trkpt><trkpt lat="45.73283093527382" lon="-0.07779202569543692"><ele>94.0</ele><time>2026-05-01T13:58:34Z</time></trkpt><trkpt lat="45.732960226027934" lon="-0.0776458888894246"><ele>94.33333333333333</ele><time>2026-05-01T13:58:35Z</time></trkpt><trkpt lat="45.733093551915935" lon="-0.0774864827989123"><ele>94.66666666666667</ele><time>2026-05-01T13:58:36Z</time></trkpt><trkpt lat="45.733228630503554" lon="-0.07731836537110529"><ele>95.0</ele><time>2026-05-01T13:58:37Z</time></trkpt><trkpt lat="45.733370051530336" lon="-0.07717006631237636"><ele>95.0</ele><time>2026-05-01T13:58:38Z</time></trkpt><trkpt lat="45.7335009398744" lon="-0.07700589446734774"><ele>95.0</ele><time>2026-05-01T13:58:39Z</time></trkpt><trkpt lat="45.73362535122151" lon="-0.07684724468889173"><ele>95.0</ele><time>2026-05-01T13:58:40Z</time></trkpt><trkpt lat="45.733729854697394" lon="-0.07672276713408449"><ele>95.5</ele><time>2026-05-01T13:58:41Z</time></trkpt><trkpt lat="45.733826510999556" lon="-0.07661229228555738"><ele>96.0</ele><time>2026-05-01T13:58:42Z</time></trkpt><trkpt lat="45.733937859757226" lon="-0.07653316427379805"><ele>96.5</ele><time>2026-05-01T13:58:43Z</time></trkpt><trkpt lat="45.73404401878521" lon="-0.07644555055886043"><ele>97.0</ele><time>2026-05-01T13:58:44Z</time></trkpt><trkpt lat="45.73417152780269" lon="-0.07635877425808779"><ele>97.0</ele><time>2026-05-01T13:58:45Z</time></trkpt><trkpt lat="45.734304912379265" lon="-0.07631246238513657"><ele>97.0</ele><time>2026-05-01T13:58:46Z</time></trkpt><trkpt lat="45.734420757618956" lon="-0.07625367115933976"><ele>97.0</ele><time>2026-05-01T13:58:47Z</time></trkpt><trkpt lat="45.734521386711556" lon="-0.07618268179865695"><ele>97.0</ele><time>2026-05-01T13:58:48Z</time></trkpt><trkpt lat="45.73457653015067" lon="-0.07612749554924038"><ele>97.0</ele><time>2026-05-01T13:58:49Z</time></trkpt><trkpt lat="45.73467421865488" lon="-0.07600701544951352"><ele>98.0</ele><time>2026-05-01T13:58:50Z</time></trkpt><trkpt lat="45.73475786564683" lon="-0.07586373020739638"><ele>99.0</ele><time>2026-05-01T13:58:51Z</time></trkpt><trkpt lat="45.734868955498825" lon="-0.07572608393271132"><ele>100.0</ele><time>2026-05-01T13:58:52Z</time></trkpt><trkpt lat="45.73496637377719" lon="-0.07559116525156157"><ele>101.0</ele><time>2026-05-01T13:58:53Z</time></trkpt><trkpt lat="45.735055806310896" lon="-0.07545669582841501"><ele>101.0</ele><time>2026-05-01T13:58:54Z</time></trkpt><trkpt lat="45.73513537059235" lon="-0.0753486208877108"><ele>101.0</ele><time>2026-05-01T13:58:55Z</time></trkpt><trkpt lat="45.73521872820794" lon="-0.07526164680333793"><ele>101.0</ele><time>2026-05-01T13:58:56Z</time></trkpt><trkpt lat="45.73532331919578" lon="-0.07519264910707903"><ele>101.0</ele><time>2026-05-01T13:58:57Z</time></trkpt><trkpt lat="45.7354315096224" lon="-0.07511301782176778"><ele>102.5</ele><time>2026-05-01T13:58:58Z</time></trkpt><trkpt lat="45.73555306795722" lon="-0.07501616487545935"><ele>104.0</ele><time>2026-05-01T13:58:59Z</time></trkpt><trkpt lat="45.735676156421185" lon="-0.07494481857303281"><ele>105.5</ele><time>2026-05-01T13:59:00Z</time></trkpt><trkpt lat="45.73578146719955" lon="-0.07485001586402848"><ele>107.0</ele><time>2026-05-01T13:59:01Z</time></trkpt><trkpt lat="45.73587857422245" lon="-0.07470888185337503"><ele>107.0</ele><time>2026-05-01T13:59:02.001Z</time></trkpt><trkpt lat="45.735997345658525" lon="-0.07458713249948769"><ele>107.0</ele><time>2026-05-01T13:59:03.001Z</time></trkpt><trkpt lat="45.73610449837268" lon="-0.07444788804338798"><ele>107.0</ele><time>2026-05-01T13:59:04.001Z</time></trkpt><trkpt lat="45.73620734470213" lon="-0.07430882691008522"><ele>107.0</ele><time>2026-05-01T13:59:05.001Z</time></trkpt><trkpt lat="45.736308805767905" lon="-0.07418746526553047"><ele>107.25</ele><time>2026-05-01T13:59:06.001Z</time></trkpt><trkpt lat="45.73640992194918" lon="-0.07406069603149498"><ele>107.5</ele><time>2026-05-01T13:59:07.001Z</time></trkpt><trkpt lat="45.736506102732825" lon="-0.07394580706111052"><ele>107.75</ele><time>2026-05-01T13:59:08.001Z</time></trkpt><trkpt lat="45.736611029705145" lon="-0.07387362377065514"><ele>108.0</ele><time>2026-05-01T13:59:09.001Z</time></trkpt><trkpt lat="45.7367091784572" lon="-0.07380030988982868"><ele>108.0</ele><time>2026-05-01T13:59:10.001Z</time></trkpt><trkpt lat="45.736797880007586" lon="-0.0737286286696919"><ele>108.0</ele><time>2026-05-01T13:59:11.001Z</time></trkpt><trkpt lat="45.736882612178846" lon="-0.07368436507575957"><ele>108.0</ele><time>2026-05-01T13:59:12.001Z</time></trkpt><trkpt lat="45.73694416442379" lon="-0.0736276791560906"><ele>108.0</ele><time>2026-05-01T13:59:13.001Z</time></trkpt><trkpt lat="45.736987558718255" lon="-0.07351016077019756"><ele>108.0</ele><time>2026-05-01T13:59:15.001Z</time></trkpt><trkpt lat="45.73694982274629" lon="-0.07342629043097802"><ele>108.0</ele><time>2026-05-01T13:59:16.001Z</time></trkpt><trkpt lat="45.73693206929865" lon="-0.07333246490879208"><ele>109.25</ele><time>2026-05-01T13:59:17.001Z</time></trkpt><trkpt lat="45.73691478867836" lon="-0.07319032954192214"><ele>110.5</ele><time>2026-05-01T13:59:18.001Z</time></trkpt><trkpt lat="45.73687934242511" lon="-0.07302033952981056"><ele>111.75</ele><time>2026-05-01T13:59:19.001Z</time></trkpt><trkpt lat="45.73682450001722" lon="-0.07283301507121291"><ele>113.0</ele><time>2026-05-01T13:59:20.001Z</time></trkpt><trkpt lat="45.736737872339496" lon="-0.07273073577287024"><ele>113.0</ele><time>2026-05-01T13:59:21.001Z</time></trkpt><trkpt lat="45.73667766586897" lon="-0.07262282924408062"><ele>113.00000000000001</ele><time>2026-05-01T13:59:22.001Z</time></trkpt><trkpt lat="45.73661120525341" lon="-0.0725037136713302"><ele>113.00000000000001</ele><time>2026-05-01T13:59:23.001Z</time></trkpt><trkpt lat="45.73653956803205" lon="-0.0723763670926082"><ele>113.0</ele><time>2026-05-01T13:59:24.001Z</time></trkpt><trkpt lat="45.73647786691511" lon="-0.0722709164514336"><ele>113.0</ele><time>2026-05-01T13:59:25.001Z</time></trkpt><trkpt lat="45.73642810614291" lon="-0.07218992941150244"><ele>114.2</ele><time>2026-05-01T13:59:26.001Z</time></trkpt><trkpt lat="45.736374512783556" lon="-0.07210541338323426"><ele>115.4</ele><time>2026-05-01T13:59:27.001Z</time></trkpt><trkpt lat="45.73633286689151" lon="-0.07200441156051861"><ele>116.60000000000001</ele><time>2026-05-01T13:59:28.001Z</time></trkpt><trkpt lat="45.73622581033557" lon="-0.07187225143577607"><ele>117.80000000000001</ele><time>2026-05-01T13:59:30.001Z</time></trkpt><trkpt lat="45.73617837111996" lon="-0.071788647952304"><ele>119.0</ele><time>2026-05-01T13:59:32.001Z</time></trkpt><trkpt lat="45.73606908713815" lon="-0.0718267626087797"><ele>118.66666666666666</ele><time>2026-05-01T13:59:36.001Z</time></trkpt><trkpt lat="45.73597892485465" lon="-0.07187920715990292"><ele>118.33333333333333</ele><time>2026-05-01T13:59:38.001Z</time></trkpt><trkpt lat="45.735883686756885" lon="-0.07193116695351259"><ele>118.0</ele><time>2026-05-01T13:59:40.001Z</time></trkpt><trkpt lat="45.735801728347525" lon="-0.07194937790338374"><ele>117.66666666666666</ele><time>2026-05-01T13:59:42.001Z</time></trkpt><trkpt lat="45.735765606828394" lon="-0.07183944481008948"><ele>117.33333333333333</ele><time>2026-05-01T13:59:46.001Z</time></trkpt><trkpt lat="45.73569173129621" lon="-0.07186442306692752"><ele>117.0</ele><time>2026-05-01T13:59:59.001Z</time></trkpt><trkpt lat="45.735620261530705" lon="-0.07191444543274784"><ele>117.0</ele><time>2026-05-01T14:00:02.001Z</time></trkpt><trkpt lat="45.7355170454423" lon="-0.07188832012322864"><ele>117.0</ele><time>2026-05-01T14:00:04.001Z</time></trkpt><trkpt lat="45.73543701935798" lon="-0.07188985792118542"><ele>117.0</ele><time>2026-05-01T14:00:06.001Z</time></trkpt><trkpt lat="45.735369877071086" lon="-0.07192550250049669"><ele>117.0</ele><time>2026-05-01T14:00:07.001Z</time></trkpt><trkpt lat="45.7352941712539" lon="-0.07193471385236942"><ele>117.0</ele><time>2026-05-01T14:00:09.001Z</time></trkpt><trkpt lat="45.73520852937029" lon="-0.07195360258057892"><ele>117.0</ele><time>2026-05-01T14:00:11.001Z</time></trkpt><trkpt lat="45.73510798144626" lon="-0.07200224710664212"><ele>118.39999999999999</ele><time>2026-05-01T14:00:13.001Z</time></trkpt><trkpt lat="45.734999648701915" lon="-0.07199000989715687"><ele>119.79999999999998</ele><time>2026-05-01T14:00:15.001Z</time></trkpt><trkpt lat="45.73495540651116" lon="-0.07191955089267821"><ele>121.2</ele><time>2026-05-01T14:00:16Z</time></trkpt><trkpt lat="45.73487908938835" lon="-0.07187774519684831"><ele>122.6</ele><time>2026-05-01T14:00:19Z</time></trkpt><trkpt lat="45.73476203797699" lon="-0.07182833413630689"><ele>124.0</ele><time>2026-05-01T14:00:21Z</time></trkpt><trkpt lat="45.73467899840579" lon="-0.0717484848035397"><ele>124.0</ele><time>2026-05-01T14:00:23Z</time></trkpt><trkpt lat="45.73460620074642" lon="-0.07163406701921488"><ele>124.0</ele><time>2026-05-01T14:00:25Z</time></trkpt><trkpt lat="45.734517842593355" lon="-0.07152688518437328"><ele>124.0</ele><time>2026-05-01T14:00:27Z</time></trkpt><trkpt lat="45.73448721779602" lon="-0.07142224771365145"><ele>124.0</ele><time>2026-05-01T14:00:28Z</time></trkpt><trkpt lat="45.73445797127166" lon="-0.07132622154969104"><ele>124.0</ele><time>2026-05-01T14:00:29Z</time></trkpt><trkpt lat="45.73441695636691" lon="-0.07122107688643527"><ele>124.80000000000001</ele><time>2026-05-01T14:00:31Z</time></trkpt><trkpt lat="45.73431481519866" lon="-0.07110925922122951"><ele>125.60000000000001</ele><time>2026-05-01T14:00:33Z</time></trkpt><trkpt lat="45.73425875743331" lon="-0.07104443084956792"><ele>126.4</ele><time>2026-05-01T14:00:34Z</time></trkpt><trkpt lat="45.734197712181924" lon="-0.07092158295206476"><ele>127.2</ele><time>2026-05-01T14:00:36Z</time></trkpt><trkpt lat="45.73418078989884" lon="-0.07082520836504438"><ele>128.0</ele><time>2026-05-01T14:00:43Z</time></trkpt><trkpt lat="45.734242400280166" lon="-0.07074649241704055"><ele>128.0</ele><time>2026-05-01T14:00:44Z</time></trkpt><trkpt lat="45.73433031475476" lon="-0.07065924131196469"><ele>128.0</ele><time>2026-05-01T14:00:45Z</time></trkpt><trkpt lat="45.734390387987546" lon="-0.07053445398753008"><ele>128.0</ele><time>2026-05-01T14:00:46Z</time></trkpt><trkpt lat="45.7344460555292" lon="-0.0704211152217229"><ele>128.0</ele><time>2026-05-01T14:00:47Z</time></trkpt><trkpt lat="45.73450102755276" lon="-0.0703005910777449"><ele>128.0</ele><time>2026-05-01T14:00:48Z</time></trkpt><trkpt lat="45.73454524930255" lon="-0.07017502234211978"><ele>128.20000000000002</ele><time>2026-05-01T14:00:49Z</time></trkpt><trkpt lat="45.73458756217722" lon="-0.0700461670915529"><ele>128.4</ele><time>2026-05-01T14:00:50Z</time></trkpt><trkpt lat="45.7346399562456" lon="-0.06991441032653657"><ele>128.60000000000002</ele><time>2026-05-01T14:00:51Z</time></trkpt><trkpt lat="45.73468271748729" lon="-0.06978007531569656"><ele>128.8</ele><time>2026-05-01T14:00:52Z</time></trkpt><trkpt lat="45.73472632779308" lon="-0.06964260239121867"><ele>129.0</ele><time>2026-05-01T14:00:53Z</time></trkpt><trkpt lat="45.73476180078033" lon="-0.06950455440151623"><ele>129.5</ele><time>2026-05-01T14:00:54Z</time></trkpt><trkpt lat="45.734809952887545" lon="-0.0693812752173393"><ele>130.0</ele><time>2026-05-01T14:00:55Z</time></trkpt><trkpt lat="45.73486377142057" lon="-0.06928089134714249"><ele>130.5</ele><time>2026-05-01T14:00:56Z</time></trkpt><trkpt lat="45.73491612807167" lon="-0.06918270804936151"><ele>131.0</ele><time>2026-05-01T14:00:57Z</time></trkpt><trkpt lat="45.734972831476824" lon="-0.06909539027409876"><ele>131.5</ele><time>2026-05-01T14:00:58Z</time></trkpt><trkpt lat="45.73502945144211" lon="-0.06900266099262614"><ele>132.0</ele><time>2026-05-01T14:00:59Z</time></trkpt><trkpt lat="45.735095562807466" lon="-0.06891729972310959"><ele>132.4</ele><time>2026-05-01T14:01:00Z</time></trkpt><trkpt lat="45.73517196016024" lon="-0.06883246966848744"><ele>132.79999999999998</ele><time>2026-05-01T14:01:01Z</time></trkpt><trkpt lat="45.73525584675117" lon="-0.068753855027911"><ele>133.2</ele><time>2026-05-01T14:01:02Z</time></trkpt><trkpt lat="45.73534727232742" lon="-0.06867249834300422"><ele>133.6</ele><time>2026-05-01T14:01:03Z</time></trkpt><trkpt lat="45.73544457328825" lon="-0.06858701850094126"><ele>134.0</ele><time>2026-05-01T14:01:04Z</time></trkpt><trkpt lat="45.73553717014253" lon="-0.06849848390251934"><ele>135.2</ele><time>2026-05-01T14:01:05Z</time></trkpt><trkpt lat="45.735636049061846" lon="-0.06840913172360528"><ele>136.4</ele><time>2026-05-01T14:01:06Z</time></trkpt><trkpt lat="45.73572066125799" lon="-0.06832108122139277"><ele>137.6</ele><time>2026-05-01T14:01:07Z</time></trkpt><trkpt lat="45.735797493826496" lon="-0.0682477176756572"><ele>138.8</ele><time>2026-05-01T14:01:08Z</time></trkpt><trkpt lat="45.735873557871734" lon="-0.06816743274546043"><ele>140.0</ele><time>2026-05-01T14:01:09.001Z</time></trkpt><trkpt lat="45.73594520355409" lon="-0.06807437744277989"><ele>140.4</ele><time>2026-05-01T14:01:10.001Z</time></trkpt><trkpt lat="45.73601818909206" lon="-0.06798493005744195"><ele>140.8</ele><time>2026-05-01T14:01:11.001Z</time></trkpt><trkpt lat="45.736104970553384" lon="-0.06789207491711552"><ele>141.2</ele><time>2026-05-01T14:01:12.001Z</time></trkpt><trkpt lat="45.73618108312838" lon="-0.06779790016711415"><ele>141.6</ele><time>2026-05-01T14:01:13.001Z</time></trkpt><trkpt lat="45.73626626585352" lon="-0.06772133330040153"><ele>142.0</ele><time>2026-05-01T14:01:14.001Z</time></trkpt><trkpt lat="45.736355174758195" lon="-0.06763020825892638"><ele>142.6</ele><time>2026-05-01T14:01:15.001Z</time></trkpt><trkpt lat="45.736425320000926" lon="-0.06753482077263014"><ele>143.2</ele><time>2026-05-01T14:01:16.001Z</time></trkpt><trkpt lat="45.73650679143056" lon="-0.06743400778698216"><ele>143.8</ele><time>2026-05-01T14:01:17.001Z</time></trkpt><trkpt lat="45.73659202315106" lon="-0.06733904724431569"><ele>144.4</ele><time>2026-05-01T14:01:18.001Z</time></trkpt><trkpt lat="45.73668665562983" lon="-0.06724370504031629"><ele>145.0</ele><time>2026-05-01T14:01:19.001Z</time></trkpt><trkpt lat="45.73677614129229" lon="-0.06715427511203508"><ele>145.0</ele><time>2026-05-01T14:01:20.001Z</time></trkpt><trkpt lat="45.736874119136665" lon="-0.0670841411567969"><ele>145.0</ele><time>2026-05-01T14:01:21.001Z</time></trkpt><trkpt lat="45.736975822623045" lon="-0.06702295053937374"><ele>145.0</ele><time>2026-05-01T14:01:22.001Z</time></trkpt><trkpt lat="45.737068492158514" lon="-0.0669752864853015"><ele>145.0</ele><time>2026-05-01T14:01:23.001Z</time></trkpt><trkpt lat="45.737146092239186" lon="-0.06693254618708924"><ele>145.0</ele><time>2026-05-01T14:01:24.001Z</time></trkpt><trkpt lat="45.737212828468095" lon="-0.0668452853105563"><ele>145.5</ele><time>2026-05-01T14:01:26.001Z</time></trkpt><trkpt lat="45.73724603198095" lon="-0.06675029781285122"><ele>146.0</ele><time>2026-05-01T14:01:28.001Z</time></trkpt><trkpt lat="45.73713439190137" lon="-0.06661199716747743"><ele>146.5</ele><time>2026-05-01T14:01:29.001Z</time></trkpt><trkpt lat="45.73707224807681" lon="-0.06645952744317593"><ele>147.0</ele><time>2026-05-01T14:01:30.001Z</time></trkpt><trkpt lat="45.73700624642369" lon="-0.06629894785208859"><ele>147.0</ele><time>2026-05-01T14:01:31.001Z</time></trkpt><trkpt lat="45.73693105297442" lon="-0.06612758029090635"><ele>147.0</ele><time>2026-05-01T14:01:32.001Z</time></trkpt><trkpt lat="45.73683895380802" lon="-0.0659677601577705"><ele>147.0</ele><time>2026-05-01T14:01:33.001Z</time></trkpt><trkpt lat="45.736737556083966" lon="-0.06579727886685538"><ele>147.0</ele><time>2026-05-01T14:01:34.001Z</time></trkpt><trkpt lat="45.7366294651829" lon="-0.06562425173023828"><ele>146.0</ele><time>2026-05-01T14:01:35.001Z</time></trkpt><trkpt lat="45.73650783208431" lon="-0.06543780391601589"><ele>145.0</ele><time>2026-05-01T14:01:36.001Z</time></trkpt><trkpt lat="45.736380332414626" lon="-0.06525216134177005"><ele>144.0</ele><time>2026-05-01T14:01:37.001Z</time></trkpt><trkpt lat="45.736257200443134" lon="-0.06505212948019293"><ele>142.0</ele><time>2026-05-01T14:01:38.001Z</time></trkpt><trkpt lat="45.736127533434825" lon="-0.06487674247818884"><ele>140.0</ele><time>2026-05-01T14:01:39.001Z</time></trkpt><trkpt lat="45.73601502901262" lon="-0.06469267912197323"><ele>138.0</ele><time>2026-05-01T14:01:40.001Z</time></trkpt><trkpt lat="45.73590118120326" lon="-0.06454938217973628"><ele>138.0</ele><time>2026-05-01T14:01:41.001Z</time></trkpt><trkpt lat="45.73579805778746" lon="-0.06439270273569368"><ele>138.0</ele><time>2026-05-01T14:01:42.001Z</time></trkpt><trkpt lat="45.73568334886744" lon="-0.06420201783508214"><ele>138.0</ele><time>2026-05-01T14:01:43.001Z</time></trkpt><trkpt lat="45.73556378193447" lon="-0.0640389771211845"><ele>136.0</ele><time>2026-05-01T14:01:44.001Z</time></trkpt><trkpt lat="45.73545810209083" lon="-0.06387766418223187"><ele>134.0</ele><time>2026-05-01T14:01:45.001Z</time></trkpt><trkpt lat="45.73534970794118" lon="-0.06372722075705857"><ele>132.0</ele><time>2026-05-01T14:01:46.001Z</time></trkpt><trkpt lat="45.73523373160507" lon="-0.06360013151768593"><ele>131.66666666666666</ele><time>2026-05-01T14:01:47.001Z</time></trkpt><trkpt lat="45.73512786621341" lon="-0.0634473396345732"><ele>131.33333333333331</ele><time>2026-05-01T14:01:48.001Z</time></trkpt><trkpt lat="45.73502686218419" lon="-0.06327183471334699"><ele>131.0</ele><time>2026-05-01T14:01:49.001Z</time></trkpt><trkpt lat="45.734921454475774" lon="-0.06310368376499316"><ele>129.33333333333331</ele><time>2026-05-01T14:01:50.001Z</time></trkpt><trkpt lat="45.734817378841385" lon="-0.06294150616905411"><ele>127.66666666666666</ele><time>2026-05-01T14:01:51.001Z</time></trkpt><trkpt lat="45.73472158279808" lon="-0.0627608896954083"><ele>126.0</ele><time>2026-05-01T14:01:52.001Z</time></trkpt><trkpt lat="45.734643072141516" lon="-0.06256559009323671"><ele>125.66666666666666</ele><time>2026-05-01T14:01:53.001Z</time></trkpt><trkpt lat="45.73453785305335" lon="-0.06239834830353242"><ele>125.33333333333333</ele><time>2026-05-01T14:01:54.001Z</time></trkpt><trkpt lat="45.73444871458889" lon="-0.062217597341325204"><ele>125.0</ele><time>2026-05-01T14:01:55.001Z</time></trkpt><trkpt lat="45.73436495608735" lon="-0.062028582913496264"><ele>125.0</ele><time>2026-05-01T14:01:56.001Z</time></trkpt><trkpt lat="45.73427912356854" lon="-0.06182714595657867"><ele>125.0</ele><time>2026-05-01T14:01:57.001Z</time></trkpt><trkpt lat="45.734197958242035" lon="-0.061636662256120904"><ele>125.0</ele><time>2026-05-01T14:01:58.001Z</time></trkpt><trkpt lat="45.73412839124168" lon="-0.06143159675963332"><ele>124.33333333333333</ele><time>2026-05-01T14:01:59.001Z</time></trkpt><trkpt lat="45.73402425260146" lon="-0.06125430739446668"><ele>123.66666666666666</ele><time>2026-05-01T14:02:00.001Z</time></trkpt><trkpt lat="45.733930303437624" lon="-0.061068393670809025"><ele>123.0</ele><time>2026-05-01T14:02:01.001Z</time></trkpt><trkpt lat="45.733839998164754" lon="-0.06088717268291912"><ele>122.0</ele><time>2026-05-01T14:02:02.001Z</time></trkpt><trkpt lat="45.733747913663606" lon="-0.06070238120719556"><ele>121.0</ele><time>2026-05-01T14:02:03.001Z</time></trkpt><trkpt lat="45.73365293858565" lon="-0.060516568522941384"><ele>120.0</ele><time>2026-05-01T14:02:04.001Z</time></trkpt><trkpt lat="45.733557573114204" lon="-0.06033239756401265"><ele>119.66666666666666</ele><time>2026-05-01T14:02:05.001Z</time></trkpt><trkpt lat="45.733462084971976" lon="-0.06014935595473991"><ele>119.33333333333333</ele><time>2026-05-01T14:02:06.001Z</time></trkpt><trkpt lat="45.7333632053454" lon="-0.059959152760501996"><ele>119.0</ele><time>2026-05-01T14:02:07.001Z</time></trkpt><trkpt lat="45.733267355049215" lon="-0.05977218217083368"><ele>119.0</ele><time>2026-05-01T14:02:08.001Z</time></trkpt><trkpt lat="45.73317432800085" lon="-0.05958312821238846"><ele>119.0</ele><time>2026-05-01T14:02:09.001Z</time></trkpt><trkpt lat="45.73307879025922" lon="-0.05938050736030696"><ele>119.0</ele><time>2026-05-01T14:02:10.001Z</time></trkpt><trkpt lat="45.732990063829966" lon="-0.059191215769533234"><ele>118.33333333333333</ele><time>2026-05-01T14:02:11.001Z</time></trkpt><trkpt lat="45.73290304977084" lon="-0.059005649800239306"><ele>117.66666666666666</ele><time>2026-05-01T14:02:12.001Z</time></trkpt><trkpt lat="45.732820037937" lon="-0.05881312294833524"><ele>117.0</ele><time>2026-05-01T14:02:13.001Z</time></trkpt><trkpt lat="45.73274380065686" lon="-0.058632090457067104"><ele>117.5</ele><time>2026-05-01T14:02:14.001Z</time></trkpt><trkpt lat="45.73266661940633" lon="-0.05844763446879496"><ele>118.0</ele><time>2026-05-01T14:02:15.001Z</time></trkpt><trkpt lat="45.732594953973745" lon="-0.05827049481692911"><ele>118.5</ele><time>2026-05-01T14:02:16.001Z</time></trkpt><trkpt lat="45.73252383348901" lon="-0.058108101671893536"><ele>119.0</ele><time>2026-05-01T14:02:17.001Z</time></trkpt><trkpt lat="45.73246274152512" lon="-0.05793192028933231"><ele>119.0</ele><time>2026-05-01T14:02:18.001Z</time></trkpt><trkpt lat="45.73238318295836" lon="-0.057788465815533124"><ele>119.0</ele><time>2026-05-01T14:02:19.001Z</time></trkpt><trkpt lat="45.73231259325694" lon="-0.057650531870241564"><ele>119.0</ele><time>2026-05-01T14:02:20.001Z</time></trkpt><trkpt lat="45.73224089593093" lon="-0.0575260073124623"><ele>119.0</ele><time>2026-05-01T14:02:21.001Z</time></trkpt><trkpt lat="45.732146209866485" lon="-0.057424513364229685"><ele>118.6</ele><time>2026-05-01T14:02:22Z</time></trkpt><trkpt lat="45.73206258086263" lon="-0.05732362405804854"><ele>118.2</ele><time>2026-05-01T14:02:23Z</time></trkpt><trkpt lat="45.73198966299694" lon="-0.05721930903559129"><ele>117.79999999999998</ele><time>2026-05-01T14:02:24Z</time></trkpt><trkpt lat="45.731913437120845" lon="-0.05712845868024617"><ele>117.39999999999999</ele><time>2026-05-01T14:02:25Z</time></trkpt><trkpt lat="45.73183273638636" lon="-0.05704863936662015"><ele>117.0</ele><time>2026-05-01T14:02:26Z</time></trkpt><trkpt lat="45.731762806887154" lon="-0.056961501116669234"><ele>117.0</ele><time>2026-05-01T14:02:27Z</time></trkpt><trkpt lat="45.731710545449324" lon="-0.05690019957497566"><ele>116.99999999999999</ele><time>2026-05-01T14:02:28Z</time></trkpt><trkpt lat="45.73164867815079" lon="-0.056841755789981276"><ele>116.99999999999999</ele><time>2026-05-01T14:02:32Z</time></trkpt><trkpt lat="45.7315661549221" lon="-0.05693939017406967"><ele>117.0</ele><time>2026-05-01T14:02:33Z</time></trkpt><trkpt lat="45.731476737353645" lon="-0.05705950965094554"><ele>117.0</ele><time>2026-05-01T14:02:34Z</time></trkpt><trkpt lat="45.73132089092847" lon="-0.05719407153742236"><ele>117.0</ele><time>2026-05-01T14:02:35Z</time></trkpt><trkpt lat="45.731173887696805" lon="-0.05732304090170346"><ele>117.0</ele><time>2026-05-01T14:02:36Z</time></trkpt><trkpt lat="45.731052699773194" lon="-0.05743572738338814"><ele>117.0</ele><time>2026-05-01T14:02:37Z</time></trkpt><trkpt lat="45.7309227316334" lon="-0.057554554914353157"><ele>118.0</ele><time>2026-05-01T14:02:38Z</time></trkpt><trkpt lat="45.730821790368154" lon="-0.057665088315191404"><ele>118.99999999999999</ele><time>2026-05-01T14:02:39Z</time></trkpt><trkpt lat="45.730720500510316" lon="-0.05776669194597139"><ele>119.99999999999999</ele><time>2026-05-01T14:02:40Z</time></trkpt><trkpt lat="45.730664312402304" lon="-0.057826264310732255"><ele>121.0</ele><time>2026-05-01T14:02:41Z</time></trkpt><trkpt lat="45.730602406449165" lon="-0.05790646360698334"><ele>122.0</ele><time>2026-05-01T14:02:43Z</time></trkpt><trkpt lat="45.73052449263183" lon="-0.05783114489112878"><ele>122.0</ele><time>2026-05-01T14:02:47Z</time></trkpt><trkpt lat="45.73054492658027" lon="-0.05769472762715189"><ele>121.99999999999999</ele><time>2026-05-01T14:02:49Z</time></trkpt><trkpt lat="45.730611717752204" lon="-0.05766802453770389"><ele>121.99999999999999</ele><time>2026-05-01T14:02:51Z</time></trkpt><trkpt lat="45.73069489224712" lon="-0.05760307098626363"><ele>122.0</ele><time>2026-05-01T14:02:52Z</time></trkpt><trkpt lat="45.7307915904688" lon="-0.05751931088696586"><ele>122.0</ele><time>2026-05-01T14:02:53Z</time></trkpt><trkpt lat="45.73089075486843" lon="-0.05743577666831513"><ele>121.83333333333333</ele><time>2026-05-01T14:02:54Z</time></trkpt><trkpt lat="45.730965148924305" lon="-0.057390687003094513"><ele>121.66666666666666</ele><time>2026-05-01T14:02:55Z</time></trkpt><trkpt lat="45.73104736697546" lon="-0.057371017506639"><ele>121.5</ele><time>2026-05-01T14:02:56Z</time></trkpt><trkpt lat="45.7311324596767" lon="-0.057368300586389545"><ele>121.33333333333334</ele><time>2026-05-01T14:02:57Z</time></trkpt><trkpt lat="45.731197802299064" lon="-0.0573336774518742"><ele>121.16666666666667</ele><time>2026-05-01T14:02:58Z</time></trkpt><trkpt lat="45.73127263184422" lon="-0.05726261736987363"><ele>121.0</ele><time>2026-05-01T14:02:59Z</time></trkpt><trkpt lat="45.73134554472197" lon="-0.05718301943247785"><ele>120.33333333333334</ele><time>2026-05-01T14:03:00Z</time></trkpt><trkpt lat="45.73141968270297" lon="-0.057105544067220376"><ele>119.66666666666667</ele><time>2026-05-01T14:03:01Z</time></trkpt><trkpt lat="45.73147525292029" lon="-0.05703729402026033"><ele>119.0</ele><time>2026-05-01T14:03:02Z</time></trkpt><trkpt lat="45.73153764214101" lon="-0.05697224290061662"><ele>118.33333333333334</ele><time>2026-05-01T14:03:03Z</time></trkpt><trkpt lat="45.73159150916932" lon="-0.056916677342478995"><ele>117.66666666666667</ele><time>2026-05-01T14:03:04Z</time></trkpt><trkpt lat="45.73165557027523" lon="-0.05686208435242427"><ele>117.0</ele><time>2026-05-01T14:03:06Z</time></trkpt><trkpt lat="45.73176452883232" lon="-0.05689170867722272"><ele>117.0</ele><time>2026-05-01T14:03:09Z</time></trkpt><trkpt lat="45.73184545679205" lon="-0.0569910048130308"><ele>117.0</ele><time>2026-05-01T14:03:10Z</time></trkpt><trkpt lat="45.731953653243416" lon="-0.057133480321674375"><ele>117.0</ele><time>2026-05-01T14:03:11Z</time></trkpt><trkpt lat="45.73207125285" lon="-0.05728360312391331"><ele>117.0</ele><time>2026-05-01T14:03:12Z</time></trkpt><trkpt lat="45.732210180983934" lon="-0.05744313708188165"><ele>117.66666666666666</ele><time>2026-05-01T14:03:13Z</time></trkpt><trkpt lat="45.73233118187566" lon="-0.05763436026768556"><ele>118.33333333333333</ele><time>2026-05-01T14:03:14Z</time></trkpt><trkpt lat="45.73244212808455" lon="-0.05784054816118524"><ele>119.0</ele><time>2026-05-01T14:03:15.001Z</time></trkpt><trkpt lat="45.73253965419314" lon="-0.05806672811052678"><ele>119.0</ele><time>2026-05-01T14:03:16.001Z</time></trkpt><trkpt lat="45.73262214757018" lon="-0.05825048077408573"><ele>119.0</ele><time>2026-05-01T14:03:17.001Z</time></trkpt><trkpt lat="45.732703181998176" lon="-0.05842412780516728"><ele>119.0</ele><time>2026-05-01T14:03:18.001Z</time></trkpt><trkpt lat="45.73277433335236" lon="-0.058595356972236425"><ele>119.0</ele><time>2026-05-01T14:03:19.001Z</time></trkpt><trkpt lat="45.73284904509268" lon="-0.05877693211971849"><ele>119.0</ele><time>2026-05-01T14:03:20.001Z</time></trkpt><trkpt lat="45.7329281285795" lon="-0.05895368196713654"><ele>119.0</ele><time>2026-05-01T14:03:21.001Z</time></trkpt><trkpt lat="45.7329890030931" lon="-0.05909581399884498"><ele>119.0</ele><time>2026-05-01T14:03:22.001Z</time></trkpt><trkpt lat="45.73304133978213" lon="-0.059199410924799925"><ele>119.0</ele><time>2026-05-01T14:03:23.001Z</time></trkpt><trkpt lat="45.73307799073912" lon="-0.05928485524277529"><ele>119.0</ele><time>2026-05-01T14:03:24.001Z</time></trkpt><trkpt lat="45.73311150096743" lon="-0.059364754502152436"><ele>119.0</ele><time>2026-05-01T14:03:26.001Z</time></trkpt><trkpt lat="45.73296289958494" lon="-0.059506851703452594"><ele>119.0</ele><time>2026-05-01T14:03:28.001Z</time></trkpt><trkpt lat="45.73286571760308" lon="-0.05960044296568675"><ele>119.0</ele><time>2026-05-01T14:03:29.001Z</time></trkpt><trkpt lat="45.732741230957515" lon="-0.05970601812891022"><ele>119.0</ele><time>2026-05-01T14:03:30.001Z</time></trkpt><trkpt lat="45.73257857151822" lon="-0.05980924566951972"><ele>120.66666666666666</ele><time>2026-05-01T14:03:31.001Z</time></trkpt><trkpt lat="45.73242806393698" lon="-0.059933760265164004"><ele>122.33333333333334</ele><time>2026-05-01T14:03:32.001Z</time></trkpt><trkpt lat="45.73228329286" lon="-0.06005535166451642"><ele>124.0</ele><time>2026-05-01T14:03:33.001Z</time></trkpt><trkpt lat="45.73215715061999" lon="-0.06016774306023552"><ele>124.25</ele><time>2026-05-01T14:03:34.001Z</time></trkpt><trkpt lat="45.732031255162674" lon="-0.06029956893856864"><ele>124.5</ele><time>2026-05-01T14:03:35.001Z</time></trkpt><trkpt lat="45.73191062753071" lon="-0.06039796327742295"><ele>124.75</ele><time>2026-05-01T14:03:36.001Z</time></trkpt><trkpt lat="45.73181204669479" lon="-0.06049232721882106"><ele>125.0</ele><time>2026-05-01T14:03:37.001Z</time></trkpt><trkpt lat="45.73172545147562" lon="-0.06057155729149222"><ele>124.33333333333333</ele><time>2026-05-01T14:03:38.001Z</time></trkpt><trkpt lat="45.731655332802845" lon="-0.06065045149669991"><ele>123.66666666666666</ele><time>2026-05-01T14:03:39.001Z</time></trkpt><trkpt lat="45.73162246386405" lon="-0.060784254704927834"><ele>123.0</ele><time>2026-05-01T14:03:40.001Z</time></trkpt><trkpt lat="45.73147839060121" lon="-0.061125017639616766"><ele>123.0</ele><time>2026-05-01T14:03:42.001Z</time></trkpt><trkpt lat="45.731376330184716" lon="-0.061237492566287625"><ele>123.0</ele><time>2026-05-01T14:03:43.001Z</time></trkpt><trkpt lat="45.73126276097052" lon="-0.061350843932653554"><ele>123.0</ele><time>2026-05-01T14:03:44.001Z</time></trkpt><trkpt lat="45.731109866329746" lon="-0.06146954208766188"><ele>123.0</ele><time>2026-05-01T14:03:45.001Z</time></trkpt><trkpt lat="45.73095207017686" lon="-0.06161875111929349"><ele>121.33333333333334</ele><time>2026-05-01T14:03:46.001Z</time></trkpt><trkpt lat="45.730776255336906" lon="-0.06178299356200449"><ele>119.66666666666667</ele><time>2026-05-01T14:03:47.001Z</time></trkpt><trkpt lat="45.73058284140776" lon="-0.06196971294792248"><ele>118.0</ele><time>2026-05-01T14:03:48.001Z</time></trkpt><trkpt lat="45.73042352366325" lon="-0.06213008041974812"><ele>118.0</ele><time>2026-05-01T14:03:49.001Z</time></trkpt><trkpt lat="45.73029223728393" lon="-0.062253512116348594"><ele>118.0</ele><time>2026-05-01T14:03:50.001Z</time></trkpt><trkpt lat="45.73015996477408" lon="-0.06234877745430987"><ele>118.0</ele><time>2026-05-01T14:03:51.001Z</time></trkpt><trkpt lat="45.730023192366666" lon="-0.06246962330942009"><ele>116.75</ele><time>2026-05-01T14:03:52.001Z</time></trkpt><trkpt lat="45.72985992475666" lon="-0.06253961922000853"><ele>115.5</ele><time>2026-05-01T14:03:53.001Z</time></trkpt><trkpt lat="45.729722452758345" lon="-0.06263284005212601"><ele>114.25</ele><time>2026-05-01T14:03:54.001Z</time></trkpt><trkpt lat="45.72960509780077" lon="-0.06266407485569209"><ele>113.0</ele><time>2026-05-01T14:03:55.001Z</time></trkpt><trkpt lat="45.72951842186271" lon="-0.06272689559996819"><ele>112.99999999999999</ele><time>2026-05-01T14:03:56.001Z</time></trkpt><trkpt lat="45.72944325148941" lon="-0.06276988545448382"><ele>113.0</ele><time>2026-05-01T14:03:57.001Z</time></trkpt><trkpt lat="45.72938834389037" lon="-0.06283136380986849"><ele>113.0</ele><time>2026-05-01T14:03:58.001Z</time></trkpt><trkpt lat="45.7293344088721" lon="-0.06291649200677175"><ele>113.0</ele><time>2026-05-01T14:03:59.001Z</time></trkpt><trkpt lat="45.72930224839499" lon="-0.06302693627511256"><ele>112.99999999999999</ele><time>2026-05-01T14:04:00.001Z</time></trkpt><trkpt lat="45.72926259063566" lon="-0.06316189388234066"><ele>113.0</ele><time>2026-05-01T14:04:01.001Z</time></trkpt><trkpt lat="45.729208771065764" lon="-0.0632857596857083"><ele>112.2</ele><time>2026-05-01T14:04:02.001Z</time></trkpt><trkpt lat="45.72917569836385" lon="-0.06342750716451125"><ele>111.4</ele><time>2026-05-01T14:04:03.001Z</time></trkpt><trkpt lat="45.7291095174714" lon="-0.06354481452746494"><ele>110.60000000000001</ele><time>2026-05-01T14:04:04.001Z</time></trkpt><trkpt lat="45.72905041411515" lon="-0.06364451273588619"><ele>109.80000000000001</ele><time>2026-05-01T14:04:05.001Z</time></trkpt><trkpt lat="45.72902282245005" lon="-0.06373106885071565"><ele>109.0</ele><time>2026-05-01T14:04:06.001Z</time></trkpt><trkpt lat="45.728971621493955" lon="-0.06383365930910347"><ele>109.0</ele><time>2026-05-01T14:04:08.001Z</time></trkpt><trkpt lat="45.728855665751944" lon="-0.06379401791179234"><ele>109.0</ele><time>2026-05-01T14:04:09.001Z</time></trkpt><trkpt lat="45.72878276231116" lon="-0.06375623588822107"><ele>109.0</ele><time>2026-05-01T14:04:10.001Z</time></trkpt><trkpt lat="45.728678505392296" lon="-0.0637257769998823"><ele>109.0</ele><time>2026-05-01T14:04:11.001Z</time></trkpt><trkpt lat="45.7285483813475" lon="-0.06367774435273892"><ele>109.0</ele><time>2026-05-01T14:04:12.001Z</time></trkpt><trkpt lat="45.72838156977531" lon="-0.06362197849901761"><ele>109.66666666666667</ele><time>2026-05-01T14:04:13.001Z</time></trkpt><trkpt lat="45.72820930799953" lon="-0.06356460476516741"><ele>110.33333333333334</ele><time>2026-05-01T14:04:14.001Z</time></trkpt><trkpt lat="45.728049631334386" lon="-0.0635311331661121"><ele>111.0</ele><time>2026-05-01T14:04:15.001Z</time></trkpt><trkpt lat="45.72792729918681" lon="-0.06349327481943255"><ele>111.0</ele><time>2026-05-01T14:04:16.001Z</time></trkpt><trkpt lat="45.727813051558186" lon="-0.06346267958222256"><ele>111.0</ele><time>2026-05-01T14:04:17.001Z</time></trkpt><trkpt lat="45.72769606345237" lon="-0.0634313504255827"><ele>111.0</ele><time>2026-05-01T14:04:18.001Z</time></trkpt><trkpt lat="45.72758441952698" lon="-0.06340561394078727"><ele>111.0</ele><time>2026-05-01T14:04:19.001Z</time></trkpt><trkpt lat="45.72746439212786" lon="-0.06338910936530935"><ele>111.25</ele><time>2026-05-01T14:04:20.001Z</time></trkpt><trkpt lat="45.72734646850883" lon="-0.0633823538933026"><ele>111.5</ele><time>2026-05-01T14:04:21.001Z</time></trkpt><trkpt lat="45.72721463357193" lon="-0.06335553687411027"><ele>111.75</ele><time>2026-05-01T14:04:22.001Z</time></trkpt><trkpt lat="45.727088340896294" lon="-0.06335164392724317"><ele>112.0</ele><time>2026-05-01T14:04:23.001Z</time></trkpt><trkpt lat="45.72696401486511" lon="-0.06333823595187603"><ele>111.75</ele><time>2026-05-01T14:04:24.001Z</time></trkpt><trkpt lat="45.72684233493939" lon="-0.06327882152975348"><ele>111.5</ele><time>2026-05-01T14:04:25.001Z</time></trkpt><trkpt lat="45.726731318244646" lon="-0.06324702946381842"><ele>111.25</ele><time>2026-05-01T14:04:26.001Z</time></trkpt><trkpt lat="45.7266241591763" lon="-0.06322139640177135"><ele>111.0</ele><time>2026-05-01T14:04:27.001Z</time></trkpt><trkpt lat="45.72651191218392" lon="-0.06326823974729953"><ele>110.75</ele><time>2026-05-01T14:04:28Z</time></trkpt><trkpt lat="45.72637397025767" lon="-0.0633031037041259"><ele>110.5</ele><time>2026-05-01T14:04:29Z</time></trkpt><trkpt lat="45.726220096263845" lon="-0.06331596700140159"><ele>110.25</ele><time>2026-05-01T14:04:30Z</time></trkpt><trkpt lat="45.72607033277567" lon="-0.06332421255088838"><ele>110.0</ele><time>2026-05-01T14:04:31Z</time></trkpt><trkpt lat="45.725936824783375" lon="-0.06333660785520748"><ele>109.75</ele><time>2026-05-01T14:04:32Z</time></trkpt><trkpt lat="45.725809053199114" lon="-0.0632881416332293"><ele>109.5</ele><time>2026-05-01T14:04:33Z</time></trkpt><trkpt lat="45.72567719695463" lon="-0.06327603766259439"><ele>109.25</ele><time>2026-05-01T14:04:34Z</time></trkpt><trkpt lat="45.72551863815839" lon="-0.06324190053330472"><ele>109.0</ele><time>2026-05-01T14:04:35Z</time></trkpt><trkpt lat="45.725348820146756" lon="-0.06325231395044242"><ele>107.75</ele><time>2026-05-01T14:04:36Z</time></trkpt><trkpt lat="45.725212565496236" lon="-0.06323937056773983"><ele>106.5</ele><time>2026-05-01T14:04:37Z</time></trkpt><trkpt lat="45.725100730668714" lon="-0.0632245249276339"><ele>105.25</ele><time>2026-05-01T14:04:38Z</time></trkpt><trkpt lat="45.724983462527284" lon="-0.06319022387467493"><ele>104.0</ele><time>2026-05-01T14:04:39Z</time></trkpt><trkpt lat="45.72487853058684" lon="-0.06316793603674378"><ele>104.0</ele><time>2026-05-01T14:04:40Z</time></trkpt><trkpt lat="45.72473587842023" lon="-0.06308640554904722"><ele>104.0</ele><time>2026-05-01T14:04:41Z</time></trkpt><trkpt lat="45.72460337204968" lon="-0.06300520271814426"><ele>104.0</ele><time>2026-05-01T14:04:42Z</time></trkpt><trkpt lat="45.72449824001538" lon="-0.06294473322543603"><ele>104.0</ele><time>2026-05-01T14:04:43Z</time></trkpt><trkpt lat="45.72439898235127" lon="-0.0629017801901228"><ele>102.5</ele><time>2026-05-01T14:04:44Z</time></trkpt><trkpt lat="45.724280382394" lon="-0.06287868005401354"><ele>101.0</ele><time>2026-05-01T14:04:45Z</time></trkpt><trkpt lat="45.72415799487581" lon="-0.06285349297808349"><ele>99.5</ele><time>2026-05-01T14:04:46Z</time></trkpt><trkpt lat="45.72404140674581" lon="-0.06282540450481676"><ele>98.0</ele><time>2026-05-01T14:04:47Z</time></trkpt><trkpt lat="45.72390031024476" lon="-0.06277317602965266"><ele>98.0</ele><time>2026-05-01T14:04:48Z</time></trkpt><trkpt lat="45.72381319761485" lon="-0.06272427674026841"><ele>98.0</ele><time>2026-05-01T14:04:49Z</time></trkpt><trkpt lat="45.72372642119907" lon="-0.06266998119165522"><ele>98.0</ele><time>2026-05-01T14:04:50Z</time></trkpt><trkpt lat="45.7236350062694" lon="-0.06259735591441509"><ele>98.0</ele><time>2026-05-01T14:04:51Z</time></trkpt><trkpt lat="45.72354573390507" lon="-0.0625172470847539"><ele>98.0</ele><time>2026-05-01T14:04:52Z</time></trkpt><trkpt lat="45.723448032243034" lon="-0.062445953014725726"><ele>97.83333333333333</ele><time>2026-05-01T14:04:53Z</time></trkpt><trkpt lat="45.72337914194086" lon="-0.0623795619019374"><ele>97.66666666666666</ele><time>2026-05-01T14:04:54Z</time></trkpt><trkpt lat="45.72328129367293" lon="-0.06239912548411366"><ele>97.5</ele><time>2026-05-01T14:04:56Z</time></trkpt><trkpt lat="45.723214747453824" lon="-0.06250123574617222"><ele>97.33333333333334</ele><time>2026-05-01T14:04:58Z</time></trkpt><trkpt lat="45.72320542798875" lon="-0.06259479363786939"><ele>97.16666666666667</ele><time>2026-05-01T14:04:59Z</time></trkpt><trkpt lat="45.723172384221" lon="-0.06271339454321904"><ele>97.0</ele><time>2026-05-01T14:05:00Z</time></trkpt><trkpt lat="45.72313181360373" lon="-0.06290739814750688"><ele>97.0</ele><time>2026-05-01T14:05:01Z</time></trkpt><trkpt lat="45.72309984847207" lon="-0.06312969405628382"><ele>97.0</ele><time>2026-05-01T14:05:02Z</time></trkpt><trkpt lat="45.723066705168655" lon="-0.06332574760307741"><ele>97.0</ele><time>2026-05-01T14:05:03Z</time></trkpt><trkpt lat="45.72302957080906" lon="-0.06345948776588946"><ele>97.0</ele><time>2026-05-01T14:05:04Z</time></trkpt><trkpt lat="45.72299769378148" lon="-0.06355856235875781"><ele>97.25</ele><time>2026-05-01T14:05:05Z</time></trkpt><trkpt lat="45.722929310222476" lon="-0.06362396993291315"><ele>97.5</ele><time>2026-05-01T14:05:07Z</time></trkpt><trkpt lat="45.72283564208441" lon="-0.06364357741163251"><ele>97.75</ele><time>2026-05-01T14:05:08Z</time></trkpt><trkpt lat="45.72267142997805" lon="-0.06363810173756518"><ele>98.0</ele><time>2026-05-01T14:05:09Z</time></trkpt><trkpt lat="45.7224873086043" lon="-0.06364077798410543"><ele>96.33333333333333</ele><time>2026-05-01T14:05:10Z</time></trkpt><trkpt lat="45.722318603819566" lon="-0.06364722253675287"><ele>94.66666666666666</ele><time>2026-05-01T14:05:11Z</time></trkpt><trkpt lat="45.72217061744382" lon="-0.06365287565618205"><ele>93.0</ele><time>2026-05-01T14:05:12Z</time></trkpt><trkpt lat="45.722032408965404" lon="-0.06365815524859589"><ele>91.5</ele><time>2026-05-01T14:05:13Z</time></trkpt><trkpt lat="45.72187192373576" lon="-0.06365966723599185"><ele>90.0</ele><time>2026-05-01T14:05:14Z</time></trkpt><trkpt lat="45.72173103573941" lon="-0.06365774281107449"><ele>88.5</ele><time>2026-05-01T14:05:15Z</time></trkpt><trkpt lat="45.721608994050634" lon="-0.06365468303288202"><ele>87.0</ele><time>2026-05-01T14:05:16Z</time></trkpt><trkpt lat="45.721498661441956" lon="-0.06366737135511286"><ele>87.0</ele><time>2026-05-01T14:05:17.001Z</time></trkpt><trkpt lat="45.72140182642734" lon="-0.06367884711907527"><ele>87.0</ele><time>2026-05-01T14:05:18.001Z</time></trkpt><trkpt lat="45.721317133342964" lon="-0.06368954733852249"><ele>87.0</ele><time>2026-05-01T14:05:19.001Z</time></trkpt><trkpt lat="45.72124336037259" lon="-0.06370563182922678"><ele>87.0</ele><time>2026-05-01T14:05:20.001Z</time></trkpt><trkpt lat="45.72113677821192" lon="-0.06373400623787219"><ele>87.0</ele><time>2026-05-01T14:05:22.001Z</time></trkpt><trkpt lat="45.72108272264717" lon="-0.06387365849093259"><ele>86.75</ele><time>2026-05-01T14:05:24.001Z</time></trkpt><trkpt lat="45.72103710935322" lon="-0.06399951216557587"><ele>86.5</ele><time>2026-05-01T14:05:25.001Z</time></trkpt><trkpt lat="45.72095646409221" lon="-0.06416650475175682"><ele>86.25</ele><time>2026-05-01T14:05:26.001Z</time></trkpt><trkpt lat="45.72085609381887" lon="-0.06434921674816116"><ele>86.0</ele><time>2026-05-01T14:05:27.001Z</time></trkpt><trkpt lat="45.720748689588945" lon="-0.06450048205170361"><ele>85.25</ele><time>2026-05-01T14:05:28.001Z</time></trkpt><trkpt lat="45.720635251659715" lon="-0.06459350706330026"><ele>84.5</ele><time>2026-05-01T14:05:29.001Z</time></trkpt><trkpt lat="45.72049960263297" lon="-0.06467320736257508"><ele>83.75</ele><time>2026-05-01T14:05:30.001Z</time></trkpt><trkpt lat="45.720353060208026" lon="-0.06472949829956817"><ele>83.0</ele><time>2026-05-01T14:05:31.001Z</time></trkpt><trkpt lat="45.72019883050894" lon="-0.06478279649833873"><ele>82.33333333333334</ele><time>2026-05-01T14:05:32.001Z</time></trkpt><trkpt lat="45.72003637056921" lon="-0.06484758767134645"><ele>81.66666666666667</ele><time>2026-05-01T14:05:33.001Z</time></trkpt><trkpt lat="45.71988417270468" lon="-0.06490094966812035"><ele>81.0</ele><time>2026-05-01T14:05:34.001Z</time></trkpt><trkpt lat="45.71972630155415" lon="-0.06496474101879414"><ele>80.25</ele><time>2026-05-01T14:05:35.001Z</time></trkpt><trkpt lat="45.71958309369825" lon="-0.06502599079097734"><ele>79.5</ele><time>2026-05-01T14:05:36.001Z</time></trkpt><trkpt lat="45.7194405204423" lon="-0.0650850905951303"><ele>78.75</ele><time>2026-05-01T14:05:37.001Z</time></trkpt><trkpt lat="45.719304993529704" lon="-0.06513797559075138"><ele>78.0</ele><time>2026-05-01T14:05:38.001Z</time></trkpt><trkpt lat="45.71917618428658" lon="-0.06519240091563482"><ele>77.75</ele><time>2026-05-01T14:05:39.001Z</time></trkpt><trkpt lat="45.719067873589076" lon="-0.065262157794504"><ele>77.5</ele><time>2026-05-01T14:05:40.001Z</time></trkpt><trkpt lat="45.71897896229406" lon="-0.06537971689603671"><ele>77.25</ele><time>2026-05-01T14:05:41.001Z</time></trkpt><trkpt lat="45.71890048820902" lon="-0.06549982366948377"><ele>77.0</ele><time>2026-05-01T14:05:42.001Z</time></trkpt><trkpt lat="45.71883805051345" lon="-0.06565218001645821"><ele>76.5</ele><time>2026-05-01T14:05:43.001Z</time></trkpt><trkpt lat="45.71879672693366" lon="-0.06582741256497653"><ele>76.0</ele><time>2026-05-01T14:05:44.001Z</time></trkpt><trkpt lat="45.718779854870675" lon="-0.06601670997748472"><ele>75.5</ele><time>2026-05-01T14:05:45.001Z</time></trkpt><trkpt lat="45.71877567706015" lon="-0.0662102047530546"><ele>75.0</ele><time>2026-05-01T14:05:46.001Z</time></trkpt><trkpt lat="45.71875795418932" lon="-0.06637093828723847"><ele>75.0</ele><time>2026-05-01T14:05:47.001Z</time></trkpt><trkpt lat="45.718739605121954" lon="-0.06653693103805562"><ele>75.0</ele><time>2026-05-01T14:05:48.001Z</time></trkpt><trkpt lat="45.71869110117675" lon="-0.06668004160038464"><ele>75.0</ele><time>2026-05-01T14:05:49.001Z</time></trkpt><trkpt lat="45.718607960752664" lon="-0.0667882917234391"><ele>75.0</ele><time>2026-05-01T14:05:50.001Z</time></trkpt><trkpt lat="45.71849596705809" lon="-0.06685799494258562"><ele>76.4</ele><time>2026-05-01T14:05:51.001Z</time></trkpt><trkpt lat="45.71838491544658" lon="-0.06689567280234988"><ele>77.8</ele><time>2026-05-01T14:05:52.001Z</time></trkpt><trkpt lat="45.71826956162178" lon="-0.0669108432367624"><ele>79.19999999999999</ele><time>2026-05-01T14:05:53.001Z</time></trkpt><trkpt lat="45.71815902304417" lon="-0.0669324117097651"><ele>80.6</ele><time>2026-05-01T14:05:54.001Z</time></trkpt><trkpt lat="45.71806153731392" lon="-0.06698019866432951"><ele>82.0</ele><time>2026-05-01T14:05:55.001Z</time></trkpt><trkpt lat="45.71799118165726" lon="-0.06705067728009405"><ele>82.0</ele><time>2026-05-01T14:05:56.001Z</time></trkpt><trkpt lat="45.71795823840426" lon="-0.06716197166789686"><ele>82.0</ele><time>2026-05-01T14:05:57.001Z</time></trkpt><trkpt lat="45.71793805336324" lon="-0.06726762345053187"><ele>82.0</ele><time>2026-05-01T14:05:58.001Z</time></trkpt><trkpt lat="45.717926501868355" lon="-0.06737291288280522"><ele>82.0</ele><time>2026-05-01T14:05:59.001Z</time></trkpt><trkpt lat="45.71795153544727" lon="-0.06750774319962302"><ele>82.0</ele><time>2026-05-01T14:06:00.001Z</time></trkpt><trkpt lat="45.71797566726604" lon="-0.06765339830747583"><ele>82.0</ele><time>2026-05-01T14:06:01.001Z</time></trkpt><trkpt lat="45.71800775032593" lon="-0.06780350331680668"><ele>82.25</ele><time>2026-05-01T14:06:02.001Z</time></trkpt><trkpt lat="45.718043013720646" lon="-0.06795999504955576"><ele>82.5</ele><time>2026-05-01T14:06:03.001Z</time></trkpt><trkpt lat="45.71809740271994" lon="-0.06812159456813494"><ele>82.75</ele><time>2026-05-01T14:06:04.001Z</time></trkpt><trkpt lat="45.718136093847946" lon="-0.06829955241304993"><ele>83.0</ele><time>2026-05-01T14:06:05.001Z</time></trkpt><trkpt lat="45.71817192129077" lon="-0.06847357266918157"><ele>83.0</ele><time>2026-05-01T14:06:06.001Z</time></trkpt><trkpt lat="45.71820083805927" lon="-0.06864771462120234"><ele>83.0</ele><time>2026-05-01T14:06:07.001Z</time></trkpt><trkpt lat="45.71822599776025" lon="-0.06880271894578077"><ele>83.0</ele><time>2026-05-01T14:06:08.001Z</time></trkpt><trkpt lat="45.718255661215316" lon="-0.06895645297330619"><ele>83.0</ele><time>2026-05-01T14:06:09.001Z</time></trkpt><trkpt lat="45.71828269753228" lon="-0.06910793738744506"><ele>82.80000000000001</ele><time>2026-05-01T14:06:10.001Z</time></trkpt><trkpt lat="45.718320933940376" lon="-0.06925101599319333"><ele>82.6</ele><time>2026-05-01T14:06:11.001Z</time></trkpt><trkpt lat="45.71834978326656" lon="-0.06939970512093156"><ele>82.4</ele><time>2026-05-01T14:06:12.001Z</time></trkpt><trkpt lat="45.71836655719156" lon="-0.0695241720992112"><ele>82.19999999999999</ele><time>2026-05-01T14:06:13.001Z</time></trkpt><trkpt lat="45.71836370110532" lon="-0.06963922996222537"><ele>82.0</ele><time>2026-05-01T14:06:14.001Z</time></trkpt><trkpt lat="45.71832001437899" lon="-0.06976024041927674"><ele>82.0</ele><time>2026-05-01T14:06:15.001Z</time></trkpt><trkpt lat="45.71824538932192" lon="-0.06986850959333003"><ele>82.0</ele><time>2026-05-01T14:06:16.001Z</time></trkpt><trkpt lat="45.718133850704234" lon="-0.06997689047639406"><ele>82.0</ele><time>2026-05-01T14:06:17.001Z</time></trkpt><trkpt lat="45.71798394220434" lon="-0.07008376529023923"><ele>82.0</ele><time>2026-05-01T14:06:18.001Z</time></trkpt><trkpt lat="45.71779816086638" lon="-0.07020629937514332"><ele>83.66666666666666</ele><time>2026-05-01T14:06:19.001Z</time></trkpt><trkpt lat="45.71761840696549" lon="-0.07035161259318704"><ele>85.33333333333333</ele><time>2026-05-01T14:06:20.001Z</time></trkpt><trkpt lat="45.71744763810297" lon="-0.07045189113494899"><ele>87.0</ele><time>2026-05-01T14:06:21.001Z</time></trkpt><trkpt lat="45.717303503588745" lon="-0.07055780048880655"><ele>87.0</ele><time>2026-05-01T14:06:22.001Z</time></trkpt><trkpt lat="45.71716110334535" lon="-0.07068158313297895"><ele>87.0</ele><time>2026-05-01T14:06:23.001Z</time></trkpt><trkpt lat="45.71705713155899" lon="-0.07078000547269973"><ele>87.0</ele><time>2026-05-01T14:06:24.001Z</time></trkpt><trkpt lat="45.71694846731608" lon="-0.07088990785348603"><ele>87.0</ele><time>2026-05-01T14:06:25.001Z</time></trkpt><trkpt lat="45.71683926511596" lon="-0.0710005623186621"><ele>86.25</ele><time>2026-05-01T14:06:26.001Z</time></trkpt><trkpt lat="45.716745242837945" lon="-0.07110475770382878"><ele>85.5</ele><time>2026-05-01T14:06:27.001Z</time></trkpt><trkpt lat="45.71664780658752" lon="-0.0712018880784783"><ele>84.75</ele><time>2026-05-01T14:06:28.001Z</time></trkpt><trkpt lat="45.71653521612647" lon="-0.0712755416140064"><ele>84.0</ele><time>2026-05-01T14:06:29.001Z</time></trkpt><trkpt lat="45.7164404465616" lon="-0.07135126714073423"><ele>84.0</ele><time>2026-05-01T14:06:30.002Z</time></trkpt><trkpt lat="45.716340610525215" lon="-0.07139037570391925"><ele>84.0</ele><time>2026-05-01T14:06:31.002Z</time></trkpt><trkpt lat="45.71625243824842" lon="-0.07137443599543354"><ele>84.0</ele><time>2026-05-01T14:06:32.002Z</time></trkpt><trkpt lat="45.71617714860849" lon="-0.07134871031250413"><ele>84.0</ele><time>2026-05-01T14:06:33.002Z</time></trkpt><trkpt lat="45.71609921761295" lon="-0.07131965226497683"><ele>84.0</ele><time>2026-05-01T14:06:34Z</time></trkpt><trkpt lat="45.71603831726824" lon="-0.07128619984186918"><ele>84.0</ele><time>2026-05-01T14:06:35Z</time></trkpt><trkpt lat="45.715939063969344" lon="-0.07143072991984861"><ele>83.4</ele><time>2026-05-01T14:06:36Z</time></trkpt><trkpt lat="45.715837503674926" lon="-0.07151193894530866"><ele>82.80000000000001</ele><time>2026-05-01T14:06:37Z</time></trkpt><trkpt lat="45.715741302965434" lon="-0.0715623022224628"><ele>82.19999999999999</ele><time>2026-05-01T14:06:38Z</time></trkpt><trkpt lat="45.71565741451061" lon="-0.07163061150595404"><ele>81.6</ele><time>2026-05-01T14:06:39Z</time></trkpt><trkpt lat="45.71558148428934" lon="-0.0717041520955151"><ele>81.0</ele><time>2026-05-01T14:06:40Z</time></trkpt><trkpt lat="45.715513334863346" lon="-0.07176945021950343"><ele>81.0</ele><time>2026-05-01T14:06:41Z</time></trkpt><trkpt lat="45.715438410780834" lon="-0.07187607706043274"><ele>81.0</ele><time>2026-05-01T14:06:43Z</time></trkpt><trkpt lat="45.71543538871628" lon="-0.07198015537626425"><ele>81.0</ele><time>2026-05-01T14:06:45Z</time></trkpt><trkpt lat="45.71547443264494" lon="-0.07207323263910366"><ele>81.0</ele><time>2026-05-01T14:06:47Z</time></trkpt><trkpt lat="45.71540791629347" lon="-0.07217735905324635"><ele>81.0</ele><time>2026-05-01T14:06:50Z</time></trkpt><trkpt lat="45.71533390729351" lon="-0.0722622574269208"><ele>81.0</ele><time>2026-05-01T14:06:51Z</time></trkpt><trkpt lat="45.715242113101255" lon="-0.07236404828642802"><ele>80.2</ele><time>2026-05-01T14:06:52Z</time></trkpt><trkpt lat="45.71513957819045" lon="-0.07245546999317501"><ele>79.39999999999999</ele><time>2026-05-01T14:06:53Z</time></trkpt><trkpt lat="45.71506524970599" lon="-0.07257441564290634"><ele>78.6</ele><time>2026-05-01T14:06:54Z</time></trkpt><trkpt lat="45.71497829603526" lon="-0.07267688537902275"><ele>77.8</ele><time>2026-05-01T14:06:55Z</time></trkpt><trkpt lat="45.7148972469193" lon="-0.0727659901920434"><ele>77.0</ele><time>2026-05-01T14:06:56Z</time></trkpt><trkpt lat="45.71482627114513" lon="-0.07285512675260668"><ele>77.0</ele><time>2026-05-01T14:06:57Z</time></trkpt><trkpt lat="45.71476318186557" lon="-0.07294442938142344"><ele>77.0</ele><time>2026-05-01T14:06:58Z</time></trkpt><trkpt lat="45.714704998098576" lon="-0.07304530737292227"><ele>77.0</ele><time>2026-05-01T14:06:59Z</time></trkpt><trkpt lat="45.71466809272643" lon="-0.07315277406070465"><ele>77.0</ele><time>2026-05-01T14:07:00Z</time></trkpt><trkpt lat="45.71465295323072" lon="-0.07327445998054039"><ele>77.0</ele><time>2026-05-01T14:07:01Z</time></trkpt><trkpt lat="45.71465646362445" lon="-0.07342776269448202"><ele>77.0</ele><time>2026-05-01T14:07:02Z</time></trkpt><trkpt lat="45.71466831952557" lon="-0.07358686292893228"><ele>77.0</ele><time>2026-05-01T14:07:03Z</time></trkpt><trkpt lat="45.71467958572645" lon="-0.07376092300839862"><ele>77.0</ele><time>2026-05-01T14:07:04Z</time></trkpt><trkpt lat="45.71466380159051" lon="-0.07391379288456926"><ele>77.0</ele><time>2026-05-01T14:07:05Z</time></trkpt><trkpt lat="45.714619246128244" lon="-0.07405347934147193"><ele>77.0</ele><time>2026-05-01T14:07:06Z</time></trkpt><trkpt lat="45.71455731108125" lon="-0.07417080007502616"><ele>77.0</ele><time>2026-05-01T14:07:07Z</time></trkpt><trkpt lat="45.71447861263544" lon="-0.07428780374058577"><ele>77.0</ele><time>2026-05-01T14:07:08Z</time></trkpt><trkpt lat="45.71438327202894" lon="-0.07441009634919028"><ele>77.0</ele><time>2026-05-01T14:07:09Z</time></trkpt><trkpt lat="45.71428027669839" lon="-0.07454159422199508"><ele>77.0</ele><time>2026-05-01T14:07:10Z</time></trkpt><trkpt lat="45.71416330190504" lon="-0.07467500689805612"><ele>75.66666666666667</ele><time>2026-05-01T14:07:11Z</time></trkpt><trkpt lat="45.71404553657649" lon="-0.07479536551146923"><ele>74.33333333333333</ele><time>2026-05-01T14:07:12Z</time></trkpt><trkpt lat="45.71391927667476" lon="-0.07493043362196475"><ele>73.0</ele><time>2026-05-01T14:07:13Z</time></trkpt><trkpt lat="45.71379553072013" lon="-0.07506011302839624"><ele>72.5</ele><time>2026-05-01T14:07:14Z</time></trkpt><trkpt lat="45.7136803587339" lon="-0.07518476190721905"><ele>72.0</ele><time>2026-05-01T14:07:15Z</time></trkpt><trkpt lat="45.71357350695022" lon="-0.07529700702401"><ele>71.5</ele><time>2026-05-01T14:07:16Z</time></trkpt><trkpt lat="45.71347221156692" lon="-0.07539768319792049"><ele>71.0</ele><time>2026-05-01T14:07:17Z</time></trkpt><trkpt lat="45.71338196450843" lon="-0.07549236671648347"><ele>70.39999999999999</ele><time>2026-05-01T14:07:18Z</time></trkpt><trkpt lat="45.71329942139785" lon="-0.07558332780046007"><ele>69.8</ele><time>2026-05-01T14:07:19.001Z</time></trkpt><trkpt lat="45.713225027106695" lon="-0.07566579726800543"><ele>69.19999999999999</ele><time>2026-05-01T14:07:20.001Z</time></trkpt><trkpt lat="45.7131798719181" lon="-0.07574363502623072"><ele>68.6</ele><time>2026-05-01T14:07:21.001Z</time></trkpt><trkpt lat="45.71306625368763" lon="-0.07571135556724694"><ele>68.0</ele><time>2026-05-01T14:07:25.001Z</time></trkpt><trkpt lat="45.71301639370127" lon="-0.07562765679161744"><ele>68.0</ele><time>2026-05-01T14:07:26.001Z</time></trkpt><trkpt lat="45.71292557259378" lon="-0.07553123474746286"><ele>68.0</ele><time>2026-05-01T14:07:28.001Z</time></trkpt><trkpt lat="45.712831848302464" lon="-0.07544543139041901"><ele>68.0</ele><time>2026-05-01T14:07:30.001Z</time></trkpt><trkpt lat="45.71275896184197" lon="-0.07539392237552209"><ele>68.0</ele><time>2026-05-01T14:07:31.001Z</time></trkpt><trkpt lat="45.71266790137826" lon="-0.07532848216416903"><ele>68.0</ele><time>2026-05-01T14:07:32.001Z</time></trkpt><trkpt lat="45.71256918799121" lon="-0.07527442438614866"><ele>68.0</ele><time>2026-05-01T14:07:33.001Z</time></trkpt><trkpt lat="45.71249363585956" lon="-0.07522019666807353"><ele>68.0</ele><time>2026-05-01T14:07:34.001Z</time></trkpt><trkpt lat="45.712415159624335" lon="-0.07516114587508003"><ele>68.0</ele><time>2026-05-01T14:07:35.001Z</time></trkpt><trkpt lat="45.712318396884" lon="-0.075083288872819"><ele>68.0</ele><time>2026-05-01T14:07:36.001Z</time></trkpt><trkpt lat="45.712226037002225" lon="-0.07503548822617319"><ele>68.0</ele><time>2026-05-01T14:07:37.001Z</time></trkpt><trkpt lat="45.712138817706595" lon="-0.07500452172734838"><ele>68.0</ele><time>2026-05-01T14:07:38.001Z</time></trkpt><trkpt lat="45.712064237233136" lon="-0.07497344015833156"><ele>68.0</ele><time>2026-05-01T14:07:40.001Z</time></trkpt><trkpt lat="45.711984202564324" lon="-0.0750614977576453"><ele>68.0</ele><time>2026-05-01T14:07:42.001Z</time></trkpt><trkpt lat="45.7119444751963" lon="-0.0751707553931199"><ele>68.0</ele><time>2026-05-01T14:07:43.001Z</time></trkpt><trkpt lat="45.711896742989516" lon="-0.07531542801660929"><ele>68.0</ele><time>2026-05-01T14:07:44.001Z</time></trkpt><trkpt lat="45.71183675446518" lon="-0.07552733589688952"><ele>68.0</ele><time>2026-05-01T14:07:45.001Z</time></trkpt><trkpt lat="45.711752996017054" lon="-0.07571083039661458"><ele>68.0</ele><time>2026-05-01T14:07:46.001Z</time></trkpt><trkpt lat="45.71168553004822" lon="-0.07585710372125612"><ele>68.0</ele><time>2026-05-01T14:07:47.001Z</time></trkpt><trkpt lat="45.7116253236091" lon="-0.07597471525473942"><ele>68.0</ele><time>2026-05-01T14:07:48.001Z</time></trkpt><trkpt lat="45.71153862985369" lon="-0.07611495051326658"><ele>67.75</ele><time>2026-05-01T14:07:49.001Z</time></trkpt><trkpt lat="45.71143257689038" lon="-0.07628473472280058"><ele>67.5</ele><time>2026-05-01T14:07:50.001Z</time></trkpt><trkpt lat="45.71136051885132" lon="-0.07641079832684897"><ele>67.25</ele><time>2026-05-01T14:07:51.001Z</time></trkpt><trkpt lat="45.71129096942017" lon="-0.07652190427069994"><ele>67.0</ele><time>2026-05-01T14:07:52.001Z</time></trkpt><trkpt lat="45.711220030762895" lon="-0.07661959011337122"><ele>67.4</ele><time>2026-05-01T14:07:53.001Z</time></trkpt><trkpt lat="45.71114316674817" lon="-0.07670755191243485"><ele>67.80000000000001</ele><time>2026-05-01T14:07:54.001Z</time></trkpt><trkpt lat="45.71106313450511" lon="-0.07677445697711972"><ele>68.2</ele><time>2026-05-01T14:07:55.001Z</time></trkpt><trkpt lat="45.71096301657426" lon="-0.07683594276085604"><ele>68.60000000000001</ele><time>2026-05-01T14:07:56.001Z</time></trkpt><trkpt lat="45.71084905008246" lon="-0.07690444129714749"><ele>69.0</ele><time>2026-05-01T14:07:57.001Z</time></trkpt><trkpt lat="45.71074560749778" lon="-0.07699926548751183"><ele>69.0</ele><time>2026-05-01T14:07:58.001Z</time></trkpt><trkpt lat="45.71065963364078" lon="-0.07708127904645092"><ele>69.0</ele><time>2026-05-01T14:07:59.001Z</time></trkpt><trkpt lat="45.71059127196847" lon="-0.07716607226552512"><ele>69.0</ele><time>2026-05-01T14:08:00.001Z</time></trkpt><trkpt lat="45.71052518815251" lon="-0.0772710661020671"><ele>69.0</ele><time>2026-05-01T14:08:01.001Z</time></trkpt><trkpt lat="45.71043678328016" lon="-0.07739481849262739"><ele>69.0</ele><time>2026-05-01T14:08:02.001Z</time></trkpt><trkpt lat="45.71035729083075" lon="-0.07750726941442855"><ele>69.25</ele><time>2026-05-01T14:08:03.001Z</time></trkpt><trkpt lat="45.71028084816504" lon="-0.0776032465736403"><ele>69.5</ele><time>2026-05-01T14:08:04.001Z</time></trkpt><trkpt lat="45.710196358346685" lon="-0.07771592199932638"><ele>69.75</ele><time>2026-05-01T14:08:05.001Z</time></trkpt><trkpt lat="45.710106161847605" lon="-0.07784667542373325"><ele>70.0</ele><time>2026-05-01T14:08:06.001Z</time></trkpt><trkpt lat="45.71001927735876" lon="-0.07798608731611621"><ele>70.0</ele><time>2026-05-01T14:08:07.001Z</time></trkpt><trkpt lat="45.70994714438415" lon="-0.07812229161593262"><ele>70.0</ele><time>2026-05-01T14:08:08.001Z</time></trkpt><trkpt lat="45.70989797388456" lon="-0.07824328675116904"><ele>70.0</ele><time>2026-05-01T14:08:09.001Z</time></trkpt><trkpt lat="45.70984816951619" lon="-0.07834282431682231"><ele>70.0</ele><time>2026-05-01T14:08:10.001Z</time></trkpt><trkpt lat="45.70981315467917" lon="-0.07843410581923016"><ele>70.0</ele><time>2026-05-01T14:08:11.001Z</time></trkpt><trkpt lat="45.70976980712384" lon="-0.07860089791890797"><ele>69.6</ele><time>2026-05-01T14:08:13.001Z</time></trkpt><trkpt lat="45.70973893496522" lon="-0.0786876678114723"><ele>69.2</ele><time>2026-05-01T14:08:14.001Z</time></trkpt><trkpt lat="45.709697964620226" lon="-0.07877340015433423"><ele>68.8</ele><time>2026-05-01T14:08:15.001Z</time></trkpt><trkpt lat="45.70964202025081" lon="-0.07885826740535776"><ele>68.4</ele><time>2026-05-01T14:08:16.001Z</time></trkpt><trkpt lat="45.70956278932542" lon="-0.07895249401325248"><ele>68.0</ele><time>2026-05-01T14:08:17.001Z</time></trkpt><trkpt lat="45.70945531112324" lon="-0.07906084548431935"><ele>67.25</ele><time>2026-05-01T14:08:18.001Z</time></trkpt><trkpt lat="45.70935690842541" lon="-0.07914176207536287"><ele>66.5</ele><time>2026-05-01T14:08:19.001Z</time></trkpt><trkpt lat="45.709261286966274" lon="-0.079207458142614"><ele>65.75</ele><time>2026-05-01T14:08:20.001Z</time></trkpt><trkpt lat="45.70915987645232" lon="-0.07926941433666829"><ele>65.0</ele><time>2026-05-01T14:08:21.001Z</time></trkpt><trkpt lat="45.70904279167473" lon="-0.0793353526199779"><ele>65.0</ele><time>2026-05-01T14:08:22.001Z</time></trkpt><trkpt lat="45.70893256601887" lon="-0.07939948254458203"><ele>65.0</ele><time>2026-05-01T14:08:23.001Z</time></trkpt><trkpt lat="45.708826031194455" lon="-0.07945262854604998"><ele>65.0</ele><time>2026-05-01T14:08:24.001Z</time></trkpt><trkpt lat="45.70870512477252" lon="-0.07951938322560577"><ele>65.0</ele><time>2026-05-01T14:08:25.001Z</time></trkpt><trkpt lat="45.70860629445277" lon="-0.07954706823782227"><ele>65.25</ele><time>2026-05-01T14:08:26.001Z</time></trkpt><trkpt lat="45.70850623556367" lon="-0.07960281836656372"><ele>65.5</ele><time>2026-05-01T14:08:27.001Z</time></trkpt><trkpt lat="45.708407956666704" lon="-0.07968567853589191"><ele>65.75</ele><time>2026-05-01T14:08:28.001Z</time></trkpt><trkpt lat="45.708286897869684" lon="-0.07979234249131005"><ele>66.0</ele><time>2026-05-01T14:08:29.001Z</time></trkpt><trkpt lat="45.70819198270826" lon="-0.07989771163297653"><ele>65.2</ele><time>2026-05-01T14:08:30.001Z</time></trkpt><trkpt lat="45.70810012932329" lon="-0.07998838626494123"><ele>64.39999999999999</ele><time>2026-05-01T14:08:31.001Z</time></trkpt><trkpt lat="45.70800203749267" lon="-0.08008448535982093"><ele>63.6</ele><time>2026-05-01T14:08:32.001Z</time></trkpt><trkpt lat="45.70790864595892" lon="-0.08016650893588219"><ele>62.8</ele><time>2026-05-01T14:08:33.001Z</time></trkpt><trkpt lat="45.70781492266515" lon="-0.0802397011236489"><ele>62.0</ele><time>2026-05-01T14:08:34.001Z</time></trkpt><trkpt lat="45.70773497897587" lon="-0.08029628822963555"><ele>61.8</ele><time>2026-05-01T14:08:35.001Z</time></trkpt><trkpt lat="45.707631587591166" lon="-0.08035514768555958"><ele>61.6</ele><time>2026-05-01T14:08:36.002Z</time></trkpt><trkpt lat="45.70753018493883" lon="-0.08039951033327408"><ele>61.39999999999999</ele><time>2026-05-01T14:08:37.002Z</time></trkpt><trkpt lat="45.70743620281673" lon="-0.08043388385336135"><ele>61.199999999999996</ele><time>2026-05-01T14:08:38.002Z</time></trkpt><trkpt lat="45.707355185063484" lon="-0.08047219343642834"><ele>61.0</ele><time>2026-05-01T14:08:39.002Z</time></trkpt><trkpt lat="45.70716137577925" lon="-0.08055886442425285"><ele>61.0</ele><time>2026-05-01T14:08:41Z</time></trkpt><trkpt lat="45.707063330209046" lon="-0.08059286564245904"><ele>61.0</ele><time>2026-05-01T14:08:42Z</time></trkpt><trkpt lat="45.70695156722796" lon="-0.08063421997487863"><ele>61.0</ele><time>2026-05-01T14:08:43Z</time></trkpt><trkpt lat="45.706822951879616" lon="-0.08066622910738419"><ele>61.0</ele><time>2026-05-01T14:08:44Z</time></trkpt><trkpt lat="45.70667728703408" lon="-0.08070678976139482"><ele>60.5</ele><time>2026-05-01T14:08:45Z</time></trkpt><trkpt lat="45.70654807669898" lon="-0.08076174016602934"><ele>60.0</ele><time>2026-05-01T14:08:46Z</time></trkpt><trkpt lat="45.70643208441538" lon="-0.08081364492195015"><ele>59.5</ele><time>2026-05-01T14:08:47Z</time></trkpt><trkpt lat="45.70631366415801" lon="-0.08087229111976624"><ele>59.0</ele><time>2026-05-01T14:08:48Z</time></trkpt><trkpt lat="45.706193865863" lon="-0.08094755922115886"><ele>57.25</ele><time>2026-05-01T14:08:49Z</time></trkpt><trkpt lat="45.70607767037153" lon="-0.08102986215654724"><ele>55.5</ele><time>2026-05-01T14:08:50Z</time></trkpt><trkpt lat="45.70596090178247" lon="-0.08111591160415176"><ele>53.75</ele><time>2026-05-01T14:08:51Z</time></trkpt><trkpt lat="45.70584762029174" lon="-0.08121092471619616"><ele>52.0</ele><time>2026-05-01T14:08:52Z</time></trkpt><trkpt lat="45.705744774178676" lon="-0.08129391651414429"><ele>52.0</ele><time>2026-05-01T14:08:53Z</time></trkpt><trkpt lat="45.70566926546398" lon="-0.08136669641794603"><ele>52.0</ele><time>2026-05-01T14:08:54Z</time></trkpt><trkpt lat="45.70560238830069" lon="-0.08143774263038978"><ele>52.0</ele><time>2026-05-01T14:08:55Z</time></trkpt><trkpt lat="45.70552862966927" lon="-0.0815360873529884"><ele>52.0</ele><time>2026-05-01T14:08:57Z</time></trkpt><trkpt lat="45.70542602791727" lon="-0.0815741881638264"><ele>52.0</ele><time>2026-05-01T14:09:01Z</time></trkpt><trkpt lat="45.705331139377165" lon="-0.08154806260100475"><ele>51.33333333333333</ele><time>2026-05-01T14:09:02Z</time></trkpt><trkpt lat="45.70520469581833" lon="-0.08149318300679488"><ele>50.66666666666667</ele><time>2026-05-01T14:09:03Z</time></trkpt><trkpt lat="45.70503912849327" lon="-0.08142689107784377"><ele>50.0</ele><time>2026-05-01T14:09:04Z</time></trkpt><trkpt lat="45.704846228635105" lon="-0.08135493341713"><ele>50.0</ele><time>2026-05-01T14:09:05Z</time></trkpt><trkpt lat="45.704633291521084" lon="-0.08126978120035906"><ele>50.0</ele><time>2026-05-01T14:09:06Z</time></trkpt><trkpt lat="45.704410167440805" lon="-0.08118136932724061"><ele>48.0</ele><time>2026-05-01T14:09:07Z</time></trkpt><trkpt lat="45.70417034500841" lon="-0.08111750875997015"><ele>46.0</ele><time>2026-05-01T14:09:08Z</time></trkpt><trkpt lat="45.703943256534814" lon="-0.08103521912463449"><ele>46.0</ele><time>2026-05-01T14:09:09Z</time></trkpt><trkpt lat="45.70374065604317" lon="-0.08093757178170448"><ele>46.0</ele><time>2026-05-01T14:09:10Z</time></trkpt><trkpt lat="45.70354613329996" lon="-0.08087083996749303"><ele>46.0</ele><time>2026-05-01T14:09:11Z</time></trkpt><trkpt lat="45.703368568866594" lon="-0.08080233361346803"><ele>45.66666666666667</ele><time>2026-05-01T14:09:12Z</time></trkpt><trkpt lat="45.70320040229822" lon="-0.0807416359061463"><ele>45.333333333333336</ele><time>2026-05-01T14:09:13Z</time></trkpt><trkpt lat="45.703047979363674" lon="-0.08068245238781703"><ele>45.0</ele><time>2026-05-01T14:09:14Z</time></trkpt><trkpt lat="45.70290398170011" lon="-0.080624393801164"><ele>45.0</ele><time>2026-05-01T14:09:15Z</time></trkpt><trkpt lat="45.702770424728016" lon="-0.08057193705326858"><ele>45.0</ele><time>2026-05-01T14:09:16Z</time></trkpt><trkpt lat="45.70263683973203" lon="-0.08052634963649523"><ele>45.0</ele><time>2026-05-01T14:09:17Z</time></trkpt><trkpt lat="45.70250921353197" lon="-0.08048488681625429"><ele>45.0</ele><time>2026-05-01T14:09:18Z</time></trkpt><trkpt lat="45.702377221532544" lon="-0.08043678764991441"><ele>44.75</ele><time>2026-05-01T14:09:19Z</time></trkpt><trkpt lat="45.70223336229843" lon="-0.08038722043428155"><ele>44.5</ele><time>2026-05-01T14:09:20Z</time></trkpt><trkpt lat="45.70208846443431" lon="-0.08033788368838056"><ele>44.25</ele><time>2026-05-01T14:09:21Z</time></trkpt><trkpt lat="45.70194325798876" lon="-0.08028446719176636"><ele>44.0</ele><time>2026-05-01T14:09:22Z</time></trkpt><trkpt lat="45.70179357213412" lon="-0.08022998264157345"><ele>43.666666666666664</ele><time>2026-05-01T14:09:23Z</time></trkpt><trkpt lat="45.70164240606725" lon="-0.08018081070259185"><ele>43.333333333333336</ele><time>2026-05-01T14:09:24Z</time></trkpt><trkpt lat="45.701484045559894" lon="-0.08013308624784157"><ele>43.0</ele><time>2026-05-01T14:09:25Z</time></trkpt><trkpt lat="45.701325922257084" lon="-0.08009360770657331"><ele>43.0</ele><time>2026-05-01T14:09:26.001Z</time></trkpt><trkpt lat="45.7011722765108" lon="-0.08006254035790163"><ele>43.0</ele><time>2026-05-01T14:09:27.001Z</time></trkpt><trkpt lat="45.701049140127125" lon="-0.0800251454445207"><ele>43.0</ele><time>2026-05-01T14:09:28.001Z</time></trkpt><trkpt lat="45.70092855643718" lon="-0.07997207969588874"><ele>43.0</ele><time>2026-05-01T14:09:29.001Z</time></trkpt><trkpt lat="45.700807006578884" lon="-0.07989819218396356"><ele>44.0</ele><time>2026-05-01T14:09:30.001Z</time></trkpt><trkpt lat="45.70069776223857" lon="-0.07980566704078422"><ele>45.0</ele><time>2026-05-01T14:09:31.001Z</time></trkpt><trkpt lat="45.70059366812406" lon="-0.07974787815235278"><ele>46.0</ele><time>2026-05-01T14:09:32.001Z</time></trkpt><trkpt lat="45.70050019532256" lon="-0.07968537570369663"><ele>47.0</ele><time>2026-05-01T14:09:33.001Z</time></trkpt><trkpt lat="45.70041951507886" lon="-0.07961137351426627"><ele>48.0</ele><time>2026-05-01T14:09:34.001Z</time></trkpt><trkpt lat="45.70035393237385" lon="-0.07954635944713434"><ele>48.0</ele><time>2026-05-01T14:09:35.001Z</time></trkpt><trkpt lat="45.7003105803225" lon="-0.07947168950913482"><ele>48.0</ele><time>2026-05-01T14:09:36.001Z</time></trkpt><trkpt lat="45.70025257272234" lon="-0.07939374002644684"><ele>48.0</ele><time>2026-05-01T14:09:37.001Z</time></trkpt><trkpt lat="45.70021520600341" lon="-0.07927326020370597"><ele>48.0</ele><time>2026-05-01T14:09:38.001Z</time></trkpt><trkpt lat="45.700180019162545" lon="-0.0791789853663006"><ele>48.0</ele><time>2026-05-01T14:09:39.001Z</time></trkpt><trkpt lat="45.700142640040795" lon="-0.07909662839500099"><ele>48.0</ele><time>2026-05-01T14:09:40.001Z</time></trkpt><trkpt lat="45.70009285660316" lon="-0.07900570848956949"><ele>48.166666666666664</ele><time>2026-05-01T14:09:41.001Z</time></trkpt><trkpt lat="45.700031756461506" lon="-0.07889238460898873"><ele>48.33333333333333</ele><time>2026-05-01T14:09:42.001Z</time></trkpt><trkpt lat="45.69995193498924" lon="-0.07882286312440752"><ele>48.5</ele><time>2026-05-01T14:09:43.001Z</time></trkpt><trkpt lat="45.699895615892025" lon="-0.0787285786612818"><ele>48.666666666666664</ele><time>2026-05-01T14:09:44.001Z</time></trkpt><trkpt lat="45.69983849541625" lon="-0.07866083019291459"><ele>48.83333333333333</ele><time>2026-05-01T14:09:45.001Z</time></trkpt><trkpt lat="45.699787522533384" lon="-0.07859488415402587"><ele>49.0</ele><time>2026-05-01T14:09:46.001Z</time></trkpt><trkpt lat="45.699729204357354" lon="-0.07850420269889757"><ele>48.99999999999999</ele><time>2026-05-01T14:09:48.001Z</time></trkpt><trkpt lat="45.699655577803476" lon="-0.0785084702158651"><ele>49.0</ele><time>2026-05-01T14:09:53.001Z</time></trkpt><trkpt lat="45.69958887524624" lon="-0.07855351901541073"><ele>49.0</ele><time>2026-05-01T14:09:54.001Z</time></trkpt><trkpt lat="45.69951495398814" lon="-0.07867542781271179"><ele>49.0</ele><time>2026-05-01T14:09:55.001Z</time></trkpt><trkpt lat="45.69944742338163" lon="-0.07876016438032062"><ele>48.99999999999999</ele><time>2026-05-01T14:09:56.001Z</time></trkpt><trkpt lat="45.69938127568313" lon="-0.0788232116192901"><ele>49.0</ele><time>2026-05-01T14:09:57.001Z</time></trkpt><trkpt lat="45.69933179395768" lon="-0.07889831878790168"><ele>48.49999999999999</ele><time>2026-05-01T14:09:58.001Z</time></trkpt><trkpt lat="45.699287339582035" lon="-0.07900160286560486"><ele>48.0</ele><time>2026-05-01T14:09:59.001Z</time></trkpt><trkpt lat="45.6992536383525" lon="-0.0791170467189017"><ele>47.5</ele><time>2026-05-01T14:10:00.001Z</time></trkpt><trkpt lat="45.69921538720265" lon="-0.07922407600908139"><ele>47.0</ele><time>2026-05-01T14:10:01.001Z</time></trkpt><trkpt lat="45.69917790487009" lon="-0.07932254916825017"><ele>46.5</ele><time>2026-05-01T14:10:02.001Z</time></trkpt><trkpt lat="45.69914819423827" lon="-0.07941970472422222"><ele>46.0</ele><time>2026-05-01T14:10:03.001Z</time></trkpt><trkpt lat="45.699114008470445" lon="-0.07951648564464465"><ele>45.57142857142858</ele><time>2026-05-01T14:10:04.001Z</time></trkpt><trkpt lat="45.69907022323281" lon="-0.07961648939869467"><ele>45.14285714285714</ele><time>2026-05-01T14:10:05.001Z</time></trkpt><trkpt lat="45.69903308623425" lon="-0.07971414403679615"><ele>44.714285714285715</ele><time>2026-05-01T14:10:06.001Z</time></trkpt><trkpt lat="45.69899917829438" lon="-0.07980429161822074"><ele>44.28571428571429</ele><time>2026-05-01T14:10:07.001Z</time></trkpt><trkpt lat="45.698969547001525" lon="-0.07989129532017394"><ele>43.85714285714286</ele><time>2026-05-01T14:10:08.001Z</time></trkpt><trkpt lat="45.69893910423546" lon="-0.07998720819217606"><ele>43.42857142857143</ele><time>2026-05-01T14:10:09.001Z</time></trkpt><trkpt lat="45.69890668183184" lon="-0.08008289858486421"><ele>43.0</ele><time>2026-05-01T14:10:10.001Z</time></trkpt><trkpt lat="45.698865616968206" lon="-0.08016751921924752"><ele>43.0</ele><time>2026-05-01T14:10:11.001Z</time></trkpt><trkpt lat="45.69883808900191" lon="-0.08025992380316692"><ele>43.0</ele><time>2026-05-01T14:10:12.001Z</time></trkpt><trkpt lat="45.69879487764761" lon="-0.08035153062162509"><ele>43.0</ele><time>2026-05-01T14:10:13.001Z</time></trkpt><trkpt lat="45.698731556937254" lon="-0.0804178374344301"><ele>43.0</ele><time>2026-05-01T14:10:14.001Z</time></trkpt><trkpt lat="45.698672216013655" lon="-0.08048273999481285"><ele>43.0</ele><time>2026-05-01T14:10:15.001Z</time></trkpt><trkpt lat="45.698598692221324" lon="-0.08052527314491728"><ele>43.0</ele><time>2026-05-01T14:10:16.001Z</time></trkpt><trkpt lat="45.69852422343825" lon="-0.0805564738306772"><ele>43.0</ele><time>2026-05-01T14:10:17.001Z</time></trkpt><trkpt lat="45.69845305156023" lon="-0.08055111945024153"><ele>43.0</ele><time>2026-05-01T14:10:18.001Z</time></trkpt><trkpt lat="45.698355872203955" lon="-0.08059990518564622"><ele>43.0</ele><time>2026-05-01T14:10:20.001Z</time></trkpt><trkpt lat="45.69825094732222" lon="-0.08030157432773888"><ele>43.0</ele><time>2026-05-01T14:10:21.001Z</time></trkpt><trkpt lat="45.69816559595342" lon="-0.08015397975306525"><ele>43.0</ele><time>2026-05-01T14:10:22.001Z</time></trkpt><trkpt lat="45.698103808572355" lon="-0.080018382369838"><ele>43.0</ele><time>2026-05-01T14:10:23.001Z</time></trkpt><trkpt lat="45.69804321747899" lon="-0.07989460442101586"><ele>43.0</ele><time>2026-05-01T14:10:24.001Z</time></trkpt><trkpt lat="45.697986560437364" lon="-0.07978264060815973"><ele>43.0</ele><time>2026-05-01T14:10:25.001Z</time></trkpt><trkpt lat="45.69794085561446" lon="-0.07968777864684073"><ele>43.0</ele><time>2026-05-01T14:10:26.001Z</time></trkpt><trkpt lat="45.69788945136605" lon="-0.07960287708931016"><ele>43.2</ele><time>2026-05-01T14:10:27.001Z</time></trkpt><trkpt lat="45.69783817526497" lon="-0.07952460955294506"><ele>43.4</ele><time>2026-05-01T14:10:28.001Z</time></trkpt><trkpt lat="45.69771720972712" lon="-0.07940381872914014"><ele>43.6</ele><time>2026-05-01T14:10:30.001Z</time></trkpt><trkpt lat="45.697637642226674" lon="-0.07929747857032363"><ele>43.800000000000004</ele><time>2026-05-01T14:10:31.001Z</time></trkpt><trkpt lat="45.697569423866724" lon="-0.07921680882935164"><ele>44.0</ele><time>2026-05-01T14:10:32.001Z</time></trkpt><trkpt lat="45.697492229963125" lon="-0.07914936487460135"><ele>44.0</ele><time>2026-05-01T14:10:33.001Z</time></trkpt><trkpt lat="45.697402805948826" lon="-0.0791106634967116"><ele>44.0</ele><time>2026-05-01T14:10:34.001Z</time></trkpt><trkpt lat="45.69729850249855" lon="-0.0790622209942201"><ele>44.0</ele><time>2026-05-01T14:10:35.001Z</time></trkpt><trkpt lat="45.697197143864486" lon="-0.07900439140326793"><ele>44.0</ele><time>2026-05-01T14:10:36.001Z</time></trkpt><trkpt lat="45.69708856351032" lon="-0.07893387855768384"><ele>44.0</ele><time>2026-05-01T14:10:37.001Z</time></trkpt><trkpt lat="45.696976843279515" lon="-0.07887599184380162"><ele>44.6</ele><time>2026-05-01T14:10:38.001Z</time></trkpt><trkpt lat="45.696884654535104" lon="-0.07879872851875054"><ele>45.2</ele><time>2026-05-01T14:10:39.001Z</time></trkpt><trkpt lat="45.69680083993022" lon="-0.07873461293130893"><ele>45.800000000000004</ele><time>2026-05-01T14:10:40.001Z</time></trkpt><trkpt lat="45.69670830647188" lon="-0.07867626024641648"><ele>46.400000000000006</ele><time>2026-05-01T14:10:41.001Z</time></trkpt><trkpt lat="45.69659839827614" lon="-0.07862397405480924"><ele>47.0</ele><time>2026-05-01T14:10:42.001Z</time></trkpt><trkpt lat="45.696478164365146" lon="-0.07855855671682424"><ele>47.0</ele><time>2026-05-01T14:10:43.001Z</time></trkpt><trkpt lat="45.696345999916815" lon="-0.0785069065230697"><ele>47.0</ele><time>2026-05-01T14:10:44.001Z</time></trkpt><trkpt lat="45.69619991911193" lon="-0.0784451400657884"><ele>47.0</ele><time>2026-05-01T14:10:45.001Z</time></trkpt><trkpt lat="45.696060620521855" lon="-0.07837502057208112"><ele>47.0</ele><time>2026-05-01T14:10:46Z</time></trkpt><trkpt lat="45.69590935196421" lon="-0.07827409828122117"><ele>45.666666666666664</ele><time>2026-05-01T14:10:47Z</time></trkpt><trkpt lat="45.69574527844494" lon="-0.07815977504157753"><ele>44.333333333333336</ele><time>2026-05-01T14:10:48Z</time></trkpt><trkpt lat="45.69556222883831" lon="-0.07802956727788589"><ele>43.0</ele><time>2026-05-01T14:10:49Z</time></trkpt><trkpt lat="45.69538623428497" lon="-0.07791587087410994"><ele>42.66666666666667</ele><time>2026-05-01T14:10:50Z</time></trkpt><trkpt lat="45.69522692331448" lon="-0.07782657991540008"><ele>42.333333333333336</ele><time>2026-05-01T14:10:51Z</time></trkpt><trkpt lat="45.69505982740327" lon="-0.0777545288893208"><ele>42.0</ele><time>2026-05-01T14:10:52Z</time></trkpt><trkpt lat="45.69489536606411" lon="-0.0776743300331817"><ele>42.0</ele><time>2026-05-01T14:10:53Z</time></trkpt><trkpt lat="45.694750598964305" lon="-0.07760841207531528"><ele>42.0</ele><time>2026-05-01T14:10:54Z</time></trkpt><trkpt lat="45.69461440182699" lon="-0.07753850464481211"><ele>42.0</ele><time>2026-05-01T14:10:55Z</time></trkpt><trkpt lat="45.69449886237115" lon="-0.07747790231462162"><ele>42.0</ele><time>2026-05-01T14:10:56Z</time></trkpt><trkpt lat="45.69440024951949" lon="-0.07741267747237623"><ele>41.5</ele><time>2026-05-01T14:10:57Z</time></trkpt><trkpt lat="45.69430762168818" lon="-0.07730552237524"><ele>41.0</ele><time>2026-05-01T14:10:58Z</time></trkpt><trkpt lat="45.69419925542893" lon="-0.07719568207932247"><ele>40.5</ele><time>2026-05-01T14:10:59Z</time></trkpt><trkpt lat="45.694088832844116" lon="-0.07708218881086033"><ele>40.0</ele><time>2026-05-01T14:11:00Z</time></trkpt><trkpt lat="45.69397582286506" lon="-0.07701150217299985"><ele>40.0</ele><time>2026-05-01T14:11:01Z</time></trkpt><trkpt lat="45.69388273767098" lon="-0.07695638776142062"><ele>40.0</ele><time>2026-05-01T14:11:02Z</time></trkpt><trkpt lat="45.693781080005785" lon="-0.07694659920191539"><ele>40.0</ele><time>2026-05-01T14:11:03Z</time></trkpt><trkpt lat="45.69366500183907" lon="-0.07697495280674471"><ele>40.0</ele><time>2026-05-01T14:11:04Z</time></trkpt><trkpt lat="45.693529158379825" lon="-0.07683759148324684"><ele>41.0</ele><time>2026-05-01T14:11:05Z</time></trkpt><trkpt lat="45.69337202545061" lon="-0.07681512232656891"><ele>42.0</ele><time>2026-05-01T14:11:06Z</time></trkpt><trkpt lat="45.693207811669375" lon="-0.07678161654244309"><ele>43.0</ele><time>2026-05-01T14:11:07Z</time></trkpt><trkpt lat="45.693026994004676" lon="-0.0767527602365506"><ele>43.0</ele><time>2026-05-01T14:11:08Z</time></trkpt><trkpt lat="45.692851166387356" lon="-0.07672571629739149"><ele>43.0</ele><time>2026-05-01T14:11:09Z</time></trkpt><trkpt lat="45.69270300747803" lon="-0.07671240844778383"><ele>43.0</ele><time>2026-05-01T14:11:10Z</time></trkpt><trkpt lat="45.69256907830573" lon="-0.07671006416854967"><ele>42.5</ele><time>2026-05-01T14:11:11Z</time></trkpt><trkpt lat="45.69244214482403" lon="-0.07672190020524126"><ele>42.0</ele><time>2026-05-01T14:11:12Z</time></trkpt><trkpt lat="45.692324995359954" lon="-0.07673536414809468"><ele>41.5</ele><time>2026-05-01T14:11:13Z</time></trkpt><trkpt lat="45.69219822216692" lon="-0.07674569796218421"><ele>41.0</ele><time>2026-05-01T14:11:14Z</time></trkpt><trkpt lat="45.69207930777101" lon="-0.0767723126711314"><ele>41.0</ele><time>2026-05-01T14:11:15Z</time></trkpt><trkpt lat="45.69196411116368" lon="-0.07680914294570733"><ele>41.0</ele><time>2026-05-01T14:11:16Z</time></trkpt><trkpt lat="45.69184747696564" lon="-0.0768492131289656"><ele>41.0</ele><time>2026-05-01T14:11:17Z</time></trkpt><trkpt lat="45.69172403857867" lon="-0.07687515320806457"><ele>41.0</ele><time>2026-05-01T14:11:18Z</time></trkpt><trkpt lat="45.69160219336317" lon="-0.07687465581707313"><ele>41.0</ele><time>2026-05-01T14:11:19Z</time></trkpt><trkpt lat="45.69147195844199" lon="-0.07686442052646902"><ele>41.0</ele><time>2026-05-01T14:11:20Z</time></trkpt><trkpt lat="45.69134217738555" lon="-0.07684886994409865"><ele>41.0</ele><time>2026-05-01T14:11:21Z</time></trkpt><trkpt lat="45.6912103057558" lon="-0.07684187766426236"><ele>41.0</ele><time>2026-05-01T14:11:22Z</time></trkpt><trkpt lat="45.69108112424145" lon="-0.07683455674115508"><ele>40.25</ele><time>2026-05-01T14:11:23Z</time></trkpt><trkpt lat="45.690945719616515" lon="-0.07682616648981803"><ele>39.5</ele><time>2026-05-01T14:11:24Z</time></trkpt><trkpt lat="45.69081313351364" lon="-0.07681955946615306"><ele>38.75</ele><time>2026-05-01T14:11:25Z</time></trkpt><trkpt lat="45.69067573162148" lon="-0.07680755976143126"><ele>38.0</ele><time>2026-05-01T14:11:26Z</time></trkpt><trkpt lat="45.69054284027198" lon="-0.07679776448481855"><ele>38.0</ele><time>2026-05-01T14:11:27Z</time></trkpt><trkpt lat="45.69041339643968" lon="-0.07678783086854075"><ele>38.0</ele><time>2026-05-01T14:11:28.001Z</time></trkpt><trkpt lat="45.690283090987236" lon="-0.07680015683599457"><ele>38.0</ele><time>2026-05-01T14:11:29.001Z</time></trkpt><trkpt lat="45.690151879261634" lon="-0.07681829082443754"><ele>38.0</ele><time>2026-05-01T14:11:30.001Z</time></trkpt><trkpt lat="45.690018367405855" lon="-0.07681795391681098"><ele>38.25</ele><time>2026-05-01T14:11:31.001Z</time></trkpt><trkpt lat="45.689881278469926" lon="-0.07680925538695442"><ele>38.5</ele><time>2026-05-01T14:11:32.001Z</time></trkpt><trkpt lat="45.689742246509695" lon="-0.07678648753064345"><ele>38.75</ele><time>2026-05-01T14:11:33.001Z</time></trkpt><trkpt lat="45.68959518569265" lon="-0.0767530677110931"><ele>39.0</ele><time>2026-05-01T14:11:34.001Z</time></trkpt><trkpt lat="45.689442333074055" lon="-0.07672318058317402"><ele>39.25</ele><time>2026-05-01T14:11:35.001Z</time></trkpt><trkpt lat="45.68928514103656" lon="-0.07669145256920115"><ele>39.5</ele><time>2026-05-01T14:11:36.001Z</time></trkpt><trkpt lat="45.689140468227095" lon="-0.07667165706894724"><ele>39.75</ele><time>2026-05-01T14:11:37.001Z</time></trkpt><trkpt lat="45.68900765760598" lon="-0.07665675280078366"><ele>40.0</ele><time>2026-05-01T14:11:38.001Z</time></trkpt><trkpt lat="45.68888691367036" lon="-0.07665311954084351"><ele>40.0</ele><time>2026-05-01T14:11:39.001Z</time></trkpt><trkpt lat="45.688776337584244" lon="-0.07666011140418157"><ele>40.0</ele><time>2026-05-01T14:11:40.001Z</time></trkpt><trkpt lat="45.68866941101285" lon="-0.07667905446216398"><ele>40.0</ele><time>2026-05-01T14:11:41.001Z</time></trkpt><trkpt lat="45.68855788552086" lon="-0.07672017054498803"><ele>40.0</ele><time>2026-05-01T14:11:42.001Z</time></trkpt><trkpt lat="45.688434321670336" lon="-0.07676029554051284"><ele>40.25</ele><time>2026-05-01T14:11:43.001Z</time></trkpt><trkpt lat="45.68831028935773" lon="-0.07679740605599798"><ele>40.5</ele><time>2026-05-01T14:11:44.001Z</time></trkpt><trkpt lat="45.68818323122" lon="-0.07684996256873737"><ele>40.75</ele><time>2026-05-01T14:11:45.001Z</time></trkpt><trkpt lat="45.68805360625271" lon="-0.0769235856178611"><ele>41.0</ele><time>2026-05-01T14:11:46.001Z</time></trkpt><trkpt lat="45.68791666066291" lon="-0.07700609675404615"><ele>41.0</ele><time>2026-05-01T14:11:47.001Z</time></trkpt><trkpt lat="45.68777712627951" lon="-0.0770852140226853"><ele>41.0</ele><time>2026-05-01T14:11:48.001Z</time></trkpt><trkpt lat="45.6876512757144" lon="-0.07715336802580394"><ele>41.0</ele><time>2026-05-01T14:11:49.001Z</time></trkpt><trkpt lat="45.68752837930736" lon="-0.07721322698585105"><ele>41.0</ele><time>2026-05-01T14:11:50.001Z</time></trkpt><trkpt lat="45.687401877882515" lon="-0.07725860630751576"><ele>40.0</ele><time>2026-05-01T14:11:51.001Z</time></trkpt><trkpt lat="45.68726252417682" lon="-0.07730415253455883"><ele>39.0</ele><time>2026-05-01T14:11:52.001Z</time></trkpt><trkpt lat="45.68712743944674" lon="-0.07734871334927956"><ele>38.0</ele><time>2026-05-01T14:11:53.001Z</time></trkpt><trkpt lat="45.6869914094407" lon="-0.07739301053351569"><ele>37.0</ele><time>2026-05-01T14:11:54.001Z</time></trkpt><trkpt lat="45.68685940479773" lon="-0.07742633955405907"><ele>36.5</ele><time>2026-05-01T14:11:55.001Z</time></trkpt><trkpt lat="45.6867321157689" lon="-0.07745173010239509"><ele>36.0</ele><time>2026-05-01T14:11:56.001Z</time></trkpt><trkpt lat="45.686591666852586" lon="-0.07746526275637484"><ele>35.5</ele><time>2026-05-01T14:11:57.001Z</time></trkpt><trkpt lat="45.68645437267664" lon="-0.07747823560396545"><ele>35.0</ele><time>2026-05-01T14:11:58.001Z</time></trkpt><trkpt lat="45.68631353953478" lon="-0.07749241316493406"><ele>35.0</ele><time>2026-05-01T14:11:59.001Z</time></trkpt><trkpt lat="45.68617473582857" lon="-0.07750349003190295"><ele>35.0</ele><time>2026-05-01T14:12:00.001Z</time></trkpt><trkpt lat="45.68604991468788" lon="-0.07751826296423751"><ele>35.0</ele><time>2026-05-01T14:12:01.001Z</time></trkpt><trkpt lat="45.685943318170374" lon="-0.0775329654078039"><ele>35.0</ele><time>2026-05-01T14:12:02.001Z</time></trkpt><trkpt lat="45.685867395404955" lon="-0.0775448110584324"><ele>35.0</ele><time>2026-05-01T14:12:03.001Z</time></trkpt><trkpt lat="45.6857665630013" lon="-0.07756627228005292"><ele>35.0</ele><time>2026-05-01T14:12:05.001Z</time></trkpt><trkpt lat="45.68571249458945" lon="-0.07751228414724656"><ele>35.0</ele><time>2026-05-01T14:12:07.001Z</time></trkpt><trkpt lat="45.68568411449474" lon="-0.07742513679296124"><ele>35.0</ele><time>2026-05-01T14:12:08.001Z</time></trkpt><trkpt lat="45.6856446262132" lon="-0.07728698569527999"><ele>35.0</ele><time>2026-05-01T14:12:09.001Z</time></trkpt><trkpt lat="45.68559227145362" lon="-0.07710340906845262"><ele>35.0</ele><time>2026-05-01T14:12:10.001Z</time></trkpt><trkpt lat="45.68552306943707" lon="-0.07685822527218157"><ele>35.0</ele><time>2026-05-01T14:12:11.001Z</time></trkpt><trkpt lat="45.68544970508735" lon="-0.07656206904087287"><ele>35.0</ele><time>2026-05-01T14:12:12.001Z</time></trkpt><trkpt lat="45.685368608526645" lon="-0.07626504286663342"><ele>35.0</ele><time>2026-05-01T14:12:13.001Z</time></trkpt><trkpt lat="45.68530381905953" lon="-0.07602311021765885"><ele>35.0</ele><time>2026-05-01T14:12:14.001Z</time></trkpt><trkpt lat="45.68527498127578" lon="-0.07583108352244995"><ele>35.0</ele><time>2026-05-01T14:12:15.001Z</time></trkpt><trkpt lat="45.68523426114504" lon="-0.07567050385904973"><ele>35.0</ele><time>2026-05-01T14:12:16.001Z</time></trkpt><trkpt lat="45.68519614691531" lon="-0.07552663066822221"><ele>35.0</ele><time>2026-05-01T14:12:17.001Z</time></trkpt><trkpt lat="45.68516614637235" lon="-0.07540110794916355"><ele>34.8</ele><time>2026-05-01T14:12:18.001Z</time></trkpt><trkpt lat="45.685126696895274" lon="-0.0752565334022189"><ele>34.6</ele><time>2026-05-01T14:12:20.001Z</time></trkpt><trkpt lat="45.68518415025123" lon="-0.07509939642671336"><ele>34.4</ele><time>2026-05-01T14:12:22.001Z</time></trkpt><trkpt lat="45.685299343977356" lon="-0.07505197447434324"><ele>34.2</ele><time>2026-05-01T14:12:23.001Z</time></trkpt><trkpt lat="45.68535884000539" lon="-0.07496022024357159"><ele>34.0</ele><time>2026-05-01T14:12:24.001Z</time></trkpt><trkpt lat="45.685389665194776" lon="-0.07479811034877372"><ele>33.75</ele><time>2026-05-01T14:12:26.001Z</time></trkpt><trkpt lat="45.685368659708885" lon="-0.07465635565558854"><ele>33.5</ele><time>2026-05-01T14:12:27.001Z</time></trkpt><trkpt lat="45.685326324949564" lon="-0.07445746534143766"><ele>33.25</ele><time>2026-05-01T14:12:28.001Z</time></trkpt><trkpt lat="45.68525792132231" lon="-0.07423242875505164"><ele>33.0</ele><time>2026-05-01T14:12:29.001Z</time></trkpt><trkpt lat="45.68518472511734" lon="-0.07395347764148154"><ele>33.0</ele><time>2026-05-01T14:12:30.001Z</time></trkpt><trkpt lat="45.685118851734174" lon="-0.0736845577784476"><ele>33.0</ele><time>2026-05-01T14:12:31.001Z</time></trkpt><trkpt lat="45.68506135298036" lon="-0.07347449445947946"><ele>33.0</ele><time>2026-05-01T14:12:32.001Z</time></trkpt><trkpt lat="45.68502061716252" lon="-0.07330210924565077"><ele>33.333333333333336</ele><time>2026-05-01T14:12:33.001Z</time></trkpt><trkpt lat="45.68498982450075" lon="-0.07315609339003833"><ele>33.666666666666664</ele><time>2026-05-01T14:12:34.001Z</time></trkpt><trkpt lat="45.684961422663314" lon="-0.07305010956835331"><ele>34.0</ele><time>2026-05-01T14:12:35.001Z</time></trkpt><trkpt lat="45.68494701144361" lon="-0.0729432829090454"><ele>34.33333333333333</ele><time>2026-05-01T14:12:36.001Z</time></trkpt><trkpt lat="45.68490239279544" lon="-0.07281330035104214"><ele>34.666666666666664</ele><time>2026-05-01T14:12:38.001Z</time></trkpt><trkpt lat="45.68489417366416" lon="-0.07272182056139884"><ele>35.0</ele><time>2026-05-01T14:12:40.001Z</time></trkpt><trkpt lat="45.684857443211676" lon="-0.07263297796025144"><ele>35.0</ele><time>2026-05-01T14:12:43.001Z</time></trkpt><trkpt lat="45.68484763017374" lon="-0.0724867912069715"><ele>35.0</ele><time>2026-05-01T14:12:45.001Z</time></trkpt><trkpt lat="45.68486030708397" lon="-0.07239521363013304"><ele>35.0</ele><time>2026-05-01T14:12:46.001Z</time></trkpt><trkpt lat="45.68488921570513" lon="-0.07229962729864149"><ele>35.0</ele><time>2026-05-01T14:12:47.001Z</time></trkpt><trkpt lat="45.68494428111716" lon="-0.07222421098369551"><ele>35.0</ele><time>2026-05-01T14:12:48.001Z</time></trkpt><trkpt lat="45.685019611095655" lon="-0.07216723647199577"><ele>35.0</ele><time>2026-05-01T14:12:49.001Z</time></trkpt><trkpt lat="45.685086556254795" lon="-0.07213411203893506"><ele>34.8</ele><time>2026-05-01T14:12:50.001Z</time></trkpt><trkpt lat="45.685205884344356" lon="-0.07212445172092585"><ele>34.6</ele><time>2026-05-01T14:12:52Z</time></trkpt><trkpt lat="45.685276303182846" lon="-0.0721413260808137"><ele>34.4</ele><time>2026-05-01T14:12:53Z</time></trkpt><trkpt lat="45.6853600292271" lon="-0.0721718095387648"><ele>34.2</ele><time>2026-05-01T14:12:54Z</time></trkpt><trkpt lat="45.685446533664106" lon="-0.07222289619652421"><ele>34.0</ele><time>2026-05-01T14:12:55Z</time></trkpt><trkpt lat="45.685539496051724" lon="-0.07223138958453583"><ele>34.0</ele><time>2026-05-01T14:12:56Z</time></trkpt><trkpt lat="45.68560774204314" lon="-0.0722507031635508"><ele>34.0</ele><time>2026-05-01T14:12:57Z</time></trkpt><trkpt lat="45.68567272212838" lon="-0.0722658075470809"><ele>34.0</ele><time>2026-05-01T14:12:58Z</time></trkpt><trkpt lat="45.685757848468256" lon="-0.07228241402418674"><ele>34.0</ele><time>2026-05-01T14:13:00Z</time></trkpt><trkpt lat="45.685770641278246" lon="-0.07217444680201357"><ele>34.0</ele><time>2026-05-01T14:13:03Z</time></trkpt><trkpt lat="45.68568979879271" lon="-0.07211542784243538"><ele>34.0</ele><time>2026-05-01T14:13:04Z</time></trkpt><trkpt lat="45.68565608664443" lon="-0.07203237763611037"><ele>34.0</ele><time>2026-05-01T14:13:05Z</time></trkpt><trkpt lat="45.6855879560666" lon="-0.07190819021501235"><ele>34.0</ele><time>2026-05-01T14:13:07Z</time></trkpt><trkpt lat="45.68551642833342" lon="-0.07175952046312611"><ele>34.0</ele><time>2026-05-01T14:13:09Z</time></trkpt><trkpt lat="45.68547761896511" lon="-0.07168288612546422"><ele>34.0</ele><time>2026-05-01T14:13:10Z</time></trkpt><trkpt lat="45.68543375542346" lon="-0.07160461258094991"><ele>34.0</ele><time>2026-05-01T14:13:11Z</time></trkpt><trkpt lat="45.68536507358983" lon="-0.0715282335417373"><ele>34.0</ele><time>2026-05-01T14:13:13Z</time></trkpt><trkpt lat="45.685206452211276" lon="-0.07155599899168309"><ele>34.0</ele><time>2026-05-01T14:13:16Z</time></trkpt><trkpt lat="45.685137289266855" lon="-0.07160359504031999"><ele>34.0</ele><time>2026-05-01T14:13:17Z</time></trkpt><trkpt lat="45.68496883313347" lon="-0.07173892401322352"><ele>34.0</ele><time>2026-05-01T14:13:19Z</time></trkpt><trkpt lat="45.68485560828944" lon="-0.07179884345061802"><ele>34.0</ele><time>2026-05-01T14:13:20Z</time></trkpt><trkpt lat="45.68473776974415" lon="-0.0718605136445966"><ele>34.0</ele><time>2026-05-01T14:13:21Z</time></trkpt><trkpt lat="45.68462463563688" lon="-0.07191379493022046"><ele>34.0</ele><time>2026-05-01T14:13:22Z</time></trkpt><trkpt lat="45.68450349089674" lon="-0.0719656597915038"><ele>34.0</ele><time>2026-05-01T14:13:23Z</time></trkpt><trkpt lat="45.684388904092536" lon="-0.07202018323920552"><ele>33.8</ele><time>2026-05-01T14:13:24Z</time></trkpt><trkpt lat="45.684287045617445" lon="-0.07207399243387917"><ele>33.599999999999994</ele><time>2026-05-01T14:13:25Z</time></trkpt><trkpt lat="45.684182028869216" lon="-0.07211829711457612"><ele>33.4</ele><time>2026-05-01T14:13:26Z</time></trkpt><trkpt lat="45.68408314845125" lon="-0.07215536388001761"><ele>33.199999999999996</ele><time>2026-05-01T14:13:27Z</time></trkpt><trkpt lat="45.683990505288435" lon="-0.07219888001812333"><ele>33.0</ele><time>2026-05-01T14:13:28Z</time></trkpt><trkpt lat="45.683903839871796" lon="-0.07224732055131196"><ele>33.0</ele><time>2026-05-01T14:13:29Z</time></trkpt><trkpt lat="45.68380059408536" lon="-0.07229051385756471"><ele>33.0</ele><time>2026-05-01T14:13:30Z</time></trkpt><trkpt lat="45.68371002608344" lon="-0.07233857968377844"><ele>33.0</ele><time>2026-05-01T14:13:31Z</time></trkpt><trkpt lat="45.683620897527526" lon="-0.07239189787241065"><ele>33.0</ele><time>2026-05-01T14:13:32Z</time></trkpt><trkpt lat="45.68354573076208" lon="-0.07244949320441821"><ele>33.0</ele><time>2026-05-01T14:13:33Z</time></trkpt><trkpt lat="45.68348221157043" lon="-0.07248784828670247"><ele>32.75</ele><time>2026-05-01T14:13:34Z</time></trkpt><trkpt lat="45.68341506461796" lon="-0.07254627298340219"><ele>32.5</ele><time>2026-05-01T14:13:36Z</time></trkpt><trkpt lat="45.683298834267475" lon="-0.07229903782192021"><ele>32.25</ele><time>2026-05-01T14:13:39Z</time></trkpt><trkpt lat="45.68327023182579" lon="-0.07212348528783895"><ele>32.0</ele><time>2026-05-01T14:13:40Z</time></trkpt><trkpt lat="45.683255560081236" lon="-0.07194376748107108"><ele>32.0</ele><time>2026-05-01T14:13:41Z</time></trkpt><trkpt lat="45.68325578853414" lon="-0.0717461504809455"><ele>32.0</ele><time>2026-05-01T14:13:42.001Z</time></trkpt><trkpt lat="45.68325982088008" lon="-0.07154813645253102"><ele>32.0</ele><time>2026-05-01T14:13:43.001Z</time></trkpt><trkpt lat="45.683273400924996" lon="-0.07133812518849872"><ele>32.0</ele><time>2026-05-01T14:13:44.001Z</time></trkpt><trkpt lat="45.68329959342458" lon="-0.07112060014592717"><ele>32.25</ele><time>2026-05-01T14:13:45.001Z</time></trkpt><trkpt lat="45.68331789272492" lon="-0.07091083802105456"><ele>32.5</ele><time>2026-05-01T14:13:46.001Z</time></trkpt><trkpt lat="45.683332391529156" lon="-0.07072246475096262"><ele>32.75</ele><time>2026-05-01T14:13:47.001Z</time></trkpt><trkpt lat="45.68334505744838" lon="-0.07054774491797693"><ele>33.0</ele><time>2026-05-01T14:13:48.001Z</time></trkpt><trkpt lat="45.683340104212796" lon="-0.07039284782037968"><ele>33.0</ele><time>2026-05-01T14:13:49.001Z</time></trkpt><trkpt lat="45.68334362434821" lon="-0.0702990106707612"><ele>33.0</ele><time>2026-05-01T14:13:50.001Z</time></trkpt><trkpt lat="45.683297456509884" lon="-0.07044964028266634"><ele>33.0</ele><time>2026-05-01T14:13:56.001Z</time></trkpt><trkpt lat="45.68319749898582" lon="-0.07055327668561373"><ele>33.0</ele><time>2026-05-01T14:13:57.001Z</time></trkpt><trkpt lat="45.68319404673712" lon="-0.07067188295632283"><ele>33.0</ele><time>2026-05-01T14:13:58.001Z</time></trkpt><trkpt lat="45.68318377090566" lon="-0.0708407358887561"><ele>33.0</ele><time>2026-05-01T14:13:59.001Z</time></trkpt><trkpt lat="45.68332749840015" lon="-0.07110042285255361"><ele>33.0</ele><time>2026-05-01T14:14:00.001Z</time></trkpt><trkpt lat="45.68330538121645" lon="-0.07131928476980083"><ele>33.0</ele><time>2026-05-01T14:14:01.001Z</time></trkpt><trkpt lat="45.68328936481939" lon="-0.07149069705189613"><ele>32.666666666666664</ele><time>2026-05-01T14:14:02.001Z</time></trkpt><trkpt lat="45.683278699027724" lon="-0.07161703313412829"><ele>32.33333333333333</ele><time>2026-05-01T14:14:03.001Z</time></trkpt><trkpt lat="45.6832754872803" lon="-0.07176049446801828"><ele>32.0</ele><time>2026-05-01T14:14:05.001Z</time></trkpt><trkpt lat="45.682842831021354" lon="-0.07183788612727142"><ele>31.75</ele><time>2026-05-01T14:14:08.001Z</time></trkpt><trkpt lat="45.682726639360034" lon="-0.071844728640766"><ele>31.5</ele><time>2026-05-01T14:14:09.001Z</time></trkpt><trkpt lat="45.682578327809615" lon="-0.07186799278244176"><ele>31.25</ele><time>2026-05-01T14:14:10.001Z</time></trkpt><trkpt lat="45.682406804889986" lon="-0.07191694541779198"><ele>31.0</ele><time>2026-05-01T14:14:11.001Z</time></trkpt><trkpt lat="45.68226777279824" lon="-0.07194834403427197"><ele>31.0</ele><time>2026-05-01T14:14:12.001Z</time></trkpt><trkpt lat="45.68212647671533" lon="-0.07196637029027173"><ele>31.0</ele><time>2026-05-01T14:14:13.001Z</time></trkpt><trkpt lat="45.68200545137657" lon="-0.07197729820072817"><ele>31.0</ele><time>2026-05-01T14:14:14.001Z</time></trkpt><trkpt lat="45.68188279080249" lon="-0.0719882946682317"><ele>31.0</ele><time>2026-05-01T14:14:15.001Z</time></trkpt><trkpt lat="45.681765744748304" lon="-0.07200246728933735"><ele>31.0</ele><time>2026-05-01T14:14:16.001Z</time></trkpt><trkpt lat="45.68165789338004" lon="-0.0720081518828571"><ele>31.0</ele><time>2026-05-01T14:14:17.001Z</time></trkpt><trkpt lat="45.68156267775775" lon="-0.07201951100482443"><ele>31.0</ele><time>2026-05-01T14:14:18.001Z</time></trkpt><trkpt lat="45.68146207095419" lon="-0.07200661439658022"><ele>31.0</ele><time>2026-05-01T14:14:19.001Z</time></trkpt><trkpt lat="45.68134228772248" lon="-0.07199622152561014"><ele>31.0</ele><time>2026-05-01T14:14:20.001Z</time></trkpt><trkpt lat="45.68123461543657" lon="-0.07197570078391308"><ele>31.0</ele><time>2026-05-01T14:14:21.001Z</time></trkpt><trkpt lat="45.681118731687214" lon="-0.07195519095681964"><ele>31.0</ele><time>2026-05-01T14:14:22.001Z</time></trkpt><trkpt lat="45.6809942550447" lon="-0.07193434618889495"><ele>31.0</ele><time>2026-05-01T14:14:23.001Z</time></trkpt><trkpt lat="45.68086722414485" lon="-0.07191493464537646"><ele>31.0</ele><time>2026-05-01T14:14:24.001Z</time></trkpt><trkpt lat="45.68075619902677" lon="-0.07190344741893914"><ele>30.8</ele><time>2026-05-01T14:14:25.001Z</time></trkpt><trkpt lat="45.68064353043829" lon="-0.0718904530840185"><ele>30.6</ele><time>2026-05-01T14:14:26.001Z</time></trkpt><trkpt lat="45.68054753988808" lon="-0.07191709466098249"><ele>30.4</ele><time>2026-05-01T14:14:27.001Z</time></trkpt><trkpt lat="45.680450651131046" lon="-0.07196586700062353"><ele>30.2</ele><time>2026-05-01T14:14:28.001Z</time></trkpt><trkpt lat="45.68034122019437" lon="-0.07203118429802"><ele>30.0</ele><time>2026-05-01T14:14:29.001Z</time></trkpt><trkpt lat="45.680228157959284" lon="-0.07210190933180328"><ele>30.0</ele><time>2026-05-01T14:14:30.001Z</time></trkpt><trkpt lat="45.68010418105297" lon="-0.07217369519211296"><ele>30.0</ele><time>2026-05-01T14:14:31.001Z</time></trkpt><trkpt lat="45.67996550286458" lon="-0.07224266718578912"><ele>30.0</ele><time>2026-05-01T14:14:32.001Z</time></trkpt><trkpt lat="45.67982181321331" lon="-0.07233199023775498"><ele>30.0</ele><time>2026-05-01T14:14:33.001Z</time></trkpt><trkpt lat="45.67969887900579" lon="-0.0723929684540168"><ele>30.0</ele><time>2026-05-01T14:14:34.001Z</time></trkpt><trkpt lat="45.679575603839915" lon="-0.07243912772512241"><ele>30.0</ele><time>2026-05-01T14:14:35.001Z</time></trkpt><trkpt lat="45.67945215985622" lon="-0.07247148209387033"><ele>30.0</ele><time>2026-05-01T14:14:36.001Z</time></trkpt><trkpt lat="45.6793145870179" lon="-0.07250694167664114"><ele>30.0</ele><time>2026-05-01T14:14:37.001Z</time></trkpt><trkpt lat="45.67918803968302" lon="-0.07254245683281192"><ele>29.75</ele><time>2026-05-01T14:14:38.001Z</time></trkpt><trkpt lat="45.67906876399555" lon="-0.07258675045258121"><ele>29.5</ele><time>2026-05-01T14:14:39.001Z</time></trkpt><trkpt lat="45.678944303794" lon="-0.0726285827724388"><ele>29.25</ele><time>2026-05-01T14:14:40.001Z</time></trkpt><trkpt lat="45.67883375076752" lon="-0.07266297197747655"><ele>29.0</ele><time>2026-05-01T14:14:41.001Z</time></trkpt><trkpt lat="45.67872992077755" lon="-0.0726968744114793"><ele>29.0</ele><time>2026-05-01T14:14:42.001Z</time></trkpt><trkpt lat="45.678617999583246" lon="-0.07273615030110693"><ele>29.0</ele><time>2026-05-01T14:14:43.001Z</time></trkpt><trkpt lat="45.67851858439271" lon="-0.0727745353540901"><ele>29.0</ele><time>2026-05-01T14:14:44.001Z</time></trkpt><trkpt lat="45.67843710116062" lon="-0.07279821082281938"><ele>29.0</ele><time>2026-05-01T14:14:45.001Z</time></trkpt><trkpt lat="45.67835394962501" lon="-0.07274556650653972"><ele>29.0</ele><time>2026-05-01T14:14:47.001Z</time></trkpt><trkpt lat="45.67831964720308" lon="-0.07266135473211513"><ele>29.75</ele><time>2026-05-01T14:14:48.001Z</time></trkpt><trkpt lat="45.67829340402556" lon="-0.07252615558599194"><ele>30.5</ele><time>2026-05-01T14:14:49.001Z</time></trkpt><trkpt lat="45.67828531623295" lon="-0.07233446266547748"><ele>31.25</ele><time>2026-05-01T14:14:50.001Z</time></trkpt><trkpt lat="45.67826464536624" lon="-0.07211684714545051"><ele>32.0</ele><time>2026-05-01T14:14:51.001Z</time></trkpt><trkpt lat="45.678233772664235" lon="-0.07186985183554855"><ele>32.33333333333333</ele><time>2026-05-01T14:14:52.001Z</time></trkpt><trkpt lat="45.678200920613484" lon="-0.07159865352119513"><ele>32.666666666666664</ele><time>2026-05-01T14:14:53.001Z</time></trkpt><trkpt lat="45.67816278131871" lon="-0.07133839009214493"><ele>33.0</ele><time>2026-05-01T14:14:54.001Z</time></trkpt><trkpt lat="45.67812285749933" lon="-0.07103897503784025"><ele>33.0</ele><time>2026-05-01T14:14:55.001Z</time></trkpt><trkpt lat="45.6780944010558" lon="-0.0707782259206734"><ele>33.0</ele><time>2026-05-01T14:14:56.001Z</time></trkpt><trkpt lat="45.67806256280906" lon="-0.07050444441974381"><ele>33.0</ele><time>2026-05-01T14:14:57.001Z</time></trkpt><trkpt lat="45.67803541045468" lon="-0.0702819376469293"><ele>33.5</ele><time>2026-05-01T14:14:58Z</time></trkpt><trkpt lat="45.67801157400544" lon="-0.07010908602107079"><ele>34.0</ele><time>2026-05-01T14:14:59Z</time></trkpt><trkpt lat="45.67800092548821" lon="-0.06996288924893139"><ele>34.5</ele><time>2026-05-01T14:15:00Z</time></trkpt><trkpt lat="45.67797528544917" lon="-0.06981136846668247"><ele>35.0</ele><time>2026-05-01T14:15:01Z</time></trkpt><trkpt lat="45.677927753394016" lon="-0.06965021855921455"><ele>35.0</ele><time>2026-05-01T14:15:02Z</time></trkpt><trkpt lat="45.67786088875051" lon="-0.06946941299090974"><ele>35.0</ele><time>2026-05-01T14:15:03Z</time></trkpt><trkpt lat="45.67778394363424" lon="-0.06926581421223409"><ele>35.0</ele><time>2026-05-01T14:15:04Z</time></trkpt><trkpt lat="45.677691273379516" lon="-0.06904132047065387"><ele>35.33333333333333</ele><time>2026-05-01T14:15:05Z</time></trkpt><trkpt lat="45.67757512880715" lon="-0.06880376423523628"><ele>35.666666666666664</ele><time>2026-05-01T14:15:06Z</time></trkpt><trkpt lat="45.67746850080748" lon="-0.06860197401759724"><ele>36.0</ele><time>2026-05-01T14:15:07Z</time></trkpt><trkpt lat="45.67736538389037" lon="-0.06839208125951565"><ele>37.0</ele><time>2026-05-01T14:15:08Z</time></trkpt><trkpt lat="45.67726045923649" lon="-0.06816504974666981"><ele>38.0</ele><time>2026-05-01T14:15:09Z</time></trkpt><trkpt lat="45.67717936532359" lon="-0.06794240897077583"><ele>39.0</ele><time>2026-05-01T14:15:10Z</time></trkpt><trkpt lat="45.67710302633065" lon="-0.06771720431967164"><ele>39.0</ele><time>2026-05-01T14:15:11Z</time></trkpt><trkpt lat="45.67702778470247" lon="-0.0675076520170581"><ele>39.0</ele><time>2026-05-01T14:15:12Z</time></trkpt><trkpt lat="45.67695615346528" lon="-0.06733151106923264"><ele>39.0</ele><time>2026-05-01T14:15:13Z</time></trkpt><trkpt lat="45.67687413204092" lon="-0.06714971199815185"><ele>39.0</ele><time>2026-05-01T14:15:14Z</time></trkpt><trkpt lat="45.676801464440686" lon="-0.06695419776238207"><ele>39.0</ele><time>2026-05-01T14:15:15Z</time></trkpt><trkpt lat="45.676734798768635" lon="-0.06673856413772965"><ele>39.0</ele><time>2026-05-01T14:15:16Z</time></trkpt><trkpt lat="45.67668113928427" lon="-0.06654432592371096"><ele>39.333333333333336</ele><time>2026-05-01T14:15:17Z</time></trkpt><trkpt lat="45.67663354222746" lon="-0.06633488855602598"><ele>39.66666666666667</ele><time>2026-05-01T14:15:18Z</time></trkpt><trkpt lat="45.67659212316012" lon="-0.06612718662598971"><ele>40.0</ele><time>2026-05-01T14:15:19Z</time></trkpt><trkpt lat="45.676545336712174" lon="-0.06589705001576558"><ele>40.66666666666667</ele><time>2026-05-01T14:15:20Z</time></trkpt><trkpt lat="45.676506055429314" lon="-0.06565536811451576"><ele>41.333333333333336</ele><time>2026-05-01T14:15:21Z</time></trkpt><trkpt lat="45.67648480849102" lon="-0.06543004504280317"><ele>42.0</ele><time>2026-05-01T14:15:22Z</time></trkpt><trkpt lat="45.67646776190374" lon="-0.06521404258873235"><ele>42.0</ele><time>2026-05-01T14:15:23Z</time></trkpt><trkpt lat="45.67644864325223" lon="-0.0649883242962596"><ele>42.0</ele><time>2026-05-01T14:15:24Z</time></trkpt><trkpt lat="45.67643054337558" lon="-0.06476478980568047"><ele>42.0</ele><time>2026-05-01T14:15:25Z</time></trkpt><trkpt lat="45.67640651253348" lon="-0.06457496493167908"><ele>42.0</ele><time>2026-05-01T14:15:26Z</time></trkpt><trkpt lat="45.67637677907913" lon="-0.06438168454037672"><ele>42.0</ele><time>2026-05-01T14:15:27Z</time></trkpt><trkpt lat="45.6763419529306" lon="-0.06418173727478621"><ele>42.0</ele><time>2026-05-01T14:15:28Z</time></trkpt><trkpt lat="45.676299570660255" lon="-0.06399837818571216"><ele>42.0</ele><time>2026-05-01T14:15:29Z</time></trkpt><trkpt lat="45.676256206685586" lon="-0.06383912874127595"><ele>42.0</ele><time>2026-05-01T14:15:30Z</time></trkpt><trkpt lat="45.67621428007318" lon="-0.063704149487928"><ele>42.0</ele><time>2026-05-01T14:15:31Z</time></trkpt><trkpt lat="45.67616422640234" lon="-0.06359034742679884"><ele>42.0</ele><time>2026-05-01T14:15:32Z</time></trkpt><trkpt lat="45.676091773518124" lon="-0.06349578418668844"><ele>42.0</ele><time>2026-05-01T14:15:33Z</time></trkpt><trkpt lat="45.67600166307263" lon="-0.06341798744742544"><ele>42.0</ele><time>2026-05-01T14:15:34Z</time></trkpt><trkpt lat="45.67587055383698" lon="-0.06332828864229721"><ele>42.666666666666664</ele><time>2026-05-01T14:15:35Z</time></trkpt><trkpt lat="45.675696374652446" lon="-0.06322692781921467"><ele>43.33333333333333</ele><time>2026-05-01T14:15:36Z</time></trkpt><trkpt lat="45.67552564734437" lon="-0.06311491605462569"><ele>44.0</ele><time>2026-05-01T14:15:37Z</time></trkpt><trkpt lat="45.675381634808325" lon="-0.06301293742812004"><ele>43.5</ele><time>2026-05-01T14:15:38Z</time></trkpt><trkpt lat="45.67525593458203" lon="-0.06291187262080816"><ele>43.0</ele><time>2026-05-01T14:15:39Z</time></trkpt><trkpt lat="45.67513789661905" lon="-0.06282298818952912"><ele>42.5</ele><time>2026-05-01T14:15:40Z</time></trkpt><trkpt lat="45.67502892024149" lon="-0.0627284346128377"><ele>42.0</ele><time>2026-05-01T14:15:41Z</time></trkpt><trkpt lat="45.67492110318494" lon="-0.06261673075745666"><ele>42.0</ele><time>2026-05-01T14:15:42Z</time></trkpt><trkpt lat="45.67481126055152" lon="-0.06249126006504543"><ele>42.0</ele><time>2026-05-01T14:15:43Z</time></trkpt><trkpt lat="45.67471248968213" lon="-0.062371147746613176"><ele>42.0</ele><time>2026-05-01T14:15:44Z</time></trkpt><trkpt lat="45.67463837061651" lon="-0.06226979008463291"><ele>42.0</ele><time>2026-05-01T14:15:45Z</time></trkpt><trkpt lat="45.67458393541054" lon="-0.06218050390640303"><ele>42.2</ele><time>2026-05-01T14:15:46Z</time></trkpt><trkpt lat="45.6745486710891" lon="-0.06208527750590141"><ele>42.400000000000006</ele><time>2026-05-01T14:15:47Z</time></trkpt><trkpt lat="45.674514588682605" lon="-0.06196966847718271"><ele>42.599999999999994</ele><time>2026-05-01T14:15:48Z</time></trkpt><trkpt lat="45.674476627205046" lon="-0.06183798961414482"><ele>42.8</ele><time>2026-05-01T14:15:49Z</time></trkpt><trkpt lat="45.6744428889306" lon="-0.06169498681917212"><ele>43.0</ele><time>2026-05-01T14:15:50Z</time></trkpt><trkpt lat="45.674414270491496" lon="-0.06156569699490685"><ele>42.4</ele><time>2026-05-01T14:15:51Z</time></trkpt><trkpt lat="45.67439742780476" lon="-0.06142353709149298"><ele>41.8</ele><time>2026-05-01T14:15:52Z</time></trkpt><trkpt lat="45.67438608357082" lon="-0.06127263379643799"><ele>41.2</ele><time>2026-05-01T14:15:53.001Z</time></trkpt><trkpt lat="45.67437256125558" lon="-0.06112859801902305"><ele>40.6</ele><time>2026-05-01T14:15:54.001Z</time></trkpt><trkpt lat="45.67435027303491" lon="-0.06098396376569088"><ele>40.0</ele><time>2026-05-01T14:15:55.001Z</time></trkpt><trkpt lat="45.67432744378161" lon="-0.060834657826115815"><ele>40.0</ele><time>2026-05-01T14:15:56.001Z</time></trkpt><trkpt lat="45.67430898028641" lon="-0.060697965145201205"><ele>40.0</ele><time>2026-05-01T14:15:57.001Z</time></trkpt><trkpt lat="45.67428560402416" lon="-0.06055986032194675"><ele>40.0</ele><time>2026-05-01T14:15:58.001Z</time></trkpt><trkpt lat="45.67425064020879" lon="-0.06042544674992002"><ele>40.0</ele><time>2026-05-01T14:15:59.001Z</time></trkpt><trkpt lat="45.67420740867" lon="-0.06030082454045236"><ele>40.0</ele><time>2026-05-01T14:16:00.001Z</time></trkpt><trkpt lat="45.67415243393718" lon="-0.06018176894839599"><ele>40.0</ele><time>2026-05-01T14:16:01.001Z</time></trkpt><trkpt lat="45.67408211111053" lon="-0.06009076317065418"><ele>40.0</ele><time>2026-05-01T14:16:02.001Z</time></trkpt><trkpt lat="45.67400895880774" lon="-0.05998302008567694"><ele>40.0</ele><time>2026-05-01T14:16:03.001Z</time></trkpt><trkpt lat="45.673940415124356" lon="-0.059875925814957875"><ele>40.0</ele><time>2026-05-01T14:16:04.001Z</time></trkpt><trkpt lat="45.67388211681461" lon="-0.05977017082109214"><ele>40.0</ele><time>2026-05-01T14:16:05.001Z</time></trkpt><trkpt lat="45.67381519407659" lon="-0.05967883838211243"><ele>39.8</ele><time>2026-05-01T14:16:06.001Z</time></trkpt><trkpt lat="45.673737810546406" lon="-0.059608490211227994"><ele>39.6</ele><time>2026-05-01T14:16:07.001Z</time></trkpt><trkpt lat="45.673644623146394" lon="-0.05954332300983516"><ele>39.4</ele><time>2026-05-01T14:16:08.001Z</time></trkpt><trkpt lat="45.67354685903942" lon="-0.05947798849786476"><ele>39.2</ele><time>2026-05-01T14:16:09.001Z</time></trkpt><trkpt lat="45.6734352028109" lon="-0.05942344748126431"><ele>39.0</ele><time>2026-05-01T14:16:10.001Z</time></trkpt><trkpt lat="45.67332078259829" lon="-0.05938171284463141"><ele>38.0</ele><time>2026-05-01T14:16:11.001Z</time></trkpt><trkpt lat="45.673205631705386" lon="-0.059349283534017416"><ele>37.0</ele><time>2026-05-01T14:16:12.001Z</time></trkpt><trkpt lat="45.67309381817251" lon="-0.059318763186513974"><ele>36.0</ele><time>2026-05-01T14:16:13.001Z</time></trkpt><trkpt lat="45.672985018771776" lon="-0.05928991755130073"><ele>35.0</ele><time>2026-05-01T14:16:14.001Z</time></trkpt><trkpt lat="45.67287874160132" lon="-0.059253746881915925"><ele>35.0</ele><time>2026-05-01T14:16:15.001Z</time></trkpt><trkpt lat="45.67277574422217" lon="-0.05919600344434349"><ele>35.0</ele><time>2026-05-01T14:16:16.001Z</time></trkpt><trkpt lat="45.67267272644816" lon="-0.059117350853870716"><ele>35.0</ele><time>2026-05-01T14:16:17.001Z</time></trkpt><trkpt lat="45.67258687451333" lon="-0.05901651034917981"><ele>35.0</ele><time>2026-05-01T14:16:18.001Z</time></trkpt><trkpt lat="45.672503823441026" lon="-0.05890366946218134"><ele>35.25</ele><time>2026-05-01T14:16:19.001Z</time></trkpt><trkpt lat="45.67242334809901" lon="-0.058773560610782184"><ele>35.5</ele><time>2026-05-01T14:16:20.001Z</time></trkpt><trkpt lat="45.672343342391606" lon="-0.05864051294387412"><ele>35.75</ele><time>2026-05-01T14:16:21.001Z</time></trkpt><trkpt lat="45.672265298672706" lon="-0.05851076497883493"><ele>36.0</ele><time>2026-05-01T14:16:22.001Z</time></trkpt><trkpt lat="45.672193182010176" lon="-0.05838980607121695"><ele>36.2</ele><time>2026-05-01T14:16:23.001Z</time></trkpt><trkpt lat="45.672120738830344" lon="-0.05826255544338285"><ele>36.400000000000006</ele><time>2026-05-01T14:16:24.001Z</time></trkpt><trkpt lat="45.67204926818356" lon="-0.0581429904163944"><ele>36.6</ele><time>2026-05-01T14:16:25.001Z</time></trkpt><trkpt lat="45.67197376972029" lon="-0.058036006972635806"><ele>36.800000000000004</ele><time>2026-05-01T14:16:26.001Z</time></trkpt><trkpt lat="45.67189586849113" lon="-0.05793159836143918"><ele>37.0</ele><time>2026-05-01T14:16:27.001Z</time></trkpt><trkpt lat="45.67181951943076" lon="-0.05782629953030745"><ele>37.2</ele><time>2026-05-01T14:16:28.001Z</time></trkpt><trkpt lat="45.67173995451289" lon="-0.05771531517101601"><ele>37.400000000000006</ele><time>2026-05-01T14:16:29.001Z</time></trkpt><trkpt lat="45.67166446242266" lon="-0.05760341749615405"><ele>37.599999999999994</ele><time>2026-05-01T14:16:30.001Z</time></trkpt><trkpt lat="45.67158837719154" lon="-0.05749659521439184"><ele>37.8</ele><time>2026-05-01T14:16:31.001Z</time></trkpt><trkpt lat="45.67150912935078" lon="-0.05738651077999417"><ele>38.0</ele><time>2026-05-01T14:16:32.001Z</time></trkpt><trkpt lat="45.67143857681945" lon="-0.05726353667004069"><ele>38.0</ele><time>2026-05-01T14:16:33.001Z</time></trkpt><trkpt lat="45.671369803769075" lon="-0.05713092132224039"><ele>38.0</ele><time>2026-05-01T14:16:34.001Z</time></trkpt><trkpt lat="45.67130387017047" lon="-0.05699511884649688"><ele>38.0</ele><time>2026-05-01T14:16:35.001Z</time></trkpt><trkpt lat="45.67124160656002" lon="-0.0568438508019174"><ele>38.0</ele><time>2026-05-01T14:16:36.001Z</time></trkpt><trkpt lat="45.6711649710528" lon="-0.05668398243464324"><ele>38.0</ele><time>2026-05-01T14:16:37.001Z</time></trkpt><trkpt lat="45.6710831998848" lon="-0.05653148075490361"><ele>38.0</ele><time>2026-05-01T14:16:38.001Z</time></trkpt><trkpt lat="45.670998033527724" lon="-0.056373332691207596"><ele>38.0</ele><time>2026-05-01T14:16:39.001Z</time></trkpt><trkpt lat="45.67091348521251" lon="-0.056219932312583445"><ele>38.0</ele><time>2026-05-01T14:16:40.001Z</time></trkpt><trkpt lat="45.67083461004509" lon="-0.05607574487569187"><ele>38.0</ele><time>2026-05-01T14:16:41.001Z</time></trkpt><trkpt lat="45.670761415743755" lon="-0.05594527557851442"><ele>38.0</ele><time>2026-05-01T14:16:42.001Z</time></trkpt><trkpt lat="45.670699400852314" lon="-0.05583538771888118"><ele>38.0</ele><time>2026-05-01T14:16:43.001Z</time></trkpt><trkpt lat="45.67063833579281" lon="-0.05573090522294522"><ele>38.0</ele><time>2026-05-01T14:16:44.001Z</time></trkpt><trkpt lat="45.670585462231074" lon="-0.055634284407773724"><ele>38.0</ele><time>2026-05-01T14:16:45.001Z</time></trkpt><trkpt lat="45.67054551155131" lon="-0.05555438095309374"><ele>38.4</ele><time>2026-05-01T14:16:46.001Z</time></trkpt><trkpt lat="45.67047968840003" lon="-0.05544553375756959"><ele>38.8</ele><time>2026-05-01T14:16:48.001Z</time></trkpt><trkpt lat="45.670369323605065" lon="-0.05542037970326695"><ele>39.2</ele><time>2026-05-01T14:16:51.001Z</time></trkpt><trkpt lat="45.67028752927108" lon="-0.05544740130848776"><ele>39.6</ele><time>2026-05-01T14:16:52.001Z</time></trkpt><trkpt lat="45.670190779302764" lon="-0.05549317971022896"><ele>40.0</ele><time>2026-05-01T14:16:53.001Z</time></trkpt><trkpt lat="45.670076230982474" lon="-0.05554818315869317"><ele>39.0</ele><time>2026-05-01T14:16:54.001Z</time></trkpt><trkpt lat="45.66995782135573" lon="-0.055600701055967684"><ele>38.0</ele><time>2026-05-01T14:16:55.001Z</time></trkpt><trkpt lat="45.6698296855656" lon="-0.055660210560926286"><ele>37.0</ele><time>2026-05-01T14:16:56.001Z</time></trkpt><trkpt lat="45.669715768088764" lon="-0.05573239752640061"><ele>36.0</ele><time>2026-05-01T14:16:57.001Z</time></trkpt><trkpt lat="45.66955034483638" lon="-0.05581711806264207"><ele>34.666666666666664</ele><time>2026-05-01T14:16:58.001Z</time></trkpt><trkpt lat="45.669392989793266" lon="-0.0559087176463716"><ele>33.33333333333333</ele><time>2026-05-01T14:16:59.001Z</time></trkpt><trkpt lat="45.669223424264565" lon="-0.05601212009317862"><ele>32.0</ele><time>2026-05-01T14:17:00.001Z</time></trkpt><trkpt lat="45.669066957099105" lon="-0.05610992310172477"><ele>32.0</ele><time>2026-05-01T14:17:01.001Z</time></trkpt><trkpt lat="45.66889784898993" lon="-0.056218901424785486"><ele>32.0</ele><time>2026-05-01T14:17:02.001Z</time></trkpt><trkpt lat="45.668734705657286" lon="-0.05635363648901546"><ele>32.0</ele><time>2026-05-01T14:17:03.001Z</time></trkpt><trkpt lat="45.66856408776564" lon="-0.05649439813726466"><ele>32.33333333333333</ele><time>2026-05-01T14:17:04Z</time></trkpt><trkpt lat="45.668381916662995" lon="-0.05661137862384646"><ele>32.666666666666664</ele><time>2026-05-01T14:17:05Z</time></trkpt><trkpt lat="45.6681912596423" lon="-0.05670977559332529"><ele>33.0</ele><time>2026-05-01T14:17:06Z</time></trkpt><trkpt lat="45.667996964056485" lon="-0.05680423638173247"><ele>33.0</ele><time>2026-05-01T14:17:07Z</time></trkpt><trkpt lat="45.66781687540463" lon="-0.05690303933695273"><ele>33.0</ele><time>2026-05-01T14:17:08Z</time></trkpt><trkpt lat="45.66765930076005" lon="-0.05699807602930073"><ele>33.0</ele><time>2026-05-01T14:17:09Z</time></trkpt><trkpt lat="45.667521433167224" lon="-0.057095887601697655"><ele>33.5</ele><time>2026-05-01T14:17:10Z</time></trkpt><trkpt lat="45.667386354823925" lon="-0.05718658140726973"><ele>34.0</ele><time>2026-05-01T14:17:11Z</time></trkpt><trkpt lat="45.66725217013436" lon="-0.05728094548720952"><ele>34.5</ele><time>2026-05-01T14:17:12Z</time></trkpt><trkpt lat="45.667116029416896" lon="-0.057373118419716075"><ele>35.0</ele><time>2026-05-01T14:17:13Z</time></trkpt><trkpt lat="45.666994767872005" lon="-0.05745115083977011"><ele>35.0</ele><time>2026-05-01T14:17:14Z</time></trkpt><trkpt lat="45.666888672448884" lon="-0.05752678367537045"><ele>35.0</ele><time>2026-05-01T14:17:15Z</time></trkpt><trkpt lat="45.66679289748219" lon="-0.057613363865979886"><ele>35.0</ele><time>2026-05-01T14:17:16Z</time></trkpt><trkpt lat="45.6666952675012" lon="-0.057724859437704515"><ele>35.0</ele><time>2026-05-01T14:17:17Z</time></trkpt><trkpt lat="45.66658821257263" lon="-0.05785941462623339"><ele>35.0</ele><time>2026-05-01T14:17:18Z</time></trkpt><trkpt lat="45.666473821970285" lon="-0.05799293100315306"><ele>35.0</ele><time>2026-05-01T14:17:19Z</time></trkpt><trkpt lat="45.666349967403896" lon="-0.05811630416544194"><ele>35.0</ele><time>2026-05-01T14:17:20Z</time></trkpt><trkpt lat="45.66621439470974" lon="-0.05822793594046159"><ele>35.0</ele><time>2026-05-01T14:17:21Z</time></trkpt><trkpt lat="45.666074041214216" lon="-0.05835148401607467"><ele>35.0</ele><time>2026-05-01T14:17:22Z</time></trkpt><trkpt lat="45.665934736392146" lon="-0.058485093288823675"><ele>35.0</ele><time>2026-05-01T14:17:23Z</time></trkpt><trkpt lat="45.66579018520721" lon="-0.058627405716527733"><ele>35.0</ele><time>2026-05-01T14:17:24Z</time></trkpt><trkpt lat="45.665656500663886" lon="-0.05876027695620423"><ele>35.0</ele><time>2026-05-01T14:17:25Z</time></trkpt><trkpt lat="45.665529569366164" lon="-0.05887288440458696"><ele>35.0</ele><time>2026-05-01T14:17:26Z</time></trkpt><trkpt lat="45.66539716100851" lon="-0.05899522415299051"><ele>36.0</ele><time>2026-05-01T14:17:27Z</time></trkpt><trkpt lat="45.665276274303736" lon="-0.0591404394952675"><ele>37.0</ele><time>2026-05-01T14:17:28Z</time></trkpt><trkpt lat="45.66516813084447" lon="-0.05928255468506257"><ele>38.0</ele><time>2026-05-01T14:17:29Z</time></trkpt><trkpt lat="45.66507246681634" lon="-0.05940602177821625"><ele>39.0</ele><time>2026-05-01T14:17:30Z</time></trkpt><trkpt lat="45.66495462065334" lon="-0.059493006707298124"><ele>39.0</ele><time>2026-05-01T14:17:31Z</time></trkpt><trkpt lat="45.66481821718364" lon="-0.05955789779492857"><ele>39.0</ele><time>2026-05-01T14:17:32Z</time></trkpt><trkpt lat="45.664673571950864" lon="-0.0596097517058935"><ele>39.0</ele><time>2026-05-01T14:17:33Z</time></trkpt><trkpt lat="45.66452667419562" lon="-0.0596651324849299"><ele>39.0</ele><time>2026-05-01T14:17:34Z</time></trkpt><trkpt lat="45.66438093588314" lon="-0.059738951617938"><ele>40.0</ele><time>2026-05-01T14:17:35Z</time></trkpt><trkpt lat="45.66423152796634" lon="-0.05978838045709716"><ele>41.0</ele><time>2026-05-01T14:17:36Z</time></trkpt><trkpt lat="45.664072648761255" lon="-0.05984753051079227"><ele>42.0</ele><time>2026-05-01T14:17:37Z</time></trkpt><trkpt lat="45.663913956537776" lon="-0.05988887500430787"><ele>42.0</ele><time>2026-05-01T14:17:38Z</time></trkpt><trkpt lat="45.66374989571396" lon="-0.059933458268557796"><ele>42.0</ele><time>2026-05-01T14:17:39Z</time></trkpt><trkpt lat="45.663586990784026" lon="-0.05997913968273226"><ele>42.0</ele><time>2026-05-01T14:17:40Z</time></trkpt><trkpt lat="45.66342526119833" lon="-0.06001706056513565"><ele>43.666666666666664</ele><time>2026-05-01T14:17:41Z</time></trkpt><trkpt lat="45.66326169255845" lon="-0.06005446523129317"><ele>45.33333333333333</ele><time>2026-05-01T14:17:42Z</time></trkpt><trkpt lat="45.66311205361432" lon="-0.06008325039065192"><ele>47.0</ele><time>2026-05-01T14:17:43Z</time></trkpt><trkpt lat="45.662971120870914" lon="-0.060108796435835214"><ele>47.0</ele><time>2026-05-01T14:17:44Z</time></trkpt><trkpt lat="45.662835169097086" lon="-0.060128577387265736"><ele>47.0</ele><time>2026-05-01T14:17:45Z</time></trkpt><trkpt lat="45.662709008520316" lon="-0.06014718884652754"><ele>47.0</ele><time>2026-05-01T14:17:46Z</time></trkpt><trkpt lat="45.66260179977301" lon="-0.06015857586432227"><ele>47.0</ele><time>2026-05-01T14:17:47Z</time></trkpt><trkpt lat="45.66251742597713" lon="-0.06016586082870163"><ele>48.25</ele><time>2026-05-01T14:17:48Z</time></trkpt><trkpt lat="45.66243011926416" lon="-0.06019247156275552"><ele>49.5</ele><time>2026-05-01T14:17:50Z</time></trkpt><trkpt lat="45.66228164740031" lon="-0.06025040831514608"><ele>50.75</ele><time>2026-05-01T14:17:52Z</time></trkpt><trkpt lat="45.66217615875146" lon="-0.06029039823778315"><ele>52.0</ele><time>2026-05-01T14:17:53Z</time></trkpt><trkpt lat="45.66202496148591" lon="-0.060347710855264865"><ele>53.0</ele><time>2026-05-01T14:17:54Z</time></trkpt><trkpt lat="45.66187096081597" lon="-0.06051749467261925"><ele>54.0</ele><time>2026-05-01T14:17:55Z</time></trkpt><trkpt lat="45.66171092905122" lon="-0.0606122406689168"><ele>55.0</ele><time>2026-05-01T14:17:56Z</time></trkpt><trkpt lat="45.661580401251484" lon="-0.060700904567841094"><ele>55.0</ele><time>2026-05-01T14:17:57.001Z</time></trkpt><trkpt lat="45.66145411455856" lon="-0.06077970864152967"><ele>55.0</ele><time>2026-05-01T14:17:58.001Z</time></trkpt><trkpt lat="45.661320300722245" lon="-0.06088392621269513"><ele>55.0</ele><time>2026-05-01T14:17:59.001Z</time></trkpt><trkpt lat="45.661183897114284" lon="-0.06100527303528631"><ele>55.33333333333333</ele><time>2026-05-01T14:18:00.001Z</time></trkpt><trkpt lat="45.66104848757061" lon="-0.061108709242658626"><ele>55.66666666666667</ele><time>2026-05-01T14:18:01.001Z</time></trkpt><trkpt lat="45.660907731992694" lon="-0.06120682629572427"><ele>56.0</ele><time>2026-05-01T14:18:02.001Z</time></trkpt><trkpt lat="45.6607649117071" lon="-0.061304040369214025"><ele>56.0</ele><time>2026-05-01T14:18:03.001Z</time></trkpt><trkpt lat="45.660631946778565" lon="-0.061391519929878166"><ele>56.0</ele><time>2026-05-01T14:18:04.001Z</time></trkpt><trkpt lat="45.660490871849376" lon="-0.06149838941043733"><ele>56.0</ele><time>2026-05-01T14:18:05.001Z</time></trkpt><trkpt lat="45.660336938657935" lon="-0.06162525654443642"><ele>56.0</ele><time>2026-05-01T14:18:06.001Z</time></trkpt><trkpt lat="45.66019107076533" lon="-0.061714901978672146"><ele>56.0</ele><time>2026-05-01T14:18:07.001Z</time></trkpt><trkpt lat="45.66004811157509" lon="-0.06180022537706214"><ele>56.0</ele><time>2026-05-01T14:18:08.001Z</time></trkpt><trkpt lat="45.659902859581194" lon="-0.06189737022778578"><ele>56.0</ele><time>2026-05-01T14:18:09.001Z</time></trkpt><trkpt lat="45.6597509912946" lon="-0.06200580518476846"><ele>56.0</ele><time>2026-05-01T14:18:10.001Z</time></trkpt><trkpt lat="45.659583841234735" lon="-0.06212946279940439"><ele>56.0</ele><time>2026-05-01T14:18:11.001Z</time></trkpt><trkpt lat="45.6594400679446" lon="-0.062241073181231954"><ele>55.333333333333336</ele><time>2026-05-01T14:18:12.001Z</time></trkpt><trkpt lat="45.659286562160545" lon="-0.06234389998531424"><ele>54.66666666666667</ele><time>2026-05-01T14:18:13.001Z</time></trkpt><trkpt lat="45.6591338597395" lon="-0.062450006873642536"><ele>54.0</ele><time>2026-05-01T14:18:14.001Z</time></trkpt><trkpt lat="45.65898667871273" lon="-0.06254812013820842"><ele>53.66666666666667</ele><time>2026-05-01T14:18:15.001Z</time></trkpt><trkpt lat="45.65883311112217" lon="-0.06265163521999176"><ele>53.333333333333336</ele><time>2026-05-01T14:18:16.001Z</time></trkpt><trkpt lat="45.65866432581224" lon="-0.06277590074920593"><ele>53.0</ele><time>2026-05-01T14:18:17.001Z</time></trkpt><trkpt lat="45.65850487094878" lon="-0.06288731893139529"><ele>53.0</ele><time>2026-05-01T14:18:18.001Z</time></trkpt><trkpt lat="45.658371871086125" lon="-0.06298437101977125"><ele>53.0</ele><time>2026-05-01T14:18:19.001Z</time></trkpt><trkpt lat="45.65822208122067" lon="-0.06309453321715386"><ele>53.0</ele><time>2026-05-01T14:18:20.001Z</time></trkpt><trkpt lat="45.65807257593416" lon="-0.06320159203402698"><ele>52.75</ele><time>2026-05-01T14:18:21.001Z</time></trkpt><trkpt lat="45.65795750639353" lon="-0.06329082483341804"><ele>52.5</ele><time>2026-05-01T14:18:22.001Z</time></trkpt><trkpt lat="45.6578423840531" lon="-0.06337587611258406"><ele>52.25</ele><time>2026-05-01T14:18:23.001Z</time></trkpt><trkpt lat="45.65773229332779" lon="-0.06346559895790327"><ele>52.0</ele><time>2026-05-01T14:18:24.001Z</time></trkpt><trkpt lat="45.657625260915175" lon="-0.06357280579639739"><ele>51.75</ele><time>2026-05-01T14:18:25.001Z</time></trkpt><trkpt lat="45.65751770158959" lon="-0.06371080814672271"><ele>51.5</ele><time>2026-05-01T14:18:26.001Z</time></trkpt><trkpt lat="45.65741126328283" lon="-0.06386961422951036"><ele>51.25</ele><time>2026-05-01T14:18:27.001Z</time></trkpt><trkpt lat="45.657332707727065" lon="-0.06399690575921078"><ele>51.0</ele><time>2026-05-01T14:18:28.001Z</time></trkpt><trkpt lat="45.65728638921268" lon="-0.06409210164579734"><ele>50.33333333333333</ele><time>2026-05-01T14:18:29.001Z</time></trkpt><trkpt lat="45.65723001274109" lon="-0.0642046585162822"><ele>49.666666666666664</ele><time>2026-05-01T14:18:31.001Z</time></trkpt><trkpt lat="45.657174033600725" lon="-0.06425431798973259"><ele>49.0</ele><time>2026-05-01T14:18:34.001Z</time></trkpt><trkpt lat="45.65685236469371" lon="-0.06399002072814991"><ele>48.0</ele><time>2026-05-01T14:18:36.001Z</time></trkpt><trkpt lat="45.656716718416256" lon="-0.06388904070134009"><ele>47.0</ele><time>2026-05-01T14:18:37.001Z</time></trkpt><trkpt lat="45.65660297812771" lon="-0.06377983416832486"><ele>46.0</ele><time>2026-05-01T14:18:38.001Z</time></trkpt><trkpt lat="45.656505608227555" lon="-0.06366337346748033"><ele>45.0</ele><time>2026-05-01T14:18:39.001Z</time></trkpt><trkpt lat="45.656426999604896" lon="-0.06353787999689327"><ele>45.0</ele><time>2026-05-01T14:18:40.001Z</time></trkpt><trkpt lat="45.65635788671447" lon="-0.06339953989542323"><ele>45.0</ele><time>2026-05-01T14:18:41.001Z</time></trkpt><trkpt lat="45.65629244696667" lon="-0.06324589559350599"><ele>45.0</ele><time>2026-05-01T14:18:42.001Z</time></trkpt><trkpt lat="45.65623136241269" lon="-0.06308327974517726"><ele>45.0</ele><time>2026-05-01T14:18:43.001Z</time></trkpt><trkpt lat="45.656172595207934" lon="-0.06288626011151975"><ele>45.0</ele><time>2026-05-01T14:18:44.001Z</time></trkpt><trkpt lat="45.656107434902104" lon="-0.06265746720856613"><ele>45.0</ele><time>2026-05-01T14:18:45.001Z</time></trkpt><trkpt lat="45.6560528109474" lon="-0.06246892428135633"><ele>45.0</ele><time>2026-05-01T14:18:46.001Z</time></trkpt><trkpt lat="45.655988403580864" lon="-0.06229962957280925"><ele>45.0</ele><time>2026-05-01T14:18:47.001Z</time></trkpt><trkpt lat="45.65591995725428" lon="-0.06213306603214999"><ele>45.0</ele><time>2026-05-01T14:18:48.001Z</time></trkpt><trkpt lat="45.65584276233771" lon="-0.06197154813784933"><ele>45.0</ele><time>2026-05-01T14:18:49.001Z</time></trkpt><trkpt lat="45.65576180781795" lon="-0.06184101050464536"><ele>45.0</ele><time>2026-05-01T14:18:50.001Z</time></trkpt><trkpt lat="45.65566142277738" lon="-0.061705539658832555"><ele>45.0</ele><time>2026-05-01T14:18:51.001Z</time></trkpt><trkpt lat="45.655558131025565" lon="-0.06157165890992767"><ele>45.0</ele><time>2026-05-01T14:18:52.001Z</time></trkpt><trkpt lat="45.655449509128786" lon="-0.06143532219890422"><ele>45.0</ele><time>2026-05-01T14:18:53.001Z</time></trkpt><trkpt lat="45.655342397162954" lon="-0.061314970506540944"><ele>45.0</ele><time>2026-05-01T14:18:54.001Z</time></trkpt><trkpt lat="45.655233563024524" lon="-0.0611661455897735"><ele>44.5</ele><time>2026-05-01T14:18:55.001Z</time></trkpt><trkpt lat="45.65512553327362" lon="-0.061021570956871204"><ele>44.0</ele><time>2026-05-01T14:18:56.001Z</time></trkpt><trkpt lat="45.65501926152123" lon="-0.06088024187528856"><ele>43.5</ele><time>2026-05-01T14:18:57.001Z</time></trkpt><trkpt lat="45.6549289846072" lon="-0.0607428696959468"><ele>43.0</ele><time>2026-05-01T14:18:58.001Z</time></trkpt><trkpt lat="45.65482323374194" lon="-0.060600786079844406"><ele>43.0</ele><time>2026-05-01T14:18:59.001Z</time></trkpt><trkpt lat="45.65471744677598" lon="-0.0604612587196625"><ele>43.0</ele><time>2026-05-01T14:19:00.001Z</time></trkpt><trkpt lat="45.654614859318585" lon="-0.0603188007489549"><ele>43.0</ele><time>2026-05-01T14:19:01.001Z</time></trkpt><trkpt lat="45.65450711758077" lon="-0.06019357876075389"><ele>43.0</ele><time>2026-05-01T14:19:02.001Z</time></trkpt><trkpt lat="45.65438914142655" lon="-0.06006466620205739"><ele>42.75</ele><time>2026-05-01T14:19:03.001Z</time></trkpt><trkpt lat="45.654273813152614" lon="-0.05991884537723092"><ele>42.5</ele><time>2026-05-01T14:19:04.001Z</time></trkpt><trkpt lat="45.65416671159561" lon="-0.05980098276728768"><ele>42.25</ele><time>2026-05-01T14:19:05.001Z</time></trkpt><trkpt lat="45.65406068277617" lon="-0.05971386649781109"><ele>42.0</ele><time>2026-05-01T14:19:06.001Z</time></trkpt><trkpt lat="45.65396608748074" lon="-0.05963258632330447"><ele>42.0</ele><time>2026-05-01T14:19:07.001Z</time></trkpt><trkpt lat="45.65389141850725" lon="-0.059567894115001394"><ele>42.0</ele><time>2026-05-01T14:19:08.001Z</time></trkpt><trkpt lat="45.65380564288935" lon="-0.059495367083149814"><ele>42.0</ele><time>2026-05-01T14:19:10Z</time></trkpt><trkpt lat="45.65374015753834" lon="-0.05955762951909113"><ele>42.0</ele><time>2026-05-01T14:19:14Z</time></trkpt><trkpt lat="45.653713774041215" lon="-0.05966417394820686"><ele>42.0</ele><time>2026-05-01T14:19:15Z</time></trkpt><trkpt lat="45.65369680211429" lon="-0.059842887771166135"><ele>42.0</ele><time>2026-05-01T14:19:16Z</time></trkpt><trkpt lat="45.65366218282567" lon="-0.0600365356920163"><ele>42.0</ele><time>2026-05-01T14:19:17Z</time></trkpt><trkpt lat="45.6536164513843" lon="-0.06024987816253491"><ele>42.0</ele><time>2026-05-01T14:19:18Z</time></trkpt><trkpt lat="45.653551761871114" lon="-0.06049402874098362"><ele>41.666666666666664</ele><time>2026-05-01T14:19:19Z</time></trkpt><trkpt lat="45.65349871777917" lon="-0.06075984298523718"><ele>41.33333333333333</ele><time>2026-05-01T14:19:20Z</time></trkpt><trkpt lat="45.65343181417958" lon="-0.06107282982023394"><ele>41.0</ele><time>2026-05-01T14:19:21Z</time></trkpt><trkpt lat="45.65336863338287" lon="-0.06135735801883216"><ele>40.666666666666664</ele><time>2026-05-01T14:19:22Z</time></trkpt><trkpt lat="45.653307593346284" lon="-0.061602377889149594"><ele>40.333333333333336</ele><time>2026-05-01T14:19:23Z</time></trkpt><trkpt lat="45.65324522768273" lon="-0.06182132746666585"><ele>40.0</ele><time>2026-05-01T14:19:24Z</time></trkpt><trkpt lat="45.653172265425596" lon="-0.062029263664114015"><ele>40.0</ele><time>2026-05-01T14:19:25Z</time></trkpt><trkpt lat="45.653085870238776" lon="-0.062235481585354434"><ele>40.0</ele><time>2026-05-01T14:19:26Z</time></trkpt><trkpt lat="45.65300149977633" lon="-0.062411164845993565"><ele>40.0</ele><time>2026-05-01T14:19:27Z</time></trkpt><trkpt lat="45.65295375304202" lon="-0.06253601497025685"><ele>40.0</ele><time>2026-05-01T14:19:28Z</time></trkpt><trkpt lat="45.6529193546894" lon="-0.06261956876902319"><ele>40.0</ele><time>2026-05-01T14:19:29Z</time></trkpt><trkpt lat="45.6527649559286" lon="-0.06253043234713639"><ele>40.0</ele><time>2026-05-01T14:19:33Z</time></trkpt><trkpt lat="45.65270394695814" lon="-0.06242776030563697"><ele>40.0</ele><time>2026-05-01T14:19:34Z</time></trkpt><trkpt lat="45.6526349768745" lon="-0.06230994251120577"><ele>40.0</ele><time>2026-05-01T14:19:35Z</time></trkpt><trkpt lat="45.65256758302932" lon="-0.0622007393173969"><ele>40.0</ele><time>2026-05-01T14:19:36Z</time></trkpt><trkpt lat="45.652497818392305" lon="-0.06209276360465414"><ele>40.0</ele><time>2026-05-01T14:19:37Z</time></trkpt><trkpt lat="45.65242962160558" lon="-0.0619778872096322"><ele>40.0</ele><time>2026-05-01T14:19:38Z</time></trkpt><trkpt lat="45.65235952262884" lon="-0.061863303357261194"><ele>40.0</ele><time>2026-05-01T14:19:39Z</time></trkpt><trkpt lat="45.65229565072626" lon="-0.061765562230793346"><ele>40.0</ele><time>2026-05-01T14:19:40Z</time></trkpt><trkpt lat="45.65223986460434" lon="-0.06167469107272265"><ele>40.0</ele><time>2026-05-01T14:19:41Z</time></trkpt><trkpt lat="45.652178493837845" lon="-0.061600124408582105"><ele>40.0</ele><time>2026-05-01T14:19:42Z</time></trkpt><trkpt lat="45.652106459297606" lon="-0.061563082826324896"><ele>40.0</ele><time>2026-05-01T14:19:43Z</time></trkpt><trkpt lat="45.65202525312075" lon="-0.06156312202939299"><ele>40.0</ele><time>2026-05-01T14:19:44Z</time></trkpt><trkpt lat="45.65194007966185" lon="-0.06160162983664733"><ele>40.0</ele><time>2026-05-01T14:19:45Z</time></trkpt><trkpt lat="45.65185867037749" lon="-0.06167267598737362"><ele>40.0</ele><time>2026-05-01T14:19:46Z</time></trkpt><trkpt lat="45.65178251321507" lon="-0.06174914520045948"><ele>39.6</ele><time>2026-05-01T14:19:47Z</time></trkpt><trkpt lat="45.651698893491684" lon="-0.06182626378403536"><ele>39.2</ele><time>2026-05-01T14:19:48Z</time></trkpt><trkpt lat="45.651613597061136" lon="-0.06190237969622865"><ele>38.8</ele><time>2026-05-01T14:19:49Z</time></trkpt><trkpt lat="45.6515254175766" lon="-0.061978406502321795"><ele>38.4</ele><time>2026-05-01T14:19:50Z</time></trkpt><trkpt lat="45.651432207697724" lon="-0.06205145942580021"><ele>38.0</ele><time>2026-05-01T14:19:51Z</time></trkpt><trkpt lat="45.65133123830274" lon="-0.06210855737816291"><ele>38.0</ele><time>2026-05-01T14:19:52Z</time></trkpt><trkpt lat="45.65122886501017" lon="-0.062138073101690144"><ele>38.0</ele><time>2026-05-01T14:19:53Z</time></trkpt><trkpt lat="45.65111666883992" lon="-0.06214775288123129"><ele>38.0</ele><time>2026-05-01T14:19:54Z</time></trkpt><trkpt lat="45.651005369860385" lon="-0.0621418923271151"><ele>38.0</ele><time>2026-05-01T14:19:55Z</time></trkpt><trkpt lat="45.650903923183286" lon="-0.0621261556648792"><ele>38.0</ele><time>2026-05-01T14:19:56Z</time></trkpt><trkpt lat="45.650796953699924" lon="-0.06211577628189545"><ele>38.0</ele><time>2026-05-01T14:19:57Z</time></trkpt><trkpt lat="45.65068647842438" lon="-0.06211661577152733"><ele>38.0</ele><time>2026-05-01T14:19:58Z</time></trkpt><trkpt lat="45.650584440369805" lon="-0.062116085797961997"><ele>38.0</ele><time>2026-05-01T14:19:59Z</time></trkpt><trkpt lat="45.650482452234094" lon="-0.0621111952774103"><ele>38.0</ele><time>2026-05-01T14:20:00Z</time></trkpt><trkpt lat="45.65037782987609" lon="-0.06210632769988949"><ele>38.0</ele><time>2026-05-01T14:20:01Z</time></trkpt><trkpt lat="45.65027565276984" lon="-0.062103029567312326"><ele>38.0</ele><time>2026-05-01T14:20:02Z</time></trkpt><trkpt lat="45.650174286700334" lon="-0.06210181075470547"><ele>38.0</ele><time>2026-05-01T14:20:03Z</time></trkpt><trkpt lat="45.65007026865862" lon="-0.0620974712064899"><ele>38.0</ele><time>2026-05-01T14:20:04Z</time></trkpt><trkpt lat="45.64997229768808" lon="-0.06208429032592419"><ele>38.0</ele><time>2026-05-01T14:20:05Z</time></trkpt><trkpt lat="45.64987186350575" lon="-0.06206608671604753"><ele>38.0</ele><time>2026-05-01T14:20:06Z</time></trkpt><trkpt lat="45.64977440201916" lon="-0.062042194720725176"><ele>38.0</ele><time>2026-05-01T14:20:07Z</time></trkpt><trkpt lat="45.64967306412106" lon="-0.06202397741210595"><ele>38.0</ele><time>2026-05-01T14:20:08Z</time></trkpt><trkpt lat="45.649571616802156" lon="-0.0620098715848167"><ele>38.0</ele><time>2026-05-01T14:20:09Z</time></trkpt><trkpt lat="45.64947051999419" lon="-0.06198912050213234"><ele>38.0</ele><time>2026-05-01T14:20:10Z</time></trkpt><trkpt lat="45.649366802048405" lon="-0.06196062589028855"><ele>38.0</ele><time>2026-05-01T14:20:11Z</time></trkpt><trkpt lat="45.64926558139741" lon="-0.0619416799393586"><ele>37.199999999999996</ele><time>2026-05-01T14:20:12Z</time></trkpt><trkpt lat="45.649164492813945" lon="-0.061923793332776256"><ele>36.4</ele><time>2026-05-01T14:20:13Z</time></trkpt><trkpt lat="45.6490647588775" lon="-0.06190833913688191"><ele>35.599999999999994</ele><time>2026-05-01T14:20:14Z</time></trkpt><trkpt lat="45.648964141865356" lon="-0.061905426936934814"><ele>34.8</ele><time>2026-05-01T14:20:15.001Z</time></trkpt><trkpt lat="45.64886747158485" lon="-0.061915704705727034"><ele>34.0</ele><time>2026-05-01T14:20:16.001Z</time></trkpt><trkpt lat="45.648764577150985" lon="-0.06192938544295402"><ele>34.0</ele><time>2026-05-01T14:20:17.001Z</time></trkpt><trkpt lat="45.64866637680829" lon="-0.061955508603665964"><ele>34.0</ele><time>2026-05-01T14:20:18.001Z</time></trkpt><trkpt lat="45.64856566630667" lon="-0.061985111013689594"><ele>34.0</ele><time>2026-05-01T14:20:19.001Z</time></trkpt><trkpt lat="45.64846773051217" lon="-0.06200748524971125"><ele>34.0</ele><time>2026-05-01T14:20:20.001Z</time></trkpt><trkpt lat="45.64836461930908" lon="-0.06203367126069143"><ele>34.0</ele><time>2026-05-01T14:20:21.001Z</time></trkpt><trkpt lat="45.64826888484778" lon="-0.062057323545981355"><ele>33.8</ele><time>2026-05-01T14:20:22.001Z</time></trkpt><trkpt lat="45.64817839359668" lon="-0.06207291012820641"><ele>33.599999999999994</ele><time>2026-05-01T14:20:23.001Z</time></trkpt><trkpt lat="45.648094380510315" lon="-0.06208449679905484"><ele>33.4</ele><time>2026-05-01T14:20:24.001Z</time></trkpt><trkpt lat="45.64800646916137" lon="-0.062089744201246015"><ele>33.199999999999996</ele><time>2026-05-01T14:20:25.001Z</time></trkpt><trkpt lat="45.64790926939417" lon="-0.062089029393476595"><ele>33.0</ele><time>2026-05-01T14:20:26.001Z</time></trkpt><trkpt lat="45.647809555190754" lon="-0.062078547352281487"><ele>33.199999999999996</ele><time>2026-05-01T14:20:27.001Z</time></trkpt><trkpt lat="45.64771093725169" lon="-0.06206161199858322"><ele>33.4</ele><time>2026-05-01T14:20:28.001Z</time></trkpt><trkpt lat="45.647616800204254" lon="-0.06204191677155144"><ele>33.599999999999994</ele><time>2026-05-01T14:20:29.001Z</time></trkpt><trkpt lat="45.64752195088441" lon="-0.06202471507380052"><ele>33.8</ele><time>2026-05-01T14:20:30.001Z</time></trkpt><trkpt lat="45.647429187281354" lon="-0.062007375765631784"><ele>34.0</ele><time>2026-05-01T14:20:31.001Z</time></trkpt><trkpt lat="45.64733373459868" lon="-0.06199003856827293"><ele>34.0</ele><time>2026-05-01T14:20:32.001Z</time></trkpt><trkpt lat="45.64723825382886" lon="-0.06197732908329436"><ele>34.0</ele><time>2026-05-01T14:20:33.001Z</time></trkpt><trkpt lat="45.64714579815346" lon="-0.061964227021839534"><ele>34.0</ele><time>2026-05-01T14:20:34.001Z</time></trkpt><trkpt lat="45.64705251273302" lon="-0.06195144399824683"><ele>34.0</ele><time>2026-05-01T14:20:35.001Z</time></trkpt><trkpt lat="45.64695830911442" lon="-0.06194054923609577"><ele>34.0</ele><time>2026-05-01T14:20:36.001Z</time></trkpt><trkpt lat="45.64686103932746" lon="-0.06192627643818567"><ele>33.6</ele><time>2026-05-01T14:20:37.001Z</time></trkpt><trkpt lat="45.64676396017848" lon="-0.06191313094782337"><ele>33.2</ele><time>2026-05-01T14:20:38.001Z</time></trkpt><trkpt lat="45.64666967971331" lon="-0.061905843563655416"><ele>32.800000000000004</ele><time>2026-05-01T14:20:39.001Z</time></trkpt><trkpt lat="45.646571825886944" lon="-0.061901484731697494"><ele>32.4</ele><time>2026-05-01T14:20:40.001Z</time></trkpt><trkpt lat="45.64648014904292" lon="-0.06189821351651106"><ele>32.0</ele><time>2026-05-01T14:20:41.001Z</time></trkpt><trkpt lat="45.64638505487055" lon="-0.06190139841839427"><ele>32.0</ele><time>2026-05-01T14:20:42.001Z</time></trkpt><trkpt lat="45.64629076163568" lon="-0.061911200511791144"><ele>32.0</ele><time>2026-05-01T14:20:43.001Z</time></trkpt><trkpt lat="45.64619365866332" lon="-0.061926780197154786"><ele>32.0</ele><time>2026-05-01T14:20:44.001Z</time></trkpt><trkpt lat="45.646096582700956" lon="-0.06194375277038671"><ele>32.0</ele><time>2026-05-01T14:20:45.001Z</time></trkpt><trkpt lat="45.64599837562337" lon="-0.06196418750128842"><ele>32.0</ele><time>2026-05-01T14:20:46.001Z</time></trkpt><trkpt lat="45.645905503292816" lon="-0.06197857602856821"><ele>31.6</ele><time>2026-05-01T14:20:47.001Z</time></trkpt><trkpt lat="45.64581130403542" lon="-0.061996030660616146"><ele>31.200000000000003</ele><time>2026-05-01T14:20:48.001Z</time></trkpt><trkpt lat="45.645700763500976" lon="-0.06202418396467895"><ele>30.8</ele><time>2026-05-01T14:20:49.001Z</time></trkpt><trkpt lat="45.645610634283656" lon="-0.062037707738244054"><ele>30.4</ele><time>2026-05-01T14:20:50.001Z</time></trkpt><trkpt lat="45.64552368086397" lon="-0.06204733194744279"><ele>30.0</ele><time>2026-05-01T14:20:51.001Z</time></trkpt><trkpt lat="45.64544813802494" lon="-0.06205440454127606"><ele>30.0</ele><time>2026-05-01T14:20:52.001Z</time></trkpt><trkpt lat="45.64538400310934" lon="-0.06203457562723824"><ele>30.0</ele><time>2026-05-01T14:20:53.001Z</time></trkpt><trkpt lat="45.64525980875451" lon="-0.06196321382474079"><ele>30.0</ele><time>2026-05-01T14:20:55.001Z</time></trkpt><trkpt lat="45.64520492179055" lon="-0.06188049121523621"><ele>30.0</ele><time>2026-05-01T14:20:56.001Z</time></trkpt><trkpt lat="45.64513919703775" lon="-0.06178642945464313"><ele>30.0</ele><time>2026-05-01T14:20:57.001Z</time></trkpt><trkpt lat="45.64507721392063" lon="-0.06169772256205277"><ele>29.833333333333332</ele><time>2026-05-01T14:20:58.001Z</time></trkpt><trkpt lat="45.64501530987783" lon="-0.06161236216512853"><ele>29.666666666666664</ele><time>2026-05-01T14:20:59.001Z</time></trkpt><trkpt lat="45.6449508976162" lon="-0.06152672704311045"><ele>29.5</ele><time>2026-05-01T14:21:00.001Z</time></trkpt><trkpt lat="45.64488746050165" lon="-0.06144329856864389"><ele>29.333333333333332</ele><time>2026-05-01T14:21:01.001Z</time></trkpt><trkpt lat="45.6448303464138" lon="-0.06136796555036046"><ele>29.166666666666664</ele><time>2026-05-01T14:21:02.001Z</time></trkpt><trkpt lat="45.64477649078342" lon="-0.06129549071139312"><ele>29.0</ele><time>2026-05-01T14:21:03.001Z</time></trkpt><trkpt lat="45.64470239223868" lon="-0.06118740288852688"><ele>29.0</ele><time>2026-05-01T14:21:05.001Z</time></trkpt><trkpt lat="45.64463823803023" lon="-0.06115480024818237"><ele>29.0</ele><time>2026-05-01T14:21:09.001Z</time></trkpt><trkpt lat="45.64456289614055" lon="-0.06127593090950434"><ele>29.0</ele><time>2026-05-01T14:21:11.001Z</time></trkpt><trkpt lat="45.64453176723751" lon="-0.061382117623567316"><ele>29.0</ele><time>2026-05-01T14:21:12.001Z</time></trkpt><trkpt lat="45.644475839078275" lon="-0.06148131198029669"><ele>29.0</ele><time>2026-05-01T14:21:13.001Z</time></trkpt><trkpt lat="45.64440393331063" lon="-0.06162403880429888"><ele>28.0</ele><time>2026-05-01T14:21:14.001Z</time></trkpt><trkpt lat="45.64433563988509" lon="-0.06175206263630467"><ele>27.0</ele><time>2026-05-01T14:21:15.001Z</time></trkpt><trkpt lat="45.64426141717926" lon="-0.061891361074272594"><ele>26.0</ele><time>2026-05-01T14:21:16Z</time></trkpt><trkpt lat="45.644199481145044" lon="-0.06202035355215116"><ele>25.0</ele><time>2026-05-01T14:21:17Z</time></trkpt><trkpt lat="45.64414332059531" lon="-0.06215070534079758"><ele>25.0</ele><time>2026-05-01T14:21:18Z</time></trkpt><trkpt lat="45.64408764772635" lon="-0.06226264480584964"><ele>25.0</ele><time>2026-05-01T14:21:19Z</time></trkpt><trkpt lat="45.64403033632658" lon="-0.0623664132098524"><ele>25.0</ele><time>2026-05-01T14:21:20Z</time></trkpt><trkpt lat="45.643972948463194" lon="-0.06247345791978169"><ele>25.0</ele><time>2026-05-01T14:21:21Z</time></trkpt><trkpt lat="45.64391816632688" lon="-0.06257924203464174"><ele>25.0</ele><time>2026-05-01T14:21:22Z</time></trkpt><trkpt lat="45.64385979731482" lon="-0.0626961076135042"><ele>24.6</ele><time>2026-05-01T14:21:23Z</time></trkpt><trkpt lat="45.64379135285441" lon="-0.06276604829559794"><ele>24.2</ele><time>2026-05-01T14:21:24Z</time></trkpt><trkpt lat="45.64372675685069" lon="-0.06288653234001469"><ele>23.799999999999997</ele><time>2026-05-01T14:21:25Z</time></trkpt><trkpt lat="45.6436691034736" lon="-0.06300335196255095"><ele>23.4</ele><time>2026-05-01T14:21:26Z</time></trkpt><trkpt lat="45.64360744399179" lon="-0.06310712407167181"><ele>23.0</ele><time>2026-05-01T14:21:27Z</time></trkpt><trkpt lat="45.64354859738795" lon="-0.06320422883656676"><ele>22.5</ele><time>2026-05-01T14:21:28Z</time></trkpt><trkpt lat="45.643498352962034" lon="-0.06329535652470655"><ele>22.0</ele><time>2026-05-01T14:21:29Z</time></trkpt><trkpt lat="45.64343841222104" lon="-0.06337447463182803"><ele>21.5</ele><time>2026-05-01T14:21:30Z</time></trkpt><trkpt lat="45.64337726177136" lon="-0.06346501527413397"><ele>21.0</ele><time>2026-05-01T14:21:31Z</time></trkpt><trkpt lat="45.64331564657702" lon="-0.06355543659792108"><ele>20.5</ele><time>2026-05-01T14:21:32Z</time></trkpt><trkpt lat="45.64325178958137" lon="-0.06364528501973696"><ele>20.0</ele><time>2026-05-01T14:21:33Z</time></trkpt><trkpt lat="45.64319432387698" lon="-0.06373850781839692"><ele>20.0</ele><time>2026-05-01T14:21:34Z</time></trkpt><trkpt lat="45.64313959198351" lon="-0.06380842298063477"><ele>20.0</ele><time>2026-05-01T14:21:35Z</time></trkpt><trkpt lat="45.6430948541871" lon="-0.06387188357006468"><ele>20.0</ele><time>2026-05-01T14:21:36Z</time></trkpt><trkpt lat="45.64304995466369" lon="-0.06394855126556911"><ele>20.0</ele><time>2026-05-01T14:21:39Z</time></trkpt><trkpt lat="45.64293993405275" lon="-0.06384059757858146"><ele>20.0</ele><time>2026-05-01T14:21:44Z</time></trkpt><trkpt lat="45.642891583348195" lon="-0.06376166290122438"><ele>20.0</ele><time>2026-05-01T14:21:45Z</time></trkpt><trkpt lat="45.642847413015744" lon="-0.06368955381851005"><ele>20.25</ele><time>2026-05-01T14:21:46Z</time></trkpt><trkpt lat="45.64277815221299" lon="-0.06354336951394068"><ele>20.5</ele><time>2026-05-01T14:21:48Z</time></trkpt><trkpt lat="45.642703902484314" lon="-0.06344682911934481"><ele>20.75</ele><time>2026-05-01T14:21:50Z</time></trkpt><trkpt lat="45.64254249711736" lon="-0.0636364073666176"><ele>21.0</ele><time>2026-05-01T14:21:53Z</time></trkpt><trkpt lat="45.64246843635928" lon="-0.06374391271181556"><ele>21.0</ele><time>2026-05-01T14:21:54Z</time></trkpt><trkpt lat="45.64241923848482" lon="-0.06380652401238644"><ele>21.0</ele><time>2026-05-01T14:21:55Z</time></trkpt><trkpt lat="45.64230718607429" lon="-0.06378317251094909"><ele>21.0</ele><time>2026-05-01T14:21:57Z</time></trkpt><trkpt lat="45.64226206123207" lon="-0.06370135990551674"><ele>21.0</ele><time>2026-05-01T14:21:58Z</time></trkpt><trkpt lat="45.64222445130252" lon="-0.06361051048826936"><ele>21.0</ele><time>2026-05-01T14:21:59Z</time></trkpt><trkpt lat="45.642163160596176" lon="-0.06347555239163348"><ele>21.0</ele><time>2026-05-01T14:22:01Z</time></trkpt><trkpt lat="45.64210510502505" lon="-0.06334486602421695"><ele>21.0</ele><time>2026-05-01T14:22:03Z</time></trkpt><trkpt lat="45.642050426041905" lon="-0.06323835699079687"><ele>21.0</ele><time>2026-05-01T14:22:05Z</time></trkpt><trkpt lat="45.641977778074846" lon="-0.06309272402925012"><ele>21.0</ele><time>2026-05-01T14:22:07Z</time></trkpt><trkpt lat="45.64193483135867" lon="-0.06300893805971076"><ele>21.0</ele><time>2026-05-01T14:22:08Z</time></trkpt><trkpt lat="45.641878775049314" lon="-0.06290299774718104"><ele>21.0</ele><time>2026-05-01T14:22:09Z</time></trkpt><trkpt lat="45.64182790868563" lon="-0.06278517863451503"><ele>20.8</ele><time>2026-05-01T14:22:10Z</time></trkpt><trkpt lat="45.641780090902536" lon="-0.06267054291344856"><ele>20.6</ele><time>2026-05-01T14:22:11Z</time></trkpt><trkpt lat="45.64171189786788" lon="-0.06253663256532056"><ele>20.4</ele><time>2026-05-01T14:22:12Z</time></trkpt><trkpt lat="45.64164261502362" lon="-0.062404671813819576"><ele>20.2</ele><time>2026-05-01T14:22:13Z</time></trkpt><trkpt lat="45.641574820888586" lon="-0.06226393369520797"><ele>20.0</ele><time>2026-05-01T14:22:14Z</time></trkpt><trkpt lat="45.64150714010228" lon="-0.06213024803596544"><ele>20.0</ele><time>2026-05-01T14:22:15Z</time></trkpt><trkpt lat="45.64143989570703" lon="-0.06199918408190786"><ele>20.0</ele><time>2026-05-01T14:22:16Z</time></trkpt><trkpt lat="45.641375264620464" lon="-0.061873840504645734"><ele>20.0</ele><time>2026-05-01T14:22:17Z</time></trkpt><trkpt lat="45.64131897372728" lon="-0.06175661508032098"><ele>20.0</ele><time>2026-05-01T14:22:18Z</time></trkpt><trkpt lat="45.64126262693753" lon="-0.06163837752087113"><ele>20.0</ele><time>2026-05-01T14:22:19Z</time></trkpt><trkpt lat="45.64120543372099" lon="-0.06152453011857609"><ele>20.2</ele><time>2026-05-01T14:22:20Z</time></trkpt><trkpt lat="45.641147961418866" lon="-0.06141302274234284"><ele>20.4</ele><time>2026-05-01T14:22:21Z</time></trkpt><trkpt lat="45.641102837660405" lon="-0.06130701509488089"><ele>20.6</ele><time>2026-05-01T14:22:22Z</time></trkpt><trkpt lat="45.641052061758764" lon="-0.06120493757325594"><ele>20.8</ele><time>2026-05-01T14:22:23Z</time></trkpt><trkpt lat="45.64099582150402" lon="-0.0610985105226958"><ele>21.0</ele><time>2026-05-01T14:22:24Z</time></trkpt><trkpt lat="45.64094232273708" lon="-0.06098592000273382"><ele>21.0</ele><time>2026-05-01T14:22:25Z</time></trkpt><trkpt lat="45.640895495970575" lon="-0.06086421893807405"><ele>21.0</ele><time>2026-05-01T14:22:26.001Z</time></trkpt><trkpt lat="45.64085018007127" lon="-0.06077102230194363"><ele>21.0</ele><time>2026-05-01T14:22:27.001Z</time></trkpt><trkpt lat="45.64074845783483" lon="-0.06072947969538047"><ele>21.0</ele><time>2026-05-01T14:22:29.001Z</time></trkpt><trkpt lat="45.640691097802346" lon="-0.06078843915937483"><ele>21.0</ele><time>2026-05-01T14:22:30.001Z</time></trkpt><trkpt lat="45.64060910945812" lon="-0.060871502240978814"><ele>21.0</ele><time>2026-05-01T14:22:31.001Z</time></trkpt><trkpt lat="45.64052156943981" lon="-0.06098681284736695"><ele>21.0</ele><time>2026-05-01T14:22:32.001Z</time></trkpt><trkpt lat="45.64043181972127" lon="-0.061106638287227254"><ele>21.0</ele><time>2026-05-01T14:22:33.001Z</time></trkpt><trkpt lat="45.64033438177849" lon="-0.06120594819543595"><ele>21.0</ele><time>2026-05-01T14:22:34.001Z</time></trkpt><trkpt lat="45.64024340532108" lon="-0.06130174227898843"><ele>20.8</ele><time>2026-05-01T14:22:35.001Z</time></trkpt><trkpt lat="45.64016027687403" lon="-0.06142172090823695"><ele>20.6</ele><time>2026-05-01T14:22:36.001Z</time></trkpt><trkpt lat="45.64008663936577" lon="-0.06153181816791112"><ele>20.4</ele><time>2026-05-01T14:22:37.001Z</time></trkpt><trkpt lat="45.64003821868445" lon="-0.061659205905398175"><ele>20.2</ele><time>2026-05-01T14:22:38.001Z</time></trkpt><trkpt lat="45.640034081326704" lon="-0.06179082292802826"><ele>20.0</ele><time>2026-05-01T14:22:39.001Z</time></trkpt><trkpt lat="45.64003804497541" lon="-0.06192394642510042"><ele>20.0</ele><time>2026-05-01T14:22:40.001Z</time></trkpt><trkpt lat="45.640081950984595" lon="-0.062045387594076205"><ele>20.0</ele><time>2026-05-01T14:22:41.001Z</time></trkpt><trkpt lat="45.640078267222925" lon="-0.06215697121345621"><ele>20.0</ele><time>2026-05-01T14:22:42.001Z</time></trkpt><trkpt lat="45.640064675476935" lon="-0.06225580574532566"><ele>20.0</ele><time>2026-05-01T14:22:43.001Z</time></trkpt><trkpt lat="45.640017156433636" lon="-0.062368112561762654"><ele>20.0</ele><time>2026-05-01T14:22:44.001Z</time></trkpt><trkpt lat="45.63995984781459" lon="-0.0624729746153379"><ele>20.0</ele><time>2026-05-01T14:22:45.001Z</time></trkpt><trkpt lat="45.63989981567753" lon="-0.06256982585669853"><ele>20.0</ele><time>2026-05-01T14:22:46.001Z</time></trkpt><trkpt lat="45.639839260204305" lon="-0.06266756264964231"><ele>20.0</ele><time>2026-05-01T14:22:47.001Z</time></trkpt><trkpt lat="45.63978716519836" lon="-0.06276995711639016"><ele>20.0</ele><time>2026-05-01T14:22:48.001Z</time></trkpt><trkpt lat="45.63974863107054" lon="-0.0628668754448964"><ele>20.0</ele><time>2026-05-01T14:22:49.001Z</time></trkpt><trkpt lat="45.63965854991966" lon="-0.06299163877696279"><ele>20.0</ele><time>2026-05-01T14:22:51.001Z</time></trkpt><trkpt lat="45.639566509781346" lon="-0.06307587059133105"><ele>20.0</ele><time>2026-05-01T14:22:53.001Z</time></trkpt><trkpt lat="45.6394945934666" lon="-0.06299457346637886"><ele>20.0</ele><time>2026-05-01T14:22:54.001Z</time></trkpt><trkpt lat="45.639381187757" lon="-0.06294003859715931"><ele>20.0</ele><time>2026-05-01T14:22:56.001Z</time></trkpt><trkpt lat="45.63931967560993" lon="-0.06291184406083876"><ele>20.0</ele><time>2026-05-01T14:22:57.001Z</time></trkpt><trkpt lat="45.63919196279003" lon="-0.06287514477462769"><ele>20.0</ele><time>2026-05-01T14:22:59.001Z</time></trkpt><trkpt lat="45.63912794352117" lon="-0.06287639791424066"><ele>20.0</ele><time>2026-05-01T14:23:00.001Z</time></trkpt><trkpt lat="45.63903328622802" lon="-0.0628784889417512"><ele>20.0</ele><time>2026-05-01T14:23:02.001Z</time></trkpt><trkpt lat="45.63896676740504" lon="-0.06291390582504088"><ele>20.0</ele><time>2026-05-01T14:23:06.001Z</time></trkpt><trkpt lat="45.63900347688876" lon="-0.06315470724617427"><ele>20.0</ele><time>2026-05-01T14:23:09.001Z</time></trkpt><trkpt lat="45.63896998657834" lon="-0.0632365538762448"><ele>20.0</ele><time>2026-05-01T14:23:14.001Z</time></trkpt></trkseg><trkseg><trkpt lat="45.6388797318718" lon="-0.06314195750438195"><ele>20.0</ele><time>2026-05-01T14:40:13.998Z</time></trkpt><trkpt lat="45.638637370818884" lon="-0.06291402598304352"><ele>20.0</ele><time>2026-05-01T14:41:22.002Z</time></trkpt><trkpt lat="45.63850543040816" lon="-0.06291149855719667"><ele>20.0</ele><time>2026-05-01T14:41:23.002Z</time></trkpt><trkpt lat="45.63835390777838" lon="-0.06293103367928383"><ele>19.333333333333336</ele><time>2026-05-01T14:41:24.002Z</time></trkpt><trkpt lat="45.63819648468272" lon="-0.06295488377076866"><ele>18.666666666666668</ele><time>2026-05-01T14:41:25.002Z</time></trkpt><trkpt lat="45.63803903543463" lon="-0.06296698865211758"><ele>18.0</ele><time>2026-05-01T14:41:26.002Z</time></trkpt><trkpt lat="45.63787919768586" lon="-0.06296771647694994"><ele>17.666666666666668</ele><time>2026-05-01T14:41:27.002Z</time></trkpt><trkpt lat="45.637716397954364" lon="-0.06297288970053144"><ele>17.333333333333336</ele><time>2026-05-01T14:41:28.002Z</time></trkpt><trkpt lat="45.63754935777763" lon="-0.06300371635589637"><ele>17.0</ele><time>2026-05-01T14:41:29.002Z</time></trkpt><trkpt lat="45.637375945987294" lon="-0.06300728210459107"><ele>17.0</ele><time>2026-05-01T14:41:30.002Z</time></trkpt><trkpt lat="45.63720413355643" lon="-0.06299017622083375"><ele>17.0</ele><time>2026-05-01T14:41:31.002Z</time></trkpt><trkpt lat="45.63703143987771" lon="-0.06298417083102789"><ele>17.0</ele><time>2026-05-01T14:41:32.002Z</time></trkpt><trkpt lat="45.636878191217846" lon="-0.06296563567695701"><ele>17.25</ele><time>2026-05-01T14:41:33.002Z</time></trkpt><trkpt lat="45.636733123280955" lon="-0.06293867876260734"><ele>17.5</ele><time>2026-05-01T14:41:34.002Z</time></trkpt><trkpt lat="45.636610342498564" lon="-0.0629054690807077"><ele>17.75</ele><time>2026-05-01T14:41:35.002Z</time></trkpt><trkpt lat="45.636491073004706" lon="-0.06288722256732925"><ele>18.0</ele><time>2026-05-01T14:41:36.002Z</time></trkpt><trkpt lat="45.636369728712594" lon="-0.06287698426473078"><ele>18.0</ele><time>2026-05-01T14:41:37.002Z</time></trkpt><trkpt lat="45.63624904123896" lon="-0.0628508816461331"><ele>18.0</ele><time>2026-05-01T14:41:38.002Z</time></trkpt><trkpt lat="45.6361384330816" lon="-0.06281883768873125"><ele>18.0</ele><time>2026-05-01T14:41:39.002Z</time></trkpt><trkpt lat="45.636044769778444" lon="-0.06279392045903946"><ele>18.0</ele><time>2026-05-01T14:41:40.002Z</time></trkpt><trkpt lat="45.63595867640366" lon="-0.06277574655647922"><ele>18.0</ele><time>2026-05-01T14:41:41.002Z</time></trkpt><trkpt lat="45.63587191096069" lon="-0.062752495466627"><ele>18.2</ele><time>2026-05-01T14:41:42.002Z</time></trkpt><trkpt lat="45.635783466404604" lon="-0.06273438578710705"><ele>18.4</ele><time>2026-05-01T14:41:43.002Z</time></trkpt><trkpt lat="45.635719972936556" lon="-0.06272023556287205"><ele>18.599999999999998</ele><time>2026-05-01T14:41:45.002Z</time></trkpt><trkpt lat="45.63565272828245" lon="-0.06270776355124481"><ele>18.8</ele><time>2026-05-01T14:41:46.002Z</time></trkpt><trkpt lat="45.63553792884903" lon="-0.06269868841102742"><ele>19.0</ele><time>2026-05-01T14:41:48.003Z</time></trkpt><trkpt lat="45.635418024362274" lon="-0.06264929760042987"><ele>19.0</ele><time>2026-05-01T14:41:50.003Z</time></trkpt><trkpt lat="45.63533263837433" lon="-0.06262687349961978"><ele>19.0</ele><time>2026-05-01T14:41:51.003Z</time></trkpt><trkpt lat="45.63524382178332" lon="-0.06258845972326581"><ele>19.0</ele><time>2026-05-01T14:41:52.003Z</time></trkpt><trkpt lat="45.63517207285079" lon="-0.06254065012065681"><ele>19.0</ele><time>2026-05-01T14:41:53.003Z</time></trkpt><trkpt lat="45.635110175481366" lon="-0.06248038552123921"><ele>19.0</ele><time>2026-05-01T14:41:54.003Z</time></trkpt><trkpt lat="45.63506928193062" lon="-0.062396364097170504"><ele>19.0</ele><time>2026-05-01T14:41:55.003Z</time></trkpt><trkpt lat="45.63503276906502" lon="-0.06231194795286331"><ele>19.166666666666664</ele><time>2026-05-01T14:41:56.003Z</time></trkpt><trkpt lat="45.63498780471032" lon="-0.062148425136213645"><ele>19.333333333333332</ele><time>2026-05-01T14:41:58.003Z</time></trkpt><trkpt lat="45.63495838048906" lon="-0.062064789152360585"><ele>19.5</ele><time>2026-05-01T14:41:59.003Z</time></trkpt><trkpt lat="45.63495204512727" lon="-0.06195174685288227"><ele>19.666666666666668</ele><time>2026-05-01T14:42:00.003Z</time></trkpt><trkpt lat="45.634931209775544" lon="-0.06183250236030565"><ele>19.833333333333336</ele><time>2026-05-01T14:42:01.003Z</time></trkpt><trkpt lat="45.6349039561882" lon="-0.06174057039941405"><ele>20.0</ele><time>2026-05-01T14:42:02.003Z</time></trkpt><trkpt lat="45.63484210029181" lon="-0.06166746660569419"><ele>20.0</ele><time>2026-05-01T14:42:03.003Z</time></trkpt><trkpt lat="45.634761124693135" lon="-0.06163761172038363"><ele>20.0</ele><time>2026-05-01T14:42:04.003Z</time></trkpt><trkpt lat="45.634659622552824" lon="-0.06170186822807314"><ele>20.0</ele><time>2026-05-01T14:42:05.003Z</time></trkpt><trkpt lat="45.63453600410667" lon="-0.06177368113018675"><ele>20.0</ele><time>2026-05-01T14:42:06.003Z</time></trkpt><trkpt lat="45.634378489571304" lon="-0.06185703444215759"><ele>19.25</ele><time>2026-05-01T14:42:07.003Z</time></trkpt><trkpt lat="45.63424915690992" lon="-0.061973476588310275"><ele>18.5</ele><time>2026-05-01T14:42:08.003Z</time></trkpt><trkpt lat="45.63414059865489" lon="-0.06208796921109962"><ele>17.75</ele><time>2026-05-01T14:42:09.003Z</time></trkpt><trkpt lat="45.63404331954879" lon="-0.0622079510954486"><ele>17.0</ele><time>2026-05-01T14:42:10.003Z</time></trkpt><trkpt lat="45.633956052007626" lon="-0.06233065322516908"><ele>17.5</ele><time>2026-05-01T14:42:11.003Z</time></trkpt><trkpt lat="45.63388198459122" lon="-0.06245578022722403"><ele>18.0</ele><time>2026-05-01T14:42:12.003Z</time></trkpt><trkpt lat="45.6338109410517" lon="-0.0625919347542934"><ele>18.5</ele><time>2026-05-01T14:42:13.003Z</time></trkpt><trkpt lat="45.63374459192398" lon="-0.06273290788577562"><ele>19.0</ele><time>2026-05-01T14:42:14.003Z</time></trkpt><trkpt lat="45.633676951082705" lon="-0.06287301699668385"><ele>18.75</ele><time>2026-05-01T14:42:15.003Z</time></trkpt><trkpt lat="45.63360070637185" lon="-0.06301777722498333"><ele>18.5</ele><time>2026-05-01T14:42:16.003Z</time></trkpt><trkpt lat="45.633522170744506" lon="-0.06316184047785532"><ele>18.25</ele><time>2026-05-01T14:42:17.003Z</time></trkpt><trkpt lat="45.63344318843735" lon="-0.0633126790441039"><ele>18.0</ele><time>2026-05-01T14:42:18.003Z</time></trkpt><trkpt lat="45.63335931799482" lon="-0.06346780047206921"><ele>18.0</ele><time>2026-05-01T14:42:19.001Z</time></trkpt><trkpt lat="45.633282290461906" lon="-0.06361650476545051"><ele>18.0</ele><time>2026-05-01T14:42:20.001Z</time></trkpt><trkpt lat="45.633202024710464" lon="-0.06377533282261084"><ele>18.0</ele><time>2026-05-01T14:42:21.001Z</time></trkpt><trkpt lat="45.63311897697566" lon="-0.06393013547413146"><ele>18.0</ele><time>2026-05-01T14:42:22.001Z</time></trkpt><trkpt lat="45.6330342247318" lon="-0.06408218720308002"><ele>18.0</ele><time>2026-05-01T14:42:23.001Z</time></trkpt><trkpt lat="45.632954088900945" lon="-0.06423033464449047"><ele>18.0</ele><time>2026-05-01T14:42:24.001Z</time></trkpt><trkpt lat="45.63288681700597" lon="-0.06436084018819017"><ele>18.0</ele><time>2026-05-01T14:42:25Z</time></trkpt><trkpt lat="45.632819889920405" lon="-0.06448708599459325"><ele>18.0</ele><time>2026-05-01T14:42:26Z</time></trkpt><trkpt lat="45.63275715005171" lon="-0.06462630091236117"><ele>18.0</ele><time>2026-05-01T14:42:27Z</time></trkpt><trkpt lat="45.632706142928576" lon="-0.06479281378758002"><ele>18.0</ele><time>2026-05-01T14:42:28Z</time></trkpt><trkpt lat="45.63266054394757" lon="-0.06497302907974645"><ele>18.0</ele><time>2026-05-01T14:42:29Z</time></trkpt><trkpt lat="45.63261056017971" lon="-0.06516198111332339"><ele>18.0</ele><time>2026-05-01T14:42:30Z</time></trkpt><trkpt lat="45.632556996341705" lon="-0.06534989316613013"><ele>18.0</ele><time>2026-05-01T14:42:31Z</time></trkpt><trkpt lat="45.632504316729396" lon="-0.06553560928302955"><ele>18.0</ele><time>2026-05-01T14:42:32Z</time></trkpt><trkpt lat="45.63245277297221" lon="-0.06571551438566997"><ele>18.0</ele><time>2026-05-01T14:42:33Z</time></trkpt><trkpt lat="45.632403881416856" lon="-0.06589355505168572"><ele>18.0</ele><time>2026-05-01T14:42:34Z</time></trkpt><trkpt lat="45.63235455671521" lon="-0.06606428805007725"><ele>18.0</ele><time>2026-05-01T14:42:35Z</time></trkpt><trkpt lat="45.632305692772455" lon="-0.06623326483219523"><ele>18.0</ele><time>2026-05-01T14:42:36Z</time></trkpt><trkpt lat="45.63225619714813" lon="-0.0664066653211101"><ele>18.0</ele><time>2026-05-01T14:42:37Z</time></trkpt><trkpt lat="45.632207096171186" lon="-0.06657025263201569"><ele>18.0</ele><time>2026-05-01T14:42:38Z</time></trkpt><trkpt lat="45.63215747272844" lon="-0.06673166291626395"><ele>17.5</ele><time>2026-05-01T14:42:39Z</time></trkpt><trkpt lat="45.632109800854025" lon="-0.06689056072251455"><ele>17.0</ele><time>2026-05-01T14:42:40Z</time></trkpt><trkpt lat="45.63206524075526" lon="-0.06705528632389755"><ele>16.5</ele><time>2026-05-01T14:42:41Z</time></trkpt><trkpt lat="45.63202204841945" lon="-0.06721409461588887"><ele>16.0</ele><time>2026-05-01T14:42:42Z</time></trkpt><trkpt lat="45.63197719309495" lon="-0.06737111900932294"><ele>16.25</ele><time>2026-05-01T14:42:43Z</time></trkpt><trkpt lat="45.63193065765654" lon="-0.06752757106751561"><ele>16.5</ele><time>2026-05-01T14:42:44Z</time></trkpt><trkpt lat="45.631884380725474" lon="-0.06768596977986092"><ele>16.75</ele><time>2026-05-01T14:42:45.001Z</time></trkpt><trkpt lat="45.63184031983835" lon="-0.06784253552126465"><ele>17.0</ele><time>2026-05-01T14:42:46.001Z</time></trkpt><trkpt lat="45.631793779219294" lon="-0.06800079001750627"><ele>17.0</ele><time>2026-05-01T14:42:47.001Z</time></trkpt><trkpt lat="45.631743440536034" lon="-0.06816117717842539"><ele>17.0</ele><time>2026-05-01T14:42:48.001Z</time></trkpt><trkpt lat="45.63170153697529" lon="-0.06832352931413868"><ele>17.0</ele><time>2026-05-01T14:42:49.001Z</time></trkpt><trkpt lat="45.631659518640106" lon="-0.06848343840733007"><ele>17.0</ele><time>2026-05-01T14:42:50.001Z</time></trkpt><trkpt lat="45.63162293768003" lon="-0.06863912060007155"><ele>17.0</ele><time>2026-05-01T14:42:51.001Z</time></trkpt><trkpt lat="45.63159421862376" lon="-0.06878236551575302"><ele>17.0</ele><time>2026-05-01T14:42:52.001Z</time></trkpt><trkpt lat="45.631573118788204" lon="-0.06892717428170268"><ele>17.0</ele><time>2026-05-01T14:42:53.001Z</time></trkpt><trkpt lat="45.631557183654955" lon="-0.06906397758895069"><ele>17.0</ele><time>2026-05-01T14:42:54.001Z</time></trkpt><trkpt lat="45.631541417972265" lon="-0.06916987390860417"><ele>17.0</ele><time>2026-05-01T14:42:55.001Z</time></trkpt><trkpt lat="45.63151870598938" lon="-0.06927190002186641"><ele>17.0</ele><time>2026-05-01T14:42:57.001Z</time></trkpt><trkpt lat="45.63135443652492" lon="-0.06920771673888933"><ele>17.0</ele><time>2026-05-01T14:42:59.001Z</time></trkpt><trkpt lat="45.631282821886025" lon="-0.06916628087192535"><ele>17.0</ele><time>2026-05-01T14:43:00.001Z</time></trkpt><trkpt lat="45.63119231489533" lon="-0.06910768819324423"><ele>17.0</ele><time>2026-05-01T14:43:01.001Z</time></trkpt><trkpt lat="45.63111335352117" lon="-0.06908843933797633"><ele>17.0</ele><time>2026-05-01T14:43:02.001Z</time></trkpt><trkpt lat="45.631017591137876" lon="-0.06904956295790676"><ele>17.4</ele><time>2026-05-01T14:43:03.001Z</time></trkpt><trkpt lat="45.63092087703167" lon="-0.06897838997420244"><ele>17.799999999999997</ele><time>2026-05-01T14:43:04.001Z</time></trkpt><trkpt lat="45.630838692673755" lon="-0.0688761637255267"><ele>18.2</ele><time>2026-05-01T14:43:05.001Z</time></trkpt><trkpt lat="45.630756252647444" lon="-0.06878792657343405"><ele>18.599999999999998</ele><time>2026-05-01T14:43:06.001Z</time></trkpt><trkpt lat="45.6306680657786" lon="-0.06871479486018774"><ele>19.0</ele><time>2026-05-01T14:43:07.001Z</time></trkpt><trkpt lat="45.63061334928511" lon="-0.06859746920157103"><ele>19.0</ele><time>2026-05-01T14:43:08.001Z</time></trkpt><trkpt lat="45.63055444130685" lon="-0.06850977048880612"><ele>19.0</ele><time>2026-05-01T14:43:09.001Z</time></trkpt><trkpt lat="45.630512544047036" lon="-0.06841615279796082"><ele>19.0</ele><time>2026-05-01T14:43:10.001Z</time></trkpt><trkpt lat="45.63046326090961" lon="-0.06833355723362664"><ele>19.0</ele><time>2026-05-01T14:43:11.001Z</time></trkpt><trkpt lat="45.63042654700989" lon="-0.0682372964414481"><ele>19.0</ele><time>2026-05-01T14:43:12.001Z</time></trkpt><trkpt lat="45.63039567298766" lon="-0.06815634745590475"><ele>19.0</ele><time>2026-05-01T14:43:13.001Z</time></trkpt><trkpt lat="45.630361343583644" lon="-0.06807457498043597"><ele>19.0</ele><time>2026-05-01T14:43:14.001Z</time></trkpt><trkpt lat="45.630312363940384" lon="-0.06799918784810761"><ele>18.8</ele><time>2026-05-01T14:43:15.001Z</time></trkpt><trkpt lat="45.63023973837154" lon="-0.06795730712821296"><ele>18.599999999999998</ele><time>2026-05-01T14:43:16.001Z</time></trkpt><trkpt lat="45.63015140732029" lon="-0.06789906972118441"><ele>18.4</ele><time>2026-05-01T14:43:17.001Z</time></trkpt><trkpt lat="45.630038233806324" lon="-0.0678263018612424"><ele>18.2</ele><time>2026-05-01T14:43:18.001Z</time></trkpt><trkpt lat="45.62992400710567" lon="-0.06774504391062088"><ele>18.0</ele><time>2026-05-01T14:43:19.001Z</time></trkpt><trkpt lat="45.62980190641285" lon="-0.06766786706670591"><ele>18.0</ele><time>2026-05-01T14:43:20.001Z</time></trkpt><trkpt lat="45.62968731911196" lon="-0.06761562055422705"><ele>18.0</ele><time>2026-05-01T14:43:21.001Z</time></trkpt><trkpt lat="45.62959092652882" lon="-0.06756693504017547"><ele>18.0</ele><time>2026-05-01T14:43:22.001Z</time></trkpt><trkpt lat="45.629501507892655" lon="-0.0675366909120823"><ele>18.0</ele><time>2026-05-01T14:43:23.001Z</time></trkpt><trkpt lat="45.629414872464736" lon="-0.06752662020916994"><ele>18.0</ele><time>2026-05-01T14:43:24.001Z</time></trkpt><trkpt lat="45.62932446087215" lon="-0.06748885007642969"><ele>18.0</ele><time>2026-05-01T14:43:25.001Z</time></trkpt><trkpt lat="45.629238845936634" lon="-0.06748429678344288"><ele>18.0</ele><time>2026-05-01T14:43:26.001Z</time></trkpt><trkpt lat="45.6291532794794" lon="-0.06746323106897231"><ele>18.0</ele><time>2026-05-01T14:43:27.001Z</time></trkpt><trkpt lat="45.62906800450178" lon="-0.06744294190236294"><ele>18.0</ele><time>2026-05-01T14:43:28.001Z</time></trkpt><trkpt lat="45.62897802077649" lon="-0.0674149548878199"><ele>18.0</ele><time>2026-05-01T14:43:29.002Z</time></trkpt><trkpt lat="45.62888961963756" lon="-0.06738613621373811"><ele>18.0</ele><time>2026-05-01T14:43:30.002Z</time></trkpt><trkpt lat="45.628789735213815" lon="-0.06737813447241515"><ele>18.0</ele><time>2026-05-01T14:43:31.002Z</time></trkpt><trkpt lat="45.62867055889451" lon="-0.0673432838806257"><ele>18.0</ele><time>2026-05-01T14:43:32.002Z</time></trkpt><trkpt lat="45.62856467427173" lon="-0.06736398368019908"><ele>18.0</ele><time>2026-05-01T14:43:33.002Z</time></trkpt><trkpt lat="45.628475129933584" lon="-0.06743301757163668"><ele>18.0</ele><time>2026-05-01T14:43:34.002Z</time></trkpt><trkpt lat="45.628352374861116" lon="-0.06748371998002142"><ele>18.0</ele><time>2026-05-01T14:43:35.002Z</time></trkpt><trkpt lat="45.628206697106535" lon="-0.06759618728789654"><ele>18.0</ele><time>2026-05-01T14:43:36.002Z</time></trkpt><trkpt lat="45.62805254643562" lon="-0.0677033422040541"><ele>18.0</ele><time>2026-05-01T14:43:37.002Z</time></trkpt><trkpt lat="45.62790306552555" lon="-0.06777815471496036"><ele>17.666666666666668</ele><time>2026-05-01T14:43:38.002Z</time></trkpt><trkpt lat="45.62775840785416" lon="-0.06784241891661441"><ele>17.333333333333336</ele><time>2026-05-01T14:43:39.002Z</time></trkpt><trkpt lat="45.62761549170509" lon="-0.06790345081422035"><ele>17.0</ele><time>2026-05-01T14:43:40.002Z</time></trkpt><trkpt lat="45.62746442952161" lon="-0.06794723626986786"><ele>17.0</ele><time>2026-05-01T14:43:41.002Z</time></trkpt><trkpt lat="45.6273139603382" lon="-0.06800167633246514"><ele>17.0</ele><time>2026-05-01T14:43:42.002Z</time></trkpt><trkpt lat="45.62716347362127" lon="-0.06805989700858898"><ele>17.0</ele><time>2026-05-01T14:43:43.002Z</time></trkpt><trkpt lat="45.627008121896715" lon="-0.06811872307260985"><ele>17.25</ele><time>2026-05-01T14:43:44.002Z</time></trkpt><trkpt lat="45.626856684973525" lon="-0.0681759660492788"><ele>17.5</ele><time>2026-05-01T14:43:45.002Z</time></trkpt><trkpt lat="45.62671997108633" lon="-0.0682364648153563"><ele>17.75</ele><time>2026-05-01T14:43:46.002Z</time></trkpt><trkpt lat="45.62661047879697" lon="-0.06827843072715295"><ele>18.0</ele><time>2026-05-01T14:43:47.002Z</time></trkpt><trkpt lat="45.62651191513543" lon="-0.06830104147435628"><ele>18.2</ele><time>2026-05-01T14:43:48.002Z</time></trkpt><trkpt lat="45.62643754006017" lon="-0.06831578083889174"><ele>18.4</ele><time>2026-05-01T14:43:49.002Z</time></trkpt><trkpt lat="45.62636164658281" lon="-0.06834036086427006"><ele>18.599999999999998</ele><time>2026-05-01T14:43:51.002Z</time></trkpt><trkpt lat="45.62632966948647" lon="-0.06850432961928199"><ele>18.8</ele><time>2026-05-01T14:43:53.002Z</time></trkpt><trkpt lat="45.62629184239324" lon="-0.06869674168080112"><ele>19.0</ele><time>2026-05-01T14:43:54.002Z</time></trkpt><trkpt lat="45.62625773586682" lon="-0.06895038062235136"><ele>18.0</ele><time>2026-05-01T14:43:55.002Z</time></trkpt><trkpt lat="45.62621451289297" lon="-0.06923687814820996"><ele>17.0</ele><time>2026-05-01T14:43:56.002Z</time></trkpt><trkpt lat="45.6261592378477" lon="-0.06959220341524645"><ele>17.5</ele><time>2026-05-01T14:43:57.002Z</time></trkpt><trkpt lat="45.62610072812282" lon="-0.06998446067158795"><ele>18.0</ele><time>2026-05-01T14:43:58.002Z</time></trkpt><trkpt lat="45.62603829714933" lon="-0.07035187930359817"><ele>18.0</ele><time>2026-05-01T14:43:59.002Z</time></trkpt><trkpt lat="45.625993899552086" lon="-0.07064029202295515"><ele>18.0</ele><time>2026-05-01T14:44:00.002Z</time></trkpt><trkpt lat="45.62595378309384" lon="-0.07091300580971796"><ele>18.0</ele><time>2026-05-01T14:44:01.002Z</time></trkpt><trkpt lat="45.62591559977644" lon="-0.07115026253068304"><ele>17.75</ele><time>2026-05-01T14:44:02.002Z</time></trkpt><trkpt lat="45.62588056226231" lon="-0.07137905894515846"><ele>17.5</ele><time>2026-05-01T14:44:03.002Z</time></trkpt><trkpt lat="45.62585078726168" lon="-0.07157876747318791"><ele>17.25</ele><time>2026-05-01T14:44:04.002Z</time></trkpt><trkpt lat="45.62583328505351" lon="-0.07174988327973805"><ele>17.0</ele><time>2026-05-01T14:44:05.002Z</time></trkpt><trkpt lat="45.62579105898295" lon="-0.07195717479923305"><ele>17.0</ele><time>2026-05-01T14:44:06.002Z</time></trkpt><trkpt lat="45.62577362480593" lon="-0.07212638160254585"><ele>17.0</ele><time>2026-05-01T14:44:07.002Z</time></trkpt><trkpt lat="45.62575818226681" lon="-0.07228369281638476"><ele>17.0</ele><time>2026-05-01T14:44:08.002Z</time></trkpt><trkpt lat="45.62573958707072" lon="-0.07247337645037932"><ele>17.0</ele><time>2026-05-01T14:44:09.003Z</time></trkpt><trkpt lat="45.62573347152389" lon="-0.07265088509773204"><ele>17.0</ele><time>2026-05-01T14:44:10.003Z</time></trkpt><trkpt lat="45.62569175896003" lon="-0.07284848124085101"><ele>17.0</ele><time>2026-05-01T14:44:11.003Z</time></trkpt><trkpt lat="45.62567625542946" lon="-0.07297201865712241"><ele>17.0</ele><time>2026-05-01T14:44:12.003Z</time></trkpt><trkpt lat="45.62565677498445" lon="-0.07313006834522719"><ele>17.0</ele><time>2026-05-01T14:44:13.003Z</time></trkpt><trkpt lat="45.625644391361725" lon="-0.07329435962364439"><ele>17.4</ele><time>2026-05-01T14:44:14.003Z</time></trkpt><trkpt lat="45.625618788663246" lon="-0.0734331786513093"><ele>17.799999999999997</ele><time>2026-05-01T14:44:15.003Z</time></trkpt><trkpt lat="45.625602886258044" lon="-0.07355499791348022"><ele>18.2</ele><time>2026-05-01T14:44:16.003Z</time></trkpt><trkpt lat="45.625601768986186" lon="-0.07365351750323017"><ele>18.599999999999998</ele><time>2026-05-01T14:44:17.003Z</time></trkpt><trkpt lat="45.625597195378276" lon="-0.07378684492329936"><ele>19.0</ele><time>2026-05-01T14:44:19.003Z</time></trkpt><trkpt lat="45.62560624406996" lon="-0.07395479463157349"><ele>19.75</ele><time>2026-05-01T14:44:25.001Z</time></trkpt><trkpt lat="45.625609840828794" lon="-0.07410524859534122"><ele>20.5</ele><time>2026-05-01T14:44:26.001Z</time></trkpt><trkpt lat="45.62558879812335" lon="-0.07428443191210249"><ele>21.25</ele><time>2026-05-01T14:44:27.001Z</time></trkpt><trkpt lat="45.62554743897865" lon="-0.07449762944688304"><ele>22.0</ele><time>2026-05-01T14:44:28.001Z</time></trkpt><trkpt lat="45.625499034383495" lon="-0.07474596192134425"><ele>22.0</ele><time>2026-05-01T14:44:29.001Z</time></trkpt><trkpt lat="45.6254525345335" lon="-0.07502557855635746"><ele>22.0</ele><time>2026-05-01T14:44:30.001Z</time></trkpt><trkpt lat="45.62541146538893" lon="-0.07526300762088547"><ele>22.0</ele><time>2026-05-01T14:44:31.001Z</time></trkpt><trkpt lat="45.62537900261662" lon="-0.07547421803581587"><ele>22.0</ele><time>2026-05-01T14:44:32.001Z</time></trkpt><trkpt lat="45.62535818410518" lon="-0.07565814763423659"><ele>22.0</ele><time>2026-05-01T14:44:33.001Z</time></trkpt><trkpt lat="45.62531314997455" lon="-0.07585297015596791"><ele>22.0</ele><time>2026-05-01T14:44:34.001Z</time></trkpt><trkpt lat="45.625264663057116" lon="-0.07611824706363232"><ele>23.0</ele><time>2026-05-01T14:44:35.001Z</time></trkpt><trkpt lat="45.62521512265978" lon="-0.07634411338844409"><ele>24.0</ele><time>2026-05-01T14:44:36.001Z</time></trkpt><trkpt lat="45.62517141623778" lon="-0.07654394473183668"><ele>25.0</ele><time>2026-05-01T14:44:37.001Z</time></trkpt><trkpt lat="45.62513085166726" lon="-0.07672883604002223"><ele>26.0</ele><time>2026-05-01T14:44:38Z</time></trkpt><trkpt lat="45.625092905005005" lon="-0.07691287593268337"><ele>26.0</ele><time>2026-05-01T14:44:39Z</time></trkpt><trkpt lat="45.62504900373798" lon="-0.07710870727422765"><ele>26.0</ele><time>2026-05-01T14:44:40Z</time></trkpt><trkpt lat="45.62498819182147" lon="-0.07729418258501296"><ele>26.0</ele><time>2026-05-01T14:44:41Z</time></trkpt><trkpt lat="45.62493294509065" lon="-0.07746205297024013"><ele>26.0</ele><time>2026-05-01T14:44:42Z</time></trkpt><trkpt lat="45.624888646080215" lon="-0.07759884291421139"><ele>26.4</ele><time>2026-05-01T14:44:43Z</time></trkpt><trkpt lat="45.62485876664225" lon="-0.0777108836796286"><ele>26.8</ele><time>2026-05-01T14:44:44Z</time></trkpt><trkpt lat="45.624829238815586" lon="-0.07780578797701813"><ele>27.199999999999996</ele><time>2026-05-01T14:44:46.001Z</time></trkpt><trkpt lat="45.62481063159526" lon="-0.07792395162085257"><ele>27.599999999999998</ele><time>2026-05-01T14:44:49.001Z</time></trkpt><trkpt lat="45.62475515002656" lon="-0.07803087844956957"><ele>28.0</ele><time>2026-05-01T14:44:50.001Z</time></trkpt><trkpt lat="45.62469009645517" lon="-0.07818627706252379"><ele>28.333333333333336</ele><time>2026-05-01T14:44:51.001Z</time></trkpt><trkpt lat="45.62465263695094" lon="-0.07837496159998888"><ele>28.666666666666664</ele><time>2026-05-01T14:44:52.001Z</time></trkpt><trkpt lat="45.6245714996818" lon="-0.07864227695261705"><ele>29.0</ele><time>2026-05-01T14:44:53.001Z</time></trkpt><trkpt lat="45.62448682933971" lon="-0.07888205124042506"><ele>32.33333333333333</ele><time>2026-05-01T14:44:54.001Z</time></trkpt><trkpt lat="45.624406744955145" lon="-0.07913619999666857"><ele>35.666666666666664</ele><time>2026-05-01T14:44:55.001Z</time></trkpt><trkpt lat="45.624305922523114" lon="-0.07938279842382556"><ele>39.0</ele><time>2026-05-01T14:44:56.001Z</time></trkpt><trkpt lat="45.62421933540188" lon="-0.0795859969233048"><ele>39.0</ele><time>2026-05-01T14:44:57.001Z</time></trkpt><trkpt lat="45.6241386470261" lon="-0.07975767925663119"><ele>39.0</ele><time>2026-05-01T14:44:58.001Z</time></trkpt><trkpt lat="45.624051566489904" lon="-0.07991421796952788"><ele>39.0</ele><time>2026-05-01T14:44:59.001Z</time></trkpt><trkpt lat="45.623950248327056" lon="-0.08005386042577739"><ele>39.0</ele><time>2026-05-01T14:45:00.001Z</time></trkpt><trkpt lat="45.62383583525018" lon="-0.08018492187995623"><ele>40.0</ele><time>2026-05-01T14:45:01.001Z</time></trkpt><trkpt lat="45.623733543357964" lon="-0.08028386392759493"><ele>41.0</ele><time>2026-05-01T14:45:02.001Z</time></trkpt><trkpt lat="45.62364816305303" lon="-0.08034635326562507"><ele>42.0</ele><time>2026-05-01T14:45:03.001Z</time></trkpt><trkpt lat="45.623568424615996" lon="-0.08037709641532427"><ele>43.0</ele><time>2026-05-01T14:45:04.001Z</time></trkpt><trkpt lat="45.62346918004353" lon="-0.08037940592323896"><ele>44.0</ele><time>2026-05-01T14:45:05.001Z</time></trkpt><trkpt lat="45.623341625934074" lon="-0.08039983734202678"><ele>45.25</ele><time>2026-05-01T14:45:06.001Z</time></trkpt><trkpt lat="45.62320465463518" lon="-0.08039950144862926"><ele>46.5</ele><time>2026-05-01T14:45:07.001Z</time></trkpt><trkpt lat="45.6230829814692" lon="-0.08039312522407625"><ele>47.75</ele><time>2026-05-01T14:45:08.001Z</time></trkpt><trkpt lat="45.622961618398826" lon="-0.0803568398330761"><ele>49.0</ele><time>2026-05-01T14:45:09.001Z</time></trkpt><trkpt lat="45.62282574896176" lon="-0.08033360928695342"><ele>49.25</ele><time>2026-05-01T14:45:10.001Z</time></trkpt><trkpt lat="45.62269155655712" lon="-0.08033072826211436"><ele>49.5</ele><time>2026-05-01T14:45:11.001Z</time></trkpt><trkpt lat="45.62256524910224" lon="-0.08028769267044242"><ele>49.75</ele><time>2026-05-01T14:45:12.001Z</time></trkpt><trkpt lat="45.62243473710376" lon="-0.08026711543946041"><ele>50.0</ele><time>2026-05-01T14:45:13.001Z</time></trkpt><trkpt lat="45.62229109655299" lon="-0.08027269889618593"><ele>50.0</ele><time>2026-05-01T14:45:14.001Z</time></trkpt><trkpt lat="45.6221388521491" lon="-0.08024500908594247"><ele>50.0</ele><time>2026-05-01T14:45:15.001Z</time></trkpt><trkpt lat="45.62200288282975" lon="-0.08024309771053477"><ele>50.0</ele><time>2026-05-01T14:45:16.001Z</time></trkpt><trkpt lat="45.62189043503718" lon="-0.08023441529211309"><ele>50.0</ele><time>2026-05-01T14:45:17.001Z</time></trkpt><trkpt lat="45.621781999051706" lon="-0.08016359004953912"><ele>49.75</ele><time>2026-05-01T14:45:18.001Z</time></trkpt><trkpt lat="45.62166934736856" lon="-0.08009094090243674"><ele>49.5</ele><time>2026-05-01T14:45:19.001Z</time></trkpt><trkpt lat="45.621547812898676" lon="-0.08001437726398042"><ele>49.25</ele><time>2026-05-01T14:45:20.001Z</time></trkpt><trkpt lat="45.62143888706341" lon="-0.07993123670443575"><ele>49.0</ele><time>2026-05-01T14:45:21.001Z</time></trkpt><trkpt lat="45.621325707437435" lon="-0.0798468642600274"><ele>49.5</ele><time>2026-05-01T14:45:22.001Z</time></trkpt><trkpt lat="45.621214605184406" lon="-0.07973631995953707"><ele>50.0</ele><time>2026-05-01T14:45:23.001Z</time></trkpt><trkpt lat="45.62110386213943" lon="-0.07968140020831492"><ele>50.5</ele><time>2026-05-01T14:45:24.001Z</time></trkpt><trkpt lat="45.62099895631034" lon="-0.07961348893289079"><ele>51.0</ele><time>2026-05-01T14:45:25.001Z</time></trkpt><trkpt lat="45.620899547669175" lon="-0.07954908846226622"><ele>51.166666666666664</ele><time>2026-05-01T14:45:26.001Z</time></trkpt><trkpt lat="45.62081000071902" lon="-0.07949206340920337"><ele>51.33333333333333</ele><time>2026-05-01T14:45:27.001Z</time></trkpt><trkpt lat="45.62073019022739" lon="-0.07944140145400183"><ele>51.5</ele><time>2026-05-01T14:45:28.001Z</time></trkpt><trkpt lat="45.62066284157673" lon="-0.07937674806030717"><ele>51.666666666666664</ele><time>2026-05-01T14:45:29.001Z</time></trkpt><trkpt lat="45.62056537796755" lon="-0.07934659112236397"><ele>51.83333333333333</ele><time>2026-05-01T14:45:31.001Z</time></trkpt><trkpt lat="45.62049555216826" lon="-0.07932023657455887"><ele>52.0</ele><time>2026-05-01T14:45:37.001Z</time></trkpt><trkpt lat="45.62043258589632" lon="-0.07929649410836859"><ele>52.0</ele><time>2026-05-01T14:45:38.001Z</time></trkpt><trkpt lat="45.62036790358327" lon="-0.0791486400230013"><ele>52.0</ele><time>2026-05-01T14:45:39.001Z</time></trkpt><trkpt lat="45.62028675111972" lon="-0.07911265120591408"><ele>52.0</ele><time>2026-05-01T14:45:40.001Z</time></trkpt><trkpt lat="45.62022828980535" lon="-0.07907077593724418"><ele>52.0</ele><time>2026-05-01T14:45:41.002Z</time></trkpt><trkpt lat="45.62011494558014" lon="-0.07902921906311959"><ele>52.0</ele><time>2026-05-01T14:45:43.002Z</time></trkpt><trkpt lat="45.62004850092487" lon="-0.07904769435133835"><ele>52.0</ele><time>2026-05-01T14:45:44.002Z</time></trkpt><trkpt lat="45.619971019696315" lon="-0.07909428877586998"><ele>52.0</ele><time>2026-05-01T14:45:45.002Z</time></trkpt><trkpt lat="45.61986619706211" lon="-0.07917042258001425"><ele>52.0</ele><time>2026-05-01T14:45:46.002Z</time></trkpt><trkpt lat="45.619741263999394" lon="-0.07927492640074604"><ele>52.0</ele><time>2026-05-01T14:45:47.002Z</time></trkpt><trkpt lat="45.619584151234925" lon="-0.07939240700354211"><ele>52.0</ele><time>2026-05-01T14:45:48.002Z</time></trkpt><trkpt lat="45.61942440274058" lon="-0.07952488061083389"><ele>52.0</ele><time>2026-05-01T14:45:49.002Z</time></trkpt><trkpt lat="45.6192596294502" lon="-0.07966776326929366"><ele>52.0</ele><time>2026-05-01T14:45:50.002Z</time></trkpt><trkpt lat="45.61908157327611" lon="-0.07982911193111317"><ele>52.33333333333333</ele><time>2026-05-01T14:45:51.002Z</time></trkpt><trkpt lat="45.61893162050741" lon="-0.07997127679268662"><ele>52.66666666666667</ele><time>2026-05-01T14:45:52.002Z</time></trkpt><trkpt lat="45.618786316104114" lon="-0.08012426462522798"><ele>53.0</ele><time>2026-05-01T14:45:53.002Z</time></trkpt><trkpt lat="45.61864093388095" lon="-0.08030109081214756"><ele>53.66666666666667</ele><time>2026-05-01T14:45:54.002Z</time></trkpt><trkpt lat="45.6185059892678" lon="-0.08049095407269542"><ele>54.33333333333333</ele><time>2026-05-01T14:45:55.002Z</time></trkpt><trkpt lat="45.61838159893058" lon="-0.08066150752999444"><ele>55.0</ele><time>2026-05-01T14:45:56.002Z</time></trkpt><trkpt lat="45.61826090311385" lon="-0.08081875203671049"><ele>55.0</ele><time>2026-05-01T14:45:57.002Z</time></trkpt><trkpt lat="45.61813060446097" lon="-0.08099100518131869"><ele>55.0</ele><time>2026-05-01T14:45:58.002Z</time></trkpt><trkpt lat="45.61799076106003" lon="-0.08119567643267789"><ele>55.0</ele><time>2026-05-01T14:45:59.002Z</time></trkpt><trkpt lat="45.617860889493976" lon="-0.08141624616426478"><ele>55.0</ele><time>2026-05-01T14:46:00.002Z</time></trkpt><trkpt lat="45.617738364608726" lon="-0.08165296501751716"><ele>55.0</ele><time>2026-05-01T14:46:01.002Z</time></trkpt><trkpt lat="45.61762060061707" lon="-0.08190647757133467"><ele>55.0</ele><time>2026-05-01T14:46:02.002Z</time></trkpt><trkpt lat="45.61750152681554" lon="-0.08215217092265852"><ele>55.0</ele><time>2026-05-01T14:46:03.002Z</time></trkpt><trkpt lat="45.617383863031456" lon="-0.08241505552436394"><ele>55.0</ele><time>2026-05-01T14:46:04.002Z</time></trkpt><trkpt lat="45.61727837360392" lon="-0.08265902321256709"><ele>55.0</ele><time>2026-05-01T14:46:05.002Z</time></trkpt><trkpt lat="45.617181357307366" lon="-0.0828799042093202"><ele>55.33333333333333</ele><time>2026-05-01T14:46:06.002Z</time></trkpt><trkpt lat="45.61708689275611" lon="-0.08310385187487777"><ele>55.66666666666667</ele><time>2026-05-01T14:46:07.002Z</time></trkpt><trkpt lat="45.61699028308032" lon="-0.08332102693240168"><ele>56.0</ele><time>2026-05-01T14:46:08.002Z</time></trkpt><trkpt lat="45.616880194009404" lon="-0.08354302152856712"><ele>57.0</ele><time>2026-05-01T14:46:09.002Z</time></trkpt><trkpt lat="45.61676889757295" lon="-0.08373684406022604"><ele>58.0</ele><time>2026-05-01T14:46:10.002Z</time></trkpt><trkpt lat="45.61663043971553" lon="-0.08394862095546346"><ele>59.0</ele><time>2026-05-01T14:46:11.002Z</time></trkpt><trkpt lat="45.61650121679027" lon="-0.08413836174664312"><ele>59.333333333333336</ele><time>2026-05-01T14:46:12.002Z</time></trkpt><trkpt lat="45.61639256966534" lon="-0.08430406309908034"><ele>59.66666666666667</ele><time>2026-05-01T14:46:13.002Z</time></trkpt><trkpt lat="45.61627424126803" lon="-0.08446882565501436"><ele>60.0</ele><time>2026-05-01T14:46:14.002Z</time></trkpt><trkpt lat="45.616144793867946" lon="-0.08462383855045696"><ele>61.33333333333333</ele><time>2026-05-01T14:46:15.002Z</time></trkpt><trkpt lat="45.61599746498289" lon="-0.08478698262060533"><ele>62.666666666666664</ele><time>2026-05-01T14:46:16.002Z</time></trkpt><trkpt lat="45.61586007531179" lon="-0.08493387238159864"><ele>64.0</ele><time>2026-05-01T14:46:17.002Z</time></trkpt><trkpt lat="45.61572803359654" lon="-0.08508008226096503"><ele>64.33333333333333</ele><time>2026-05-01T14:46:18.002Z</time></trkpt><trkpt lat="45.615584782975404" lon="-0.08523700045171498"><ele>64.66666666666667</ele><time>2026-05-01T14:46:19.002Z</time></trkpt><trkpt lat="45.61546505451294" lon="-0.08536642549505254"><ele>65.0</ele><time>2026-05-01T14:46:20.002Z</time></trkpt><trkpt lat="45.61535749105888" lon="-0.08549477336999697"><ele>65.2</ele><time>2026-05-01T14:46:21.002Z</time></trkpt><trkpt lat="45.615260481271115" lon="-0.08560182510460859"><ele>65.4</ele><time>2026-05-01T14:46:22.002Z</time></trkpt><trkpt lat="45.61518169945244" lon="-0.08569700746275397"><ele>65.6</ele><time>2026-05-01T14:46:23.002Z</time></trkpt><trkpt lat="45.615106211355084" lon="-0.08579700546180284"><ele>65.8</ele><time>2026-05-01T14:46:24.002Z</time></trkpt><trkpt lat="45.615042834888285" lon="-0.08590507963563891"><ele>66.0</ele><time>2026-05-01T14:46:25.002Z</time></trkpt><trkpt lat="45.61496959026167" lon="-0.0860002158455669"><ele>67.25</ele><time>2026-05-01T14:46:26.003Z</time></trkpt><trkpt lat="45.61487734408716" lon="-0.0861090794304227"><ele>68.5</ele><time>2026-05-01T14:46:27.003Z</time></trkpt><trkpt lat="45.61478298163618" lon="-0.0861987471825158"><ele>69.75</ele><time>2026-05-01T14:46:28.003Z</time></trkpt><trkpt lat="45.614680739279315" lon="-0.08627398226176639"><ele>71.0</ele><time>2026-05-01T14:46:29.003Z</time></trkpt><trkpt lat="45.61456691715434" lon="-0.08637473993272385"><ele>71.0</ele><time>2026-05-01T14:46:30.003Z</time></trkpt><trkpt lat="45.61446032223778" lon="-0.08646734479401424"><ele>71.0</ele><time>2026-05-01T14:46:31.001Z</time></trkpt><trkpt lat="45.61436411952847" lon="-0.08656456705706589"><ele>71.0</ele><time>2026-05-01T14:46:32.001Z</time></trkpt><trkpt lat="45.614283866139516" lon="-0.08667004927334536"><ele>71.0</ele><time>2026-05-01T14:46:33.001Z</time></trkpt><trkpt lat="45.61420439534635" lon="-0.08671672376032157"><ele>71.0</ele><time>2026-05-01T14:46:34.001Z</time></trkpt><trkpt lat="45.614141306599514" lon="-0.08679518931221536"><ele>71.0</ele><time>2026-05-01T14:46:35.001Z</time></trkpt><trkpt lat="45.61405818540055" lon="-0.08685700873358804"><ele>71.0</ele><time>2026-05-01T14:46:36.001Z</time></trkpt><trkpt lat="45.613979415891926" lon="-0.0869466318902466"><ele>71.0</ele><time>2026-05-01T14:46:37.001Z</time></trkpt><trkpt lat="45.61387713345996" lon="-0.087039232796894"><ele>71.0</ele><time>2026-05-01T14:46:38.001Z</time></trkpt><trkpt lat="45.613785783685415" lon="-0.08712193588441963"><ele>71.0</ele><time>2026-05-01T14:46:39.001Z</time></trkpt><trkpt lat="45.61368161104797" lon="-0.08717806762888596"><ele>71.0</ele><time>2026-05-01T14:46:40.001Z</time></trkpt><trkpt lat="45.61358144671334" lon="-0.08728040638451645"><ele>71.0</ele><time>2026-05-01T14:46:41.001Z</time></trkpt><trkpt lat="45.61350546102059" lon="-0.0873604910662854"><ele>71.0</ele><time>2026-05-01T14:46:42.001Z</time></trkpt><trkpt lat="45.61341685841821" lon="-0.08742802733835507"><ele>71.0</ele><time>2026-05-01T14:46:43.001Z</time></trkpt><trkpt lat="45.613313886109616" lon="-0.08748623708136716"><ele>71.0</ele><time>2026-05-01T14:46:44.001Z</time></trkpt><trkpt lat="45.613210536205465" lon="-0.08755793508283262"><ele>71.2</ele><time>2026-05-01T14:46:45.001Z</time></trkpt><trkpt lat="45.613104365373275" lon="-0.08762361136016114"><ele>71.39999999999999</ele><time>2026-05-01T14:46:46.001Z</time></trkpt><trkpt lat="45.613022786042166" lon="-0.0876965712225728"><ele>71.6</ele><time>2026-05-01T14:46:47.001Z</time></trkpt><trkpt lat="45.612937493251415" lon="-0.0877551019345866"><ele>71.8</ele><time>2026-05-01T14:46:48.001Z</time></trkpt><trkpt lat="45.61285816834845" lon="-0.08782403402937655"><ele>72.0</ele><time>2026-05-01T14:46:49.001Z</time></trkpt><trkpt lat="45.6127925588438" lon="-0.08789180921863553"><ele>72.0</ele><time>2026-05-01T14:46:50.001Z</time></trkpt><trkpt lat="45.61272097545762" lon="-0.08796034611305067"><ele>72.0</ele><time>2026-05-01T14:46:51.001Z</time></trkpt><trkpt lat="45.61262308578121" lon="-0.08802818185671317"><ele>72.0</ele><time>2026-05-01T14:46:52.001Z</time></trkpt><trkpt lat="45.61251969592921" lon="-0.08808000427113927"><ele>72.0</ele><time>2026-05-01T14:46:53.001Z</time></trkpt><trkpt lat="45.612295986367485" lon="-0.08817212720405233"><ele>72.0</ele><time>2026-05-01T14:46:55.001Z</time></trkpt><trkpt lat="45.61216817226345" lon="-0.08822789763003022"><ele>72.0</ele><time>2026-05-01T14:46:56.001Z</time></trkpt><trkpt lat="45.61206218683178" lon="-0.0882487618604633"><ele>72.0</ele><time>2026-05-01T14:46:57.001Z</time></trkpt><trkpt lat="45.61195155231264" lon="-0.08829449011443546"><ele>72.0</ele><time>2026-05-01T14:46:58.001Z</time></trkpt><trkpt lat="45.611856033512154" lon="-0.08833924137354239"><ele>72.6</ele><time>2026-05-01T14:46:59.001Z</time></trkpt><trkpt lat="45.611721563864734" lon="-0.0883709873504321"><ele>73.2</ele><time>2026-05-01T14:47:00.001Z</time></trkpt><trkpt lat="45.61164506367626" lon="-0.0883893872569737"><ele>73.8</ele><time>2026-05-01T14:47:01.001Z</time></trkpt><trkpt lat="45.61155476775459" lon="-0.08838019192079911"><ele>74.4</ele><time>2026-05-01T14:47:02.001Z</time></trkpt><trkpt lat="45.61145559451138" lon="-0.0884096182282328"><ele>75.0</ele><time>2026-05-01T14:47:03.001Z</time></trkpt><trkpt lat="45.611365034914" lon="-0.08839045899059572"><ele>75.0</ele><time>2026-05-01T14:47:04.001Z</time></trkpt><trkpt lat="45.611281324527944" lon="-0.08836616971948313"><ele>75.0</ele><time>2026-05-01T14:47:05.001Z</time></trkpt><trkpt lat="45.6112171145229" lon="-0.08833163799763716"><ele>75.0</ele><time>2026-05-01T14:47:06.001Z</time></trkpt><trkpt lat="45.61115048162483" lon="-0.08828877236390278"><ele>75.0</ele><time>2026-05-01T14:47:07.001Z</time></trkpt><trkpt lat="45.611093141757216" lon="-0.08823011825078916"><ele>75.0</ele><time>2026-05-01T14:47:08.001Z</time></trkpt><trkpt lat="45.61103400614817" lon="-0.08819846903674473"><ele>75.0</ele><time>2026-05-01T14:47:09.001Z</time></trkpt><trkpt lat="45.61090833265646" lon="-0.08817051905860228"><ele>75.0</ele><time>2026-05-01T14:47:11.001Z</time></trkpt><trkpt lat="45.61084323207566" lon="-0.08820282936618833"><ele>75.0</ele><time>2026-05-01T14:47:12.001Z</time></trkpt><trkpt lat="45.61076368965906" lon="-0.08824718564877491"><ele>75.0</ele><time>2026-05-01T14:47:13.001Z</time></trkpt><trkpt lat="45.61067975478745" lon="-0.08827286721405173"><ele>75.0</ele><time>2026-05-01T14:47:14.001Z</time></trkpt><trkpt lat="45.61059064006339" lon="-0.08827589293990969"><ele>75.0</ele><time>2026-05-01T14:47:15.001Z</time></trkpt><trkpt lat="45.610487656174904" lon="-0.08825254676027726"><ele>75.0</ele><time>2026-05-01T14:47:16.001Z</time></trkpt><trkpt lat="45.6104135216964" lon="-0.08825197492283667"><ele>75.0</ele><time>2026-05-01T14:47:17.001Z</time></trkpt><trkpt lat="45.610351499406484" lon="-0.08823352635391742"><ele>75.0</ele><time>2026-05-01T14:47:18.001Z</time></trkpt><trkpt lat="45.61026106358698" lon="-0.08822914963916198"><ele>75.0</ele><time>2026-05-01T14:47:19.001Z</time></trkpt><trkpt lat="45.610186833733856" lon="-0.0882199816688278"><ele>75.0</ele><time>2026-05-01T14:47:20.001Z</time></trkpt><trkpt lat="45.61011011692527" lon="-0.08823259288305482"><ele>75.0</ele><time>2026-05-01T14:47:21.001Z</time></trkpt><trkpt lat="45.61001881235164" lon="-0.08830209854999606"><ele>75.0</ele><time>2026-05-01T14:47:22.001Z</time></trkpt><trkpt lat="45.60994346582702" lon="-0.08832758260757571"><ele>75.83333333333333</ele><time>2026-05-01T14:47:23.001Z</time></trkpt><trkpt lat="45.60986123430429" lon="-0.08833786201673503"><ele>76.66666666666667</ele><time>2026-05-01T14:47:24.001Z</time></trkpt><trkpt lat="45.60975524678923" lon="-0.08833830550827339"><ele>77.5</ele><time>2026-05-01T14:47:25.001Z</time></trkpt><trkpt lat="45.60966607129062" lon="-0.08836022512132444"><ele>78.33333333333334</ele><time>2026-05-01T14:47:26.001Z</time></trkpt><trkpt lat="45.60958095834125" lon="-0.08839038599969551"><ele>79.16666666666667</ele><time>2026-05-01T14:47:27.001Z</time></trkpt><trkpt lat="45.609510366353895" lon="-0.08844681508192352"><ele>80.0</ele><time>2026-05-01T14:47:28.001Z</time></trkpt><trkpt lat="45.609437615101356" lon="-0.08850504785028894"><ele>80.0</ele><time>2026-05-01T14:47:29.001Z</time></trkpt><trkpt lat="45.60933740025777" lon="-0.08857439724259716"><ele>80.0</ele><time>2026-05-01T14:47:30.001Z</time></trkpt><trkpt lat="45.60922610186988" lon="-0.08865018698486311"><ele>80.0</ele><time>2026-05-01T14:47:31.001Z</time></trkpt><trkpt lat="45.60909951571294" lon="-0.08870929730327454"><ele>80.0</ele><time>2026-05-01T14:47:32.001Z</time></trkpt><trkpt lat="45.60900821825262" lon="-0.08876146063662606"><ele>80.0</ele><time>2026-05-01T14:47:33.001Z</time></trkpt><trkpt lat="45.60892412223584" lon="-0.08880502221283884"><ele>80.0</ele><time>2026-05-01T14:47:34.001Z</time></trkpt><trkpt lat="45.60884487185027" lon="-0.08883802410468375"><ele>80.0</ele><time>2026-05-01T14:47:35.001Z</time></trkpt><trkpt lat="45.608784537348164" lon="-0.08887611254797709"><ele>80.0</ele><time>2026-05-01T14:47:36.001Z</time></trkpt><trkpt lat="45.608757250044796" lon="-0.08896837487185859"><ele>80.0</ele><time>2026-05-01T14:47:38.001Z</time></trkpt><trkpt lat="45.60874177920184" lon="-0.08906332749974472"><ele>80.0</ele><time>2026-05-01T14:47:39.001Z</time></trkpt><trkpt lat="45.60871199730483" lon="-0.08919170138813912"><ele>80.0</ele><time>2026-05-01T14:47:40.001Z</time></trkpt><trkpt lat="45.60867407859189" lon="-0.08930131212025703"><ele>80.0</ele><time>2026-05-01T14:47:41.001Z</time></trkpt><trkpt lat="45.6086542691632" lon="-0.08940445644277728"><ele>80.0</ele><time>2026-05-01T14:47:42.001Z</time></trkpt><trkpt lat="45.60863913094163" lon="-0.08949790885532848"><ele>80.0</ele><time>2026-05-01T14:47:44.001Z</time></trkpt><trkpt lat="45.60865645320399" lon="-0.0895846178315805"><ele>80.0</ele><time>2026-05-01T14:47:48.002Z</time></trkpt><trkpt lat="45.608618143228206" lon="-0.0897195605333389"><ele>80.0</ele><time>2026-05-01T14:47:51.002Z</time></trkpt><trkpt lat="45.60860082740762" lon="-0.08983835321727052"><ele>80.0</ele><time>2026-05-01T14:47:52.002Z</time></trkpt><trkpt lat="45.60859927743363" lon="-0.08995187469576976"><ele>80.0</ele><time>2026-05-01T14:47:53.002Z</time></trkpt><trkpt lat="45.608638375514595" lon="-0.09006225902907172"><ele>80.0</ele><time>2026-05-01T14:47:55.002Z</time></trkpt><trkpt lat="45.60866223674886" lon="-0.09014650648247313"><ele>80.0</ele><time>2026-05-01T14:47:56.002Z</time></trkpt><trkpt lat="45.60865937346638" lon="-0.09025764831905721"><ele>80.0</ele><time>2026-05-01T14:47:57.002Z</time></trkpt><trkpt lat="45.608644785880095" lon="-0.090425370766906"><ele>80.0</ele><time>2026-05-01T14:47:58.002Z</time></trkpt><trkpt lat="45.60863257382948" lon="-0.09056800678739352"><ele>80.0</ele><time>2026-05-01T14:47:59.002Z</time></trkpt><trkpt lat="45.60864172434555" lon="-0.0906632332687473"><ele>80.0</ele><time>2026-05-01T14:48:00.002Z</time></trkpt><trkpt lat="45.608607043198205" lon="-0.09074862599815975"><ele>80.0</ele><time>2026-05-01T14:48:01.002Z</time></trkpt><trkpt lat="45.60858562109787" lon="-0.09083826614283655"><ele>80.0</ele><time>2026-05-01T14:48:02.002Z</time></trkpt><trkpt lat="45.608589437696914" lon="-0.09092911887959738"><ele>80.0</ele><time>2026-05-01T14:48:03.002Z</time></trkpt><trkpt lat="45.608606094681335" lon="-0.09104400098086993"><ele>80.0</ele><time>2026-05-01T14:48:04.002Z</time></trkpt><trkpt lat="45.60860976491795" lon="-0.09119631785178177"><ele>80.0</ele><time>2026-05-01T14:48:05.002Z</time></trkpt><trkpt lat="45.60860982968787" lon="-0.09134026834977088"><ele>80.0</ele><time>2026-05-01T14:48:07.002Z</time></trkpt><trkpt lat="45.60859802380389" lon="-0.09143414939711723"><ele>80.0</ele><time>2026-05-01T14:48:08.002Z</time></trkpt><trkpt lat="45.60860195143997" lon="-0.09155519375617886"><ele>80.0</ele><time>2026-05-01T14:48:09.002Z</time></trkpt><trkpt lat="45.60860937423958" lon="-0.09172665649982988"><ele>80.0</ele><time>2026-05-01T14:48:10.002Z</time></trkpt><trkpt lat="45.60862865843285" lon="-0.0918229051423731"><ele>80.0</ele><time>2026-05-01T14:48:11.002Z</time></trkpt><trkpt lat="45.608624786519364" lon="-0.09191295319080935"><ele>80.4</ele><time>2026-05-01T14:48:12.002Z</time></trkpt><trkpt lat="45.60855682099251" lon="-0.09205098774240598"><ele>80.8</ele><time>2026-05-01T14:48:14.002Z</time></trkpt><trkpt lat="45.60848393342641" lon="-0.0921396824663254"><ele>81.19999999999999</ele><time>2026-05-01T14:48:15.002Z</time></trkpt><trkpt lat="45.60842508003194" lon="-0.09224534591232343"><ele>81.6</ele><time>2026-05-01T14:48:16.002Z</time></trkpt><trkpt lat="45.60840382287697" lon="-0.09236775048321637"><ele>82.0</ele><time>2026-05-01T14:48:17.002Z</time></trkpt><trkpt lat="45.60837163982014" lon="-0.09252363569442236"><ele>82.33333333333333</ele><time>2026-05-01T14:48:18.002Z</time></trkpt><trkpt lat="45.60832255877671" lon="-0.09264405689049303"><ele>82.66666666666666</ele><time>2026-05-01T14:48:19.002Z</time></trkpt><trkpt lat="45.608296361044005" lon="-0.09273172298093597"><ele>83.0</ele><time>2026-05-01T14:48:20.002Z</time></trkpt><trkpt lat="45.6082891785046" lon="-0.09283502631457684"><ele>83.33333333333333</ele><time>2026-05-01T14:48:21.002Z</time></trkpt><trkpt lat="45.60828091187574" lon="-0.0929292492082629"><ele>83.66666666666667</ele><time>2026-05-01T14:48:22.002Z</time></trkpt><trkpt lat="45.608283462630055" lon="-0.09302086993598858"><ele>84.0</ele><time>2026-05-01T14:48:23.002Z</time></trkpt><trkpt lat="45.608299096937685" lon="-0.09314284333756209"><ele>84.5</ele><time>2026-05-01T14:48:24.002Z</time></trkpt><trkpt lat="45.60830431261849" lon="-0.09327530000801705"><ele>85.0</ele><time>2026-05-01T14:48:25.002Z</time></trkpt><trkpt lat="45.608283765939596" lon="-0.09340298827375534"><ele>85.5</ele><time>2026-05-01T14:48:26.002Z</time></trkpt><trkpt lat="45.60827105635967" lon="-0.0935080827645653"><ele>86.0</ele><time>2026-05-01T14:48:27.002Z</time></trkpt><trkpt lat="45.60827894082675" lon="-0.09361734895268439"><ele>86.5</ele><time>2026-05-01T14:48:29.002Z</time></trkpt><trkpt lat="45.60830464679864" lon="-0.09371327287740168"><ele>87.0</ele><time>2026-05-01T14:48:30.002Z</time></trkpt><trkpt lat="45.60834079191195" lon="-0.0938691214809114"><ele>87.0</ele><time>2026-05-01T14:48:31.002Z</time></trkpt><trkpt lat="45.60836724433394" lon="-0.09402522166914415"><ele>87.0</ele><time>2026-05-01T14:48:32.002Z</time></trkpt><trkpt lat="45.608400278079415" lon="-0.09412833080175717"><ele>87.0</ele><time>2026-05-01T14:48:33.002Z</time></trkpt><trkpt lat="45.60841759107269" lon="-0.09421550195279996"><ele>87.0</ele><time>2026-05-01T14:48:34.002Z</time></trkpt><trkpt lat="45.60842198860972" lon="-0.09431922073622251"><ele>87.0</ele><time>2026-05-01T14:48:35.002Z</time></trkpt><trkpt lat="45.60840941193954" lon="-0.09442230515101976"><ele>87.0</ele><time>2026-05-01T14:48:36.003Z</time></trkpt><trkpt lat="45.60839231428668" lon="-0.09453286392570356"><ele>87.33333333333333</ele><time>2026-05-01T14:48:37.001Z</time></trkpt><trkpt lat="45.60837355372746" lon="-0.09462596567226993"><ele>87.66666666666667</ele><time>2026-05-01T14:48:38.001Z</time></trkpt><trkpt lat="45.60835735939369" lon="-0.09471479799058512"><ele>88.0</ele><time>2026-05-01T14:48:39.001Z</time></trkpt><trkpt lat="45.6083460180815" lon="-0.09484354751767399"><ele>88.33333333333334</ele><time>2026-05-01T14:48:40.001Z</time></trkpt><trkpt lat="45.60832703901652" lon="-0.09495943869298547"><ele>88.66666666666667</ele><time>2026-05-01T14:48:41.001Z</time></trkpt><trkpt lat="45.60830477674388" lon="-0.09507300114512775"><ele>89.0</ele><time>2026-05-01T14:48:42.001Z</time></trkpt><trkpt lat="45.60829133264257" lon="-0.09516432475426909"><ele>89.4</ele><time>2026-05-01T14:48:43.001Z</time></trkpt><trkpt lat="45.608281975985335" lon="-0.09533865627041785"><ele>89.80000000000001</ele><time>2026-05-01T14:48:45.001Z</time></trkpt><trkpt lat="45.60829161211061" lon="-0.09543523957376093"><ele>90.19999999999999</ele><time>2026-05-01T14:48:46.001Z</time></trkpt><trkpt lat="45.60832288474979" lon="-0.09552733460334505"><ele>90.6</ele><time>2026-05-01T14:48:47.001Z</time></trkpt><trkpt lat="45.608338158695574" lon="-0.09566174454839854"><ele>91.0</ele><time>2026-05-01T14:48:48.001Z</time></trkpt><trkpt lat="45.60836282817257" lon="-0.0957972671888208"><ele>91.33333333333333</ele><time>2026-05-01T14:48:49.001Z</time></trkpt><trkpt lat="45.60837797526981" lon="-0.09593002685152066"><ele>91.66666666666666</ele><time>2026-05-01T14:48:50.001Z</time></trkpt><trkpt lat="45.60839837041055" lon="-0.09604859668643892"><ele>92.0</ele><time>2026-05-01T14:48:51.001Z</time></trkpt><trkpt lat="45.60841711589841" lon="-0.09617240044102064"><ele>92.33333333333333</ele><time>2026-05-01T14:48:52.001Z</time></trkpt><trkpt lat="45.6084387280503" lon="-0.09626962967737542"><ele>92.66666666666667</ele><time>2026-05-01T14:48:53.001Z</time></trkpt><trkpt lat="45.608443551505815" lon="-0.09636408355382813"><ele>93.0</ele><time>2026-05-01T14:48:56.001Z</time></trkpt><trkpt lat="45.60847098431061" lon="-0.09647334055887624"><ele>93.0</ele><time>2026-05-01T14:49:03.001Z</time></trkpt><trkpt lat="45.60849580645909" lon="-0.09656610027322132"><ele>93.0</ele><time>2026-05-01T14:49:04.001Z</time></trkpt><trkpt lat="45.608524214045765" lon="-0.09668453714758338"><ele>93.0</ele><time>2026-05-01T14:49:05.001Z</time></trkpt><trkpt lat="45.60854518247896" lon="-0.09681258788129271"><ele>93.0</ele><time>2026-05-01T14:49:06.001Z</time></trkpt><trkpt lat="45.60856142729963" lon="-0.09690703390239995"><ele>93.0</ele><time>2026-05-01T14:49:07.001Z</time></trkpt><trkpt lat="45.608570858800704" lon="-0.0970096228148559"><ele>93.0</ele><time>2026-05-01T14:49:08.001Z</time></trkpt><trkpt lat="45.608610217200145" lon="-0.09716205050267564"><ele>93.16666666666667</ele><time>2026-05-01T14:49:10.001Z</time></trkpt><trkpt lat="45.608614575339374" lon="-0.09735472265791423"><ele>93.33333333333333</ele><time>2026-05-01T14:49:12.001Z</time></trkpt><trkpt lat="45.60863351805163" lon="-0.09747360793883146"><ele>93.5</ele><time>2026-05-01T14:49:13.001Z</time></trkpt><trkpt lat="45.608640686143154" lon="-0.09757148179474852"><ele>93.66666666666666</ele><time>2026-05-01T14:49:14.001Z</time></trkpt><trkpt lat="45.608660926355626" lon="-0.0976804292606536"><ele>93.83333333333333</ele><time>2026-05-01T14:49:15.001Z</time></trkpt><trkpt lat="45.60867016349397" lon="-0.09777120375022674"><ele>94.0</ele><time>2026-05-01T14:49:16.001Z</time></trkpt><trkpt lat="45.60867918779549" lon="-0.09796630868125498"><ele>94.66666666666666</ele><time>2026-05-01T14:49:18.001Z</time></trkpt><trkpt lat="45.60870501646559" lon="-0.09807482485119516"><ele>95.33333333333333</ele><time>2026-05-01T14:49:19.001Z</time></trkpt><trkpt lat="45.60872412664625" lon="-0.09817010045658284"><ele>96.0</ele><time>2026-05-01T14:49:20.001Z</time></trkpt><trkpt lat="45.608730900051135" lon="-0.09828625380750118"><ele>96.66666666666666</ele><time>2026-05-01T14:49:22.001Z</time></trkpt><trkpt lat="45.60868808073151" lon="-0.09836163797228313"><ele>97.33333333333333</ele><time>2026-05-01T14:49:23.001Z</time></trkpt><trkpt lat="45.60861383336223" lon="-0.09846315348345148"><ele>98.0</ele><time>2026-05-01T14:49:24.001Z</time></trkpt><trkpt lat="45.60857360856188" lon="-0.0985490998177092"><ele>98.0</ele><time>2026-05-01T14:49:25.001Z</time></trkpt><trkpt lat="45.60855425392858" lon="-0.09863792938498477"><ele>98.0</ele><time>2026-05-01T14:49:26.001Z</time></trkpt><trkpt lat="45.60853336313002" lon="-0.09879960870283065"><ele>98.0</ele><time>2026-05-01T14:49:28.001Z</time></trkpt><trkpt lat="45.608527723726596" lon="-0.09896231497594574"><ele>98.0</ele><time>2026-05-01T14:49:30.001Z</time></trkpt><trkpt lat="45.60858411910413" lon="-0.09909170886024994"><ele>98.0</ele><time>2026-05-01T14:49:32.001Z</time></trkpt><trkpt lat="45.608630336923646" lon="-0.09918950957281461"><ele>98.4</ele><time>2026-05-01T14:49:35.001Z</time></trkpt><trkpt lat="45.6086995071029" lon="-0.0992602217100445"><ele>98.80000000000001</ele><time>2026-05-01T14:49:37.001Z</time></trkpt><trkpt lat="45.60874462820169" lon="-0.09934556292232878"><ele>99.2</ele><time>2026-05-01T14:49:39.001Z</time></trkpt><trkpt lat="45.60878972147587" lon="-0.09946665395095801"><ele>99.6</ele><time>2026-05-01T14:49:41.001Z</time></trkpt><trkpt lat="45.60882563174956" lon="-0.099597317819873"><ele>100.0</ele><time>2026-05-01T14:49:43.001Z</time></trkpt><trkpt lat="45.608847163548354" lon="-0.09974430141451106"><ele>100.00000000000001</ele><time>2026-05-01T14:49:45.001Z</time></trkpt><trkpt lat="45.60885912276505" lon="-0.09988340369566671"><ele>100.0</ele><time>2026-05-01T14:49:47.001Z</time></trkpt><trkpt lat="45.608855591680324" lon="-0.1000171246007454"><ele>100.0</ele><time>2026-05-01T14:49:49.001Z</time></trkpt><trkpt lat="45.60884855556796" lon="-0.10012343611501599"><ele>100.0</ele><time>2026-05-01T14:49:51.001Z</time></trkpt><trkpt lat="45.608948903406734" lon="-0.10015470809152253"><ele>100.00000000000001</ele><time>2026-05-01T14:49:55.001Z</time></trkpt><trkpt lat="45.609011085274346" lon="-0.10013354123299084"><ele>100.0</ele><time>2026-05-01T14:49:56.001Z</time></trkpt><trkpt lat="45.6090753428124" lon="-0.10009620646931233"><ele>100.00000000000001</ele><time>2026-05-01T14:49:57.001Z</time></trkpt><trkpt lat="45.609151132703566" lon="-0.10005151201132069"><ele>100.0</ele><time>2026-05-01T14:49:58.001Z</time></trkpt><trkpt lat="45.609231454685585" lon="-0.09999106541736072"><ele>100.0</ele><time>2026-05-01T14:49:59.001Z</time></trkpt><trkpt lat="45.60929702083223" lon="-0.09995436195714621"><ele>100.0</ele><time>2026-05-01T14:50:00.002Z</time></trkpt><trkpt lat="45.60937089772976" lon="-0.09996303477795675"><ele>100.00000000000001</ele><time>2026-05-01T14:50:01.002Z</time></trkpt><trkpt lat="45.60946211163336" lon="-0.09987879293726121"><ele>100.0</ele><time>2026-05-01T14:50:03.002Z</time></trkpt><trkpt lat="45.609533555546626" lon="-0.09983073214141067"><ele>100.5</ele><time>2026-05-01T14:50:04.002Z</time></trkpt><trkpt lat="45.60962772852413" lon="-0.09977755509480707"><ele>101.0</ele><time>2026-05-01T14:50:05.002Z</time></trkpt><trkpt lat="45.60974169302337" lon="-0.09973371768928824"><ele>101.5</ele><time>2026-05-01T14:50:06.002Z</time></trkpt><trkpt lat="45.60986259168611" lon="-0.09967539005490436"><ele>102.0</ele><time>2026-05-01T14:50:07.002Z</time></trkpt><trkpt lat="45.60997028185141" lon="-0.0996406264143044"><ele>102.0</ele><time>2026-05-01T14:50:08.002Z</time></trkpt><trkpt lat="45.61005521472986" lon="-0.09960111341925555"><ele>102.0</ele><time>2026-05-01T14:50:09.002Z</time></trkpt><trkpt lat="45.61014281241895" lon="-0.09957778899059172"><ele>102.0</ele><time>2026-05-01T14:50:10.002Z</time></trkpt><trkpt lat="45.61027054177357" lon="-0.09956918375282882"><ele>102.0</ele><time>2026-05-01T14:50:11.002Z</time></trkpt><trkpt lat="45.610367598482014" lon="-0.09950818939391677"><ele>102.0</ele><time>2026-05-01T14:50:12.002Z</time></trkpt><trkpt lat="45.61045626343063" lon="-0.09945067137431858"><ele>101.8</ele><time>2026-05-01T14:50:13.002Z</time></trkpt><trkpt lat="45.610524158913876" lon="-0.09936801084214884"><ele>101.6</ele><time>2026-05-01T14:50:14.002Z</time></trkpt><trkpt lat="45.61057937437543" lon="-0.09927707330005009"><ele>101.39999999999999</ele><time>2026-05-01T14:50:15.002Z</time></trkpt><trkpt lat="45.61062925017795" lon="-0.0991870214296121"><ele>101.19999999999999</ele><time>2026-05-01T14:50:16.002Z</time></trkpt><trkpt lat="45.61070062747717" lon="-0.09908441541501763"><ele>101.0</ele><time>2026-05-01T14:50:17.002Z</time></trkpt><trkpt lat="45.61075773854879" lon="-0.09894450182750131"><ele>100.75</ele><time>2026-05-01T14:50:18.002Z</time></trkpt><trkpt lat="45.61081216976073" lon="-0.09881522433199937"><ele>100.5</ele><time>2026-05-01T14:50:19.002Z</time></trkpt><trkpt lat="45.610929765260444" lon="-0.09871241824642465"><ele>100.25</ele><time>2026-05-01T14:50:21.002Z</time></trkpt><trkpt lat="45.61105677754345" lon="-0.09862097508030382"><ele>100.0</ele><time>2026-05-01T14:50:22.002Z</time></trkpt><trkpt lat="45.61117374660044" lon="-0.09852734999067103"><ele>99.50000000000001</ele><time>2026-05-01T14:50:23.002Z</time></trkpt><trkpt lat="45.61127459389583" lon="-0.09848798531421576"><ele>99.0</ele><time>2026-05-01T14:50:24.002Z</time></trkpt><trkpt lat="45.61133946329824" lon="-0.09845928044949119"><ele>98.5</ele><time>2026-05-01T14:50:25.002Z</time></trkpt><trkpt lat="45.61144615371843" lon="-0.09842268603159024"><ele>98.0</ele><time>2026-05-01T14:50:27.002Z</time></trkpt><trkpt lat="45.61153618373438" lon="-0.09844943945584386"><ele>97.50000000000001</ele><time>2026-05-01T14:50:30.002Z</time></trkpt><trkpt lat="45.61158297341844" lon="-0.0985211610972672"><ele>97.0</ele><time>2026-05-01T14:50:31.002Z</time></trkpt><trkpt lat="45.61163084497316" lon="-0.09861325509824136"><ele>97.0</ele><time>2026-05-01T14:50:32.002Z</time></trkpt><trkpt lat="45.61167329570926" lon="-0.09871588036422828"><ele>97.0</ele><time>2026-05-01T14:50:33.002Z</time></trkpt><trkpt lat="45.611708785592555" lon="-0.09879805467078914"><ele>97.0</ele><time>2026-05-01T14:50:34.002Z</time></trkpt><trkpt lat="45.611781045169714" lon="-0.09896299318400725"><ele>97.0</ele><time>2026-05-01T14:50:36.002Z</time></trkpt><trkpt lat="45.61186305959013" lon="-0.09911500861632962"><ele>97.0</ele><time>2026-05-01T14:50:37.002Z</time></trkpt><trkpt lat="45.61195987190345" lon="-0.09931538926494901"><ele>97.0</ele><time>2026-05-01T14:50:38.002Z</time></trkpt><trkpt lat="45.61207690225522" lon="-0.09956686442734011"><ele>97.0</ele><time>2026-05-01T14:50:39.002Z</time></trkpt><trkpt lat="45.61216024806107" lon="-0.09977019417796842"><ele>97.0</ele><time>2026-05-01T14:50:40.002Z</time></trkpt><trkpt lat="45.61223063514556" lon="-0.09992792969554544"><ele>97.0</ele><time>2026-05-01T14:50:41.002Z</time></trkpt><trkpt lat="45.61230641008083" lon="-0.10008484292206095"><ele>97.0</ele><time>2026-05-01T14:50:42.002Z</time></trkpt><trkpt lat="45.61235575810382" lon="-0.10023133870411613"><ele>97.0</ele><time>2026-05-01T14:50:43.001Z</time></trkpt><trkpt lat="45.61239568729274" lon="-0.10037870102043564"><ele>97.0</ele><time>2026-05-01T14:50:44.001Z</time></trkpt><trkpt lat="45.612451745884655" lon="-0.1005009641645539"><ele>97.00000000000001</ele><time>2026-05-01T14:50:45.001Z</time></trkpt><trkpt lat="45.61248943633972" lon="-0.10061600722174951"><ele>97.0</ele><time>2026-05-01T14:50:46.001Z</time></trkpt><trkpt lat="45.61254475618335" lon="-0.1007342458294284"><ele>97.0</ele><time>2026-05-01T14:50:47.001Z</time></trkpt><trkpt lat="45.61259278364396" lon="-0.1008215089745912"><ele>97.0</ele><time>2026-05-01T14:50:48.001Z</time></trkpt><trkpt lat="45.61264298279822" lon="-0.10089500349968544"><ele>97.00000000000001</ele><time>2026-05-01T14:50:49.001Z</time></trkpt><trkpt lat="45.61270992135097" lon="-0.1010131174526813"><ele>97.0</ele><time>2026-05-01T14:50:50.001Z</time></trkpt><trkpt lat="45.61277864349468" lon="-0.10114704270556346"><ele>96.5</ele><time>2026-05-01T14:50:51.001Z</time></trkpt><trkpt lat="45.61283778375924" lon="-0.1012811727406514"><ele>96.0</ele><time>2026-05-01T14:50:52.001Z</time></trkpt><trkpt lat="45.61290747828902" lon="-0.1014271245153598"><ele>95.5</ele><time>2026-05-01T14:50:53.001Z</time></trkpt><trkpt lat="45.612972919219246" lon="-0.10156362363158336"><ele>95.0</ele><time>2026-05-01T14:50:54.001Z</time></trkpt><trkpt lat="45.613045414471" lon="-0.10170401147002257"><ele>95.0</ele><time>2026-05-01T14:50:55.001Z</time></trkpt><trkpt lat="45.61311372880754" lon="-0.1018308269476397"><ele>95.0</ele><time>2026-05-01T14:50:56.001Z</time></trkpt><trkpt lat="45.61316656119267" lon="-0.10193205932501224"><ele>95.0</ele><time>2026-05-01T14:50:57.001Z</time></trkpt><trkpt lat="45.61322535560235" lon="-0.10204814971606897"><ele>95.0</ele><time>2026-05-01T14:50:59.001Z</time></trkpt><trkpt lat="45.61320407191669" lon="-0.10217051868353495"><ele>95.0</ele><time>2026-05-01T14:51:01.001Z</time></trkpt><trkpt lat="45.61316437189012" lon="-0.10226669904524005"><ele>95.0</ele><time>2026-05-01T14:51:02.001Z</time></trkpt><trkpt lat="45.61310348977679" lon="-0.1023790441478848"><ele>95.0</ele><time>2026-05-01T14:51:03.001Z</time></trkpt><trkpt lat="45.613042431817995" lon="-0.10248006603001665"><ele>95.0</ele><time>2026-05-01T14:51:05.001Z</time></trkpt><trkpt lat="45.61302818345897" lon="-0.10260018347030117"><ele>95.0</ele><time>2026-05-01T14:51:08.001Z</time></trkpt><trkpt lat="45.61309085473752" lon="-0.10268482909146534"><ele>95.0</ele><time>2026-05-01T14:51:10.001Z</time></trkpt><trkpt lat="45.61314397293592" lon="-0.10275181788354724"><ele>95.0</ele><time>2026-05-01T14:51:11.001Z</time></trkpt><trkpt lat="45.613216081311386" lon="-0.10283681427249743"><ele>95.0</ele><time>2026-05-01T14:51:12.001Z</time></trkpt><trkpt lat="45.613289114214666" lon="-0.10291959412849601"><ele>95.0</ele><time>2026-05-01T14:51:13.001Z</time></trkpt><trkpt lat="45.61336586303965" lon="-0.10300764723735839"><ele>95.0</ele><time>2026-05-01T14:51:14.001Z</time></trkpt><trkpt lat="45.613506326693546" lon="-0.10310097466068617"><ele>95.0</ele><time>2026-05-01T14:51:16.001Z</time></trkpt><trkpt lat="45.6136018497726" lon="-0.10313191129651678"><ele>95.0</ele><time>2026-05-01T14:51:17.001Z</time></trkpt><trkpt lat="45.61371127199001" lon="-0.10316192167948623"><ele>95.0</ele><time>2026-05-01T14:51:18.001Z</time></trkpt><trkpt lat="45.613828212108785" lon="-0.10322227797430299"><ele>95.0</ele><time>2026-05-01T14:51:19.001Z</time></trkpt><trkpt lat="45.613923156328724" lon="-0.10331244163614527"><ele>95.0</ele><time>2026-05-01T14:51:20.001Z</time></trkpt><trkpt lat="45.61400288616882" lon="-0.10341236279057558"><ele>95.0</ele><time>2026-05-01T14:51:21.001Z</time></trkpt><trkpt lat="45.61409326539449" lon="-0.10354620590999541"><ele>95.0</ele><time>2026-05-01T14:51:22.001Z</time></trkpt><trkpt lat="45.61419351461439" lon="-0.10368139534303186"><ele>95.0</ele><time>2026-05-01T14:51:23.001Z</time></trkpt><trkpt lat="45.61429584766168" lon="-0.10382157839319553"><ele>95.0</ele><time>2026-05-01T14:51:24.001Z</time></trkpt><trkpt lat="45.614395113573686" lon="-0.10394488984657502"><ele>95.0</ele><time>2026-05-01T14:51:25.001Z</time></trkpt><trkpt lat="45.61448959528258" lon="-0.10406255217834214"><ele>95.0</ele><time>2026-05-01T14:51:26.001Z</time></trkpt><trkpt lat="45.6145733073731" lon="-0.10417619298777647"><ele>95.0</ele><time>2026-05-01T14:51:27.001Z</time></trkpt><trkpt lat="45.6146528572248" lon="-0.10429781746394576"><ele>95.0</ele><time>2026-05-01T14:51:28.001Z</time></trkpt><trkpt lat="45.61473681816736" lon="-0.10441993481588485"><ele>95.0</ele><time>2026-05-01T14:51:29.001Z</time></trkpt><trkpt lat="45.61481635367" lon="-0.10452847250556498"><ele>95.0</ele><time>2026-05-01T14:51:30.001Z</time></trkpt><trkpt lat="45.61489521277016" lon="-0.10462935479273672"><ele>95.0</ele><time>2026-05-01T14:51:31.001Z</time></trkpt><trkpt lat="45.61496390692976" lon="-0.10472421527168213"><ele>95.0</ele><time>2026-05-01T14:51:32.001Z</time></trkpt><trkpt lat="45.6150207775931" lon="-0.10479618949436194"><ele>95.0</ele><time>2026-05-01T14:51:33.001Z</time></trkpt><trkpt lat="45.61509732234779" lon="-0.10486264224400813"><ele>95.0</ele><time>2026-05-01T14:51:35.001Z</time></trkpt><trkpt lat="45.615117852426096" lon="-0.1049720823688549"><ele>95.0</ele><time>2026-05-01T14:51:39.001Z</time></trkpt><trkpt lat="45.61508653891193" lon="-0.10506535933692772"><ele>94.5</ele><time>2026-05-01T14:51:40.001Z</time></trkpt><trkpt lat="45.61501084967128" lon="-0.10517257185448113"><ele>94.0</ele><time>2026-05-01T14:51:41.001Z</time></trkpt><trkpt lat="45.61492846146303" lon="-0.10530056168841098"><ele>93.5</ele><time>2026-05-01T14:51:42.001Z</time></trkpt><trkpt lat="45.61483685392273" lon="-0.10545854030416095"><ele>93.0</ele><time>2026-05-01T14:51:43.001Z</time></trkpt><trkpt lat="45.61473716478133" lon="-0.10564008269727886"><ele>91.66666666666667</ele><time>2026-05-01T14:51:44.001Z</time></trkpt><trkpt lat="45.61463510479224" lon="-0.1058269641030229"><ele>90.33333333333334</ele><time>2026-05-01T14:51:45.001Z</time></trkpt><trkpt lat="45.614533208124236" lon="-0.1060170818047679"><ele>89.0</ele><time>2026-05-01T14:51:46.001Z</time></trkpt><trkpt lat="45.61445044038506" lon="-0.1062008298222782"><ele>88.5</ele><time>2026-05-01T14:51:47.001Z</time></trkpt><trkpt lat="45.61435081530343" lon="-0.10636248108860849"><ele>88.0</ele><time>2026-05-01T14:51:48.001Z</time></trkpt><trkpt lat="45.614263285527294" lon="-0.10653011680445014"><ele>87.5</ele><time>2026-05-01T14:51:49.001Z</time></trkpt><trkpt lat="45.614179164239175" lon="-0.10669376389761581"><ele>87.0</ele><time>2026-05-01T14:51:50.001Z</time></trkpt><trkpt lat="45.61409342959856" lon="-0.10683939058620649"><ele>86.25</ele><time>2026-05-01T14:51:51.001Z</time></trkpt><trkpt lat="45.61400737666712" lon="-0.10700042709513903"><ele>85.5</ele><time>2026-05-01T14:51:52.001Z</time></trkpt><trkpt lat="45.6139197144386" lon="-0.10716024503119706"><ele>84.75</ele><time>2026-05-01T14:51:53.001Z</time></trkpt><trkpt lat="45.61383656119935" lon="-0.10730902997331175"><ele>84.0</ele><time>2026-05-01T14:51:54.001Z</time></trkpt><trkpt lat="45.61375812465392" lon="-0.10745186630452422"><ele>83.6</ele><time>2026-05-01T14:51:55.001Z</time></trkpt><trkpt lat="45.61369176001708" lon="-0.10757303319435492"><ele>83.2</ele><time>2026-05-01T14:51:56.001Z</time></trkpt><trkpt lat="45.613639670719394" lon="-0.10766427429940127"><ele>82.8</ele><time>2026-05-01T14:51:57.001Z</time></trkpt><trkpt lat="45.61359078582239" lon="-0.10775447435693943"><ele>82.39999999999999</ele><time>2026-05-01T14:51:58.001Z</time></trkpt><trkpt lat="45.61356831485664" lon="-0.10784218282409598"><ele>82.0</ele><time>2026-05-01T14:52:00.001Z</time></trkpt><trkpt lat="45.61369036216485" lon="-0.10782868623184697"><ele>82.0</ele><time>2026-05-01T14:52:05.001Z</time></trkpt><trkpt lat="45.61376675018337" lon="-0.10776993613722445"><ele>82.0</ele><time>2026-05-01T14:52:06.001Z</time></trkpt><trkpt lat="45.61386911304255" lon="-0.10771734477985608"><ele>82.0</ele><time>2026-05-01T14:52:07.001Z</time></trkpt><trkpt lat="45.61397717735106" lon="-0.10768645148335534"><ele>82.0</ele><time>2026-05-01T14:52:08.001Z</time></trkpt><trkpt lat="45.61410054170206" lon="-0.1076646165843231"><ele>82.0</ele><time>2026-05-01T14:52:09.001Z</time></trkpt><trkpt lat="45.614223412230665" lon="-0.10763646296007509"><ele>82.0</ele><time>2026-05-01T14:52:10.001Z</time></trkpt><trkpt lat="45.61432407016363" lon="-0.10761714392293842"><ele>82.0</ele><time>2026-05-01T14:52:11.001Z</time></trkpt><trkpt lat="45.61440395562014" lon="-0.10761684583425288"><ele>82.0</ele><time>2026-05-01T14:52:12.001Z</time></trkpt><trkpt lat="45.61449463136188" lon="-0.1076353360280508"><ele>82.0</ele><time>2026-05-01T14:52:13.001Z</time></trkpt><trkpt lat="45.61459408348116" lon="-0.10766972282556976"><ele>82.0</ele><time>2026-05-01T14:52:14.001Z</time></trkpt><trkpt lat="45.614696564964426" lon="-0.10769844194522796"><ele>82.5</ele><time>2026-05-01T14:52:15.002Z</time></trkpt><trkpt lat="45.61481996200392" lon="-0.10772089237587809"><ele>83.0</ele><time>2026-05-01T14:52:16.002Z</time></trkpt><trkpt lat="45.61494491547102" lon="-0.10773750795410496"><ele>83.5</ele><time>2026-05-01T14:52:17.002Z</time></trkpt><trkpt lat="45.615086016037154" lon="-0.10776285935637862"><ele>84.0</ele><time>2026-05-01T14:52:18.002Z</time></trkpt><trkpt lat="45.61522732964067" lon="-0.1077811369260249"><ele>84.75</ele><time>2026-05-01T14:52:19.002Z</time></trkpt><trkpt lat="45.61536398133155" lon="-0.1078036995925867"><ele>85.5</ele><time>2026-05-01T14:52:20.002Z</time></trkpt><trkpt lat="45.61549340054871" lon="-0.1078361983502661"><ele>86.25</ele><time>2026-05-01T14:52:21.002Z</time></trkpt><trkpt lat="45.615622383270505" lon="-0.10787884085332707"><ele>87.0</ele><time>2026-05-01T14:52:22.002Z</time></trkpt><trkpt lat="45.615738476855796" lon="-0.10790428741662908"><ele>87.0</ele><time>2026-05-01T14:52:23.002Z</time></trkpt><trkpt lat="45.615843318566036" lon="-0.1079239309367918"><ele>87.0</ele><time>2026-05-01T14:52:24.002Z</time></trkpt><trkpt lat="45.615935897088306" lon="-0.10793584554814308"><ele>87.0</ele><time>2026-05-01T14:52:25.002Z</time></trkpt><trkpt lat="45.61601324214887" lon="-0.10797374801592782"><ele>87.0</ele><time>2026-05-01T14:52:26.002Z</time></trkpt><trkpt lat="45.61609141527846" lon="-0.10803655078917515"><ele>87.0</ele><time>2026-05-01T14:52:27.002Z</time></trkpt><trkpt lat="45.61618351716112" lon="-0.10812755488780489"><ele>87.19999999999999</ele><time>2026-05-01T14:52:28.002Z</time></trkpt><trkpt lat="45.616253561743655" lon="-0.10824348463155303"><ele>87.4</ele><time>2026-05-01T14:52:29.002Z</time></trkpt><trkpt lat="45.616331170399235" lon="-0.10832171441799465"><ele>87.6</ele><time>2026-05-01T14:52:30.002Z</time></trkpt><trkpt lat="45.616443035116326" lon="-0.10839047140815207"><ele>87.80000000000001</ele><time>2026-05-01T14:52:31.002Z</time></trkpt><trkpt lat="45.61655071157472" lon="-0.10844296540697719"><ele>88.0</ele><time>2026-05-01T14:52:32.002Z</time></trkpt><trkpt lat="45.616656680221105" lon="-0.10847399167924127"><ele>88.0</ele><time>2026-05-01T14:52:33.002Z</time></trkpt><trkpt lat="45.616769601731136" lon="-0.10853463099688603"><ele>88.0</ele><time>2026-05-01T14:52:34.002Z</time></trkpt><trkpt lat="45.616878163170114" lon="-0.10858007580744225"><ele>88.0</ele><time>2026-05-01T14:52:35.002Z</time></trkpt><trkpt lat="45.61699643170277" lon="-0.10862596437209972"><ele>88.0</ele><time>2026-05-01T14:52:36.002Z</time></trkpt><trkpt lat="45.617110080986706" lon="-0.10866094674220701"><ele>88.4</ele><time>2026-05-01T14:52:37.002Z</time></trkpt><trkpt lat="45.617229665183004" lon="-0.10868889132959392"><ele>88.80000000000001</ele><time>2026-05-01T14:52:38.002Z</time></trkpt><trkpt lat="45.617344645977724" lon="-0.10871022465748764"><ele>89.2</ele><time>2026-05-01T14:52:39.002Z</time></trkpt><trkpt lat="45.617445670199324" lon="-0.10874626470973273"><ele>89.6</ele><time>2026-05-01T14:52:40.002Z</time></trkpt><trkpt lat="45.61754009869703" lon="-0.10878648509185261"><ele>90.0</ele><time>2026-05-01T14:52:41.002Z</time></trkpt><trkpt lat="45.61764888537197" lon="-0.10882761197120187"><ele>90.0</ele><time>2026-05-01T14:52:42.002Z</time></trkpt><trkpt lat="45.61775264617268" lon="-0.10886766016175975"><ele>90.0</ele><time>2026-05-01T14:52:43.002Z</time></trkpt><trkpt lat="45.61785774229606" lon="-0.10892183538829112"><ele>90.0</ele><time>2026-05-01T14:52:44.002Z</time></trkpt><trkpt lat="45.61797526411853" lon="-0.10899936744503083"><ele>90.0</ele><time>2026-05-01T14:52:45.002Z</time></trkpt><trkpt lat="45.61807274761113" lon="-0.10906274315732782"><ele>89.25</ele><time>2026-05-01T14:52:46.002Z</time></trkpt><trkpt lat="45.618184359230895" lon="-0.10914002288948244"><ele>88.5</ele><time>2026-05-01T14:52:47.002Z</time></trkpt><trkpt lat="45.618290303967385" lon="-0.10921761978936508"><ele>87.75</ele><time>2026-05-01T14:52:48.002Z</time></trkpt><trkpt lat="45.618403751212995" lon="-0.10930162733779519"><ele>87.0</ele><time>2026-05-01T14:52:49.001Z</time></trkpt><trkpt lat="45.61851484183099" lon="-0.10936399373210239"><ele>87.0</ele><time>2026-05-01T14:52:50.001Z</time></trkpt><trkpt lat="45.61861239171725" lon="-0.10940597829866282"><ele>87.0</ele><time>2026-05-01T14:52:51.001Z</time></trkpt><trkpt lat="45.61871150909879" lon="-0.10946485268162562"><ele>87.0</ele><time>2026-05-01T14:52:52.001Z</time></trkpt><trkpt lat="45.61881611601042" lon="-0.10953700241539785"><ele>87.0</ele><time>2026-05-01T14:52:53.001Z</time></trkpt><trkpt lat="45.618924396613636" lon="-0.10962395861005828"><ele>87.0</ele><time>2026-05-01T14:52:54.001Z</time></trkpt><trkpt lat="45.61902606289379" lon="-0.10971350463737113"><ele>87.0</ele><time>2026-05-01T14:52:55.001Z</time></trkpt><trkpt lat="45.61912593983306" lon="-0.10980430670123796"><ele>87.0</ele><time>2026-05-01T14:52:56.001Z</time></trkpt><trkpt lat="45.61922572780837" lon="-0.10990441146929776"><ele>87.0</ele><time>2026-05-01T14:52:57.001Z</time></trkpt><trkpt lat="45.619325386656946" lon="-0.11002233818176846"><ele>87.25</ele><time>2026-05-01T14:52:58.001Z</time></trkpt><trkpt lat="45.61941786393045" lon="-0.11014555762442216"><ele>87.5</ele><time>2026-05-01T14:52:59.001Z</time></trkpt><trkpt lat="45.619495763891216" lon="-0.11027411287367635"><ele>87.75</ele><time>2026-05-01T14:53:00.001Z</time></trkpt><trkpt lat="45.61957112103616" lon="-0.1104020888057365"><ele>88.0</ele><time>2026-05-01T14:53:01.001Z</time></trkpt><trkpt lat="45.619640780980156" lon="-0.11054029845970673"><ele>88.5</ele><time>2026-05-01T14:53:02.001Z</time></trkpt><trkpt lat="45.61972431481032" lon="-0.11066174363679189"><ele>89.0</ele><time>2026-05-01T14:53:03.001Z</time></trkpt><trkpt lat="45.619820259454976" lon="-0.11077937660486303"><ele>89.5</ele><time>2026-05-01T14:53:04.001Z</time></trkpt><trkpt lat="45.619934888429235" lon="-0.11091270614125336"><ele>90.0</ele><time>2026-05-01T14:53:05.001Z</time></trkpt><trkpt lat="45.619999914669755" lon="-0.111044743860613"><ele>90.0</ele><time>2026-05-01T14:53:06.001Z</time></trkpt><trkpt lat="45.62006547543979" lon="-0.11117249468750609"><ele>90.0</ele><time>2026-05-01T14:53:07.001Z</time></trkpt><trkpt lat="45.62013664274176" lon="-0.11130732926175897"><ele>90.0</ele><time>2026-05-01T14:53:08.001Z</time></trkpt><trkpt lat="45.62019000592838" lon="-0.11140622011467524"><ele>90.0</ele><time>2026-05-01T14:53:09.001Z</time></trkpt><trkpt lat="45.620265122277026" lon="-0.11151331135786963"><ele>90.0</ele><time>2026-05-01T14:53:11.001Z</time></trkpt><trkpt lat="45.62022859324545" lon="-0.11163384645937104"><ele>90.0</ele><time>2026-05-01T14:53:14.001Z</time></trkpt><trkpt lat="45.62016200188877" lon="-0.11167873725867684"><ele>90.0</ele><time>2026-05-01T14:53:15.001Z</time></trkpt><trkpt lat="45.62006767066777" lon="-0.11171262850685446"><ele>90.0</ele><time>2026-05-01T14:53:16.001Z</time></trkpt><trkpt lat="45.619967776314105" lon="-0.11178118471919864"><ele>90.0</ele><time>2026-05-01T14:53:17.001Z</time></trkpt><trkpt lat="45.61986069298113" lon="-0.11188514244563921"><ele>90.0</ele><time>2026-05-01T14:53:18.001Z</time></trkpt><trkpt lat="45.61974421103406" lon="-0.11202086221848243"><ele>90.0</ele><time>2026-05-01T14:53:19.001Z</time></trkpt><trkpt lat="45.61963983028664" lon="-0.11213837918712345"><ele>90.0</ele><time>2026-05-01T14:53:20.001Z</time></trkpt><trkpt lat="45.61954329716257" lon="-0.11224474080195944"><ele>90.0</ele><time>2026-05-01T14:53:21.001Z</time></trkpt><trkpt lat="45.61947301598669" lon="-0.11234487297349899"><ele>90.0</ele><time>2026-05-01T14:53:22.001Z</time></trkpt><trkpt lat="45.61940978220748" lon="-0.11239669800581512"><ele>90.0</ele><time>2026-05-01T14:53:23.001Z</time></trkpt><trkpt lat="45.61933821259119" lon="-0.11251729521305527"><ele>89.0</ele><time>2026-05-01T14:53:24.001Z</time></trkpt><trkpt lat="45.61927587002443" lon="-0.11260255713212781"><ele>88.0</ele><time>2026-05-01T14:53:25.001Z</time></trkpt><trkpt lat="45.61921773207386" lon="-0.11271946027316478"><ele>87.0</ele><time>2026-05-01T14:53:26.001Z</time></trkpt><trkpt lat="45.61912719529499" lon="-0.11284774147191981"><ele>86.0</ele><time>2026-05-01T14:53:27.001Z</time></trkpt><trkpt lat="45.619044796765735" lon="-0.11296626773148621"><ele>85.0</ele><time>2026-05-01T14:53:28.001Z</time></trkpt><trkpt lat="45.61895798801136" lon="-0.11307982729340438"><ele>84.0</ele><time>2026-05-01T14:53:29.001Z</time></trkpt><trkpt lat="45.61881304393171" lon="-0.11325883650241952"><ele>83.0</ele><time>2026-05-01T14:53:31.001Z</time></trkpt><trkpt lat="45.61875986184718" lon="-0.11338715173286208"><ele>82.0</ele><time>2026-05-01T14:53:32.001Z</time></trkpt><trkpt lat="45.61871976447527" lon="-0.11354952389948737"><ele>81.0</ele><time>2026-05-01T14:53:33.001Z</time></trkpt><trkpt lat="45.61866586950012" lon="-0.11367751476770815"><ele>79.6</ele><time>2026-05-01T14:53:34.001Z</time></trkpt><trkpt lat="45.61862055278421" lon="-0.11381051559129648"><ele>78.19999999999999</ele><time>2026-05-01T14:53:35.001Z</time></trkpt><trkpt lat="45.61856776067722" lon="-0.11393649365816677"><ele>76.80000000000001</ele><time>2026-05-01T14:53:36.001Z</time></trkpt><trkpt lat="45.61851472664155" lon="-0.11406751275091272"><ele>75.4</ele><time>2026-05-01T14:53:37.001Z</time></trkpt><trkpt lat="45.61846023513257" lon="-0.11418632039854446"><ele>74.0</ele><time>2026-05-01T14:53:38.001Z</time></trkpt><trkpt lat="45.6184030588303" lon="-0.11428265678824659"><ele>73.2</ele><time>2026-05-01T14:53:39.001Z</time></trkpt><trkpt lat="45.61834807064426" lon="-0.11441904047624242"><ele>72.4</ele><time>2026-05-01T14:53:40.001Z</time></trkpt><trkpt lat="45.61830145227541" lon="-0.1145398897899412"><ele>71.6</ele><time>2026-05-01T14:53:41.001Z</time></trkpt><trkpt lat="45.6182495008982" lon="-0.11463806633394567"><ele>70.8</ele><time>2026-05-01T14:53:42.001Z</time></trkpt><trkpt lat="45.6182136457303" lon="-0.11472650373065263"><ele>70.0</ele><time>2026-05-01T14:53:43.001Z</time></trkpt><trkpt lat="45.618129639240124" lon="-0.11486893657741072"><ele>69.33333333333333</ele><time>2026-05-01T14:53:45.001Z</time></trkpt><trkpt lat="45.61803965369474" lon="-0.11498898081852145"><ele>68.66666666666666</ele><time>2026-05-01T14:53:47.001Z</time></trkpt><trkpt lat="45.6179844277584" lon="-0.11505912469966377"><ele>68.0</ele><time>2026-05-01T14:53:48.001Z</time></trkpt><trkpt lat="45.617932836284595" lon="-0.1151213310039983"><ele>67.33333333333333</ele><time>2026-05-01T14:53:49.001Z</time></trkpt><trkpt lat="45.61787241653753" lon="-0.11521092214380019"><ele>66.66666666666667</ele><time>2026-05-01T14:53:51.001Z</time></trkpt><trkpt lat="45.61781891486704" lon="-0.11526994135369197"><ele>66.0</ele><time>2026-05-01T14:53:53.001Z</time></trkpt><trkpt lat="45.617746539118606" lon="-0.11533121059717791"><ele>65.16666666666667</ele><time>2026-05-01T14:53:55.001Z</time></trkpt><trkpt lat="45.617664679043074" lon="-0.11535072019142696"><ele>64.33333333333333</ele><time>2026-05-01T14:53:56.001Z</time></trkpt><trkpt lat="45.61758572054676" lon="-0.11539025359626283"><ele>63.5</ele><time>2026-05-01T14:53:57.001Z</time></trkpt><trkpt lat="45.617497223952114" lon="-0.11541654728749215"><ele>62.666666666666664</ele><time>2026-05-01T14:53:58.001Z</time></trkpt><trkpt lat="45.61742172037595" lon="-0.11547319919110653"><ele>61.83333333333333</ele><time>2026-05-01T14:53:59.001Z</time></trkpt><trkpt lat="45.61735019023454" lon="-0.11554736347086551"><ele>61.0</ele><time>2026-05-01T14:54:00.001Z</time></trkpt><trkpt lat="45.61727242458688" lon="-0.11563451843949202"><ele>61.0</ele><time>2026-05-01T14:54:01.001Z</time></trkpt><trkpt lat="45.61720067480872" lon="-0.11571436932431832"><ele>60.99999999999999</ele><time>2026-05-01T14:54:02.001Z</time></trkpt><trkpt lat="45.617112802608204" lon="-0.11580450580559604"><ele>60.99999999999999</ele><time>2026-05-01T14:54:03.001Z</time></trkpt><trkpt lat="45.61704570217153" lon="-0.11588634604493739"><ele>61.0</ele><time>2026-05-01T14:54:04.001Z</time></trkpt><trkpt lat="45.61699017403638" lon="-0.11596848532922391"><ele>61.0</ele><time>2026-05-01T14:54:05.001Z</time></trkpt><trkpt lat="45.61692923281087" lon="-0.1160633677120415"><ele>61.83333333333333</ele><time>2026-05-01T14:54:06.001Z</time></trkpt><trkpt lat="45.616884940768315" lon="-0.11613695363316995"><ele>62.666666666666664</ele><time>2026-05-01T14:54:07.001Z</time></trkpt><trkpt lat="45.61678941969753" lon="-0.11625778983233165"><ele>63.5</ele><time>2026-05-01T14:54:09.001Z</time></trkpt><trkpt lat="45.61674429837394" lon="-0.1163323431150195"><ele>64.33333333333333</ele><time>2026-05-01T14:54:10.001Z</time></trkpt><trkpt lat="45.61670157762644" lon="-0.11640595567095648"><ele>65.16666666666667</ele><time>2026-05-01T14:54:11.001Z</time></trkpt><trkpt lat="45.61664070069254" lon="-0.1164774694265693"><ele>66.0</ele><time>2026-05-01T14:54:12.001Z</time></trkpt><trkpt lat="45.61659218615607" lon="-0.11654852150789118"><ele>66.14285714285714</ele><time>2026-05-01T14:54:13.001Z</time></trkpt><trkpt lat="45.61654934819378" lon="-0.11661684253003228"><ele>66.28571428571429</ele><time>2026-05-01T14:54:14.001Z</time></trkpt><trkpt lat="45.61650037503045" lon="-0.11668853981787802"><ele>66.42857142857143</ele><time>2026-05-01T14:54:15.001Z</time></trkpt><trkpt lat="45.616448742402646" lon="-0.11676348212927935"><ele>66.57142857142857</ele><time>2026-05-01T14:54:16.001Z</time></trkpt><trkpt lat="45.616397855083676" lon="-0.11685096379570017"><ele>66.71428571428571</ele><time>2026-05-01T14:54:17.001Z</time></trkpt><trkpt lat="45.61634895608676" lon="-0.116937534760328"><ele>66.85714285714286</ele><time>2026-05-01T14:54:18.001Z</time></trkpt><trkpt lat="45.61630315404076" lon="-0.117031568987682"><ele>67.0</ele><time>2026-05-01T14:54:19.001Z</time></trkpt><trkpt lat="45.6162579440709" lon="-0.11712268575012774"><ele>67.0</ele><time>2026-05-01T14:54:20.001Z</time></trkpt><trkpt lat="45.616209934976375" lon="-0.11721813430805605"><ele>67.0</ele><time>2026-05-01T14:54:21.002Z</time></trkpt><trkpt lat="45.616164932212904" lon="-0.11729959449989485"><ele>67.0</ele><time>2026-05-01T14:54:22.002Z</time></trkpt><trkpt lat="45.616113636593354" lon="-0.11740165538921718"><ele>67.0</ele><time>2026-05-01T14:54:23.002Z</time></trkpt><trkpt lat="45.61606500751932" lon="-0.11750006843739418"><ele>67.0</ele><time>2026-05-01T14:54:24.002Z</time></trkpt><trkpt lat="45.61601617148742" lon="-0.11760411876084217"><ele>67.0</ele><time>2026-05-01T14:54:25.002Z</time></trkpt><trkpt lat="45.615967707808636" lon="-0.11770765637513939"><ele>66.71428571428572</ele><time>2026-05-01T14:54:26.002Z</time></trkpt><trkpt lat="45.61592241324772" lon="-0.11779752267048883"><ele>66.42857142857143</ele><time>2026-05-01T14:54:27.002Z</time></trkpt><trkpt lat="45.61587308066041" lon="-0.11787802718388121"><ele>66.14285714285714</ele><time>2026-05-01T14:54:28.002Z</time></trkpt><trkpt lat="45.6158197431614" lon="-0.11795135809001092"><ele>65.85714285714286</ele><time>2026-05-01T14:54:29.002Z</time></trkpt><trkpt lat="45.61576956544289" lon="-0.11802440060217913"><ele>65.57142857142857</ele><time>2026-05-01T14:54:30.002Z</time></trkpt><trkpt lat="45.61572263146569" lon="-0.11810294741243084"><ele>65.28571428571429</ele><time>2026-05-01T14:54:31.002Z</time></trkpt><trkpt lat="45.615671937761846" lon="-0.11817403574677286"><ele>65.0</ele><time>2026-05-01T14:54:32.002Z</time></trkpt><trkpt lat="45.61562520870098" lon="-0.11824090747404356"><ele>64.5</ele><time>2026-05-01T14:54:33.002Z</time></trkpt><trkpt lat="45.6155803730329" lon="-0.11830943394287752"><ele>64.0</ele><time>2026-05-01T14:54:34.002Z</time></trkpt><trkpt lat="45.61553389738855" lon="-0.11837853168575711"><ele>63.5</ele><time>2026-05-01T14:54:35.002Z</time></trkpt><trkpt lat="45.6154770649421" lon="-0.11845859331909399"><ele>63.0</ele><time>2026-05-01T14:54:36.002Z</time></trkpt><trkpt lat="45.615424727740425" lon="-0.11854582432687931"><ele>62.50000000000001</ele><time>2026-05-01T14:54:37.002Z</time></trkpt><trkpt lat="45.61536660041769" lon="-0.11863006163702523"><ele>62.0</ele><time>2026-05-01T14:54:38.002Z</time></trkpt><trkpt lat="45.61530074378266" lon="-0.11873073856034982"><ele>61.0</ele><time>2026-05-01T14:54:39.002Z</time></trkpt><trkpt lat="45.61523857157218" lon="-0.11883300822798525"><ele>60.0</ele><time>2026-05-01T14:54:40.002Z</time></trkpt><trkpt lat="45.615171974161875" lon="-0.11893646829246703"><ele>59.0</ele><time>2026-05-01T14:54:41.002Z</time></trkpt><trkpt lat="45.61510775315941" lon="-0.11903738957620157"><ele>58.0</ele><time>2026-05-01T14:54:42.002Z</time></trkpt><trkpt lat="45.61504168881182" lon="-0.11913477451876137"><ele>57.0</ele><time>2026-05-01T14:54:43.002Z</time></trkpt><trkpt lat="45.61497727095714" lon="-0.11923012238481062"><ele>56.333333333333336</ele><time>2026-05-01T14:54:44.002Z</time></trkpt><trkpt lat="45.614914602120685" lon="-0.11932462049227543"><ele>55.66666666666667</ele><time>2026-05-01T14:54:45.002Z</time></trkpt><trkpt lat="45.61485695154247" lon="-0.11941946683118958"><ele>55.0</ele><time>2026-05-01T14:54:46.002Z</time></trkpt><trkpt lat="45.61479597501648" lon="-0.11951319225801073"><ele>54.333333333333336</ele><time>2026-05-01T14:54:47.002Z</time></trkpt><trkpt lat="45.614736944028316" lon="-0.11958964901748892"><ele>53.66666666666667</ele><time>2026-05-01T14:54:48.002Z</time></trkpt><trkpt lat="45.614676050447294" lon="-0.11966544798858447"><ele>53.0</ele><time>2026-05-01T14:54:49.002Z</time></trkpt><trkpt lat="45.61461630038385" lon="-0.11974681341978011"><ele>53.00000000000001</ele><time>2026-05-01T14:54:50.002Z</time></trkpt><trkpt lat="45.61456122739507" lon="-0.11982822739501167"><ele>53.0</ele><time>2026-05-01T14:54:51.002Z</time></trkpt><trkpt lat="45.61450700848349" lon="-0.11991272561394574"><ele>53.0</ele><time>2026-05-01T14:54:52.002Z</time></trkpt><trkpt lat="45.61444988448117" lon="-0.11999524375209064"><ele>53.0</ele><time>2026-05-01T14:54:53.002Z</time></trkpt><trkpt lat="45.61439413992825" lon="-0.12007259132467243"><ele>53.00000000000001</ele><time>2026-05-01T14:54:54.002Z</time></trkpt><trkpt lat="45.614336950414625" lon="-0.12014649993940797"><ele>53.0</ele><time>2026-05-01T14:54:55.001Z</time></trkpt><trkpt lat="45.61428522856005" lon="-0.12022005840332832"><ele>52.2</ele><time>2026-05-01T14:54:56.001Z</time></trkpt><trkpt lat="45.61423224016608" lon="-0.12028930300874795"><ele>51.4</ele><time>2026-05-01T14:54:57.001Z</time></trkpt><trkpt lat="45.61415803080187" lon="-0.12039584387033649"><ele>50.6</ele><time>2026-05-01T14:54:59.001Z</time></trkpt><trkpt lat="45.61412530079903" lon="-0.12050209221930704"><ele>49.800000000000004</ele><time>2026-05-01T14:55:01.001Z</time></trkpt><trkpt lat="45.614212900757074" lon="-0.12062112397100587"><ele>49.0</ele><time>2026-05-01T14:55:02.001Z</time></trkpt><trkpt lat="45.614268821152294" lon="-0.12071356944925181"><ele>48.800000000000004</ele><time>2026-05-01T14:55:03.001Z</time></trkpt><trkpt lat="45.61432885008354" lon="-0.12081809878364283"><ele>48.6</ele><time>2026-05-01T14:55:04.001Z</time></trkpt><trkpt lat="45.61439364847052" lon="-0.12093232714354357"><ele>48.4</ele><time>2026-05-01T14:55:05.001Z</time></trkpt><trkpt lat="45.614459723153736" lon="-0.12104730966955798"><ele>48.2</ele><time>2026-05-01T14:55:06.001Z</time></trkpt><trkpt lat="45.61453429036419" lon="-0.12116890272390395"><ele>48.0</ele><time>2026-05-01T14:55:07.001Z</time></trkpt><trkpt lat="45.6146170310968" lon="-0.12129137949289392"><ele>48.0</ele><time>2026-05-01T14:55:08.001Z</time></trkpt><trkpt lat="45.61470108682245" lon="-0.12140853256786771"><ele>48.0</ele><time>2026-05-01T14:55:09.001Z</time></trkpt><trkpt lat="45.61478202254298" lon="-0.12153202759745052"><ele>48.0</ele><time>2026-05-01T14:55:10.001Z</time></trkpt><trkpt lat="45.61486266292056" lon="-0.12164825825841998"><ele>48.0</ele><time>2026-05-01T14:55:11.001Z</time></trkpt><trkpt lat="45.61495885908427" lon="-0.12178121215825694"><ele>47.333333333333336</ele><time>2026-05-01T14:55:12.001Z</time></trkpt><trkpt lat="45.615063147391254" lon="-0.12192246075303917"><ele>46.66666666666667</ele><time>2026-05-01T14:55:13.001Z</time></trkpt><trkpt lat="45.61518286993422" lon="-0.12208593556553195"><ele>46.0</ele><time>2026-05-01T14:55:14.001Z</time></trkpt><trkpt lat="45.615316991707964" lon="-0.12227968656938012"><ele>46.0</ele><time>2026-05-01T14:55:15.001Z</time></trkpt><trkpt lat="45.61546299237436" lon="-0.12248097186927327"><ele>46.0</ele><time>2026-05-01T14:55:16.001Z</time></trkpt><trkpt lat="45.615620177004736" lon="-0.1226915498911078"><ele>46.0</ele><time>2026-05-01T14:55:17.001Z</time></trkpt><trkpt lat="45.61579466476946" lon="-0.12290050741819442"><ele>46.0</ele><time>2026-05-01T14:55:18.001Z</time></trkpt><trkpt lat="45.615985061069736" lon="-0.12309907513217169"><ele>46.0</ele><time>2026-05-01T14:55:19.001Z</time></trkpt><trkpt lat="45.616185693872055" lon="-0.12329201491665381"><ele>46.0</ele><time>2026-05-01T14:55:20.001Z</time></trkpt><trkpt lat="45.61638071658783" lon="-0.12348330635129315"><ele>46.0</ele><time>2026-05-01T14:55:21.001Z</time></trkpt><trkpt lat="45.616563428363385" lon="-0.1236733959648894"><ele>46.0</ele><time>2026-05-01T14:55:22.001Z</time></trkpt><trkpt lat="45.6167283190652" lon="-0.12386098285486596"><ele>46.0</ele><time>2026-05-01T14:55:23.001Z</time></trkpt><trkpt lat="45.616879445790936" lon="-0.12408079990924613"><ele>46.0</ele><time>2026-05-01T14:55:24.001Z</time></trkpt><trkpt lat="45.61703619233955" lon="-0.12431874088054248"><ele>46.5</ele><time>2026-05-01T14:55:25.001Z</time></trkpt><trkpt lat="45.61719886348742" lon="-0.12455402485403659"><ele>47.0</ele><time>2026-05-01T14:55:26.001Z</time></trkpt><trkpt lat="45.61737607868151" lon="-0.12477352906909803"><ele>47.666666666666664</ele><time>2026-05-01T14:55:27.001Z</time></trkpt><trkpt lat="45.61755402480304" lon="-0.12497492678386779"><ele>48.33333333333333</ele><time>2026-05-01T14:55:28.001Z</time></trkpt><trkpt lat="45.617716910490415" lon="-0.12515021246600716"><ele>49.0</ele><time>2026-05-01T14:55:29.001Z</time></trkpt><trkpt lat="45.61788623289189" lon="-0.12528153656053578"><ele>49.666666666666664</ele><time>2026-05-01T14:55:30.001Z</time></trkpt><trkpt lat="45.61803091397566" lon="-0.12543177891093535"><ele>50.33333333333333</ele><time>2026-05-01T14:55:31.001Z</time></trkpt><trkpt lat="45.61819407923154" lon="-0.12555895351487423"><ele>51.0</ele><time>2026-05-01T14:55:32.001Z</time></trkpt><trkpt lat="45.61834726543691" lon="-0.12567694996269685"><ele>51.0</ele><time>2026-05-01T14:55:33.001Z</time></trkpt><trkpt lat="45.61848425630189" lon="-0.1257884681474696"><ele>51.0</ele><time>2026-05-01T14:55:34.001Z</time></trkpt><trkpt lat="45.618619616788564" lon="-0.12591967096265663"><ele>51.0</ele><time>2026-05-01T14:55:35.001Z</time></trkpt><trkpt lat="45.6187475602082" lon="-0.12607319538340575"><ele>50.66666666666667</ele><time>2026-05-01T14:55:36.001Z</time></trkpt><trkpt lat="45.61887327209739" lon="-0.1262615099398105"><ele>50.333333333333336</ele><time>2026-05-01T14:55:37.001Z</time></trkpt><trkpt lat="45.619001780249256" lon="-0.12647170535789906"><ele>50.0</ele><time>2026-05-01T14:55:38.001Z</time></trkpt><trkpt lat="45.61913184294738" lon="-0.12668771270499643"><ele>49.66666666666667</ele><time>2026-05-01T14:55:39.001Z</time></trkpt><trkpt lat="45.61926822629768" lon="-0.12690172847548795"><ele>49.33333333333333</ele><time>2026-05-01T14:55:40.001Z</time></trkpt><trkpt lat="45.61941350709063" lon="-0.12712623999827832"><ele>49.0</ele><time>2026-05-01T14:55:41.001Z</time></trkpt><trkpt lat="45.619562645987216" lon="-0.12734974345316483"><ele>48.666666666666664</ele><time>2026-05-01T14:55:42.001Z</time></trkpt><trkpt lat="45.61969693949689" lon="-0.12755769035874318"><ele>48.33333333333333</ele><time>2026-05-01T14:55:43.001Z</time></trkpt><trkpt lat="45.61982240502603" lon="-0.12778885206093243"><ele>48.0</ele><time>2026-05-01T14:55:44.001Z</time></trkpt><trkpt lat="45.6199317781872" lon="-0.12802123856352515"><ele>47.666666666666664</ele><time>2026-05-01T14:55:45.001Z</time></trkpt><trkpt lat="45.620032959678575" lon="-0.12824536492606936"><ele>47.33333333333333</ele><time>2026-05-01T14:55:46.001Z</time></trkpt><trkpt lat="45.62012760667387" lon="-0.12846078309112188"><ele>47.0</ele><time>2026-05-01T14:55:47.001Z</time></trkpt><trkpt lat="45.62022524262182" lon="-0.1286619882423299"><ele>47.0</ele><time>2026-05-01T14:55:48.001Z</time></trkpt><trkpt lat="45.62033610787718" lon="-0.12882811274805805"><ele>47.0</ele><time>2026-05-01T14:55:49.001Z</time></trkpt><trkpt lat="45.62045835258254" lon="-0.1289718296725324"><ele>47.0</ele><time>2026-05-01T14:55:50.001Z</time></trkpt><trkpt lat="45.620578093609765" lon="-0.1291270776122428"><ele>47.33333333333333</ele><time>2026-05-01T14:55:51.001Z</time></trkpt><trkpt lat="45.620713970886634" lon="-0.12924450212445432"><ele>47.666666666666664</ele><time>2026-05-01T14:55:52.001Z</time></trkpt><trkpt lat="45.62086913884481" lon="-0.1293506333269051"><ele>48.0</ele><time>2026-05-01T14:55:53.001Z</time></trkpt><trkpt lat="45.62103398472788" lon="-0.12942199866933238"><ele>48.0</ele><time>2026-05-01T14:55:54.001Z</time></trkpt><trkpt lat="45.62117395937023" lon="-0.1295289692275452"><ele>48.0</ele><time>2026-05-01T14:55:55.001Z</time></trkpt><trkpt lat="45.62128510389096" lon="-0.12968926628564426"><ele>48.0</ele><time>2026-05-01T14:55:56.001Z</time></trkpt><trkpt lat="45.62139703617486" lon="-0.1298602430325091"><ele>48.66666666666667</ele><time>2026-05-01T14:55:57.001Z</time></trkpt><trkpt lat="45.6215071251594" lon="-0.13006549606355955"><ele>49.333333333333336</ele><time>2026-05-01T14:55:58.001Z</time></trkpt><trkpt lat="45.62161705332571" lon="-0.13028511612961924"><ele>50.0</ele><time>2026-05-01T14:55:59.001Z</time></trkpt><trkpt lat="45.62173717390978" lon="-0.13049859756937002"><ele>50.0</ele><time>2026-05-01T14:56:00.001Z</time></trkpt><trkpt lat="45.621862743742305" lon="-0.1307110762677625"><ele>50.0</ele><time>2026-05-01T14:56:01.001Z</time></trkpt><trkpt lat="45.62198925993394" lon="-0.13092248805427084"><ele>50.0</ele><time>2026-05-01T14:56:02.001Z</time></trkpt><trkpt lat="45.62212093664713" lon="-0.13113626114656526"><ele>50.333333333333336</ele><time>2026-05-01T14:56:03.001Z</time></trkpt><trkpt lat="45.622256393935835" lon="-0.13135060632853104"><ele>50.66666666666667</ele><time>2026-05-01T14:56:04.001Z</time></trkpt><trkpt lat="45.6223897107006" lon="-0.13156842913006617"><ele>51.0</ele><time>2026-05-01T14:56:05.001Z</time></trkpt><trkpt lat="45.62252724701333" lon="-0.131788041631174"><ele>51.66666666666667</ele><time>2026-05-01T14:56:06.001Z</time></trkpt><trkpt lat="45.62266359314059" lon="-0.1320052529635689"><ele>52.333333333333336</ele><time>2026-05-01T14:56:07.001Z</time></trkpt><trkpt lat="45.62279566985595" lon="-0.13222340644598193"><ele>53.0</ele><time>2026-05-01T14:56:08.001Z</time></trkpt><trkpt lat="45.622896515167824" lon="-0.1324113552553371"><ele>53.333333333333336</ele><time>2026-05-01T14:56:09.001Z</time></trkpt><trkpt lat="45.62304008298818" lon="-0.13264833207869128"><ele>53.66666666666667</ele><time>2026-05-01T14:56:10.001Z</time></trkpt><trkpt lat="45.623157833924175" lon="-0.13286907438082504"><ele>54.0</ele><time>2026-05-01T14:56:11.001Z</time></trkpt><trkpt lat="45.623268181181025" lon="-0.1331055093201237"><ele>54.33333333333333</ele><time>2026-05-01T14:56:12.001Z</time></trkpt><trkpt lat="45.62337767024795" lon="-0.13333901873555462"><ele>54.666666666666664</ele><time>2026-05-01T14:56:13.001Z</time></trkpt><trkpt lat="45.62348787044016" lon="-0.13357389453206595"><ele>55.0</ele><time>2026-05-01T14:56:14.001Z</time></trkpt><trkpt lat="45.62360083539788" lon="-0.1338006259836516"><ele>55.0</ele><time>2026-05-01T14:56:15.001Z</time></trkpt><trkpt lat="45.623712374245144" lon="-0.13403849310545526"><ele>55.0</ele><time>2026-05-01T14:56:16.001Z</time></trkpt><trkpt lat="45.62382987391842" lon="-0.13426586146796665"><ele>55.0</ele><time>2026-05-01T14:56:17.001Z</time></trkpt><trkpt lat="45.6239488874556" lon="-0.13450029429962035"><ele>55.0</ele><time>2026-05-01T14:56:18.001Z</time></trkpt><trkpt lat="45.62405965283081" lon="-0.13472048075519805"><ele>55.0</ele><time>2026-05-01T14:56:19.001Z</time></trkpt><trkpt lat="45.62415806548186" lon="-0.13492246301285787"><ele>55.0</ele><time>2026-05-01T14:56:20.001Z</time></trkpt><trkpt lat="45.62423872275137" lon="-0.13511211711880663"><ele>55.33333333333333</ele><time>2026-05-01T14:56:21.001Z</time></trkpt><trkpt lat="45.6242923954233" lon="-0.1353305736331739"><ele>55.66666666666667</ele><time>2026-05-01T14:56:22.001Z</time></trkpt><trkpt lat="45.624330619368166" lon="-0.13558792152510257"><ele>56.0</ele><time>2026-05-01T14:56:23.001Z</time></trkpt><trkpt lat="45.62437663639975" lon="-0.13583071377403264"><ele>56.333333333333336</ele><time>2026-05-01T14:56:24.001Z</time></trkpt><trkpt lat="45.624466506322435" lon="-0.1360592879889774"><ele>56.66666666666667</ele><time>2026-05-01T14:56:25.001Z</time></trkpt><trkpt lat="45.6246010663669" lon="-0.13625316959457628"><ele>57.0</ele><time>2026-05-01T14:56:26.001Z</time></trkpt><trkpt lat="45.624721087277315" lon="-0.13647303099968572"><ele>57.0</ele><time>2026-05-01T14:56:27.001Z</time></trkpt><trkpt lat="45.624854289091715" lon="-0.13665440708419885"><ele>57.0</ele><time>2026-05-01T14:56:28.001Z</time></trkpt><trkpt lat="45.62497344639629" lon="-0.13681945298557247"><ele>57.0</ele><time>2026-05-01T14:56:29.001Z</time></trkpt><trkpt lat="45.62509125305691" lon="-0.13696746480208974"><ele>57.0</ele><time>2026-05-01T14:56:30.001Z</time></trkpt><trkpt lat="45.62518866510843" lon="-0.1371265820931851"><ele>57.0</ele><time>2026-05-01T14:56:31.001Z</time></trkpt><trkpt lat="45.62528453224987" lon="-0.1372815194176507"><ele>57.0</ele><time>2026-05-01T14:56:32.001Z</time></trkpt><trkpt lat="45.62537788044833" lon="-0.13745849776080946"><ele>57.0</ele><time>2026-05-01T14:56:33.001Z</time></trkpt><trkpt lat="45.62547344396409" lon="-0.13765892018028628"><ele>56.33333333333333</ele><time>2026-05-01T14:56:34.001Z</time></trkpt><trkpt lat="45.625593604965985" lon="-0.13787759585211423"><ele>55.666666666666664</ele><time>2026-05-01T14:56:35.001Z</time></trkpt><trkpt lat="45.625702800453254" lon="-0.1380869375786298"><ele>55.0</ele><time>2026-05-01T14:56:36.001Z</time></trkpt><trkpt lat="45.62581487851317" lon="-0.1382836159251603"><ele>54.75</ele><time>2026-05-01T14:56:37.001Z</time></trkpt><trkpt lat="45.625917623208004" lon="-0.1384466815143002"><ele>54.5</ele><time>2026-05-01T14:56:38.001Z</time></trkpt><trkpt lat="45.62601917457431" lon="-0.13860878601627732"><ele>54.25</ele><time>2026-05-01T14:56:39.001Z</time></trkpt><trkpt lat="45.626099878122965" lon="-0.1387604186485633"><ele>54.0</ele><time>2026-05-01T14:56:40.001Z</time></trkpt><trkpt lat="45.62618256104601" lon="-0.13891469709808002"><ele>53.0</ele><time>2026-05-01T14:56:41.001Z</time></trkpt><trkpt lat="45.62626585136356" lon="-0.1390864390488884"><ele>52.0</ele><time>2026-05-01T14:56:42.001Z</time></trkpt><trkpt lat="45.62636650638475" lon="-0.13927914802916613"><ele>51.0</ele><time>2026-05-01T14:56:43.001Z</time></trkpt><trkpt lat="45.62647625779816" lon="-0.1394854384727693"><ele>51.0</ele><time>2026-05-01T14:56:44.001Z</time></trkpt><trkpt lat="45.626588005405445" lon="-0.13969021007621826"><ele>51.0</ele><time>2026-05-01T14:56:45.002Z</time></trkpt><trkpt lat="45.62669161808494" lon="-0.13985631665463785"><ele>51.0</ele><time>2026-05-01T14:56:46.002Z</time></trkpt><trkpt lat="45.62678774307527" lon="-0.14002746330836857"><ele>50.75</ele><time>2026-05-01T14:56:47.002Z</time></trkpt><trkpt lat="45.62688013403903" lon="-0.1401863586308498"><ele>50.5</ele><time>2026-05-01T14:56:48.002Z</time></trkpt><trkpt lat="45.626976716267635" lon="-0.14033033061211989"><ele>50.25</ele><time>2026-05-01T14:56:49.002Z</time></trkpt><trkpt lat="45.627059855316745" lon="-0.14045492952039407"><ele>50.0</ele><time>2026-05-01T14:56:50.002Z</time></trkpt><trkpt lat="45.62714517668944" lon="-0.14059254389477813"><ele>50.0</ele><time>2026-05-01T14:56:51.002Z</time></trkpt><trkpt lat="45.62723973196729" lon="-0.1407408359411705"><ele>50.0</ele><time>2026-05-01T14:56:52.002Z</time></trkpt><trkpt lat="45.62735068991965" lon="-0.14090622873406375"><ele>50.0</ele><time>2026-05-01T14:56:53.002Z</time></trkpt><trkpt lat="45.627466451705104" lon="-0.1410632132095328"><ele>50.0</ele><time>2026-05-01T14:56:54.002Z</time></trkpt><trkpt lat="45.627593976453284" lon="-0.14123547395426816"><ele>50.0</ele><time>2026-05-01T14:56:55.002Z</time></trkpt><trkpt lat="45.627718557815456" lon="-0.141372946397859"><ele>50.0</ele><time>2026-05-01T14:56:56.002Z</time></trkpt><trkpt lat="45.62783362076977" lon="-0.14152822313764762"><ele>49.75</ele><time>2026-05-01T14:56:57.002Z</time></trkpt><trkpt lat="45.627922471884865" lon="-0.14168340179326674"><ele>49.5</ele><time>2026-05-01T14:56:58.002Z</time></trkpt><trkpt lat="45.62802008952554" lon="-0.14184061190961403"><ele>49.25</ele><time>2026-05-01T14:56:59.002Z</time></trkpt><trkpt lat="45.62811698742767" lon="-0.14201522376300577"><ele>49.0</ele><time>2026-05-01T14:57:00.002Z</time></trkpt><trkpt lat="45.62821469979592" lon="-0.1422067164793037"><ele>49.666666666666664</ele><time>2026-05-01T14:57:01Z</time></trkpt><trkpt lat="45.62832219256342" lon="-0.1423923048730442"><ele>50.33333333333333</ele><time>2026-05-01T14:57:02Z</time></trkpt><trkpt lat="45.62844016701572" lon="-0.14256517853219888"><ele>51.0</ele><time>2026-05-01T14:57:03Z</time></trkpt><trkpt lat="45.62854528787615" lon="-0.14275514588974864"><ele>51.33333333333333</ele><time>2026-05-01T14:57:04Z</time></trkpt><trkpt lat="45.62867304968126" lon="-0.14293564654764093"><ele>51.666666666666664</ele><time>2026-05-01T14:57:05Z</time></trkpt><trkpt lat="45.62881314515015" lon="-0.1431110610501921"><ele>52.0</ele><time>2026-05-01T14:57:06Z</time></trkpt><trkpt lat="45.62893855411799" lon="-0.14329287728381251"><ele>52.0</ele><time>2026-05-01T14:57:07Z</time></trkpt><trkpt lat="45.629050397605226" lon="-0.14343762332982798"><ele>52.0</ele><time>2026-05-01T14:57:08Z</time></trkpt><trkpt lat="45.6291630717669" lon="-0.14358875127927434"><ele>52.0</ele><time>2026-05-01T14:57:09Z</time></trkpt><trkpt lat="45.62927093465618" lon="-0.14372093299977814"><ele>52.0</ele><time>2026-05-01T14:57:10Z</time></trkpt><trkpt lat="45.62937580912745" lon="-0.1438573870803405"><ele>52.0</ele><time>2026-05-01T14:57:11Z</time></trkpt><trkpt lat="45.629483438315894" lon="-0.14401454813291323"><ele>52.0</ele><time>2026-05-01T14:57:12Z</time></trkpt><trkpt lat="45.629566023507216" lon="-0.14414317727798798"><ele>52.0</ele><time>2026-05-01T14:57:13Z</time></trkpt><trkpt lat="45.62964298943166" lon="-0.14428761507451174"><ele>52.0</ele><time>2026-05-01T14:57:14Z</time></trkpt><trkpt lat="45.62973371879299" lon="-0.14440553744339385"><ele>52.0</ele><time>2026-05-01T14:57:15Z</time></trkpt><trkpt lat="45.62981179681944" lon="-0.14455300214238176"><ele>52.0</ele><time>2026-05-01T14:57:16Z</time></trkpt><trkpt lat="45.62991897656759" lon="-0.14470810710669654"><ele>52.0</ele><time>2026-05-01T14:57:17Z</time></trkpt><trkpt lat="45.63001016943552" lon="-0.14486482476211282"><ele>52.0</ele><time>2026-05-01T14:57:18Z</time></trkpt><trkpt lat="45.63009784360469" lon="-0.14502477456817597"><ele>52.0</ele><time>2026-05-01T14:57:19Z</time></trkpt><trkpt lat="45.63018243619216" lon="-0.14517991732082633"><ele>52.0</ele><time>2026-05-01T14:57:20Z</time></trkpt><trkpt lat="45.63027504283097" lon="-0.14534210125955002"><ele>52.0</ele><time>2026-05-01T14:57:21Z</time></trkpt><trkpt lat="45.63036331985242" lon="-0.14550372819904925"><ele>52.0</ele><time>2026-05-01T14:57:22Z</time></trkpt><trkpt lat="45.63045784624207" lon="-0.14568349802917124"><ele>52.0</ele><time>2026-05-01T14:57:23Z</time></trkpt><trkpt lat="45.63055356850142" lon="-0.1458536270331684"><ele>52.0</ele><time>2026-05-01T14:57:24Z</time></trkpt><trkpt lat="45.630646706844686" lon="-0.14602214690578977"><ele>52.0</ele><time>2026-05-01T14:57:25Z</time></trkpt><trkpt lat="45.63074491899388" lon="-0.1462060544825543"><ele>52.0</ele><time>2026-05-01T14:57:26Z</time></trkpt><trkpt lat="45.63084803747287" lon="-0.14640045070483057"><ele>52.0</ele><time>2026-05-01T14:57:27Z</time></trkpt><trkpt lat="45.63093216304045" lon="-0.14656573203591333"><ele>52.0</ele><time>2026-05-01T14:57:28Z</time></trkpt><trkpt lat="45.63100874453522" lon="-0.1467111868706464"><ele>52.0</ele><time>2026-05-01T14:57:29Z</time></trkpt><trkpt lat="45.63108613528442" lon="-0.1468749790206722"><ele>51.75</ele><time>2026-05-01T14:57:30Z</time></trkpt><trkpt lat="45.63114683961277" lon="-0.14702126209884336"><ele>51.5</ele><time>2026-05-01T14:57:31Z</time></trkpt><trkpt lat="45.6312043039405" lon="-0.1471954348747702"><ele>51.25</ele><time>2026-05-01T14:57:32Z</time></trkpt><trkpt lat="45.63126437273928" lon="-0.1473740841964767"><ele>51.0</ele><time>2026-05-01T14:57:33Z</time></trkpt><trkpt lat="45.63133214748055" lon="-0.14757238814617954"><ele>51.66666666666667</ele><time>2026-05-01T14:57:34Z</time></trkpt><trkpt lat="45.6314069955532" lon="-0.14778880825248294"><ele>52.333333333333336</ele><time>2026-05-01T14:57:35Z</time></trkpt><trkpt lat="45.6314673883925" lon="-0.14799365283937813"><ele>53.0</ele><time>2026-05-01T14:57:36Z</time></trkpt><trkpt lat="45.63153383227232" lon="-0.14818435070259994"><ele>52.25</ele><time>2026-05-01T14:57:37Z</time></trkpt><trkpt lat="45.63158792080119" lon="-0.14837781674571146"><ele>51.5</ele><time>2026-05-01T14:57:38Z</time></trkpt><trkpt lat="45.631645768679164" lon="-0.14852464301327822"><ele>50.75</ele><time>2026-05-01T14:57:39Z</time></trkpt><trkpt lat="45.63170083935873" lon="-0.14867570634558414"><ele>50.0</ele><time>2026-05-01T14:57:40Z</time></trkpt><trkpt lat="45.63175590353765" lon="-0.14881786626490384"><ele>50.0</ele><time>2026-05-01T14:57:41Z</time></trkpt><trkpt lat="45.63181383057129" lon="-0.1489792657473375"><ele>50.0</ele><time>2026-05-01T14:57:42Z</time></trkpt><trkpt lat="45.631863924020756" lon="-0.1491453687057807"><ele>50.0</ele><time>2026-05-01T14:57:43Z</time></trkpt><trkpt lat="45.631916556658965" lon="-0.1493167130376642"><ele>50.0</ele><time>2026-05-01T14:57:44Z</time></trkpt><trkpt lat="45.63196671573851" lon="-0.14950318251811037"><ele>49.0</ele><time>2026-05-01T14:57:45Z</time></trkpt><trkpt lat="45.63201621579491" lon="-0.14969883738915743"><ele>48.0</ele><time>2026-05-01T14:57:46.001Z</time></trkpt><trkpt lat="45.63206418161814" lon="-0.14989112792099069"><ele>47.0</ele><time>2026-05-01T14:57:47.001Z</time></trkpt><trkpt lat="45.63210548914418" lon="-0.15006702948777953"><ele>46.0</ele><time>2026-05-01T14:57:48.001Z</time></trkpt><trkpt lat="45.632138714900144" lon="-0.15023399961659495"><ele>45.25</ele><time>2026-05-01T14:57:49.001Z</time></trkpt><trkpt lat="45.63217210994511" lon="-0.1504119017218294"><ele>44.5</ele><time>2026-05-01T14:57:50.001Z</time></trkpt><trkpt lat="45.63220650799784" lon="-0.15060115343171304"><ele>43.75</ele><time>2026-05-01T14:57:51.001Z</time></trkpt><trkpt lat="45.63224235677205" lon="-0.1508095739653055"><ele>43.0</ele><time>2026-05-01T14:57:52.001Z</time></trkpt><trkpt lat="45.63228051803294" lon="-0.1510143414195367"><ele>42.25</ele><time>2026-05-01T14:57:53.001Z</time></trkpt><trkpt lat="45.63231363062107" lon="-0.1512164675879109"><ele>41.5</ele><time>2026-05-01T14:57:54.001Z</time></trkpt><trkpt lat="45.63235504940158" lon="-0.15141750957002045"><ele>40.75</ele><time>2026-05-01T14:57:55.001Z</time></trkpt><trkpt lat="45.63239645429776" lon="-0.15160396762138387"><ele>40.0</ele><time>2026-05-01T14:57:56.001Z</time></trkpt><trkpt lat="45.632433366165245" lon="-0.15178439585520498"><ele>40.0</ele><time>2026-05-01T14:57:57.001Z</time></trkpt><trkpt lat="45.632464378763295" lon="-0.15193123303986922"><ele>40.0</ele><time>2026-05-01T14:57:58.001Z</time></trkpt><trkpt lat="45.632490222960286" lon="-0.15204634291710153"><ele>40.0</ele><time>2026-05-01T14:57:59.001Z</time></trkpt><trkpt lat="45.63250785402364" lon="-0.1521332793127282"><ele>40.0</ele><time>2026-05-01T14:58:00.001Z</time></trkpt><trkpt lat="45.63253059700078" lon="-0.1523234777075787"><ele>40.0</ele><time>2026-05-01T14:58:02.001Z</time></trkpt><trkpt lat="45.63255199390196" lon="-0.15250526549830384"><ele>39.0</ele><time>2026-05-01T14:58:03.001Z</time></trkpt><trkpt lat="45.632586227136784" lon="-0.15270237574448364"><ele>38.0</ele><time>2026-05-01T14:58:04.001Z</time></trkpt><trkpt lat="45.63262322671141" lon="-0.15292620392463582"><ele>37.0</ele><time>2026-05-01T14:58:05.001Z</time></trkpt><trkpt lat="45.63266555676067" lon="-0.15316373283932785"><ele>36.333333333333336</ele><time>2026-05-01T14:58:06.001Z</time></trkpt><trkpt lat="45.632708573062565" lon="-0.1534375410372666"><ele>35.666666666666664</ele><time>2026-05-01T14:58:07.001Z</time></trkpt><trkpt lat="45.632759359792495" lon="-0.15373596499998837"><ele>35.0</ele><time>2026-05-01T14:58:08.001Z</time></trkpt><trkpt lat="45.63281430550992" lon="-0.15404223447432822"><ele>34.666666666666664</ele><time>2026-05-01T14:58:09.001Z</time></trkpt><trkpt lat="45.632869113146164" lon="-0.15430873168578832"><ele>34.333333333333336</ele><time>2026-05-01T14:58:10.001Z</time></trkpt><trkpt lat="45.632923173573595" lon="-0.15454896021392903"><ele>34.0</ele><time>2026-05-01T14:58:11.001Z</time></trkpt><trkpt lat="45.63297729875182" lon="-0.15477310913308215"><ele>34.0</ele><time>2026-05-01T14:58:12.001Z</time></trkpt><trkpt lat="45.63303915933917" lon="-0.15501120338403057"><ele>34.0</ele><time>2026-05-01T14:58:13.001Z</time></trkpt><trkpt lat="45.63310532808482" lon="-0.15525106686848106"><ele>34.0</ele><time>2026-05-01T14:58:14.001Z</time></trkpt><trkpt lat="45.63317621668329" lon="-0.15548749620041538"><ele>33.66666666666667</ele><time>2026-05-01T14:58:15.001Z</time></trkpt><trkpt lat="45.63325568910179" lon="-0.15573371295591695"><ele>33.333333333333336</ele><time>2026-05-01T14:58:16.001Z</time></trkpt><trkpt lat="45.63334150728791" lon="-0.15598764354711483"><ele>33.0</ele><time>2026-05-01T14:58:17.001Z</time></trkpt><trkpt lat="45.633420711778804" lon="-0.15624755547034397"><ele>33.0</ele><time>2026-05-01T14:58:18.001Z</time></trkpt><trkpt lat="45.63349133507774" lon="-0.15649387056144792"><ele>33.0</ele><time>2026-05-01T14:58:19.001Z</time></trkpt><trkpt lat="45.63355639318353" lon="-0.15672104232043663"><ele>33.0</ele><time>2026-05-01T14:58:20.001Z</time></trkpt><trkpt lat="45.6336101258212" lon="-0.1569299973769758"><ele>32.75</ele><time>2026-05-01T14:58:21.001Z</time></trkpt><trkpt lat="45.63366472733329" lon="-0.1571299868997167"><ele>32.5</ele><time>2026-05-01T14:58:22.001Z</time></trkpt><trkpt lat="45.63371535568058" lon="-0.15732331482965126"><ele>32.25</ele><time>2026-05-01T14:58:23.001Z</time></trkpt><trkpt lat="45.633754963711766" lon="-0.15752748345638776"><ele>32.0</ele><time>2026-05-01T14:58:24.001Z</time></trkpt><trkpt lat="45.6337871276637" lon="-0.15774189842083094"><ele>32.0</ele><time>2026-05-01T14:58:25.001Z</time></trkpt><trkpt lat="45.633808451013024" lon="-0.15797212033612143"><ele>32.0</ele><time>2026-05-01T14:58:26.001Z</time></trkpt><trkpt lat="45.6338321616757" lon="-0.1582020490435733"><ele>32.0</ele><time>2026-05-01T14:58:27.001Z</time></trkpt><trkpt lat="45.63386370078124" lon="-0.15839960419401586"><ele>32.0</ele><time>2026-05-01T14:58:28.001Z</time></trkpt><trkpt lat="45.63387639354502" lon="-0.15857549051559305"><ele>32.0</ele><time>2026-05-01T14:58:29.001Z</time></trkpt><trkpt lat="45.63387267485483" lon="-0.1587535867595664"><ele>32.0</ele><time>2026-05-01T14:58:30.001Z</time></trkpt><trkpt lat="45.63386197611845" lon="-0.15896860805827634"><ele>32.0</ele><time>2026-05-01T14:58:31.001Z</time></trkpt><trkpt lat="45.63384275783772" lon="-0.1591906048750587"><ele>32.0</ele><time>2026-05-01T14:58:32.001Z</time></trkpt><trkpt lat="45.63382632490725" lon="-0.15942215786643452"><ele>32.0</ele><time>2026-05-01T14:58:33.001Z</time></trkpt><trkpt lat="45.63381444768656" lon="-0.15964277717674813"><ele>32.0</ele><time>2026-05-01T14:58:34.001Z</time></trkpt><trkpt lat="45.63379694208541" lon="-0.159874002388996"><ele>31.75</ele><time>2026-05-01T14:58:35.001Z</time></trkpt><trkpt lat="45.633774824833694" lon="-0.16011105652924595"><ele>31.5</ele><time>2026-05-01T14:58:36.001Z</time></trkpt><trkpt lat="45.6337600978206" lon="-0.16031702592724584"><ele>31.25</ele><time>2026-05-01T14:58:37.001Z</time></trkpt><trkpt lat="45.63374525298074" lon="-0.16049809698314327"><ele>31.0</ele><time>2026-05-01T14:58:38.001Z</time></trkpt><trkpt lat="45.63373396216852" lon="-0.16067286688899238"><ele>30.75</ele><time>2026-05-01T14:58:39.001Z</time></trkpt><trkpt lat="45.633728521713195" lon="-0.16085261829821307"><ele>30.5</ele><time>2026-05-01T14:58:40.001Z</time></trkpt><trkpt lat="45.633734283470304" lon="-0.16104940604559012"><ele>30.25</ele><time>2026-05-01T14:58:41.001Z</time></trkpt><trkpt lat="45.63375155534229" lon="-0.1612462863026114"><ele>30.0</ele><time>2026-05-01T14:58:42.001Z</time></trkpt><trkpt lat="45.63377583577581" lon="-0.16146724551216374"><ele>29.666666666666664</ele><time>2026-05-01T14:58:43.001Z</time></trkpt><trkpt lat="45.6338072870756" lon="-0.1617186037260348"><ele>29.333333333333332</ele><time>2026-05-01T14:58:44.001Z</time></trkpt><trkpt lat="45.63384101596762" lon="-0.16198585067690052"><ele>29.0</ele><time>2026-05-01T14:58:45.001Z</time></trkpt><trkpt lat="45.63386989656079" lon="-0.1622710995059883"><ele>28.666666666666664</ele><time>2026-05-01T14:58:46.001Z</time></trkpt><trkpt lat="45.633892957381455" lon="-0.16254617046372907"><ele>28.333333333333336</ele><time>2026-05-01T14:58:47.001Z</time></trkpt><trkpt lat="45.6339127476478" lon="-0.16284629792507876"><ele>28.0</ele><time>2026-05-01T14:58:48.001Z</time></trkpt><trkpt lat="45.63393019806446" lon="-0.16315838078790035"><ele>28.333333333333336</ele><time>2026-05-01T14:58:49.001Z</time></trkpt><trkpt lat="45.63394468627603" lon="-0.1634470658752488"><ele>28.666666666666664</ele><time>2026-05-01T14:58:50.001Z</time></trkpt><trkpt lat="45.6339631362382" lon="-0.1637024239575679"><ele>29.0</ele><time>2026-05-01T14:58:51.001Z</time></trkpt><trkpt lat="45.63399278489364" lon="-0.16394420062606713"><ele>29.666666666666664</ele><time>2026-05-01T14:58:52.001Z</time></trkpt><trkpt lat="45.634041708747894" lon="-0.16419309394880616"><ele>30.333333333333336</ele><time>2026-05-01T14:58:53.001Z</time></trkpt><trkpt lat="45.63409139915122" lon="-0.16445698652462817"><ele>31.0</ele><time>2026-05-01T14:58:54.001Z</time></trkpt><trkpt lat="45.63414624767557" lon="-0.1647305126274044"><ele>31.333333333333336</ele><time>2026-05-01T14:58:55.001Z</time></trkpt><trkpt lat="45.63419245091954" lon="-0.16499663357652583"><ele>31.666666666666664</ele><time>2026-05-01T14:58:56.001Z</time></trkpt><trkpt lat="45.63424882278465" lon="-0.1652674925031546"><ele>32.0</ele><time>2026-05-01T14:58:57.001Z</time></trkpt><trkpt lat="45.63429569567165" lon="-0.16552722361273334"><ele>33.0</ele><time>2026-05-01T14:58:58.001Z</time></trkpt><trkpt lat="45.634346937983345" lon="-0.1657912565731484"><ele>34.0</ele><time>2026-05-01T14:58:59.001Z</time></trkpt><trkpt lat="45.634399224729286" lon="-0.16608212165113184"><ele>35.0</ele><time>2026-05-01T14:59:00.001Z</time></trkpt><trkpt lat="45.634453702302245" lon="-0.1663646257926583"><ele>35.33333333333333</ele><time>2026-05-01T14:59:01.001Z</time></trkpt><trkpt lat="45.63448868154587" lon="-0.16663844029716673"><ele>35.666666666666664</ele><time>2026-05-01T14:59:02.001Z</time></trkpt><trkpt lat="45.63453125789317" lon="-0.16687552758516458"><ele>36.0</ele><time>2026-05-01T14:59:03.001Z</time></trkpt><trkpt lat="45.63457005461422" lon="-0.1671183449816753"><ele>35.666666666666664</ele><time>2026-05-01T14:59:04.001Z</time></trkpt><trkpt lat="45.63462129599862" lon="-0.16738379540860673"><ele>35.33333333333333</ele><time>2026-05-01T14:59:05.001Z</time></trkpt><trkpt lat="45.63465875943861" lon="-0.16764020577189495"><ele>35.0</ele><time>2026-05-01T14:59:06.001Z</time></trkpt><trkpt lat="45.63470688463063" lon="-0.1679338226034799"><ele>34.666666666666664</ele><time>2026-05-01T14:59:07Z</time></trkpt><trkpt lat="45.634761220509446" lon="-0.16823503033958612"><ele>34.333333333333336</ele><time>2026-05-01T14:59:08Z</time></trkpt><trkpt lat="45.63480883509523" lon="-0.16853933933935042"><ele>34.0</ele><time>2026-05-01T14:59:09Z</time></trkpt><trkpt lat="45.634862869425326" lon="-0.16883796496220657"><ele>34.0</ele><time>2026-05-01T14:59:10Z</time></trkpt><trkpt lat="45.63490164561433" lon="-0.16910759350354296"><ele>34.0</ele><time>2026-05-01T14:59:11Z</time></trkpt><trkpt lat="45.63493861328467" lon="-0.16936272313404577"><ele>34.0</ele><time>2026-05-01T14:59:12Z</time></trkpt><trkpt lat="45.63498384586465" lon="-0.169600742265797"><ele>34.0</ele><time>2026-05-01T14:59:13Z</time></trkpt><trkpt lat="45.6350359011727" lon="-0.16981936065571693"><ele>34.0</ele><time>2026-05-01T14:59:14Z</time></trkpt><trkpt lat="45.63510426880082" lon="-0.1700358948550414"><ele>34.0</ele><time>2026-05-01T14:59:15Z</time></trkpt><trkpt lat="45.635182926458526" lon="-0.17026035552211444"><ele>34.0</ele><time>2026-05-01T14:59:16Z</time></trkpt><trkpt lat="45.635272271605764" lon="-0.17053152109606737"><ele>34.0</ele><time>2026-05-01T14:59:17Z</time></trkpt><trkpt lat="45.63535982687673" lon="-0.17081410748441056"><ele>34.0</ele><time>2026-05-01T14:59:18Z</time></trkpt><trkpt lat="45.63545166270663" lon="-0.17109012187602882"><ele>34.0</ele><time>2026-05-01T14:59:19Z</time></trkpt><trkpt lat="45.63552724876812" lon="-0.17132858339994692"><ele>34.0</ele><time>2026-05-01T14:59:20Z</time></trkpt><trkpt lat="45.63559487652371" lon="-0.17155164076702162"><ele>34.0</ele><time>2026-05-01T14:59:21Z</time></trkpt><trkpt lat="45.635656600583246" lon="-0.1717543927874622"><ele>34.0</ele><time>2026-05-01T14:59:22Z</time></trkpt><trkpt lat="45.635734101050225" lon="-0.1719873649490408"><ele>34.0</ele><time>2026-05-01T14:59:23Z</time></trkpt><trkpt lat="45.63580458230687" lon="-0.1722248544603496"><ele>34.0</ele><time>2026-05-01T14:59:24Z</time></trkpt><trkpt lat="45.63586969718627" lon="-0.1724455275104164"><ele>33.66666666666667</ele><time>2026-05-01T14:59:25Z</time></trkpt><trkpt lat="45.63593989781089" lon="-0.17267055171656037"><ele>33.333333333333336</ele><time>2026-05-01T14:59:26Z</time></trkpt><trkpt lat="45.635996682490266" lon="-0.17291895055725798"><ele>33.0</ele><time>2026-05-01T14:59:27Z</time></trkpt><trkpt lat="45.63604630368567" lon="-0.1731307518481674"><ele>32.75</ele><time>2026-05-01T14:59:28Z</time></trkpt><trkpt lat="45.63610360052327" lon="-0.17333184815547312"><ele>32.5</ele><time>2026-05-01T14:59:29Z</time></trkpt><trkpt lat="45.63615694981964" lon="-0.17351365575106262"><ele>32.25</ele><time>2026-05-01T14:59:30Z</time></trkpt><trkpt lat="45.63620183902824" lon="-0.17368718707689876"><ele>32.0</ele><time>2026-05-01T14:59:31Z</time></trkpt><trkpt lat="45.636248127226146" lon="-0.17385554264015418"><ele>31.833333333333332</ele><time>2026-05-01T14:59:32Z</time></trkpt><trkpt lat="45.636292448593395" lon="-0.17400305258941906"><ele>31.666666666666664</ele><time>2026-05-01T14:59:33Z</time></trkpt><trkpt lat="45.636336582542285" lon="-0.17412456785043007"><ele>31.5</ele><time>2026-05-01T14:59:34Z</time></trkpt><trkpt lat="45.63637175299791" lon="-0.17420531676299034"><ele>31.333333333333336</ele><time>2026-05-01T14:59:35Z</time></trkpt><trkpt lat="45.63638882709419" lon="-0.1742989957382984"><ele>31.166666666666668</ele><time>2026-05-01T14:59:37Z</time></trkpt><trkpt lat="45.63642577865142" lon="-0.17437545452269534"><ele>31.0</ele><time>2026-05-01T14:59:41Z</time></trkpt><trkpt lat="45.63645543813096" lon="-0.1744582729985724"><ele>31.0</ele><time>2026-05-01T14:59:42Z</time></trkpt><trkpt lat="45.63648135666551" lon="-0.1745840681407336"><ele>31.0</ele><time>2026-05-01T14:59:43Z</time></trkpt><trkpt lat="45.63651645780015" lon="-0.1747358254258623"><ele>31.0</ele><time>2026-05-01T14:59:44Z</time></trkpt><trkpt lat="45.6365580298605" lon="-0.174909225757293"><ele>31.0</ele><time>2026-05-01T14:59:45Z</time></trkpt><trkpt lat="45.636578390158164" lon="-0.1750942997357484"><ele>31.0</ele><time>2026-05-01T14:59:46Z</time></trkpt><trkpt lat="45.636637760772096" lon="-0.17525984986041723"><ele>31.0</ele><time>2026-05-01T14:59:47Z</time></trkpt><trkpt lat="45.636723745833926" lon="-0.17558602883334545"><ele>31.0</ele><time>2026-05-01T14:59:48Z</time></trkpt><trkpt lat="45.636792372966404" lon="-0.1758504616494635"><ele>31.0</ele><time>2026-05-01T14:59:49Z</time></trkpt><trkpt lat="45.63685478247601" lon="-0.17611764577888245"><ele>31.0</ele><time>2026-05-01T14:59:50Z</time></trkpt><trkpt lat="45.63694362593771" lon="-0.1764193040738714"><ele>31.0</ele><time>2026-05-01T14:59:51Z</time></trkpt><trkpt lat="45.63703558258995" lon="-0.17672729461492673"><ele>30.5</ele><time>2026-05-01T14:59:52Z</time></trkpt><trkpt lat="45.63712902796727" lon="-0.1770553058623058"><ele>30.0</ele><time>2026-05-01T14:59:53Z</time></trkpt><trkpt lat="45.63722207288044" lon="-0.1773824079569425"><ele>30.0</ele><time>2026-05-01T14:59:54Z</time></trkpt><trkpt lat="45.637299637098614" lon="-0.17770714073979701"><ele>30.0</ele><time>2026-05-01T14:59:55Z</time></trkpt><trkpt lat="45.63739304433434" lon="-0.17797146106969597"><ele>30.0</ele><time>2026-05-01T14:59:56Z</time></trkpt><trkpt lat="45.637485042239376" lon="-0.17826661665072782"><ele>30.0</ele><time>2026-05-01T14:59:57Z</time></trkpt><trkpt lat="45.637573401084204" lon="-0.17855510551786402"><ele>30.0</ele><time>2026-05-01T14:59:58Z</time></trkpt><trkpt lat="45.63765317202212" lon="-0.17884529693027193"><ele>30.0</ele><time>2026-05-01T14:59:59Z</time></trkpt><trkpt lat="45.637741550485686" lon="-0.17914452945154904"><ele>29.5</ele><time>2026-05-01T15:00:00Z</time></trkpt><trkpt lat="45.63783238305598" lon="-0.1794556680788958"><ele>29.0</ele><time>2026-05-01T15:00:01Z</time></trkpt><trkpt lat="45.63792431763537" lon="-0.1797780376668096"><ele>29.0</ele><time>2026-05-01T15:00:02Z</time></trkpt><trkpt lat="45.63802177356319" lon="-0.18008998130455095"><ele>29.0</ele><time>2026-05-01T15:00:03Z</time></trkpt><trkpt lat="45.63812501867526" lon="-0.18040934838433909"><ele>28.0</ele><time>2026-05-01T15:00:04Z</time></trkpt><trkpt lat="45.63822811441366" lon="-0.18071501359398592"><ele>27.0</ele><time>2026-05-01T15:00:05Z</time></trkpt><trkpt lat="45.63832257894033" lon="-0.18099141169818664"><ele>27.0</ele><time>2026-05-01T15:00:06Z</time></trkpt><trkpt lat="45.63840800161994" lon="-0.1812711450943655"><ele>27.0</ele><time>2026-05-01T15:00:07Z</time></trkpt><trkpt lat="45.63850624173627" lon="-0.18157079318103866"><ele>27.0</ele><time>2026-05-01T15:00:08Z</time></trkpt><trkpt lat="45.63860114394725" lon="-0.1818789173658774"><ele>26.5</ele><time>2026-05-01T15:00:09.001Z</time></trkpt><trkpt lat="45.638704958513514" lon="-0.18219962699508316"><ele>26.0</ele><time>2026-05-01T15:00:10.001Z</time></trkpt><trkpt lat="45.638808552285695" lon="-0.18251366227855803"><ele>27.0</ele><time>2026-05-01T15:00:11.001Z</time></trkpt><trkpt lat="45.63890907832531" lon="-0.18283360684751745"><ele>28.0</ele><time>2026-05-01T15:00:12.001Z</time></trkpt><trkpt lat="45.63900076679506" lon="-0.18314777828495254"><ele>28.5</ele><time>2026-05-01T15:00:13.001Z</time></trkpt><trkpt lat="45.639087161005136" lon="-0.18345546978138919"><ele>29.0</ele><time>2026-05-01T15:00:14.001Z</time></trkpt><trkpt lat="45.63917846464312" lon="-0.18376620836773724"><ele>29.0</ele><time>2026-05-01T15:00:15.001Z</time></trkpt><trkpt lat="45.639263394777565" lon="-0.18405382695492473"><ele>29.0</ele><time>2026-05-01T15:00:16.001Z</time></trkpt><trkpt lat="45.63935055886175" lon="-0.18433770511359082"><ele>29.0</ele><time>2026-05-01T15:00:17.001Z</time></trkpt><trkpt lat="45.63944983948361" lon="-0.18462404605720542"><ele>28.333333333333332</ele><time>2026-05-01T15:00:18.001Z</time></trkpt><trkpt lat="45.63954609975957" lon="-0.18489775662472846"><ele>27.666666666666664</ele><time>2026-05-01T15:00:19.001Z</time></trkpt><trkpt lat="45.63963729508932" lon="-0.18514460178891315"><ele>27.0</ele><time>2026-05-01T15:00:20.001Z</time></trkpt><trkpt lat="45.6397206599498" lon="-0.185385501744728"><ele>27.0</ele><time>2026-05-01T15:00:21.001Z</time></trkpt><trkpt lat="45.63979691935044" lon="-0.18563101075445876"><ele>27.0</ele><time>2026-05-01T15:00:22.001Z</time></trkpt><trkpt lat="45.6398598110397" lon="-0.18589856542695887"><ele>27.0</ele><time>2026-05-01T15:00:23.001Z</time></trkpt><trkpt lat="45.63992764170125" lon="-0.18618580740763152"><ele>27.333333333333336</ele><time>2026-05-01T15:00:24.001Z</time></trkpt><trkpt lat="45.639990399584946" lon="-0.18646979125747729"><ele>27.666666666666668</ele><time>2026-05-01T15:00:25.001Z</time></trkpt><trkpt lat="45.64005133170337" lon="-0.1867059174280604"><ele>28.0</ele><time>2026-05-01T15:00:26.001Z</time></trkpt><trkpt lat="45.64011166616246" lon="-0.18693468043653516"><ele>28.25</ele><time>2026-05-01T15:00:27.001Z</time></trkpt><trkpt lat="45.64017036378637" lon="-0.18714975859530597"><ele>28.5</ele><time>2026-05-01T15:00:28.001Z</time></trkpt><trkpt lat="45.64022305099291" lon="-0.18730766679876557"><ele>28.75</ele><time>2026-05-01T15:00:29.001Z</time></trkpt><trkpt lat="45.64026575864991" lon="-0.1874655698084172"><ele>29.0</ele><time>2026-05-01T15:00:30.001Z</time></trkpt><trkpt lat="45.64030199363788" lon="-0.18762252275369826"><ele>29.25</ele><time>2026-05-01T15:00:31.001Z</time></trkpt><trkpt lat="45.64035213014855" lon="-0.18776369367723605"><ele>29.5</ele><time>2026-05-01T15:00:32.001Z</time></trkpt><trkpt lat="45.64040958789408" lon="-0.18790747934917976"><ele>29.75</ele><time>2026-05-01T15:00:33.001Z</time></trkpt><trkpt lat="45.64046669021237" lon="-0.18806634672848074"><ele>30.0</ele><time>2026-05-01T15:00:34.001Z</time></trkpt><trkpt lat="45.64051658806596" lon="-0.1882310927020008"><ele>30.0</ele><time>2026-05-01T15:00:35.001Z</time></trkpt><trkpt lat="45.64056702688968" lon="-0.18840513319331334"><ele>30.0</ele><time>2026-05-01T15:00:36.001Z</time></trkpt><trkpt lat="45.640620960978424" lon="-0.18858367600135156"><ele>30.0</ele><time>2026-05-01T15:00:37.001Z</time></trkpt><trkpt lat="45.64066699074999" lon="-0.1887600127297752"><ele>30.0</ele><time>2026-05-01T15:00:38.001Z</time></trkpt><trkpt lat="45.64071031376129" lon="-0.18893219883302598"><ele>29.6</ele><time>2026-05-01T15:00:39.001Z</time></trkpt><trkpt lat="45.640745161441785" lon="-0.1890933433784975"><ele>29.2</ele><time>2026-05-01T15:00:40.001Z</time></trkpt><trkpt lat="45.64077739875627" lon="-0.18922959884810353"><ele>28.799999999999997</ele><time>2026-05-01T15:00:41.001Z</time></trkpt><trkpt lat="45.64079848295307" lon="-0.18932229190281244"><ele>28.4</ele><time>2026-05-01T15:00:42.001Z</time></trkpt><trkpt lat="45.640832695548" lon="-0.18942300667600326"><ele>28.0</ele><time>2026-05-01T15:00:44.001Z</time></trkpt><trkpt lat="45.640861696297414" lon="-0.18954096846669657"><ele>28.0</ele><time>2026-05-01T15:00:46.001Z</time></trkpt><trkpt lat="45.64088266239182" lon="-0.1896657658928097"><ele>28.0</ele><time>2026-05-01T15:00:47.001Z</time></trkpt><trkpt lat="45.640916147902935" lon="-0.18982940933962777"><ele>28.0</ele><time>2026-05-01T15:00:48.001Z</time></trkpt><trkpt lat="45.6409607175588" lon="-0.19003566893509524"><ele>28.0</ele><time>2026-05-01T15:00:49.001Z</time></trkpt><trkpt lat="45.6410156929967" lon="-0.19027743096980976"><ele>28.0</ele><time>2026-05-01T15:00:50.001Z</time></trkpt><trkpt lat="45.64107939007817" lon="-0.1905208375606715"><ele>28.0</ele><time>2026-05-01T15:00:51.001Z</time></trkpt><trkpt lat="45.64114200811546" lon="-0.190784748587266"><ele>28.0</ele><time>2026-05-01T15:00:52.001Z</time></trkpt><trkpt lat="45.64120843672072" lon="-0.19104924556276204"><ele>27.333333333333336</ele><time>2026-05-01T15:00:53.001Z</time></trkpt><trkpt lat="45.641269161446125" lon="-0.1913177153585766"><ele>26.666666666666664</ele><time>2026-05-01T15:00:54.001Z</time></trkpt><trkpt lat="45.64133214142863" lon="-0.1915824601944095"><ele>26.0</ele><time>2026-05-01T15:00:55.001Z</time></trkpt><trkpt lat="45.641388012874344" lon="-0.19183406784113"><ele>25.666666666666664</ele><time>2026-05-01T15:00:56.001Z</time></trkpt><trkpt lat="45.64144940224824" lon="-0.1920638359144767"><ele>25.333333333333336</ele><time>2026-05-01T15:00:57.001Z</time></trkpt><trkpt lat="45.64150086280464" lon="-0.192281838222603"><ele>25.0</ele><time>2026-05-01T15:00:58.001Z</time></trkpt><trkpt lat="45.64154070001872" lon="-0.19247242357372782"><ele>25.0</ele><time>2026-05-01T15:00:59.001Z</time></trkpt><trkpt lat="45.64157756235792" lon="-0.19265434613148597"><ele>25.0</ele><time>2026-05-01T15:01:00.001Z</time></trkpt><trkpt lat="45.64161914038298" lon="-0.19282827978752295"><ele>25.0</ele><time>2026-05-01T15:01:01.001Z</time></trkpt><trkpt lat="45.64165830016491" lon="-0.1929903525856998"><ele>25.0</ele><time>2026-05-01T15:01:02.001Z</time></trkpt><trkpt lat="45.64170005003875" lon="-0.19314237119784608"><ele>25.0</ele><time>2026-05-01T15:01:03.001Z</time></trkpt><trkpt lat="45.64173564459943" lon="-0.19328762016973391"><ele>25.0</ele><time>2026-05-01T15:01:04.001Z</time></trkpt><trkpt lat="45.64176911328095" lon="-0.19342350014043708"><ele>25.0</ele><time>2026-05-01T15:01:05.001Z</time></trkpt><trkpt lat="45.64179772500226" lon="-0.19355457725138867"><ele>25.0</ele><time>2026-05-01T15:01:06.001Z</time></trkpt><trkpt lat="45.641819339549315" lon="-0.19366985943319986"><ele>25.0</ele><time>2026-05-01T15:01:07.001Z</time></trkpt><trkpt lat="45.641844645329655" lon="-0.1937826310513171"><ele>25.000000000000004</ele><time>2026-05-01T15:01:08.001Z</time></trkpt><trkpt lat="45.64187830343391" lon="-0.19389458062125936"><ele>25.0</ele><time>2026-05-01T15:01:09.001Z</time></trkpt><trkpt lat="45.641906919830895" lon="-0.19400348275187226"><ele>25.0</ele><time>2026-05-01T15:01:10.001Z</time></trkpt><trkpt lat="45.64193139002023" lon="-0.1940891278534255"><ele>25.0</ele><time>2026-05-01T15:01:11.001Z</time></trkpt><trkpt lat="45.64195849905366" lon="-0.19418769688916207"><ele>25.000000000000004</ele><time>2026-05-01T15:01:12.001Z</time></trkpt><trkpt lat="45.64197798598526" lon="-0.1943681315933125"><ele>25.0</ele><time>2026-05-01T15:01:13Z</time></trkpt><trkpt lat="45.64202671524178" lon="-0.19453604887052584"><ele>25.333333333333336</ele><time>2026-05-01T15:01:14Z</time></trkpt><trkpt lat="45.6420913660569" lon="-0.19474745163753152"><ele>25.666666666666664</ele><time>2026-05-01T15:01:15Z</time></trkpt><trkpt lat="45.64216405034622" lon="-0.19498211901262508"><ele>26.0</ele><time>2026-05-01T15:01:16Z</time></trkpt><trkpt lat="45.64224692410752" lon="-0.19521927133484732"><ele>27.0</ele><time>2026-05-01T15:01:17Z</time></trkpt><trkpt lat="45.642306337529114" lon="-0.19542939608706017"><ele>28.0</ele><time>2026-05-01T15:01:18Z</time></trkpt><trkpt lat="45.64236128152718" lon="-0.19560856793560868"><ele>29.0</ele><time>2026-05-01T15:01:19Z</time></trkpt><trkpt lat="45.64241937064666" lon="-0.19578014292609067"><ele>30.0</ele><time>2026-05-01T15:01:20Z</time></trkpt><trkpt lat="45.6424748475472" lon="-0.1959600844756751"><ele>30.0</ele><time>2026-05-01T15:01:21Z</time></trkpt><trkpt lat="45.64253115646866" lon="-0.1961471622480277"><ele>30.0</ele><time>2026-05-01T15:01:22Z</time></trkpt><trkpt lat="45.642585956619854" lon="-0.1963502259069762"><ele>30.0</ele><time>2026-05-01T15:01:23Z</time></trkpt><trkpt lat="45.642633553112454" lon="-0.19654371571797916"><ele>30.0</ele><time>2026-05-01T15:01:24Z</time></trkpt><trkpt lat="45.642667694392216" lon="-0.1967173063327047"><ele>29.5</ele><time>2026-05-01T15:01:25Z</time></trkpt><trkpt lat="45.642697348679924" lon="-0.19688388577754448"><ele>29.0</ele><time>2026-05-01T15:01:26Z</time></trkpt><trkpt lat="45.64274337849646" lon="-0.19706873238856368"><ele>28.5</ele><time>2026-05-01T15:01:27Z</time></trkpt><trkpt lat="45.64279423948681" lon="-0.19721194150965388"><ele>28.0</ele><time>2026-05-01T15:01:28Z</time></trkpt><trkpt lat="45.64282341556788" lon="-0.1973594077716915"><ele>27.4</ele><time>2026-05-01T15:01:29Z</time></trkpt><trkpt lat="45.64285307446503" lon="-0.1975187343074558"><ele>26.799999999999997</ele><time>2026-05-01T15:01:30Z</time></trkpt><trkpt lat="45.64289729081287" lon="-0.19766264291560764"><ele>26.2</ele><time>2026-05-01T15:01:31Z</time></trkpt><trkpt lat="45.642934130903924" lon="-0.19780468071418383"><ele>25.6</ele><time>2026-05-01T15:01:32Z</time></trkpt><trkpt lat="45.64296598036984" lon="-0.19795745375942414"><ele>25.0</ele><time>2026-05-01T15:01:33Z</time></trkpt><trkpt lat="45.64298639882355" lon="-0.19813767625409595"><ele>25.0</ele><time>2026-05-01T15:01:34Z</time></trkpt><trkpt lat="45.64301464315236" lon="-0.19825697757075875"><ele>25.0</ele><time>2026-05-01T15:01:35Z</time></trkpt><trkpt lat="45.64302447291466" lon="-0.19839121737742652"><ele>25.0</ele><time>2026-05-01T15:01:36Z</time></trkpt><trkpt lat="45.64306199375785" lon="-0.19854501673655853"><ele>25.0</ele><time>2026-05-01T15:01:37Z</time></trkpt><trkpt lat="45.643096278437255" lon="-0.19869882032713873"><ele>25.0</ele><time>2026-05-01T15:01:38Z</time></trkpt><trkpt lat="45.64313102428863" lon="-0.19883055753592102"><ele>25.0</ele><time>2026-05-01T15:01:39Z</time></trkpt><trkpt lat="45.64316240088709" lon="-0.19896766829102452"><ele>25.0</ele><time>2026-05-01T15:01:40Z</time></trkpt><trkpt lat="45.643194911311745" lon="-0.19909562622379207"><ele>25.0</ele><time>2026-05-01T15:01:41Z</time></trkpt><trkpt lat="45.64322752744922" lon="-0.19924741872673926"><ele>25.0</ele><time>2026-05-01T15:01:42Z</time></trkpt><trkpt lat="45.64325755994899" lon="-0.1993859150719038"><ele>25.0</ele><time>2026-05-01T15:01:43Z</time></trkpt><trkpt lat="45.64329275915759" lon="-0.19952255589618925"><ele>25.0</ele><time>2026-05-01T15:01:44Z</time></trkpt><trkpt lat="45.64332476361725" lon="-0.1996720953404881"><ele>25.0</ele><time>2026-05-01T15:01:45Z</time></trkpt><trkpt lat="45.643367636857526" lon="-0.19980321839380208"><ele>25.0</ele><time>2026-05-01T15:01:46Z</time></trkpt><trkpt lat="45.64339947370744" lon="-0.19994568045011107"><ele>25.0</ele><time>2026-05-01T15:01:47Z</time></trkpt><trkpt lat="45.64343109133935" lon="-0.20008716070414567"><ele>25.0</ele><time>2026-05-01T15:01:48Z</time></trkpt><trkpt lat="45.64346254058152" lon="-0.20022788814929934"><ele>25.0</ele><time>2026-05-01T15:01:49Z</time></trkpt><trkpt lat="45.64349842734791" lon="-0.20038417202781617"><ele>25.0</ele><time>2026-05-01T15:01:50Z</time></trkpt><trkpt lat="45.64352043480709" lon="-0.20054555410240626"><ele>25.0</ele><time>2026-05-01T15:01:51Z</time></trkpt><trkpt lat="45.64357201063009" lon="-0.200713366372668"><ele>25.0</ele><time>2026-05-01T15:01:52Z</time></trkpt><trkpt lat="45.64362253256166" lon="-0.20092811176873165"><ele>25.333333333333336</ele><time>2026-05-01T15:01:53Z</time></trkpt><trkpt lat="45.643674348958214" lon="-0.201162408506177"><ele>25.666666666666664</ele><time>2026-05-01T15:01:54Z</time></trkpt><trkpt lat="45.643751089005434" lon="-0.2014311034516549"><ele>26.0</ele><time>2026-05-01T15:01:55.001Z</time></trkpt><trkpt lat="45.643804449321976" lon="-0.2017632279247027"><ele>26.333333333333332</ele><time>2026-05-01T15:01:56.001Z</time></trkpt><trkpt lat="45.64382506864542" lon="-0.20204636692566952"><ele>26.666666666666664</ele><time>2026-05-01T15:01:57.001Z</time></trkpt><trkpt lat="45.6438441630461" lon="-0.20227987298195696"><ele>27.0</ele><time>2026-05-01T15:01:58.001Z</time></trkpt><trkpt lat="45.64386421251127" lon="-0.20248909169704948"><ele>27.0</ele><time>2026-05-01T15:01:59.001Z</time></trkpt><trkpt lat="45.64391223752722" lon="-0.2027220452352806"><ele>27.0</ele><time>2026-05-01T15:02:00.001Z</time></trkpt><trkpt lat="45.643957209790244" lon="-0.20295122243652264"><ele>27.0</ele><time>2026-05-01T15:02:01.001Z</time></trkpt><trkpt lat="45.64401208827997" lon="-0.20318582428687"><ele>27.0</ele><time>2026-05-01T15:02:02.001Z</time></trkpt><trkpt lat="45.64406822514775" lon="-0.20341656993871365"><ele>27.0</ele><time>2026-05-01T15:02:03.001Z</time></trkpt><trkpt lat="45.64415074975622" lon="-0.20363618300314582"><ele>27.0</ele><time>2026-05-01T15:02:04.001Z</time></trkpt><trkpt lat="45.64422975255136" lon="-0.2038731501000159"><ele>27.0</ele><time>2026-05-01T15:02:05.001Z</time></trkpt><trkpt lat="45.64429908328879" lon="-0.2041090882786047"><ele>27.0</ele><time>2026-05-01T15:02:06.001Z</time></trkpt><trkpt lat="45.64436565366082" lon="-0.20435742887504496"><ele>27.0</ele><time>2026-05-01T15:02:07.001Z</time></trkpt><trkpt lat="45.644429012817" lon="-0.20460497149115472"><ele>25.333333333333332</ele><time>2026-05-01T15:02:08.001Z</time></trkpt><trkpt lat="45.64447109822536" lon="-0.20485667601990382"><ele>23.666666666666664</ele><time>2026-05-01T15:02:09.001Z</time></trkpt><trkpt lat="45.64453552953615" lon="-0.205093120319233"><ele>22.0</ele><time>2026-05-01T15:02:10.001Z</time></trkpt><trkpt lat="45.644578416568656" lon="-0.20533641194402846"><ele>22.0</ele><time>2026-05-01T15:02:11.001Z</time></trkpt><trkpt lat="45.644617028836166" lon="-0.205565540777944"><ele>22.0</ele><time>2026-05-01T15:02:12.001Z</time></trkpt><trkpt lat="45.64466055300332" lon="-0.20581120453091764"><ele>22.0</ele><time>2026-05-01T15:02:13.001Z</time></trkpt><trkpt lat="45.64469972586588" lon="-0.20604519754053888"><ele>22.0</ele><time>2026-05-01T15:02:14.001Z</time></trkpt><trkpt lat="45.64473779356954" lon="-0.20626873297709922"><ele>22.0</ele><time>2026-05-01T15:02:15.001Z</time></trkpt><trkpt lat="45.64479773508213" lon="-0.20649203979416336"><ele>22.0</ele><time>2026-05-01T15:02:16.001Z</time></trkpt><trkpt lat="45.64482926916497" lon="-0.20673173627217364"><ele>23.0</ele><time>2026-05-01T15:02:17.001Z</time></trkpt><trkpt lat="45.644862556562586" lon="-0.20695088806846532"><ele>24.0</ele><time>2026-05-01T15:02:18.001Z</time></trkpt><trkpt lat="45.644895675906334" lon="-0.20714351388486657"><ele>25.0</ele><time>2026-05-01T15:02:19.001Z</time></trkpt><trkpt lat="45.64493981204127" lon="-0.20731681734868795"><ele>26.0</ele><time>2026-05-01T15:02:20.001Z</time></trkpt><trkpt lat="45.64497782465463" lon="-0.20751497323265708"><ele>26.333333333333332</ele><time>2026-05-01T15:02:21.001Z</time></trkpt><trkpt lat="45.645019841170566" lon="-0.2077150220286212"><ele>26.666666666666664</ele><time>2026-05-01T15:02:22.001Z</time></trkpt><trkpt lat="45.645069402021434" lon="-0.20797896848752273"><ele>27.0</ele><time>2026-05-01T15:02:23.001Z</time></trkpt><trkpt lat="45.64512902110635" lon="-0.20820803308968755"><ele>27.0</ele><time>2026-05-01T15:02:24.001Z</time></trkpt><trkpt lat="45.6451770966337" lon="-0.20842976342135672"><ele>27.0</ele><time>2026-05-01T15:02:25.001Z</time></trkpt><trkpt lat="45.64523271912337" lon="-0.20866868266019728"><ele>27.0</ele><time>2026-05-01T15:02:26.001Z</time></trkpt><trkpt lat="45.645267451517306" lon="-0.2088871565849574"><ele>27.75</ele><time>2026-05-01T15:02:27.001Z</time></trkpt><trkpt lat="45.64529802989137" lon="-0.2090994038049841"><ele>28.5</ele><time>2026-05-01T15:02:28.001Z</time></trkpt><trkpt lat="45.64533787386881" lon="-0.2092681096684077"><ele>29.25</ele><time>2026-05-01T15:02:29.001Z</time></trkpt><trkpt lat="45.645374922197234" lon="-0.20944532947239636"><ele>30.0</ele><time>2026-05-01T15:02:30.001Z</time></trkpt><trkpt lat="45.64541392358644" lon="-0.2096492078977603"><ele>30.0</ele><time>2026-05-01T15:02:31.001Z</time></trkpt><trkpt lat="45.64544028172834" lon="-0.2098701322683319"><ele>30.0</ele><time>2026-05-01T15:02:32.001Z</time></trkpt><trkpt lat="45.645465108152244" lon="-0.21004484255562447"><ele>30.0</ele><time>2026-05-01T15:02:33.001Z</time></trkpt><trkpt lat="45.6455051935224" lon="-0.21021990113715008"><ele>30.0</ele><time>2026-05-01T15:02:34.001Z</time></trkpt><trkpt lat="45.64553519169585" lon="-0.2103874333166706"><ele>30.0</ele><time>2026-05-01T15:02:35.001Z</time></trkpt><trkpt lat="45.645560191737054" lon="-0.21052705203434957"><ele>30.0</ele><time>2026-05-01T15:02:36.001Z</time></trkpt><trkpt lat="45.645565676854616" lon="-0.21063721642981584"><ele>30.0</ele><time>2026-05-01T15:02:37.001Z</time></trkpt><trkpt lat="45.64560076845261" lon="-0.21073460055911228"><ele>30.0</ele><time>2026-05-01T15:02:38.001Z</time></trkpt><trkpt lat="45.64562081484263" lon="-0.21082398689595586"><ele>30.0</ele><time>2026-05-01T15:02:39.001Z</time></trkpt><trkpt lat="45.645660397831556" lon="-0.21098471360551344"><ele>30.0</ele><time>2026-05-01T15:02:41.001Z</time></trkpt><trkpt lat="45.6456019180779" lon="-0.21114063040949535"><ele>29.5</ele><time>2026-05-01T15:02:42.001Z</time></trkpt><trkpt lat="45.6456315349037" lon="-0.21126349533851096"><ele>29.0</ele><time>2026-05-01T15:02:43.001Z</time></trkpt><trkpt lat="45.645675320154986" lon="-0.21142442236708273"><ele>28.5</ele><time>2026-05-01T15:02:44.001Z</time></trkpt><trkpt lat="45.64570848856534" lon="-0.21162202014691167"><ele>28.0</ele><time>2026-05-01T15:02:45.001Z</time></trkpt><trkpt lat="45.645722620377995" lon="-0.21181170400606888"><ele>27.799999999999997</ele><time>2026-05-01T15:02:46.001Z</time></trkpt><trkpt lat="45.64574092889269" lon="-0.21198608145683717"><ele>27.599999999999998</ele><time>2026-05-01T15:02:47.001Z</time></trkpt><trkpt lat="45.64574616768892" lon="-0.21212644886822446"><ele>27.400000000000002</ele><time>2026-05-01T15:02:48.001Z</time></trkpt><trkpt lat="45.645758288922536" lon="-0.2122247538037473"><ele>27.200000000000003</ele><time>2026-05-01T15:02:49.001Z</time></trkpt><trkpt lat="45.645772611463805" lon="-0.21237536038756194"><ele>27.0</ele><time>2026-05-01T15:02:51.001Z</time></trkpt><trkpt lat="45.645778129602036" lon="-0.21246555046341464"><ele>27.0</ele><time>2026-05-01T15:02:52.001Z</time></trkpt><trkpt lat="45.64580079163451" lon="-0.21262505264382778"><ele>27.000000000000004</ele><time>2026-05-01T15:02:54.001Z</time></trkpt><trkpt lat="45.6457785903883" lon="-0.21271697419831517"><ele>27.000000000000004</ele><time>2026-05-01T15:02:55.001Z</time></trkpt><trkpt lat="45.64581299054117" lon="-0.2129205163786446"><ele>27.0</ele><time>2026-05-01T15:02:57.001Z</time></trkpt><trkpt lat="45.645821029856556" lon="-0.21301475301647751"><ele>27.0</ele><time>2026-05-01T15:02:58.001Z</time></trkpt><trkpt lat="45.64583067389681" lon="-0.2131089665732714"><ele>27.0</ele><time>2026-05-01T15:02:59.001Z</time></trkpt><trkpt lat="45.64586082002061" lon="-0.2132434412206983"><ele>27.0</ele><time>2026-05-01T15:03:01.001Z</time></trkpt><trkpt lat="45.64587722366626" lon="-0.21339413135653867"><ele>27.0</ele><time>2026-05-01T15:03:03.001Z</time></trkpt><trkpt lat="45.64588604519062" lon="-0.21348399971262486"><ele>27.0</ele><time>2026-05-01T15:03:05.001Z</time></trkpt><trkpt lat="45.645899984557246" lon="-0.21363334381471177"><ele>27.0</ele><time>2026-05-01T15:03:08.001Z</time></trkpt><trkpt lat="45.645904969696296" lon="-0.2137316192570776"><ele>27.0</ele><time>2026-05-01T15:03:10.001Z</time></trkpt><trkpt lat="45.645903648439464" lon="-0.21384407232437713"><ele>27.0</ele><time>2026-05-01T15:03:12.001Z</time></trkpt><trkpt lat="45.64592380391374" lon="-0.21395248753944138"><ele>27.0</ele><time>2026-05-01T15:03:14.001Z</time></trkpt><trkpt lat="45.64593499520716" lon="-0.21408103501384995"><ele>27.0</ele><time>2026-05-01T15:03:17.001Z</time></trkpt><trkpt lat="45.645938093124016" lon="-0.21420471239616873"><ele>27.0</ele><time>2026-05-01T15:03:19Z</time></trkpt><trkpt lat="45.645951898587555" lon="-0.21433490742071917"><ele>27.0</ele><time>2026-05-01T15:03:21Z</time></trkpt><trkpt lat="45.64596342901726" lon="-0.21447785167957695"><ele>27.0</ele><time>2026-05-01T15:03:23Z</time></trkpt><trkpt lat="45.64600183185507" lon="-0.2146307527951849"><ele>27.0</ele><time>2026-05-01T15:03:25Z</time></trkpt><trkpt lat="45.64599451606973" lon="-0.21472909403122728"><ele>27.0</ele><time>2026-05-01T15:03:26Z</time></trkpt><trkpt lat="45.64600851349173" lon="-0.21481771548747622"><ele>27.0</ele><time>2026-05-01T15:03:27Z</time></trkpt><trkpt lat="45.64602349047017" lon="-0.21500246693553907"><ele>27.0</ele><time>2026-05-01T15:03:29Z</time></trkpt><trkpt lat="45.64602890046145" lon="-0.21512926198604543"><ele>27.0</ele><time>2026-05-01T15:03:30Z</time></trkpt><trkpt lat="45.646044008260596" lon="-0.21523544265592012"><ele>27.0</ele><time>2026-05-01T15:03:31Z</time></trkpt><trkpt lat="45.646058592055795" lon="-0.21536020130251746"><ele>27.0</ele><time>2026-05-01T15:03:32Z</time></trkpt><trkpt lat="45.64607341073756" lon="-0.21549369190778353"><ele>27.0</ele><time>2026-05-01T15:03:33Z</time></trkpt><trkpt lat="45.64608782118839" lon="-0.21563754503678184"><ele>27.0</ele><time>2026-05-01T15:03:34Z</time></trkpt><trkpt lat="45.64610029420701" lon="-0.2158001009697568"><ele>27.0</ele><time>2026-05-01T15:03:35Z</time></trkpt><trkpt lat="45.64610500441645" lon="-0.21600256783008823"><ele>27.0</ele><time>2026-05-01T15:03:36Z</time></trkpt><trkpt lat="45.64614116273876" lon="-0.21624376136791254"><ele>27.0</ele><time>2026-05-01T15:03:37Z</time></trkpt><trkpt lat="45.646164801865794" lon="-0.21648386147396997"><ele>27.0</ele><time>2026-05-01T15:03:38Z</time></trkpt><trkpt lat="45.64619897632598" lon="-0.2166958933202351"><ele>25.666666666666668</ele><time>2026-05-01T15:03:39Z</time></trkpt><trkpt lat="45.64623261166707" lon="-0.21688508091322642"><ele>24.333333333333336</ele><time>2026-05-01T15:03:40Z</time></trkpt><trkpt lat="45.6462788381389" lon="-0.2171241871753028"><ele>23.0</ele><time>2026-05-01T15:03:41Z</time></trkpt><trkpt lat="45.64632617302038" lon="-0.2173261947067726"><ele>22.0</ele><time>2026-05-01T15:03:42Z</time></trkpt><trkpt lat="45.64637814272815" lon="-0.21752117871576532"><ele>21.0</ele><time>2026-05-01T15:03:43Z</time></trkpt><trkpt lat="45.64640139378618" lon="-0.21775629709427516"><ele>20.0</ele><time>2026-05-01T15:03:44Z</time></trkpt><trkpt lat="45.646426333889764" lon="-0.2179825155477976"><ele>19.666666666666668</ele><time>2026-05-01T15:03:45Z</time></trkpt><trkpt lat="45.646454359248075" lon="-0.2182107864677345"><ele>19.333333333333332</ele><time>2026-05-01T15:03:46Z</time></trkpt><trkpt lat="45.646474507961436" lon="-0.21845676067117328"><ele>19.0</ele><time>2026-05-01T15:03:47Z</time></trkpt><trkpt lat="45.64648647994455" lon="-0.21873726380091324"><ele>19.333333333333332</ele><time>2026-05-01T15:03:48Z</time></trkpt><trkpt lat="45.646503814379194" lon="-0.21901547281053838"><ele>19.666666666666668</ele><time>2026-05-01T15:03:49Z</time></trkpt><trkpt lat="45.646516154155606" lon="-0.21926442456605338"><ele>20.0</ele><time>2026-05-01T15:03:50Z</time></trkpt><trkpt lat="45.64652331131347" lon="-0.21950210423185612"><ele>20.0</ele><time>2026-05-01T15:03:51Z</time></trkpt><trkpt lat="45.64652955363013" lon="-0.21974815576468082"><ele>20.0</ele><time>2026-05-01T15:03:52Z</time></trkpt><trkpt lat="45.646522497557264" lon="-0.22001852873592803"><ele>20.0</ele><time>2026-05-01T15:03:53Z</time></trkpt><trkpt lat="45.64652923366238" lon="-0.2202613410876664"><ele>20.0</ele><time>2026-05-01T15:03:54Z</time></trkpt><trkpt lat="45.646531442279816" lon="-0.22048895872435612"><ele>20.0</ele><time>2026-05-01T15:03:55Z</time></trkpt><trkpt lat="45.64653312709325" lon="-0.2207524738303676"><ele>20.0</ele><time>2026-05-01T15:03:56Z</time></trkpt><trkpt lat="45.64654349921713" lon="-0.22099405533398964"><ele>20.0</ele><time>2026-05-01T15:03:57Z</time></trkpt><trkpt lat="45.646551516092465" lon="-0.2212136083741861"><ele>20.0</ele><time>2026-05-01T15:03:58Z</time></trkpt><trkpt lat="45.64655840597024" lon="-0.22138231262393507"><ele>20.0</ele><time>2026-05-01T15:03:59Z</time></trkpt><trkpt lat="45.646549648778596" lon="-0.22151736027525518"><ele>20.0</ele><time>2026-05-01T15:04:00Z</time></trkpt><trkpt lat="45.6465610793649" lon="-0.2216176941381334"><ele>20.0</ele><time>2026-05-01T15:04:02Z</time></trkpt><trkpt lat="45.646723028276966" lon="-0.22163859685304294"><ele>19.75</ele><time>2026-05-01T15:04:05.001Z</time></trkpt><trkpt lat="45.64684749467589" lon="-0.22166347199821934"><ele>19.5</ele><time>2026-05-01T15:04:06.001Z</time></trkpt><trkpt lat="45.64699802017415" lon="-0.22166211627309665"><ele>19.25</ele><time>2026-05-01T15:04:07.001Z</time></trkpt><trkpt lat="45.64715632174034" lon="-0.22166424799505358"><ele>19.0</ele><time>2026-05-01T15:04:08.001Z</time></trkpt><trkpt lat="45.647276844809575" lon="-0.22167015172455903"><ele>19.4</ele><time>2026-05-01T15:04:09.001Z</time></trkpt><trkpt lat="45.64739456648273" lon="-0.22171299522617646"><ele>19.799999999999997</ele><time>2026-05-01T15:04:10.001Z</time></trkpt><trkpt lat="45.647514405855745" lon="-0.22173007806353107"><ele>20.200000000000003</ele><time>2026-05-01T15:04:11.001Z</time></trkpt><trkpt lat="45.647586185543524" lon="-0.22172538618474213"><ele>20.6</ele><time>2026-05-01T15:04:12.001Z</time></trkpt><trkpt lat="45.64765216616185" lon="-0.22172443865716931"><ele>21.0</ele><time>2026-05-01T15:04:13.001Z</time></trkpt><trkpt lat="45.64777046426196" lon="-0.22176297089927122"><ele>20.8</ele><time>2026-05-01T15:04:15.001Z</time></trkpt><trkpt lat="45.647852371096675" lon="-0.22180920485024574"><ele>20.6</ele><time>2026-05-01T15:04:16.001Z</time></trkpt><trkpt lat="45.647940240312174" lon="-0.22189334504409647"><ele>20.4</ele><time>2026-05-01T15:04:17.001Z</time></trkpt><trkpt lat="45.64801214610518" lon="-0.22197400281124963"><ele>20.2</ele><time>2026-05-01T15:04:18.001Z</time></trkpt><trkpt lat="45.64808837129329" lon="-0.22203976682762488"><ele>20.0</ele><time>2026-05-01T15:04:19.001Z</time></trkpt><trkpt lat="45.648160731202616" lon="-0.2221014156355924"><ele>20.0</ele><time>2026-05-01T15:04:20.001Z</time></trkpt><trkpt lat="45.64822483010858" lon="-0.22213938295711394"><ele>20.0</ele><time>2026-05-01T15:04:21.001Z</time></trkpt><trkpt lat="45.64828063663821" lon="-0.22218485773637048"><ele>20.0</ele><time>2026-05-01T15:04:22.001Z</time></trkpt><trkpt lat="45.648337782260604" lon="-0.22223959329092888"><ele>20.0</ele><time>2026-05-01T15:04:23.001Z</time></trkpt><trkpt lat="45.648404972289185" lon="-0.2223193044873373"><ele>20.0</ele><time>2026-05-01T15:04:24.001Z</time></trkpt><trkpt lat="45.64848057311705" lon="-0.2224052223765125"><ele>20.0</ele><time>2026-05-01T15:04:25.001Z</time></trkpt><trkpt lat="45.648564035421295" lon="-0.2224981848142399"><ele>20.6</ele><time>2026-05-01T15:04:26.001Z</time></trkpt><trkpt lat="45.648653173982396" lon="-0.22259462066381386"><ele>21.2</ele><time>2026-05-01T15:04:27.001Z</time></trkpt><trkpt lat="45.648754380810516" lon="-0.2226807144085008"><ele>21.799999999999997</ele><time>2026-05-01T15:04:28.001Z</time></trkpt><trkpt lat="45.64885057440864" lon="-0.2227534499061654"><ele>22.4</ele><time>2026-05-01T15:04:29.001Z</time></trkpt><trkpt lat="45.64892503102319" lon="-0.2228085397047707"><ele>23.0</ele><time>2026-05-01T15:04:30.001Z</time></trkpt><trkpt lat="45.64901126228252" lon="-0.22286753830181383"><ele>23.0</ele><time>2026-05-01T15:04:31.001Z</time></trkpt><trkpt lat="45.64910551582867" lon="-0.22293283998868257"><ele>23.0</ele><time>2026-05-01T15:04:32.001Z</time></trkpt><trkpt lat="45.64918939989698" lon="-0.22300701295056274"><ele>23.0</ele><time>2026-05-01T15:04:33.001Z</time></trkpt><trkpt lat="45.64928191130126" lon="-0.22308302778013753"><ele>23.0</ele><time>2026-05-01T15:04:34.001Z</time></trkpt><trkpt lat="45.64937087950329" lon="-0.22315496297931983"><ele>23.0</ele><time>2026-05-01T15:04:35.001Z</time></trkpt><trkpt lat="45.64945405252322" lon="-0.2232196370401352"><ele>23.333333333333336</ele><time>2026-05-01T15:04:36.001Z</time></trkpt><trkpt lat="45.649527449374105" lon="-0.22327605330150258"><ele>23.666666666666668</ele><time>2026-05-01T15:04:37.001Z</time></trkpt><trkpt lat="45.6496053253936" lon="-0.22333894240521762"><ele>24.0</ele><time>2026-05-01T15:04:38.001Z</time></trkpt><trkpt lat="45.649682870703025" lon="-0.22340769277124792"><ele>24.333333333333336</ele><time>2026-05-01T15:04:39.001Z</time></trkpt><trkpt lat="45.64976040220284" lon="-0.22347235545881688"><ele>24.666666666666668</ele><time>2026-05-01T15:04:40.001Z</time></trkpt><trkpt lat="45.64983122135929" lon="-0.22352202548992114"><ele>25.0</ele><time>2026-05-01T15:04:41.001Z</time></trkpt><trkpt lat="45.649907609266045" lon="-0.22357876215088346"><ele>25.0</ele><time>2026-05-01T15:04:43.001Z</time></trkpt><trkpt lat="45.649973982727744" lon="-0.22363414285948796"><ele>25.0</ele><time>2026-05-01T15:05:01.001Z</time></trkpt><trkpt lat="45.650027632357265" lon="-0.22376901854304954"><ele>25.0</ele><time>2026-05-01T15:05:03.001Z</time></trkpt><trkpt lat="45.65003190425243" lon="-0.22387773580727424"><ele>25.0</ele><time>2026-05-01T15:05:04.001Z</time></trkpt><trkpt lat="45.650051977097206" lon="-0.2240421164747158"><ele>25.0</ele><time>2026-05-01T15:05:05.001Z</time></trkpt><trkpt lat="45.65009033419538" lon="-0.2242061934750999"><ele>25.0</ele><time>2026-05-01T15:05:06.001Z</time></trkpt><trkpt lat="45.650120487590655" lon="-0.22434452745532152"><ele>25.0</ele><time>2026-05-01T15:05:07.001Z</time></trkpt><trkpt lat="45.650148454402604" lon="-0.22447675114601592"><ele>25.0</ele><time>2026-05-01T15:05:08.001Z</time></trkpt><trkpt lat="45.65017206788841" lon="-0.22463810053739244"><ele>25.0</ele><time>2026-05-01T15:05:09.001Z</time></trkpt><trkpt lat="45.650193007401796" lon="-0.2248381390237924"><ele>25.0</ele><time>2026-05-01T15:05:10.001Z</time></trkpt><trkpt lat="45.650214716143864" lon="-0.2250371526830008"><ele>25.0</ele><time>2026-05-01T15:05:11.001Z</time></trkpt><trkpt lat="45.65023636349956" lon="-0.22522076304022262"><ele>25.0</ele><time>2026-05-01T15:05:12.001Z</time></trkpt><trkpt lat="45.65025555536441" lon="-0.2253974372232885"><ele>25.0</ele><time>2026-05-01T15:05:13.001Z</time></trkpt><trkpt lat="45.650277187827946" lon="-0.22558494504053114"><ele>25.5</ele><time>2026-05-01T15:05:14.001Z</time></trkpt><trkpt lat="45.650298401968826" lon="-0.22575995413766953"><ele>26.0</ele><time>2026-05-01T15:05:15.001Z</time></trkpt><trkpt lat="45.650314326323105" lon="-0.22591976791564355"><ele>26.5</ele><time>2026-05-01T15:05:16.001Z</time></trkpt><trkpt lat="45.650325355349295" lon="-0.22608067972985893"><ele>27.0</ele><time>2026-05-01T15:05:17.001Z</time></trkpt><trkpt lat="45.650330470327155" lon="-0.22623538693966005"><ele>27.0</ele><time>2026-05-01T15:05:18.001Z</time></trkpt><trkpt lat="45.65034354847066" lon="-0.22638874653931465"><ele>27.000000000000004</ele><time>2026-05-01T15:05:19.001Z</time></trkpt><trkpt lat="45.65036909853953" lon="-0.22652546263902323"><ele>27.000000000000004</ele><time>2026-05-01T15:05:20.001Z</time></trkpt><trkpt lat="45.650408057128054" lon="-0.2266640235243535"><ele>27.0</ele><time>2026-05-01T15:05:21.001Z</time></trkpt><trkpt lat="45.650459578910876" lon="-0.22679887769084603"><ele>27.0</ele><time>2026-05-01T15:05:22.001Z</time></trkpt><trkpt lat="45.65052473738094" lon="-0.22690210702826807"><ele>27.0</ele><time>2026-05-01T15:05:23.001Z</time></trkpt><trkpt lat="45.65059958983044" lon="-0.22699002690865683"><ele>27.0</ele><time>2026-05-01T15:05:24.001Z</time></trkpt><trkpt lat="45.65066858995399" lon="-0.2270732546623694"><ele>27.0</ele><time>2026-05-01T15:05:25Z</time></trkpt><trkpt lat="45.650728390684385" lon="-0.22716277302239185"><ele>27.0</ele><time>2026-05-01T15:05:26Z</time></trkpt><trkpt lat="45.65078035183411" lon="-0.2272520350046187"><ele>27.0</ele><time>2026-05-01T15:05:27Z</time></trkpt><trkpt lat="45.65082235667351" lon="-0.22735572374969676"><ele>27.0</ele><time>2026-05-01T15:05:28Z</time></trkpt><trkpt lat="45.65085746713538" lon="-0.2274656038373402"><ele>27.285714285714285</ele><time>2026-05-01T15:05:29Z</time></trkpt><trkpt lat="45.65088330688466" lon="-0.2275836055291246"><ele>27.57142857142857</ele><time>2026-05-01T15:05:30Z</time></trkpt><trkpt lat="45.6509113864478" lon="-0.2276696084422138"><ele>27.85714285714286</ele><time>2026-05-01T15:05:31Z</time></trkpt><trkpt lat="45.6509467000948" lon="-0.22775876107172013"><ele>28.142857142857146</ele><time>2026-05-01T15:05:32Z</time></trkpt><trkpt lat="45.650992792241" lon="-0.22784491532332207"><ele>28.42857142857143</ele><time>2026-05-01T15:05:33Z</time></trkpt><trkpt lat="45.651044180690384" lon="-0.22792428065282155"><ele>28.71428571428572</ele><time>2026-05-01T15:05:34Z</time></trkpt><trkpt lat="45.651099237501846" lon="-0.2279923311451418"><ele>29.000000000000004</ele><time>2026-05-01T15:05:35Z</time></trkpt><trkpt lat="45.65116380316937" lon="-0.22805721206338703"><ele>28.333333333333332</ele><time>2026-05-01T15:05:36Z</time></trkpt><trkpt lat="45.65122459958204" lon="-0.22813065933813265"><ele>27.666666666666664</ele><time>2026-05-01T15:05:37Z</time></trkpt><trkpt lat="45.65128838480911" lon="-0.22821035526946645"><ele>27.0</ele><time>2026-05-01T15:05:38Z</time></trkpt><trkpt lat="45.65134616610778" lon="-0.22829886722653878"><ele>26.333333333333336</ele><time>2026-05-01T15:05:39Z</time></trkpt><trkpt lat="45.65139608041137" lon="-0.2283836673492114"><ele>25.666666666666668</ele><time>2026-05-01T15:05:40Z</time></trkpt><trkpt lat="45.651451908357174" lon="-0.22847927086772582"><ele>25.0</ele><time>2026-05-01T15:05:41Z</time></trkpt><trkpt lat="45.651516301719276" lon="-0.22857040219600588"><ele>25.0</ele><time>2026-05-01T15:05:42Z</time></trkpt><trkpt lat="45.65158353820408" lon="-0.22868176552366692"><ele>25.0</ele><time>2026-05-01T15:05:43Z</time></trkpt><trkpt lat="45.65163559593708" lon="-0.2287765060569346"><ele>25.0</ele><time>2026-05-01T15:05:44Z</time></trkpt><trkpt lat="45.6516913254776" lon="-0.22887076173141627"><ele>25.0</ele><time>2026-05-01T15:05:45Z</time></trkpt><trkpt lat="45.65174038462472" lon="-0.2289542493841189"><ele>25.0</ele><time>2026-05-01T15:05:46Z</time></trkpt><trkpt lat="45.651816869621065" lon="-0.22909422897010503"><ele>25.000000000000004</ele><time>2026-05-01T15:05:48Z</time></trkpt><trkpt lat="45.65186351035766" lon="-0.22919359760993974"><ele>25.0</ele><time>2026-05-01T15:05:49Z</time></trkpt><trkpt lat="45.651900463344205" lon="-0.2292830165293235"><ele>25.0</ele><time>2026-05-01T15:05:50Z</time></trkpt><trkpt lat="45.65194363999741" lon="-0.22938459070312672"><ele>25.0</ele><time>2026-05-01T15:05:51Z</time></trkpt><trkpt lat="45.65199196023141" lon="-0.22949726550721725"><ele>25.000000000000004</ele><time>2026-05-01T15:05:52Z</time></trkpt><trkpt lat="45.65204403423517" lon="-0.2296011744189363"><ele>25.0</ele><time>2026-05-01T15:05:53Z</time></trkpt><trkpt lat="45.65209320687402" lon="-0.2297005733644677"><ele>25.333333333333336</ele><time>2026-05-01T15:05:54Z</time></trkpt><trkpt lat="45.65213729558667" lon="-0.22981241099449462"><ele>25.666666666666668</ele><time>2026-05-01T15:05:55Z</time></trkpt><trkpt lat="45.652179766867334" lon="-0.2298977665956814"><ele>26.0</ele><time>2026-05-01T15:05:56Z</time></trkpt><trkpt lat="45.65222798497988" lon="-0.2299787193002378"><ele>26.333333333333336</ele><time>2026-05-01T15:05:57Z</time></trkpt><trkpt lat="45.652276311920325" lon="-0.23006318577769633"><ele>26.666666666666668</ele><time>2026-05-01T15:05:58Z</time></trkpt><trkpt lat="45.652323217193675" lon="-0.23015159853630923"><ele>27.0</ele><time>2026-05-01T15:05:59Z</time></trkpt><trkpt lat="45.65236942128287" lon="-0.23021949749305348"><ele>27.0</ele><time>2026-05-01T15:06:00Z</time></trkpt><trkpt lat="45.65242188878885" lon="-0.23028698111817872"><ele>27.0</ele><time>2026-05-01T15:06:01Z</time></trkpt><trkpt lat="45.652481275249116" lon="-0.23035907397156768"><ele>27.0</ele><time>2026-05-01T15:06:02Z</time></trkpt><trkpt lat="45.65254125566803" lon="-0.23043382730758363"><ele>27.0</ele><time>2026-05-01T15:06:03Z</time></trkpt><trkpt lat="45.652597113800326" lon="-0.2305002472390128"><ele>27.0</ele><time>2026-05-01T15:06:04Z</time></trkpt><trkpt lat="45.65264993831611" lon="-0.23055498365097543"><ele>27.0</ele><time>2026-05-01T15:06:05Z</time></trkpt><trkpt lat="45.65275165382529" lon="-0.23061834515035698"><ele>26.8</ele><time>2026-05-01T15:06:07Z</time></trkpt><trkpt lat="45.6528444451999" lon="-0.23060722839461745"><ele>26.6</ele><time>2026-05-01T15:06:09Z</time></trkpt><trkpt lat="45.652924807293886" lon="-0.23058832143544572"><ele>26.400000000000002</ele><time>2026-05-01T15:06:11Z</time></trkpt><trkpt lat="45.6529898780889" lon="-0.23056715928236474"><ele>26.200000000000003</ele><time>2026-05-01T15:06:13Z</time></trkpt><trkpt lat="45.65309128188462" lon="-0.23052982403842973"><ele>26.0</ele><time>2026-05-01T15:06:15Z</time></trkpt><trkpt lat="45.65322064770265" lon="-0.23050691153389016"><ele>25.999999999999996</ele><time>2026-05-01T15:06:17Z</time></trkpt><trkpt lat="45.653283344940405" lon="-0.2304879282204574"><ele>26.0</ele><time>2026-05-01T15:06:18Z</time></trkpt><trkpt lat="45.65334745019968" lon="-0.23046781249825193"><ele>26.0</ele><time>2026-05-01T15:06:19Z</time></trkpt><trkpt lat="45.65345895235662" lon="-0.23042806308551117"><ele>26.0</ele><time>2026-05-01T15:06:21.001Z</time></trkpt><trkpt lat="45.65357749309458" lon="-0.23039226996622547"><ele>25.999999999999996</ele><time>2026-05-01T15:06:23.001Z</time></trkpt><trkpt lat="45.65365312663777" lon="-0.23037110218351917"><ele>26.0</ele><time>2026-05-01T15:06:24.001Z</time></trkpt><trkpt lat="45.65372592058016" lon="-0.23035214721233757"><ele>26.333333333333332</ele><time>2026-05-01T15:06:25.001Z</time></trkpt><trkpt lat="45.65380355896825" lon="-0.23032497963560303"><ele>26.666666666666664</ele><time>2026-05-01T15:06:26.001Z</time></trkpt><trkpt lat="45.65388528432116" lon="-0.23029307793754242"><ele>27.0</ele><time>2026-05-01T15:06:27.001Z</time></trkpt><trkpt lat="45.65396330345844" lon="-0.23024821340480534"><ele>27.333333333333336</ele><time>2026-05-01T15:06:28.001Z</time></trkpt><trkpt lat="45.65403606618888" lon="-0.23020680038574767"><ele>27.666666666666668</ele><time>2026-05-01T15:06:29.001Z</time></trkpt><trkpt lat="45.65410701416581" lon="-0.23015842987739668"><ele>28.0</ele><time>2026-05-01T15:06:30.001Z</time></trkpt><trkpt lat="45.654179250114844" lon="-0.23010329469198604"><ele>28.000000000000004</ele><time>2026-05-01T15:06:31.001Z</time></trkpt><trkpt lat="45.654246288025995" lon="-0.23004218535656415"><ele>28.0</ele><time>2026-05-01T15:06:32.001Z</time></trkpt><trkpt lat="45.65431574808357" lon="-0.22998923921391043"><ele>28.0</ele><time>2026-05-01T15:06:33.001Z</time></trkpt><trkpt lat="45.65439253156781" lon="-0.22992931709398265"><ele>28.0</ele><time>2026-05-01T15:06:34.001Z</time></trkpt><trkpt lat="45.65446627496239" lon="-0.2298680731313579"><ele>28.000000000000004</ele><time>2026-05-01T15:06:35.001Z</time></trkpt><trkpt lat="45.65454326263145" lon="-0.2298161371163457"><ele>28.0</ele><time>2026-05-01T15:06:36.001Z</time></trkpt><trkpt lat="45.65462639362128" lon="-0.22975417579486976"><ele>27.833333333333336</ele><time>2026-05-01T15:06:37.001Z</time></trkpt><trkpt lat="45.654700482244294" lon="-0.22969732135570667"><ele>27.666666666666668</ele><time>2026-05-01T15:06:38.001Z</time></trkpt><trkpt lat="45.65477025947516" lon="-0.22964411418278874"><ele>27.5</ele><time>2026-05-01T15:06:39.001Z</time></trkpt><trkpt lat="45.654846269335614" lon="-0.22959129671499878"><ele>27.333333333333336</ele><time>2026-05-01T15:06:41.001Z</time></trkpt><trkpt lat="45.654908622492144" lon="-0.22964571773199335"><ele>27.166666666666668</ele><time>2026-05-01T15:06:43.001Z</time></trkpt><trkpt lat="45.654952690232975" lon="-0.22978916686893947"><ele>27.0</ele><time>2026-05-01T15:06:45.001Z</time></trkpt><trkpt lat="45.65497882772183" lon="-0.22987124044232635"><ele>27.333333333333332</ele><time>2026-05-01T15:06:46.001Z</time></trkpt><trkpt lat="45.655006484173015" lon="-0.22995287120678137"><ele>27.666666666666664</ele><time>2026-05-01T15:06:47.001Z</time></trkpt><trkpt lat="45.65503185600428" lon="-0.23004070668807972"><ele>28.0</ele><time>2026-05-01T15:06:48.001Z</time></trkpt><trkpt lat="45.65505766602203" lon="-0.23013008060619033"><ele>28.333333333333332</ele><time>2026-05-01T15:06:49.001Z</time></trkpt><trkpt lat="45.65508459278644" lon="-0.23022260045537912"><ele>28.666666666666664</ele><time>2026-05-01T15:06:50.001Z</time></trkpt><trkpt lat="45.65512367905448" lon="-0.23038620323597758"><ele>29.0</ele><time>2026-05-01T15:06:52.001Z</time></trkpt><trkpt lat="45.655161255071256" lon="-0.2305261712211547"><ele>29.0</ele><time>2026-05-01T15:06:54.001Z</time></trkpt><trkpt lat="45.65520286609179" lon="-0.23059991154125645"><ele>29.0</ele><time>2026-05-01T15:06:56.001Z</time></trkpt><trkpt lat="45.65514526134382" lon="-0.23046851082285616"><ele>29.0</ele><time>2026-05-01T15:07:16.001Z</time></trkpt><trkpt lat="45.655117904895754" lon="-0.23033604495614857"><ele>29.0</ele><time>2026-05-01T15:07:17.001Z</time></trkpt><trkpt lat="45.655074338238045" lon="-0.23018714938861795"><ele>29.0</ele><time>2026-05-01T15:07:19.001Z</time></trkpt><trkpt lat="45.655028569854785" lon="-0.23002215094519876"><ele>29.0</ele><time>2026-05-01T15:07:21.001Z</time></trkpt><trkpt lat="45.65497490206385" lon="-0.22986735069684744"><ele>29.0</ele><time>2026-05-01T15:07:23.001Z</time></trkpt><trkpt lat="45.654948258801724" lon="-0.2297853523486553"><ele>29.0</ele><time>2026-05-01T15:07:24.001Z</time></trkpt><trkpt lat="45.65490761766325" lon="-0.22965661814489574"><ele>29.0</ele><time>2026-05-01T15:07:26.001Z</time></trkpt><trkpt lat="45.654885615877085" lon="-0.2294650498617808"><ele>29.0</ele><time>2026-05-01T15:07:28.001Z</time></trkpt><trkpt lat="45.65487045937364" lon="-0.2293251994545555"><ele>28.6</ele><time>2026-05-01T15:07:29.001Z</time></trkpt><trkpt lat="45.65486104234687" lon="-0.2291770214330403"><ele>28.2</ele><time>2026-05-01T15:07:30.001Z</time></trkpt><trkpt lat="45.65485137135746" lon="-0.229044184880183"><ele>27.800000000000004</ele><time>2026-05-01T15:07:31Z</time></trkpt><trkpt lat="45.65484846142888" lon="-0.22890509338266912"><ele>27.400000000000002</ele><time>2026-05-01T15:07:32Z</time></trkpt><trkpt lat="45.65483839654089" lon="-0.22877223465256982"><ele>27.0</ele><time>2026-05-01T15:07:33Z</time></trkpt><trkpt lat="45.65481897809449" lon="-0.22863990332208906"><ele>27.0</ele><time>2026-05-01T15:07:34Z</time></trkpt><trkpt lat="45.65479690026275" lon="-0.22851504519029198"><ele>27.0</ele><time>2026-05-01T15:07:35Z</time></trkpt><trkpt lat="45.6547573381829" lon="-0.22839654519464045"><ele>27.0</ele><time>2026-05-01T15:07:36Z</time></trkpt><trkpt lat="45.654722025659254" lon="-0.22828075606044307"><ele>27.0</ele><time>2026-05-01T15:07:37Z</time></trkpt><trkpt lat="45.65469254512351" lon="-0.2281757663682454"><ele>27.0</ele><time>2026-05-01T15:07:38Z</time></trkpt><trkpt lat="45.65466147562851" lon="-0.22805680229855396"><ele>27.0</ele><time>2026-05-01T15:07:39Z</time></trkpt><trkpt lat="45.654625154689015" lon="-0.22794419543296157"><ele>27.0</ele><time>2026-05-01T15:07:40Z</time></trkpt><trkpt lat="45.65458909911828" lon="-0.22781771299961276"><ele>27.000000000000004</ele><time>2026-05-01T15:07:41Z</time></trkpt><trkpt lat="45.65454405515885" lon="-0.22768697434401142"><ele>27.000000000000004</ele><time>2026-05-01T15:07:42Z</time></trkpt><trkpt lat="45.65450491031976" lon="-0.22757079823297321"><ele>27.0</ele><time>2026-05-01T15:07:43Z</time></trkpt><trkpt lat="45.65446068428192" lon="-0.22744036577700877"><ele>27.0</ele><time>2026-05-01T15:07:44Z</time></trkpt><trkpt lat="45.65441846409773" lon="-0.2273223502671536"><ele>26.666666666666668</ele><time>2026-05-01T15:07:45Z</time></trkpt><trkpt lat="45.65437264587142" lon="-0.2272194812179057"><ele>26.333333333333336</ele><time>2026-05-01T15:07:46Z</time></trkpt><trkpt lat="45.65431315749048" lon="-0.22714066669068594"><ele>26.0</ele><time>2026-05-01T15:07:47Z</time></trkpt><trkpt lat="45.65427517941815" lon="-0.22702609909454208"><ele>25.666666666666668</ele><time>2026-05-01T15:07:48Z</time></trkpt><trkpt lat="45.65423853017364" lon="-0.2269123732358606"><ele>25.333333333333336</ele><time>2026-05-01T15:07:49Z</time></trkpt><trkpt lat="45.65420126606027" lon="-0.22679113074552854"><ele>25.0</ele><time>2026-05-01T15:07:50Z</time></trkpt><trkpt lat="45.65416502057204" lon="-0.22666632936819384"><ele>25.0</ele><time>2026-05-01T15:07:51Z</time></trkpt><trkpt lat="45.65413380278051" lon="-0.22654471387325203"><ele>25.0</ele><time>2026-05-01T15:07:52Z</time></trkpt><trkpt lat="45.654110572054634" lon="-0.22641540454132936"><ele>25.0</ele><time>2026-05-01T15:07:53Z</time></trkpt><trkpt lat="45.654093624685" lon="-0.2262846675332504"><ele>25.0</ele><time>2026-05-01T15:07:54Z</time></trkpt><trkpt lat="45.65408176865258" lon="-0.22615968296697117"><ele>25.0</ele><time>2026-05-01T15:07:55Z</time></trkpt><trkpt lat="45.65406551186056" lon="-0.22603410600947657"><ele>25.166666666666668</ele><time>2026-05-01T15:07:56Z</time></trkpt><trkpt lat="45.654056388304035" lon="-0.22591514672201737"><ele>25.333333333333336</ele><time>2026-05-01T15:07:57Z</time></trkpt><trkpt lat="45.65403294006321" lon="-0.22580564260866096"><ele>25.5</ele><time>2026-05-01T15:07:58Z</time></trkpt><trkpt lat="45.65401373658711" lon="-0.22571109824013164"><ele>25.666666666666664</ele><time>2026-05-01T15:07:59Z</time></trkpt><trkpt lat="45.65399750395698" lon="-0.2256163063352588"><ele>25.833333333333332</ele><time>2026-05-01T15:08:00Z</time></trkpt><trkpt lat="45.653964020982876" lon="-0.22548937244242995"><ele>26.0</ele><time>2026-05-01T15:08:02Z</time></trkpt><trkpt lat="45.6539670403514" lon="-0.22539865754091984"><ele>26.0</ele><time>2026-05-01T15:08:05Z</time></trkpt><trkpt lat="45.653978539337345" lon="-0.22556089529597667"><ele>26.0</ele><time>2026-05-01T15:08:08Z</time></trkpt><trkpt lat="45.6539999433573" lon="-0.22570180821813765"><ele>26.0</ele><time>2026-05-01T15:08:09Z</time></trkpt><trkpt lat="45.65404476452896" lon="-0.2258434948827859"><ele>26.0</ele><time>2026-05-01T15:08:10Z</time></trkpt><trkpt lat="45.65407307224794" lon="-0.2259859874593234"><ele>26.0</ele><time>2026-05-01T15:08:11Z</time></trkpt><trkpt lat="45.65410151334308" lon="-0.22611747534148116"><ele>25.999999999999996</ele><time>2026-05-01T15:08:12Z</time></trkpt><trkpt lat="45.654125369070876" lon="-0.22624055622881312"><ele>26.0</ele><time>2026-05-01T15:08:13Z</time></trkpt><trkpt lat="45.654139068307636" lon="-0.22635730775701532"><ele>26.0</ele><time>2026-05-01T15:08:14Z</time></trkpt><trkpt lat="45.6541549343953" lon="-0.22647218993385695"><ele>26.0</ele><time>2026-05-01T15:08:15.001Z</time></trkpt><trkpt lat="45.65417020522147" lon="-0.22658538805090983"><ele>25.999999999999996</ele><time>2026-05-01T15:08:16.001Z</time></trkpt><trkpt lat="45.65419358913728" lon="-0.22668691248906858"><ele>26.0</ele><time>2026-05-01T15:08:17.001Z</time></trkpt><trkpt lat="45.65423254256992" lon="-0.2268058121422628"><ele>25.8</ele><time>2026-05-01T15:08:18.001Z</time></trkpt><trkpt lat="45.65426719333011" lon="-0.2269240479194421"><ele>25.6</ele><time>2026-05-01T15:08:19.001Z</time></trkpt><trkpt lat="45.65430808043533" lon="-0.2270289416290103"><ele>25.4</ele><time>2026-05-01T15:08:20.001Z</time></trkpt><trkpt lat="45.65437658681533" lon="-0.22712467969124656"><ele>25.2</ele><time>2026-05-01T15:08:22.001Z</time></trkpt><trkpt lat="45.654466069763316" lon="-0.2270627938897945"><ele>25.0</ele><time>2026-05-01T15:08:24.001Z</time></trkpt><trkpt lat="45.654613929557215" lon="-0.22702544594556223"><ele>25.666666666666668</ele><time>2026-05-01T15:08:26.001Z</time></trkpt><trkpt lat="45.654711466446756" lon="-0.22699225033835516"><ele>26.333333333333336</ele><time>2026-05-01T15:08:27.001Z</time></trkpt><trkpt lat="45.65484402008319" lon="-0.22694770957628935"><ele>27.0</ele><time>2026-05-01T15:08:28.001Z</time></trkpt><trkpt lat="45.65516994168635" lon="-0.22686092914230058"><ele>26.333333333333336</ele><time>2026-05-01T15:08:30.001Z</time></trkpt><trkpt lat="45.65536012724602" lon="-0.22677995384553265"><ele>25.666666666666668</ele><time>2026-05-01T15:08:31.001Z</time></trkpt><trkpt lat="45.655561887175836" lon="-0.2267192506883055"><ele>25.0</ele><time>2026-05-01T15:08:32.001Z</time></trkpt><trkpt lat="45.65572828367647" lon="-0.2266695828075713"><ele>25.0</ele><time>2026-05-01T15:08:33.001Z</time></trkpt><trkpt lat="45.65588148875619" lon="-0.22662385243327615"><ele>25.0</ele><time>2026-05-01T15:08:34.001Z</time></trkpt><trkpt lat="45.656036631072276" lon="-0.22660070059204482"><ele>25.0</ele><time>2026-05-01T15:08:35.001Z</time></trkpt><trkpt lat="45.65616336397564" lon="-0.22653971524795619"><ele>25.0</ele><time>2026-05-01T15:08:36.001Z</time></trkpt><trkpt lat="45.656275841462666" lon="-0.22650614175153042"><ele>25.4</ele><time>2026-05-01T15:08:37.001Z</time></trkpt><trkpt lat="45.65639048733329" lon="-0.2264719209410029"><ele>25.8</ele><time>2026-05-01T15:08:38.001Z</time></trkpt><trkpt lat="45.656517321008835" lon="-0.2264340622597117"><ele>26.200000000000003</ele><time>2026-05-01T15:08:39.001Z</time></trkpt><trkpt lat="45.65662218991274" lon="-0.22642514660075144"><ele>26.6</ele><time>2026-05-01T15:08:40.001Z</time></trkpt><trkpt lat="45.65670816333474" lon="-0.2263770975532889"><ele>27.0</ele><time>2026-05-01T15:08:41.001Z</time></trkpt><trkpt lat="45.65677491606284" lon="-0.22635717258227803"><ele>27.0</ele><time>2026-05-01T15:08:42.001Z</time></trkpt><trkpt lat="45.656898315837175" lon="-0.22633522553830418"><ele>27.000000000000004</ele><time>2026-05-01T15:08:44.001Z</time></trkpt><trkpt lat="45.65697319741814" lon="-0.22631392811929998"><ele>27.000000000000004</ele><time>2026-05-01T15:08:45.001Z</time></trkpt><trkpt lat="45.65706011080409" lon="-0.22629532255718396"><ele>27.0</ele><time>2026-05-01T15:08:46.001Z</time></trkpt><trkpt lat="45.65713372319572" lon="-0.2262806854965241"><ele>27.0</ele><time>2026-05-01T15:08:47.001Z</time></trkpt><trkpt lat="45.657199956270844" lon="-0.22640279962427096"><ele>27.0</ele><time>2026-05-01T15:08:50.001Z</time></trkpt><trkpt lat="45.657181729215395" lon="-0.22656936304453004"><ele>27.0</ele><time>2026-05-01T15:08:52.001Z</time></trkpt><trkpt lat="45.6571560460784" lon="-0.22669719155185694"><ele>27.0</ele><time>2026-05-01T15:08:53.001Z</time></trkpt><trkpt lat="45.65712254314727" lon="-0.22683564773661338"><ele>27.0</ele><time>2026-05-01T15:08:54.001Z</time></trkpt><trkpt lat="45.65712628697873" lon="-0.22705470025657426"><ele>27.0</ele><time>2026-05-01T15:08:55.001Z</time></trkpt><trkpt lat="45.65713771992809" lon="-0.22727979247313246"><ele>27.0</ele><time>2026-05-01T15:08:56.001Z</time></trkpt><trkpt lat="45.657149553186564" lon="-0.22750022336886278"><ele>27.0</ele><time>2026-05-01T15:08:57.001Z</time></trkpt><trkpt lat="45.657152638926924" lon="-0.2276834491602831"><ele>27.0</ele><time>2026-05-01T15:08:58.001Z</time></trkpt><trkpt lat="45.65714903825263" lon="-0.22788635973329327"><ele>27.0</ele><time>2026-05-01T15:08:59.001Z</time></trkpt><trkpt lat="45.657164422531835" lon="-0.22806699966428348"><ele>27.0</ele><time>2026-05-01T15:09:00.001Z</time></trkpt><trkpt lat="45.65716700956994" lon="-0.2282271685081647"><ele>27.0</ele><time>2026-05-01T15:09:01.001Z</time></trkpt><trkpt lat="45.65715714318949" lon="-0.22839783628903515"><ele>27.0</ele><time>2026-05-01T15:09:02.001Z</time></trkpt><trkpt lat="45.65716099164445" lon="-0.2285803305573105"><ele>27.333333333333336</ele><time>2026-05-01T15:09:03.001Z</time></trkpt><trkpt lat="45.65716563307634" lon="-0.2287715931805196"><ele>27.666666666666668</ele><time>2026-05-01T15:09:04.001Z</time></trkpt><trkpt lat="45.65718381533549" lon="-0.2289568546209009"><ele>28.0</ele><time>2026-05-01T15:09:05.001Z</time></trkpt><trkpt lat="45.65719726961921" lon="-0.22935019888260785"><ele>28.0</ele><time>2026-05-01T15:09:07.001Z</time></trkpt><trkpt lat="45.657228251001264" lon="-0.2295462801489671"><ele>28.0</ele><time>2026-05-01T15:09:08.001Z</time></trkpt><trkpt lat="45.657264053463024" lon="-0.22975920717372228"><ele>28.0</ele><time>2026-05-01T15:09:09.001Z</time></trkpt><trkpt lat="45.657309598783286" lon="-0.2300184099628447"><ele>28.0</ele><time>2026-05-01T15:09:10.001Z</time></trkpt><trkpt lat="45.657358095326764" lon="-0.2302878724779462"><ele>28.0</ele><time>2026-05-01T15:09:11.001Z</time></trkpt><trkpt lat="45.65739405549351" lon="-0.23050150714725742"><ele>28.0</ele><time>2026-05-01T15:09:12.001Z</time></trkpt><trkpt lat="45.6574289187038" lon="-0.2306931646287665"><ele>28.25</ele><time>2026-05-01T15:09:13.001Z</time></trkpt><trkpt lat="45.65746570362462" lon="-0.23086346039120625"><ele>28.5</ele><time>2026-05-01T15:09:14.001Z</time></trkpt><trkpt lat="45.65750831882678" lon="-0.2310175268174946"><ele>28.75</ele><time>2026-05-01T15:09:15.001Z</time></trkpt><trkpt lat="45.65754328323277" lon="-0.23116121514459828"><ele>29.0</ele><time>2026-05-01T15:09:16.001Z</time></trkpt><trkpt lat="45.65758128103245" lon="-0.23132696312833315"><ele>28.75</ele><time>2026-05-01T15:09:17.001Z</time></trkpt><trkpt lat="45.65763753552584" lon="-0.2315094810354063"><ele>28.5</ele><time>2026-05-01T15:09:18.001Z</time></trkpt><trkpt lat="45.65766708372703" lon="-0.23167181682524884"><ele>28.25</ele><time>2026-05-01T15:09:19.001Z</time></trkpt><trkpt lat="45.65770278530716" lon="-0.23181363671760732"><ele>28.0</ele><time>2026-05-01T15:09:20.001Z</time></trkpt><trkpt lat="45.65772700475252" lon="-0.23193541024540398"><ele>28.0</ele><time>2026-05-01T15:09:21.001Z</time></trkpt><trkpt lat="45.65771831790863" lon="-0.23205016111694723"><ele>27.999999999999996</ele><time>2026-05-01T15:09:22.001Z</time></trkpt><trkpt lat="45.657693705014395" lon="-0.23218333331369279"><ele>27.999999999999996</ele><time>2026-05-01T15:09:23.001Z</time></trkpt><trkpt lat="45.65766534765574" lon="-0.23234494633547617"><ele>28.0</ele><time>2026-05-01T15:09:24.001Z</time></trkpt><trkpt lat="45.657620293159006" lon="-0.23251490295613816"><ele>28.0</ele><time>2026-05-01T15:09:25.001Z</time></trkpt><trkpt lat="45.65758914897535" lon="-0.23267172595196187"><ele>27.75</ele><time>2026-05-01T15:09:26.001Z</time></trkpt><trkpt lat="45.657571070605236" lon="-0.23283292965994104"><ele>27.5</ele><time>2026-05-01T15:09:27.001Z</time></trkpt><trkpt lat="45.65756150476325" lon="-0.23299114220497472"><ele>27.25</ele><time>2026-05-01T15:09:28.001Z</time></trkpt><trkpt lat="45.65757586033275" lon="-0.23314440363277478"><ele>27.0</ele><time>2026-05-01T15:09:29.001Z</time></trkpt><trkpt lat="45.657609352379104" lon="-0.2333044606359356"><ele>27.0</ele><time>2026-05-01T15:09:30.001Z</time></trkpt><trkpt lat="45.65766040066707" lon="-0.23347662115356851"><ele>27.0</ele><time>2026-05-01T15:09:31.001Z</time></trkpt><trkpt lat="45.65770333570047" lon="-0.23367378084611917"><ele>27.0</ele><time>2026-05-01T15:09:32.001Z</time></trkpt><trkpt lat="45.65775273305729" lon="-0.2338829450767899"><ele>27.0</ele><time>2026-05-01T15:09:33.001Z</time></trkpt><trkpt lat="45.65780783580882" lon="-0.23411666663410993"><ele>27.666666666666664</ele><time>2026-05-01T15:09:34.001Z</time></trkpt><trkpt lat="45.65787048404963" lon="-0.23438158742094403"><ele>28.333333333333332</ele><time>2026-05-01T15:09:35.001Z</time></trkpt><trkpt lat="45.657930824555216" lon="-0.2346372680134225"><ele>29.0</ele><time>2026-05-01T15:09:36.001Z</time></trkpt><trkpt lat="45.65799673068233" lon="-0.2348473421501547"><ele>29.333333333333332</ele><time>2026-05-01T15:09:37Z</time></trkpt><trkpt lat="45.65808507589358" lon="-0.23507682455730763"><ele>29.666666666666664</ele><time>2026-05-01T15:09:38Z</time></trkpt><trkpt lat="45.658182641863824" lon="-0.2352582587243681"><ele>30.0</ele><time>2026-05-01T15:09:39Z</time></trkpt><trkpt lat="45.65825676757072" lon="-0.23544866218664878"><ele>30.0</ele><time>2026-05-01T15:09:40Z</time></trkpt><trkpt lat="45.65829516240136" lon="-0.23562008433000728"><ele>30.0</ele><time>2026-05-01T15:09:41Z</time></trkpt><trkpt lat="45.658329819075234" lon="-0.2357602237651706"><ele>30.0</ele><time>2026-05-01T15:09:42Z</time></trkpt><trkpt lat="45.658335869198986" lon="-0.2358951077014828"><ele>30.0</ele><time>2026-05-01T15:09:43Z</time></trkpt><trkpt lat="45.65831743906204" lon="-0.23604491724915985"><ele>30.0</ele><time>2026-05-01T15:09:44Z</time></trkpt><trkpt lat="45.65829643138779" lon="-0.23621061545242014"><ele>29.75</ele><time>2026-05-01T15:09:45Z</time></trkpt><trkpt lat="45.658303669674154" lon="-0.2363493154598888"><ele>29.5</ele><time>2026-05-01T15:09:46Z</time></trkpt><trkpt lat="45.65835054972136" lon="-0.23649581672604694"><ele>29.25</ele><time>2026-05-01T15:09:47Z</time></trkpt><trkpt lat="45.65841299836644" lon="-0.236662611321624"><ele>29.0</ele><time>2026-05-01T15:09:48Z</time></trkpt><trkpt lat="45.658483762179465" lon="-0.23678670668213941"><ele>29.666666666666664</ele><time>2026-05-01T15:09:49Z</time></trkpt><trkpt lat="45.65853161889332" lon="-0.23689990841785794"><ele>30.333333333333336</ele><time>2026-05-01T15:09:51Z</time></trkpt><trkpt lat="45.65832435434533" lon="-0.2370982588180625"><ele>31.0</ele><time>2026-05-01T15:09:58Z</time></trkpt><trkpt lat="45.65820165975163" lon="-0.23719122088223013"><ele>31.0</ele><time>2026-05-01T15:09:59Z</time></trkpt><trkpt lat="45.658087780878766" lon="-0.2372747056166962"><ele>31.0</ele><time>2026-05-01T15:10:00Z</time></trkpt><trkpt lat="45.65798442675782" lon="-0.2373544458284064"><ele>31.0</ele><time>2026-05-01T15:10:01Z</time></trkpt><trkpt lat="45.65789240918165" lon="-0.2374330700016438"><ele>31.0</ele><time>2026-05-01T15:10:02Z</time></trkpt><trkpt lat="45.657805977404" lon="-0.23750203250587795"><ele>30.333333333333336</ele><time>2026-05-01T15:10:03Z</time></trkpt><trkpt lat="45.65772425540833" lon="-0.23757073642489665"><ele>29.666666666666668</ele><time>2026-05-01T15:10:04Z</time></trkpt><trkpt lat="45.65764431562441" lon="-0.23764047871120414"><ele>29.0</ele><time>2026-05-01T15:10:05Z</time></trkpt><trkpt lat="45.657566417417435" lon="-0.23770606270677277"><ele>28.333333333333336</ele><time>2026-05-01T15:10:06Z</time></trkpt><trkpt lat="45.65749243424496" lon="-0.23776923359572594"><ele>27.666666666666668</ele><time>2026-05-01T15:10:07Z</time></trkpt><trkpt lat="45.657422183368496" lon="-0.23783362315277962"><ele>27.0</ele><time>2026-05-01T15:10:08Z</time></trkpt><trkpt lat="45.657348094049695" lon="-0.237914106819803"><ele>27.0</ele><time>2026-05-01T15:10:10Z</time></trkpt><trkpt lat="45.657347619125765" lon="-0.2380362793887169"><ele>27.0</ele><time>2026-05-01T15:10:12Z</time></trkpt><trkpt lat="45.657349767166075" lon="-0.23813391577566415"><ele>27.0</ele><time>2026-05-01T15:10:13Z</time></trkpt><trkpt lat="45.6573570193873" lon="-0.23823647194395395"><ele>27.0</ele><time>2026-05-01T15:10:14Z</time></trkpt><trkpt lat="45.657362259704" lon="-0.23834717294804764"><ele>27.0</ele><time>2026-05-01T15:10:15Z</time></trkpt><trkpt lat="45.657371571062114" lon="-0.23846510704379167"><ele>27.0</ele><time>2026-05-01T15:10:16Z</time></trkpt><trkpt lat="45.65737479023109" lon="-0.23858988899430641"><ele>26.833333333333332</ele><time>2026-05-01T15:10:17Z</time></trkpt><trkpt lat="45.65737370472521" lon="-0.238712342170496"><ele>26.666666666666664</ele><time>2026-05-01T15:10:18Z</time></trkpt><trkpt lat="45.65737376966909" lon="-0.23887352809617463"><ele>26.5</ele><time>2026-05-01T15:10:20Z</time></trkpt><trkpt lat="45.65737097186856" lon="-0.23897045360655414"><ele>26.333333333333332</ele><time>2026-05-01T15:10:21Z</time></trkpt><trkpt lat="45.65737121472627" lon="-0.23907723808799325"><ele>26.166666666666664</ele><time>2026-05-01T15:10:22Z</time></trkpt><trkpt lat="45.65736918244777" lon="-0.2391759411874318"><ele>26.0</ele><time>2026-05-01T15:10:23Z</time></trkpt><trkpt lat="45.657381025321136" lon="-0.2392901848498315"><ele>26.0</ele><time>2026-05-01T15:10:24Z</time></trkpt><trkpt lat="45.65737516775748" lon="-0.23940424199794022"><ele>26.0</ele><time>2026-05-01T15:10:25Z</time></trkpt><trkpt lat="45.65737838096234" lon="-0.23952797576097382"><ele>26.0</ele><time>2026-05-01T15:10:26Z</time></trkpt><trkpt lat="45.657382878254275" lon="-0.23965867425371212"><ele>26.0</ele><time>2026-05-01T15:10:27Z</time></trkpt><trkpt lat="45.657388623553516" lon="-0.2398145678367967"><ele>26.0</ele><time>2026-05-01T15:10:28Z</time></trkpt><trkpt lat="45.65739150969587" lon="-0.2400011558156841"><ele>26.0</ele><time>2026-05-01T15:10:29Z</time></trkpt><trkpt lat="45.657392118381935" lon="-0.24017816844763545"><ele>26.0</ele><time>2026-05-01T15:10:30Z</time></trkpt><trkpt lat="45.65739576410833" lon="-0.24031678813426716"><ele>26.0</ele><time>2026-05-01T15:10:31.001Z</time></trkpt><trkpt lat="45.65739579601742" lon="-0.24045228237043317"><ele>26.0</ele><time>2026-05-01T15:10:32.001Z</time></trkpt><trkpt lat="45.657405230155554" lon="-0.24060706891006692"><ele>26.0</ele><time>2026-05-01T15:10:33.001Z</time></trkpt><trkpt lat="45.65741548935126" lon="-0.2407354712433463"><ele>25.6</ele><time>2026-05-01T15:10:34.001Z</time></trkpt><trkpt lat="45.65742702504486" lon="-0.24085340577642628"><ele>25.200000000000003</ele><time>2026-05-01T15:10:35.001Z</time></trkpt><trkpt lat="45.65743797074755" lon="-0.24095731720792893"><ele>24.799999999999997</ele><time>2026-05-01T15:10:36.001Z</time></trkpt><trkpt lat="45.657452096593914" lon="-0.24107416467972295"><ele>24.4</ele><time>2026-05-01T15:10:38.001Z</time></trkpt><trkpt lat="45.657488623049126" lon="-0.24117226723938562"><ele>24.0</ele><time>2026-05-01T15:10:45.001Z</time></trkpt><trkpt lat="45.6576209694216" lon="-0.2411296954587946"><ele>24.0</ele><time>2026-05-01T15:10:47.001Z</time></trkpt><trkpt lat="45.65773445510813" lon="-0.24101169580966686"><ele>24.0</ele><time>2026-05-01T15:10:48.001Z</time></trkpt><trkpt lat="45.657871924936195" lon="-0.24090767303185212"><ele>24.0</ele><time>2026-05-01T15:10:49.001Z</time></trkpt><trkpt lat="45.658040785185726" lon="-0.24081980002559705"><ele>25.333333333333336</ele><time>2026-05-01T15:10:50.001Z</time></trkpt><trkpt lat="45.658230373109596" lon="-0.24072569933936824"><ele>26.666666666666668</ele><time>2026-05-01T15:10:51.001Z</time></trkpt><trkpt lat="45.65841498876381" lon="-0.2406217962202126"><ele>28.0</ele><time>2026-05-01T15:10:52.001Z</time></trkpt><trkpt lat="45.65857859077395" lon="-0.2405493908693152"><ele>28.2</ele><time>2026-05-01T15:10:53.001Z</time></trkpt><trkpt lat="45.65870453854423" lon="-0.24051758085482425"><ele>28.4</ele><time>2026-05-01T15:10:54.001Z</time></trkpt><trkpt lat="45.65879000832616" lon="-0.24047245011863488"><ele>28.599999999999998</ele><time>2026-05-01T15:10:55.001Z</time></trkpt><trkpt lat="45.65886286176675" lon="-0.24041996583705177"><ele>28.799999999999997</ele><time>2026-05-01T15:10:57.001Z</time></trkpt><trkpt lat="45.6589476320404" lon="-0.24040344308145747"><ele>29.0</ele><time>2026-05-01T15:10:59.001Z</time></trkpt><trkpt lat="45.65910434086835" lon="-0.2407472496503597"><ele>28.999999999999996</ele><time>2026-05-01T15:11:01.001Z</time></trkpt><trkpt lat="45.65915710434185" lon="-0.24081516893701363"><ele>29.0</ele><time>2026-05-01T15:11:02.001Z</time></trkpt><trkpt lat="45.65920810683495" lon="-0.24087283925628192"><ele>29.0</ele><time>2026-05-01T15:11:03.001Z</time></trkpt><trkpt lat="45.659304058352" lon="-0.24098397363148108"><ele>29.0</ele><time>2026-05-01T15:11:05.001Z</time></trkpt><trkpt lat="45.65935316090549" lon="-0.2410403818190121"><ele>28.999999999999996</ele><time>2026-05-01T15:11:06.001Z</time></trkpt><trkpt lat="45.65940387123887" lon="-0.24109594309812388"><ele>29.0</ele><time>2026-05-01T15:11:07.001Z</time></trkpt><trkpt lat="45.65950286592498" lon="-0.24121824491627206"><ele>28.799999999999997</ele><time>2026-05-01T15:11:09.001Z</time></trkpt><trkpt lat="45.65955438132392" lon="-0.2412793022524078"><ele>28.599999999999998</ele><time>2026-05-01T15:11:10.001Z</time></trkpt><trkpt lat="45.65960454225243" lon="-0.2413377288692825"><ele>28.4</ele><time>2026-05-01T15:11:11.001Z</time></trkpt><trkpt lat="45.659684616642544" lon="-0.24145956351157027"><ele>28.2</ele><time>2026-05-01T15:11:13.001Z</time></trkpt><trkpt lat="45.659788269413" lon="-0.24154656400385122"><ele>28.0</ele><time>2026-05-01T15:11:15.001Z</time></trkpt><trkpt lat="45.65987152068795" lon="-0.24165749259358416"><ele>27.833333333333336</ele><time>2026-05-01T15:11:17.001Z</time></trkpt><trkpt lat="45.65996367676129" lon="-0.24177555072497886"><ele>27.666666666666668</ele><time>2026-05-01T15:11:19.001Z</time></trkpt><trkpt lat="45.66002203714605" lon="-0.24184228092333543"><ele>27.5</ele><time>2026-05-01T15:11:20.001Z</time></trkpt><trkpt lat="45.660076133451014" lon="-0.24191625134305403"><ele>27.333333333333336</ele><time>2026-05-01T15:11:21.001Z</time></trkpt><trkpt lat="45.66013985863355" lon="-0.2419892506367745"><ele>27.166666666666668</ele><time>2026-05-01T15:11:22.001Z</time></trkpt><trkpt lat="45.66020837174349" lon="-0.24207108198930555"><ele>27.0</ele><time>2026-05-01T15:11:23.001Z</time></trkpt><trkpt lat="45.66028495728347" lon="-0.2421818854023543"><ele>26.666666666666664</ele><time>2026-05-01T15:11:24.001Z</time></trkpt><trkpt lat="45.6603872747934" lon="-0.2423414916031516"><ele>26.333333333333332</ele><time>2026-05-01T15:11:25.001Z</time></trkpt><trkpt lat="45.66050238635261" lon="-0.2425171731913303"><ele>26.0</ele><time>2026-05-01T15:11:26.001Z</time></trkpt><trkpt lat="45.66061729533504" lon="-0.24270801002017828"><ele>26.0</ele><time>2026-05-01T15:11:27.001Z</time></trkpt><trkpt lat="45.66074367680089" lon="-0.24293517827849628"><ele>26.0</ele><time>2026-05-01T15:11:28.001Z</time></trkpt><trkpt lat="45.66085122471836" lon="-0.24313933739903865"><ele>26.0</ele><time>2026-05-01T15:11:29.001Z</time></trkpt><trkpt lat="45.66094603283986" lon="-0.24331016217964727"><ele>26.0</ele><time>2026-05-01T15:11:30.001Z</time></trkpt><trkpt lat="45.661036105535494" lon="-0.24344872091142197"><ele>26.0</ele><time>2026-05-01T15:11:31.001Z</time></trkpt><trkpt lat="45.66112617760532" lon="-0.24357399740638364"><ele>26.0</ele><time>2026-05-01T15:11:32.001Z</time></trkpt><trkpt lat="45.66120351509317" lon="-0.2436582012885861"><ele>26.0</ele><time>2026-05-01T15:11:33.001Z</time></trkpt><trkpt lat="45.66128840592586" lon="-0.24372337383737117"><ele>26.0</ele><time>2026-05-01T15:11:34.001Z</time></trkpt><trkpt lat="45.661396879722005" lon="-0.24382044240628092"><ele>26.0</ele><time>2026-05-01T15:11:35.001Z</time></trkpt><trkpt lat="45.66153107801871" lon="-0.24394086270117674"><ele>26.0</ele><time>2026-05-01T15:11:36.001Z</time></trkpt><trkpt lat="45.66168003274013" lon="-0.24409789734025608"><ele>26.0</ele><time>2026-05-01T15:11:37.001Z</time></trkpt><trkpt lat="45.6618478891535" lon="-0.24426772880537648"><ele>26.0</ele><time>2026-05-01T15:11:38.001Z</time></trkpt><trkpt lat="45.662008062599035" lon="-0.24443425855524498"><ele>26.0</ele><time>2026-05-01T15:11:39.001Z</time></trkpt><trkpt lat="45.662180779472735" lon="-0.24463125592137358"><ele>26.666666666666664</ele><time>2026-05-01T15:11:40.001Z</time></trkpt><trkpt lat="45.66236227497197" lon="-0.24484751111144828"><ele>27.333333333333336</ele><time>2026-05-01T15:11:41.001Z</time></trkpt><trkpt lat="45.66252981784423" lon="-0.2450310617007345"><ele>28.0</ele><time>2026-05-01T15:11:42.001Z</time></trkpt><trkpt lat="45.66267992897829" lon="-0.2452030093642257"><ele>28.0</ele><time>2026-05-01T15:11:43Z</time></trkpt><trkpt lat="45.66284698597796" lon="-0.24540022625311497"><ele>28.0</ele><time>2026-05-01T15:11:44Z</time></trkpt><trkpt lat="45.66302672883927" lon="-0.24560976310746785"><ele>28.0</ele><time>2026-05-01T15:11:45Z</time></trkpt><trkpt lat="45.6632063820842" lon="-0.2458264714254686"><ele>28.0</ele><time>2026-05-01T15:11:46Z</time></trkpt><trkpt lat="45.66338816880869" lon="-0.24605861978147228"><ele>28.0</ele><time>2026-05-01T15:11:47Z</time></trkpt><trkpt lat="45.663577718492945" lon="-0.246287180441986"><ele>28.0</ele><time>2026-05-01T15:11:48Z</time></trkpt><trkpt lat="45.66375363401543" lon="-0.24649800618131323"><ele>28.0</ele><time>2026-05-01T15:11:49Z</time></trkpt><trkpt lat="45.66392463520003" lon="-0.2466935214728981"><ele>28.0</ele><time>2026-05-01T15:11:50Z</time></trkpt><trkpt lat="45.664081363611174" lon="-0.2468719987727115"><ele>28.0</ele><time>2026-05-01T15:11:51Z</time></trkpt><trkpt lat="45.66423268720286" lon="-0.24704434093106964"><ele>28.0</ele><time>2026-05-01T15:11:52Z</time></trkpt><trkpt lat="45.664378854362695" lon="-0.24720977453339177"><ele>28.0</ele><time>2026-05-01T15:11:53Z</time></trkpt><trkpt lat="45.66453475099413" lon="-0.24735644223329448"><ele>27.666666666666668</ele><time>2026-05-01T15:11:54Z</time></trkpt><trkpt lat="45.6647135503075" lon="-0.24751171191644963"><ele>27.333333333333336</ele><time>2026-05-01T15:11:55Z</time></trkpt><trkpt lat="45.66489640986112" lon="-0.24766022172766067"><ele>27.0</ele><time>2026-05-01T15:11:56Z</time></trkpt><trkpt lat="45.66506740460684" lon="-0.24781135590482695"><ele>27.0</ele><time>2026-05-01T15:11:57Z</time></trkpt><trkpt lat="45.66523332113972" lon="-0.24796388638920108"><ele>27.0</ele><time>2026-05-01T15:11:58Z</time></trkpt><trkpt lat="45.66540003763462" lon="-0.24812693089304513"><ele>27.0</ele><time>2026-05-01T15:11:59Z</time></trkpt><trkpt lat="45.665561765076205" lon="-0.24830820207361382"><ele>28.0</ele><time>2026-05-01T15:12:00Z</time></trkpt><trkpt lat="45.6657340799578" lon="-0.24849565261611506"><ele>29.0</ele><time>2026-05-01T15:12:01Z</time></trkpt><trkpt lat="45.66589842292816" lon="-0.2486666074667964"><ele>30.0</ele><time>2026-05-01T15:12:02Z</time></trkpt><trkpt lat="45.66605152351727" lon="-0.24880888425434283"><ele>30.333333333333336</ele><time>2026-05-01T15:12:03Z</time></trkpt><trkpt lat="45.66621117500893" lon="-0.24892867450493192"><ele>30.666666666666668</ele><time>2026-05-01T15:12:04Z</time></trkpt><trkpt lat="45.66639400756553" lon="-0.24904586854434763"><ele>31.0</ele><time>2026-05-01T15:12:05Z</time></trkpt><trkpt lat="45.666582543142354" lon="-0.24915376332191175"><ele>31.0</ele><time>2026-05-01T15:12:06Z</time></trkpt><trkpt lat="45.666763525828664" lon="-0.2492738964841577"><ele>31.0</ele><time>2026-05-01T15:12:07Z</time></trkpt><trkpt lat="45.66694455460386" lon="-0.24941730135697238"><ele>31.0</ele><time>2026-05-01T15:12:08Z</time></trkpt><trkpt lat="45.66710435669469" lon="-0.24955388275631085"><ele>31.666666666666668</ele><time>2026-05-01T15:12:09Z</time></trkpt><trkpt lat="45.66724918455395" lon="-0.24968189961674306"><ele>32.333333333333336</ele><time>2026-05-01T15:12:10Z</time></trkpt><trkpt lat="45.667373415374826" lon="-0.24981520169332155"><ele>33.0</ele><time>2026-05-01T15:12:11Z</time></trkpt><trkpt lat="45.667485412745386" lon="-0.24996387218546082"><ele>33.0</ele><time>2026-05-01T15:12:12Z</time></trkpt><trkpt lat="45.667584563614525" lon="-0.250143621558864"><ele>33.0</ele><time>2026-05-01T15:12:13Z</time></trkpt><trkpt lat="45.667692443279535" lon="-0.25036376023766327"><ele>33.0</ele><time>2026-05-01T15:12:14Z</time></trkpt><trkpt lat="45.667800295732334" lon="-0.2506049845477057"><ele>33.333333333333336</ele><time>2026-05-01T15:12:15Z</time></trkpt><trkpt lat="45.667912409619674" lon="-0.2508424616537676"><ele>33.66666666666667</ele><time>2026-05-01T15:12:16Z</time></trkpt><trkpt lat="45.66802840973775" lon="-0.2510591478942149"><ele>34.0</ele><time>2026-05-01T15:12:17Z</time></trkpt><trkpt lat="45.668152427100665" lon="-0.2512615877442765"><ele>33.333333333333336</ele><time>2026-05-01T15:12:18Z</time></trkpt><trkpt lat="45.66829800882948" lon="-0.25147227469392275"><ele>32.666666666666664</ele><time>2026-05-01T15:12:19Z</time></trkpt><trkpt lat="45.66845434996142" lon="-0.2516895330467144"><ele>32.0</ele><time>2026-05-01T15:12:20Z</time></trkpt><trkpt lat="45.66860019568989" lon="-0.25189452156036046"><ele>33.0</ele><time>2026-05-01T15:12:21Z</time></trkpt><trkpt lat="45.6687196516294" lon="-0.2520732977125922"><ele>34.0</ele><time>2026-05-01T15:12:22Z</time></trkpt><trkpt lat="45.66882808177821" lon="-0.2522435570269582"><ele>35.0</ele><time>2026-05-01T15:12:23Z</time></trkpt><trkpt lat="45.668927558637776" lon="-0.252391562401136"><ele>35.0</ele><time>2026-05-01T15:12:24Z</time></trkpt><trkpt lat="45.669025395054256" lon="-0.25253939952947707"><ele>35.0</ele><time>2026-05-01T15:12:25Z</time></trkpt><trkpt lat="45.66920512648252" lon="-0.25279377490921157"><ele>35.0</ele><time>2026-05-01T15:12:27Z</time></trkpt><trkpt lat="45.66928659546534" lon="-0.2529011167241213"><ele>35.0</ele><time>2026-05-01T15:12:28Z</time></trkpt><trkpt lat="45.66936350238496" lon="-0.25299631401810946"><ele>35.0</ele><time>2026-05-01T15:12:29Z</time></trkpt><trkpt lat="45.669426126971366" lon="-0.2530768743133375"><ele>35.0</ele><time>2026-05-01T15:12:30Z</time></trkpt><trkpt lat="45.6694794716188" lon="-0.25314507855894164"><ele>35.0</ele><time>2026-05-01T15:12:31Z</time></trkpt><trkpt lat="45.669537165307766" lon="-0.25320467764834587"><ele>35.0</ele><time>2026-05-01T15:12:32Z</time></trkpt><trkpt lat="45.669598261955166" lon="-0.2532813003965554"><ele>35.0</ele><time>2026-05-01T15:12:33Z</time></trkpt><trkpt lat="45.66967063479508" lon="-0.2534122496345053"><ele>35.33333333333333</ele><time>2026-05-01T15:12:34Z</time></trkpt><trkpt lat="45.66973496145363" lon="-0.25360571706982415"><ele>35.666666666666664</ele><time>2026-05-01T15:12:35Z</time></trkpt><trkpt lat="45.66979222979732" lon="-0.2538164676893295"><ele>36.0</ele><time>2026-05-01T15:12:36Z</time></trkpt><trkpt lat="45.66984991217547" lon="-0.2540253220589752"><ele>35.0</ele><time>2026-05-01T15:12:37Z</time></trkpt><trkpt lat="45.6699091132501" lon="-0.2542423473436946"><ele>34.0</ele><time>2026-05-01T15:12:38Z</time></trkpt><trkpt lat="45.669970058646534" lon="-0.25444446786077957"><ele>33.0</ele><time>2026-05-01T15:12:39Z</time></trkpt><trkpt lat="45.67003682580797" lon="-0.25463624503010746"><ele>32.5</ele><time>2026-05-01T15:12:40Z</time></trkpt><trkpt lat="45.670092345289206" lon="-0.25481637577838884"><ele>32.0</ele><time>2026-05-01T15:12:41Z</time></trkpt><trkpt lat="45.67013632103853" lon="-0.2549920734498153"><ele>31.5</ele><time>2026-05-01T15:12:42Z</time></trkpt><trkpt lat="45.67015357877941" lon="-0.2551594052554356"><ele>31.0</ele><time>2026-05-01T15:12:43Z</time></trkpt><trkpt lat="45.6701279855387" lon="-0.25533863818664443"><ele>31.0</ele><time>2026-05-01T15:12:44Z</time></trkpt><trkpt lat="45.670062302363434" lon="-0.2555613494105651"><ele>31.0</ele><time>2026-05-01T15:12:45Z</time></trkpt><trkpt lat="45.669977843625766" lon="-0.25580359047723233"><ele>31.0</ele><time>2026-05-01T15:12:46Z</time></trkpt><trkpt lat="45.669912249561094" lon="-0.2560200786811865"><ele>30.25</ele><time>2026-05-01T15:12:47.001Z</time></trkpt><trkpt lat="45.66985071582775" lon="-0.25622019765735093"><ele>29.5</ele><time>2026-05-01T15:12:48.001Z</time></trkpt><trkpt lat="45.669791259244114" lon="-0.25639886186531297"><ele>28.75</ele><time>2026-05-01T15:12:49.001Z</time></trkpt><trkpt lat="45.669737593896386" lon="-0.25658327790782476"><ele>28.0</ele><time>2026-05-01T15:12:50.001Z</time></trkpt><trkpt lat="45.6696875504023" lon="-0.2567498982444331"><ele>27.25</ele><time>2026-05-01T15:12:51.001Z</time></trkpt><trkpt lat="45.66963803072488" lon="-0.2569229958287613"><ele>26.5</ele><time>2026-05-01T15:12:52.001Z</time></trkpt><trkpt lat="45.669592851109925" lon="-0.2570906240622727"><ele>25.75</ele><time>2026-05-01T15:12:53.001Z</time></trkpt><trkpt lat="45.669557763855146" lon="-0.25724455987089334"><ele>25.0</ele><time>2026-05-01T15:12:54.001Z</time></trkpt><trkpt lat="45.66954347747606" lon="-0.25738856726597625"><ele>24.500000000000004</ele><time>2026-05-01T15:12:55.001Z</time></trkpt><trkpt lat="45.669542547656235" lon="-0.25748363348734576"><ele>24.0</ele><time>2026-05-01T15:12:56.001Z</time></trkpt><trkpt lat="45.66965760297115" lon="-0.2575060020620897"><ele>23.5</ele><time>2026-05-01T15:13:00.001Z</time></trkpt><trkpt lat="45.669732297558184" lon="-0.25750607211475174"><ele>23.0</ele><time>2026-05-01T15:13:01.001Z</time></trkpt><trkpt lat="45.66981399209323" lon="-0.25750883420910214"><ele>22.5</ele><time>2026-05-01T15:13:02.001Z</time></trkpt><trkpt lat="45.669894662749996" lon="-0.257538100677161"><ele>22.0</ele><time>2026-05-01T15:13:03.001Z</time></trkpt><trkpt lat="45.66998225419852" lon="-0.2575380687731368"><ele>22.0</ele><time>2026-05-01T15:13:04.001Z</time></trkpt><trkpt lat="45.67007036744312" lon="-0.25757894171672285"><ele>22.0</ele><time>2026-05-01T15:13:05.001Z</time></trkpt><trkpt lat="45.67015911338162" lon="-0.25760260977541655"><ele>22.0</ele><time>2026-05-01T15:13:06.001Z</time></trkpt><trkpt lat="45.67024902781695" lon="-0.2576021945097347"><ele>22.0</ele><time>2026-05-01T15:13:07.001Z</time></trkpt><trkpt lat="45.670337409031376" lon="-0.2576294588055874"><ele>22.0</ele><time>2026-05-01T15:13:08.001Z</time></trkpt><trkpt lat="45.67042849554153" lon="-0.25765284535727284"><ele>21.833333333333332</ele><time>2026-05-01T15:13:09.001Z</time></trkpt><trkpt lat="45.67051788451989" lon="-0.25767567913751543"><ele>21.666666666666664</ele><time>2026-05-01T15:13:10.001Z</time></trkpt><trkpt lat="45.67060373089515" lon="-0.25769073533404274"><ele>21.5</ele><time>2026-05-01T15:13:11.001Z</time></trkpt><trkpt lat="45.67068365711061" lon="-0.2576894501428211"><ele>21.333333333333332</ele><time>2026-05-01T15:13:12.001Z</time></trkpt><trkpt lat="45.670778137991576" lon="-0.25770365326658"><ele>21.166666666666668</ele><time>2026-05-01T15:13:13.001Z</time></trkpt><trkpt lat="45.67086535068257" lon="-0.2576900215792771"><ele>21.0</ele><time>2026-05-01T15:13:14.001Z</time></trkpt><trkpt lat="45.670948084980765" lon="-0.25770771968372885"><ele>21.0</ele><time>2026-05-01T15:13:15.001Z</time></trkpt><trkpt lat="45.67102766021301" lon="-0.2577192079175262"><ele>21.0</ele><time>2026-05-01T15:13:16.001Z</time></trkpt><trkpt lat="45.671099165845355" lon="-0.2576993257950505"><ele>21.0</ele><time>2026-05-01T15:13:17.001Z</time></trkpt><trkpt lat="45.67112937798882" lon="-0.25760291669259144"><ele>21.0</ele><time>2026-05-01T15:13:18.001Z</time></trkpt><trkpt lat="45.671195306209306" lon="-0.25750434776662245"><ele>21.0</ele><time>2026-05-01T15:13:20.001Z</time></trkpt><trkpt lat="45.671283943657194" lon="-0.25736728080862414"><ele>22.200000000000003</ele><time>2026-05-01T15:13:22.001Z</time></trkpt><trkpt lat="45.67136143412873" lon="-0.25719111550790136"><ele>23.400000000000002</ele><time>2026-05-01T15:13:24.001Z</time></trkpt><trkpt lat="45.67141092662944" lon="-0.2570731764592838"><ele>24.6</ele><time>2026-05-01T15:13:26.001Z</time></trkpt><trkpt lat="45.67133985878335" lon="-0.2569749904563602"><ele>25.8</ele><time>2026-05-01T15:13:29.001Z</time></trkpt><trkpt lat="45.67127417674801" lon="-0.2569555292493852"><ele>27.0</ele><time>2026-05-01T15:13:30.001Z</time></trkpt><trkpt lat="45.67120911804597" lon="-0.2569234681352596"><ele>27.0</ele><time>2026-05-01T15:13:31.001Z</time></trkpt><trkpt lat="45.671132756206674" lon="-0.2568131102456721"><ele>27.000000000000004</ele><time>2026-05-01T15:13:33.001Z</time></trkpt><trkpt lat="45.67110404483798" lon="-0.2567243398305175"><ele>27.000000000000004</ele><time>2026-05-01T15:13:34.001Z</time></trkpt><trkpt lat="45.671073288812195" lon="-0.2566138575815562"><ele>27.0</ele><time>2026-05-01T15:13:35.001Z</time></trkpt><trkpt lat="45.67104661842769" lon="-0.2565168420381402"><ele>27.0</ele><time>2026-05-01T15:13:36.001Z</time></trkpt><trkpt lat="45.67100383726233" lon="-0.2563568820808202"><ele>27.5</ele><time>2026-05-01T15:13:37.001Z</time></trkpt><trkpt lat="45.67095388946708" lon="-0.25618202564236264"><ele>28.0</ele><time>2026-05-01T15:13:38.001Z</time></trkpt><trkpt lat="45.670907201456714" lon="-0.2560016150910211"><ele>28.5</ele><time>2026-05-01T15:13:39.001Z</time></trkpt><trkpt lat="45.670858219997484" lon="-0.2558260129538596"><ele>29.0</ele><time>2026-05-01T15:13:40.001Z</time></trkpt><trkpt lat="45.670813097204714" lon="-0.2556654843912194"><ele>30.25</ele><time>2026-05-01T15:13:41.001Z</time></trkpt><trkpt lat="45.67076772746325" lon="-0.2555058961200736"><ele>31.5</ele><time>2026-05-01T15:13:42.001Z</time></trkpt><trkpt lat="45.670706900612004" lon="-0.25536784862516915"><ele>32.75</ele><time>2026-05-01T15:13:43.001Z</time></trkpt><trkpt lat="45.6706609793484" lon="-0.25523377842958195"><ele>34.0</ele><time>2026-05-01T15:13:44.001Z</time></trkpt><trkpt lat="45.67061781832464" lon="-0.2550820567095972"><ele>34.0</ele><time>2026-05-01T15:13:45.001Z</time></trkpt><trkpt lat="45.67058367469968" lon="-0.25494958022341924"><ele>34.0</ele><time>2026-05-01T15:13:46.001Z</time></trkpt><trkpt lat="45.67054406442291" lon="-0.25481534285886"><ele>34.0</ele><time>2026-05-01T15:13:47.001Z</time></trkpt><trkpt lat="45.67050145772811" lon="-0.2546867536548876"><ele>34.0</ele><time>2026-05-01T15:13:48.001Z</time></trkpt><trkpt lat="45.670466350613424" lon="-0.25455763936524733"><ele>34.0</ele><time>2026-05-01T15:13:49Z</time></trkpt><trkpt lat="45.67040841105632" lon="-0.25442620274499067"><ele>34.4</ele><time>2026-05-01T15:13:50Z</time></trkpt><trkpt lat="45.670378731434376" lon="-0.2542734254506973"><ele>34.8</ele><time>2026-05-01T15:13:51Z</time></trkpt><trkpt lat="45.670326261437076" lon="-0.2541519251467992"><ele>35.2</ele><time>2026-05-01T15:13:52Z</time></trkpt><trkpt lat="45.670293176497196" lon="-0.25404044407666315"><ele>35.6</ele><time>2026-05-01T15:13:53Z</time></trkpt><trkpt lat="45.67027754390103" lon="-0.25392568199718407"><ele>36.0</ele><time>2026-05-01T15:13:54Z</time></trkpt><trkpt lat="45.670245538517115" lon="-0.2538191392288933"><ele>36.0</ele><time>2026-05-01T15:13:55Z</time></trkpt><trkpt lat="45.67020658530508" lon="-0.25370562217333925"><ele>36.0</ele><time>2026-05-01T15:13:56Z</time></trkpt><trkpt lat="45.67016433513169" lon="-0.25358265018688053"><ele>36.0</ele><time>2026-05-01T15:13:57Z</time></trkpt><trkpt lat="45.67011131726404" lon="-0.2534773297172454"><ele>36.0</ele><time>2026-05-01T15:13:58Z</time></trkpt><trkpt lat="45.67007393109026" lon="-0.2533645432891569"><ele>36.0</ele><time>2026-05-01T15:13:59Z</time></trkpt><trkpt lat="45.67004506357503" lon="-0.25324803228338266"><ele>36.0</ele><time>2026-05-01T15:14:00Z</time></trkpt><trkpt lat="45.67003132843317" lon="-0.2531327875221029"><ele>36.666666666666664</ele><time>2026-05-01T15:14:01Z</time></trkpt><trkpt lat="45.670029609193655" lon="-0.25297468505571974"><ele>37.33333333333333</ele><time>2026-05-01T15:14:02Z</time></trkpt><trkpt lat="45.67002313945925" lon="-0.25274925917317587"><ele>38.0</ele><time>2026-05-01T15:14:03Z</time></trkpt><trkpt lat="45.6700240255052" lon="-0.2524651617175862"><ele>39.0</ele><time>2026-05-01T15:14:04Z</time></trkpt><trkpt lat="45.67004130414593" lon="-0.2521362329783604"><ele>40.0</ele><time>2026-05-01T15:14:05Z</time></trkpt><trkpt lat="45.67004256424706" lon="-0.2517603923357398"><ele>41.0</ele><time>2026-05-01T15:14:06Z</time></trkpt><trkpt lat="45.67006897525127" lon="-0.25141562485334035"><ele>42.0</ele><time>2026-05-01T15:14:07Z</time></trkpt><trkpt lat="45.670082380073204" lon="-0.25112009310662514"><ele>43.0</ele><time>2026-05-01T15:14:08Z</time></trkpt><trkpt lat="45.67009635648635" lon="-0.25085826712428044"><ele>43.66666666666667</ele><time>2026-05-01T15:14:09Z</time></trkpt><trkpt lat="45.67010730303855" lon="-0.25057509526093796"><ele>44.333333333333336</ele><time>2026-05-01T15:14:10Z</time></trkpt><trkpt lat="45.67012189230814" lon="-0.2503000103630489"><ele>45.0</ele><time>2026-05-01T15:14:11Z</time></trkpt><trkpt lat="45.67011882531737" lon="-0.25003299376618215"><ele>45.333333333333336</ele><time>2026-05-01T15:14:12Z</time></trkpt><trkpt lat="45.67011944678185" lon="-0.24976148014607363"><ele>45.66666666666667</ele><time>2026-05-01T15:14:13Z</time></trkpt><trkpt lat="45.670114034078075" lon="-0.2494918616822271"><ele>46.0</ele><time>2026-05-01T15:14:14Z</time></trkpt><trkpt lat="45.67009217796614" lon="-0.24919724150134262"><ele>46.5</ele><time>2026-05-01T15:14:15Z</time></trkpt><trkpt lat="45.67006341731383" lon="-0.248870702917251"><ele>47.0</ele><time>2026-05-01T15:14:16Z</time></trkpt><trkpt lat="45.67003905072553" lon="-0.2485115217413292"><ele>47.0</ele><time>2026-05-01T15:14:17Z</time></trkpt><trkpt lat="45.669994478644185" lon="-0.248211303082807"><ele>47.0</ele><time>2026-05-01T15:14:18Z</time></trkpt><trkpt lat="45.66995382861707" lon="-0.24793338147902141"><ele>47.0</ele><time>2026-05-01T15:14:19Z</time></trkpt><trkpt lat="45.66990726967973" lon="-0.24765272463619917"><ele>47.0</ele><time>2026-05-01T15:14:20Z</time></trkpt><trkpt lat="45.66985554026584" lon="-0.24735916804219593"><ele>47.0</ele><time>2026-05-01T15:14:21Z</time></trkpt><trkpt lat="45.6698023749314" lon="-0.24707614029326727"><ele>47.0</ele><time>2026-05-01T15:14:22Z</time></trkpt><trkpt lat="45.66972605349243" lon="-0.2467873274465608"><ele>47.0</ele><time>2026-05-01T15:14:23Z</time></trkpt><trkpt lat="45.66969464961864" lon="-0.24649379937651228"><ele>47.0</ele><time>2026-05-01T15:14:24Z</time></trkpt><trkpt lat="45.669657658878684" lon="-0.24619723660621023"><ele>47.0</ele><time>2026-05-01T15:14:25Z</time></trkpt><trkpt lat="45.669634445613156" lon="-0.245895624157344"><ele>48.0</ele><time>2026-05-01T15:14:26Z</time></trkpt><trkpt lat="45.66962110666543" lon="-0.24559184643844373"><ele>49.0</ele><time>2026-05-01T15:14:27Z</time></trkpt><trkpt lat="45.66958717552827" lon="-0.2452658953433635"><ele>50.0</ele><time>2026-05-01T15:14:28Z</time></trkpt><trkpt lat="45.66956428018426" lon="-0.2449779229246879"><ele>50.0</ele><time>2026-05-01T15:14:29Z</time></trkpt><trkpt lat="45.669543918293705" lon="-0.24469187308324114"><ele>50.0</ele><time>2026-05-01T15:14:30Z</time></trkpt><trkpt lat="45.66954221976273" lon="-0.24440285118875024"><ele>50.0</ele><time>2026-05-01T15:14:31Z</time></trkpt><trkpt lat="45.66953441977537" lon="-0.24411960773568384"><ele>49.66666666666667</ele><time>2026-05-01T15:14:32Z</time></trkpt><trkpt lat="45.669511252659" lon="-0.24385023481583343"><ele>49.33333333333333</ele><time>2026-05-01T15:14:33Z</time></trkpt><trkpt lat="45.669493168519885" lon="-0.24359430396327178"><ele>49.0</ele><time>2026-05-01T15:14:34Z</time></trkpt><trkpt lat="45.669467672286316" lon="-0.24335492604317607"><ele>49.33333333333333</ele><time>2026-05-01T15:14:35Z</time></trkpt><trkpt lat="45.66942798611647" lon="-0.24309374897876962"><ele>49.66666666666667</ele><time>2026-05-01T15:14:36Z</time></trkpt><trkpt lat="45.66938149409352" lon="-0.24280966568120166"><ele>50.0</ele><time>2026-05-01T15:14:37Z</time></trkpt><trkpt lat="45.66935052068766" lon="-0.24256511238369646"><ele>50.0</ele><time>2026-05-01T15:14:38Z</time></trkpt><trkpt lat="45.66932096979651" lon="-0.24230589113546083"><ele>50.0</ele><time>2026-05-01T15:14:39Z</time></trkpt><trkpt lat="45.66931428427283" lon="-0.24205078300296973"><ele>50.0</ele><time>2026-05-01T15:14:40Z</time></trkpt><trkpt lat="45.669296552414636" lon="-0.24180166232339145"><ele>50.333333333333336</ele><time>2026-05-01T15:14:41Z</time></trkpt><trkpt lat="45.66927828487625" lon="-0.24152296522819225"><ele>50.66666666666667</ele><time>2026-05-01T15:14:42Z</time></trkpt><trkpt lat="45.6692447637646" lon="-0.241293566698553"><ele>51.0</ele><time>2026-05-01T15:14:43Z</time></trkpt><trkpt lat="45.66922797380512" lon="-0.24109368217011795"><ele>51.25</ele><time>2026-05-01T15:14:44Z</time></trkpt><trkpt lat="45.66921223208926" lon="-0.2409124998436904"><ele>51.5</ele><time>2026-05-01T15:14:45Z</time></trkpt><trkpt lat="45.669195037306636" lon="-0.2407148147926574"><ele>51.75</ele><time>2026-05-01T15:14:46Z</time></trkpt><trkpt lat="45.66919066312193" lon="-0.24054649910533754"><ele>52.0</ele><time>2026-05-01T15:14:47Z</time></trkpt><trkpt lat="45.66917620652878" lon="-0.2404007690752299"><ele>52.2</ele><time>2026-05-01T15:14:48Z</time></trkpt><trkpt lat="45.66916407673535" lon="-0.24024358764810266"><ele>52.400000000000006</ele><time>2026-05-01T15:14:49Z</time></trkpt><trkpt lat="45.66915198068369" lon="-0.24009940431008134"><ele>52.599999999999994</ele><time>2026-05-01T15:14:50Z</time></trkpt><trkpt lat="45.66913910856428" lon="-0.2399616345483051"><ele>52.8</ele><time>2026-05-01T15:14:51Z</time></trkpt><trkpt lat="45.66912959979407" lon="-0.2398323725425455"><ele>53.0</ele><time>2026-05-01T15:14:52Z</time></trkpt><trkpt lat="45.66909938547502" lon="-0.23966372146550108"><ele>53.0</ele><time>2026-05-01T15:14:54Z</time></trkpt><trkpt lat="45.669094166723205" lon="-0.23949041985471642"><ele>53.0</ele><time>2026-05-01T15:14:56Z</time></trkpt><trkpt lat="45.66908355090865" lon="-0.23936594360253868"><ele>53.0</ele><time>2026-05-01T15:14:57Z</time></trkpt><trkpt lat="45.669055095920356" lon="-0.2391810389627239"><ele>53.0</ele><time>2026-05-01T15:14:59.001Z</time></trkpt><trkpt lat="45.66904411327411" lon="-0.23906134613742444"><ele>53.0</ele><time>2026-05-01T15:15:00.001Z</time></trkpt><trkpt lat="45.66903574534185" lon="-0.23887434673323335"><ele>52.66666666666667</ele><time>2026-05-01T15:15:02.001Z</time></trkpt><trkpt lat="45.66902613093516" lon="-0.23868603206143135"><ele>52.333333333333336</ele><time>2026-05-01T15:15:04.001Z</time></trkpt><trkpt lat="45.669020068231525" lon="-0.23858217502351273"><ele>52.0</ele><time>2026-05-01T15:15:05.001Z</time></trkpt><trkpt lat="45.669016011837314" lon="-0.23849025094984613"><ele>51.66666666666667</ele><time>2026-05-01T15:15:06.001Z</time></trkpt><trkpt lat="45.66901743779105" lon="-0.23838365653443727"><ele>51.333333333333336</ele><time>2026-05-01T15:15:07.001Z</time></trkpt><trkpt lat="45.66901446722042" lon="-0.2382806676467424"><ele>51.0</ele><time>2026-05-01T15:15:08.001Z</time></trkpt><trkpt lat="45.66901292023136" lon="-0.23816938712620705"><ele>50.833333333333336</ele><time>2026-05-01T15:15:09.001Z</time></trkpt><trkpt lat="45.66900299951314" lon="-0.2380683201026832"><ele>50.66666666666667</ele><time>2026-05-01T15:15:10.001Z</time></trkpt><trkpt lat="45.668981104761045" lon="-0.23791355122600333"><ele>50.5</ele><time>2026-05-01T15:15:12.001Z</time></trkpt><trkpt lat="45.66896461478804" lon="-0.23780841619139456"><ele>50.333333333333336</ele><time>2026-05-01T15:15:13.001Z</time></trkpt><trkpt lat="45.66895176811289" lon="-0.23763208032894823"><ele>50.16666666666667</ele><time>2026-05-01T15:15:15.001Z</time></trkpt><trkpt lat="45.6689275232178" lon="-0.23754888533640217"><ele>50.0</ele><time>2026-05-01T15:15:16.001Z</time></trkpt><trkpt lat="45.66892393387057" lon="-0.237455769667617"><ele>49.66666666666667</ele><time>2026-05-01T15:15:17.001Z</time></trkpt><trkpt lat="45.668910943301036" lon="-0.23728985825023716"><ele>49.333333333333336</ele><time>2026-05-01T15:15:19.001Z</time></trkpt><trkpt lat="45.66890458088533" lon="-0.23719296303482285"><ele>49.0</ele><time>2026-05-01T15:15:20.001Z</time></trkpt><trkpt lat="45.668883776389606" lon="-0.2370791006719495"><ele>48.66666666666667</ele><time>2026-05-01T15:15:22.001Z</time></trkpt><trkpt lat="45.66888135999094" lon="-0.23692027849078787"><ele>48.333333333333336</ele><time>2026-05-01T15:15:27.001Z</time></trkpt><trkpt lat="45.66887874375149" lon="-0.2368203827743466"><ele>48.0</ele><time>2026-05-01T15:15:28.001Z</time></trkpt><trkpt lat="45.66885606440945" lon="-0.23671404156247502"><ele>48.0</ele><time>2026-05-01T15:15:29.001Z</time></trkpt><trkpt lat="45.668843413618646" lon="-0.23654738853365853"><ele>48.0</ele><time>2026-05-01T15:15:30.001Z</time></trkpt><trkpt lat="45.66884719629492" lon="-0.2363801120632505"><ele>48.0</ele><time>2026-05-01T15:15:31.001Z</time></trkpt><trkpt lat="45.66883585867381" lon="-0.23620802291299287"><ele>48.0</ele><time>2026-05-01T15:15:32.001Z</time></trkpt><trkpt lat="45.66882236293122" lon="-0.23601473571325166"><ele>48.0</ele><time>2026-05-01T15:15:33.001Z</time></trkpt><trkpt lat="45.66881926831718" lon="-0.23577369709272727"><ele>48.0</ele><time>2026-05-01T15:15:34.001Z</time></trkpt><trkpt lat="45.66882726701627" lon="-0.23549894310707564"><ele>48.0</ele><time>2026-05-01T15:15:35.001Z</time></trkpt><trkpt lat="45.66884669085767" lon="-0.23522892039624846"><ele>47.666666666666664</ele><time>2026-05-01T15:15:36.001Z</time></trkpt><trkpt lat="45.668874216251616" lon="-0.234928213545791"><ele>47.33333333333333</ele><time>2026-05-01T15:15:37.001Z</time></trkpt><trkpt lat="45.66890728112515" lon="-0.23467108312338325"><ele>47.0</ele><time>2026-05-01T15:15:38.001Z</time></trkpt><trkpt lat="45.668937213893095" lon="-0.2344404460941378"><ele>47.0</ele><time>2026-05-01T15:15:39.001Z</time></trkpt><trkpt lat="45.66893316280033" lon="-0.23423369553156242"><ele>47.0</ele><time>2026-05-01T15:15:40.001Z</time></trkpt><trkpt lat="45.668937380838" lon="-0.23404523908936678"><ele>47.0</ele><time>2026-05-01T15:15:41.001Z</time></trkpt><trkpt lat="45.6689344454938" lon="-0.23383241450901734"><ele>47.0</ele><time>2026-05-01T15:15:42.001Z</time></trkpt><trkpt lat="45.66892617800296" lon="-0.23359157278894965"><ele>47.33333333333333</ele><time>2026-05-01T15:15:43.001Z</time></trkpt><trkpt lat="45.66891548061093" lon="-0.2333215138149571"><ele>47.666666666666664</ele><time>2026-05-01T15:15:44.001Z</time></trkpt><trkpt lat="45.668925026805816" lon="-0.23306709391127797"><ele>48.0</ele><time>2026-05-01T15:15:45.001Z</time></trkpt><trkpt lat="45.6689142229394" lon="-0.2328659326722521"><ele>48.25</ele><time>2026-05-01T15:15:46.001Z</time></trkpt><trkpt lat="45.66893055795521" lon="-0.23270712560299808"><ele>48.5</ele><time>2026-05-01T15:15:47.001Z</time></trkpt><trkpt lat="45.668954919459296" lon="-0.23255660527420288"><ele>48.75</ele><time>2026-05-01T15:15:48.001Z</time></trkpt><trkpt lat="45.668999640510634" lon="-0.23238264526177083"><ele>49.0</ele><time>2026-05-01T15:15:49.001Z</time></trkpt><trkpt lat="45.66905356588525" lon="-0.23216871464806915"><ele>49.0</ele><time>2026-05-01T15:15:50.001Z</time></trkpt><trkpt lat="45.669115432280435" lon="-0.23195807796300769"><ele>49.0</ele><time>2026-05-01T15:15:51.001Z</time></trkpt><trkpt lat="45.669164653241744" lon="-0.23177328057317875"><ele>49.0</ele><time>2026-05-01T15:15:52.001Z</time></trkpt><trkpt lat="45.66921639727507" lon="-0.23160149106495684"><ele>49.0</ele><time>2026-05-01T15:15:53.001Z</time></trkpt><trkpt lat="45.669272112417445" lon="-0.23140478805440615"><ele>48.5</ele><time>2026-05-01T15:15:54.001Z</time></trkpt><trkpt lat="45.669333560066" lon="-0.23121620768548995"><ele>48.0</ele><time>2026-05-01T15:15:55Z</time></trkpt><trkpt lat="45.66940731405366" lon="-0.23105554644891604"><ele>47.5</ele><time>2026-05-01T15:15:56Z</time></trkpt><trkpt lat="45.66948472933024" lon="-0.23090438632715377"><ele>47.0</ele><time>2026-05-01T15:15:57Z</time></trkpt><trkpt lat="45.669563419075374" lon="-0.23075707316516803"><ele>45.25</ele><time>2026-05-01T15:15:58Z</time></trkpt><trkpt lat="45.669644024078806" lon="-0.23061996107027075"><ele>43.5</ele><time>2026-05-01T15:15:59Z</time></trkpt><trkpt lat="45.66971889395521" lon="-0.2304783702537187"><ele>41.75</ele><time>2026-05-01T15:16:00Z</time></trkpt><trkpt lat="45.669797030235706" lon="-0.2303376846032932"><ele>40.0</ele><time>2026-05-01T15:16:01Z</time></trkpt><trkpt lat="45.66987537862997" lon="-0.23019196917712542"><ele>40.0</ele><time>2026-05-01T15:16:02Z</time></trkpt><trkpt lat="45.669950127092406" lon="-0.23006176449919927"><ele>40.0</ele><time>2026-05-01T15:16:03Z</time></trkpt><trkpt lat="45.670023464893816" lon="-0.2299236429244378"><ele>40.0</ele><time>2026-05-01T15:16:04Z</time></trkpt><trkpt lat="45.67009310509766" lon="-0.22978473294246365"><ele>40.0</ele><time>2026-05-01T15:16:05Z</time></trkpt><trkpt lat="45.67016259493119" lon="-0.22965102045575972"><ele>40.4</ele><time>2026-05-01T15:16:06Z</time></trkpt><trkpt lat="45.67023112135304" lon="-0.22952352331063164"><ele>40.8</ele><time>2026-05-01T15:16:07Z</time></trkpt><trkpt lat="45.67030205488047" lon="-0.2294002526745517"><ele>41.2</ele><time>2026-05-01T15:16:08Z</time></trkpt><trkpt lat="45.670359482802844" lon="-0.2292609278496695"><ele>41.6</ele><time>2026-05-01T15:16:09Z</time></trkpt><trkpt lat="45.67043802511205" lon="-0.22915411676461295"><ele>42.0</ele><time>2026-05-01T15:16:10Z</time></trkpt><trkpt lat="45.67050271452186" lon="-0.22904177092769712"><ele>40.0</ele><time>2026-05-01T15:16:11Z</time></trkpt><trkpt lat="45.67056616790096" lon="-0.22892460476554144"><ele>38.0</ele><time>2026-05-01T15:16:12Z</time></trkpt><trkpt lat="45.67062924794934" lon="-0.22881115704120633"><ele>36.0</ele><time>2026-05-01T15:16:13Z</time></trkpt><trkpt lat="45.67068107380026" lon="-0.2287253732831148"><ele>34.0</ele><time>2026-05-01T15:16:14Z</time></trkpt><trkpt lat="45.67072850463816" lon="-0.22864250281139692"><ele>32.0</ele><time>2026-05-01T15:16:15Z</time></trkpt><trkpt lat="45.670761947359715" lon="-0.22851964718604323"><ele>32.0</ele><time>2026-05-01T15:16:16Z</time></trkpt><trkpt lat="45.670823080015914" lon="-0.22840968415060875"><ele>32.0</ele><time>2026-05-01T15:16:17Z</time></trkpt><trkpt lat="45.67090028920878" lon="-0.228275257856812"><ele>32.0</ele><time>2026-05-01T15:16:18Z</time></trkpt><trkpt lat="45.67098919777596" lon="-0.22812763202472847"><ele>32.0</ele><time>2026-05-01T15:16:19Z</time></trkpt><trkpt lat="45.67107030810173" lon="-0.22798931363314753"><ele>30.0</ele><time>2026-05-01T15:16:20Z</time></trkpt><trkpt lat="45.67114351624655" lon="-0.22785628677911318"><ele>28.000000000000004</ele><time>2026-05-01T15:16:21Z</time></trkpt><trkpt lat="45.67121046062632" lon="-0.22773517204908897"><ele>26.0</ele><time>2026-05-01T15:16:22Z</time></trkpt><trkpt lat="45.6712797308112" lon="-0.2276104194214887"><ele>24.0</ele><time>2026-05-01T15:16:23Z</time></trkpt><trkpt lat="45.67134403557411" lon="-0.22749460930868143"><ele>22.0</ele><time>2026-05-01T15:16:24Z</time></trkpt><trkpt lat="45.67141532903748" lon="-0.22740148792618214"><ele>23.25</ele><time>2026-05-01T15:16:25Z</time></trkpt><trkpt lat="45.67147872656864" lon="-0.2272874855253169"><ele>24.5</ele><time>2026-05-01T15:16:26Z</time></trkpt><trkpt lat="45.67153077305445" lon="-0.22714584146601605"><ele>25.75</ele><time>2026-05-01T15:16:27Z</time></trkpt><trkpt lat="45.671606821569014" lon="-0.22701972626159284"><ele>27.0</ele><time>2026-05-01T15:16:28Z</time></trkpt><trkpt lat="45.6716712810015" lon="-0.22684162250111073"><ele>27.0</ele><time>2026-05-01T15:16:29Z</time></trkpt><trkpt lat="45.67172711595535" lon="-0.2266898293866455"><ele>27.000000000000004</ele><time>2026-05-01T15:16:30Z</time></trkpt><trkpt lat="45.67178852213212" lon="-0.22656091259602218"><ele>27.000000000000004</ele><time>2026-05-01T15:16:31Z</time></trkpt><trkpt lat="45.671818163480594" lon="-0.22642534542959028"><ele>27.0</ele><time>2026-05-01T15:16:32Z</time></trkpt><trkpt lat="45.671871115580956" lon="-0.22628863212304826"><ele>27.0</ele><time>2026-05-01T15:16:33Z</time></trkpt><trkpt lat="45.67192751790167" lon="-0.22615423414378824"><ele>25.6</ele><time>2026-05-01T15:16:34Z</time></trkpt><trkpt lat="45.67197081709529" lon="-0.22601975766148727"><ele>24.200000000000003</ele><time>2026-05-01T15:16:35Z</time></trkpt><trkpt lat="45.67202531872788" lon="-0.22588361411278562"><ele>22.8</ele><time>2026-05-01T15:16:36Z</time></trkpt><trkpt lat="45.67207416535143" lon="-0.2257551889635533"><ele>21.4</ele><time>2026-05-01T15:16:37Z</time></trkpt><trkpt lat="45.67211881533251" lon="-0.22564548185773575"><ele>20.0</ele><time>2026-05-01T15:16:38Z</time></trkpt><trkpt lat="45.67213109458999" lon="-0.22550556406735744"><ele>20.0</ele><time>2026-05-01T15:16:40Z</time></trkpt><trkpt lat="45.672187942380894" lon="-0.22531268478268265"><ele>20.0</ele><time>2026-05-01T15:16:44Z</time></trkpt><trkpt lat="45.67223789406055" lon="-0.22515331007538264"><ele>20.0</ele><time>2026-05-01T15:16:45Z</time></trkpt><trkpt lat="45.67231498941268" lon="-0.22496492643790836"><ele>20.0</ele><time>2026-05-01T15:16:46Z</time></trkpt><trkpt lat="45.67240538995665" lon="-0.22474142626714794"><ele>20.0</ele><time>2026-05-01T15:16:47Z</time></trkpt><trkpt lat="45.672473120087126" lon="-0.22455204535544984"><ele>20.0</ele><time>2026-05-01T15:16:48Z</time></trkpt><trkpt lat="45.672516099208956" lon="-0.22439349814732307"><ele>20.0</ele><time>2026-05-01T15:16:49Z</time></trkpt><trkpt lat="45.672540002467116" lon="-0.2242807647366955"><ele>20.0</ele><time>2026-05-01T15:16:50Z</time></trkpt><trkpt lat="45.672556361277344" lon="-0.2241830242329994"><ele>20.0</ele><time>2026-05-01T15:16:51Z</time></trkpt><trkpt lat="45.67262167917919" lon="-0.22411421242985957"><ele>18.8</ele><time>2026-05-01T15:16:54.001Z</time></trkpt><trkpt lat="45.67280194259268" lon="-0.22417183581517813"><ele>17.6</ele><time>2026-05-01T15:16:56.001Z</time></trkpt><trkpt lat="45.67288492714515" lon="-0.22421598460863193"><ele>16.4</ele><time>2026-05-01T15:16:57.001Z</time></trkpt><trkpt lat="45.67296418050532" lon="-0.2242597855280011"><ele>15.2</ele><time>2026-05-01T15:16:58.001Z</time></trkpt><trkpt lat="45.67304563907576" lon="-0.224273155700776"><ele>14.0</ele><time>2026-05-01T15:16:59.001Z</time></trkpt><trkpt lat="45.673117184432805" lon="-0.2242960071815449"><ele>14.0</ele><time>2026-05-01T15:17:00.001Z</time></trkpt><trkpt lat="45.67324719535651" lon="-0.2243245072550742"><ele>13.999999999999998</ele><time>2026-05-01T15:17:02.001Z</time></trkpt><trkpt lat="45.67331147370265" lon="-0.22434753419454082"><ele>13.999999999999998</ele><time>2026-05-01T15:17:03.001Z</time></trkpt><trkpt lat="45.67335958446279" lon="-0.22426657623566612"><ele>14.0</ele><time>2026-05-01T15:17:04.001Z</time></trkpt><trkpt lat="45.67338603025531" lon="-0.22414123493427637"><ele>14.0</ele><time>2026-05-01T15:17:05.001Z</time></trkpt><trkpt lat="45.6733894122196" lon="-0.22399349089467738"><ele>14.0</ele><time>2026-05-01T15:17:06.001Z</time></trkpt><trkpt lat="45.67338656299738" lon="-0.22387336795906085"><ele>13.999999999999998</ele><time>2026-05-01T15:17:07.001Z</time></trkpt><trkpt lat="45.67339917321149" lon="-0.22376618153449726"><ele>13.999999999999998</ele><time>2026-05-01T15:17:08.001Z</time></trkpt><trkpt lat="45.67343263191857" lon="-0.22367560592535934"><ele>14.0</ele><time>2026-05-01T15:17:09.001Z</time></trkpt><trkpt lat="45.673568174108716" lon="-0.22363430282495353"><ele>14.0</ele><time>2026-05-01T15:17:11.001Z</time></trkpt><trkpt lat="45.673646810530606" lon="-0.22366151421029312"><ele>13.75</ele><time>2026-05-01T15:17:12.001Z</time></trkpt><trkpt lat="45.67372109050626" lon="-0.22366847614365265"><ele>13.5</ele><time>2026-05-01T15:17:13.001Z</time></trkpt><trkpt lat="45.67380999883657" lon="-0.22369004144170157"><ele>13.25</ele><time>2026-05-01T15:17:14.001Z</time></trkpt><trkpt lat="45.673936148408735" lon="-0.2237205310839165"><ele>13.0</ele><time>2026-05-01T15:17:15.001Z</time></trkpt><trkpt lat="45.674094835111646" lon="-0.22375763673556825"><ele>13.0</ele><time>2026-05-01T15:17:16.001Z</time></trkpt><trkpt lat="45.67424834948853" lon="-0.22379214871671957"><ele>13.0</ele><time>2026-05-01T15:17:17.001Z</time></trkpt><trkpt lat="45.674414763747535" lon="-0.22385039927134598"><ele>13.0</ele><time>2026-05-01T15:17:18.001Z</time></trkpt><trkpt lat="45.67461221913355" lon="-0.22389185788382476"><ele>13.0</ele><time>2026-05-01T15:17:19.001Z</time></trkpt><trkpt lat="45.67480388856349" lon="-0.22394491254336943"><ele>13.0</ele><time>2026-05-01T15:17:20.001Z</time></trkpt><trkpt lat="45.67500350787631" lon="-0.2239949045777822"><ele>13.0</ele><time>2026-05-01T15:17:21.001Z</time></trkpt><trkpt lat="45.67522573770745" lon="-0.2240543559387777"><ele>13.0</ele><time>2026-05-01T15:17:22.001Z</time></trkpt><trkpt lat="45.67548117303642" lon="-0.2241165113281833"><ele>13.0</ele><time>2026-05-01T15:17:23.001Z</time></trkpt><trkpt lat="45.67573755444565" lon="-0.224183685848291"><ele>13.0</ele><time>2026-05-01T15:17:24.001Z</time></trkpt><trkpt lat="45.67599394405169" lon="-0.22424346360217698"><ele>13.0</ele><time>2026-05-01T15:17:25.001Z</time></trkpt><trkpt lat="45.67620189478074" lon="-0.22429362499290809"><ele>12.333333333333332</ele><time>2026-05-01T15:17:26.001Z</time></trkpt><trkpt lat="45.67637763521311" lon="-0.22435534832404058"><ele>11.666666666666666</ele><time>2026-05-01T15:17:27.001Z</time></trkpt><trkpt lat="45.676542779539034" lon="-0.2244240462138593"><ele>11.0</ele><time>2026-05-01T15:17:28.001Z</time></trkpt><trkpt lat="45.67668851980354" lon="-0.22450699913646754"><ele>11.0</ele><time>2026-05-01T15:17:29.001Z</time></trkpt><trkpt lat="45.676817055381015" lon="-0.22459607458920927"><ele>11.0</ele><time>2026-05-01T15:17:30.001Z</time></trkpt><trkpt lat="45.67691513536649" lon="-0.22469153231374622"><ele>11.0</ele><time>2026-05-01T15:17:31.001Z</time></trkpt><trkpt lat="45.676979541149954" lon="-0.2248324341702026"><ele>11.0</ele><time>2026-05-01T15:17:32.001Z</time></trkpt><trkpt lat="45.67703827654866" lon="-0.22500960698500597"><ele>11.25</ele><time>2026-05-01T15:17:33.001Z</time></trkpt><trkpt lat="45.677071973237396" lon="-0.22524000267209604"><ele>11.5</ele><time>2026-05-01T15:17:34.001Z</time></trkpt><trkpt lat="45.67712023241899" lon="-0.22540134170966938"><ele>11.75</ele><time>2026-05-01T15:17:35.001Z</time></trkpt><trkpt lat="45.67720265980342" lon="-0.22550847959681722"><ele>12.0</ele><time>2026-05-01T15:17:36.001Z</time></trkpt><trkpt lat="45.67734882313412" lon="-0.22553686488740668"><ele>12.0</ele><time>2026-05-01T15:17:37.001Z</time></trkpt><trkpt lat="45.67751916005402" lon="-0.22563587361122378"><ele>12.0</ele><time>2026-05-01T15:17:38.001Z</time></trkpt><trkpt lat="45.67767410455156" lon="-0.22575397801268057"><ele>12.0</ele><time>2026-05-01T15:17:39.001Z</time></trkpt><trkpt lat="45.67782212421698" lon="-0.2259024613162781"><ele>12.25</ele><time>2026-05-01T15:17:40.001Z</time></trkpt><trkpt lat="45.67795528148832" lon="-0.22605142876947584"><ele>12.5</ele><time>2026-05-01T15:17:41.001Z</time></trkpt><trkpt lat="45.678075115270275" lon="-0.22617771049539345"><ele>12.75</ele><time>2026-05-01T15:17:42.001Z</time></trkpt><trkpt lat="45.67817536959454" lon="-0.22623292576204843"><ele>13.0</ele><time>2026-05-01T15:17:43.001Z</time></trkpt><trkpt lat="45.67827515180843" lon="-0.22625159877090978"><ele>13.0</ele><time>2026-05-01T15:17:44.001Z</time></trkpt><trkpt lat="45.67837052585384" lon="-0.2262069338285513"><ele>13.0</ele><time>2026-05-01T15:17:45.001Z</time></trkpt><trkpt lat="45.67849358143065" lon="-0.2261530468296114"><ele>13.0</ele><time>2026-05-01T15:17:46.001Z</time></trkpt><trkpt lat="45.67862275110511" lon="-0.22609274022989087"><ele>13.0</ele><time>2026-05-01T15:17:47.001Z</time></trkpt><trkpt lat="45.67876475559124" lon="-0.22602967603570562"><ele>13.75</ele><time>2026-05-01T15:17:48.001Z</time></trkpt><trkpt lat="45.678901408118946" lon="-0.22599073667297973"><ele>14.5</ele><time>2026-05-01T15:17:49.001Z</time></trkpt><trkpt lat="45.67903618358704" lon="-0.2259396526882737"><ele>15.25</ele><time>2026-05-01T15:17:50.001Z</time></trkpt><trkpt lat="45.679158494261664" lon="-0.2259313269735926"><ele>16.0</ele><time>2026-05-01T15:17:51.001Z</time></trkpt><trkpt lat="45.67925339804039" lon="-0.22590536690730956"><ele>16.0</ele><time>2026-05-01T15:17:52.001Z</time></trkpt><trkpt lat="45.67933921232078" lon="-0.2258222227884939"><ele>16.0</ele><time>2026-05-01T15:17:53.001Z</time></trkpt><trkpt lat="45.67944418114481" lon="-0.22568002752485972"><ele>16.0</ele><time>2026-05-01T15:17:54.001Z</time></trkpt><trkpt lat="45.679552850444686" lon="-0.22551816366534475"><ele>16.0</ele><time>2026-05-01T15:17:55.001Z</time></trkpt><trkpt lat="45.679665943763986" lon="-0.22537148248226835"><ele>15.5</ele><time>2026-05-01T15:17:56.001Z</time></trkpt><trkpt lat="45.67977400284875" lon="-0.22525003862914195"><ele>15.0</ele><time>2026-05-01T15:17:57.001Z</time></trkpt><trkpt lat="45.6798492978681" lon="-0.22510421301922437"><ele>14.5</ele><time>2026-05-01T15:17:58.001Z</time></trkpt><trkpt lat="45.67993393460168" lon="-0.22496763406147444"><ele>14.0</ele><time>2026-05-01T15:17:59.001Z</time></trkpt><trkpt lat="45.68002741267131" lon="-0.22486006106670925"><ele>14.0</ele><time>2026-05-01T15:18:00.001Z</time></trkpt><trkpt lat="45.68011178571192" lon="-0.2247494131072767"><ele>13.999999999999998</ele><time>2026-05-01T15:18:01Z</time></trkpt><trkpt lat="45.680186886193454" lon="-0.2246378589496246"><ele>13.999999999999998</ele><time>2026-05-01T15:18:02Z</time></trkpt><trkpt lat="45.68028381831483" lon="-0.22456422064434772"><ele>14.0</ele><time>2026-05-01T15:18:03Z</time></trkpt><trkpt lat="45.6803763511013" lon="-0.22448682511207543"><ele>14.0</ele><time>2026-05-01T15:18:04Z</time></trkpt><trkpt lat="45.680473285424924" lon="-0.22440541507231568"><ele>14.0</ele><time>2026-05-01T15:18:05Z</time></trkpt><trkpt lat="45.68060519480775" lon="-0.2243111321774623"><ele>14.0</ele><time>2026-05-01T15:18:06Z</time></trkpt><trkpt lat="45.680762719737984" lon="-0.22421348448466555"><ele>14.0</ele><time>2026-05-01T15:18:07Z</time></trkpt><trkpt lat="45.680904115587325" lon="-0.22411830615399495"><ele>14.0</ele><time>2026-05-01T15:18:08Z</time></trkpt><trkpt lat="45.68102798122501" lon="-0.22400926979231217"><ele>14.0</ele><time>2026-05-01T15:18:09Z</time></trkpt><trkpt lat="45.68116104340059" lon="-0.2238982875619064"><ele>14.0</ele><time>2026-05-01T15:18:10Z</time></trkpt><trkpt lat="45.68130154884879" lon="-0.2237797250727885"><ele>13.75</ele><time>2026-05-01T15:18:11Z</time></trkpt><trkpt lat="45.681437996035676" lon="-0.2236694681592301"><ele>13.5</ele><time>2026-05-01T15:18:12Z</time></trkpt><trkpt lat="45.681561235402285" lon="-0.22360050811720547"><ele>13.25</ele><time>2026-05-01T15:18:13Z</time></trkpt><trkpt lat="45.681658732404685" lon="-0.22353324127460664"><ele>13.0</ele><time>2026-05-01T15:18:14Z</time></trkpt><trkpt lat="45.68177459801198" lon="-0.22347893557792187"><ele>13.0</ele><time>2026-05-01T15:18:15Z</time></trkpt><trkpt lat="45.681921116923576" lon="-0.22345213677984316"><ele>13.0</ele><time>2026-05-01T15:18:16Z</time></trkpt><trkpt lat="45.68208089197124" lon="-0.22340658124774826"><ele>13.0</ele><time>2026-05-01T15:18:17Z</time></trkpt><trkpt lat="45.6822316780458" lon="-0.22337476539911313"><ele>13.4</ele><time>2026-05-01T15:18:18Z</time></trkpt><trkpt lat="45.68233470322762" lon="-0.2233480479191422"><ele>13.8</ele><time>2026-05-01T15:18:19Z</time></trkpt><trkpt lat="45.68244459029152" lon="-0.22331367187748577"><ele>14.2</ele><time>2026-05-01T15:18:20Z</time></trkpt><trkpt lat="45.68254661177905" lon="-0.22327875750472878"><ele>14.6</ele><time>2026-05-01T15:18:21Z</time></trkpt><trkpt lat="45.68264500904735" lon="-0.223219350450992"><ele>15.0</ele><time>2026-05-01T15:18:22Z</time></trkpt><trkpt lat="45.68272418329606" lon="-0.22310160220370903"><ele>16.25</ele><time>2026-05-01T15:18:23Z</time></trkpt><trkpt lat="45.6827667488944" lon="-0.2229247209413541"><ele>17.5</ele><time>2026-05-01T15:18:24Z</time></trkpt><trkpt lat="45.68283238681745" lon="-0.22276153794170958"><ele>18.75</ele><time>2026-05-01T15:18:25Z</time></trkpt><trkpt lat="45.68290052961381" lon="-0.2226072675438994"><ele>20.0</ele><time>2026-05-01T15:18:26Z</time></trkpt><trkpt lat="45.68297497933" lon="-0.22242209099923188"><ele>18.666666666666668</ele><time>2026-05-01T15:18:27Z</time></trkpt><trkpt lat="45.68305928336803" lon="-0.22221657089906227"><ele>17.333333333333332</ele><time>2026-05-01T15:18:28Z</time></trkpt><trkpt lat="45.68313755679916" lon="-0.22202662658119776"><ele>16.0</ele><time>2026-05-01T15:18:29Z</time></trkpt><trkpt lat="45.68321004860157" lon="-0.22186367272767904"><ele>16.0</ele><time>2026-05-01T15:18:30Z</time></trkpt><trkpt lat="45.68327230858016" lon="-0.22171934355579012"><ele>16.0</ele><time>2026-05-01T15:18:31Z</time></trkpt><trkpt lat="45.68332263372729" lon="-0.2215553688410432"><ele>16.0</ele><time>2026-05-01T15:18:32Z</time></trkpt><trkpt lat="45.68338458971023" lon="-0.22140562286501378"><ele>16.0</ele><time>2026-05-01T15:18:33Z</time></trkpt><trkpt lat="45.68347649385268" lon="-0.2212272153639513"><ele>14.0</ele><time>2026-05-01T15:18:34Z</time></trkpt><trkpt lat="45.683554462653504" lon="-0.22101196947107576"><ele>12.0</ele><time>2026-05-01T15:18:35Z</time></trkpt><trkpt lat="45.68375144673715" lon="-0.22055272592480193"><ele>12.0</ele><time>2026-05-01T15:18:37Z</time></trkpt><trkpt lat="45.68383194877057" lon="-0.22033283868776019"><ele>12.0</ele><time>2026-05-01T15:18:38Z</time></trkpt><trkpt lat="45.68392092247992" lon="-0.22014263474370732"><ele>12.0</ele><time>2026-05-01T15:18:39Z</time></trkpt><trkpt lat="45.68400823929096" lon="-0.21998708550310364"><ele>12.0</ele><time>2026-05-01T15:18:40Z</time></trkpt><trkpt lat="45.68409162171847" lon="-0.21983487344378544"><ele>12.0</ele><time>2026-05-01T15:18:41Z</time></trkpt><trkpt lat="45.68418910782288" lon="-0.21971440684981008"><ele>12.0</ele><time>2026-05-01T15:18:42Z</time></trkpt><trkpt lat="45.68431450950965" lon="-0.21960276791395017"><ele>12.0</ele><time>2026-05-01T15:18:43Z</time></trkpt><trkpt lat="45.684442037885596" lon="-0.21949930372154405"><ele>12.2</ele><time>2026-05-01T15:18:44Z</time></trkpt><trkpt lat="45.68454912122614" lon="-0.21941222097025043"><ele>12.399999999999999</ele><time>2026-05-01T15:18:45Z</time></trkpt><trkpt lat="45.684648974286986" lon="-0.21932487737708692"><ele>12.600000000000001</ele><time>2026-05-01T15:18:46Z</time></trkpt><trkpt lat="45.68473410063237" lon="-0.21925391094591826"><ele>12.8</ele><time>2026-05-01T15:18:47Z</time></trkpt><trkpt lat="45.68480294663004" lon="-0.21920821513236524"><ele>13.0</ele><time>2026-05-01T15:18:48Z</time></trkpt><trkpt lat="45.684841763499065" lon="-0.2191177090220497"><ele>13.0</ele><time>2026-05-01T15:18:49Z</time></trkpt><trkpt lat="45.684835437508184" lon="-0.21899658960903826"><ele>13.0</ele><time>2026-05-01T15:18:50Z</time></trkpt><trkpt lat="45.68481917990479" lon="-0.21882292370950462"><ele>13.0</ele><time>2026-05-01T15:18:51Z</time></trkpt><trkpt lat="45.6847993992469" lon="-0.2186121742733731"><ele>13.0</ele><time>2026-05-01T15:18:52Z</time></trkpt><trkpt lat="45.68479236622908" lon="-0.2183506885379559"><ele>13.666666666666666</ele><time>2026-05-01T15:18:53Z</time></trkpt><trkpt lat="45.684758987529165" lon="-0.2180739753601892"><ele>14.333333333333332</ele><time>2026-05-01T15:18:54Z</time></trkpt><trkpt lat="45.684732318686905" lon="-0.21777180641047528"><ele>15.0</ele><time>2026-05-01T15:18:55Z</time></trkpt><trkpt lat="45.68471249103975" lon="-0.21746282725133498"><ele>14.5</ele><time>2026-05-01T15:18:56Z</time></trkpt><trkpt lat="45.684689778740726" lon="-0.21720163382277943"><ele>14.0</ele><time>2026-05-01T15:18:57Z</time></trkpt><trkpt lat="45.684678511620014" lon="-0.2170447222054644"><ele>13.5</ele><time>2026-05-01T15:18:58Z</time></trkpt><trkpt lat="45.68467140298337" lon="-0.21692988190610418"><ele>13.0</ele><time>2026-05-01T15:19:00.001Z</time></trkpt><trkpt lat="45.684796572009645" lon="-0.21694421132981"><ele>12.999999999999998</ele><time>2026-05-01T15:19:03.001Z</time></trkpt><trkpt lat="45.68491825831451" lon="-0.2169413729097445"><ele>13.0</ele><time>2026-05-01T15:19:05.001Z</time></trkpt><trkpt lat="45.68500710884355" lon="-0.2169267188163797"><ele>13.0</ele><time>2026-05-01T15:19:06.001Z</time></trkpt><trkpt lat="45.685090527181984" lon="-0.21692019449098382"><ele>13.0</ele><time>2026-05-01T15:19:07.001Z</time></trkpt><trkpt lat="45.6851686976394" lon="-0.21691365188787778"><ele>12.999999999999998</ele><time>2026-05-01T15:19:08.001Z</time></trkpt><trkpt lat="45.68524446260346" lon="-0.21690610760543907"><ele>13.0</ele><time>2026-05-01T15:19:09.001Z</time></trkpt><trkpt lat="45.68533707896325" lon="-0.21689465471595706"><ele>13.333333333333332</ele><time>2026-05-01T15:19:10.001Z</time></trkpt><trkpt lat="45.685436686392364" lon="-0.21687478399495316"><ele>13.666666666666666</ele><time>2026-05-01T15:19:11.001Z</time></trkpt><trkpt lat="45.68553543653666" lon="-0.21686143562203988"><ele>14.0</ele><time>2026-05-01T15:19:12.001Z</time></trkpt><trkpt lat="45.68562609450661" lon="-0.21685796267174345"><ele>14.333333333333332</ele><time>2026-05-01T15:19:13.001Z</time></trkpt><trkpt lat="45.68570185085036" lon="-0.21685606888662465"><ele>14.666666666666666</ele><time>2026-05-01T15:19:14.001Z</time></trkpt><trkpt lat="45.68576805392505" lon="-0.2168581314176864"><ele>15.0</ele><time>2026-05-01T15:19:15.001Z</time></trkpt><trkpt lat="45.68583129774018" lon="-0.21686074129332167"><ele>15.0</ele><time>2026-05-01T15:19:16.001Z</time></trkpt><trkpt lat="45.68589638883538" lon="-0.21686943305080733"><ele>15.0</ele><time>2026-05-01T15:19:17.001Z</time></trkpt><trkpt lat="45.68598793409337" lon="-0.21687253045824115"><ele>15.0</ele><time>2026-05-01T15:19:19.001Z</time></trkpt><trkpt lat="45.68618157341728" lon="-0.21679542568717766"><ele>15.0</ele><time>2026-05-01T15:19:22.001Z</time></trkpt><trkpt lat="45.68625775315004" lon="-0.21675549953145393"><ele>15.0</ele><time>2026-05-01T15:19:23.001Z</time></trkpt><trkpt lat="45.68633349153222" lon="-0.21672031991410717"><ele>15.0</ele><time>2026-05-01T15:19:24.001Z</time></trkpt><trkpt lat="45.68641071153999" lon="-0.21668456161378338"><ele>15.0</ele><time>2026-05-01T15:19:25.001Z</time></trkpt><trkpt lat="45.68648301752972" lon="-0.2166389676118531"><ele>15.0</ele><time>2026-05-01T15:19:26.001Z</time></trkpt><trkpt lat="45.68656075606132" lon="-0.2165949815683907"><ele>15.0</ele><time>2026-05-01T15:19:27.001Z</time></trkpt><trkpt lat="45.68664935979024" lon="-0.2165499964479608"><ele>15.0</ele><time>2026-05-01T15:19:28.001Z</time></trkpt><trkpt lat="45.68673717039417" lon="-0.21650333333127778"><ele>15.0</ele><time>2026-05-01T15:19:29.001Z</time></trkpt><trkpt lat="45.68682716980053" lon="-0.21645043219274682"><ele>15.166666666666666</ele><time>2026-05-01T15:19:30.001Z</time></trkpt><trkpt lat="45.68690107473536" lon="-0.2164116633976216"><ele>15.333333333333332</ele><time>2026-05-01T15:19:31.001Z</time></trkpt><trkpt lat="45.686987451951225" lon="-0.21636695787341534"><ele>15.5</ele><time>2026-05-01T15:19:32.001Z</time></trkpt><trkpt lat="45.68706951367844" lon="-0.21632246119934004"><ele>15.666666666666666</ele><time>2026-05-01T15:19:33.001Z</time></trkpt><trkpt lat="45.687139404202995" lon="-0.2162831549182293"><ele>15.833333333333332</ele><time>2026-05-01T15:19:34.001Z</time></trkpt><trkpt lat="45.68721563818254" lon="-0.21624445515746724"><ele>16.0</ele><time>2026-05-01T15:19:35.001Z</time></trkpt><trkpt lat="45.68728495264497" lon="-0.2162119600464127"><ele>16.166666666666664</ele><time>2026-05-01T15:19:36.001Z</time></trkpt><trkpt lat="45.68736153868833" lon="-0.21617085812120335"><ele>16.333333333333332</ele><time>2026-05-01T15:19:37.001Z</time></trkpt><trkpt lat="45.68743710763547" lon="-0.2161351694507059"><ele>16.5</ele><time>2026-05-01T15:19:38.001Z</time></trkpt><trkpt lat="45.68750878253102" lon="-0.21609717228851152"><ele>16.666666666666668</ele><time>2026-05-01T15:19:39.001Z</time></trkpt><trkpt lat="45.68758165998504" lon="-0.21605332428336751"><ele>16.833333333333336</ele><time>2026-05-01T15:19:40.001Z</time></trkpt><trkpt lat="45.68765453360901" lon="-0.21601569238990856"><ele>17.0</ele><time>2026-05-01T15:19:41.001Z</time></trkpt><trkpt lat="45.68773028320061" lon="-0.215974945068254"><ele>17.333333333333336</ele><time>2026-05-01T15:19:42.001Z</time></trkpt><trkpt lat="45.68782163065103" lon="-0.2159293812580641"><ele>17.666666666666668</ele><time>2026-05-01T15:19:44.001Z</time></trkpt><trkpt lat="45.68788936736091" lon="-0.21595584569155538"><ele>18.0</ele><time>2026-05-01T15:19:52.001Z</time></trkpt><trkpt lat="45.68792083770774" lon="-0.21611624859188"><ele>18.333333333333332</ele><time>2026-05-01T15:19:54.001Z</time></trkpt><trkpt lat="45.68793817303834" lon="-0.21623174658070488"><ele>18.666666666666664</ele><time>2026-05-01T15:19:55.001Z</time></trkpt><trkpt lat="45.68797199309128" lon="-0.21633495946467154"><ele>19.0</ele><time>2026-05-01T15:19:56.001Z</time></trkpt><trkpt lat="45.68800098756244" lon="-0.21642707963324448"><ele>18.666666666666664</ele><time>2026-05-01T15:19:57.001Z</time></trkpt><trkpt lat="45.68802542750795" lon="-0.21651871653710975"><ele>18.333333333333332</ele><time>2026-05-01T15:19:58.001Z</time></trkpt><trkpt lat="45.688051284712344" lon="-0.21660117998308248"><ele>18.0</ele><time>2026-05-01T15:19:59.001Z</time></trkpt><trkpt lat="45.688073079254664" lon="-0.21668761454343857"><ele>17.666666666666668</ele><time>2026-05-01T15:20:00.001Z</time></trkpt><trkpt lat="45.688097917164534" lon="-0.21677500220265739"><ele>17.333333333333336</ele><time>2026-05-01T15:20:01.001Z</time></trkpt><trkpt lat="45.68814002990691" lon="-0.2169213754047564"><ele>17.0</ele><time>2026-05-01T15:20:03.001Z</time></trkpt><trkpt lat="45.68818921445135" lon="-0.21705417765795545"><ele>17.0</ele><time>2026-05-01T15:20:05.001Z</time></trkpt><trkpt lat="45.68822708669689" lon="-0.21714788200183283"><ele>17.0</ele><time>2026-05-01T15:20:08Z</time></trkpt><trkpt lat="45.688291555372466" lon="-0.21721440824266108"><ele>17.0</ele><time>2026-05-01T15:20:11Z</time></trkpt><trkpt lat="45.68839217951421" lon="-0.21724849534009644"><ele>17.0</ele><time>2026-05-01T15:20:13Z</time></trkpt><trkpt lat="45.6884744437373" lon="-0.21725224662134157"><ele>17.0</ele><time>2026-05-01T15:20:15Z</time></trkpt><trkpt lat="45.68852536483846" lon="-0.21714781516271534"><ele>17.0</ele><time>2026-05-01T15:20:17Z</time></trkpt><trkpt lat="45.688566023204075" lon="-0.2169963956329141"><ele>18.0</ele><time>2026-05-01T15:20:19Z</time></trkpt><trkpt lat="45.688599509605915" lon="-0.21690501966497308"><ele>19.0</ele><time>2026-05-01T15:20:21Z</time></trkpt><trkpt lat="45.68867752281556" lon="-0.21690137020241437"><ele>20.0</ele><time>2026-05-01T15:20:24Z</time></trkpt><trkpt lat="45.68872829174688" lon="-0.21698037510778187"><ele>21.0</ele><time>2026-05-01T15:20:26Z</time></trkpt><trkpt lat="45.68880855767246" lon="-0.21695432476765505"><ele>22.0</ele><time>2026-05-01T15:20:30Z</time></trkpt><trkpt lat="45.68887398904662" lon="-0.2168960717371835"><ele>23.0</ele><time>2026-05-01T15:20:31Z</time></trkpt><trkpt lat="45.68894200159217" lon="-0.21685462209256307"><ele>23.0</ele><time>2026-05-01T15:20:32Z</time></trkpt><trkpt lat="45.68900348821388" lon="-0.21682060934557626"><ele>23.0</ele><time>2026-05-01T15:20:33Z</time></trkpt><trkpt lat="45.68911508232949" lon="-0.2167385155421745"><ele>23.0</ele><time>2026-05-01T15:20:35Z</time></trkpt><trkpt lat="45.689180486113116" lon="-0.21670120426433923"><ele>23.0</ele><time>2026-05-01T15:20:36Z</time></trkpt><trkpt lat="45.68929435237032" lon="-0.216635680286909"><ele>23.0</ele><time>2026-05-01T15:20:38Z</time></trkpt><trkpt lat="45.68935223561069" lon="-0.21659973962106416"><ele>23.0</ele><time>2026-05-01T15:20:39Z</time></trkpt><trkpt lat="45.68941711223381" lon="-0.21655636130609557"><ele>24.0</ele><time>2026-05-01T15:20:40Z</time></trkpt><trkpt lat="45.689478508279194" lon="-0.21651996608807986"><ele>25.0</ele><time>2026-05-01T15:20:41Z</time></trkpt><trkpt lat="45.68953619303906" lon="-0.2164827642401271"><ele>26.0</ele><time>2026-05-01T15:20:42Z</time></trkpt><trkpt lat="45.6896060085344" lon="-0.2164062134319868"><ele>27.0</ele><time>2026-05-01T15:20:44Z</time></trkpt><trkpt lat="45.68961497758641" lon="-0.21630686267349167"><ele>27.999999999999996</ele><time>2026-05-01T15:20:46Z</time></trkpt><trkpt lat="45.68960276458303" lon="-0.21618120463869575"><ele>29.0</ele><time>2026-05-01T15:20:48Z</time></trkpt><trkpt lat="45.68956445955403" lon="-0.21606761362560462"><ele>28.666666666666664</ele><time>2026-05-01T15:20:49Z</time></trkpt><trkpt lat="45.68949175553546" lon="-0.2159032072621309"><ele>28.333333333333336</ele><time>2026-05-01T15:20:50Z</time></trkpt><trkpt lat="45.689406244634796" lon="-0.2157017502548324"><ele>28.0</ele><time>2026-05-01T15:20:51Z</time></trkpt><trkpt lat="45.689298953885384" lon="-0.21547318397738854"><ele>28.0</ele><time>2026-05-01T15:20:52Z</time></trkpt><trkpt lat="45.689200627752754" lon="-0.21521653645132915"><ele>28.0</ele><time>2026-05-01T15:20:53Z</time></trkpt><trkpt lat="45.689095879237385" lon="-0.2149428233762154"><ele>28.0</ele><time>2026-05-01T15:20:54Z</time></trkpt><trkpt lat="45.6890050141155" lon="-0.2147037334277546"><ele>29.0</ele><time>2026-05-01T15:20:55Z</time></trkpt><trkpt lat="45.6889232862829" lon="-0.21448868601733478"><ele>30.0</ele><time>2026-05-01T15:20:56Z</time></trkpt><trkpt lat="45.688847821952514" lon="-0.21429011943844098"><ele>31.0</ele><time>2026-05-01T15:20:57Z</time></trkpt><trkpt lat="45.68877915493052" lon="-0.2141094389146193"><ele>32.333333333333336</ele><time>2026-05-01T15:20:58Z</time></trkpt><trkpt lat="45.688721093225936" lon="-0.2139128859169139"><ele>33.666666666666664</ele><time>2026-05-01T15:20:59Z</time></trkpt><trkpt lat="45.688646379997216" lon="-0.21371731622269513"><ele>35.0</ele><time>2026-05-01T15:21:00.001Z</time></trkpt><trkpt lat="45.68855426281186" lon="-0.21352620567049102"><ele>33.33333333333333</ele><time>2026-05-01T15:21:01.001Z</time></trkpt><trkpt lat="45.68847512232837" lon="-0.21332182642438063"><ele>31.666666666666664</ele><time>2026-05-01T15:21:02.001Z</time></trkpt><trkpt lat="45.688397826152915" lon="-0.2131196298572523"><ele>30.0</ele><time>2026-05-01T15:21:03.001Z</time></trkpt><trkpt lat="45.688326337856715" lon="-0.21293085503141404"><ele>30.0</ele><time>2026-05-01T15:21:04.001Z</time></trkpt><trkpt lat="45.68825840253918" lon="-0.21275146167790074"><ele>30.0</ele><time>2026-05-01T15:21:05.001Z</time></trkpt><trkpt lat="45.68819424296397" lon="-0.21258339416931551"><ele>30.0</ele><time>2026-05-01T15:21:06.001Z</time></trkpt><trkpt lat="45.688147380405105" lon="-0.21241209409664905"><ele>30.0</ele><time>2026-05-01T15:21:07.001Z</time></trkpt><trkpt lat="45.68807609262212" lon="-0.2122752360916662"><ele>30.4</ele><time>2026-05-01T15:21:08.001Z</time></trkpt><trkpt lat="45.688035416224785" lon="-0.21214872906333587"><ele>30.8</ele><time>2026-05-01T15:21:09.001Z</time></trkpt><trkpt lat="45.68798323699685" lon="-0.21203305094789537"><ele>31.200000000000003</ele><time>2026-05-01T15:21:11.001Z</time></trkpt><trkpt lat="45.688091890976864" lon="-0.21189019330240447"><ele>31.6</ele><time>2026-05-01T15:21:14.001Z</time></trkpt><trkpt lat="45.68816949339312" lon="-0.2118451656212177"><ele>32.0</ele><time>2026-05-01T15:21:15.001Z</time></trkpt><trkpt lat="45.68825715769809" lon="-0.21179723492237196"><ele>32.0</ele><time>2026-05-01T15:21:16.001Z</time></trkpt><trkpt lat="45.6883591299082" lon="-0.21174148130489576"><ele>32.0</ele><time>2026-05-01T15:21:17.001Z</time></trkpt><trkpt lat="45.68849380235105" lon="-0.21169228450167546"><ele>32.0</ele><time>2026-05-01T15:21:18.001Z</time></trkpt><trkpt lat="45.688637218982706" lon="-0.21158890394898994"><ele>32.0</ele><time>2026-05-01T15:21:19.001Z</time></trkpt><trkpt lat="45.68876448780612" lon="-0.2115170701503011"><ele>33.75</ele><time>2026-05-01T15:21:20.001Z</time></trkpt><trkpt lat="45.68887808537289" lon="-0.21145295281930354"><ele>35.5</ele><time>2026-05-01T15:21:21.001Z</time></trkpt><trkpt lat="45.68900488067332" lon="-0.21140023926293447"><ele>37.25</ele><time>2026-05-01T15:21:22.001Z</time></trkpt><trkpt lat="45.68913768838997" lon="-0.21132547399299378"><ele>39.0</ele><time>2026-05-01T15:21:23.001Z</time></trkpt><trkpt lat="45.68926938159835" lon="-0.21124903391209165"><ele>41.0</ele><time>2026-05-01T15:21:24.001Z</time></trkpt><trkpt lat="45.689428106006744" lon="-0.21116104491097457"><ele>43.0</ele><time>2026-05-01T15:21:25.001Z</time></trkpt><trkpt lat="45.68957157656676" lon="-0.21108018628904215"><ele>45.0</ele><time>2026-05-01T15:21:26.001Z</time></trkpt><trkpt lat="45.68971356318049" lon="-0.21100331595953423"><ele>45.0</ele><time>2026-05-01T15:21:27.001Z</time></trkpt><trkpt lat="45.689857899716415" lon="-0.21092765351563997"><ele>45.0</ele><time>2026-05-01T15:21:28.001Z</time></trkpt><trkpt lat="45.69000017121813" lon="-0.21085442799629064"><ele>45.0</ele><time>2026-05-01T15:21:29.001Z</time></trkpt><trkpt lat="45.690127088967394" lon="-0.21079305425907036"><ele>45.0</ele><time>2026-05-01T15:21:30.001Z</time></trkpt><trkpt lat="45.69025822505628" lon="-0.21073750997482854"><ele>46.5</ele><time>2026-05-01T15:21:31.001Z</time></trkpt><trkpt lat="45.6903837338688" lon="-0.21068238726765395"><ele>48.0</ele><time>2026-05-01T15:21:32.001Z</time></trkpt><trkpt lat="45.69049720357688" lon="-0.21060413847232112"><ele>49.5</ele><time>2026-05-01T15:21:33.001Z</time></trkpt><trkpt lat="45.690613077486525" lon="-0.2105508432765031"><ele>51.0</ele><time>2026-05-01T15:21:34.001Z</time></trkpt><trkpt lat="45.6907489024777" lon="-0.21052130398680055"><ele>51.75</ele><time>2026-05-01T15:21:35.001Z</time></trkpt><trkpt lat="45.69087795462299" lon="-0.21047589022848154"><ele>52.5</ele><time>2026-05-01T15:21:36.001Z</time></trkpt><trkpt lat="45.69100461163555" lon="-0.21048287171740485"><ele>53.25</ele><time>2026-05-01T15:21:37.001Z</time></trkpt><trkpt lat="45.69114915366165" lon="-0.21046678565223442"><ele>54.0</ele><time>2026-05-01T15:21:38.001Z</time></trkpt><trkpt lat="45.69130967648606" lon="-0.2104460861890199"><ele>54.66666666666667</ele><time>2026-05-01T15:21:39.001Z</time></trkpt><trkpt lat="45.69146276478584" lon="-0.2104288993514904"><ele>55.333333333333336</ele><time>2026-05-01T15:21:40.001Z</time></trkpt><trkpt lat="45.69162406928896" lon="-0.21041366619871466"><ele>56.0</ele><time>2026-05-01T15:21:41.001Z</time></trkpt><trkpt lat="45.691799497486265" lon="-0.21039855887554407"><ele>57.0</ele><time>2026-05-01T15:21:42.001Z</time></trkpt><trkpt lat="45.691965085173784" lon="-0.21039008681210472"><ele>58.0</ele><time>2026-05-01T15:21:43.001Z</time></trkpt><trkpt lat="45.69213460934354" lon="-0.21035497748379056"><ele>59.0</ele><time>2026-05-01T15:21:44.001Z</time></trkpt><trkpt lat="45.69230807041856" lon="-0.21033838311158815"><ele>59.0</ele><time>2026-05-01T15:21:45.001Z</time></trkpt><trkpt lat="45.6924833024921" lon="-0.21032408846121822"><ele>59.0</ele><time>2026-05-01T15:21:46.001Z</time></trkpt><trkpt lat="45.69263537005468" lon="-0.2103206510422319"><ele>59.0</ele><time>2026-05-01T15:21:47.001Z</time></trkpt><trkpt lat="45.69276505337986" lon="-0.21032148781391968"><ele>59.25</ele><time>2026-05-01T15:21:48.001Z</time></trkpt><trkpt lat="45.692884654279226" lon="-0.2103241061938001"><ele>59.5</ele><time>2026-05-01T15:21:49.001Z</time></trkpt><trkpt lat="45.693005859214075" lon="-0.21032647377604793"><ele>59.75</ele><time>2026-05-01T15:21:50.001Z</time></trkpt><trkpt lat="45.69313930649926" lon="-0.21032761205393577"><ele>60.0</ele><time>2026-05-01T15:21:51.001Z</time></trkpt><trkpt lat="45.69327524900843" lon="-0.21033715715447368"><ele>60.0</ele><time>2026-05-01T15:21:52.001Z</time></trkpt><trkpt lat="45.69341167867614" lon="-0.21036018918075894"><ele>60.0</ele><time>2026-05-01T15:21:53.001Z</time></trkpt><trkpt lat="45.6935491095006" lon="-0.21041296718244307"><ele>60.0</ele><time>2026-05-01T15:21:54.001Z</time></trkpt><trkpt lat="45.6936988655435" lon="-0.2104536754939838"><ele>60.0</ele><time>2026-05-01T15:21:55.001Z</time></trkpt><trkpt lat="45.693839848728814" lon="-0.21046663267163984"><ele>59.75</ele><time>2026-05-01T15:21:56.001Z</time></trkpt><trkpt lat="45.69395968555494" lon="-0.21049769863926404"><ele>59.5</ele><time>2026-05-01T15:21:57.001Z</time></trkpt><trkpt lat="45.69406916103018" lon="-0.21054388955466088"><ele>59.25</ele><time>2026-05-01T15:21:58.001Z</time></trkpt><trkpt lat="45.69420531286852" lon="-0.21055881254564196"><ele>59.0</ele><time>2026-05-01T15:21:59.001Z</time></trkpt><trkpt lat="45.69432921129228" lon="-0.210567223344902"><ele>58.5</ele><time>2026-05-01T15:22:00.001Z</time></trkpt><trkpt lat="45.694442650323765" lon="-0.21056351697370632"><ele>58.0</ele><time>2026-05-01T15:22:01.001Z</time></trkpt><trkpt lat="45.69455199433044" lon="-0.21051911901171635"><ele>57.5</ele><time>2026-05-01T15:22:02.001Z</time></trkpt><trkpt lat="45.69467188784538" lon="-0.2104791388045963"><ele>57.0</ele><time>2026-05-01T15:22:03.001Z</time></trkpt><trkpt lat="45.69481069281598" lon="-0.2104545918509628"><ele>57.0</ele><time>2026-05-01T15:22:04.001Z</time></trkpt><trkpt lat="45.69493177944711" lon="-0.21040409644710328"><ele>57.0</ele><time>2026-05-01T15:22:05.001Z</time></trkpt><trkpt lat="45.695052598349555" lon="-0.21037272053013292"><ele>57.0</ele><time>2026-05-01T15:22:06.001Z</time></trkpt><trkpt lat="45.695161341873096" lon="-0.2103433930498996"><ele>57.0</ele><time>2026-05-01T15:22:07.001Z</time></trkpt><trkpt lat="45.69526232820957" lon="-0.21032086667011204"><ele>56.25</ele><time>2026-05-01T15:22:08.002Z</time></trkpt><trkpt lat="45.69534420090327" lon="-0.21031881345475326"><ele>55.5</ele><time>2026-05-01T15:22:09.002Z</time></trkpt><trkpt lat="45.695461741332316" lon="-0.21028023853522093"><ele>54.75</ele><time>2026-05-01T15:22:10.002Z</time></trkpt><trkpt lat="45.695556942980694" lon="-0.21026701706668974"><ele>54.0</ele><time>2026-05-01T15:22:11.002Z</time></trkpt><trkpt lat="45.69573520539059" lon="-0.2102156127168933"><ele>54.0</ele><time>2026-05-01T15:22:13Z</time></trkpt><trkpt lat="45.69581896881249" lon="-0.21017545800801127"><ele>54.0</ele><time>2026-05-01T15:22:14Z</time></trkpt><trkpt lat="45.69590323114721" lon="-0.21012976737107272"><ele>54.0</ele><time>2026-05-01T15:22:15Z</time></trkpt><trkpt lat="45.69599257652095" lon="-0.21007836064671243"><ele>54.0</ele><time>2026-05-01T15:22:16Z</time></trkpt><trkpt lat="45.696074914644846" lon="-0.21002601378467484"><ele>54.0</ele><time>2026-05-01T15:22:17Z</time></trkpt><trkpt lat="45.696136514089964" lon="-0.20997904853137977"><ele>54.0</ele><time>2026-05-01T15:22:18Z</time></trkpt><trkpt lat="45.696196060422416" lon="-0.20992202071456603"><ele>52.6</ele><time>2026-05-01T15:22:19Z</time></trkpt><trkpt lat="45.69625862157161" lon="-0.2098679984204103"><ele>51.2</ele><time>2026-05-01T15:22:20Z</time></trkpt><trkpt lat="45.696321316753654" lon="-0.2097955771540834"><ele>49.800000000000004</ele><time>2026-05-01T15:22:21Z</time></trkpt><trkpt lat="45.69643609217968" lon="-0.20972298981065338"><ele>48.400000000000006</ele><time>2026-05-01T15:22:23Z</time></trkpt><trkpt lat="45.696506798281554" lon="-0.20966434360052397"><ele>47.0</ele><time>2026-05-01T15:22:24Z</time></trkpt><trkpt lat="45.69659417967818" lon="-0.20962838872982106"><ele>46.2</ele><time>2026-05-01T15:22:25Z</time></trkpt><trkpt lat="45.69664595235469" lon="-0.2095597905150958"><ele>45.400000000000006</ele><time>2026-05-01T15:22:26Z</time></trkpt><trkpt lat="45.69671241627961" lon="-0.20955781907434637"><ele>44.599999999999994</ele><time>2026-05-01T15:22:31Z</time></trkpt><trkpt lat="45.69679986902233" lon="-0.20965726002906235"><ele>43.8</ele><time>2026-05-01T15:22:32Z</time></trkpt><trkpt lat="45.696853225050546" lon="-0.20974827110483749"><ele>43.0</ele><time>2026-05-01T15:22:33Z</time></trkpt><trkpt lat="45.69694364421395" lon="-0.20985931897016713"><ele>42.4</ele><time>2026-05-01T15:22:34Z</time></trkpt><trkpt lat="45.6970364718202" lon="-0.20996273558255685"><ele>41.8</ele><time>2026-05-01T15:22:35Z</time></trkpt><trkpt lat="45.69711063986042" lon="-0.21004739920258733"><ele>41.2</ele><time>2026-05-01T15:22:36Z</time></trkpt><trkpt lat="45.69716778810296" lon="-0.21011774278726614"><ele>40.6</ele><time>2026-05-01T15:22:37Z</time></trkpt><trkpt lat="45.697250552483275" lon="-0.210038059428685"><ele>40.0</ele><time>2026-05-01T15:22:39Z</time></trkpt><trkpt lat="45.697363741359034" lon="-0.20994771620992192"><ele>39.25</ele><time>2026-05-01T15:22:40Z</time></trkpt><trkpt lat="45.697493954494796" lon="-0.209820415191525"><ele>38.5</ele><time>2026-05-01T15:22:41Z</time></trkpt><trkpt lat="45.69758838249012" lon="-0.2097174679734936"><ele>37.75</ele><time>2026-05-01T15:22:42Z</time></trkpt><trkpt lat="45.69767077255462" lon="-0.2096500560772556"><ele>37.0</ele><time>2026-05-01T15:22:43Z</time></trkpt><trkpt lat="45.69778377486563" lon="-0.20952602419727448"><ele>36.0</ele><time>2026-05-01T15:22:44Z</time></trkpt><trkpt lat="45.69795872251432" lon="-0.20950857536506312"><ele>35.0</ele><time>2026-05-01T15:22:45Z</time></trkpt><trkpt lat="45.69808150255913" lon="-0.20942643129498686"><ele>34.0</ele><time>2026-05-01T15:22:46Z</time></trkpt><trkpt lat="45.69819787614456" lon="-0.20939527979687397"><ele>33.0</ele><time>2026-05-01T15:22:47Z</time></trkpt><trkpt lat="45.698328257113864" lon="-0.20939248485701709"><ele>33.0</ele><time>2026-05-01T15:22:48Z</time></trkpt><trkpt lat="45.69846734682792" lon="-0.2094531269985254"><ele>33.0</ele><time>2026-05-01T15:22:49.001Z</time></trkpt><trkpt lat="45.69857344897122" lon="-0.2094365116315752"><ele>33.0</ele><time>2026-05-01T15:22:50.001Z</time></trkpt><trkpt lat="45.6987064390544" lon="-0.20943286284777382"><ele>33.0</ele><time>2026-05-01T15:22:51.001Z</time></trkpt><trkpt lat="45.69884509808145" lon="-0.2094033810384883"><ele>32.666666666666664</ele><time>2026-05-01T15:22:52.001Z</time></trkpt><trkpt lat="45.69898964179836" lon="-0.20926082696997197"><ele>32.33333333333333</ele><time>2026-05-01T15:22:53.001Z</time></trkpt><trkpt lat="45.69916517928644" lon="-0.2091328390976641"><ele>32.0</ele><time>2026-05-01T15:22:54.001Z</time></trkpt><trkpt lat="45.69933076476639" lon="-0.20895984967146258"><ele>30.333333333333332</ele><time>2026-05-01T15:22:55.001Z</time></trkpt><trkpt lat="45.699509497877045" lon="-0.2088007339402255"><ele>28.666666666666664</ele><time>2026-05-01T15:22:56.001Z</time></trkpt><trkpt lat="45.6997045748615" lon="-0.2086643521606148"><ele>27.0</ele><time>2026-05-01T15:22:57.001Z</time></trkpt><trkpt lat="45.69992214263343" lon="-0.20854067512771796"><ele>27.0</ele><time>2026-05-01T15:22:58.001Z</time></trkpt><trkpt lat="45.700166452912" lon="-0.2084294363433461"><ele>27.0</ele><time>2026-05-01T15:22:59.001Z</time></trkpt><trkpt lat="45.70040210622609" lon="-0.2082862460654783"><ele>27.5</ele><time>2026-05-01T15:23:00.001Z</time></trkpt><trkpt lat="45.70063615813203" lon="-0.20815645900066274"><ele>28.0</ele><time>2026-05-01T15:23:01.001Z</time></trkpt><trkpt lat="45.70085587464241" lon="-0.20803820327284125"><ele>28.0</ele><time>2026-05-01T15:23:02.001Z</time></trkpt><trkpt lat="45.70106086480717" lon="-0.20793125646494548"><ele>28.0</ele><time>2026-05-01T15:23:03.001Z</time></trkpt><trkpt lat="45.701279654874156" lon="-0.20783078241429362"><ele>28.0</ele><time>2026-05-01T15:23:04.001Z</time></trkpt><trkpt lat="45.70151451147297" lon="-0.20774829414542845"><ele>27.5</ele><time>2026-05-01T15:23:05.001Z</time></trkpt><trkpt lat="45.70175335112465" lon="-0.2076818809459288"><ele>27.0</ele><time>2026-05-01T15:23:06.001Z</time></trkpt><trkpt lat="45.70197464206842" lon="-0.2075833747680636"><ele>26.0</ele><time>2026-05-01T15:23:07.001Z</time></trkpt><trkpt lat="45.70221059417967" lon="-0.20752770306698395"><ele>25.0</ele><time>2026-05-01T15:23:08.001Z</time></trkpt><trkpt lat="45.70240525543949" lon="-0.2074185509672557"><ele>24.0</ele><time>2026-05-01T15:23:09.001Z</time></trkpt><trkpt lat="45.70259351662636" lon="-0.20731266856404604"><ele>24.0</ele><time>2026-05-01T15:23:10.001Z</time></trkpt><trkpt lat="45.70277447919375" lon="-0.2071749974615553"><ele>24.0</ele><time>2026-05-01T15:23:11.001Z</time></trkpt><trkpt lat="45.70296013700337" lon="-0.20699888374652792"><ele>24.0</ele><time>2026-05-01T15:23:12.001Z</time></trkpt><trkpt lat="45.703147924369766" lon="-0.20680389490427067"><ele>24.0</ele><time>2026-05-01T15:23:13.001Z</time></trkpt><trkpt lat="45.703323881073274" lon="-0.20657997575773515"><ele>24.0</ele><time>2026-05-01T15:23:14.001Z</time></trkpt><trkpt lat="45.70348802238023" lon="-0.20637918193231594"><ele>23.666666666666668</ele><time>2026-05-01T15:23:15.001Z</time></trkpt><trkpt lat="45.703649903394464" lon="-0.20621544206381892"><ele>23.333333333333336</ele><time>2026-05-01T15:23:16.001Z</time></trkpt><trkpt lat="45.703813809631335" lon="-0.2060802925423455"><ele>23.0</ele><time>2026-05-01T15:23:17.001Z</time></trkpt><trkpt lat="45.70398072542491" lon="-0.20596968926781542"><ele>23.0</ele><time>2026-05-01T15:23:18.001Z</time></trkpt><trkpt lat="45.70416352847546" lon="-0.20590907257356017"><ele>23.0</ele><time>2026-05-01T15:23:19.001Z</time></trkpt><trkpt lat="45.704308063936246" lon="-0.20585068941563409"><ele>23.0</ele><time>2026-05-01T15:23:20.001Z</time></trkpt><trkpt lat="45.70445188691377" lon="-0.20584076554812403"><ele>23.25</ele><time>2026-05-01T15:23:21.001Z</time></trkpt><trkpt lat="45.70456628672576" lon="-0.20581264466854943"><ele>23.5</ele><time>2026-05-01T15:23:22.001Z</time></trkpt><trkpt lat="45.704632862410605" lon="-0.20581725717291008"><ele>23.75</ele><time>2026-05-01T15:23:23.001Z</time></trkpt><trkpt lat="45.70471587353756" lon="-0.2057888893371544"><ele>24.0</ele><time>2026-05-01T15:23:25.001Z</time></trkpt><trkpt lat="45.704760667724294" lon="-0.20552111001422482"><ele>24.0</ele><time>2026-05-01T15:23:27.001Z</time></trkpt><trkpt lat="45.70475998259918" lon="-0.20535894060885818"><ele>24.0</ele><time>2026-05-01T15:23:28.001Z</time></trkpt><trkpt lat="45.70475808778838" lon="-0.2051518384783125"><ele>24.0</ele><time>2026-05-01T15:23:29.001Z</time></trkpt><trkpt lat="45.70475808555124" lon="-0.20495577306602425"><ele>24.0</ele><time>2026-05-01T15:23:30.001Z</time></trkpt><trkpt lat="45.70479080025875" lon="-0.20480152300262855"><ele>24.0</ele><time>2026-05-01T15:23:31.001Z</time></trkpt><trkpt lat="45.70484057777672" lon="-0.20465228444276318"><ele>24.0</ele><time>2026-05-01T15:23:32.001Z</time></trkpt><trkpt lat="45.704914492010346" lon="-0.20451243162457053"><ele>24.0</ele><time>2026-05-01T15:23:33.001Z</time></trkpt><trkpt lat="45.704991158142626" lon="-0.20440685998447763"><ele>24.0</ele><time>2026-05-01T15:23:34.001Z</time></trkpt><trkpt lat="45.705093934512156" lon="-0.20432523757031412"><ele>24.0</ele><time>2026-05-01T15:23:35.001Z</time></trkpt><trkpt lat="45.70521503682447" lon="-0.20425900687950185"><ele>24.0</ele><time>2026-05-01T15:23:36.001Z</time></trkpt><trkpt lat="45.70538855937916" lon="-0.20416889653243045"><ele>24.0</ele><time>2026-05-01T15:23:37.001Z</time></trkpt><trkpt lat="45.70556071882877" lon="-0.204077203746292"><ele>24.5</ele><time>2026-05-01T15:23:38.001Z</time></trkpt><trkpt lat="45.70571976339731" lon="-0.203964716547097"><ele>25.0</ele><time>2026-05-01T15:23:39.001Z</time></trkpt><trkpt lat="45.70585324057561" lon="-0.20386716995343657"><ele>25.5</ele><time>2026-05-01T15:23:40.001Z</time></trkpt><trkpt lat="45.7059479272192" lon="-0.20378683439852835"><ele>26.0</ele><time>2026-05-01T15:23:41.001Z</time></trkpt><trkpt lat="45.70601227066083" lon="-0.20371833498802708"><ele>26.0</ele><time>2026-05-01T15:23:42.001Z</time></trkpt><trkpt lat="45.70606188422709" lon="-0.2035604132758103"><ele>26.0</ele><time>2026-05-01T15:23:44.001Z</time></trkpt><trkpt lat="45.70603035463087" lon="-0.2032768804147386"><ele>26.0</ele><time>2026-05-01T15:23:46.001Z</time></trkpt><trkpt lat="45.70602111790544" lon="-0.2031119565202431"><ele>26.0</ele><time>2026-05-01T15:23:47.001Z</time></trkpt><trkpt lat="45.706031744694485" lon="-0.2029755222490196"><ele>26.0</ele><time>2026-05-01T15:23:48.001Z</time></trkpt><trkpt lat="45.70606993313137" lon="-0.2028592205547009"><ele>26.0</ele><time>2026-05-01T15:23:49.001Z</time></trkpt><trkpt lat="45.70611956514325" lon="-0.2027313661302411"><ele>26.0</ele><time>2026-05-01T15:23:50.001Z</time></trkpt><trkpt lat="45.70619098043234" lon="-0.20262177868124634"><ele>26.0</ele><time>2026-05-01T15:23:51.001Z</time></trkpt><trkpt lat="45.70627308586774" lon="-0.20251200416393086"><ele>26.0</ele><time>2026-05-01T15:23:52.001Z</time></trkpt><trkpt lat="45.706360145563764" lon="-0.20241392479876383"><ele>26.0</ele><time>2026-05-01T15:23:53.001Z</time></trkpt><trkpt lat="45.70646342513561" lon="-0.2023123965760534"><ele>26.0</ele><time>2026-05-01T15:23:54.001Z</time></trkpt><trkpt lat="45.70657720933141" lon="-0.2022213438010003"><ele>26.0</ele><time>2026-05-01T15:23:55.001Z</time></trkpt><trkpt lat="45.706689598830856" lon="-0.20212703867066964"><ele>26.0</ele><time>2026-05-01T15:23:56.001Z</time></trkpt><trkpt lat="45.70679596555344" lon="-0.2020304380625265"><ele>26.0</ele><time>2026-05-01T15:23:57.001Z</time></trkpt><trkpt lat="45.70687511894954" lon="-0.20188561438042893"><ele>26.0</ele><time>2026-05-01T15:23:58.001Z</time></trkpt><trkpt lat="45.70696720865585" lon="-0.20177619400925229"><ele>26.0</ele><time>2026-05-01T15:23:59.001Z</time></trkpt><trkpt lat="45.7070410417443" lon="-0.20167142321285275"><ele>26.0</ele><time>2026-05-01T15:24:00.001Z</time></trkpt><trkpt lat="45.70711539078265" lon="-0.2015526699713344"><ele>26.4</ele><time>2026-05-01T15:24:01.001Z</time></trkpt><trkpt lat="45.70717403323619" lon="-0.20143977490363907"><ele>26.8</ele><time>2026-05-01T15:24:02.001Z</time></trkpt><trkpt lat="45.70722132829967" lon="-0.20133268087996722"><ele>27.199999999999996</ele><time>2026-05-01T15:24:03.001Z</time></trkpt><trkpt lat="45.707247945841104" lon="-0.20124131398254627"><ele>27.599999999999998</ele><time>2026-05-01T15:24:05.001Z</time></trkpt><trkpt lat="45.70727966543139" lon="-0.20115858789769658"><ele>28.0</ele><time>2026-05-01T15:24:10.002Z</time></trkpt><trkpt lat="45.70742919178301" lon="-0.20119819527656327"><ele>28.0</ele><time>2026-05-01T15:24:11.002Z</time></trkpt><trkpt lat="45.7074501515214" lon="-0.20084949714768435"><ele>28.0</ele><time>2026-05-01T15:24:14.002Z</time></trkpt><trkpt lat="45.70744291774953" lon="-0.20062237685959536"><ele>28.0</ele><time>2026-05-01T15:24:15.002Z</time></trkpt><trkpt lat="45.7074606665343" lon="-0.20037528354096198"><ele>28.0</ele><time>2026-05-01T15:24:16.002Z</time></trkpt><trkpt lat="45.70747605199125" lon="-0.2001352361182341"><ele>28.0</ele><time>2026-05-01T15:24:17.002Z</time></trkpt><trkpt lat="45.7075128870911" lon="-0.19976997194908475"><ele>28.0</ele><time>2026-05-01T15:24:19Z</time></trkpt><trkpt lat="45.70752348483128" lon="-0.19967607824276407"><ele>27.75</ele><time>2026-05-01T15:24:20Z</time></trkpt><trkpt lat="45.707534255294654" lon="-0.1995806541712563"><ele>27.5</ele><time>2026-05-01T15:24:21Z</time></trkpt><trkpt lat="45.707691388119954" lon="-0.1994814382335742"><ele>27.25</ele><time>2026-05-01T15:24:22Z</time></trkpt><trkpt lat="45.707826834062836" lon="-0.19939285046248043"><ele>27.0</ele><time>2026-05-01T15:24:23Z</time></trkpt><trkpt lat="45.70795235919723" lon="-0.1993136973315241"><ele>27.75</ele><time>2026-05-01T15:24:24Z</time></trkpt><trkpt lat="45.70807371385478" lon="-0.19923187149485838"><ele>28.5</ele><time>2026-05-01T15:24:25Z</time></trkpt><trkpt lat="45.70817884751844" lon="-0.19915830450042196"><ele>29.25</ele><time>2026-05-01T15:24:26Z</time></trkpt><trkpt lat="45.70827437996313" lon="-0.19908875489727665"><ele>30.0</ele><time>2026-05-01T15:24:27Z</time></trkpt><trkpt lat="45.708357446082275" lon="-0.19902918665713773"><ele>29.833333333333332</ele><time>2026-05-01T15:24:28Z</time></trkpt><trkpt lat="45.708438226913536" lon="-0.19897285839438855"><ele>29.666666666666664</ele><time>2026-05-01T15:24:29Z</time></trkpt><trkpt lat="45.70851661275111" lon="-0.1989140362794147"><ele>29.5</ele><time>2026-05-01T15:24:30Z</time></trkpt><trkpt lat="45.70859228194846" lon="-0.19884966726253303"><ele>29.333333333333332</ele><time>2026-05-01T15:24:31Z</time></trkpt><trkpt lat="45.7086458548504" lon="-0.19876583662772843"><ele>29.166666666666664</ele><time>2026-05-01T15:24:32Z</time></trkpt><trkpt lat="45.70870762098584" lon="-0.19866690019248778"><ele>29.0</ele><time>2026-05-01T15:24:33Z</time></trkpt><trkpt lat="45.70876757986874" lon="-0.1985535821609141"><ele>29.4</ele><time>2026-05-01T15:24:34Z</time></trkpt><trkpt lat="45.70881954600472" lon="-0.198440616582311"><ele>29.799999999999997</ele><time>2026-05-01T15:24:35Z</time></trkpt><trkpt lat="45.70886844842573" lon="-0.19831750715051769"><ele>30.200000000000003</ele><time>2026-05-01T15:24:36Z</time></trkpt><trkpt lat="45.70892623916768" lon="-0.19817003985533468"><ele>30.6</ele><time>2026-05-01T15:24:37Z</time></trkpt><trkpt lat="45.70895761103975" lon="-0.19802922959499075"><ele>31.0</ele><time>2026-05-01T15:24:38Z</time></trkpt><trkpt lat="45.708977347262824" lon="-0.19787737388209511"><ele>31.0</ele><time>2026-05-01T15:24:39Z</time></trkpt><trkpt lat="45.709020869855756" lon="-0.1977297391277473"><ele>31.0</ele><time>2026-05-01T15:24:40Z</time></trkpt><trkpt lat="45.70907772915408" lon="-0.19760082404460932"><ele>31.0</ele><time>2026-05-01T15:24:41Z</time></trkpt><trkpt lat="45.7091420718014" lon="-0.19748932233275118"><ele>31.0</ele><time>2026-05-01T15:24:42Z</time></trkpt><trkpt lat="45.70921127633838" lon="-0.19737878571041753"><ele>31.0</ele><time>2026-05-01T15:24:43Z</time></trkpt><trkpt lat="45.70926585424415" lon="-0.19726977801730347"><ele>31.0</ele><time>2026-05-01T15:24:44Z</time></trkpt><trkpt lat="45.709318185325486" lon="-0.1971514087243236"><ele>31.0</ele><time>2026-05-01T15:24:45Z</time></trkpt><trkpt lat="45.7093567244275" lon="-0.19700974222140236"><ele>31.0</ele><time>2026-05-01T15:24:46Z</time></trkpt><trkpt lat="45.70940515706267" lon="-0.19687195493362183"><ele>31.0</ele><time>2026-05-01T15:24:47Z</time></trkpt><trkpt lat="45.70945369819479" lon="-0.19673347395448085"><ele>31.0</ele><time>2026-05-01T15:24:48Z</time></trkpt><trkpt lat="45.7095034680722" lon="-0.1965768965139239"><ele>30.75</ele><time>2026-05-01T15:24:49Z</time></trkpt><trkpt lat="45.7095481736093" lon="-0.19641743214661161"><ele>30.5</ele><time>2026-05-01T15:24:50Z</time></trkpt><trkpt lat="45.70959476625397" lon="-0.19625714469607072"><ele>30.25</ele><time>2026-05-01T15:24:51Z</time></trkpt><trkpt lat="45.70966506868503" lon="-0.19608324836232602"><ele>30.0</ele><time>2026-05-01T15:24:52Z</time></trkpt><trkpt lat="45.70970641595601" lon="-0.195891876397304"><ele>30.0</ele><time>2026-05-01T15:24:53Z</time></trkpt><trkpt lat="45.70978005629853" lon="-0.19571412878542505"><ele>30.0</ele><time>2026-05-01T15:24:54Z</time></trkpt><trkpt lat="45.70982708496298" lon="-0.19553428793900454"><ele>30.0</ele><time>2026-05-01T15:24:55Z</time></trkpt><trkpt lat="45.70990444688322" lon="-0.19538919135726923"><ele>30.0</ele><time>2026-05-01T15:24:56Z</time></trkpt><trkpt lat="45.709972394472004" lon="-0.19522126897078168"><ele>30.0</ele><time>2026-05-01T15:24:57Z</time></trkpt><trkpt lat="45.71006525882217" lon="-0.19506709583661072"><ele>30.0</ele><time>2026-05-01T15:24:58Z</time></trkpt><trkpt lat="45.71016281950835" lon="-0.19492329981786535"><ele>30.0</ele><time>2026-05-01T15:24:59Z</time></trkpt><trkpt lat="45.71026547532519" lon="-0.19480010566456132"><ele>30.0</ele><time>2026-05-01T15:25:00Z</time></trkpt><trkpt lat="45.71038137645117" lon="-0.19469632908197335"><ele>30.0</ele><time>2026-05-01T15:25:01.001Z</time></trkpt><trkpt lat="45.710501693040044" lon="-0.19462953718967205"><ele>30.0</ele><time>2026-05-01T15:25:02.001Z</time></trkpt><trkpt lat="45.71063280771575" lon="-0.1946208538302171"><ele>30.0</ele><time>2026-05-01T15:25:03.001Z</time></trkpt><trkpt lat="45.710760276796876" lon="-0.19457429940780263"><ele>30.0</ele><time>2026-05-01T15:25:04.001Z</time></trkpt><trkpt lat="45.710895933348745" lon="-0.19456360253014368"><ele>30.0</ele><time>2026-05-01T15:25:05.001Z</time></trkpt><trkpt lat="45.71102710590699" lon="-0.19455766242998332"><ele>30.0</ele><time>2026-05-01T15:25:06.001Z</time></trkpt><trkpt lat="45.71116086964598" lon="-0.19455683934149534"><ele>30.0</ele><time>2026-05-01T15:25:07.001Z</time></trkpt><trkpt lat="45.7112865919346" lon="-0.1945606746513008"><ele>30.0</ele><time>2026-05-01T15:25:08.001Z</time></trkpt><trkpt lat="45.711399673935965" lon="-0.19455111014598084"><ele>30.25</ele><time>2026-05-01T15:25:09.001Z</time></trkpt><trkpt lat="45.71149043379322" lon="-0.1944277732621893"><ele>30.5</ele><time>2026-05-01T15:25:10.001Z</time></trkpt><trkpt lat="45.71157878305649" lon="-0.19430864152129257"><ele>30.75</ele><time>2026-05-01T15:25:11.001Z</time></trkpt><trkpt lat="45.71164335722118" lon="-0.19415887457758232"><ele>31.0</ele><time>2026-05-01T15:25:12.001Z</time></trkpt><trkpt lat="45.711683731361795" lon="-0.19400000845654838"><ele>31.25</ele><time>2026-05-01T15:25:13.001Z</time></trkpt><trkpt lat="45.71171643629231" lon="-0.19382865242914324"><ele>31.5</ele><time>2026-05-01T15:25:14.001Z</time></trkpt><trkpt lat="45.711738434841905" lon="-0.19364974990032527"><ele>31.75</ele><time>2026-05-01T15:25:15.001Z</time></trkpt><trkpt lat="45.71176249898323" lon="-0.19344962533142715"><ele>32.0</ele><time>2026-05-01T15:25:16.001Z</time></trkpt><trkpt lat="45.711779249415606" lon="-0.19324159000550759"><ele>32.0</ele><time>2026-05-01T15:25:17.001Z</time></trkpt><trkpt lat="45.7117828245176" lon="-0.19302961577109654"><ele>32.0</ele><time>2026-05-01T15:25:18.001Z</time></trkpt><trkpt lat="45.711781022740055" lon="-0.19280567472265206"><ele>32.0</ele><time>2026-05-01T15:25:19.001Z</time></trkpt><trkpt lat="45.71177855209091" lon="-0.19258458016860602"><ele>32.0</ele><time>2026-05-01T15:25:20.001Z</time></trkpt><trkpt lat="45.71181001899957" lon="-0.1923862935873297"><ele>32.0</ele><time>2026-05-01T15:25:21.001Z</time></trkpt><trkpt lat="45.71184045451148" lon="-0.19219442152287736"><ele>32.0</ele><time>2026-05-01T15:25:22.001Z</time></trkpt><trkpt lat="45.711873945399546" lon="-0.19199817695970514"><ele>32.0</ele><time>2026-05-01T15:25:23.001Z</time></trkpt><trkpt lat="45.711918311143386" lon="-0.1918294975475207"><ele>32.0</ele><time>2026-05-01T15:25:24.001Z</time></trkpt><trkpt lat="45.71194822513095" lon="-0.19168182852573104"><ele>32.0</ele><time>2026-05-01T15:25:25.001Z</time></trkpt><trkpt lat="45.711966976062975" lon="-0.19156009034738047"><ele>32.0</ele><time>2026-05-01T15:25:26.001Z</time></trkpt><trkpt lat="45.71197858893603" lon="-0.191463645291145"><ele>32.0</ele><time>2026-05-01T15:25:27.001Z</time></trkpt><trkpt lat="45.71200733518082" lon="-0.19130322326007035"><ele>32.0</ele><time>2026-05-01T15:25:29.001Z</time></trkpt><trkpt lat="45.71204343869067" lon="-0.1911682936217066"><ele>32.33333333333333</ele><time>2026-05-01T15:25:31.001Z</time></trkpt><trkpt lat="45.712073554054804" lon="-0.19105770959227292"><ele>32.666666666666664</ele><time>2026-05-01T15:25:32.001Z</time></trkpt><trkpt lat="45.71232471852832" lon="-0.19102424040844238"><ele>33.0</ele><time>2026-05-01T15:25:33.001Z</time></trkpt><trkpt lat="45.712473409550846" lon="-0.1909134070626294"><ele>33.0</ele><time>2026-05-01T15:25:34.001Z</time></trkpt><trkpt lat="45.71261307376149" lon="-0.1907996291401231"><ele>33.0</ele><time>2026-05-01T15:25:35.001Z</time></trkpt><trkpt lat="45.71273072269844" lon="-0.19069429209580568"><ele>33.0</ele><time>2026-05-01T15:25:36.001Z</time></trkpt><trkpt lat="45.71283296040792" lon="-0.19059874773706986"><ele>33.0</ele><time>2026-05-01T15:25:37.001Z</time></trkpt><trkpt lat="45.71292925233977" lon="-0.19049011388194162"><ele>33.0</ele><time>2026-05-01T15:25:38.001Z</time></trkpt><trkpt lat="45.713028821398886" lon="-0.19037791476068924"><ele>33.0</ele><time>2026-05-01T15:25:39.001Z</time></trkpt><trkpt lat="45.71311500576428" lon="-0.1902641336025154"><ele>33.0</ele><time>2026-05-01T15:25:40.001Z</time></trkpt><trkpt lat="45.71319012470916" lon="-0.19014554486312782"><ele>33.0</ele><time>2026-05-01T15:25:41.001Z</time></trkpt><trkpt lat="45.71325721136848" lon="-0.19000310286011374"><ele>33.0</ele><time>2026-05-01T15:25:42.001Z</time></trkpt><trkpt lat="45.7133278488406" lon="-0.18983845357074422"><ele>33.0</ele><time>2026-05-01T15:25:43.001Z</time></trkpt><trkpt lat="45.713422493725865" lon="-0.1896657892898694"><ele>33.0</ele><time>2026-05-01T15:25:44.001Z</time></trkpt><trkpt lat="45.71353662105589" lon="-0.18950773319401315"><ele>33.0</ele><time>2026-05-01T15:25:45.001Z</time></trkpt><trkpt lat="45.71364060771223" lon="-0.18936828740817083"><ele>33.0</ele><time>2026-05-01T15:25:46.001Z</time></trkpt><trkpt lat="45.71373779602719" lon="-0.18923332393471468"><ele>33.0</ele><time>2026-05-01T15:25:47.001Z</time></trkpt><trkpt lat="45.71383656753523" lon="-0.1890778475597206"><ele>33.0</ele><time>2026-05-01T15:25:48.001Z</time></trkpt><trkpt lat="45.71394014239641" lon="-0.18893022114244706"><ele>33.0</ele><time>2026-05-01T15:25:49.001Z</time></trkpt><trkpt lat="45.714042661375366" lon="-0.18876794160180105"><ele>33.0</ele><time>2026-05-01T15:25:50.001Z</time></trkpt><trkpt lat="45.71415804899816" lon="-0.1885961826493967"><ele>33.0</ele><time>2026-05-01T15:25:51.001Z</time></trkpt><trkpt lat="45.71427486282881" lon="-0.1884149439075509"><ele>33.0</ele><time>2026-05-01T15:25:52.001Z</time></trkpt><trkpt lat="45.714397013891144" lon="-0.1882430153265911"><ele>32.666666666666664</ele><time>2026-05-01T15:25:53.001Z</time></trkpt><trkpt lat="45.714502664997504" lon="-0.18808584791962302"><ele>32.33333333333333</ele><time>2026-05-01T15:25:54.001Z</time></trkpt><trkpt lat="45.7146195373152" lon="-0.1879355404250378"><ele>32.0</ele><time>2026-05-01T15:25:55.001Z</time></trkpt><trkpt lat="45.714740177429505" lon="-0.18779891073832333"><ele>32.0</ele><time>2026-05-01T15:25:56.001Z</time></trkpt><trkpt lat="45.71485689043344" lon="-0.1876635287718895"><ele>32.0</ele><time>2026-05-01T15:25:57.001Z</time></trkpt><trkpt lat="45.71497130750707" lon="-0.18753909281762124"><ele>32.0</ele><time>2026-05-01T15:25:58.001Z</time></trkpt><trkpt lat="45.71509708610896" lon="-0.18741603942673163"><ele>32.0</ele><time>2026-05-01T15:25:59.001Z</time></trkpt><trkpt lat="45.71522303701899" lon="-0.18728148845432432"><ele>32.0</ele><time>2026-05-01T15:26:00.001Z</time></trkpt><trkpt lat="45.715322948044296" lon="-0.18714883529684095"><ele>32.0</ele><time>2026-05-01T15:26:01.001Z</time></trkpt><trkpt lat="45.715418896777834" lon="-0.18700500243132978"><ele>32.0</ele><time>2026-05-01T15:26:02.001Z</time></trkpt><trkpt lat="45.715509511813565" lon="-0.18684548266659523"><ele>32.0</ele><time>2026-05-01T15:26:03.001Z</time></trkpt><trkpt lat="45.71559452745572" lon="-0.18668424482337534"><ele>32.0</ele><time>2026-05-01T15:26:04.001Z</time></trkpt><trkpt lat="45.715677151206606" lon="-0.186517925060608"><ele>32.0</ele><time>2026-05-01T15:26:05.001Z</time></trkpt><trkpt lat="45.71576659372592" lon="-0.18633427395693258"><ele>32.0</ele><time>2026-05-01T15:26:06.001Z</time></trkpt><trkpt lat="45.715866156533075" lon="-0.1861442135742778"><ele>32.0</ele><time>2026-05-01T15:26:07.001Z</time></trkpt><trkpt lat="45.71595894958249" lon="-0.18600104754936062"><ele>32.0</ele><time>2026-05-01T15:26:08.001Z</time></trkpt><trkpt lat="45.71604667085728" lon="-0.1858605362145275"><ele>32.0</ele><time>2026-05-01T15:26:09.001Z</time></trkpt><trkpt lat="45.716131545343046" lon="-0.1857306361788103"><ele>32.0</ele><time>2026-05-01T15:26:10.001Z</time></trkpt><trkpt lat="45.716219065765664" lon="-0.1856034525203697"><ele>32.25</ele><time>2026-05-01T15:26:11.001Z</time></trkpt><trkpt lat="45.71632356141227" lon="-0.18547914931363632"><ele>32.5</ele><time>2026-05-01T15:26:12.001Z</time></trkpt><trkpt lat="45.7164363049747" lon="-0.185351304812515"><ele>32.75</ele><time>2026-05-01T15:26:13.001Z</time></trkpt><trkpt lat="45.71655309133326" lon="-0.18523208374629285"><ele>33.0</ele><time>2026-05-01T15:26:14.001Z</time></trkpt><trkpt lat="45.716669218869114" lon="-0.18510935246823151"><ele>33.0</ele><time>2026-05-01T15:26:15.001Z</time></trkpt><trkpt lat="45.71677874525856" lon="-0.18498391562157432"><ele>33.0</ele><time>2026-05-01T15:26:16.001Z</time></trkpt><trkpt lat="45.716887775833094" lon="-0.18483015016592755"><ele>33.0</ele><time>2026-05-01T15:26:17.001Z</time></trkpt><trkpt lat="45.716986552213044" lon="-0.1846702728366242"><ele>33.0</ele><time>2026-05-01T15:26:18.001Z</time></trkpt><trkpt lat="45.71708875668282" lon="-0.18449929134872492"><ele>33.0</ele><time>2026-05-01T15:26:19.001Z</time></trkpt><trkpt lat="45.7171892003274" lon="-0.18433457757056027"><ele>33.0</ele><time>2026-05-01T15:26:20.001Z</time></trkpt><trkpt lat="45.71727723226696" lon="-0.1841701557866471"><ele>33.0</ele><time>2026-05-01T15:26:21.001Z</time></trkpt><trkpt lat="45.71736690348862" lon="-0.18401771270952452"><ele>33.0</ele><time>2026-05-01T15:26:22.002Z</time></trkpt><trkpt lat="45.7174515092743" lon="-0.18388012775243207"><ele>33.0</ele><time>2026-05-01T15:26:23.002Z</time></trkpt><trkpt lat="45.71752978370779" lon="-0.1837455415028949"><ele>33.0</ele><time>2026-05-01T15:26:24.002Z</time></trkpt><trkpt lat="45.717619257368895" lon="-0.1836010461324309"><ele>33.0</ele><time>2026-05-01T15:26:25Z</time></trkpt><trkpt lat="45.71768876602413" lon="-0.18347448982333758"><ele>33.0</ele><time>2026-05-01T15:26:26Z</time></trkpt><trkpt lat="45.71773970756022" lon="-0.18336502158450368"><ele>33.0</ele><time>2026-05-01T15:26:27Z</time></trkpt><trkpt lat="45.71776241625975" lon="-0.1832693192815317"><ele>33.0</ele><time>2026-05-01T15:26:28Z</time></trkpt><trkpt lat="45.717768584361295" lon="-0.1831420707639692"><ele>33.0</ele><time>2026-05-01T15:26:29Z</time></trkpt><trkpt lat="45.71774823706323" lon="-0.18297423846824587"><ele>33.0</ele><time>2026-05-01T15:26:30Z</time></trkpt><trkpt lat="45.71770102460551" lon="-0.1827443799933413"><ele>33.0</ele><time>2026-05-01T15:26:31Z</time></trkpt><trkpt lat="45.71764879822285" lon="-0.1824853522936888"><ele>33.666666666666664</ele><time>2026-05-01T15:26:32Z</time></trkpt><trkpt lat="45.717593096893296" lon="-0.18219766147715483"><ele>34.33333333333333</ele><time>2026-05-01T15:26:33Z</time></trkpt><trkpt lat="45.71755007825042" lon="-0.18192396135524133"><ele>35.0</ele><time>2026-05-01T15:26:34Z</time></trkpt><trkpt lat="45.71750788945708" lon="-0.18169729397569018"><ele>35.2</ele><time>2026-05-01T15:26:35Z</time></trkpt><trkpt lat="45.71747635606876" lon="-0.18151056320949177"><ele>35.4</ele><time>2026-05-01T15:26:36Z</time></trkpt><trkpt lat="45.71745153363577" lon="-0.1813749925599696"><ele>35.6</ele><time>2026-05-01T15:26:37Z</time></trkpt><trkpt lat="45.7174347223468" lon="-0.18127917421619882"><ele>35.8</ele><time>2026-05-01T15:26:38Z</time></trkpt><trkpt lat="45.71742891037286" lon="-0.1811675351703171"><ele>36.0</ele><time>2026-05-01T15:26:40Z</time></trkpt><trkpt lat="45.71751065029547" lon="-0.18110242754405279"><ele>36.0</ele><time>2026-05-01T15:26:42Z</time></trkpt><trkpt lat="45.717582814257916" lon="-0.18102495084186823"><ele>36.0</ele><time>2026-05-01T15:26:43Z</time></trkpt><trkpt lat="45.717703213819206" lon="-0.18099222551596422"><ele>36.0</ele><time>2026-05-01T15:26:44Z</time></trkpt><trkpt lat="45.71784671435137" lon="-0.18095439471188307"><ele>36.0</ele><time>2026-05-01T15:26:45Z</time></trkpt><trkpt lat="45.718017021063034" lon="-0.18090762549396033"><ele>36.0</ele><time>2026-05-01T15:26:46Z</time></trkpt><trkpt lat="45.71822523644136" lon="-0.18086161106464074"><ele>36.0</ele><time>2026-05-01T15:26:47Z</time></trkpt><trkpt lat="45.71845464782598" lon="-0.18082924264017622"><ele>36.0</ele><time>2026-05-01T15:26:48Z</time></trkpt><trkpt lat="45.71869241039671" lon="-0.18080528659362174"><ele>36.0</ele><time>2026-05-01T15:26:49Z</time></trkpt><trkpt lat="45.71890918862249" lon="-0.18078971396471735"><ele>36.0</ele><time>2026-05-01T15:26:50Z</time></trkpt><trkpt lat="45.71910731285379" lon="-0.18079692067696096"><ele>36.0</ele><time>2026-05-01T15:26:51Z</time></trkpt><trkpt lat="45.7192811167911" lon="-0.18081833912425088"><ele>36.666666666666664</ele><time>2026-05-01T15:26:52Z</time></trkpt><trkpt lat="45.71944710563302" lon="-0.1808426449023624"><ele>37.33333333333333</ele><time>2026-05-01T15:26:53Z</time></trkpt><trkpt lat="45.719602127393756" lon="-0.18086401712491007"><ele>38.0</ele><time>2026-05-01T15:26:54Z</time></trkpt><trkpt lat="45.719742312659704" lon="-0.1808765288971899"><ele>38.0</ele><time>2026-05-01T15:26:55Z</time></trkpt><trkpt lat="45.71986634283605" lon="-0.1808809217891997"><ele>38.0</ele><time>2026-05-01T15:26:56Z</time></trkpt><trkpt lat="45.719966419661084" lon="-0.18087744757861454"><ele>38.0</ele><time>2026-05-01T15:26:57Z</time></trkpt><trkpt lat="45.72004217057861" lon="-0.18086999290327538"><ele>38.0</ele><time>2026-05-01T15:26:58Z</time></trkpt><trkpt lat="45.72011036582713" lon="-0.18081695388379912"><ele>38.0</ele><time>2026-05-01T15:27:00Z</time></trkpt><trkpt lat="45.720297857743816" lon="-0.18034647432914677"><ele>38.0</ele><time>2026-05-01T15:27:03Z</time></trkpt><trkpt lat="45.72039292535304" lon="-0.1801552919918754"><ele>38.0</ele><time>2026-05-01T15:27:04Z</time></trkpt><trkpt lat="45.72050989138508" lon="-0.1799370864295219"><ele>38.0</ele><time>2026-05-01T15:27:05Z</time></trkpt><trkpt lat="45.72061535223297" lon="-0.17972470460212447"><ele>37.5</ele><time>2026-05-01T15:27:06Z</time></trkpt><trkpt lat="45.72070004493063" lon="-0.1795496035979259"><ele>37.0</ele><time>2026-05-01T15:27:07Z</time></trkpt><trkpt lat="45.720784127121966" lon="-0.17938914954043966"><ele>36.5</ele><time>2026-05-01T15:27:08Z</time></trkpt><trkpt lat="45.7208813663156" lon="-0.1792196079358293"><ele>36.0</ele><time>2026-05-01T15:27:09Z</time></trkpt><trkpt lat="45.72099456272559" lon="-0.1790395379798819"><ele>36.5</ele><time>2026-05-01T15:27:10Z</time></trkpt><trkpt lat="45.7211011927986" lon="-0.17889683309860144"><ele>37.0</ele><time>2026-05-01T15:27:11Z</time></trkpt><trkpt lat="45.72121096363251" lon="-0.1787659167808415"><ele>37.5</ele><time>2026-05-01T15:27:12Z</time></trkpt><trkpt lat="45.72133160063304" lon="-0.17862844213018508"><ele>38.0</ele><time>2026-05-01T15:27:13Z</time></trkpt><trkpt lat="45.72145717518135" lon="-0.17847883341411006"><ele>38.0</ele><time>2026-05-01T15:27:14Z</time></trkpt><trkpt lat="45.72159296973882" lon="-0.178292930708951"><ele>38.0</ele><time>2026-05-01T15:27:15Z</time></trkpt><trkpt lat="45.721716236926255" lon="-0.17810125413412226"><ele>38.0</ele><time>2026-05-01T15:27:16Z</time></trkpt><trkpt lat="45.72183305311754" lon="-0.1779145865796192"><ele>38.0</ele><time>2026-05-01T15:27:17Z</time></trkpt><trkpt lat="45.721937590129784" lon="-0.1777422335517106"><ele>38.0</ele><time>2026-05-01T15:27:18Z</time></trkpt><trkpt lat="45.72202926963615" lon="-0.17758459261701678"><ele>38.0</ele><time>2026-05-01T15:27:19.001Z</time></trkpt><trkpt lat="45.722113863527184" lon="-0.17743733771620293"><ele>38.0</ele><time>2026-05-01T15:27:20.001Z</time></trkpt><trkpt lat="45.72220419076159" lon="-0.17728630342357163"><ele>39.0</ele><time>2026-05-01T15:27:21.001Z</time></trkpt><trkpt lat="45.7223073050883" lon="-0.1771217562360087"><ele>40.0</ele><time>2026-05-01T15:27:22.001Z</time></trkpt><trkpt lat="45.722418491265564" lon="-0.17694982278026722"><ele>41.0</ele><time>2026-05-01T15:27:23.001Z</time></trkpt><trkpt lat="45.72250928557514" lon="-0.1768025534945107"><ele>41.0</ele><time>2026-05-01T15:27:24.001Z</time></trkpt><trkpt lat="45.72259758678207" lon="-0.17667250434946372"><ele>41.0</ele><time>2026-05-01T15:27:25.001Z</time></trkpt><trkpt lat="45.72267412076904" lon="-0.17655323876891002"><ele>41.0</ele><time>2026-05-01T15:27:26.001Z</time></trkpt><trkpt lat="45.72273068923072" lon="-0.1764473952782285"><ele>41.0</ele><time>2026-05-01T15:27:27.001Z</time></trkpt><trkpt lat="45.722766644867896" lon="-0.1763200750089297"><ele>41.0</ele><time>2026-05-01T15:27:28.001Z</time></trkpt><trkpt lat="45.72280695123814" lon="-0.17616087203490013"><ele>42.0</ele><time>2026-05-01T15:27:29.001Z</time></trkpt><trkpt lat="45.72286092304377" lon="-0.17599740641400885"><ele>43.0</ele><time>2026-05-01T15:27:30.001Z</time></trkpt><trkpt lat="45.722919865560826" lon="-0.17584326809938602"><ele>44.0</ele><time>2026-05-01T15:27:31.001Z</time></trkpt><trkpt lat="45.722981364781596" lon="-0.17569939194512568"><ele>45.0</ele><time>2026-05-01T15:27:32.001Z</time></trkpt><trkpt lat="45.723037371102556" lon="-0.17558285342218946"><ele>45.25</ele><time>2026-05-01T15:27:33.001Z</time></trkpt><trkpt lat="45.72309009188796" lon="-0.17544959997536663"><ele>45.5</ele><time>2026-05-01T15:27:34.001Z</time></trkpt><trkpt lat="45.72316251041567" lon="-0.17529638937357278"><ele>45.75</ele><time>2026-05-01T15:27:35.001Z</time></trkpt><trkpt lat="45.72322979934351" lon="-0.17515012470274385"><ele>46.0</ele><time>2026-05-01T15:27:36.001Z</time></trkpt><trkpt lat="45.72330518761819" lon="-0.17498844538021885"><ele>45.75</ele><time>2026-05-01T15:27:37.001Z</time></trkpt><trkpt lat="45.72339071875718" lon="-0.17485278350352762"><ele>45.5</ele><time>2026-05-01T15:27:38.001Z</time></trkpt><trkpt lat="45.723473066740596" lon="-0.17471216645726245"><ele>45.25</ele><time>2026-05-01T15:27:39.001Z</time></trkpt><trkpt lat="45.723554315205604" lon="-0.17456557066748327"><ele>45.0</ele><time>2026-05-01T15:27:40.001Z</time></trkpt><trkpt lat="45.72363761485983" lon="-0.17443129823116843"><ele>45.0</ele><time>2026-05-01T15:27:41.001Z</time></trkpt><trkpt lat="45.72373642677088" lon="-0.1743245336885343"><ele>45.0</ele><time>2026-05-01T15:27:42.001Z</time></trkpt><trkpt lat="45.723837933163736" lon="-0.17421391667241828"><ele>45.0</ele><time>2026-05-01T15:27:43.001Z</time></trkpt><trkpt lat="45.72396070432252" lon="-0.1740833065977741"><ele>45.0</ele><time>2026-05-01T15:27:44.001Z</time></trkpt><trkpt lat="45.724084819581144" lon="-0.17395883647815227"><ele>45.0</ele><time>2026-05-01T15:27:45.001Z</time></trkpt><trkpt lat="45.7241809263842" lon="-0.17382709770477572"><ele>45.0</ele><time>2026-05-01T15:27:46.001Z</time></trkpt><trkpt lat="45.72427163848111" lon="-0.1736877342739938"><ele>45.0</ele><time>2026-05-01T15:27:47.001Z</time></trkpt><trkpt lat="45.72436677111308" lon="-0.17352331401473237"><ele>45.0</ele><time>2026-05-01T15:27:48.001Z</time></trkpt><trkpt lat="45.72446007271882" lon="-0.17336647531884336"><ele>45.0</ele><time>2026-05-01T15:27:49.001Z</time></trkpt><trkpt lat="45.724529191093076" lon="-0.17321553246036278"><ele>45.0</ele><time>2026-05-01T15:27:50.001Z</time></trkpt><trkpt lat="45.724586105120544" lon="-0.17310268836413398"><ele>45.0</ele><time>2026-05-01T15:27:51.001Z</time></trkpt><trkpt lat="45.72463859647134" lon="-0.17300148664553774"><ele>45.0</ele><time>2026-05-01T15:27:52.001Z</time></trkpt><trkpt lat="45.72469348522537" lon="-0.1728857496056936"><ele>45.0</ele><time>2026-05-01T15:27:53.001Z</time></trkpt><trkpt lat="45.72474574840891" lon="-0.17270991026844448"><ele>46.0</ele><time>2026-05-01T15:27:54.001Z</time></trkpt><trkpt lat="45.724799867020685" lon="-0.1725172525619709"><ele>47.0</ele><time>2026-05-01T15:27:55.001Z</time></trkpt><trkpt lat="45.72487847712311" lon="-0.17231352682779827"><ele>48.0</ele><time>2026-05-01T15:27:56.001Z</time></trkpt><trkpt lat="45.724976266662196" lon="-0.17209554603050212"><ele>48.33333333333333</ele><time>2026-05-01T15:27:57.001Z</time></trkpt><trkpt lat="45.7250730190982" lon="-0.17186731021902937"><ele>48.666666666666664</ele><time>2026-05-01T15:27:58.001Z</time></trkpt><trkpt lat="45.725175286441086" lon="-0.17163250310907396"><ele>49.0</ele><time>2026-05-01T15:27:59.001Z</time></trkpt><trkpt lat="45.72528283667652" lon="-0.17139446322213217"><ele>49.0</ele><time>2026-05-01T15:28:00.001Z</time></trkpt><trkpt lat="45.72539227256635" lon="-0.17115161401312468"><ele>49.0</ele><time>2026-05-01T15:28:01.001Z</time></trkpt><trkpt lat="45.72548874086198" lon="-0.17094512731473543"><ele>49.0</ele><time>2026-05-01T15:28:02.001Z</time></trkpt><trkpt lat="45.7255763117277" lon="-0.17075182005576192"><ele>48.75</ele><time>2026-05-01T15:28:03.001Z</time></trkpt><trkpt lat="45.72564678210006" lon="-0.17060616116042282"><ele>48.5</ele><time>2026-05-01T15:28:04.001Z</time></trkpt><trkpt lat="45.72572000629274" lon="-0.17046024833239096"><ele>48.25</ele><time>2026-05-01T15:28:05.001Z</time></trkpt><trkpt lat="45.72581618328924" lon="-0.17031092548985108"><ele>48.0</ele><time>2026-05-01T15:28:06.001Z</time></trkpt><trkpt lat="45.72592233320277" lon="-0.1701323478669182"><ele>48.0</ele><time>2026-05-01T15:28:07.001Z</time></trkpt><trkpt lat="45.726028568990806" lon="-0.1699808757387691"><ele>48.0</ele><time>2026-05-01T15:28:08.001Z</time></trkpt><trkpt lat="45.72614302299221" lon="-0.16983603139056483"><ele>48.0</ele><time>2026-05-01T15:28:09.001Z</time></trkpt><trkpt lat="45.72627152063268" lon="-0.16969315544586464"><ele>48.66666666666667</ele><time>2026-05-01T15:28:10.001Z</time></trkpt><trkpt lat="45.72642578851938" lon="-0.16955410864404627"><ele>49.333333333333336</ele><time>2026-05-01T15:28:11.001Z</time></trkpt><trkpt lat="45.726592433968236" lon="-0.1694092305360286"><ele>50.0</ele><time>2026-05-01T15:28:12.001Z</time></trkpt><trkpt lat="45.726747048631864" lon="-0.1692724972284356"><ele>50.66666666666667</ele><time>2026-05-01T15:28:13.001Z</time></trkpt><trkpt lat="45.726913721488145" lon="-0.1691270171060979"><ele>51.33333333333333</ele><time>2026-05-01T15:28:14.001Z</time></trkpt><trkpt lat="45.727086253412054" lon="-0.1689999558105349"><ele>52.0</ele><time>2026-05-01T15:28:15.001Z</time></trkpt><trkpt lat="45.72724523719416" lon="-0.1688953386833404"><ele>52.0</ele><time>2026-05-01T15:28:16.001Z</time></trkpt><trkpt lat="45.72738275609344" lon="-0.16878849632909648"><ele>52.0</ele><time>2026-05-01T15:28:17.001Z</time></trkpt><trkpt lat="45.72751272135547" lon="-0.16869042749869836"><ele>52.0</ele><time>2026-05-01T15:28:18.001Z</time></trkpt><trkpt lat="45.72764682106038" lon="-0.16860022977530062"><ele>52.33333333333333</ele><time>2026-05-01T15:28:19.001Z</time></trkpt><trkpt lat="45.72777164937781" lon="-0.16850541703285993"><ele>52.66666666666667</ele><time>2026-05-01T15:28:20.001Z</time></trkpt><trkpt lat="45.727892449715306" lon="-0.16836980559199552"><ele>53.0</ele><time>2026-05-01T15:28:21.001Z</time></trkpt><trkpt lat="45.72805110899522" lon="-0.16822218631146882"><ele>53.0</ele><time>2026-05-01T15:28:22.001Z</time></trkpt><trkpt lat="45.728189050895935" lon="-0.1680729551174515"><ele>53.0</ele><time>2026-05-01T15:28:23.001Z</time></trkpt><trkpt lat="45.72826723823836" lon="-0.16794617959271535"><ele>53.0</ele><time>2026-05-01T15:28:24.001Z</time></trkpt><trkpt lat="45.728361987530256" lon="-0.16782969716504306"><ele>53.0</ele><time>2026-05-01T15:28:25.001Z</time></trkpt><trkpt lat="45.72846151302398" lon="-0.16775049529899067"><ele>53.5</ele><time>2026-05-01T15:28:26.001Z</time></trkpt><trkpt lat="45.72857604263705" lon="-0.1676953057586416"><ele>54.0</ele><time>2026-05-01T15:28:27.001Z</time></trkpt><trkpt lat="45.72869563677282" lon="-0.1676776206240234"><ele>54.5</ele><time>2026-05-01T15:28:28.001Z</time></trkpt><trkpt lat="45.72883597342844" lon="-0.16767799619833473"><ele>55.0</ele><time>2026-05-01T15:28:29.001Z</time></trkpt><trkpt lat="45.72900886385832" lon="-0.16770766894533265"><ele>55.0</ele><time>2026-05-01T15:28:30.001Z</time></trkpt><trkpt lat="45.72917741807707" lon="-0.16772029109437686"><ele>55.0</ele><time>2026-05-01T15:28:31Z</time></trkpt><trkpt lat="45.729332449818834" lon="-0.16773417865569995"><ele>55.0</ele><time>2026-05-01T15:28:32Z</time></trkpt><trkpt lat="45.72948909322253" lon="-0.16772842822865855"><ele>55.2</ele><time>2026-05-01T15:28:33Z</time></trkpt><trkpt lat="45.7296269330216" lon="-0.16770041027901753"><ele>55.4</ele><time>2026-05-01T15:28:34Z</time></trkpt><trkpt lat="45.72975281836276" lon="-0.1676660413188178"><ele>55.599999999999994</ele><time>2026-05-01T15:28:35Z</time></trkpt><trkpt lat="45.72985836661876" lon="-0.16764701260379758"><ele>55.8</ele><time>2026-05-01T15:28:36Z</time></trkpt><trkpt lat="45.72992787221741" lon="-0.16763332478573878"><ele>56.0</ele><time>2026-05-01T15:28:37Z</time></trkpt><trkpt lat="45.73000684501622" lon="-0.1675925494043461"><ele>56.0</ele><time>2026-05-01T15:28:39Z</time></trkpt><trkpt lat="45.730023459505865" lon="-0.16749630422391895"><ele>55.99999999999999</ele><time>2026-05-01T15:28:41Z</time></trkpt><trkpt lat="45.73000414759589" lon="-0.16730183972911847"><ele>55.99999999999999</ele><time>2026-05-01T15:28:43Z</time></trkpt><trkpt lat="45.73001279165305" lon="-0.16716787122266394"><ele>56.0</ele><time>2026-05-01T15:28:44Z</time></trkpt><trkpt lat="45.72999081793535" lon="-0.16701873408790996"><ele>56.0</ele><time>2026-05-01T15:28:45Z</time></trkpt><trkpt lat="45.730002547216856" lon="-0.16686927402723575"><ele>56.25</ele><time>2026-05-01T15:28:46Z</time></trkpt><trkpt lat="45.73001537220465" lon="-0.1667104501980458"><ele>56.5</ele><time>2026-05-01T15:28:47Z</time></trkpt><trkpt lat="45.73002935094979" lon="-0.1665435905806432"><ele>56.75</ele><time>2026-05-01T15:28:48Z</time></trkpt><trkpt lat="45.73004529911815" lon="-0.1663649178134324"><ele>57.0</ele><time>2026-05-01T15:28:49Z</time></trkpt><trkpt lat="45.73006313280002" lon="-0.16618927910357"><ele>57.75</ele><time>2026-05-01T15:28:50Z</time></trkpt><trkpt lat="45.73008295196169" lon="-0.1660195390070821"><ele>58.5</ele><time>2026-05-01T15:28:51Z</time></trkpt><trkpt lat="45.73010727972355" lon="-0.165852044097438"><ele>59.25</ele><time>2026-05-01T15:28:52Z</time></trkpt><trkpt lat="45.73013892725584" lon="-0.1656859489787895"><ele>60.0</ele><time>2026-05-01T15:28:53Z</time></trkpt><trkpt lat="45.7301690957723" lon="-0.16551789728586289"><ele>60.2</ele><time>2026-05-01T15:28:54Z</time></trkpt><trkpt lat="45.73019058543212" lon="-0.1653515090536425"><ele>60.4</ele><time>2026-05-01T15:28:55Z</time></trkpt><trkpt lat="45.73020445531708" lon="-0.16518929504990087"><ele>60.599999999999994</ele><time>2026-05-01T15:28:56Z</time></trkpt><trkpt lat="45.73019853983263" lon="-0.16503324827348695"><ele>60.8</ele><time>2026-05-01T15:28:57Z</time></trkpt><trkpt lat="45.730169305603866" lon="-0.16488530619635675"><ele>61.0</ele><time>2026-05-01T15:28:58Z</time></trkpt><trkpt lat="45.73012578715836" lon="-0.16472031023414516"><ele>61.33333333333333</ele><time>2026-05-01T15:28:59Z</time></trkpt><trkpt lat="45.7300769483186" lon="-0.16453048249409524"><ele>61.66666666666667</ele><time>2026-05-01T15:29:00Z</time></trkpt><trkpt lat="45.730035739202584" lon="-0.16428372898935856"><ele>62.0</ele><time>2026-05-01T15:29:01Z</time></trkpt><trkpt lat="45.73004933039996" lon="-0.16406479166605425"><ele>61.66666666666667</ele><time>2026-05-01T15:29:02Z</time></trkpt><trkpt lat="45.73006476251225" lon="-0.16384793995746913"><ele>61.33333333333333</ele><time>2026-05-01T15:29:03Z</time></trkpt><trkpt lat="45.73006291161422" lon="-0.16362939490175743"><ele>61.0</ele><time>2026-05-01T15:29:04Z</time></trkpt><trkpt lat="45.73007598287488" lon="-0.16341009567673678"><ele>61.666666666666664</ele><time>2026-05-01T15:29:05Z</time></trkpt><trkpt lat="45.73008786846348" lon="-0.1631891904211289"><ele>62.33333333333333</ele><time>2026-05-01T15:29:06Z</time></trkpt><trkpt lat="45.7300996643252" lon="-0.16296995279332985"><ele>63.0</ele><time>2026-05-01T15:29:07Z</time></trkpt><trkpt lat="45.73011176206239" lon="-0.16274510459252334"><ele>63.0</ele><time>2026-05-01T15:29:08Z</time></trkpt><trkpt lat="45.730123220516155" lon="-0.16253213802937935"><ele>63.0</ele><time>2026-05-01T15:29:09Z</time></trkpt><trkpt lat="45.73013352355202" lon="-0.16234152220834971"><ele>63.0</ele><time>2026-05-01T15:29:10Z</time></trkpt><trkpt lat="45.73016050760815" lon="-0.16217259335582904"><ele>63.0</ele><time>2026-05-01T15:29:11Z</time></trkpt><trkpt lat="45.73015355772776" lon="-0.16202569580479662"><ele>62.833333333333336</ele><time>2026-05-01T15:29:12Z</time></trkpt><trkpt lat="45.730160194631225" lon="-0.16192106914330454"><ele>62.66666666666667</ele><time>2026-05-01T15:29:13Z</time></trkpt><trkpt lat="45.73015191099622" lon="-0.1617881895512437"><ele>62.5</ele><time>2026-05-01T15:29:15Z</time></trkpt><trkpt lat="45.73006205937426" lon="-0.16178395902403742"><ele>62.333333333333336</ele><time>2026-05-01T15:29:16Z</time></trkpt><trkpt lat="45.729986598260034" lon="-0.1617475172951106"><ele>62.16666666666667</ele><time>2026-05-01T15:29:17Z</time></trkpt><trkpt lat="45.729923962236725" lon="-0.1617302190885255"><ele>62.0</ele><time>2026-05-01T15:29:18Z</time></trkpt><trkpt lat="45.729844801671874" lon="-0.16173247608218858"><ele>62.0</ele><time>2026-05-01T15:29:19Z</time></trkpt><trkpt lat="45.729769259130194" lon="-0.16169447075247118"><ele>62.0</ele><time>2026-05-01T15:29:21Z</time></trkpt><trkpt lat="45.7297858128373" lon="-0.16142162805834306"><ele>62.0</ele><time>2026-05-01T15:29:22Z</time></trkpt><trkpt lat="45.72978878683347" lon="-0.16129632607699204"><ele>62.0</ele><time>2026-05-01T15:29:23Z</time></trkpt><trkpt lat="45.729782711435654" lon="-0.16114522027105338"><ele>62.6</ele><time>2026-05-01T15:29:24Z</time></trkpt><trkpt lat="45.72979848396782" lon="-0.16098824331212602"><ele>63.2</ele><time>2026-05-01T15:29:25.001Z</time></trkpt><trkpt lat="45.7298060411496" lon="-0.16082806238511857"><ele>63.8</ele><time>2026-05-01T15:29:26.001Z</time></trkpt><trkpt lat="45.72980231833622" lon="-0.16066335056991304"><ele>64.4</ele><time>2026-05-01T15:29:27.001Z</time></trkpt><trkpt lat="45.72981962469127" lon="-0.16051086158726893"><ele>65.0</ele><time>2026-05-01T15:29:28.001Z</time></trkpt><trkpt lat="45.729847933803605" lon="-0.16036496564420352"><ele>65.0</ele><time>2026-05-01T15:29:29.001Z</time></trkpt><trkpt lat="45.7298527559435" lon="-0.16022290618053459"><ele>65.0</ele><time>2026-05-01T15:29:30.001Z</time></trkpt><trkpt lat="45.729865105084436" lon="-0.16009081436597164"><ele>65.0</ele><time>2026-05-01T15:29:31.001Z</time></trkpt><trkpt lat="45.729860906070265" lon="-0.15995223155266103"><ele>65.0</ele><time>2026-05-01T15:29:32.001Z</time></trkpt><trkpt lat="45.72984762203847" lon="-0.15980395808320472"><ele>65.0</ele><time>2026-05-01T15:29:33.001Z</time></trkpt><trkpt lat="45.72983914797491" lon="-0.15967597351371282"><ele>65.4</ele><time>2026-05-01T15:29:34.001Z</time></trkpt><trkpt lat="45.729842246987346" lon="-0.1595111224657992"><ele>65.8</ele><time>2026-05-01T15:29:35.001Z</time></trkpt><trkpt lat="45.729853238327486" lon="-0.15935382921916497"><ele>66.2</ele><time>2026-05-01T15:29:36.001Z</time></trkpt><trkpt lat="45.72986123661927" lon="-0.15920217063352363"><ele>66.6</ele><time>2026-05-01T15:29:37.001Z</time></trkpt><trkpt lat="45.72985713384365" lon="-0.1590552684995962"><ele>67.0</ele><time>2026-05-01T15:29:38.001Z</time></trkpt><trkpt lat="45.72986053615173" lon="-0.15893359193887793"><ele>67.14285714285714</ele><time>2026-05-01T15:29:39.001Z</time></trkpt><trkpt lat="45.72986417644626" lon="-0.15881794787359693"><ele>67.28571428571428</ele><time>2026-05-01T15:29:40.001Z</time></trkpt><trkpt lat="45.7298692632879" lon="-0.15870619776040035"><ele>67.42857142857142</ele><time>2026-05-01T15:29:41.001Z</time></trkpt><trkpt lat="45.729875892585675" lon="-0.15860485442114391"><ele>67.57142857142857</ele><time>2026-05-01T15:29:42.001Z</time></trkpt><trkpt lat="45.7298852588948" lon="-0.1585081399513348"><ele>67.71428571428571</ele><time>2026-05-01T15:29:43.001Z</time></trkpt><trkpt lat="45.72988095653044" lon="-0.15839518191502117"><ele>67.85714285714285</ele><time>2026-05-01T15:29:45.001Z</time></trkpt><trkpt lat="45.729882748250866" lon="-0.1582952010070239"><ele>68.0</ele><time>2026-05-01T15:30:10.001Z</time></trkpt><trkpt lat="45.73004457651501" lon="-0.15825860159746832"><ele>68.0</ele><time>2026-05-01T15:30:12.001Z</time></trkpt><trkpt lat="45.73014675179244" lon="-0.15823033282407445"><ele>68.0</ele><time>2026-05-01T15:30:13.001Z</time></trkpt><trkpt lat="45.730276134889934" lon="-0.15822195390089094"><ele>68.0</ele><time>2026-05-01T15:30:14.001Z</time></trkpt><trkpt lat="45.7304426828771" lon="-0.15821084358728954"><ele>68.0</ele><time>2026-05-01T15:30:15.001Z</time></trkpt><trkpt lat="45.73063036906102" lon="-0.15819792897974347"><ele>68.0</ele><time>2026-05-01T15:30:16.001Z</time></trkpt><trkpt lat="45.730850945640285" lon="-0.15820249205881737"><ele>68.0</ele><time>2026-05-01T15:30:17.001Z</time></trkpt><trkpt lat="45.73105466448901" lon="-0.15816873338954884"><ele>68.0</ele><time>2026-05-01T15:30:18.001Z</time></trkpt><trkpt lat="45.731248487108026" lon="-0.15815551383720222"><ele>69.0</ele><time>2026-05-01T15:30:19.001Z</time></trkpt><trkpt lat="45.73144486639544" lon="-0.1581423409165254"><ele>70.0</ele><time>2026-05-01T15:30:20.001Z</time></trkpt><trkpt lat="45.73163696462757" lon="-0.15812930409913686"><ele>71.0</ele><time>2026-05-01T15:30:21.001Z</time></trkpt><trkpt lat="45.73183305648433" lon="-0.1581311414237282"><ele>71.0</ele><time>2026-05-01T15:30:22.001Z</time></trkpt><trkpt lat="45.73202976364141" lon="-0.15810130127162736"><ele>71.0</ele><time>2026-05-01T15:30:23.001Z</time></trkpt><trkpt lat="45.73221504821891" lon="-0.15808809224479442"><ele>71.0</ele><time>2026-05-01T15:30:24.001Z</time></trkpt><trkpt lat="45.73237980433633" lon="-0.1580974374501875"><ele>71.0</ele><time>2026-05-01T15:30:25.001Z</time></trkpt><trkpt lat="45.73253240951275" lon="-0.15806460634728786"><ele>71.0</ele><time>2026-05-01T15:30:26.001Z</time></trkpt><trkpt lat="45.73267728231602" lon="-0.15805071038917962"><ele>71.0</ele><time>2026-05-01T15:30:27.001Z</time></trkpt><trkpt lat="45.73281477943776" lon="-0.15803752189148706"><ele>71.0</ele><time>2026-05-01T15:30:28.001Z</time></trkpt><trkpt lat="45.73294348356704" lon="-0.15802130548438592"><ele>71.39999999999999</ele><time>2026-05-01T15:30:29.001Z</time></trkpt><trkpt lat="45.73306832441772" lon="-0.1580014745069221"><ele>71.8</ele><time>2026-05-01T15:30:30.001Z</time></trkpt><trkpt lat="45.73317513432326" lon="-0.15798405189845968"><ele>72.19999999999999</ele><time>2026-05-01T15:30:31.001Z</time></trkpt><trkpt lat="45.73327897582746" lon="-0.15796554415563852"><ele>72.6</ele><time>2026-05-01T15:30:32.001Z</time></trkpt><trkpt lat="45.73337702006324" lon="-0.15794688108343105"><ele>73.0</ele><time>2026-05-01T15:30:33.001Z</time></trkpt><trkpt lat="45.733467986881905" lon="-0.15792772357918455"><ele>73.16666666666666</ele><time>2026-05-01T15:30:34.001Z</time></trkpt><trkpt lat="45.73356099925054" lon="-0.15790814422627988"><ele>73.33333333333333</ele><time>2026-05-01T15:30:35.001Z</time></trkpt><trkpt lat="45.73364002852676" lon="-0.15789064335939468"><ele>73.5</ele><time>2026-05-01T15:30:36.001Z</time></trkpt><trkpt lat="45.73370978508978" lon="-0.15787448325715128"><ele>73.66666666666667</ele><time>2026-05-01T15:30:37Z</time></trkpt><trkpt lat="45.733775985871894" lon="-0.15785914502265883"><ele>73.83333333333334</ele><time>2026-05-01T15:30:38Z</time></trkpt><trkpt lat="45.73385642768612" lon="-0.15776352541461494"><ele>74.0</ele><time>2026-05-01T15:30:40Z</time></trkpt><trkpt lat="45.73381877951774" lon="-0.1575633937720905"><ele>74.0</ele><time>2026-05-01T15:30:42Z</time></trkpt><trkpt lat="45.733800739308094" lon="-0.15745187344449857"><ele>74.0</ele><time>2026-05-01T15:30:43Z</time></trkpt><trkpt lat="45.73378014413865" lon="-0.1573245575195272"><ele>74.0</ele><time>2026-05-01T15:30:44Z</time></trkpt><trkpt lat="45.7337672076978" lon="-0.1571668579040757"><ele>74.0</ele><time>2026-05-01T15:30:45Z</time></trkpt><trkpt lat="45.733735232662255" lon="-0.1570044199613056"><ele>74.0</ele><time>2026-05-01T15:30:46Z</time></trkpt><trkpt lat="45.73369480774032" lon="-0.1568163919678347"><ele>73.66666666666667</ele><time>2026-05-01T15:30:47Z</time></trkpt><trkpt lat="45.73365732044177" lon="-0.1566033605358218"><ele>73.33333333333333</ele><time>2026-05-01T15:30:48Z</time></trkpt><trkpt lat="45.733614481778545" lon="-0.15634302388409074"><ele>73.0</ele><time>2026-05-01T15:30:49Z</time></trkpt><trkpt lat="45.7335748180557" lon="-0.15606791852242038"><ele>73.0</ele><time>2026-05-01T15:30:50Z</time></trkpt><trkpt lat="45.73353066693827" lon="-0.155822426278663"><ele>73.0</ele><time>2026-05-01T15:30:51Z</time></trkpt><trkpt lat="45.733488305500295" lon="-0.1555975193257589"><ele>73.0</ele><time>2026-05-01T15:30:52Z</time></trkpt><trkpt lat="45.73345946924708" lon="-0.15540329577714593"><ele>73.0</ele><time>2026-05-01T15:30:53Z</time></trkpt><trkpt lat="45.73341732120907" lon="-0.15520361116574952"><ele>73.0</ele><time>2026-05-01T15:30:54Z</time></trkpt><trkpt lat="45.7333860016549" lon="-0.15503579609726326"><ele>73.0</ele><time>2026-05-01T15:30:55Z</time></trkpt><trkpt lat="45.73335792623297" lon="-0.1548768072032424"><ele>73.0</ele><time>2026-05-01T15:30:56Z</time></trkpt><trkpt lat="45.73332586355819" lon="-0.15472644510302663"><ele>73.0</ele><time>2026-05-01T15:30:57Z</time></trkpt><trkpt lat="45.73329396600813" lon="-0.15459243013599966"><ele>73.0</ele><time>2026-05-01T15:30:58Z</time></trkpt><trkpt lat="45.733260434831834" lon="-0.1544649913570933"><ele>73.0</ele><time>2026-05-01T15:30:59Z</time></trkpt><trkpt lat="45.73322481013108" lon="-0.15435220130379737"><ele>73.0</ele><time>2026-05-01T15:31:00Z</time></trkpt><trkpt lat="45.73318297998513" lon="-0.15425164196337207"><ele>73.0</ele><time>2026-05-01T15:31:01Z</time></trkpt><trkpt lat="45.73314000554407" lon="-0.15416686594651433"><ele>73.0</ele><time>2026-05-01T15:31:02Z</time></trkpt><trkpt lat="45.73309459062498" lon="-0.15408888560063375"><ele>73.0</ele><time>2026-05-01T15:31:03Z</time></trkpt><trkpt lat="45.73304731733736" lon="-0.15401222565738032"><ele>73.0</ele><time>2026-05-01T15:31:05Z</time></trkpt><trkpt lat="45.73319671753917" lon="-0.15389876473606562"><ele>73.0</ele><time>2026-05-01T15:31:07Z</time></trkpt><trkpt lat="45.7333089600996" lon="-0.1539468130349018"><ele>73.0</ele><time>2026-05-01T15:31:09Z</time></trkpt><trkpt lat="45.73342916106158" lon="-0.15397977950118713"><ele>73.0</ele><time>2026-05-01T15:31:11Z</time></trkpt><trkpt lat="45.73349135803979" lon="-0.1539634728554893"><ele>73.0</ele><time>2026-05-01T15:31:12Z</time></trkpt><trkpt lat="45.73355152879462" lon="-0.15392588426592613"><ele>73.0</ele><time>2026-05-01T15:31:13Z</time></trkpt><trkpt lat="45.73360925590093" lon="-0.15387555773872882"><ele>73.0</ele><time>2026-05-01T15:31:14Z</time></trkpt><trkpt lat="45.733666532001" lon="-0.153832154948952"><ele>73.0</ele><time>2026-05-01T15:31:15Z</time></trkpt><trkpt lat="45.733728562628535" lon="-0.15378482094957394"><ele>73.0</ele><time>2026-05-01T15:31:16Z</time></trkpt><trkpt lat="45.73379016118942" lon="-0.15373983068483502"><ele>73.0</ele><time>2026-05-01T15:31:17Z</time></trkpt><trkpt lat="45.73385276156651" lon="-0.15369749166895744"><ele>72.0</ele><time>2026-05-01T15:31:18Z</time></trkpt><trkpt lat="45.73395915229055" lon="-0.15365738581991448"><ele>72.0</ele><time>2026-05-01T15:31:20Z</time></trkpt><trkpt lat="45.73404097256548" lon="-0.15363765971700105"><ele>72.0</ele><time>2026-05-01T15:31:22Z</time></trkpt><trkpt lat="45.734020106140356" lon="-0.15387596040517015"><ele>72.0</ele><time>2026-05-01T15:55:28Z</time></trkpt></trkseg></trk></gpx>